<?xml version="1.0" encoding="UTF-8"?>
<gpx version="1.1" creator="https://www.youtrack.es" xsi:schemaLocation="http://www.topografix.com/GPX/1/1 http://www.topografix.com/GPX/1/1/gpx.xsd http://www.garmin.com/xmlschemas/GpxExtensions/v3 http://www.garmin.com/xmlschemas/GpxExtensionsv3.xsd http://www.garmin.com/xmlschemas/TrackPointExtension/v1 http://www.garmin.com/xmlschemas/TrackPointExtensionv1.xsd" xmlns:gpxtpx="http://www.garmin.com/xmlschemas/TrackPointExtension/v1" xmlns:gpxx="http://www.garmin.com/xmlschemas/GpxExtensions/v3" xmlns:xsi="http://www.w3.org/2001/XMLSchema-instance">
  <metadata>
    <link href="https://www.youtrack.es">
      <text>YouTrack.es</text>
    </link>
    <time>2026-05-08T02:19:39Z</time>
  </metadata>
  <trk>
    <src>https://www.youtrack.es</src>
    <link href="https://www.youtrack.es/ruta/10943-xeraco-barxeta">
      <text>YouTrack.es</text>
    </link>
    <trkseg>
      <trkpt lat="39.03585167" lon="-0.21446667">
        <ele>12.973</ele>
        <time>2020-02-08T07:05:49.802Z</time>
      </trkpt>
      <trkpt lat="39.03585167" lon="-0.21446667">
        <ele>12.973</ele>
        <time>2020-02-08T07:05:50.802Z</time>
      </trkpt>
      <trkpt lat="39.03585167" lon="-0.21446667">
        <ele>12.973</ele>
        <time>2020-02-08T07:05:51.802Z</time>
      </trkpt>
      <trkpt lat="39.03585167" lon="-0.21446667">
        <ele>11.973</ele>
        <time>2020-02-08T07:05:52.802Z</time>
      </trkpt>
      <trkpt lat="39.03585167" lon="-0.21446667">
        <ele>11.973</ele>
        <time>2020-02-08T07:05:53.802Z</time>
      </trkpt>
      <trkpt lat="39.03585167" lon="-0.21446667">
        <ele>11.973</ele>
        <time>2020-02-08T07:05:54.802Z</time>
      </trkpt>
      <trkpt lat="39.03585167" lon="-0.21446667">
        <ele>11.973</ele>
        <time>2020-02-08T07:05:55.802Z</time>
      </trkpt>
      <trkpt lat="39.03585167" lon="-0.21446667">
        <ele>11.973</ele>
        <time>2020-02-08T07:05:56.802Z</time>
      </trkpt>
      <trkpt lat="39.03585167" lon="-0.21446667">
        <ele>11.973</ele>
        <time>2020-02-08T07:05:57.802Z</time>
      </trkpt>
      <trkpt lat="39.03585167" lon="-0.21446667">
        <ele>11.973</ele>
        <time>2020-02-08T07:05:58.802Z</time>
      </trkpt>
      <trkpt lat="39.03585167" lon="-0.21446667">
        <ele>11.973</ele>
        <time>2020-02-08T07:05:59.802Z</time>
      </trkpt>
      <trkpt lat="39.03585167" lon="-0.21446667">
        <ele>11.973</ele>
        <time>2020-02-08T07:06:00.802Z</time>
      </trkpt>
      <trkpt lat="39.03585167" lon="-0.21446667">
        <ele>11.973</ele>
        <time>2020-02-08T07:06:01.802Z</time>
      </trkpt>
      <trkpt lat="39.03585167" lon="-0.21446667">
        <ele>11.973</ele>
        <time>2020-02-08T07:06:02.802Z</time>
      </trkpt>
      <trkpt lat="39.03585167" lon="-0.21446667">
        <ele>11.973</ele>
        <time>2020-02-08T07:06:03.802Z</time>
      </trkpt>
      <trkpt lat="39.03585167" lon="-0.21446667">
        <ele>11.973</ele>
        <time>2020-02-08T07:06:04.802Z</time>
      </trkpt>
      <trkpt lat="39.03585167" lon="-0.21446667">
        <ele>11.973</ele>
        <time>2020-02-08T07:06:05.802Z</time>
      </trkpt>
      <trkpt lat="39.03585167" lon="-0.21446667">
        <ele>11.973</ele>
        <time>2020-02-08T07:06:06.802Z</time>
      </trkpt>
      <trkpt lat="39.03585167" lon="-0.21446667">
        <ele>11.973</ele>
        <time>2020-02-08T07:06:07.802Z</time>
      </trkpt>
      <trkpt lat="39.03585167" lon="-0.21446667">
        <ele>10.973</ele>
        <time>2020-02-08T07:06:08.802Z</time>
      </trkpt>
      <trkpt lat="39.03585167" lon="-0.21446667">
        <ele>10.973</ele>
        <time>2020-02-08T07:06:09.802Z</time>
      </trkpt>
      <trkpt lat="39.03585167" lon="-0.21446667">
        <ele>10.973</ele>
        <time>2020-02-08T07:06:10.802Z</time>
      </trkpt>
      <trkpt lat="39.03585167" lon="-0.21446667">
        <ele>10.973</ele>
        <time>2020-02-08T07:06:11.802Z</time>
      </trkpt>
      <trkpt lat="39.03585167" lon="-0.21446667">
        <ele>10.973</ele>
        <time>2020-02-08T07:06:12.802Z</time>
      </trkpt>
      <trkpt lat="39.03585167" lon="-0.21446667">
        <ele>10.973</ele>
        <time>2020-02-08T07:06:13.802Z</time>
      </trkpt>
      <trkpt lat="39.03585167" lon="-0.21446667">
        <ele>10.973</ele>
        <time>2020-02-08T07:06:14.802Z</time>
      </trkpt>
      <trkpt lat="39.03585167" lon="-0.21446667">
        <ele>10.973</ele>
        <time>2020-02-08T07:06:15.802Z</time>
      </trkpt>
      <trkpt lat="39.03585167" lon="-0.21446667">
        <ele>10.973</ele>
        <time>2020-02-08T07:06:16.802Z</time>
      </trkpt>
      <trkpt lat="39.03585167" lon="-0.21446667">
        <ele>10.973</ele>
        <time>2020-02-08T07:06:17.802Z</time>
      </trkpt>
      <trkpt lat="39.03585167" lon="-0.21446667">
        <ele>10.973</ele>
        <time>2020-02-08T07:06:18.802Z</time>
      </trkpt>
      <trkpt lat="39.03585167" lon="-0.21446667">
        <ele>10.973</ele>
        <time>2020-02-08T07:06:19.802Z</time>
      </trkpt>
      <trkpt lat="39.03585167" lon="-0.21446667">
        <ele>10.973</ele>
        <time>2020-02-08T07:06:20.802Z</time>
      </trkpt>
      <trkpt lat="39.03585167" lon="-0.21446667">
        <ele>10.973</ele>
        <time>2020-02-08T07:06:21.802Z</time>
      </trkpt>
      <trkpt lat="39.03585167" lon="-0.21446667">
        <ele>10.973</ele>
        <time>2020-02-08T07:06:22.802Z</time>
      </trkpt>
      <trkpt lat="39.03585167" lon="-0.21446667">
        <ele>10.973</ele>
        <time>2020-02-08T07:06:23.802Z</time>
      </trkpt>
      <trkpt lat="39.03585167" lon="-0.21446667">
        <ele>10.973</ele>
        <time>2020-02-08T07:06:24.802Z</time>
      </trkpt>
      <trkpt lat="39.03585167" lon="-0.21446667">
        <ele>10.973</ele>
        <time>2020-02-08T07:06:25.802Z</time>
      </trkpt>
      <trkpt lat="39.03585167" lon="-0.21446667">
        <ele>10.973</ele>
        <time>2020-02-08T07:06:26.802Z</time>
      </trkpt>
      <trkpt lat="39.03585167" lon="-0.21446667">
        <ele>10.973</ele>
        <time>2020-02-08T07:06:27.802Z</time>
      </trkpt>
      <trkpt lat="39.03585167" lon="-0.21446667">
        <ele>10.973</ele>
        <time>2020-02-08T07:06:28.802Z</time>
      </trkpt>
      <trkpt lat="39.03585167" lon="-0.21446667">
        <ele>10.973</ele>
        <time>2020-02-08T07:06:29.802Z</time>
      </trkpt>
      <trkpt lat="39.03585167" lon="-0.21446667">
        <ele>10.973</ele>
        <time>2020-02-08T07:06:30.802Z</time>
      </trkpt>
      <trkpt lat="39.03585167" lon="-0.21446667">
        <ele>10.973</ele>
        <time>2020-02-08T07:06:31.802Z</time>
      </trkpt>
      <trkpt lat="39.03585167" lon="-0.21446667">
        <ele>10.973</ele>
        <time>2020-02-08T07:06:32.802Z</time>
      </trkpt>
      <trkpt lat="39.03585167" lon="-0.21446667">
        <ele>10.973</ele>
        <time>2020-02-08T07:06:33.802Z</time>
      </trkpt>
      <trkpt lat="39.03585167" lon="-0.21446667">
        <ele>10.973</ele>
        <time>2020-02-08T07:06:34.802Z</time>
      </trkpt>
      <trkpt lat="39.03585167" lon="-0.21446667">
        <ele>10.973</ele>
        <time>2020-02-08T07:06:35.802Z</time>
      </trkpt>
      <trkpt lat="39.03585167" lon="-0.21446667">
        <ele>10.973</ele>
        <time>2020-02-08T07:06:36.802Z</time>
      </trkpt>
      <trkpt lat="39.03585167" lon="-0.21446667">
        <ele>10.973</ele>
        <time>2020-02-08T07:06:37.802Z</time>
      </trkpt>
      <trkpt lat="39.03585167" lon="-0.21446667">
        <ele>10.973</ele>
        <time>2020-02-08T07:06:38.802Z</time>
      </trkpt>
      <trkpt lat="39.03585167" lon="-0.21446667">
        <ele>10.973</ele>
        <time>2020-02-08T07:06:39.802Z</time>
      </trkpt>
      <trkpt lat="39.03585167" lon="-0.21446667">
        <ele>10.973</ele>
        <time>2020-02-08T07:06:40.802Z</time>
      </trkpt>
      <trkpt lat="39.03585167" lon="-0.21446667">
        <ele>10.973</ele>
        <time>2020-02-08T07:06:41.802Z</time>
      </trkpt>
      <trkpt lat="39.03585167" lon="-0.21446667">
        <ele>10.973</ele>
        <time>2020-02-08T07:06:42.802Z</time>
      </trkpt>
      <trkpt lat="39.03585167" lon="-0.21446667">
        <ele>10.973</ele>
        <time>2020-02-08T07:06:43.802Z</time>
      </trkpt>
      <trkpt lat="39.03585167" lon="-0.21446667">
        <ele>10.973</ele>
        <time>2020-02-08T07:06:44.802Z</time>
      </trkpt>
      <trkpt lat="39.03585167" lon="-0.21446667">
        <ele>10.973</ele>
        <time>2020-02-08T07:06:45.802Z</time>
      </trkpt>
      <trkpt lat="39.03585167" lon="-0.21446667">
        <ele>10.973</ele>
        <time>2020-02-08T07:06:46.802Z</time>
      </trkpt>
      <trkpt lat="39.03585167" lon="-0.21446667">
        <ele>10.973</ele>
        <time>2020-02-08T07:06:47.802Z</time>
      </trkpt>
      <trkpt lat="39.03585167" lon="-0.21446667">
        <ele>10.973</ele>
        <time>2020-02-08T07:06:48.802Z</time>
      </trkpt>
      <trkpt lat="39.03585167" lon="-0.21446667">
        <ele>10.973</ele>
        <time>2020-02-08T07:06:49.802Z</time>
      </trkpt>
      <trkpt lat="39.03587" lon="-0.2145">
        <ele>10.973</ele>
        <time>2020-02-08T07:06:50.802Z</time>
      </trkpt>
      <trkpt lat="39.03587" lon="-0.2145">
        <ele>10.973</ele>
        <time>2020-02-08T07:06:51.802Z</time>
      </trkpt>
      <trkpt lat="39.03589667" lon="-0.21452167">
        <ele>10.973</ele>
        <time>2020-02-08T07:06:52.802Z</time>
      </trkpt>
      <trkpt lat="39.03591333" lon="-0.21452833">
        <ele>10.973</ele>
        <time>2020-02-08T07:06:53.802Z</time>
      </trkpt>
      <trkpt lat="39.03591333" lon="-0.21452833">
        <ele>10.973</ele>
        <time>2020-02-08T07:06:54.802Z</time>
      </trkpt>
      <trkpt lat="39.03594667" lon="-0.21454833">
        <ele>10.973</ele>
        <time>2020-02-08T07:06:55.802Z</time>
      </trkpt>
      <trkpt lat="39.035965" lon="-0.21455333">
        <ele>10.973</ele>
        <time>2020-02-08T07:06:56.802Z</time>
      </trkpt>
      <trkpt lat="39.035965" lon="-0.21455333">
        <ele>10.973</ele>
        <time>2020-02-08T07:06:57.802Z</time>
      </trkpt>
      <trkpt lat="39.03599833" lon="-0.21456333">
        <ele>10.973</ele>
        <time>2020-02-08T07:06:58.802Z</time>
      </trkpt>
      <trkpt lat="39.03599833" lon="-0.21456333">
        <ele>10.973</ele>
        <time>2020-02-08T07:06:59.802Z</time>
      </trkpt>
      <trkpt lat="39.036035" lon="-0.21457667">
        <ele>10.973</ele>
        <time>2020-02-08T07:07:00.802Z</time>
      </trkpt>
      <trkpt lat="39.036035" lon="-0.21457667">
        <ele>10.973</ele>
        <time>2020-02-08T07:07:01.802Z</time>
      </trkpt>
      <trkpt lat="39.03608" lon="-0.21458">
        <ele>10.973</ele>
        <time>2020-02-08T07:07:02.802Z</time>
      </trkpt>
      <trkpt lat="39.03608" lon="-0.21458">
        <ele>10.973</ele>
        <time>2020-02-08T07:07:03.802Z</time>
      </trkpt>
      <trkpt lat="39.03612333" lon="-0.21459167">
        <ele>10.973</ele>
        <time>2020-02-08T07:07:04.802Z</time>
      </trkpt>
      <trkpt lat="39.03612333" lon="-0.21459167">
        <ele>10.973</ele>
        <time>2020-02-08T07:07:05.802Z</time>
      </trkpt>
      <trkpt lat="39.03616333" lon="-0.21459833">
        <ele>10.973</ele>
        <time>2020-02-08T07:07:06.802Z</time>
      </trkpt>
      <trkpt lat="39.03616333" lon="-0.21459833">
        <ele>10.973</ele>
        <time>2020-02-08T07:07:07.802Z</time>
      </trkpt>
      <trkpt lat="39.03621333" lon="-0.21460833">
        <ele>10.973</ele>
        <time>2020-02-08T07:07:08.802Z</time>
      </trkpt>
      <trkpt lat="39.03621333" lon="-0.21460833">
        <ele>10.973</ele>
        <time>2020-02-08T07:07:09.802Z</time>
      </trkpt>
      <trkpt lat="39.03626333" lon="-0.21461667">
        <ele>10.973</ele>
        <time>2020-02-08T07:07:10.802Z</time>
      </trkpt>
      <trkpt lat="39.03626333" lon="-0.21461667">
        <ele>10.973</ele>
        <time>2020-02-08T07:07:11.802Z</time>
      </trkpt>
      <trkpt lat="39.03631833" lon="-0.21463833">
        <ele>10.973</ele>
        <time>2020-02-08T07:07:12.802Z</time>
      </trkpt>
      <trkpt lat="39.03631833" lon="-0.21463833">
        <ele>10.973</ele>
        <time>2020-02-08T07:07:13.802Z</time>
      </trkpt>
      <trkpt lat="39.03637333" lon="-0.21464833">
        <ele>10.973</ele>
        <time>2020-02-08T07:07:14.802Z</time>
      </trkpt>
      <trkpt lat="39.03637333" lon="-0.21464833">
        <ele>11.973</ele>
        <time>2020-02-08T07:07:15.802Z</time>
      </trkpt>
      <trkpt lat="39.03642667" lon="-0.21466333">
        <ele>11.973</ele>
        <time>2020-02-08T07:07:16.802Z</time>
      </trkpt>
      <trkpt lat="39.03642667" lon="-0.21466333">
        <ele>11.973</ele>
        <time>2020-02-08T07:07:17.802Z</time>
      </trkpt>
      <trkpt lat="39.03648" lon="-0.21467167">
        <ele>11.973</ele>
        <time>2020-02-08T07:07:18.802Z</time>
      </trkpt>
      <trkpt lat="39.03650833" lon="-0.21468">
        <ele>11.973</ele>
        <time>2020-02-08T07:07:19.802Z</time>
      </trkpt>
      <trkpt lat="39.03650833" lon="-0.21468">
        <ele>11.973</ele>
        <time>2020-02-08T07:07:20.802Z</time>
      </trkpt>
      <trkpt lat="39.036555" lon="-0.21469833">
        <ele>11.973</ele>
        <time>2020-02-08T07:07:21.802Z</time>
      </trkpt>
      <trkpt lat="39.036555" lon="-0.21469833">
        <ele>11.973</ele>
        <time>2020-02-08T07:07:22.802Z</time>
      </trkpt>
      <trkpt lat="39.036615" lon="-0.21472">
        <ele>11.973</ele>
        <time>2020-02-08T07:07:23.802Z</time>
      </trkpt>
      <trkpt lat="39.03664833" lon="-0.21472833">
        <ele>11.973</ele>
        <time>2020-02-08T07:07:24.802Z</time>
      </trkpt>
      <trkpt lat="39.03664833" lon="-0.21472833">
        <ele>11.973</ele>
        <time>2020-02-08T07:07:25.802Z</time>
      </trkpt>
      <trkpt lat="39.03672333" lon="-0.214755">
        <ele>11.973</ele>
        <time>2020-02-08T07:07:26.802Z</time>
      </trkpt>
      <trkpt lat="39.03672333" lon="-0.214755">
        <ele>11.973</ele>
        <time>2020-02-08T07:07:27.802Z</time>
      </trkpt>
      <trkpt lat="39.03679667" lon="-0.21477833">
        <ele>11.973</ele>
        <time>2020-02-08T07:07:28.802Z</time>
      </trkpt>
      <trkpt lat="39.03679667" lon="-0.21477833">
        <ele>11.973</ele>
        <time>2020-02-08T07:07:29.802Z</time>
      </trkpt>
      <trkpt lat="39.036875" lon="-0.21480167">
        <ele>11.973</ele>
        <time>2020-02-08T07:07:30.802Z</time>
      </trkpt>
      <trkpt lat="39.036875" lon="-0.21480167">
        <ele>11.973</ele>
        <time>2020-02-08T07:07:31.802Z</time>
      </trkpt>
      <trkpt lat="39.036955" lon="-0.21482167">
        <ele>11.973</ele>
        <time>2020-02-08T07:07:32.802Z</time>
      </trkpt>
      <trkpt lat="39.036955" lon="-0.21482167">
        <ele>11.973</ele>
        <time>2020-02-08T07:07:33.802Z</time>
      </trkpt>
      <trkpt lat="39.03704" lon="-0.21482833">
        <ele>11.973</ele>
        <time>2020-02-08T07:07:34.802Z</time>
      </trkpt>
      <trkpt lat="39.03708167" lon="-0.21482833">
        <ele>11.973</ele>
        <time>2020-02-08T07:07:35.802Z</time>
      </trkpt>
      <trkpt lat="39.03712333" lon="-0.21483333">
        <ele>11.973</ele>
        <time>2020-02-08T07:07:36.802Z</time>
      </trkpt>
      <trkpt lat="39.03712333" lon="-0.21483333">
        <ele>11.973</ele>
        <time>2020-02-08T07:07:37.802Z</time>
      </trkpt>
      <trkpt lat="39.03721667" lon="-0.21486667">
        <ele>11.973</ele>
        <time>2020-02-08T07:07:38.802Z</time>
      </trkpt>
      <trkpt lat="39.03721667" lon="-0.21486667">
        <ele>11.973</ele>
        <time>2020-02-08T07:07:39.802Z</time>
      </trkpt>
      <trkpt lat="39.03730833" lon="-0.214905">
        <ele>11.973</ele>
        <time>2020-02-08T07:07:40.802Z</time>
      </trkpt>
      <trkpt lat="39.03730833" lon="-0.214905">
        <ele>11.973</ele>
        <time>2020-02-08T07:07:41.802Z</time>
      </trkpt>
      <trkpt lat="39.03739333" lon="-0.21492667">
        <ele>11.973</ele>
        <time>2020-02-08T07:07:42.802Z</time>
      </trkpt>
      <trkpt lat="39.03739333" lon="-0.21492667">
        <ele>12.973</ele>
        <time>2020-02-08T07:07:43.802Z</time>
      </trkpt>
      <trkpt lat="39.03748167" lon="-0.21495333">
        <ele>12.973</ele>
        <time>2020-02-08T07:07:44.802Z</time>
      </trkpt>
      <trkpt lat="39.03748167" lon="-0.21495333">
        <ele>12.973</ele>
        <time>2020-02-08T07:07:45.802Z</time>
      </trkpt>
      <trkpt lat="39.03757333" lon="-0.21498167">
        <ele>12.973</ele>
        <time>2020-02-08T07:07:46.802Z</time>
      </trkpt>
      <trkpt lat="39.03757333" lon="-0.21498167">
        <ele>12.973</ele>
        <time>2020-02-08T07:07:47.802Z</time>
      </trkpt>
      <trkpt lat="39.03766833" lon="-0.21501167">
        <ele>12.973</ele>
        <time>2020-02-08T07:07:48.802Z</time>
      </trkpt>
      <trkpt lat="39.03766833" lon="-0.21501167">
        <ele>12.973</ele>
        <time>2020-02-08T07:07:49.802Z</time>
      </trkpt>
      <trkpt lat="39.03776167" lon="-0.215045">
        <ele>12.973</ele>
        <time>2020-02-08T07:07:50.802Z</time>
      </trkpt>
      <trkpt lat="39.03776167" lon="-0.215045">
        <ele>12.973</ele>
        <time>2020-02-08T07:07:51.802Z</time>
      </trkpt>
      <trkpt lat="39.03785667" lon="-0.21508333">
        <ele>12.973</ele>
        <time>2020-02-08T07:07:52.802Z</time>
      </trkpt>
      <trkpt lat="39.03785667" lon="-0.21508333">
        <ele>12.973</ele>
        <time>2020-02-08T07:07:53.802Z</time>
      </trkpt>
      <trkpt lat="39.03795" lon="-0.21512167">
        <ele>12.973</ele>
        <time>2020-02-08T07:07:54.802Z</time>
      </trkpt>
      <trkpt lat="39.03795" lon="-0.21512167">
        <ele>12.973</ele>
        <time>2020-02-08T07:07:55.802Z</time>
      </trkpt>
      <trkpt lat="39.038045" lon="-0.21516167">
        <ele>12.973</ele>
        <time>2020-02-08T07:07:56.802Z</time>
      </trkpt>
      <trkpt lat="39.03809" lon="-0.21518">
        <ele>12.973</ele>
        <time>2020-02-08T07:07:57.802Z</time>
      </trkpt>
      <trkpt lat="39.03809" lon="-0.21518">
        <ele>12.973</ele>
        <time>2020-02-08T07:07:58.802Z</time>
      </trkpt>
      <trkpt lat="39.03818167" lon="-0.21522">
        <ele>12.973</ele>
        <time>2020-02-08T07:07:59.802Z</time>
      </trkpt>
      <trkpt lat="39.03818167" lon="-0.21522">
        <ele>12.973</ele>
        <time>2020-02-08T07:08:00.802Z</time>
      </trkpt>
      <trkpt lat="39.03827833" lon="-0.215255">
        <ele>12.973</ele>
        <time>2020-02-08T07:08:01.802Z</time>
      </trkpt>
      <trkpt lat="39.03827833" lon="-0.215255">
        <ele>12.973</ele>
        <time>2020-02-08T07:08:02.802Z</time>
      </trkpt>
      <trkpt lat="39.03837833" lon="-0.21529167">
        <ele>12.973</ele>
        <time>2020-02-08T07:08:03.802Z</time>
      </trkpt>
      <trkpt lat="39.03842667" lon="-0.21531">
        <ele>12.973</ele>
        <time>2020-02-08T07:08:04.802Z</time>
      </trkpt>
      <trkpt lat="39.03842667" lon="-0.21531">
        <ele>12.973</ele>
        <time>2020-02-08T07:08:05.802Z</time>
      </trkpt>
      <trkpt lat="39.03852" lon="-0.21534">
        <ele>12.973</ele>
        <time>2020-02-08T07:08:06.802Z</time>
      </trkpt>
      <trkpt lat="39.03852" lon="-0.21534">
        <ele>12.973</ele>
        <time>2020-02-08T07:08:07.802Z</time>
      </trkpt>
      <trkpt lat="39.03860667" lon="-0.21537667">
        <ele>12.973</ele>
        <time>2020-02-08T07:08:08.802Z</time>
      </trkpt>
      <trkpt lat="39.03860667" lon="-0.21537667">
        <ele>12.973</ele>
        <time>2020-02-08T07:08:09.802Z</time>
      </trkpt>
      <trkpt lat="39.03869333" lon="-0.21542167">
        <ele>12.973</ele>
        <time>2020-02-08T07:08:10.802Z</time>
      </trkpt>
      <trkpt lat="39.03874" lon="-0.21544333">
        <ele>12.973</ele>
        <time>2020-02-08T07:08:11.802Z</time>
      </trkpt>
      <trkpt lat="39.03874" lon="-0.21544333">
        <ele>12.973</ele>
        <time>2020-02-08T07:08:12.802Z</time>
      </trkpt>
      <trkpt lat="39.03884" lon="-0.215485">
        <ele>12.973</ele>
        <time>2020-02-08T07:08:13.802Z</time>
      </trkpt>
      <trkpt lat="39.03888833" lon="-0.215505">
        <ele>12.973</ele>
        <time>2020-02-08T07:08:14.802Z</time>
      </trkpt>
      <trkpt lat="39.03888833" lon="-0.215505">
        <ele>12.973</ele>
        <time>2020-02-08T07:08:15.802Z</time>
      </trkpt>
      <trkpt lat="39.03898667" lon="-0.21555">
        <ele>12.973</ele>
        <time>2020-02-08T07:08:16.802Z</time>
      </trkpt>
      <trkpt lat="39.03903667" lon="-0.21557333">
        <ele>12.973</ele>
        <time>2020-02-08T07:08:17.802Z</time>
      </trkpt>
      <trkpt lat="39.03908333" lon="-0.21559667">
        <ele>12.973</ele>
        <time>2020-02-08T07:08:18.802Z</time>
      </trkpt>
      <trkpt lat="39.03908333" lon="-0.21559667">
        <ele>12.973</ele>
        <time>2020-02-08T07:08:19.802Z</time>
      </trkpt>
      <trkpt lat="39.039175" lon="-0.21563833">
        <ele>12.973</ele>
        <time>2020-02-08T07:08:20.802Z</time>
      </trkpt>
      <trkpt lat="39.039225" lon="-0.21566">
        <ele>12.973</ele>
        <time>2020-02-08T07:08:21.802Z</time>
      </trkpt>
      <trkpt lat="39.039225" lon="-0.21566">
        <ele>12.973</ele>
        <time>2020-02-08T07:08:22.802Z</time>
      </trkpt>
      <trkpt lat="39.03932167" lon="-0.215705">
        <ele>12.973</ele>
        <time>2020-02-08T07:08:23.802Z</time>
      </trkpt>
      <trkpt lat="39.03937167" lon="-0.21572333">
        <ele>12.973</ele>
        <time>2020-02-08T07:08:24.802Z</time>
      </trkpt>
      <trkpt lat="39.03937167" lon="-0.21572333">
        <ele>12.973</ele>
        <time>2020-02-08T07:08:25.802Z</time>
      </trkpt>
      <trkpt lat="39.03946667" lon="-0.21576333">
        <ele>12.973</ele>
        <time>2020-02-08T07:08:26.802Z</time>
      </trkpt>
      <trkpt lat="39.03946667" lon="-0.21576333">
        <ele>12.973</ele>
        <time>2020-02-08T07:08:27.802Z</time>
      </trkpt>
      <trkpt lat="39.03956" lon="-0.215805">
        <ele>12.973</ele>
        <time>2020-02-08T07:08:28.802Z</time>
      </trkpt>
      <trkpt lat="39.03956" lon="-0.215805">
        <ele>12.973</ele>
        <time>2020-02-08T07:08:29.802Z</time>
      </trkpt>
      <trkpt lat="39.039655" lon="-0.21585">
        <ele>12.973</ele>
        <time>2020-02-08T07:08:30.802Z</time>
      </trkpt>
      <trkpt lat="39.039655" lon="-0.21585">
        <ele>12.973</ele>
        <time>2020-02-08T07:08:31.802Z</time>
      </trkpt>
      <trkpt lat="39.03975333" lon="-0.215895">
        <ele>12.973</ele>
        <time>2020-02-08T07:08:32.802Z</time>
      </trkpt>
      <trkpt lat="39.0398" lon="-0.21591333">
        <ele>12.973</ele>
        <time>2020-02-08T07:08:33.802Z</time>
      </trkpt>
      <trkpt lat="39.0398" lon="-0.21591333">
        <ele>12.973</ele>
        <time>2020-02-08T07:08:34.802Z</time>
      </trkpt>
      <trkpt lat="39.03989833" lon="-0.215945">
        <ele>12.973</ele>
        <time>2020-02-08T07:08:35.802Z</time>
      </trkpt>
      <trkpt lat="39.03994667" lon="-0.21596">
        <ele>12.973</ele>
        <time>2020-02-08T07:08:36.802Z</time>
      </trkpt>
      <trkpt lat="39.03994667" lon="-0.21596">
        <ele>12.973</ele>
        <time>2020-02-08T07:08:37.802Z</time>
      </trkpt>
      <trkpt lat="39.04005" lon="-0.21598167">
        <ele>12.973</ele>
        <time>2020-02-08T07:08:38.802Z</time>
      </trkpt>
      <trkpt lat="39.04011" lon="-0.21599167">
        <ele>12.973</ele>
        <time>2020-02-08T07:08:39.802Z</time>
      </trkpt>
      <trkpt lat="39.04011" lon="-0.21599167">
        <ele>12.973</ele>
        <time>2020-02-08T07:08:40.802Z</time>
      </trkpt>
      <trkpt lat="39.04023" lon="-0.21600333">
        <ele>12.973</ele>
        <time>2020-02-08T07:08:41.802Z</time>
      </trkpt>
      <trkpt lat="39.040285" lon="-0.21599667">
        <ele>12.973</ele>
        <time>2020-02-08T07:08:42.802Z</time>
      </trkpt>
      <trkpt lat="39.040285" lon="-0.21599667">
        <ele>12.973</ele>
        <time>2020-02-08T07:08:43.802Z</time>
      </trkpt>
      <trkpt lat="39.040405" lon="-0.215975">
        <ele>12.973</ele>
        <time>2020-02-08T07:08:44.802Z</time>
      </trkpt>
      <trkpt lat="39.040405" lon="-0.215975">
        <ele>12.973</ele>
        <time>2020-02-08T07:08:45.802Z</time>
      </trkpt>
      <trkpt lat="39.04051667" lon="-0.215935">
        <ele>12.973</ele>
        <time>2020-02-08T07:08:46.802Z</time>
      </trkpt>
      <trkpt lat="39.04051667" lon="-0.215935">
        <ele>12.973</ele>
        <time>2020-02-08T07:08:47.802Z</time>
      </trkpt>
      <trkpt lat="39.04061833" lon="-0.21589167">
        <ele>12.973</ele>
        <time>2020-02-08T07:08:48.802Z</time>
      </trkpt>
      <trkpt lat="39.04061833" lon="-0.21589167">
        <ele>12.973</ele>
        <time>2020-02-08T07:08:49.802Z</time>
      </trkpt>
      <trkpt lat="39.040725" lon="-0.21583">
        <ele>12.973</ele>
        <time>2020-02-08T07:08:50.802Z</time>
      </trkpt>
      <trkpt lat="39.040725" lon="-0.21583">
        <ele>12.973</ele>
        <time>2020-02-08T07:08:51.802Z</time>
      </trkpt>
      <trkpt lat="39.04081333" lon="-0.21575">
        <ele>12.973</ele>
        <time>2020-02-08T07:08:52.802Z</time>
      </trkpt>
      <trkpt lat="39.04081333" lon="-0.21575">
        <ele>12.973</ele>
        <time>2020-02-08T07:08:53.802Z</time>
      </trkpt>
      <trkpt lat="39.040885" lon="-0.21565833">
        <ele>12.973</ele>
        <time>2020-02-08T07:08:54.802Z</time>
      </trkpt>
      <trkpt lat="39.040885" lon="-0.21565833">
        <ele>12.973</ele>
        <time>2020-02-08T07:08:55.802Z</time>
      </trkpt>
      <trkpt lat="39.04096" lon="-0.215555">
        <ele>12.973</ele>
        <time>2020-02-08T07:08:56.802Z</time>
      </trkpt>
      <trkpt lat="39.04096" lon="-0.215555">
        <ele>12.973</ele>
        <time>2020-02-08T07:08:57.802Z</time>
      </trkpt>
      <trkpt lat="39.04103" lon="-0.21544333">
        <ele>10.973</ele>
        <time>2020-02-08T07:08:58.802Z</time>
      </trkpt>
      <trkpt lat="39.04103" lon="-0.21544333">
        <ele>10.973</ele>
        <time>2020-02-08T07:08:59.802Z</time>
      </trkpt>
      <trkpt lat="39.04109" lon="-0.21532667">
        <ele>10.973</ele>
        <time>2020-02-08T07:09:00.802Z</time>
      </trkpt>
      <trkpt lat="39.04109" lon="-0.21532667">
        <ele>10.973</ele>
        <time>2020-02-08T07:09:01.802Z</time>
      </trkpt>
      <trkpt lat="39.04114" lon="-0.21519833">
        <ele>10.973</ele>
        <time>2020-02-08T07:09:02.802Z</time>
      </trkpt>
      <trkpt lat="39.04114" lon="-0.21519833">
        <ele>10.973</ele>
        <time>2020-02-08T07:09:03.802Z</time>
      </trkpt>
      <trkpt lat="39.04118667" lon="-0.21506333">
        <ele>10.973</ele>
        <time>2020-02-08T07:09:04.802Z</time>
      </trkpt>
      <trkpt lat="39.04118667" lon="-0.21506333">
        <ele>10.973</ele>
        <time>2020-02-08T07:09:05.802Z</time>
      </trkpt>
      <trkpt lat="39.041225" lon="-0.21492333">
        <ele>10.973</ele>
        <time>2020-02-08T07:09:06.802Z</time>
      </trkpt>
      <trkpt lat="39.041225" lon="-0.21492333">
        <ele>10.973</ele>
        <time>2020-02-08T07:09:07.802Z</time>
      </trkpt>
      <trkpt lat="39.04126333" lon="-0.21478167">
        <ele>10.973</ele>
        <time>2020-02-08T07:09:08.802Z</time>
      </trkpt>
      <trkpt lat="39.04128333" lon="-0.21471167">
        <ele>10.973</ele>
        <time>2020-02-08T07:09:09.802Z</time>
      </trkpt>
      <trkpt lat="39.04128333" lon="-0.21471167">
        <ele>9.973</ele>
        <time>2020-02-08T07:09:10.802Z</time>
      </trkpt>
      <trkpt lat="39.04132167" lon="-0.21457">
        <ele>9.973</ele>
        <time>2020-02-08T07:09:11.802Z</time>
      </trkpt>
      <trkpt lat="39.04134167" lon="-0.21449667">
        <ele>9.973</ele>
        <time>2020-02-08T07:09:12.802Z</time>
      </trkpt>
      <trkpt lat="39.04134167" lon="-0.21449667">
        <ele>9.973</ele>
        <time>2020-02-08T07:09:13.802Z</time>
      </trkpt>
      <trkpt lat="39.04138167" lon="-0.21435">
        <ele>9.973</ele>
        <time>2020-02-08T07:09:14.802Z</time>
      </trkpt>
      <trkpt lat="39.04138167" lon="-0.21435">
        <ele>9.973</ele>
        <time>2020-02-08T07:09:15.802Z</time>
      </trkpt>
      <trkpt lat="39.04142" lon="-0.214205">
        <ele>9.973</ele>
        <time>2020-02-08T07:09:16.802Z</time>
      </trkpt>
      <trkpt lat="39.04143833" lon="-0.21413">
        <ele>9.973</ele>
        <time>2020-02-08T07:09:17.802Z</time>
      </trkpt>
      <trkpt lat="39.04145833" lon="-0.21405667">
        <ele>9.973</ele>
        <time>2020-02-08T07:09:18.802Z</time>
      </trkpt>
      <trkpt lat="39.04145833" lon="-0.21405667">
        <ele>8.973</ele>
        <time>2020-02-08T07:09:19.802Z</time>
      </trkpt>
      <trkpt lat="39.04150167" lon="-0.21391167">
        <ele>8.973</ele>
        <time>2020-02-08T07:09:20.802Z</time>
      </trkpt>
      <trkpt lat="39.04150167" lon="-0.21391167">
        <ele>8.973</ele>
        <time>2020-02-08T07:09:21.802Z</time>
      </trkpt>
      <trkpt lat="39.04154667" lon="-0.21376667">
        <ele>8.973</ele>
        <time>2020-02-08T07:09:22.802Z</time>
      </trkpt>
      <trkpt lat="39.04156833" lon="-0.213695">
        <ele>8.973</ele>
        <time>2020-02-08T07:09:23.802Z</time>
      </trkpt>
      <trkpt lat="39.04159167" lon="-0.21362167">
        <ele>8.973</ele>
        <time>2020-02-08T07:09:24.802Z</time>
      </trkpt>
      <trkpt lat="39.04159167" lon="-0.21362167">
        <ele>8.973</ele>
        <time>2020-02-08T07:09:25.802Z</time>
      </trkpt>
      <trkpt lat="39.04163833" lon="-0.21347833">
        <ele>8.973</ele>
        <time>2020-02-08T07:09:26.802Z</time>
      </trkpt>
      <trkpt lat="39.04163833" lon="-0.21347833">
        <ele>8.973</ele>
        <time>2020-02-08T07:09:27.802Z</time>
      </trkpt>
      <trkpt lat="39.04168667" lon="-0.21334167">
        <ele>8.973</ele>
        <time>2020-02-08T07:09:28.802Z</time>
      </trkpt>
      <trkpt lat="39.04171333" lon="-0.213275">
        <ele>8.973</ele>
        <time>2020-02-08T07:09:29.802Z</time>
      </trkpt>
      <trkpt lat="39.04174167" lon="-0.21321">
        <ele>8.973</ele>
        <time>2020-02-08T07:09:30.802Z</time>
      </trkpt>
      <trkpt lat="39.04174167" lon="-0.21321">
        <ele>7.973</ele>
        <time>2020-02-08T07:09:31.802Z</time>
      </trkpt>
      <trkpt lat="39.04180333" lon="-0.21308833">
        <ele>7.973</ele>
        <time>2020-02-08T07:09:32.802Z</time>
      </trkpt>
      <trkpt lat="39.04180333" lon="-0.21308833">
        <ele>7.973</ele>
        <time>2020-02-08T07:09:33.802Z</time>
      </trkpt>
      <trkpt lat="39.04187333" lon="-0.21296833">
        <ele>7.973</ele>
        <time>2020-02-08T07:09:34.802Z</time>
      </trkpt>
      <trkpt lat="39.04191167" lon="-0.21291">
        <ele>7.973</ele>
        <time>2020-02-08T07:09:35.802Z</time>
      </trkpt>
      <trkpt lat="39.04195167" lon="-0.21285167">
        <ele>7.973</ele>
        <time>2020-02-08T07:09:36.802Z</time>
      </trkpt>
      <trkpt lat="39.04195167" lon="-0.21285167">
        <ele>7.973</ele>
        <time>2020-02-08T07:09:37.802Z</time>
      </trkpt>
      <trkpt lat="39.042035" lon="-0.21273833">
        <ele>7.973</ele>
        <time>2020-02-08T07:09:38.802Z</time>
      </trkpt>
      <trkpt lat="39.042035" lon="-0.21273833">
        <ele>7.973</ele>
        <time>2020-02-08T07:09:39.802Z</time>
      </trkpt>
      <trkpt lat="39.04212167" lon="-0.21263">
        <ele>7.973</ele>
        <time>2020-02-08T07:09:40.802Z</time>
      </trkpt>
      <trkpt lat="39.04212167" lon="-0.21263">
        <ele>7.973</ele>
        <time>2020-02-08T07:09:41.802Z</time>
      </trkpt>
      <trkpt lat="39.04221" lon="-0.21252667">
        <ele>7.973</ele>
        <time>2020-02-08T07:09:42.802Z</time>
      </trkpt>
      <trkpt lat="39.04221" lon="-0.21252667">
        <ele>7.973</ele>
        <time>2020-02-08T07:09:43.802Z</time>
      </trkpt>
      <trkpt lat="39.0423" lon="-0.21242333">
        <ele>7.973</ele>
        <time>2020-02-08T07:09:44.802Z</time>
      </trkpt>
      <trkpt lat="39.0423" lon="-0.21242333">
        <ele>7.973</ele>
        <time>2020-02-08T07:09:45.802Z</time>
      </trkpt>
      <trkpt lat="39.04239167" lon="-0.21232333">
        <ele>7.973</ele>
        <time>2020-02-08T07:09:46.802Z</time>
      </trkpt>
      <trkpt lat="39.04243667" lon="-0.21227333">
        <ele>7.973</ele>
        <time>2020-02-08T07:09:47.802Z</time>
      </trkpt>
      <trkpt lat="39.04248333" lon="-0.21222333">
        <ele>7.973</ele>
        <time>2020-02-08T07:09:48.802Z</time>
      </trkpt>
      <trkpt lat="39.04248333" lon="-0.21222333">
        <ele>7.973</ele>
        <time>2020-02-08T07:09:49.802Z</time>
      </trkpt>
      <trkpt lat="39.04257333" lon="-0.21212167">
        <ele>7.973</ele>
        <time>2020-02-08T07:09:50.802Z</time>
      </trkpt>
      <trkpt lat="39.04257333" lon="-0.21212167">
        <ele>7.973</ele>
        <time>2020-02-08T07:09:51.802Z</time>
      </trkpt>
      <trkpt lat="39.04266333" lon="-0.21202333">
        <ele>7.973</ele>
        <time>2020-02-08T07:09:52.802Z</time>
      </trkpt>
      <trkpt lat="39.04270833" lon="-0.21197333">
        <ele>7.973</ele>
        <time>2020-02-08T07:09:53.802Z</time>
      </trkpt>
      <trkpt lat="39.04275333" lon="-0.21192167">
        <ele>7.973</ele>
        <time>2020-02-08T07:09:54.802Z</time>
      </trkpt>
      <trkpt lat="39.04275333" lon="-0.21192167">
        <ele>7.973</ele>
        <time>2020-02-08T07:09:55.802Z</time>
      </trkpt>
      <trkpt lat="39.04284333" lon="-0.21182333">
        <ele>7.973</ele>
        <time>2020-02-08T07:09:56.802Z</time>
      </trkpt>
      <trkpt lat="39.04284333" lon="-0.21182333">
        <ele>7.973</ele>
        <time>2020-02-08T07:09:57.802Z</time>
      </trkpt>
      <trkpt lat="39.04293167" lon="-0.21172333">
        <ele>7.973</ele>
        <time>2020-02-08T07:09:58.802Z</time>
      </trkpt>
      <trkpt lat="39.04297667" lon="-0.21167333">
        <ele>7.973</ele>
        <time>2020-02-08T07:09:59.802Z</time>
      </trkpt>
      <trkpt lat="39.04302" lon="-0.21162333">
        <ele>7.973</ele>
        <time>2020-02-08T07:10:00.802Z</time>
      </trkpt>
      <trkpt lat="39.04302" lon="-0.21162333">
        <ele>7.973</ele>
        <time>2020-02-08T07:10:01.802Z</time>
      </trkpt>
      <trkpt lat="39.04310833" lon="-0.211525">
        <ele>7.973</ele>
        <time>2020-02-08T07:10:02.802Z</time>
      </trkpt>
      <trkpt lat="39.04310833" lon="-0.211525">
        <ele>7.973</ele>
        <time>2020-02-08T07:10:03.802Z</time>
      </trkpt>
      <trkpt lat="39.04319333" lon="-0.211425">
        <ele>7.973</ele>
        <time>2020-02-08T07:10:04.802Z</time>
      </trkpt>
      <trkpt lat="39.04319333" lon="-0.211425">
        <ele>7.973</ele>
        <time>2020-02-08T07:10:05.802Z</time>
      </trkpt>
      <trkpt lat="39.04328" lon="-0.21132833">
        <ele>7.973</ele>
        <time>2020-02-08T07:10:06.802Z</time>
      </trkpt>
      <trkpt lat="39.04328" lon="-0.21132833">
        <ele>7.973</ele>
        <time>2020-02-08T07:10:07.802Z</time>
      </trkpt>
      <trkpt lat="39.04336833" lon="-0.21122833">
        <ele>7.973</ele>
        <time>2020-02-08T07:10:08.802Z</time>
      </trkpt>
      <trkpt lat="39.04336833" lon="-0.21122833">
        <ele>7.973</ele>
        <time>2020-02-08T07:10:09.802Z</time>
      </trkpt>
      <trkpt lat="39.043455" lon="-0.21112833">
        <ele>7.973</ele>
        <time>2020-02-08T07:10:10.802Z</time>
      </trkpt>
      <trkpt lat="39.04349833" lon="-0.21107833">
        <ele>7.973</ele>
        <time>2020-02-08T07:10:11.802Z</time>
      </trkpt>
      <trkpt lat="39.04349833" lon="-0.21107833">
        <ele>7.973</ele>
        <time>2020-02-08T07:10:12.802Z</time>
      </trkpt>
      <trkpt lat="39.043585" lon="-0.210975">
        <ele>7.973</ele>
        <time>2020-02-08T07:10:13.802Z</time>
      </trkpt>
      <trkpt lat="39.043585" lon="-0.210975">
        <ele>7.973</ele>
        <time>2020-02-08T07:10:14.802Z</time>
      </trkpt>
      <trkpt lat="39.04367167" lon="-0.21087333">
        <ele>7.973</ele>
        <time>2020-02-08T07:10:15.802Z</time>
      </trkpt>
      <trkpt lat="39.04367167" lon="-0.21087333">
        <ele>7.973</ele>
        <time>2020-02-08T07:10:16.802Z</time>
      </trkpt>
      <trkpt lat="39.043755" lon="-0.21076833">
        <ele>6.973</ele>
        <time>2020-02-08T07:10:17.802Z</time>
      </trkpt>
      <trkpt lat="39.043755" lon="-0.21076833">
        <ele>6.973</ele>
        <time>2020-02-08T07:10:18.802Z</time>
      </trkpt>
      <trkpt lat="39.04381833" lon="-0.21064333">
        <ele>6.973</ele>
        <time>2020-02-08T07:10:19.802Z</time>
      </trkpt>
      <trkpt lat="39.04384333" lon="-0.21057333">
        <ele>6.973</ele>
        <time>2020-02-08T07:10:20.802Z</time>
      </trkpt>
      <trkpt lat="39.04384333" lon="-0.21057333">
        <ele>6.973</ele>
        <time>2020-02-08T07:10:21.802Z</time>
      </trkpt>
      <trkpt lat="39.04389833" lon="-0.210435">
        <ele>6.973</ele>
        <time>2020-02-08T07:10:22.802Z</time>
      </trkpt>
      <trkpt lat="39.04389833" lon="-0.210435">
        <ele>6.973</ele>
        <time>2020-02-08T07:10:23.802Z</time>
      </trkpt>
      <trkpt lat="39.04395" lon="-0.21029833">
        <ele>6.973</ele>
        <time>2020-02-08T07:10:24.802Z</time>
      </trkpt>
      <trkpt lat="39.04395" lon="-0.21029833">
        <ele>6.973</ele>
        <time>2020-02-08T07:10:25.802Z</time>
      </trkpt>
      <trkpt lat="39.04399833" lon="-0.21016333">
        <ele>6.973</ele>
        <time>2020-02-08T07:10:26.802Z</time>
      </trkpt>
      <trkpt lat="39.04399833" lon="-0.21016333">
        <ele>6.973</ele>
        <time>2020-02-08T07:10:27.802Z</time>
      </trkpt>
      <trkpt lat="39.04404333" lon="-0.21002833">
        <ele>6.973</ele>
        <time>2020-02-08T07:10:28.802Z</time>
      </trkpt>
      <trkpt lat="39.04406667" lon="-0.20996">
        <ele>6.973</ele>
        <time>2020-02-08T07:10:29.802Z</time>
      </trkpt>
      <trkpt lat="39.04409" lon="-0.20989333">
        <ele>6.973</ele>
        <time>2020-02-08T07:10:30.802Z</time>
      </trkpt>
      <trkpt lat="39.04409" lon="-0.20989333">
        <ele>6.973</ele>
        <time>2020-02-08T07:10:31.802Z</time>
      </trkpt>
      <trkpt lat="39.04413667" lon="-0.20975833">
        <ele>6.973</ele>
        <time>2020-02-08T07:10:32.802Z</time>
      </trkpt>
      <trkpt lat="39.04413667" lon="-0.20975833">
        <ele>6.973</ele>
        <time>2020-02-08T07:10:33.802Z</time>
      </trkpt>
      <trkpt lat="39.04418167" lon="-0.20962">
        <ele>6.973</ele>
        <time>2020-02-08T07:10:34.802Z</time>
      </trkpt>
      <trkpt lat="39.04418167" lon="-0.20962">
        <ele>6.973</ele>
        <time>2020-02-08T07:10:35.802Z</time>
      </trkpt>
      <trkpt lat="39.04422833" lon="-0.20948333">
        <ele>6.973</ele>
        <time>2020-02-08T07:10:36.802Z</time>
      </trkpt>
      <trkpt lat="39.04422833" lon="-0.20948333">
        <ele>6.973</ele>
        <time>2020-02-08T07:10:37.802Z</time>
      </trkpt>
      <trkpt lat="39.04427667" lon="-0.20934667">
        <ele>6.973</ele>
        <time>2020-02-08T07:10:38.802Z</time>
      </trkpt>
      <trkpt lat="39.04427667" lon="-0.20934667">
        <ele>6.973</ele>
        <time>2020-02-08T07:10:39.802Z</time>
      </trkpt>
      <trkpt lat="39.04432333" lon="-0.20920833">
        <ele>6.973</ele>
        <time>2020-02-08T07:10:40.802Z</time>
      </trkpt>
      <trkpt lat="39.04432333" lon="-0.20920833">
        <ele>6.973</ele>
        <time>2020-02-08T07:10:41.802Z</time>
      </trkpt>
      <trkpt lat="39.04437" lon="-0.20907">
        <ele>6.973</ele>
        <time>2020-02-08T07:10:42.802Z</time>
      </trkpt>
      <trkpt lat="39.04437" lon="-0.20907">
        <ele>6.973</ele>
        <time>2020-02-08T07:10:43.802Z</time>
      </trkpt>
      <trkpt lat="39.04441667" lon="-0.20893333">
        <ele>6.973</ele>
        <time>2020-02-08T07:10:44.802Z</time>
      </trkpt>
      <trkpt lat="39.04441667" lon="-0.20893333">
        <ele>6.973</ele>
        <time>2020-02-08T07:10:45.802Z</time>
      </trkpt>
      <trkpt lat="39.04446333" lon="-0.208795">
        <ele>6.973</ele>
        <time>2020-02-08T07:10:46.802Z</time>
      </trkpt>
      <trkpt lat="39.04446333" lon="-0.208795">
        <ele>6.973</ele>
        <time>2020-02-08T07:10:47.802Z</time>
      </trkpt>
      <trkpt lat="39.04451" lon="-0.20866167">
        <ele>6.973</ele>
        <time>2020-02-08T07:10:48.802Z</time>
      </trkpt>
      <trkpt lat="39.04451" lon="-0.20866167">
        <ele>6.973</ele>
        <time>2020-02-08T07:10:49.802Z</time>
      </trkpt>
      <trkpt lat="39.04455333" lon="-0.20853667">
        <ele>6.973</ele>
        <time>2020-02-08T07:10:50.802Z</time>
      </trkpt>
      <trkpt lat="39.04455333" lon="-0.20853667">
        <ele>6.973</ele>
        <time>2020-02-08T07:10:51.802Z</time>
      </trkpt>
      <trkpt lat="39.044595" lon="-0.208415">
        <ele>6.973</ele>
        <time>2020-02-08T07:10:52.802Z</time>
      </trkpt>
      <trkpt lat="39.044595" lon="-0.208415">
        <ele>6.973</ele>
        <time>2020-02-08T07:10:53.802Z</time>
      </trkpt>
      <trkpt lat="39.04463833" lon="-0.20829333">
        <ele>6.973</ele>
        <time>2020-02-08T07:10:54.802Z</time>
      </trkpt>
      <trkpt lat="39.04463833" lon="-0.20829333">
        <ele>6.973</ele>
        <time>2020-02-08T07:10:55.802Z</time>
      </trkpt>
      <trkpt lat="39.04468833" lon="-0.20817333">
        <ele>6.973</ele>
        <time>2020-02-08T07:10:56.802Z</time>
      </trkpt>
      <trkpt lat="39.04468833" lon="-0.20817333">
        <ele>6.973</ele>
        <time>2020-02-08T07:10:57.802Z</time>
      </trkpt>
      <trkpt lat="39.04477333" lon="-0.20810333">
        <ele>6.973</ele>
        <time>2020-02-08T07:10:58.802Z</time>
      </trkpt>
      <trkpt lat="39.04482167" lon="-0.20810167">
        <ele>6.973</ele>
        <time>2020-02-08T07:10:59.802Z</time>
      </trkpt>
      <trkpt lat="39.04487167" lon="-0.20812167">
        <ele>6.973</ele>
        <time>2020-02-08T07:11:00.802Z</time>
      </trkpt>
      <trkpt lat="39.04487167" lon="-0.20812167">
        <ele>6.973</ele>
        <time>2020-02-08T07:11:01.802Z</time>
      </trkpt>
      <trkpt lat="39.04497833" lon="-0.20818833">
        <ele>6.973</ele>
        <time>2020-02-08T07:11:02.802Z</time>
      </trkpt>
      <trkpt lat="39.04503" lon="-0.208225">
        <ele>6.973</ele>
        <time>2020-02-08T07:11:03.802Z</time>
      </trkpt>
      <trkpt lat="39.04503" lon="-0.208225">
        <ele>6.973</ele>
        <time>2020-02-08T07:11:04.802Z</time>
      </trkpt>
      <trkpt lat="39.045125" lon="-0.208295">
        <ele>6.973</ele>
        <time>2020-02-08T07:11:05.802Z</time>
      </trkpt>
      <trkpt lat="39.04517167" lon="-0.20833167">
        <ele>6.973</ele>
        <time>2020-02-08T07:11:06.802Z</time>
      </trkpt>
      <trkpt lat="39.04517167" lon="-0.20833167">
        <ele>6.973</ele>
        <time>2020-02-08T07:11:07.802Z</time>
      </trkpt>
      <trkpt lat="39.045265" lon="-0.20840833">
        <ele>6.973</ele>
        <time>2020-02-08T07:11:08.802Z</time>
      </trkpt>
      <trkpt lat="39.045265" lon="-0.20840833">
        <ele>6.973</ele>
        <time>2020-02-08T07:11:09.802Z</time>
      </trkpt>
      <trkpt lat="39.04536833" lon="-0.208475">
        <ele>6.973</ele>
        <time>2020-02-08T07:11:10.802Z</time>
      </trkpt>
      <trkpt lat="39.04536833" lon="-0.208475">
        <ele>6.973</ele>
        <time>2020-02-08T07:11:11.802Z</time>
      </trkpt>
      <trkpt lat="39.04546833" lon="-0.20852667">
        <ele>6.973</ele>
        <time>2020-02-08T07:11:12.802Z</time>
      </trkpt>
      <trkpt lat="39.04546833" lon="-0.20852667">
        <ele>6.973</ele>
        <time>2020-02-08T07:11:13.802Z</time>
      </trkpt>
      <trkpt lat="39.045565" lon="-0.20857833">
        <ele>6.973</ele>
        <time>2020-02-08T07:11:14.802Z</time>
      </trkpt>
      <trkpt lat="39.045565" lon="-0.20857833">
        <ele>6.973</ele>
        <time>2020-02-08T07:11:15.802Z</time>
      </trkpt>
      <trkpt lat="39.04565667" lon="-0.208635">
        <ele>6.973</ele>
        <time>2020-02-08T07:11:16.802Z</time>
      </trkpt>
      <trkpt lat="39.04565667" lon="-0.208635">
        <ele>6.973</ele>
        <time>2020-02-08T07:11:17.802Z</time>
      </trkpt>
      <trkpt lat="39.04574667" lon="-0.20868833">
        <ele>6.973</ele>
        <time>2020-02-08T07:11:18.802Z</time>
      </trkpt>
      <trkpt lat="39.04574667" lon="-0.20868833">
        <ele>6.973</ele>
        <time>2020-02-08T07:11:19.802Z</time>
      </trkpt>
      <trkpt lat="39.04583667" lon="-0.20874">
        <ele>6.973</ele>
        <time>2020-02-08T07:11:20.802Z</time>
      </trkpt>
      <trkpt lat="39.04583667" lon="-0.20874">
        <ele>6.973</ele>
        <time>2020-02-08T07:11:21.802Z</time>
      </trkpt>
      <trkpt lat="39.04592" lon="-0.20877333">
        <ele>6.973</ele>
        <time>2020-02-08T07:11:22.802Z</time>
      </trkpt>
      <trkpt lat="39.04592" lon="-0.20877333">
        <ele>6.973</ele>
        <time>2020-02-08T07:11:23.802Z</time>
      </trkpt>
      <trkpt lat="39.04596667" lon="-0.20873167">
        <ele>6.973</ele>
        <time>2020-02-08T07:11:24.802Z</time>
      </trkpt>
      <trkpt lat="39.04596667" lon="-0.20873167">
        <ele>6.973</ele>
        <time>2020-02-08T07:11:25.802Z</time>
      </trkpt>
      <trkpt lat="39.04602833" lon="-0.20864">
        <ele>6.973</ele>
        <time>2020-02-08T07:11:26.802Z</time>
      </trkpt>
      <trkpt lat="39.04606333" lon="-0.20859333">
        <ele>6.973</ele>
        <time>2020-02-08T07:11:27.802Z</time>
      </trkpt>
      <trkpt lat="39.04606333" lon="-0.20859333">
        <ele>6.973</ele>
        <time>2020-02-08T07:11:28.802Z</time>
      </trkpt>
      <trkpt lat="39.04613333" lon="-0.20849833">
        <ele>6.973</ele>
        <time>2020-02-08T07:11:29.802Z</time>
      </trkpt>
      <trkpt lat="39.04616833" lon="-0.20844833">
        <ele>6.973</ele>
        <time>2020-02-08T07:11:30.802Z</time>
      </trkpt>
      <trkpt lat="39.04616833" lon="-0.20844833">
        <ele>6.973</ele>
        <time>2020-02-08T07:11:31.802Z</time>
      </trkpt>
      <trkpt lat="39.04624333" lon="-0.20835667">
        <ele>6.973</ele>
        <time>2020-02-08T07:11:32.802Z</time>
      </trkpt>
      <trkpt lat="39.04627833" lon="-0.20831667">
        <ele>6.973</ele>
        <time>2020-02-08T07:11:33.802Z</time>
      </trkpt>
      <trkpt lat="39.04627833" lon="-0.20831667">
        <ele>6.973</ele>
        <time>2020-02-08T07:11:34.802Z</time>
      </trkpt>
      <trkpt lat="39.046355" lon="-0.208245">
        <ele>6.973</ele>
        <time>2020-02-08T07:11:35.802Z</time>
      </trkpt>
      <trkpt lat="39.04638667" lon="-0.20820667">
        <ele>6.973</ele>
        <time>2020-02-08T07:11:36.802Z</time>
      </trkpt>
      <trkpt lat="39.04638667" lon="-0.20820667">
        <ele>6.973</ele>
        <time>2020-02-08T07:11:37.802Z</time>
      </trkpt>
      <trkpt lat="39.04644333" lon="-0.20811">
        <ele>6.973</ele>
        <time>2020-02-08T07:11:38.802Z</time>
      </trkpt>
      <trkpt lat="39.04644333" lon="-0.20811">
        <ele>6.973</ele>
        <time>2020-02-08T07:11:39.802Z</time>
      </trkpt>
      <trkpt lat="39.04650667" lon="-0.20801667">
        <ele>6.973</ele>
        <time>2020-02-08T07:11:40.802Z</time>
      </trkpt>
      <trkpt lat="39.04650667" lon="-0.20801667">
        <ele>6.973</ele>
        <time>2020-02-08T07:11:41.802Z</time>
      </trkpt>
      <trkpt lat="39.04657333" lon="-0.20792667">
        <ele>6.973</ele>
        <time>2020-02-08T07:11:42.802Z</time>
      </trkpt>
      <trkpt lat="39.04657333" lon="-0.20792667">
        <ele>6.973</ele>
        <time>2020-02-08T07:11:43.802Z</time>
      </trkpt>
      <trkpt lat="39.04664167" lon="-0.20784167">
        <ele>6.973</ele>
        <time>2020-02-08T07:11:44.802Z</time>
      </trkpt>
      <trkpt lat="39.04664167" lon="-0.20784167">
        <ele>6.973</ele>
        <time>2020-02-08T07:11:45.802Z</time>
      </trkpt>
      <trkpt lat="39.04670833" lon="-0.20776333">
        <ele>6.973</ele>
        <time>2020-02-08T07:11:46.802Z</time>
      </trkpt>
      <trkpt lat="39.04670833" lon="-0.20776333">
        <ele>6.973</ele>
        <time>2020-02-08T07:11:47.802Z</time>
      </trkpt>
      <trkpt lat="39.046755" lon="-0.20768167">
        <ele>6.973</ele>
        <time>2020-02-08T07:11:48.802Z</time>
      </trkpt>
      <trkpt lat="39.04676833" lon="-0.207635">
        <ele>6.973</ele>
        <time>2020-02-08T07:11:49.802Z</time>
      </trkpt>
      <trkpt lat="39.04676833" lon="-0.207635">
        <ele>6.973</ele>
        <time>2020-02-08T07:11:50.802Z</time>
      </trkpt>
      <trkpt lat="39.04678333" lon="-0.20753">
        <ele>6.973</ele>
        <time>2020-02-08T07:11:51.802Z</time>
      </trkpt>
      <trkpt lat="39.04678333" lon="-0.20753">
        <ele>6.973</ele>
        <time>2020-02-08T07:11:52.802Z</time>
      </trkpt>
      <trkpt lat="39.04677833" lon="-0.20742167">
        <ele>6.973</ele>
        <time>2020-02-08T07:11:53.802Z</time>
      </trkpt>
      <trkpt lat="39.04677167" lon="-0.20736333">
        <ele>6.973</ele>
        <time>2020-02-08T07:11:54.802Z</time>
      </trkpt>
      <trkpt lat="39.04677167" lon="-0.20736333">
        <ele>6.973</ele>
        <time>2020-02-08T07:11:55.802Z</time>
      </trkpt>
      <trkpt lat="39.04677" lon="-0.20725167">
        <ele>6.973</ele>
        <time>2020-02-08T07:11:56.802Z</time>
      </trkpt>
      <trkpt lat="39.04678" lon="-0.20719667">
        <ele>6.973</ele>
        <time>2020-02-08T07:11:57.802Z</time>
      </trkpt>
      <trkpt lat="39.04678" lon="-0.20719667">
        <ele>6.973</ele>
        <time>2020-02-08T07:11:58.802Z</time>
      </trkpt>
      <trkpt lat="39.04682333" lon="-0.20709">
        <ele>6.973</ele>
        <time>2020-02-08T07:11:59.802Z</time>
      </trkpt>
      <trkpt lat="39.04684667" lon="-0.20705167">
        <ele>6.973</ele>
        <time>2020-02-08T07:12:00.802Z</time>
      </trkpt>
      <trkpt lat="39.04684667" lon="-0.20705167">
        <ele>6.973</ele>
        <time>2020-02-08T07:12:01.802Z</time>
      </trkpt>
      <trkpt lat="39.04691167" lon="-0.207055">
        <ele>6.973</ele>
        <time>2020-02-08T07:12:02.802Z</time>
      </trkpt>
      <trkpt lat="39.04691167" lon="-0.207055">
        <ele>6.973</ele>
        <time>2020-02-08T07:12:03.802Z</time>
      </trkpt>
      <trkpt lat="39.04698167" lon="-0.20710333">
        <ele>6.973</ele>
        <time>2020-02-08T07:12:04.802Z</time>
      </trkpt>
      <trkpt lat="39.04698167" lon="-0.20710333">
        <ele>7.973</ele>
        <time>2020-02-08T07:12:05.802Z</time>
      </trkpt>
      <trkpt lat="39.04704167" lon="-0.20716167">
        <ele>7.973</ele>
        <time>2020-02-08T07:12:06.802Z</time>
      </trkpt>
      <trkpt lat="39.04704167" lon="-0.20716167">
        <ele>7.973</ele>
        <time>2020-02-08T07:12:07.802Z</time>
      </trkpt>
      <trkpt lat="39.0471" lon="-0.20722833">
        <ele>7.973</ele>
        <time>2020-02-08T07:12:08.802Z</time>
      </trkpt>
      <trkpt lat="39.0471" lon="-0.20722833">
        <ele>7.973</ele>
        <time>2020-02-08T07:12:09.802Z</time>
      </trkpt>
      <trkpt lat="39.04716667" lon="-0.20729333">
        <ele>7.973</ele>
        <time>2020-02-08T07:12:10.802Z</time>
      </trkpt>
      <trkpt lat="39.0472" lon="-0.20732167">
        <ele>7.973</ele>
        <time>2020-02-08T07:12:11.802Z</time>
      </trkpt>
      <trkpt lat="39.04723333" lon="-0.20735">
        <ele>7.973</ele>
        <time>2020-02-08T07:12:12.802Z</time>
      </trkpt>
      <trkpt lat="39.04723333" lon="-0.20735">
        <ele>7.973</ele>
        <time>2020-02-08T07:12:13.802Z</time>
      </trkpt>
      <trkpt lat="39.04730333" lon="-0.20741">
        <ele>7.973</ele>
        <time>2020-02-08T07:12:14.802Z</time>
      </trkpt>
      <trkpt lat="39.04733833" lon="-0.20744333">
        <ele>7.973</ele>
        <time>2020-02-08T07:12:15.802Z</time>
      </trkpt>
      <trkpt lat="39.04733833" lon="-0.20744333">
        <ele>7.973</ele>
        <time>2020-02-08T07:12:16.802Z</time>
      </trkpt>
      <trkpt lat="39.04741333" lon="-0.20750833">
        <ele>7.973</ele>
        <time>2020-02-08T07:12:17.802Z</time>
      </trkpt>
      <trkpt lat="39.04741333" lon="-0.20750833">
        <ele>7.973</ele>
        <time>2020-02-08T07:12:18.802Z</time>
      </trkpt>
      <trkpt lat="39.04748833" lon="-0.207575">
        <ele>7.973</ele>
        <time>2020-02-08T07:12:19.802Z</time>
      </trkpt>
      <trkpt lat="39.04752667" lon="-0.20760667">
        <ele>7.973</ele>
        <time>2020-02-08T07:12:20.802Z</time>
      </trkpt>
      <trkpt lat="39.04752667" lon="-0.20760667">
        <ele>7.973</ele>
        <time>2020-02-08T07:12:21.802Z</time>
      </trkpt>
      <trkpt lat="39.047605" lon="-0.20767167">
        <ele>7.973</ele>
        <time>2020-02-08T07:12:22.802Z</time>
      </trkpt>
      <trkpt lat="39.047605" lon="-0.20767167">
        <ele>7.973</ele>
        <time>2020-02-08T07:12:23.802Z</time>
      </trkpt>
      <trkpt lat="39.04767833" lon="-0.20773667">
        <ele>8.973</ele>
        <time>2020-02-08T07:12:24.802Z</time>
      </trkpt>
      <trkpt lat="39.04767833" lon="-0.20773667">
        <ele>8.973</ele>
        <time>2020-02-08T07:12:25.802Z</time>
      </trkpt>
      <trkpt lat="39.04774667" lon="-0.20780167">
        <ele>8.973</ele>
        <time>2020-02-08T07:12:26.802Z</time>
      </trkpt>
      <trkpt lat="39.04778167" lon="-0.20783333">
        <ele>8.973</ele>
        <time>2020-02-08T07:12:27.802Z</time>
      </trkpt>
      <trkpt lat="39.04778167" lon="-0.20783333">
        <ele>8.973</ele>
        <time>2020-02-08T07:12:28.802Z</time>
      </trkpt>
      <trkpt lat="39.04785333" lon="-0.20789833">
        <ele>8.973</ele>
        <time>2020-02-08T07:12:29.802Z</time>
      </trkpt>
      <trkpt lat="39.04788833" lon="-0.20793333">
        <ele>8.973</ele>
        <time>2020-02-08T07:12:30.802Z</time>
      </trkpt>
      <trkpt lat="39.04788833" lon="-0.20793333">
        <ele>8.973</ele>
        <time>2020-02-08T07:12:31.802Z</time>
      </trkpt>
      <trkpt lat="39.04796" lon="-0.208">
        <ele>8.973</ele>
        <time>2020-02-08T07:12:32.802Z</time>
      </trkpt>
      <trkpt lat="39.04796" lon="-0.208">
        <ele>8.973</ele>
        <time>2020-02-08T07:12:33.802Z</time>
      </trkpt>
      <trkpt lat="39.04802833" lon="-0.20807">
        <ele>8.973</ele>
        <time>2020-02-08T07:12:34.802Z</time>
      </trkpt>
      <trkpt lat="39.04802833" lon="-0.20807">
        <ele>8.973</ele>
        <time>2020-02-08T07:12:35.802Z</time>
      </trkpt>
      <trkpt lat="39.04809833" lon="-0.20813833">
        <ele>8.973</ele>
        <time>2020-02-08T07:12:36.802Z</time>
      </trkpt>
      <trkpt lat="39.04809833" lon="-0.20813833">
        <ele>8.973</ele>
        <time>2020-02-08T07:12:37.802Z</time>
      </trkpt>
      <trkpt lat="39.04816833" lon="-0.20820667">
        <ele>8.973</ele>
        <time>2020-02-08T07:12:38.802Z</time>
      </trkpt>
      <trkpt lat="39.04820167" lon="-0.20823833">
        <ele>8.973</ele>
        <time>2020-02-08T07:12:39.802Z</time>
      </trkpt>
      <trkpt lat="39.04820167" lon="-0.20823833">
        <ele>8.973</ele>
        <time>2020-02-08T07:12:40.802Z</time>
      </trkpt>
      <trkpt lat="39.04827" lon="-0.20830667">
        <ele>8.973</ele>
        <time>2020-02-08T07:12:41.802Z</time>
      </trkpt>
      <trkpt lat="39.048305" lon="-0.20834167">
        <ele>8.973</ele>
        <time>2020-02-08T07:12:42.802Z</time>
      </trkpt>
      <trkpt lat="39.048305" lon="-0.20834167">
        <ele>8.973</ele>
        <time>2020-02-08T07:12:43.802Z</time>
      </trkpt>
      <trkpt lat="39.04837667" lon="-0.20841">
        <ele>8.973</ele>
        <time>2020-02-08T07:12:44.802Z</time>
      </trkpt>
      <trkpt lat="39.04837667" lon="-0.20841">
        <ele>8.973</ele>
        <time>2020-02-08T07:12:45.802Z</time>
      </trkpt>
      <trkpt lat="39.04845" lon="-0.20847667">
        <ele>8.973</ele>
        <time>2020-02-08T07:12:46.802Z</time>
      </trkpt>
      <trkpt lat="39.04845" lon="-0.20847667">
        <ele>8.973</ele>
        <time>2020-02-08T07:12:47.802Z</time>
      </trkpt>
      <trkpt lat="39.04852333" lon="-0.20854333">
        <ele>8.973</ele>
        <time>2020-02-08T07:12:48.802Z</time>
      </trkpt>
      <trkpt lat="39.04852333" lon="-0.20854333">
        <ele>8.973</ele>
        <time>2020-02-08T07:12:49.802Z</time>
      </trkpt>
      <trkpt lat="39.04859833" lon="-0.20861167">
        <ele>8.973</ele>
        <time>2020-02-08T07:12:50.802Z</time>
      </trkpt>
      <trkpt lat="39.04859833" lon="-0.20861167">
        <ele>8.973</ele>
        <time>2020-02-08T07:12:51.802Z</time>
      </trkpt>
      <trkpt lat="39.04867167" lon="-0.20867833">
        <ele>8.973</ele>
        <time>2020-02-08T07:12:52.802Z</time>
      </trkpt>
      <trkpt lat="39.04867167" lon="-0.20867833">
        <ele>8.973</ele>
        <time>2020-02-08T07:12:53.802Z</time>
      </trkpt>
      <trkpt lat="39.048745" lon="-0.20874667">
        <ele>8.973</ele>
        <time>2020-02-08T07:12:54.802Z</time>
      </trkpt>
      <trkpt lat="39.048745" lon="-0.20874667">
        <ele>8.973</ele>
        <time>2020-02-08T07:12:55.802Z</time>
      </trkpt>
      <trkpt lat="39.04881833" lon="-0.20881333">
        <ele>8.973</ele>
        <time>2020-02-08T07:12:56.802Z</time>
      </trkpt>
      <trkpt lat="39.04881833" lon="-0.20881333">
        <ele>8.973</ele>
        <time>2020-02-08T07:12:57.802Z</time>
      </trkpt>
      <trkpt lat="39.04889167" lon="-0.20888167">
        <ele>8.973</ele>
        <time>2020-02-08T07:12:58.802Z</time>
      </trkpt>
      <trkpt lat="39.04889167" lon="-0.20888167">
        <ele>8.973</ele>
        <time>2020-02-08T07:12:59.802Z</time>
      </trkpt>
      <trkpt lat="39.04896667" lon="-0.20895">
        <ele>8.973</ele>
        <time>2020-02-08T07:13:00.802Z</time>
      </trkpt>
      <trkpt lat="39.04896667" lon="-0.20895">
        <ele>8.973</ele>
        <time>2020-02-08T07:13:01.802Z</time>
      </trkpt>
      <trkpt lat="39.04904167" lon="-0.20902167">
        <ele>8.973</ele>
        <time>2020-02-08T07:13:02.802Z</time>
      </trkpt>
      <trkpt lat="39.04904167" lon="-0.20902167">
        <ele>8.973</ele>
        <time>2020-02-08T07:13:03.802Z</time>
      </trkpt>
      <trkpt lat="39.04911667" lon="-0.20909333">
        <ele>8.973</ele>
        <time>2020-02-08T07:13:04.802Z</time>
      </trkpt>
      <trkpt lat="39.04911667" lon="-0.20909333">
        <ele>8.973</ele>
        <time>2020-02-08T07:13:05.802Z</time>
      </trkpt>
      <trkpt lat="39.04919333" lon="-0.20916667">
        <ele>8.973</ele>
        <time>2020-02-08T07:13:06.802Z</time>
      </trkpt>
      <trkpt lat="39.04919333" lon="-0.20916667">
        <ele>8.973</ele>
        <time>2020-02-08T07:13:07.802Z</time>
      </trkpt>
      <trkpt lat="39.04926667" lon="-0.20924167">
        <ele>8.973</ele>
        <time>2020-02-08T07:13:08.802Z</time>
      </trkpt>
      <trkpt lat="39.049305" lon="-0.20928">
        <ele>8.973</ele>
        <time>2020-02-08T07:13:09.802Z</time>
      </trkpt>
      <trkpt lat="39.049305" lon="-0.20928">
        <ele>8.973</ele>
        <time>2020-02-08T07:13:10.802Z</time>
      </trkpt>
      <trkpt lat="39.04938167" lon="-0.20935167">
        <ele>8.973</ele>
        <time>2020-02-08T07:13:11.802Z</time>
      </trkpt>
      <trkpt lat="39.04942" lon="-0.20938667">
        <ele>8.973</ele>
        <time>2020-02-08T07:13:12.802Z</time>
      </trkpt>
      <trkpt lat="39.04942" lon="-0.20938667">
        <ele>8.973</ele>
        <time>2020-02-08T07:13:13.802Z</time>
      </trkpt>
      <trkpt lat="39.049495" lon="-0.209465">
        <ele>8.973</ele>
        <time>2020-02-08T07:13:14.802Z</time>
      </trkpt>
      <trkpt lat="39.049495" lon="-0.209465">
        <ele>8.973</ele>
        <time>2020-02-08T07:13:15.802Z</time>
      </trkpt>
      <trkpt lat="39.04957167" lon="-0.20954">
        <ele>8.973</ele>
        <time>2020-02-08T07:13:16.802Z</time>
      </trkpt>
      <trkpt lat="39.04957167" lon="-0.20954">
        <ele>8.973</ele>
        <time>2020-02-08T07:13:17.802Z</time>
      </trkpt>
      <trkpt lat="39.04964667" lon="-0.209615">
        <ele>8.973</ele>
        <time>2020-02-08T07:13:18.802Z</time>
      </trkpt>
      <trkpt lat="39.04964667" lon="-0.209615">
        <ele>8.973</ele>
        <time>2020-02-08T07:13:19.802Z</time>
      </trkpt>
      <trkpt lat="39.04972667" lon="-0.20968">
        <ele>8.973</ele>
        <time>2020-02-08T07:13:20.802Z</time>
      </trkpt>
      <trkpt lat="39.04972667" lon="-0.20968">
        <ele>8.973</ele>
        <time>2020-02-08T07:13:21.802Z</time>
      </trkpt>
      <trkpt lat="39.04981167" lon="-0.209735">
        <ele>8.973</ele>
        <time>2020-02-08T07:13:22.802Z</time>
      </trkpt>
      <trkpt lat="39.04981167" lon="-0.209735">
        <ele>8.973</ele>
        <time>2020-02-08T07:13:23.802Z</time>
      </trkpt>
      <trkpt lat="39.04989333" lon="-0.20979">
        <ele>8.973</ele>
        <time>2020-02-08T07:13:24.802Z</time>
      </trkpt>
      <trkpt lat="39.04989333" lon="-0.20979">
        <ele>8.973</ele>
        <time>2020-02-08T07:13:25.802Z</time>
      </trkpt>
      <trkpt lat="39.04997667" lon="-0.20984667">
        <ele>8.973</ele>
        <time>2020-02-08T07:13:26.802Z</time>
      </trkpt>
      <trkpt lat="39.05002" lon="-0.209875">
        <ele>8.973</ele>
        <time>2020-02-08T07:13:27.802Z</time>
      </trkpt>
      <trkpt lat="39.05002" lon="-0.209875">
        <ele>8.973</ele>
        <time>2020-02-08T07:13:28.802Z</time>
      </trkpt>
      <trkpt lat="39.05011" lon="-0.20993667">
        <ele>8.973</ele>
        <time>2020-02-08T07:13:29.802Z</time>
      </trkpt>
      <trkpt lat="39.050155" lon="-0.20996667">
        <ele>8.973</ele>
        <time>2020-02-08T07:13:30.802Z</time>
      </trkpt>
      <trkpt lat="39.050155" lon="-0.20996667">
        <ele>8.973</ele>
        <time>2020-02-08T07:13:31.802Z</time>
      </trkpt>
      <trkpt lat="39.05024" lon="-0.21002833">
        <ele>8.973</ele>
        <time>2020-02-08T07:13:32.802Z</time>
      </trkpt>
      <trkpt lat="39.05024" lon="-0.21002833">
        <ele>8.973</ele>
        <time>2020-02-08T07:13:33.802Z</time>
      </trkpt>
      <trkpt lat="39.05032667" lon="-0.21008333">
        <ele>8.973</ele>
        <time>2020-02-08T07:13:34.802Z</time>
      </trkpt>
      <trkpt lat="39.05032667" lon="-0.21008333">
        <ele>8.973</ele>
        <time>2020-02-08T07:13:35.802Z</time>
      </trkpt>
      <trkpt lat="39.05041333" lon="-0.21014">
        <ele>8.973</ele>
        <time>2020-02-08T07:13:36.802Z</time>
      </trkpt>
      <trkpt lat="39.05041333" lon="-0.21014">
        <ele>8.973</ele>
        <time>2020-02-08T07:13:37.802Z</time>
      </trkpt>
      <trkpt lat="39.05050167" lon="-0.21019667">
        <ele>8.973</ele>
        <time>2020-02-08T07:13:38.802Z</time>
      </trkpt>
      <trkpt lat="39.050545" lon="-0.21022167">
        <ele>8.973</ele>
        <time>2020-02-08T07:13:39.802Z</time>
      </trkpt>
      <trkpt lat="39.05059167" lon="-0.21024833">
        <ele>8.973</ele>
        <time>2020-02-08T07:13:40.802Z</time>
      </trkpt>
      <trkpt lat="39.05059167" lon="-0.21024833">
        <ele>8.973</ele>
        <time>2020-02-08T07:13:41.802Z</time>
      </trkpt>
      <trkpt lat="39.05068167" lon="-0.21030667">
        <ele>8.973</ele>
        <time>2020-02-08T07:13:42.802Z</time>
      </trkpt>
      <trkpt lat="39.05068167" lon="-0.21030667">
        <ele>8.973</ele>
        <time>2020-02-08T07:13:43.802Z</time>
      </trkpt>
      <trkpt lat="39.05076833" lon="-0.21036333">
        <ele>8.973</ele>
        <time>2020-02-08T07:13:44.802Z</time>
      </trkpt>
      <trkpt lat="39.05076833" lon="-0.21036333">
        <ele>8.973</ele>
        <time>2020-02-08T07:13:45.802Z</time>
      </trkpt>
      <trkpt lat="39.05085667" lon="-0.21042167">
        <ele>8.973</ele>
        <time>2020-02-08T07:13:46.802Z</time>
      </trkpt>
      <trkpt lat="39.05085667" lon="-0.21042167">
        <ele>8.973</ele>
        <time>2020-02-08T07:13:47.802Z</time>
      </trkpt>
      <trkpt lat="39.05094833" lon="-0.210475">
        <ele>8.973</ele>
        <time>2020-02-08T07:13:48.802Z</time>
      </trkpt>
      <trkpt lat="39.05094833" lon="-0.210475">
        <ele>8.973</ele>
        <time>2020-02-08T07:13:49.802Z</time>
      </trkpt>
      <trkpt lat="39.05103833" lon="-0.210535">
        <ele>8.973</ele>
        <time>2020-02-08T07:13:50.802Z</time>
      </trkpt>
      <trkpt lat="39.05103833" lon="-0.210535">
        <ele>8.973</ele>
        <time>2020-02-08T07:13:51.802Z</time>
      </trkpt>
      <trkpt lat="39.051125" lon="-0.21059333">
        <ele>8.973</ele>
        <time>2020-02-08T07:13:52.802Z</time>
      </trkpt>
      <trkpt lat="39.051125" lon="-0.21059333">
        <ele>8.973</ele>
        <time>2020-02-08T07:13:53.802Z</time>
      </trkpt>
      <trkpt lat="39.05121" lon="-0.210655">
        <ele>7.973</ele>
        <time>2020-02-08T07:13:54.802Z</time>
      </trkpt>
      <trkpt lat="39.05121" lon="-0.210655">
        <ele>7.973</ele>
        <time>2020-02-08T07:13:55.802Z</time>
      </trkpt>
      <trkpt lat="39.05129333" lon="-0.21071667">
        <ele>7.973</ele>
        <time>2020-02-08T07:13:56.802Z</time>
      </trkpt>
      <trkpt lat="39.05133667" lon="-0.210745">
        <ele>7.973</ele>
        <time>2020-02-08T07:13:57.802Z</time>
      </trkpt>
      <trkpt lat="39.05133667" lon="-0.210745">
        <ele>7.973</ele>
        <time>2020-02-08T07:13:58.802Z</time>
      </trkpt>
      <trkpt lat="39.05142167" lon="-0.2108">
        <ele>7.973</ele>
        <time>2020-02-08T07:13:59.802Z</time>
      </trkpt>
      <trkpt lat="39.051465" lon="-0.21082833">
        <ele>7.973</ele>
        <time>2020-02-08T07:14:00.802Z</time>
      </trkpt>
      <trkpt lat="39.051465" lon="-0.21082833">
        <ele>7.973</ele>
        <time>2020-02-08T07:14:01.802Z</time>
      </trkpt>
      <trkpt lat="39.05155" lon="-0.21088667">
        <ele>7.973</ele>
        <time>2020-02-08T07:14:02.802Z</time>
      </trkpt>
      <trkpt lat="39.05155" lon="-0.21088667">
        <ele>7.973</ele>
        <time>2020-02-08T07:14:03.802Z</time>
      </trkpt>
      <trkpt lat="39.05163333" lon="-0.21094333">
        <ele>7.973</ele>
        <time>2020-02-08T07:14:04.802Z</time>
      </trkpt>
      <trkpt lat="39.05163333" lon="-0.21094333">
        <ele>7.973</ele>
        <time>2020-02-08T07:14:05.802Z</time>
      </trkpt>
      <trkpt lat="39.05171833" lon="-0.211">
        <ele>7.973</ele>
        <time>2020-02-08T07:14:06.802Z</time>
      </trkpt>
      <trkpt lat="39.05171833" lon="-0.211">
        <ele>7.973</ele>
        <time>2020-02-08T07:14:07.802Z</time>
      </trkpt>
      <trkpt lat="39.05180333" lon="-0.21105667">
        <ele>7.973</ele>
        <time>2020-02-08T07:14:08.802Z</time>
      </trkpt>
      <trkpt lat="39.05180333" lon="-0.21105667">
        <ele>7.973</ele>
        <time>2020-02-08T07:14:09.802Z</time>
      </trkpt>
      <trkpt lat="39.05189167" lon="-0.211115">
        <ele>7.973</ele>
        <time>2020-02-08T07:14:10.802Z</time>
      </trkpt>
      <trkpt lat="39.05189167" lon="-0.211115">
        <ele>7.973</ele>
        <time>2020-02-08T07:14:11.802Z</time>
      </trkpt>
      <trkpt lat="39.05197833" lon="-0.21117667">
        <ele>7.973</ele>
        <time>2020-02-08T07:14:12.802Z</time>
      </trkpt>
      <trkpt lat="39.05197833" lon="-0.21117667">
        <ele>7.973</ele>
        <time>2020-02-08T07:14:13.802Z</time>
      </trkpt>
      <trkpt lat="39.052065" lon="-0.21123833">
        <ele>7.973</ele>
        <time>2020-02-08T07:14:14.802Z</time>
      </trkpt>
      <trkpt lat="39.05211" lon="-0.21126667">
        <ele>7.973</ele>
        <time>2020-02-08T07:14:15.802Z</time>
      </trkpt>
      <trkpt lat="39.05211" lon="-0.21126667">
        <ele>7.973</ele>
        <time>2020-02-08T07:14:16.802Z</time>
      </trkpt>
      <trkpt lat="39.05219833" lon="-0.21132">
        <ele>7.973</ele>
        <time>2020-02-08T07:14:17.802Z</time>
      </trkpt>
      <trkpt lat="39.05224333" lon="-0.21134667">
        <ele>7.973</ele>
        <time>2020-02-08T07:14:18.802Z</time>
      </trkpt>
      <trkpt lat="39.05224333" lon="-0.21134667">
        <ele>7.973</ele>
        <time>2020-02-08T07:14:19.802Z</time>
      </trkpt>
      <trkpt lat="39.05233333" lon="-0.211405">
        <ele>7.973</ele>
        <time>2020-02-08T07:14:20.802Z</time>
      </trkpt>
      <trkpt lat="39.05233333" lon="-0.211405">
        <ele>7.973</ele>
        <time>2020-02-08T07:14:21.802Z</time>
      </trkpt>
      <trkpt lat="39.05241667" lon="-0.211465">
        <ele>7.973</ele>
        <time>2020-02-08T07:14:22.802Z</time>
      </trkpt>
      <trkpt lat="39.05241667" lon="-0.211465">
        <ele>7.973</ele>
        <time>2020-02-08T07:14:23.802Z</time>
      </trkpt>
      <trkpt lat="39.05249833" lon="-0.21152333">
        <ele>7.973</ele>
        <time>2020-02-08T07:14:24.802Z</time>
      </trkpt>
      <trkpt lat="39.05249833" lon="-0.21152333">
        <ele>7.973</ele>
        <time>2020-02-08T07:14:25.802Z</time>
      </trkpt>
      <trkpt lat="39.05258333" lon="-0.21158">
        <ele>7.973</ele>
        <time>2020-02-08T07:14:26.802Z</time>
      </trkpt>
      <trkpt lat="39.052625" lon="-0.21161">
        <ele>7.973</ele>
        <time>2020-02-08T07:14:27.802Z</time>
      </trkpt>
      <trkpt lat="39.052625" lon="-0.21161">
        <ele>7.973</ele>
        <time>2020-02-08T07:14:28.802Z</time>
      </trkpt>
      <trkpt lat="39.05270833" lon="-0.21166667">
        <ele>7.973</ele>
        <time>2020-02-08T07:14:29.802Z</time>
      </trkpt>
      <trkpt lat="39.05275167" lon="-0.21169333">
        <ele>7.973</ele>
        <time>2020-02-08T07:14:30.802Z</time>
      </trkpt>
      <trkpt lat="39.05275167" lon="-0.21169333">
        <ele>7.973</ele>
        <time>2020-02-08T07:14:31.802Z</time>
      </trkpt>
      <trkpt lat="39.05283833" lon="-0.21175167">
        <ele>7.973</ele>
        <time>2020-02-08T07:14:32.802Z</time>
      </trkpt>
      <trkpt lat="39.05288167" lon="-0.21177833">
        <ele>7.973</ele>
        <time>2020-02-08T07:14:33.802Z</time>
      </trkpt>
      <trkpt lat="39.05288167" lon="-0.21177833">
        <ele>7.973</ele>
        <time>2020-02-08T07:14:34.802Z</time>
      </trkpt>
      <trkpt lat="39.05296833" lon="-0.211835">
        <ele>7.973</ele>
        <time>2020-02-08T07:14:35.802Z</time>
      </trkpt>
      <trkpt lat="39.05301167" lon="-0.211865">
        <ele>7.973</ele>
        <time>2020-02-08T07:14:36.802Z</time>
      </trkpt>
      <trkpt lat="39.05301167" lon="-0.211865">
        <ele>7.973</ele>
        <time>2020-02-08T07:14:37.802Z</time>
      </trkpt>
      <trkpt lat="39.05309667" lon="-0.21192">
        <ele>7.973</ele>
        <time>2020-02-08T07:14:38.802Z</time>
      </trkpt>
      <trkpt lat="39.05309667" lon="-0.21192">
        <ele>7.973</ele>
        <time>2020-02-08T07:14:39.802Z</time>
      </trkpt>
      <trkpt lat="39.05318333" lon="-0.211975">
        <ele>7.973</ele>
        <time>2020-02-08T07:14:40.802Z</time>
      </trkpt>
      <trkpt lat="39.05318333" lon="-0.211975">
        <ele>7.973</ele>
        <time>2020-02-08T07:14:41.802Z</time>
      </trkpt>
      <trkpt lat="39.05327" lon="-0.21203167">
        <ele>7.973</ele>
        <time>2020-02-08T07:14:42.802Z</time>
      </trkpt>
      <trkpt lat="39.05327" lon="-0.21203167">
        <ele>7.973</ele>
        <time>2020-02-08T07:14:43.802Z</time>
      </trkpt>
      <trkpt lat="39.053355" lon="-0.21209">
        <ele>7.973</ele>
        <time>2020-02-08T07:14:44.802Z</time>
      </trkpt>
      <trkpt lat="39.05339667" lon="-0.21212">
        <ele>7.973</ele>
        <time>2020-02-08T07:14:45.802Z</time>
      </trkpt>
      <trkpt lat="39.05339667" lon="-0.21212">
        <ele>7.973</ele>
        <time>2020-02-08T07:14:46.802Z</time>
      </trkpt>
      <trkpt lat="39.05348333" lon="-0.21217667">
        <ele>7.973</ele>
        <time>2020-02-08T07:14:47.802Z</time>
      </trkpt>
      <trkpt lat="39.053525" lon="-0.21220667">
        <ele>7.973</ele>
        <time>2020-02-08T07:14:48.802Z</time>
      </trkpt>
      <trkpt lat="39.053525" lon="-0.21220667">
        <ele>7.973</ele>
        <time>2020-02-08T07:14:49.802Z</time>
      </trkpt>
      <trkpt lat="39.05361" lon="-0.21226">
        <ele>7.973</ele>
        <time>2020-02-08T07:14:50.802Z</time>
      </trkpt>
      <trkpt lat="39.05361" lon="-0.21226">
        <ele>7.973</ele>
        <time>2020-02-08T07:14:51.802Z</time>
      </trkpt>
      <trkpt lat="39.05369333" lon="-0.21232">
        <ele>7.973</ele>
        <time>2020-02-08T07:14:52.802Z</time>
      </trkpt>
      <trkpt lat="39.05369333" lon="-0.21232">
        <ele>7.973</ele>
        <time>2020-02-08T07:14:53.802Z</time>
      </trkpt>
      <trkpt lat="39.05377833" lon="-0.212375">
        <ele>7.973</ele>
        <time>2020-02-08T07:14:54.802Z</time>
      </trkpt>
      <trkpt lat="39.05377833" lon="-0.212375">
        <ele>7.973</ele>
        <time>2020-02-08T07:14:55.802Z</time>
      </trkpt>
      <trkpt lat="39.053865" lon="-0.21243">
        <ele>7.973</ele>
        <time>2020-02-08T07:14:56.802Z</time>
      </trkpt>
      <trkpt lat="39.053865" lon="-0.21243">
        <ele>7.973</ele>
        <time>2020-02-08T07:14:57.802Z</time>
      </trkpt>
      <trkpt lat="39.05394833" lon="-0.21249167">
        <ele>7.973</ele>
        <time>2020-02-08T07:14:58.802Z</time>
      </trkpt>
      <trkpt lat="39.05399167" lon="-0.21252167">
        <ele>8.973</ele>
        <time>2020-02-08T07:14:59.802Z</time>
      </trkpt>
      <trkpt lat="39.054035" lon="-0.21255">
        <ele>8.973</ele>
        <time>2020-02-08T07:15:00.802Z</time>
      </trkpt>
      <trkpt lat="39.054035" lon="-0.21255">
        <ele>8.973</ele>
        <time>2020-02-08T07:15:01.802Z</time>
      </trkpt>
      <trkpt lat="39.05412167" lon="-0.212605">
        <ele>8.973</ele>
        <time>2020-02-08T07:15:02.802Z</time>
      </trkpt>
      <trkpt lat="39.05412167" lon="-0.212605">
        <ele>8.973</ele>
        <time>2020-02-08T07:15:03.802Z</time>
      </trkpt>
      <trkpt lat="39.05421" lon="-0.21265833">
        <ele>8.973</ele>
        <time>2020-02-08T07:15:04.802Z</time>
      </trkpt>
      <trkpt lat="39.05421" lon="-0.21265833">
        <ele>8.973</ele>
        <time>2020-02-08T07:15:05.802Z</time>
      </trkpt>
      <trkpt lat="39.05429667" lon="-0.212715">
        <ele>8.973</ele>
        <time>2020-02-08T07:15:06.802Z</time>
      </trkpt>
      <trkpt lat="39.05429667" lon="-0.212715">
        <ele>8.973</ele>
        <time>2020-02-08T07:15:07.802Z</time>
      </trkpt>
      <trkpt lat="39.05438167" lon="-0.21277833">
        <ele>8.973</ele>
        <time>2020-02-08T07:15:08.802Z</time>
      </trkpt>
      <trkpt lat="39.05438167" lon="-0.21277833">
        <ele>8.973</ele>
        <time>2020-02-08T07:15:09.802Z</time>
      </trkpt>
      <trkpt lat="39.05446667" lon="-0.21283833">
        <ele>8.973</ele>
        <time>2020-02-08T07:15:10.802Z</time>
      </trkpt>
      <trkpt lat="39.05451" lon="-0.21286667">
        <ele>8.973</ele>
        <time>2020-02-08T07:15:11.802Z</time>
      </trkpt>
      <trkpt lat="39.05451" lon="-0.21286667">
        <ele>8.973</ele>
        <time>2020-02-08T07:15:12.802Z</time>
      </trkpt>
      <trkpt lat="39.054595" lon="-0.212925">
        <ele>8.973</ele>
        <time>2020-02-08T07:15:13.802Z</time>
      </trkpt>
      <trkpt lat="39.05464" lon="-0.21295333">
        <ele>8.973</ele>
        <time>2020-02-08T07:15:14.802Z</time>
      </trkpt>
      <trkpt lat="39.05464" lon="-0.21295333">
        <ele>8.973</ele>
        <time>2020-02-08T07:15:15.802Z</time>
      </trkpt>
      <trkpt lat="39.05472667" lon="-0.21301167">
        <ele>8.973</ele>
        <time>2020-02-08T07:15:16.802Z</time>
      </trkpt>
      <trkpt lat="39.05472667" lon="-0.21301167">
        <ele>8.973</ele>
        <time>2020-02-08T07:15:17.802Z</time>
      </trkpt>
      <trkpt lat="39.05480333" lon="-0.21306667">
        <ele>8.973</ele>
        <time>2020-02-08T07:15:18.802Z</time>
      </trkpt>
      <trkpt lat="39.05480333" lon="-0.21306667">
        <ele>8.973</ele>
        <time>2020-02-08T07:15:19.802Z</time>
      </trkpt>
      <trkpt lat="39.05487333" lon="-0.213125">
        <ele>8.973</ele>
        <time>2020-02-08T07:15:20.802Z</time>
      </trkpt>
      <trkpt lat="39.05487333" lon="-0.213125">
        <ele>8.973</ele>
        <time>2020-02-08T07:15:21.802Z</time>
      </trkpt>
      <trkpt lat="39.05493667" lon="-0.21317167">
        <ele>8.973</ele>
        <time>2020-02-08T07:15:22.802Z</time>
      </trkpt>
      <trkpt lat="39.05493667" lon="-0.21317167">
        <ele>8.973</ele>
        <time>2020-02-08T07:15:23.802Z</time>
      </trkpt>
      <trkpt lat="39.05499333" lon="-0.213215">
        <ele>8.973</ele>
        <time>2020-02-08T07:15:24.802Z</time>
      </trkpt>
      <trkpt lat="39.05499333" lon="-0.213215">
        <ele>8.973</ele>
        <time>2020-02-08T07:15:25.802Z</time>
      </trkpt>
      <trkpt lat="39.05505167" lon="-0.21326">
        <ele>8.973</ele>
        <time>2020-02-08T07:15:26.802Z</time>
      </trkpt>
      <trkpt lat="39.05505167" lon="-0.21326">
        <ele>8.973</ele>
        <time>2020-02-08T07:15:27.802Z</time>
      </trkpt>
      <trkpt lat="39.05512167" lon="-0.21331333">
        <ele>8.973</ele>
        <time>2020-02-08T07:15:28.802Z</time>
      </trkpt>
      <trkpt lat="39.05512167" lon="-0.21331333">
        <ele>8.973</ele>
        <time>2020-02-08T07:15:29.802Z</time>
      </trkpt>
      <trkpt lat="39.05519667" lon="-0.21336667">
        <ele>8.973</ele>
        <time>2020-02-08T07:15:30.802Z</time>
      </trkpt>
      <trkpt lat="39.05519667" lon="-0.21336667">
        <ele>8.973</ele>
        <time>2020-02-08T07:15:31.802Z</time>
      </trkpt>
      <trkpt lat="39.05527833" lon="-0.213415">
        <ele>8.973</ele>
        <time>2020-02-08T07:15:32.802Z</time>
      </trkpt>
      <trkpt lat="39.05527833" lon="-0.213415">
        <ele>8.973</ele>
        <time>2020-02-08T07:15:33.802Z</time>
      </trkpt>
      <trkpt lat="39.05536167" lon="-0.21347333">
        <ele>8.973</ele>
        <time>2020-02-08T07:15:34.802Z</time>
      </trkpt>
      <trkpt lat="39.05539833" lon="-0.213505">
        <ele>8.973</ele>
        <time>2020-02-08T07:15:35.802Z</time>
      </trkpt>
      <trkpt lat="39.05543833" lon="-0.21353167">
        <ele>8.973</ele>
        <time>2020-02-08T07:15:36.802Z</time>
      </trkpt>
      <trkpt lat="39.05543833" lon="-0.21353167">
        <ele>8.973</ele>
        <time>2020-02-08T07:15:37.802Z</time>
      </trkpt>
      <trkpt lat="39.05551167" lon="-0.21358833">
        <ele>8.973</ele>
        <time>2020-02-08T07:15:38.802Z</time>
      </trkpt>
      <trkpt lat="39.05551167" lon="-0.21358833">
        <ele>8.973</ele>
        <time>2020-02-08T07:15:39.802Z</time>
      </trkpt>
      <trkpt lat="39.05558333" lon="-0.21363333">
        <ele>8.973</ele>
        <time>2020-02-08T07:15:40.802Z</time>
      </trkpt>
      <trkpt lat="39.05558333" lon="-0.21363333">
        <ele>8.973</ele>
        <time>2020-02-08T07:15:41.802Z</time>
      </trkpt>
      <trkpt lat="39.05565167" lon="-0.213685">
        <ele>8.973</ele>
        <time>2020-02-08T07:15:42.802Z</time>
      </trkpt>
      <trkpt lat="39.05565167" lon="-0.213685">
        <ele>8.973</ele>
        <time>2020-02-08T07:15:43.802Z</time>
      </trkpt>
      <trkpt lat="39.05572333" lon="-0.21373333">
        <ele>8.973</ele>
        <time>2020-02-08T07:15:44.802Z</time>
      </trkpt>
      <trkpt lat="39.05572333" lon="-0.21373333">
        <ele>8.973</ele>
        <time>2020-02-08T07:15:45.802Z</time>
      </trkpt>
      <trkpt lat="39.05579667" lon="-0.21380667">
        <ele>8.973</ele>
        <time>2020-02-08T07:15:46.802Z</time>
      </trkpt>
      <trkpt lat="39.05583333" lon="-0.21385333">
        <ele>8.973</ele>
        <time>2020-02-08T07:15:47.802Z</time>
      </trkpt>
      <trkpt lat="39.05583333" lon="-0.21385333">
        <ele>8.973</ele>
        <time>2020-02-08T07:15:48.802Z</time>
      </trkpt>
      <trkpt lat="39.055875" lon="-0.21396">
        <ele>8.973</ele>
        <time>2020-02-08T07:15:49.802Z</time>
      </trkpt>
      <trkpt lat="39.05588833" lon="-0.21401333">
        <ele>8.973</ele>
        <time>2020-02-08T07:15:50.802Z</time>
      </trkpt>
      <trkpt lat="39.05588833" lon="-0.21401333">
        <ele>8.973</ele>
        <time>2020-02-08T07:15:51.802Z</time>
      </trkpt>
      <trkpt lat="39.05593667" lon="-0.21408833">
        <ele>8.973</ele>
        <time>2020-02-08T07:15:52.802Z</time>
      </trkpt>
      <trkpt lat="39.05593667" lon="-0.21408833">
        <ele>8.973</ele>
        <time>2020-02-08T07:15:53.802Z</time>
      </trkpt>
      <trkpt lat="39.05601333" lon="-0.21410333">
        <ele>8.973</ele>
        <time>2020-02-08T07:15:54.802Z</time>
      </trkpt>
      <trkpt lat="39.05601333" lon="-0.21410333">
        <ele>8.973</ele>
        <time>2020-02-08T07:15:55.802Z</time>
      </trkpt>
      <trkpt lat="39.05608" lon="-0.21412167">
        <ele>8.973</ele>
        <time>2020-02-08T07:15:56.802Z</time>
      </trkpt>
      <trkpt lat="39.05608" lon="-0.21412167">
        <ele>8.973</ele>
        <time>2020-02-08T07:15:57.802Z</time>
      </trkpt>
      <trkpt lat="39.05615" lon="-0.21417833">
        <ele>8.973</ele>
        <time>2020-02-08T07:15:58.802Z</time>
      </trkpt>
      <trkpt lat="39.05618167" lon="-0.21421333">
        <ele>8.973</ele>
        <time>2020-02-08T07:15:59.802Z</time>
      </trkpt>
      <trkpt lat="39.05618167" lon="-0.21421333">
        <ele>8.973</ele>
        <time>2020-02-08T07:16:00.802Z</time>
      </trkpt>
      <trkpt lat="39.05625167" lon="-0.214285">
        <ele>8.973</ele>
        <time>2020-02-08T07:16:01.802Z</time>
      </trkpt>
      <trkpt lat="39.05628667" lon="-0.214325">
        <ele>8.973</ele>
        <time>2020-02-08T07:16:02.802Z</time>
      </trkpt>
      <trkpt lat="39.05628667" lon="-0.214325">
        <ele>8.973</ele>
        <time>2020-02-08T07:16:03.802Z</time>
      </trkpt>
      <trkpt lat="39.056355" lon="-0.214405">
        <ele>8.973</ele>
        <time>2020-02-08T07:16:04.802Z</time>
      </trkpt>
      <trkpt lat="39.056355" lon="-0.214405">
        <ele>8.973</ele>
        <time>2020-02-08T07:16:05.802Z</time>
      </trkpt>
      <trkpt lat="39.05641833" lon="-0.21448833">
        <ele>8.973</ele>
        <time>2020-02-08T07:16:06.802Z</time>
      </trkpt>
      <trkpt lat="39.05641833" lon="-0.21448833">
        <ele>8.973</ele>
        <time>2020-02-08T07:16:07.802Z</time>
      </trkpt>
      <trkpt lat="39.05648667" lon="-0.21457167">
        <ele>8.973</ele>
        <time>2020-02-08T07:16:08.802Z</time>
      </trkpt>
      <trkpt lat="39.05648667" lon="-0.21457167">
        <ele>8.973</ele>
        <time>2020-02-08T07:16:09.802Z</time>
      </trkpt>
      <trkpt lat="39.056555" lon="-0.21465667">
        <ele>8.973</ele>
        <time>2020-02-08T07:16:10.802Z</time>
      </trkpt>
      <trkpt lat="39.056555" lon="-0.21465667">
        <ele>8.973</ele>
        <time>2020-02-08T07:16:11.802Z</time>
      </trkpt>
      <trkpt lat="39.05662167" lon="-0.214745">
        <ele>8.973</ele>
        <time>2020-02-08T07:16:12.802Z</time>
      </trkpt>
      <trkpt lat="39.05662167" lon="-0.214745">
        <ele>8.973</ele>
        <time>2020-02-08T07:16:13.802Z</time>
      </trkpt>
      <trkpt lat="39.05669167" lon="-0.21483">
        <ele>8.973</ele>
        <time>2020-02-08T07:16:14.802Z</time>
      </trkpt>
      <trkpt lat="39.05669167" lon="-0.21483">
        <ele>8.973</ele>
        <time>2020-02-08T07:16:15.802Z</time>
      </trkpt>
      <trkpt lat="39.05676667" lon="-0.21490833">
        <ele>8.973</ele>
        <time>2020-02-08T07:16:16.802Z</time>
      </trkpt>
      <trkpt lat="39.05676667" lon="-0.21490833">
        <ele>8.973</ele>
        <time>2020-02-08T07:16:17.802Z</time>
      </trkpt>
      <trkpt lat="39.05683833" lon="-0.214985">
        <ele>8.973</ele>
        <time>2020-02-08T07:16:18.802Z</time>
      </trkpt>
      <trkpt lat="39.05683833" lon="-0.214985">
        <ele>8.973</ele>
        <time>2020-02-08T07:16:19.802Z</time>
      </trkpt>
      <trkpt lat="39.05691167" lon="-0.21505167">
        <ele>8.973</ele>
        <time>2020-02-08T07:16:20.802Z</time>
      </trkpt>
      <trkpt lat="39.05691167" lon="-0.21505167">
        <ele>8.973</ele>
        <time>2020-02-08T07:16:21.802Z</time>
      </trkpt>
      <trkpt lat="39.05699" lon="-0.21511167">
        <ele>8.973</ele>
        <time>2020-02-08T07:16:22.802Z</time>
      </trkpt>
      <trkpt lat="39.05699" lon="-0.21511167">
        <ele>8.973</ele>
        <time>2020-02-08T07:16:23.802Z</time>
      </trkpt>
      <trkpt lat="39.05706667" lon="-0.21517">
        <ele>8.973</ele>
        <time>2020-02-08T07:16:24.802Z</time>
      </trkpt>
      <trkpt lat="39.05706667" lon="-0.21517">
        <ele>8.973</ele>
        <time>2020-02-08T07:16:25.802Z</time>
      </trkpt>
      <trkpt lat="39.05714833" lon="-0.215225">
        <ele>8.973</ele>
        <time>2020-02-08T07:16:26.802Z</time>
      </trkpt>
      <trkpt lat="39.05714833" lon="-0.215225">
        <ele>8.973</ele>
        <time>2020-02-08T07:16:27.802Z</time>
      </trkpt>
      <trkpt lat="39.05723167" lon="-0.21527167">
        <ele>8.973</ele>
        <time>2020-02-08T07:16:28.802Z</time>
      </trkpt>
      <trkpt lat="39.05723167" lon="-0.21527167">
        <ele>8.973</ele>
        <time>2020-02-08T07:16:29.802Z</time>
      </trkpt>
      <trkpt lat="39.057315" lon="-0.21532667">
        <ele>8.973</ele>
        <time>2020-02-08T07:16:30.802Z</time>
      </trkpt>
      <trkpt lat="39.05735667" lon="-0.21535167">
        <ele>8.973</ele>
        <time>2020-02-08T07:16:31.802Z</time>
      </trkpt>
      <trkpt lat="39.05735667" lon="-0.21535167">
        <ele>8.973</ele>
        <time>2020-02-08T07:16:32.802Z</time>
      </trkpt>
      <trkpt lat="39.05744667" lon="-0.21540333">
        <ele>8.973</ele>
        <time>2020-02-08T07:16:33.802Z</time>
      </trkpt>
      <trkpt lat="39.05744667" lon="-0.21540333">
        <ele>8.973</ele>
        <time>2020-02-08T07:16:34.802Z</time>
      </trkpt>
      <trkpt lat="39.05753333" lon="-0.21546167">
        <ele>8.973</ele>
        <time>2020-02-08T07:16:35.802Z</time>
      </trkpt>
      <trkpt lat="39.05753333" lon="-0.21546167">
        <ele>8.973</ele>
        <time>2020-02-08T07:16:36.802Z</time>
      </trkpt>
      <trkpt lat="39.05761833" lon="-0.21551667">
        <ele>8.973</ele>
        <time>2020-02-08T07:16:37.802Z</time>
      </trkpt>
      <trkpt lat="39.05766" lon="-0.215545">
        <ele>8.973</ele>
        <time>2020-02-08T07:16:38.802Z</time>
      </trkpt>
      <trkpt lat="39.05766" lon="-0.215545">
        <ele>8.973</ele>
        <time>2020-02-08T07:16:39.802Z</time>
      </trkpt>
      <trkpt lat="39.05774667" lon="-0.2156">
        <ele>8.973</ele>
        <time>2020-02-08T07:16:40.802Z</time>
      </trkpt>
      <trkpt lat="39.05774667" lon="-0.2156">
        <ele>8.973</ele>
        <time>2020-02-08T07:16:41.802Z</time>
      </trkpt>
      <trkpt lat="39.05783667" lon="-0.215655">
        <ele>8.973</ele>
        <time>2020-02-08T07:16:42.802Z</time>
      </trkpt>
      <trkpt lat="39.05783667" lon="-0.215655">
        <ele>8.973</ele>
        <time>2020-02-08T07:16:43.802Z</time>
      </trkpt>
      <trkpt lat="39.057925" lon="-0.21571333">
        <ele>8.973</ele>
        <time>2020-02-08T07:16:44.802Z</time>
      </trkpt>
      <trkpt lat="39.057925" lon="-0.21571333">
        <ele>8.973</ele>
        <time>2020-02-08T07:16:45.802Z</time>
      </trkpt>
      <trkpt lat="39.05801333" lon="-0.21577167">
        <ele>8.973</ele>
        <time>2020-02-08T07:16:46.802Z</time>
      </trkpt>
      <trkpt lat="39.05801333" lon="-0.21577167">
        <ele>8.973</ele>
        <time>2020-02-08T07:16:47.802Z</time>
      </trkpt>
      <trkpt lat="39.05809833" lon="-0.21583">
        <ele>8.973</ele>
        <time>2020-02-08T07:16:48.802Z</time>
      </trkpt>
      <trkpt lat="39.05809833" lon="-0.21583">
        <ele>8.973</ele>
        <time>2020-02-08T07:16:49.802Z</time>
      </trkpt>
      <trkpt lat="39.05819167" lon="-0.21588833">
        <ele>8.973</ele>
        <time>2020-02-08T07:16:50.802Z</time>
      </trkpt>
      <trkpt lat="39.05819167" lon="-0.21588833">
        <ele>8.973</ele>
        <time>2020-02-08T07:16:51.802Z</time>
      </trkpt>
      <trkpt lat="39.05828833" lon="-0.21595333">
        <ele>8.973</ele>
        <time>2020-02-08T07:16:52.802Z</time>
      </trkpt>
      <trkpt lat="39.05828833" lon="-0.21595333">
        <ele>8.973</ele>
        <time>2020-02-08T07:16:53.802Z</time>
      </trkpt>
      <trkpt lat="39.05838333" lon="-0.21601667">
        <ele>8.973</ele>
        <time>2020-02-08T07:16:54.802Z</time>
      </trkpt>
      <trkpt lat="39.05838333" lon="-0.21601667">
        <ele>8.973</ele>
        <time>2020-02-08T07:16:55.802Z</time>
      </trkpt>
      <trkpt lat="39.058475" lon="-0.21608333">
        <ele>8.973</ele>
        <time>2020-02-08T07:16:56.802Z</time>
      </trkpt>
      <trkpt lat="39.058475" lon="-0.21608333">
        <ele>8.973</ele>
        <time>2020-02-08T07:16:57.802Z</time>
      </trkpt>
      <trkpt lat="39.05856833" lon="-0.216145">
        <ele>8.973</ele>
        <time>2020-02-08T07:16:58.802Z</time>
      </trkpt>
      <trkpt lat="39.05856833" lon="-0.216145">
        <ele>8.973</ele>
        <time>2020-02-08T07:16:59.802Z</time>
      </trkpt>
      <trkpt lat="39.05865833" lon="-0.21620667">
        <ele>8.973</ele>
        <time>2020-02-08T07:17:00.802Z</time>
      </trkpt>
      <trkpt lat="39.05865833" lon="-0.21620667">
        <ele>8.973</ele>
        <time>2020-02-08T07:17:01.802Z</time>
      </trkpt>
      <trkpt lat="39.05874833" lon="-0.21627">
        <ele>8.973</ele>
        <time>2020-02-08T07:17:02.802Z</time>
      </trkpt>
      <trkpt lat="39.05874833" lon="-0.21627">
        <ele>8.973</ele>
        <time>2020-02-08T07:17:03.802Z</time>
      </trkpt>
      <trkpt lat="39.05884667" lon="-0.21632167">
        <ele>8.973</ele>
        <time>2020-02-08T07:17:04.802Z</time>
      </trkpt>
      <trkpt lat="39.05884667" lon="-0.21632167">
        <ele>8.973</ele>
        <time>2020-02-08T07:17:05.802Z</time>
      </trkpt>
      <trkpt lat="39.05893833" lon="-0.21638">
        <ele>8.973</ele>
        <time>2020-02-08T07:17:06.802Z</time>
      </trkpt>
      <trkpt lat="39.05893833" lon="-0.21638">
        <ele>8.973</ele>
        <time>2020-02-08T07:17:07.802Z</time>
      </trkpt>
      <trkpt lat="39.05902833" lon="-0.21644">
        <ele>8.973</ele>
        <time>2020-02-08T07:17:08.802Z</time>
      </trkpt>
      <trkpt lat="39.05907167" lon="-0.21647">
        <ele>8.973</ele>
        <time>2020-02-08T07:17:09.802Z</time>
      </trkpt>
      <trkpt lat="39.05907167" lon="-0.21647">
        <ele>8.973</ele>
        <time>2020-02-08T07:17:10.802Z</time>
      </trkpt>
      <trkpt lat="39.05915833" lon="-0.21653167">
        <ele>8.973</ele>
        <time>2020-02-08T07:17:11.802Z</time>
      </trkpt>
      <trkpt lat="39.0592" lon="-0.21656167">
        <ele>8.973</ele>
        <time>2020-02-08T07:17:12.802Z</time>
      </trkpt>
      <trkpt lat="39.0592" lon="-0.21656167">
        <ele>8.973</ele>
        <time>2020-02-08T07:17:13.802Z</time>
      </trkpt>
      <trkpt lat="39.05928667" lon="-0.21662">
        <ele>8.973</ele>
        <time>2020-02-08T07:17:14.802Z</time>
      </trkpt>
      <trkpt lat="39.05928667" lon="-0.21662">
        <ele>8.973</ele>
        <time>2020-02-08T07:17:15.802Z</time>
      </trkpt>
      <trkpt lat="39.05937333" lon="-0.21668">
        <ele>8.973</ele>
        <time>2020-02-08T07:17:16.802Z</time>
      </trkpt>
      <trkpt lat="39.05937333" lon="-0.21668">
        <ele>8.973</ele>
        <time>2020-02-08T07:17:17.802Z</time>
      </trkpt>
      <trkpt lat="39.05945667" lon="-0.21674333">
        <ele>8.973</ele>
        <time>2020-02-08T07:17:18.802Z</time>
      </trkpt>
      <trkpt lat="39.05945667" lon="-0.21674333">
        <ele>8.973</ele>
        <time>2020-02-08T07:17:19.802Z</time>
      </trkpt>
      <trkpt lat="39.05954167" lon="-0.21680667">
        <ele>8.973</ele>
        <time>2020-02-08T07:17:20.802Z</time>
      </trkpt>
      <trkpt lat="39.05954167" lon="-0.21680667">
        <ele>8.973</ele>
        <time>2020-02-08T07:17:21.802Z</time>
      </trkpt>
      <trkpt lat="39.059625" lon="-0.21687167">
        <ele>8.973</ele>
        <time>2020-02-08T07:17:22.802Z</time>
      </trkpt>
      <trkpt lat="39.059625" lon="-0.21687167">
        <ele>8.973</ele>
        <time>2020-02-08T07:17:23.802Z</time>
      </trkpt>
      <trkpt lat="39.05970833" lon="-0.21693833">
        <ele>8.973</ele>
        <time>2020-02-08T07:17:24.802Z</time>
      </trkpt>
      <trkpt lat="39.05970833" lon="-0.21693833">
        <ele>8.973</ele>
        <time>2020-02-08T07:17:25.802Z</time>
      </trkpt>
      <trkpt lat="39.05979167" lon="-0.217005">
        <ele>8.973</ele>
        <time>2020-02-08T07:17:26.802Z</time>
      </trkpt>
      <trkpt lat="39.05979167" lon="-0.217005">
        <ele>8.973</ele>
        <time>2020-02-08T07:17:27.802Z</time>
      </trkpt>
      <trkpt lat="39.05987167" lon="-0.21708333">
        <ele>8.973</ele>
        <time>2020-02-08T07:17:28.802Z</time>
      </trkpt>
      <trkpt lat="39.05987167" lon="-0.21708333">
        <ele>8.973</ele>
        <time>2020-02-08T07:17:29.802Z</time>
      </trkpt>
      <trkpt lat="39.05995" lon="-0.21717333">
        <ele>8.973</ele>
        <time>2020-02-08T07:17:30.802Z</time>
      </trkpt>
      <trkpt lat="39.05995" lon="-0.21717333">
        <ele>8.973</ele>
        <time>2020-02-08T07:17:31.802Z</time>
      </trkpt>
      <trkpt lat="39.06002833" lon="-0.21726333">
        <ele>8.973</ele>
        <time>2020-02-08T07:17:32.802Z</time>
      </trkpt>
      <trkpt lat="39.06002833" lon="-0.21726333">
        <ele>8.973</ele>
        <time>2020-02-08T07:17:33.802Z</time>
      </trkpt>
      <trkpt lat="39.06010833" lon="-0.21735667">
        <ele>8.973</ele>
        <time>2020-02-08T07:17:34.802Z</time>
      </trkpt>
      <trkpt lat="39.06010833" lon="-0.21735667">
        <ele>8.973</ele>
        <time>2020-02-08T07:17:35.802Z</time>
      </trkpt>
      <trkpt lat="39.06018667" lon="-0.21745833">
        <ele>8.973</ele>
        <time>2020-02-08T07:17:36.802Z</time>
      </trkpt>
      <trkpt lat="39.060225" lon="-0.21750833">
        <ele>8.973</ele>
        <time>2020-02-08T07:17:37.802Z</time>
      </trkpt>
      <trkpt lat="39.060265" lon="-0.21756167">
        <ele>8.973</ele>
        <time>2020-02-08T07:17:38.802Z</time>
      </trkpt>
      <trkpt lat="39.060265" lon="-0.21756167">
        <ele>8.973</ele>
        <time>2020-02-08T07:17:39.802Z</time>
      </trkpt>
      <trkpt lat="39.06034333" lon="-0.21766333">
        <ele>8.973</ele>
        <time>2020-02-08T07:17:40.802Z</time>
      </trkpt>
      <trkpt lat="39.06034333" lon="-0.21766333">
        <ele>8.973</ele>
        <time>2020-02-08T07:17:41.802Z</time>
      </trkpt>
      <trkpt lat="39.06041833" lon="-0.21776667">
        <ele>8.973</ele>
        <time>2020-02-08T07:17:42.802Z</time>
      </trkpt>
      <trkpt lat="39.06041833" lon="-0.21776667">
        <ele>8.973</ele>
        <time>2020-02-08T07:17:43.802Z</time>
      </trkpt>
      <trkpt lat="39.06048" lon="-0.217875">
        <ele>8.973</ele>
        <time>2020-02-08T07:17:44.802Z</time>
      </trkpt>
      <trkpt lat="39.06048" lon="-0.217875">
        <ele>8.973</ele>
        <time>2020-02-08T07:17:45.802Z</time>
      </trkpt>
      <trkpt lat="39.06053333" lon="-0.21799">
        <ele>8.973</ele>
        <time>2020-02-08T07:17:46.802Z</time>
      </trkpt>
      <trkpt lat="39.060555" lon="-0.21805167">
        <ele>8.973</ele>
        <time>2020-02-08T07:17:47.802Z</time>
      </trkpt>
      <trkpt lat="39.06057" lon="-0.218115">
        <ele>8.973</ele>
        <time>2020-02-08T07:17:48.802Z</time>
      </trkpt>
      <trkpt lat="39.06057" lon="-0.218115">
        <ele>8.973</ele>
        <time>2020-02-08T07:17:49.802Z</time>
      </trkpt>
      <trkpt lat="39.06059833" lon="-0.21824">
        <ele>8.973</ele>
        <time>2020-02-08T07:17:50.802Z</time>
      </trkpt>
      <trkpt lat="39.06059833" lon="-0.21824">
        <ele>8.973</ele>
        <time>2020-02-08T07:17:51.802Z</time>
      </trkpt>
      <trkpt lat="39.06063667" lon="-0.21834667">
        <ele>8.973</ele>
        <time>2020-02-08T07:17:52.802Z</time>
      </trkpt>
      <trkpt lat="39.06063667" lon="-0.21834667">
        <ele>8.973</ele>
        <time>2020-02-08T07:17:53.802Z</time>
      </trkpt>
      <trkpt lat="39.06069167" lon="-0.21839667">
        <ele>8.973</ele>
        <time>2020-02-08T07:17:54.802Z</time>
      </trkpt>
      <trkpt lat="39.06069167" lon="-0.21839667">
        <ele>8.973</ele>
        <time>2020-02-08T07:17:55.802Z</time>
      </trkpt>
      <trkpt lat="39.06073333" lon="-0.21839">
        <ele>8.973</ele>
        <time>2020-02-08T07:17:56.802Z</time>
      </trkpt>
      <trkpt lat="39.06075167" lon="-0.21838833">
        <ele>8.973</ele>
        <time>2020-02-08T07:17:57.802Z</time>
      </trkpt>
      <trkpt lat="39.06075167" lon="-0.21838833">
        <ele>8.973</ele>
        <time>2020-02-08T07:17:58.802Z</time>
      </trkpt>
      <trkpt lat="39.060805" lon="-0.21842667">
        <ele>8.973</ele>
        <time>2020-02-08T07:17:59.802Z</time>
      </trkpt>
      <trkpt lat="39.060815" lon="-0.21847333">
        <ele>8.973</ele>
        <time>2020-02-08T07:18:00.802Z</time>
      </trkpt>
      <trkpt lat="39.060815" lon="-0.21847333">
        <ele>8.973</ele>
        <time>2020-02-08T07:18:01.802Z</time>
      </trkpt>
      <trkpt lat="39.06082167" lon="-0.21859">
        <ele>8.973</ele>
        <time>2020-02-08T07:18:02.802Z</time>
      </trkpt>
      <trkpt lat="39.06082167" lon="-0.21859">
        <ele>8.973</ele>
        <time>2020-02-08T07:18:03.802Z</time>
      </trkpt>
      <trkpt lat="39.060825" lon="-0.21871167">
        <ele>8.973</ele>
        <time>2020-02-08T07:18:04.802Z</time>
      </trkpt>
      <trkpt lat="39.060825" lon="-0.21871167">
        <ele>8.973</ele>
        <time>2020-02-08T07:18:05.802Z</time>
      </trkpt>
      <trkpt lat="39.06083833" lon="-0.21884333">
        <ele>8.973</ele>
        <time>2020-02-08T07:18:06.802Z</time>
      </trkpt>
      <trkpt lat="39.06083833" lon="-0.21884333">
        <ele>8.973</ele>
        <time>2020-02-08T07:18:07.802Z</time>
      </trkpt>
      <trkpt lat="39.06084667" lon="-0.21898333">
        <ele>8.973</ele>
        <time>2020-02-08T07:18:08.802Z</time>
      </trkpt>
      <trkpt lat="39.06084667" lon="-0.21898333">
        <ele>8.973</ele>
        <time>2020-02-08T07:18:09.802Z</time>
      </trkpt>
      <trkpt lat="39.060855" lon="-0.21911">
        <ele>8.973</ele>
        <time>2020-02-08T07:18:10.802Z</time>
      </trkpt>
      <trkpt lat="39.06086" lon="-0.219175">
        <ele>8.973</ele>
        <time>2020-02-08T07:18:11.802Z</time>
      </trkpt>
      <trkpt lat="39.06086333" lon="-0.21924">
        <ele>8.973</ele>
        <time>2020-02-08T07:18:12.802Z</time>
      </trkpt>
      <trkpt lat="39.06086333" lon="-0.21924">
        <ele>8.973</ele>
        <time>2020-02-08T07:18:13.802Z</time>
      </trkpt>
      <trkpt lat="39.06087" lon="-0.21937">
        <ele>8.973</ele>
        <time>2020-02-08T07:18:14.802Z</time>
      </trkpt>
      <trkpt lat="39.06087" lon="-0.21937">
        <ele>8.973</ele>
        <time>2020-02-08T07:18:15.802Z</time>
      </trkpt>
      <trkpt lat="39.06088167" lon="-0.21949833">
        <ele>8.973</ele>
        <time>2020-02-08T07:18:16.802Z</time>
      </trkpt>
      <trkpt lat="39.06088667" lon="-0.21956333">
        <ele>8.973</ele>
        <time>2020-02-08T07:18:17.802Z</time>
      </trkpt>
      <trkpt lat="39.06089" lon="-0.21962667">
        <ele>8.973</ele>
        <time>2020-02-08T07:18:18.802Z</time>
      </trkpt>
      <trkpt lat="39.06089" lon="-0.21962667">
        <ele>8.973</ele>
        <time>2020-02-08T07:18:19.802Z</time>
      </trkpt>
      <trkpt lat="39.06090167" lon="-0.21975667">
        <ele>8.973</ele>
        <time>2020-02-08T07:18:20.802Z</time>
      </trkpt>
      <trkpt lat="39.06090667" lon="-0.21982167">
        <ele>8.973</ele>
        <time>2020-02-08T07:18:21.802Z</time>
      </trkpt>
      <trkpt lat="39.06090667" lon="-0.21982167">
        <ele>8.973</ele>
        <time>2020-02-08T07:18:22.802Z</time>
      </trkpt>
      <trkpt lat="39.06091667" lon="-0.21995167">
        <ele>8.973</ele>
        <time>2020-02-08T07:18:23.802Z</time>
      </trkpt>
      <trkpt lat="39.06092333" lon="-0.22002">
        <ele>8.973</ele>
        <time>2020-02-08T07:18:24.802Z</time>
      </trkpt>
      <trkpt lat="39.06092333" lon="-0.22002">
        <ele>8.973</ele>
        <time>2020-02-08T07:18:25.802Z</time>
      </trkpt>
      <trkpt lat="39.06093667" lon="-0.22015167">
        <ele>8.973</ele>
        <time>2020-02-08T07:18:26.802Z</time>
      </trkpt>
      <trkpt lat="39.06093667" lon="-0.22015167">
        <ele>8.973</ele>
        <time>2020-02-08T07:18:27.802Z</time>
      </trkpt>
      <trkpt lat="39.06094667" lon="-0.22027667">
        <ele>8.973</ele>
        <time>2020-02-08T07:18:28.802Z</time>
      </trkpt>
      <trkpt lat="39.06095167" lon="-0.22033833">
        <ele>8.973</ele>
        <time>2020-02-08T07:18:29.802Z</time>
      </trkpt>
      <trkpt lat="39.06095833" lon="-0.22040333">
        <ele>8.973</ele>
        <time>2020-02-08T07:18:30.802Z</time>
      </trkpt>
      <trkpt lat="39.06095833" lon="-0.22040333">
        <ele>8.973</ele>
        <time>2020-02-08T07:18:31.802Z</time>
      </trkpt>
      <trkpt lat="39.06096833" lon="-0.22053333">
        <ele>8.973</ele>
        <time>2020-02-08T07:18:32.802Z</time>
      </trkpt>
      <trkpt lat="39.06096833" lon="-0.22053333">
        <ele>8.973</ele>
        <time>2020-02-08T07:18:33.802Z</time>
      </trkpt>
      <trkpt lat="39.06098" lon="-0.220665">
        <ele>8.973</ele>
        <time>2020-02-08T07:18:34.802Z</time>
      </trkpt>
      <trkpt lat="39.06098" lon="-0.220665">
        <ele>8.973</ele>
        <time>2020-02-08T07:18:35.802Z</time>
      </trkpt>
      <trkpt lat="39.06099167" lon="-0.22079833">
        <ele>8.973</ele>
        <time>2020-02-08T07:18:36.802Z</time>
      </trkpt>
      <trkpt lat="39.06099167" lon="-0.22079833">
        <ele>8.973</ele>
        <time>2020-02-08T07:18:37.802Z</time>
      </trkpt>
      <trkpt lat="39.06100333" lon="-0.22093">
        <ele>8.973</ele>
        <time>2020-02-08T07:18:38.802Z</time>
      </trkpt>
      <trkpt lat="39.06100333" lon="-0.22093">
        <ele>8.973</ele>
        <time>2020-02-08T07:18:39.802Z</time>
      </trkpt>
      <trkpt lat="39.06101333" lon="-0.22106333">
        <ele>8.973</ele>
        <time>2020-02-08T07:18:40.802Z</time>
      </trkpt>
      <trkpt lat="39.06101333" lon="-0.22106333">
        <ele>8.973</ele>
        <time>2020-02-08T07:18:41.802Z</time>
      </trkpt>
      <trkpt lat="39.06102667" lon="-0.2212">
        <ele>8.973</ele>
        <time>2020-02-08T07:18:42.802Z</time>
      </trkpt>
      <trkpt lat="39.06102667" lon="-0.2212">
        <ele>8.973</ele>
        <time>2020-02-08T07:18:43.802Z</time>
      </trkpt>
      <trkpt lat="39.06104" lon="-0.221335">
        <ele>8.973</ele>
        <time>2020-02-08T07:18:44.802Z</time>
      </trkpt>
      <trkpt lat="39.06104" lon="-0.221335">
        <ele>8.973</ele>
        <time>2020-02-08T07:18:45.802Z</time>
      </trkpt>
      <trkpt lat="39.06105167" lon="-0.22147167">
        <ele>8.973</ele>
        <time>2020-02-08T07:18:46.802Z</time>
      </trkpt>
      <trkpt lat="39.06105167" lon="-0.22147167">
        <ele>8.973</ele>
        <time>2020-02-08T07:18:47.802Z</time>
      </trkpt>
      <trkpt lat="39.061065" lon="-0.22161167">
        <ele>8.973</ele>
        <time>2020-02-08T07:18:48.802Z</time>
      </trkpt>
      <trkpt lat="39.061065" lon="-0.22161167">
        <ele>8.973</ele>
        <time>2020-02-08T07:18:49.802Z</time>
      </trkpt>
      <trkpt lat="39.06107667" lon="-0.22174667">
        <ele>8.973</ele>
        <time>2020-02-08T07:18:50.802Z</time>
      </trkpt>
      <trkpt lat="39.06107667" lon="-0.22174667">
        <ele>8.973</ele>
        <time>2020-02-08T07:18:51.802Z</time>
      </trkpt>
      <trkpt lat="39.06109167" lon="-0.22188167">
        <ele>8.973</ele>
        <time>2020-02-08T07:18:52.802Z</time>
      </trkpt>
      <trkpt lat="39.06109167" lon="-0.22188167">
        <ele>8.973</ele>
        <time>2020-02-08T07:18:53.802Z</time>
      </trkpt>
      <trkpt lat="39.06110833" lon="-0.22201833">
        <ele>8.973</ele>
        <time>2020-02-08T07:18:54.802Z</time>
      </trkpt>
      <trkpt lat="39.06110833" lon="-0.22201833">
        <ele>8.973</ele>
        <time>2020-02-08T07:18:55.802Z</time>
      </trkpt>
      <trkpt lat="39.06112333" lon="-0.222155">
        <ele>8.973</ele>
        <time>2020-02-08T07:18:56.802Z</time>
      </trkpt>
      <trkpt lat="39.06112333" lon="-0.222155">
        <ele>8.973</ele>
        <time>2020-02-08T07:18:57.802Z</time>
      </trkpt>
      <trkpt lat="39.06113833" lon="-0.22229">
        <ele>8.973</ele>
        <time>2020-02-08T07:18:58.802Z</time>
      </trkpt>
      <trkpt lat="39.06114667" lon="-0.22236">
        <ele>8.973</ele>
        <time>2020-02-08T07:18:59.802Z</time>
      </trkpt>
      <trkpt lat="39.06115667" lon="-0.22243">
        <ele>8.973</ele>
        <time>2020-02-08T07:19:00.802Z</time>
      </trkpt>
      <trkpt lat="39.06115667" lon="-0.22243">
        <ele>8.973</ele>
        <time>2020-02-08T07:19:01.802Z</time>
      </trkpt>
      <trkpt lat="39.06117167" lon="-0.22257">
        <ele>8.973</ele>
        <time>2020-02-08T07:19:02.802Z</time>
      </trkpt>
      <trkpt lat="39.06117167" lon="-0.22257">
        <ele>8.973</ele>
        <time>2020-02-08T07:19:03.802Z</time>
      </trkpt>
      <trkpt lat="39.06118667" lon="-0.22270667">
        <ele>8.973</ele>
        <time>2020-02-08T07:19:04.802Z</time>
      </trkpt>
      <trkpt lat="39.06118667" lon="-0.22270667">
        <ele>8.973</ele>
        <time>2020-02-08T07:19:05.802Z</time>
      </trkpt>
      <trkpt lat="39.06120333" lon="-0.22284333">
        <ele>8.973</ele>
        <time>2020-02-08T07:19:06.802Z</time>
      </trkpt>
      <trkpt lat="39.06120333" lon="-0.22284333">
        <ele>8.973</ele>
        <time>2020-02-08T07:19:07.802Z</time>
      </trkpt>
      <trkpt lat="39.06121667" lon="-0.22297667">
        <ele>8.973</ele>
        <time>2020-02-08T07:19:08.802Z</time>
      </trkpt>
      <trkpt lat="39.06121667" lon="-0.22297667">
        <ele>8.973</ele>
        <time>2020-02-08T07:19:09.802Z</time>
      </trkpt>
      <trkpt lat="39.06123333" lon="-0.22311333">
        <ele>8.973</ele>
        <time>2020-02-08T07:19:10.802Z</time>
      </trkpt>
      <trkpt lat="39.06124333" lon="-0.22318167">
        <ele>8.973</ele>
        <time>2020-02-08T07:19:11.802Z</time>
      </trkpt>
      <trkpt lat="39.06124333" lon="-0.22318167">
        <ele>8.973</ele>
        <time>2020-02-08T07:19:12.802Z</time>
      </trkpt>
      <trkpt lat="39.06126" lon="-0.22331833">
        <ele>8.973</ele>
        <time>2020-02-08T07:19:13.802Z</time>
      </trkpt>
      <trkpt lat="39.06126833" lon="-0.22338833">
        <ele>8.973</ele>
        <time>2020-02-08T07:19:14.802Z</time>
      </trkpt>
      <trkpt lat="39.06126833" lon="-0.22338833">
        <ele>8.973</ele>
        <time>2020-02-08T07:19:15.802Z</time>
      </trkpt>
      <trkpt lat="39.061285" lon="-0.22352833">
        <ele>8.973</ele>
        <time>2020-02-08T07:19:16.802Z</time>
      </trkpt>
      <trkpt lat="39.061285" lon="-0.22352833">
        <ele>8.973</ele>
        <time>2020-02-08T07:19:17.802Z</time>
      </trkpt>
      <trkpt lat="39.06130167" lon="-0.22366667">
        <ele>8.973</ele>
        <time>2020-02-08T07:19:18.802Z</time>
      </trkpt>
      <trkpt lat="39.06130833" lon="-0.22373667">
        <ele>8.973</ele>
        <time>2020-02-08T07:19:19.802Z</time>
      </trkpt>
      <trkpt lat="39.061315" lon="-0.223805">
        <ele>8.973</ele>
        <time>2020-02-08T07:19:20.802Z</time>
      </trkpt>
      <trkpt lat="39.061315" lon="-0.223805">
        <ele>8.973</ele>
        <time>2020-02-08T07:19:21.802Z</time>
      </trkpt>
      <trkpt lat="39.06132833" lon="-0.22394">
        <ele>8.973</ele>
        <time>2020-02-08T07:19:22.802Z</time>
      </trkpt>
      <trkpt lat="39.06132833" lon="-0.22394">
        <ele>8.973</ele>
        <time>2020-02-08T07:19:23.802Z</time>
      </trkpt>
      <trkpt lat="39.06134167" lon="-0.22407667">
        <ele>8.973</ele>
        <time>2020-02-08T07:19:24.802Z</time>
      </trkpt>
      <trkpt lat="39.06134167" lon="-0.22407667">
        <ele>8.973</ele>
        <time>2020-02-08T07:19:25.802Z</time>
      </trkpt>
      <trkpt lat="39.061355" lon="-0.224215">
        <ele>8.973</ele>
        <time>2020-02-08T07:19:26.802Z</time>
      </trkpt>
      <trkpt lat="39.061355" lon="-0.224215">
        <ele>8.973</ele>
        <time>2020-02-08T07:19:27.802Z</time>
      </trkpt>
      <trkpt lat="39.06136667" lon="-0.22435">
        <ele>8.973</ele>
        <time>2020-02-08T07:19:28.802Z</time>
      </trkpt>
      <trkpt lat="39.06137333" lon="-0.22441833">
        <ele>8.973</ele>
        <time>2020-02-08T07:19:29.802Z</time>
      </trkpt>
      <trkpt lat="39.06137833" lon="-0.22448667">
        <ele>8.973</ele>
        <time>2020-02-08T07:19:30.802Z</time>
      </trkpt>
      <trkpt lat="39.06137833" lon="-0.22448667">
        <ele>8.973</ele>
        <time>2020-02-08T07:19:31.802Z</time>
      </trkpt>
      <trkpt lat="39.06138667" lon="-0.22462167">
        <ele>8.973</ele>
        <time>2020-02-08T07:19:32.802Z</time>
      </trkpt>
      <trkpt lat="39.06138667" lon="-0.22462167">
        <ele>8.973</ele>
        <time>2020-02-08T07:19:33.802Z</time>
      </trkpt>
      <trkpt lat="39.06140167" lon="-0.22475667">
        <ele>8.973</ele>
        <time>2020-02-08T07:19:34.802Z</time>
      </trkpt>
      <trkpt lat="39.06140167" lon="-0.22475667">
        <ele>8.973</ele>
        <time>2020-02-08T07:19:35.802Z</time>
      </trkpt>
      <trkpt lat="39.06141667" lon="-0.22489333">
        <ele>8.973</ele>
        <time>2020-02-08T07:19:36.802Z</time>
      </trkpt>
      <trkpt lat="39.06141667" lon="-0.22489333">
        <ele>8.973</ele>
        <time>2020-02-08T07:19:37.802Z</time>
      </trkpt>
      <trkpt lat="39.06143333" lon="-0.22503667">
        <ele>8.973</ele>
        <time>2020-02-08T07:19:38.802Z</time>
      </trkpt>
      <trkpt lat="39.06143333" lon="-0.22503667">
        <ele>8.973</ele>
        <time>2020-02-08T07:19:39.802Z</time>
      </trkpt>
      <trkpt lat="39.06144667" lon="-0.22517333">
        <ele>8.973</ele>
        <time>2020-02-08T07:19:40.802Z</time>
      </trkpt>
      <trkpt lat="39.06144667" lon="-0.22517333">
        <ele>8.973</ele>
        <time>2020-02-08T07:19:41.802Z</time>
      </trkpt>
      <trkpt lat="39.06145833" lon="-0.22531">
        <ele>8.973</ele>
        <time>2020-02-08T07:19:42.802Z</time>
      </trkpt>
      <trkpt lat="39.06145833" lon="-0.22531">
        <ele>8.973</ele>
        <time>2020-02-08T07:19:43.802Z</time>
      </trkpt>
      <trkpt lat="39.06147" lon="-0.22544833">
        <ele>8.973</ele>
        <time>2020-02-08T07:19:44.802Z</time>
      </trkpt>
      <trkpt lat="39.06147" lon="-0.22544833">
        <ele>8.973</ele>
        <time>2020-02-08T07:19:45.802Z</time>
      </trkpt>
      <trkpt lat="39.06148333" lon="-0.22558667">
        <ele>8.973</ele>
        <time>2020-02-08T07:19:46.802Z</time>
      </trkpt>
      <trkpt lat="39.06148333" lon="-0.22558667">
        <ele>8.973</ele>
        <time>2020-02-08T07:19:47.802Z</time>
      </trkpt>
      <trkpt lat="39.0615" lon="-0.22573167">
        <ele>8.973</ele>
        <time>2020-02-08T07:19:48.802Z</time>
      </trkpt>
      <trkpt lat="39.061505" lon="-0.2258">
        <ele>8.973</ele>
        <time>2020-02-08T07:19:49.802Z</time>
      </trkpt>
      <trkpt lat="39.06151167" lon="-0.225865">
        <ele>8.973</ele>
        <time>2020-02-08T07:19:50.802Z</time>
      </trkpt>
      <trkpt lat="39.06151167" lon="-0.225865">
        <ele>8.973</ele>
        <time>2020-02-08T07:19:51.802Z</time>
      </trkpt>
      <trkpt lat="39.061525" lon="-0.226">
        <ele>8.973</ele>
        <time>2020-02-08T07:19:52.802Z</time>
      </trkpt>
      <trkpt lat="39.061525" lon="-0.226">
        <ele>8.973</ele>
        <time>2020-02-08T07:19:53.802Z</time>
      </trkpt>
      <trkpt lat="39.061535" lon="-0.22613167">
        <ele>8.973</ele>
        <time>2020-02-08T07:19:54.802Z</time>
      </trkpt>
      <trkpt lat="39.061535" lon="-0.22613167">
        <ele>8.973</ele>
        <time>2020-02-08T07:19:55.802Z</time>
      </trkpt>
      <trkpt lat="39.06155167" lon="-0.22626667">
        <ele>8.973</ele>
        <time>2020-02-08T07:19:56.802Z</time>
      </trkpt>
      <trkpt lat="39.06155167" lon="-0.22626667">
        <ele>8.973</ele>
        <time>2020-02-08T07:19:57.802Z</time>
      </trkpt>
      <trkpt lat="39.06157333" lon="-0.22640333">
        <ele>8.973</ele>
        <time>2020-02-08T07:19:58.802Z</time>
      </trkpt>
      <trkpt lat="39.06158333" lon="-0.22647167">
        <ele>8.973</ele>
        <time>2020-02-08T07:19:59.802Z</time>
      </trkpt>
      <trkpt lat="39.06158333" lon="-0.22647167">
        <ele>8.973</ele>
        <time>2020-02-08T07:20:00.802Z</time>
      </trkpt>
      <trkpt lat="39.0616" lon="-0.22661">
        <ele>8.973</ele>
        <time>2020-02-08T07:20:01.802Z</time>
      </trkpt>
      <trkpt lat="39.0616" lon="-0.22661">
        <ele>8.973</ele>
        <time>2020-02-08T07:20:02.802Z</time>
      </trkpt>
      <trkpt lat="39.06161333" lon="-0.22675167">
        <ele>8.973</ele>
        <time>2020-02-08T07:20:03.802Z</time>
      </trkpt>
      <trkpt lat="39.06161333" lon="-0.22675167">
        <ele>8.973</ele>
        <time>2020-02-08T07:20:04.802Z</time>
      </trkpt>
      <trkpt lat="39.06162667" lon="-0.22689167">
        <ele>8.973</ele>
        <time>2020-02-08T07:20:05.802Z</time>
      </trkpt>
      <trkpt lat="39.06163" lon="-0.22696">
        <ele>8.973</ele>
        <time>2020-02-08T07:20:06.802Z</time>
      </trkpt>
      <trkpt lat="39.06163" lon="-0.22696">
        <ele>8.973</ele>
        <time>2020-02-08T07:20:07.802Z</time>
      </trkpt>
      <trkpt lat="39.06163667" lon="-0.227095">
        <ele>7.973</ele>
        <time>2020-02-08T07:20:08.802Z</time>
      </trkpt>
      <trkpt lat="39.06163667" lon="-0.227095">
        <ele>7.973</ele>
        <time>2020-02-08T07:20:09.802Z</time>
      </trkpt>
      <trkpt lat="39.06164833" lon="-0.22722333">
        <ele>7.973</ele>
        <time>2020-02-08T07:20:10.802Z</time>
      </trkpt>
      <trkpt lat="39.06164833" lon="-0.22722333">
        <ele>7.973</ele>
        <time>2020-02-08T07:20:11.802Z</time>
      </trkpt>
      <trkpt lat="39.06166" lon="-0.22735333">
        <ele>7.973</ele>
        <time>2020-02-08T07:20:12.802Z</time>
      </trkpt>
      <trkpt lat="39.06166" lon="-0.22735333">
        <ele>7.973</ele>
        <time>2020-02-08T07:20:13.802Z</time>
      </trkpt>
      <trkpt lat="39.06167" lon="-0.22748167">
        <ele>7.973</ele>
        <time>2020-02-08T07:20:14.802Z</time>
      </trkpt>
      <trkpt lat="39.06167" lon="-0.22748167">
        <ele>7.973</ele>
        <time>2020-02-08T07:20:15.802Z</time>
      </trkpt>
      <trkpt lat="39.06168" lon="-0.22761">
        <ele>7.973</ele>
        <time>2020-02-08T07:20:16.802Z</time>
      </trkpt>
      <trkpt lat="39.06168" lon="-0.22761">
        <ele>7.973</ele>
        <time>2020-02-08T07:20:17.802Z</time>
      </trkpt>
      <trkpt lat="39.06169" lon="-0.22773667">
        <ele>7.973</ele>
        <time>2020-02-08T07:20:18.802Z</time>
      </trkpt>
      <trkpt lat="39.06169667" lon="-0.22780333">
        <ele>7.973</ele>
        <time>2020-02-08T07:20:19.802Z</time>
      </trkpt>
      <trkpt lat="39.061705" lon="-0.22787">
        <ele>7.973</ele>
        <time>2020-02-08T07:20:20.802Z</time>
      </trkpt>
      <trkpt lat="39.061705" lon="-0.22787">
        <ele>7.973</ele>
        <time>2020-02-08T07:20:21.802Z</time>
      </trkpt>
      <trkpt lat="39.06172833" lon="-0.22800667">
        <ele>7.973</ele>
        <time>2020-02-08T07:20:22.802Z</time>
      </trkpt>
      <trkpt lat="39.06172833" lon="-0.22800667">
        <ele>7.973</ele>
        <time>2020-02-08T07:20:23.802Z</time>
      </trkpt>
      <trkpt lat="39.061755" lon="-0.22814333">
        <ele>7.973</ele>
        <time>2020-02-08T07:20:24.802Z</time>
      </trkpt>
      <trkpt lat="39.061755" lon="-0.22814333">
        <ele>7.973</ele>
        <time>2020-02-08T07:20:25.802Z</time>
      </trkpt>
      <trkpt lat="39.06178" lon="-0.22828167">
        <ele>7.973</ele>
        <time>2020-02-08T07:20:26.802Z</time>
      </trkpt>
      <trkpt lat="39.06178" lon="-0.22828167">
        <ele>7.973</ele>
        <time>2020-02-08T07:20:27.802Z</time>
      </trkpt>
      <trkpt lat="39.06180333" lon="-0.22842167">
        <ele>7.973</ele>
        <time>2020-02-08T07:20:28.802Z</time>
      </trkpt>
      <trkpt lat="39.06181667" lon="-0.22849333">
        <ele>7.973</ele>
        <time>2020-02-08T07:20:29.802Z</time>
      </trkpt>
      <trkpt lat="39.06182667" lon="-0.228565">
        <ele>7.973</ele>
        <time>2020-02-08T07:20:30.802Z</time>
      </trkpt>
      <trkpt lat="39.06182667" lon="-0.228565">
        <ele>7.973</ele>
        <time>2020-02-08T07:20:31.802Z</time>
      </trkpt>
      <trkpt lat="39.06183833" lon="-0.22871167">
        <ele>7.973</ele>
        <time>2020-02-08T07:20:32.802Z</time>
      </trkpt>
      <trkpt lat="39.06183833" lon="-0.22871167">
        <ele>7.973</ele>
        <time>2020-02-08T07:20:33.802Z</time>
      </trkpt>
      <trkpt lat="39.061845" lon="-0.22885333">
        <ele>7.973</ele>
        <time>2020-02-08T07:20:34.802Z</time>
      </trkpt>
      <trkpt lat="39.061845" lon="-0.22885333">
        <ele>7.973</ele>
        <time>2020-02-08T07:20:35.802Z</time>
      </trkpt>
      <trkpt lat="39.06185167" lon="-0.228995">
        <ele>7.973</ele>
        <time>2020-02-08T07:20:36.802Z</time>
      </trkpt>
      <trkpt lat="39.06185167" lon="-0.228995">
        <ele>7.973</ele>
        <time>2020-02-08T07:20:37.802Z</time>
      </trkpt>
      <trkpt lat="39.06186167" lon="-0.229135">
        <ele>7.973</ele>
        <time>2020-02-08T07:20:38.802Z</time>
      </trkpt>
      <trkpt lat="39.06186833" lon="-0.22920333">
        <ele>7.973</ele>
        <time>2020-02-08T07:20:39.802Z</time>
      </trkpt>
      <trkpt lat="39.06187333" lon="-0.22926667">
        <ele>7.973</ele>
        <time>2020-02-08T07:20:40.802Z</time>
      </trkpt>
      <trkpt lat="39.06187333" lon="-0.22926667">
        <ele>7.973</ele>
        <time>2020-02-08T07:20:41.802Z</time>
      </trkpt>
      <trkpt lat="39.061885" lon="-0.22938833">
        <ele>7.973</ele>
        <time>2020-02-08T07:20:42.802Z</time>
      </trkpt>
      <trkpt lat="39.061885" lon="-0.22938833">
        <ele>7.973</ele>
        <time>2020-02-08T07:20:43.802Z</time>
      </trkpt>
      <trkpt lat="39.06189833" lon="-0.22952167">
        <ele>7.973</ele>
        <time>2020-02-08T07:20:44.802Z</time>
      </trkpt>
      <trkpt lat="39.06189833" lon="-0.22952167">
        <ele>7.973</ele>
        <time>2020-02-08T07:20:45.802Z</time>
      </trkpt>
      <trkpt lat="39.061915" lon="-0.22965833">
        <ele>7.973</ele>
        <time>2020-02-08T07:20:46.802Z</time>
      </trkpt>
      <trkpt lat="39.061915" lon="-0.22965833">
        <ele>7.973</ele>
        <time>2020-02-08T07:20:47.802Z</time>
      </trkpt>
      <trkpt lat="39.061935" lon="-0.22979833">
        <ele>7.973</ele>
        <time>2020-02-08T07:20:48.802Z</time>
      </trkpt>
      <trkpt lat="39.06194333" lon="-0.22986667">
        <ele>7.973</ele>
        <time>2020-02-08T07:20:49.802Z</time>
      </trkpt>
      <trkpt lat="39.061955" lon="-0.22993667">
        <ele>7.973</ele>
        <time>2020-02-08T07:20:50.802Z</time>
      </trkpt>
      <trkpt lat="39.061955" lon="-0.22993667">
        <ele>7.973</ele>
        <time>2020-02-08T07:20:51.802Z</time>
      </trkpt>
      <trkpt lat="39.06199167" lon="-0.23007833">
        <ele>7.973</ele>
        <time>2020-02-08T07:20:52.802Z</time>
      </trkpt>
      <trkpt lat="39.06199167" lon="-0.23007833">
        <ele>7.973</ele>
        <time>2020-02-08T07:20:53.802Z</time>
      </trkpt>
      <trkpt lat="39.06204333" lon="-0.23021333">
        <ele>7.973</ele>
        <time>2020-02-08T07:20:54.802Z</time>
      </trkpt>
      <trkpt lat="39.06204333" lon="-0.23021333">
        <ele>7.973</ele>
        <time>2020-02-08T07:20:55.802Z</time>
      </trkpt>
      <trkpt lat="39.06209833" lon="-0.23034">
        <ele>7.973</ele>
        <time>2020-02-08T07:20:56.802Z</time>
      </trkpt>
      <trkpt lat="39.06209833" lon="-0.23034">
        <ele>7.973</ele>
        <time>2020-02-08T07:20:57.802Z</time>
      </trkpt>
      <trkpt lat="39.06215" lon="-0.23046333">
        <ele>7.973</ele>
        <time>2020-02-08T07:20:58.802Z</time>
      </trkpt>
      <trkpt lat="39.062175" lon="-0.23052167">
        <ele>7.973</ele>
        <time>2020-02-08T07:20:59.802Z</time>
      </trkpt>
      <trkpt lat="39.062175" lon="-0.23052167">
        <ele>7.973</ele>
        <time>2020-02-08T07:21:00.802Z</time>
      </trkpt>
      <trkpt lat="39.06222167" lon="-0.23064">
        <ele>7.973</ele>
        <time>2020-02-08T07:21:01.802Z</time>
      </trkpt>
      <trkpt lat="39.06224667" lon="-0.2307">
        <ele>7.973</ele>
        <time>2020-02-08T07:21:02.802Z</time>
      </trkpt>
      <trkpt lat="39.06224667" lon="-0.2307">
        <ele>7.973</ele>
        <time>2020-02-08T07:21:03.802Z</time>
      </trkpt>
      <trkpt lat="39.0623" lon="-0.23081833">
        <ele>7.973</ele>
        <time>2020-02-08T07:21:04.802Z</time>
      </trkpt>
      <trkpt lat="39.0623" lon="-0.23081833">
        <ele>7.973</ele>
        <time>2020-02-08T07:21:05.802Z</time>
      </trkpt>
      <trkpt lat="39.06235667" lon="-0.23093167">
        <ele>7.973</ele>
        <time>2020-02-08T07:21:06.802Z</time>
      </trkpt>
      <trkpt lat="39.06235667" lon="-0.23093167">
        <ele>7.973</ele>
        <time>2020-02-08T07:21:07.802Z</time>
      </trkpt>
      <trkpt lat="39.06242167" lon="-0.23104167">
        <ele>7.973</ele>
        <time>2020-02-08T07:21:08.802Z</time>
      </trkpt>
      <trkpt lat="39.062455" lon="-0.23109167">
        <ele>7.973</ele>
        <time>2020-02-08T07:21:09.802Z</time>
      </trkpt>
      <trkpt lat="39.062455" lon="-0.23109167">
        <ele>7.973</ele>
        <time>2020-02-08T07:21:10.802Z</time>
      </trkpt>
      <trkpt lat="39.06252667" lon="-0.231185">
        <ele>7.973</ele>
        <time>2020-02-08T07:21:11.802Z</time>
      </trkpt>
      <trkpt lat="39.06256" lon="-0.23123333">
        <ele>7.973</ele>
        <time>2020-02-08T07:21:12.802Z</time>
      </trkpt>
      <trkpt lat="39.06256" lon="-0.23123333">
        <ele>7.973</ele>
        <time>2020-02-08T07:21:13.802Z</time>
      </trkpt>
      <trkpt lat="39.062625" lon="-0.23134333">
        <ele>7.973</ele>
        <time>2020-02-08T07:21:14.802Z</time>
      </trkpt>
      <trkpt lat="39.062625" lon="-0.23134333">
        <ele>7.973</ele>
        <time>2020-02-08T07:21:15.802Z</time>
      </trkpt>
      <trkpt lat="39.06269167" lon="-0.23145833">
        <ele>7.973</ele>
        <time>2020-02-08T07:21:16.802Z</time>
      </trkpt>
      <trkpt lat="39.06269167" lon="-0.23145833">
        <ele>7.973</ele>
        <time>2020-02-08T07:21:17.802Z</time>
      </trkpt>
      <trkpt lat="39.06276" lon="-0.231575">
        <ele>7.973</ele>
        <time>2020-02-08T07:21:18.802Z</time>
      </trkpt>
      <trkpt lat="39.06276" lon="-0.231575">
        <ele>7.973</ele>
        <time>2020-02-08T07:21:19.802Z</time>
      </trkpt>
      <trkpt lat="39.062825" lon="-0.23169333">
        <ele>7.973</ele>
        <time>2020-02-08T07:21:20.802Z</time>
      </trkpt>
      <trkpt lat="39.062825" lon="-0.23169333">
        <ele>7.973</ele>
        <time>2020-02-08T07:21:21.802Z</time>
      </trkpt>
      <trkpt lat="39.06288833" lon="-0.23180833">
        <ele>7.973</ele>
        <time>2020-02-08T07:21:22.802Z</time>
      </trkpt>
      <trkpt lat="39.06288833" lon="-0.23180833">
        <ele>7.973</ele>
        <time>2020-02-08T07:21:23.802Z</time>
      </trkpt>
      <trkpt lat="39.06295167" lon="-0.231915">
        <ele>7.973</ele>
        <time>2020-02-08T07:21:24.802Z</time>
      </trkpt>
      <trkpt lat="39.06295167" lon="-0.231915">
        <ele>7.973</ele>
        <time>2020-02-08T07:21:25.802Z</time>
      </trkpt>
      <trkpt lat="39.06301333" lon="-0.23202167">
        <ele>7.973</ele>
        <time>2020-02-08T07:21:26.802Z</time>
      </trkpt>
      <trkpt lat="39.063045" lon="-0.23207167">
        <ele>7.973</ele>
        <time>2020-02-08T07:21:27.802Z</time>
      </trkpt>
      <trkpt lat="39.063045" lon="-0.23207167">
        <ele>7.973</ele>
        <time>2020-02-08T07:21:28.802Z</time>
      </trkpt>
      <trkpt lat="39.06309833" lon="-0.23216833">
        <ele>7.973</ele>
        <time>2020-02-08T07:21:29.802Z</time>
      </trkpt>
      <trkpt lat="39.06311833" lon="-0.23221">
        <ele>7.973</ele>
        <time>2020-02-08T07:21:30.802Z</time>
      </trkpt>
      <trkpt lat="39.06311833" lon="-0.23221">
        <ele>7.973</ele>
        <time>2020-02-08T07:21:31.802Z</time>
      </trkpt>
      <trkpt lat="39.06315167" lon="-0.232285">
        <ele>8.973</ele>
        <time>2020-02-08T07:21:32.802Z</time>
      </trkpt>
      <trkpt lat="39.06315167" lon="-0.232285">
        <ele>8.973</ele>
        <time>2020-02-08T07:21:33.802Z</time>
      </trkpt>
      <trkpt lat="39.063165" lon="-0.23238333">
        <ele>9.973</ele>
        <time>2020-02-08T07:21:34.802Z</time>
      </trkpt>
      <trkpt lat="39.063165" lon="-0.23238333">
        <ele>9.973</ele>
        <time>2020-02-08T07:21:35.802Z</time>
      </trkpt>
      <trkpt lat="39.063165" lon="-0.232505">
        <ele>9.973</ele>
        <time>2020-02-08T07:21:36.802Z</time>
      </trkpt>
      <trkpt lat="39.063165" lon="-0.232505">
        <ele>9.973</ele>
        <time>2020-02-08T07:21:37.802Z</time>
      </trkpt>
      <trkpt lat="39.06317667" lon="-0.23263833">
        <ele>9.973</ele>
        <time>2020-02-08T07:21:38.802Z</time>
      </trkpt>
      <trkpt lat="39.06318167" lon="-0.2327">
        <ele>9.973</ele>
        <time>2020-02-08T07:21:39.802Z</time>
      </trkpt>
      <trkpt lat="39.06317167" lon="-0.232755">
        <ele>9.973</ele>
        <time>2020-02-08T07:21:40.802Z</time>
      </trkpt>
      <trkpt lat="39.06317167" lon="-0.232755">
        <ele>9.973</ele>
        <time>2020-02-08T07:21:41.802Z</time>
      </trkpt>
      <trkpt lat="39.0631" lon="-0.23282667">
        <ele>9.973</ele>
        <time>2020-02-08T07:21:42.802Z</time>
      </trkpt>
      <trkpt lat="39.0631" lon="-0.23282667">
        <ele>9.973</ele>
        <time>2020-02-08T07:21:43.802Z</time>
      </trkpt>
      <trkpt lat="39.06300667" lon="-0.23288">
        <ele>9.973</ele>
        <time>2020-02-08T07:21:44.802Z</time>
      </trkpt>
      <trkpt lat="39.06300667" lon="-0.23288">
        <ele>9.973</ele>
        <time>2020-02-08T07:21:45.802Z</time>
      </trkpt>
      <trkpt lat="39.06294167" lon="-0.23298833">
        <ele>9.973</ele>
        <time>2020-02-08T07:21:46.802Z</time>
      </trkpt>
      <trkpt lat="39.06294167" lon="-0.23298833">
        <ele>9.973</ele>
        <time>2020-02-08T07:21:47.802Z</time>
      </trkpt>
      <trkpt lat="39.06294833" lon="-0.23313833">
        <ele>9.973</ele>
        <time>2020-02-08T07:21:48.802Z</time>
      </trkpt>
      <trkpt lat="39.06294833" lon="-0.23313833">
        <ele>9.973</ele>
        <time>2020-02-08T07:21:49.802Z</time>
      </trkpt>
      <trkpt lat="39.06300333" lon="-0.233285">
        <ele>8.973</ele>
        <time>2020-02-08T07:21:50.802Z</time>
      </trkpt>
      <trkpt lat="39.06300333" lon="-0.233285">
        <ele>8.973</ele>
        <time>2020-02-08T07:21:51.802Z</time>
      </trkpt>
      <trkpt lat="39.06306833" lon="-0.23342667">
        <ele>8.973</ele>
        <time>2020-02-08T07:21:52.802Z</time>
      </trkpt>
      <trkpt lat="39.06306833" lon="-0.23342667">
        <ele>8.973</ele>
        <time>2020-02-08T07:21:53.802Z</time>
      </trkpt>
      <trkpt lat="39.06313333" lon="-0.23356">
        <ele>8.973</ele>
        <time>2020-02-08T07:21:54.802Z</time>
      </trkpt>
      <trkpt lat="39.06313333" lon="-0.23356">
        <ele>7.973</ele>
        <time>2020-02-08T07:21:55.802Z</time>
      </trkpt>
      <trkpt lat="39.0632" lon="-0.23369">
        <ele>7.973</ele>
        <time>2020-02-08T07:21:56.802Z</time>
      </trkpt>
      <trkpt lat="39.0632" lon="-0.23369">
        <ele>7.973</ele>
        <time>2020-02-08T07:21:57.802Z</time>
      </trkpt>
      <trkpt lat="39.06327167" lon="-0.23381167">
        <ele>7.973</ele>
        <time>2020-02-08T07:21:58.802Z</time>
      </trkpt>
      <trkpt lat="39.06331" lon="-0.23387">
        <ele>7.973</ele>
        <time>2020-02-08T07:21:59.802Z</time>
      </trkpt>
      <trkpt lat="39.06334833" lon="-0.23392833">
        <ele>7.973</ele>
        <time>2020-02-08T07:22:00.802Z</time>
      </trkpt>
      <trkpt lat="39.06334833" lon="-0.23392833">
        <ele>7.973</ele>
        <time>2020-02-08T07:22:01.802Z</time>
      </trkpt>
      <trkpt lat="39.06342667" lon="-0.23404">
        <ele>7.973</ele>
        <time>2020-02-08T07:22:02.802Z</time>
      </trkpt>
      <trkpt lat="39.06342667" lon="-0.23404">
        <ele>7.973</ele>
        <time>2020-02-08T07:22:03.802Z</time>
      </trkpt>
      <trkpt lat="39.06350833" lon="-0.23415">
        <ele>7.973</ele>
        <time>2020-02-08T07:22:04.802Z</time>
      </trkpt>
      <trkpt lat="39.06350833" lon="-0.23415">
        <ele>7.973</ele>
        <time>2020-02-08T07:22:05.802Z</time>
      </trkpt>
      <trkpt lat="39.06359667" lon="-0.23425167">
        <ele>7.973</ele>
        <time>2020-02-08T07:22:06.802Z</time>
      </trkpt>
      <trkpt lat="39.06359667" lon="-0.23425167">
        <ele>7.973</ele>
        <time>2020-02-08T07:22:07.802Z</time>
      </trkpt>
      <trkpt lat="39.06368667" lon="-0.23434833">
        <ele>7.973</ele>
        <time>2020-02-08T07:22:08.802Z</time>
      </trkpt>
      <trkpt lat="39.06368667" lon="-0.23434833">
        <ele>7.973</ele>
        <time>2020-02-08T07:22:09.802Z</time>
      </trkpt>
      <trkpt lat="39.06377167" lon="-0.23444333">
        <ele>7.973</ele>
        <time>2020-02-08T07:22:10.802Z</time>
      </trkpt>
      <trkpt lat="39.06381167" lon="-0.23449333">
        <ele>7.973</ele>
        <time>2020-02-08T07:22:11.802Z</time>
      </trkpt>
      <trkpt lat="39.06384833" lon="-0.23454833">
        <ele>7.973</ele>
        <time>2020-02-08T07:22:12.802Z</time>
      </trkpt>
      <trkpt lat="39.06384833" lon="-0.23454833">
        <ele>7.973</ele>
        <time>2020-02-08T07:22:13.802Z</time>
      </trkpt>
      <trkpt lat="39.063915" lon="-0.23466333">
        <ele>7.973</ele>
        <time>2020-02-08T07:22:14.802Z</time>
      </trkpt>
      <trkpt lat="39.063915" lon="-0.23466333">
        <ele>7.973</ele>
        <time>2020-02-08T07:22:15.802Z</time>
      </trkpt>
      <trkpt lat="39.06397833" lon="-0.23478333">
        <ele>7.973</ele>
        <time>2020-02-08T07:22:16.802Z</time>
      </trkpt>
      <trkpt lat="39.06397833" lon="-0.23478333">
        <ele>7.973</ele>
        <time>2020-02-08T07:22:17.802Z</time>
      </trkpt>
      <trkpt lat="39.06403667" lon="-0.23491">
        <ele>7.973</ele>
        <time>2020-02-08T07:22:18.802Z</time>
      </trkpt>
      <trkpt lat="39.06403667" lon="-0.23491">
        <ele>7.973</ele>
        <time>2020-02-08T07:22:19.802Z</time>
      </trkpt>
      <trkpt lat="39.064085" lon="-0.23504667">
        <ele>7.973</ele>
        <time>2020-02-08T07:22:20.802Z</time>
      </trkpt>
      <trkpt lat="39.064085" lon="-0.23504667">
        <ele>7.973</ele>
        <time>2020-02-08T07:22:21.802Z</time>
      </trkpt>
      <trkpt lat="39.06411833" lon="-0.23517833">
        <ele>7.973</ele>
        <time>2020-02-08T07:22:22.802Z</time>
      </trkpt>
      <trkpt lat="39.06411833" lon="-0.23517833">
        <ele>7.973</ele>
        <time>2020-02-08T07:22:23.802Z</time>
      </trkpt>
      <trkpt lat="39.06413833" lon="-0.235315">
        <ele>7.973</ele>
        <time>2020-02-08T07:22:24.802Z</time>
      </trkpt>
      <trkpt lat="39.06413833" lon="-0.235315">
        <ele>7.973</ele>
        <time>2020-02-08T07:22:25.802Z</time>
      </trkpt>
      <trkpt lat="39.06415" lon="-0.23544833">
        <ele>7.973</ele>
        <time>2020-02-08T07:22:26.802Z</time>
      </trkpt>
      <trkpt lat="39.06415" lon="-0.23544833">
        <ele>7.973</ele>
        <time>2020-02-08T07:22:27.802Z</time>
      </trkpt>
      <trkpt lat="39.06415667" lon="-0.23558333">
        <ele>7.973</ele>
        <time>2020-02-08T07:22:28.802Z</time>
      </trkpt>
      <trkpt lat="39.06415667" lon="-0.23558333">
        <ele>7.973</ele>
        <time>2020-02-08T07:22:29.802Z</time>
      </trkpt>
      <trkpt lat="39.064165" lon="-0.23572333">
        <ele>7.973</ele>
        <time>2020-02-08T07:22:30.802Z</time>
      </trkpt>
      <trkpt lat="39.064165" lon="-0.23572333">
        <ele>7.973</ele>
        <time>2020-02-08T07:22:31.802Z</time>
      </trkpt>
      <trkpt lat="39.06417833" lon="-0.235865">
        <ele>7.973</ele>
        <time>2020-02-08T07:22:32.802Z</time>
      </trkpt>
      <trkpt lat="39.06417833" lon="-0.235865">
        <ele>7.973</ele>
        <time>2020-02-08T07:22:33.802Z</time>
      </trkpt>
      <trkpt lat="39.06420167" lon="-0.236">
        <ele>7.973</ele>
        <time>2020-02-08T07:22:34.802Z</time>
      </trkpt>
      <trkpt lat="39.06420167" lon="-0.236">
        <ele>7.973</ele>
        <time>2020-02-08T07:22:35.802Z</time>
      </trkpt>
      <trkpt lat="39.06422833" lon="-0.23613667">
        <ele>8.973</ele>
        <time>2020-02-08T07:22:36.802Z</time>
      </trkpt>
      <trkpt lat="39.06422833" lon="-0.23613667">
        <ele>8.973</ele>
        <time>2020-02-08T07:22:37.802Z</time>
      </trkpt>
      <trkpt lat="39.06422667" lon="-0.23627333">
        <ele>8.973</ele>
        <time>2020-02-08T07:22:38.802Z</time>
      </trkpt>
      <trkpt lat="39.06422667" lon="-0.23627333">
        <ele>8.973</ele>
        <time>2020-02-08T07:22:39.802Z</time>
      </trkpt>
      <trkpt lat="39.06417833" lon="-0.23640167">
        <ele>8.973</ele>
        <time>2020-02-08T07:22:40.802Z</time>
      </trkpt>
      <trkpt lat="39.06417833" lon="-0.23640167">
        <ele>8.973</ele>
        <time>2020-02-08T07:22:41.802Z</time>
      </trkpt>
      <trkpt lat="39.06408167" lon="-0.23650333">
        <ele>8.973</ele>
        <time>2020-02-08T07:22:42.802Z</time>
      </trkpt>
      <trkpt lat="39.06408167" lon="-0.23650333">
        <ele>8.973</ele>
        <time>2020-02-08T07:22:43.802Z</time>
      </trkpt>
      <trkpt lat="39.06399667" lon="-0.23660167">
        <ele>8.973</ele>
        <time>2020-02-08T07:22:44.802Z</time>
      </trkpt>
      <trkpt lat="39.06399667" lon="-0.23660167">
        <ele>8.973</ele>
        <time>2020-02-08T07:22:45.802Z</time>
      </trkpt>
      <trkpt lat="39.06392" lon="-0.23670833">
        <ele>8.973</ele>
        <time>2020-02-08T07:22:46.802Z</time>
      </trkpt>
      <trkpt lat="39.06392" lon="-0.23670833">
        <ele>8.973</ele>
        <time>2020-02-08T07:22:47.802Z</time>
      </trkpt>
      <trkpt lat="39.063855" lon="-0.23682167">
        <ele>8.973</ele>
        <time>2020-02-08T07:22:48.802Z</time>
      </trkpt>
      <trkpt lat="39.063855" lon="-0.23682167">
        <ele>8.973</ele>
        <time>2020-02-08T07:22:49.802Z</time>
      </trkpt>
      <trkpt lat="39.06380667" lon="-0.236935">
        <ele>8.973</ele>
        <time>2020-02-08T07:22:50.802Z</time>
      </trkpt>
      <trkpt lat="39.06380667" lon="-0.236935">
        <ele>8.973</ele>
        <time>2020-02-08T07:22:51.802Z</time>
      </trkpt>
      <trkpt lat="39.06376667" lon="-0.23706167">
        <ele>8.973</ele>
        <time>2020-02-08T07:22:52.802Z</time>
      </trkpt>
      <trkpt lat="39.06376667" lon="-0.23706167">
        <ele>8.973</ele>
        <time>2020-02-08T07:22:53.802Z</time>
      </trkpt>
      <trkpt lat="39.06374333" lon="-0.23719667">
        <ele>8.973</ele>
        <time>2020-02-08T07:22:54.802Z</time>
      </trkpt>
      <trkpt lat="39.06374333" lon="-0.23719667">
        <ele>8.973</ele>
        <time>2020-02-08T07:22:55.802Z</time>
      </trkpt>
      <trkpt lat="39.063715" lon="-0.23732333">
        <ele>8.973</ele>
        <time>2020-02-08T07:22:56.802Z</time>
      </trkpt>
      <trkpt lat="39.06369667" lon="-0.23738167">
        <ele>8.973</ele>
        <time>2020-02-08T07:22:57.802Z</time>
      </trkpt>
      <trkpt lat="39.06369667" lon="-0.23738167">
        <ele>8.973</ele>
        <time>2020-02-08T07:22:58.802Z</time>
      </trkpt>
      <trkpt lat="39.06365833" lon="-0.23749">
        <ele>9.973</ele>
        <time>2020-02-08T07:22:59.802Z</time>
      </trkpt>
      <trkpt lat="39.06363667" lon="-0.23754167">
        <ele>9.973</ele>
        <time>2020-02-08T07:23:00.802Z</time>
      </trkpt>
      <trkpt lat="39.06363667" lon="-0.23754167">
        <ele>9.973</ele>
        <time>2020-02-08T07:23:01.802Z</time>
      </trkpt>
      <trkpt lat="39.06361333" lon="-0.23764">
        <ele>9.973</ele>
        <time>2020-02-08T07:23:02.802Z</time>
      </trkpt>
      <trkpt lat="39.06360333" lon="-0.23768167">
        <ele>9.973</ele>
        <time>2020-02-08T07:23:03.802Z</time>
      </trkpt>
      <trkpt lat="39.06360333" lon="-0.23768167">
        <ele>9.973</ele>
        <time>2020-02-08T07:23:04.802Z</time>
      </trkpt>
      <trkpt lat="39.06357667" lon="-0.237775">
        <ele>10.973</ele>
        <time>2020-02-08T07:23:05.802Z</time>
      </trkpt>
      <trkpt lat="39.06356167" lon="-0.23781">
        <ele>10.973</ele>
        <time>2020-02-08T07:23:06.802Z</time>
      </trkpt>
      <trkpt lat="39.06356167" lon="-0.23781">
        <ele>10.973</ele>
        <time>2020-02-08T07:23:07.802Z</time>
      </trkpt>
      <trkpt lat="39.06353" lon="-0.237895">
        <ele>10.973</ele>
        <time>2020-02-08T07:23:08.802Z</time>
      </trkpt>
      <trkpt lat="39.06353" lon="-0.237895">
        <ele>11.973</ele>
        <time>2020-02-08T07:23:09.802Z</time>
      </trkpt>
      <trkpt lat="39.06348833" lon="-0.23797333">
        <ele>11.973</ele>
        <time>2020-02-08T07:23:10.802Z</time>
      </trkpt>
      <trkpt lat="39.06348833" lon="-0.23797333">
        <ele>11.973</ele>
        <time>2020-02-08T07:23:11.802Z</time>
      </trkpt>
      <trkpt lat="39.06348833" lon="-0.23809333">
        <ele>11.973</ele>
        <time>2020-02-08T07:23:12.802Z</time>
      </trkpt>
      <trkpt lat="39.06348833" lon="-0.23809333">
        <ele>11.973</ele>
        <time>2020-02-08T07:23:13.802Z</time>
      </trkpt>
      <trkpt lat="39.06347667" lon="-0.23822">
        <ele>11.973</ele>
        <time>2020-02-08T07:23:14.802Z</time>
      </trkpt>
      <trkpt lat="39.06347667" lon="-0.23822">
        <ele>12.973</ele>
        <time>2020-02-08T07:23:15.802Z</time>
      </trkpt>
      <trkpt lat="39.063515" lon="-0.23835">
        <ele>12.973</ele>
        <time>2020-02-08T07:23:16.802Z</time>
      </trkpt>
      <trkpt lat="39.063515" lon="-0.23835">
        <ele>12.973</ele>
        <time>2020-02-08T07:23:17.802Z</time>
      </trkpt>
      <trkpt lat="39.06357333" lon="-0.23843167">
        <ele>12.973</ele>
        <time>2020-02-08T07:23:18.802Z</time>
      </trkpt>
      <trkpt lat="39.06360667" lon="-0.23846667">
        <ele>12.973</ele>
        <time>2020-02-08T07:23:19.802Z</time>
      </trkpt>
      <trkpt lat="39.06364167" lon="-0.23851">
        <ele>12.973</ele>
        <time>2020-02-08T07:23:20.802Z</time>
      </trkpt>
      <trkpt lat="39.06364167" lon="-0.23851">
        <ele>12.973</ele>
        <time>2020-02-08T07:23:21.802Z</time>
      </trkpt>
      <trkpt lat="39.06371333" lon="-0.2386">
        <ele>12.973</ele>
        <time>2020-02-08T07:23:22.802Z</time>
      </trkpt>
      <trkpt lat="39.06371333" lon="-0.2386">
        <ele>12.973</ele>
        <time>2020-02-08T07:23:23.802Z</time>
      </trkpt>
      <trkpt lat="39.06378833" lon="-0.238695">
        <ele>12.973</ele>
        <time>2020-02-08T07:23:24.802Z</time>
      </trkpt>
      <trkpt lat="39.06378833" lon="-0.238695">
        <ele>12.973</ele>
        <time>2020-02-08T07:23:25.802Z</time>
      </trkpt>
      <trkpt lat="39.06386833" lon="-0.23879333">
        <ele>12.973</ele>
        <time>2020-02-08T07:23:26.802Z</time>
      </trkpt>
      <trkpt lat="39.06391" lon="-0.23884667">
        <ele>12.973</ele>
        <time>2020-02-08T07:23:27.802Z</time>
      </trkpt>
      <trkpt lat="39.06391" lon="-0.23884667">
        <ele>12.973</ele>
        <time>2020-02-08T07:23:28.802Z</time>
      </trkpt>
      <trkpt lat="39.063995" lon="-0.23895333">
        <ele>12.973</ele>
        <time>2020-02-08T07:23:29.802Z</time>
      </trkpt>
      <trkpt lat="39.06403833" lon="-0.23900667">
        <ele>12.973</ele>
        <time>2020-02-08T07:23:30.802Z</time>
      </trkpt>
      <trkpt lat="39.06403833" lon="-0.23900667">
        <ele>12.973</ele>
        <time>2020-02-08T07:23:31.802Z</time>
      </trkpt>
      <trkpt lat="39.06412833" lon="-0.239105">
        <ele>12.973</ele>
        <time>2020-02-08T07:23:32.802Z</time>
      </trkpt>
      <trkpt lat="39.06412833" lon="-0.239105">
        <ele>12.973</ele>
        <time>2020-02-08T07:23:33.802Z</time>
      </trkpt>
      <trkpt lat="39.06421667" lon="-0.23920167">
        <ele>12.973</ele>
        <time>2020-02-08T07:23:34.802Z</time>
      </trkpt>
      <trkpt lat="39.06421667" lon="-0.23920167">
        <ele>12.973</ele>
        <time>2020-02-08T07:23:35.802Z</time>
      </trkpt>
      <trkpt lat="39.064275" lon="-0.23931667">
        <ele>12.973</ele>
        <time>2020-02-08T07:23:36.802Z</time>
      </trkpt>
      <trkpt lat="39.064275" lon="-0.23931667">
        <ele>12.973</ele>
        <time>2020-02-08T07:23:37.802Z</time>
      </trkpt>
      <trkpt lat="39.064305" lon="-0.23943167">
        <ele>12.973</ele>
        <time>2020-02-08T07:23:38.802Z</time>
      </trkpt>
      <trkpt lat="39.064305" lon="-0.23943167">
        <ele>12.973</ele>
        <time>2020-02-08T07:23:39.802Z</time>
      </trkpt>
      <trkpt lat="39.06432833" lon="-0.23954833">
        <ele>12.973</ele>
        <time>2020-02-08T07:23:40.802Z</time>
      </trkpt>
      <trkpt lat="39.064345" lon="-0.23960333">
        <ele>12.973</ele>
        <time>2020-02-08T07:23:41.802Z</time>
      </trkpt>
      <trkpt lat="39.064345" lon="-0.23960333">
        <ele>13.973</ele>
        <time>2020-02-08T07:23:42.802Z</time>
      </trkpt>
      <trkpt lat="39.06438" lon="-0.239715">
        <ele>13.973</ele>
        <time>2020-02-08T07:23:43.802Z</time>
      </trkpt>
      <trkpt lat="39.06439833" lon="-0.23976667">
        <ele>13.973</ele>
        <time>2020-02-08T07:23:44.802Z</time>
      </trkpt>
      <trkpt lat="39.06439833" lon="-0.23976667">
        <ele>13.973</ele>
        <time>2020-02-08T07:23:45.802Z</time>
      </trkpt>
      <trkpt lat="39.064425" lon="-0.23987333">
        <ele>14.973</ele>
        <time>2020-02-08T07:23:46.802Z</time>
      </trkpt>
      <trkpt lat="39.064425" lon="-0.23987333">
        <ele>14.973</ele>
        <time>2020-02-08T07:23:47.802Z</time>
      </trkpt>
      <trkpt lat="39.06445167" lon="-0.23998">
        <ele>14.973</ele>
        <time>2020-02-08T07:23:48.802Z</time>
      </trkpt>
      <trkpt lat="39.06445167" lon="-0.23998">
        <ele>14.973</ele>
        <time>2020-02-08T07:23:49.802Z</time>
      </trkpt>
      <trkpt lat="39.064475" lon="-0.24009">
        <ele>14.973</ele>
        <time>2020-02-08T07:23:50.802Z</time>
      </trkpt>
      <trkpt lat="39.064475" lon="-0.24009">
        <ele>14.973</ele>
        <time>2020-02-08T07:23:51.802Z</time>
      </trkpt>
      <trkpt lat="39.06448833" lon="-0.24020167">
        <ele>14.973</ele>
        <time>2020-02-08T07:23:52.802Z</time>
      </trkpt>
      <trkpt lat="39.06448833" lon="-0.24020167">
        <ele>14.973</ele>
        <time>2020-02-08T07:23:53.802Z</time>
      </trkpt>
      <trkpt lat="39.064485" lon="-0.24034667">
        <ele>15.973</ele>
        <time>2020-02-08T07:23:54.802Z</time>
      </trkpt>
      <trkpt lat="39.064485" lon="-0.24034667">
        <ele>15.973</ele>
        <time>2020-02-08T07:23:55.802Z</time>
      </trkpt>
      <trkpt lat="39.06449667" lon="-0.24050167">
        <ele>15.973</ele>
        <time>2020-02-08T07:23:56.802Z</time>
      </trkpt>
      <trkpt lat="39.06449667" lon="-0.24050167">
        <ele>15.973</ele>
        <time>2020-02-08T07:23:57.802Z</time>
      </trkpt>
      <trkpt lat="39.06452167" lon="-0.240655">
        <ele>16.973</ele>
        <time>2020-02-08T07:23:58.802Z</time>
      </trkpt>
      <trkpt lat="39.06452167" lon="-0.240655">
        <ele>16.973</ele>
        <time>2020-02-08T07:23:59.802Z</time>
      </trkpt>
      <trkpt lat="39.064565" lon="-0.24079833">
        <ele>16.973</ele>
        <time>2020-02-08T07:24:00.802Z</time>
      </trkpt>
      <trkpt lat="39.06459" lon="-0.24087">
        <ele>16.973</ele>
        <time>2020-02-08T07:24:01.802Z</time>
      </trkpt>
      <trkpt lat="39.06461333" lon="-0.24094333">
        <ele>16.973</ele>
        <time>2020-02-08T07:24:02.802Z</time>
      </trkpt>
      <trkpt lat="39.06461333" lon="-0.24094333">
        <ele>16.973</ele>
        <time>2020-02-08T07:24:03.802Z</time>
      </trkpt>
      <trkpt lat="39.06465833" lon="-0.24109333">
        <ele>16.973</ele>
        <time>2020-02-08T07:24:04.802Z</time>
      </trkpt>
      <trkpt lat="39.06465833" lon="-0.24109333">
        <ele>16.973</ele>
        <time>2020-02-08T07:24:05.802Z</time>
      </trkpt>
      <trkpt lat="39.06469833" lon="-0.24125167">
        <ele>16.973</ele>
        <time>2020-02-08T07:24:06.802Z</time>
      </trkpt>
      <trkpt lat="39.06469833" lon="-0.24125167">
        <ele>16.973</ele>
        <time>2020-02-08T07:24:07.802Z</time>
      </trkpt>
      <trkpt lat="39.06473667" lon="-0.24140833">
        <ele>16.973</ele>
        <time>2020-02-08T07:24:08.802Z</time>
      </trkpt>
      <trkpt lat="39.06473667" lon="-0.24140833">
        <ele>16.973</ele>
        <time>2020-02-08T07:24:09.802Z</time>
      </trkpt>
      <trkpt lat="39.06477167" lon="-0.24155">
        <ele>16.973</ele>
        <time>2020-02-08T07:24:10.802Z</time>
      </trkpt>
      <trkpt lat="39.06479" lon="-0.24161667">
        <ele>16.973</ele>
        <time>2020-02-08T07:24:11.802Z</time>
      </trkpt>
      <trkpt lat="39.064805" lon="-0.24168">
        <ele>16.973</ele>
        <time>2020-02-08T07:24:12.802Z</time>
      </trkpt>
      <trkpt lat="39.064805" lon="-0.24168">
        <ele>16.973</ele>
        <time>2020-02-08T07:24:13.802Z</time>
      </trkpt>
      <trkpt lat="39.064835" lon="-0.24180167">
        <ele>16.973</ele>
        <time>2020-02-08T07:24:14.802Z</time>
      </trkpt>
      <trkpt lat="39.064835" lon="-0.24180167">
        <ele>16.973</ele>
        <time>2020-02-08T07:24:15.802Z</time>
      </trkpt>
      <trkpt lat="39.06487167" lon="-0.241925">
        <ele>16.973</ele>
        <time>2020-02-08T07:24:16.802Z</time>
      </trkpt>
      <trkpt lat="39.06489333" lon="-0.24198833">
        <ele>16.973</ele>
        <time>2020-02-08T07:24:17.802Z</time>
      </trkpt>
      <trkpt lat="39.06489333" lon="-0.24198833">
        <ele>16.973</ele>
        <time>2020-02-08T07:24:18.802Z</time>
      </trkpt>
      <trkpt lat="39.06493" lon="-0.24212">
        <ele>16.973</ele>
        <time>2020-02-08T07:24:19.802Z</time>
      </trkpt>
      <trkpt lat="39.06495" lon="-0.242185">
        <ele>16.973</ele>
        <time>2020-02-08T07:24:20.802Z</time>
      </trkpt>
      <trkpt lat="39.06495" lon="-0.242185">
        <ele>16.973</ele>
        <time>2020-02-08T07:24:21.802Z</time>
      </trkpt>
      <trkpt lat="39.06498667" lon="-0.242315">
        <ele>16.973</ele>
        <time>2020-02-08T07:24:22.802Z</time>
      </trkpt>
      <trkpt lat="39.06498667" lon="-0.242315">
        <ele>16.973</ele>
        <time>2020-02-08T07:24:23.802Z</time>
      </trkpt>
      <trkpt lat="39.06502167" lon="-0.24244">
        <ele>16.973</ele>
        <time>2020-02-08T07:24:24.802Z</time>
      </trkpt>
      <trkpt lat="39.06502167" lon="-0.24244">
        <ele>16.973</ele>
        <time>2020-02-08T07:24:25.802Z</time>
      </trkpt>
      <trkpt lat="39.06505833" lon="-0.24256667">
        <ele>16.973</ele>
        <time>2020-02-08T07:24:26.802Z</time>
      </trkpt>
      <trkpt lat="39.06505833" lon="-0.24256667">
        <ele>16.973</ele>
        <time>2020-02-08T07:24:27.802Z</time>
      </trkpt>
      <trkpt lat="39.065095" lon="-0.24269333">
        <ele>16.973</ele>
        <time>2020-02-08T07:24:28.802Z</time>
      </trkpt>
      <trkpt lat="39.065095" lon="-0.24269333">
        <ele>16.973</ele>
        <time>2020-02-08T07:24:29.802Z</time>
      </trkpt>
      <trkpt lat="39.06513333" lon="-0.24282">
        <ele>16.973</ele>
        <time>2020-02-08T07:24:30.802Z</time>
      </trkpt>
      <trkpt lat="39.06513333" lon="-0.24282">
        <ele>16.973</ele>
        <time>2020-02-08T07:24:31.802Z</time>
      </trkpt>
      <trkpt lat="39.06516833" lon="-0.24294833">
        <ele>16.973</ele>
        <time>2020-02-08T07:24:32.802Z</time>
      </trkpt>
      <trkpt lat="39.06518667" lon="-0.24301667">
        <ele>16.973</ele>
        <time>2020-02-08T07:24:33.802Z</time>
      </trkpt>
      <trkpt lat="39.06520333" lon="-0.24308333">
        <ele>16.973</ele>
        <time>2020-02-08T07:24:34.802Z</time>
      </trkpt>
      <trkpt lat="39.06520333" lon="-0.24308333">
        <ele>16.973</ele>
        <time>2020-02-08T07:24:35.802Z</time>
      </trkpt>
      <trkpt lat="39.06523667" lon="-0.24322333">
        <ele>16.973</ele>
        <time>2020-02-08T07:24:36.802Z</time>
      </trkpt>
      <trkpt lat="39.06523667" lon="-0.24322333">
        <ele>16.973</ele>
        <time>2020-02-08T07:24:37.802Z</time>
      </trkpt>
      <trkpt lat="39.065255" lon="-0.24336833">
        <ele>16.973</ele>
        <time>2020-02-08T07:24:38.802Z</time>
      </trkpt>
      <trkpt lat="39.065265" lon="-0.24344">
        <ele>16.973</ele>
        <time>2020-02-08T07:24:39.802Z</time>
      </trkpt>
      <trkpt lat="39.065265" lon="-0.24344">
        <ele>16.973</ele>
        <time>2020-02-08T07:24:40.802Z</time>
      </trkpt>
      <trkpt lat="39.06528333" lon="-0.24358667">
        <ele>16.973</ele>
        <time>2020-02-08T07:24:41.802Z</time>
      </trkpt>
      <trkpt lat="39.06529333" lon="-0.24366167">
        <ele>16.973</ele>
        <time>2020-02-08T07:24:42.802Z</time>
      </trkpt>
      <trkpt lat="39.06529333" lon="-0.24366167">
        <ele>16.973</ele>
        <time>2020-02-08T07:24:43.802Z</time>
      </trkpt>
      <trkpt lat="39.06532833" lon="-0.243805">
        <ele>16.973</ele>
        <time>2020-02-08T07:24:44.802Z</time>
      </trkpt>
      <trkpt lat="39.06532833" lon="-0.243805">
        <ele>16.973</ele>
        <time>2020-02-08T07:24:45.802Z</time>
      </trkpt>
      <trkpt lat="39.065365" lon="-0.24394667">
        <ele>16.973</ele>
        <time>2020-02-08T07:24:46.802Z</time>
      </trkpt>
      <trkpt lat="39.06538333" lon="-0.24401833">
        <ele>16.973</ele>
        <time>2020-02-08T07:24:47.802Z</time>
      </trkpt>
      <trkpt lat="39.06538333" lon="-0.24401833">
        <ele>16.973</ele>
        <time>2020-02-08T07:24:48.802Z</time>
      </trkpt>
      <trkpt lat="39.06542667" lon="-0.244155">
        <ele>16.973</ele>
        <time>2020-02-08T07:24:49.802Z</time>
      </trkpt>
      <trkpt lat="39.06544667" lon="-0.244225">
        <ele>15.973</ele>
        <time>2020-02-08T07:24:50.802Z</time>
      </trkpt>
      <trkpt lat="39.06544667" lon="-0.244225">
        <ele>15.973</ele>
        <time>2020-02-08T07:24:51.802Z</time>
      </trkpt>
      <trkpt lat="39.06549833" lon="-0.244375">
        <ele>15.973</ele>
        <time>2020-02-08T07:24:52.802Z</time>
      </trkpt>
      <trkpt lat="39.065525" lon="-0.24445333">
        <ele>15.973</ele>
        <time>2020-02-08T07:24:53.802Z</time>
      </trkpt>
      <trkpt lat="39.06555" lon="-0.24453167">
        <ele>15.973</ele>
        <time>2020-02-08T07:24:54.802Z</time>
      </trkpt>
      <trkpt lat="39.06555" lon="-0.24453167">
        <ele>15.973</ele>
        <time>2020-02-08T07:24:55.802Z</time>
      </trkpt>
      <trkpt lat="39.0656" lon="-0.244685">
        <ele>15.973</ele>
        <time>2020-02-08T07:24:56.802Z</time>
      </trkpt>
      <trkpt lat="39.06562167" lon="-0.24476167">
        <ele>15.973</ele>
        <time>2020-02-08T07:24:57.802Z</time>
      </trkpt>
      <trkpt lat="39.06562167" lon="-0.24476167">
        <ele>15.973</ele>
        <time>2020-02-08T07:24:58.802Z</time>
      </trkpt>
      <trkpt lat="39.06566333" lon="-0.24491667">
        <ele>15.973</ele>
        <time>2020-02-08T07:24:59.802Z</time>
      </trkpt>
      <trkpt lat="39.06568667" lon="-0.24499833">
        <ele>14.973</ele>
        <time>2020-02-08T07:25:00.802Z</time>
      </trkpt>
      <trkpt lat="39.06568667" lon="-0.24499833">
        <ele>14.973</ele>
        <time>2020-02-08T07:25:01.802Z</time>
      </trkpt>
      <trkpt lat="39.06573167" lon="-0.24516">
        <ele>14.973</ele>
        <time>2020-02-08T07:25:02.802Z</time>
      </trkpt>
      <trkpt lat="39.06573167" lon="-0.24516">
        <ele>14.973</ele>
        <time>2020-02-08T07:25:03.802Z</time>
      </trkpt>
      <trkpt lat="39.06577833" lon="-0.24533">
        <ele>13.973</ele>
        <time>2020-02-08T07:25:04.802Z</time>
      </trkpt>
      <trkpt lat="39.0658" lon="-0.245415">
        <ele>13.973</ele>
        <time>2020-02-08T07:25:05.802Z</time>
      </trkpt>
      <trkpt lat="39.065825" lon="-0.24550167">
        <ele>12.973</ele>
        <time>2020-02-08T07:25:06.802Z</time>
      </trkpt>
      <trkpt lat="39.065825" lon="-0.24550167">
        <ele>12.973</ele>
        <time>2020-02-08T07:25:07.802Z</time>
      </trkpt>
      <trkpt lat="39.065875" lon="-0.245665">
        <ele>12.973</ele>
        <time>2020-02-08T07:25:08.802Z</time>
      </trkpt>
      <trkpt lat="39.06590667" lon="-0.245735">
        <ele>12.973</ele>
        <time>2020-02-08T07:25:09.802Z</time>
      </trkpt>
      <trkpt lat="39.06593167" lon="-0.24580167">
        <ele>11.973</ele>
        <time>2020-02-08T07:25:10.802Z</time>
      </trkpt>
      <trkpt lat="39.065935" lon="-0.24587333">
        <ele>11.973</ele>
        <time>2020-02-08T07:25:11.802Z</time>
      </trkpt>
      <trkpt lat="39.065935" lon="-0.24587333">
        <ele>11.973</ele>
        <time>2020-02-08T07:25:12.802Z</time>
      </trkpt>
      <trkpt lat="39.06589" lon="-0.24601333">
        <ele>11.973</ele>
        <time>2020-02-08T07:25:13.802Z</time>
      </trkpt>
      <trkpt lat="39.06585167" lon="-0.24608">
        <ele>10.973</ele>
        <time>2020-02-08T07:25:14.802Z</time>
      </trkpt>
      <trkpt lat="39.06585167" lon="-0.24608">
        <ele>10.973</ele>
        <time>2020-02-08T07:25:15.802Z</time>
      </trkpt>
      <trkpt lat="39.06578667" lon="-0.24622167">
        <ele>10.973</ele>
        <time>2020-02-08T07:25:16.802Z</time>
      </trkpt>
      <trkpt lat="39.06578667" lon="-0.24622167">
        <ele>10.973</ele>
        <time>2020-02-08T07:25:17.802Z</time>
      </trkpt>
      <trkpt lat="39.065725" lon="-0.24635333">
        <ele>10.973</ele>
        <time>2020-02-08T07:25:18.802Z</time>
      </trkpt>
      <trkpt lat="39.065725" lon="-0.24635333">
        <ele>10.973</ele>
        <time>2020-02-08T07:25:19.802Z</time>
      </trkpt>
      <trkpt lat="39.06562" lon="-0.246425">
        <ele>10.973</ele>
        <time>2020-02-08T07:25:20.802Z</time>
      </trkpt>
      <trkpt lat="39.06562" lon="-0.246425">
        <ele>10.973</ele>
        <time>2020-02-08T07:25:21.802Z</time>
      </trkpt>
      <trkpt lat="39.0655" lon="-0.24644167">
        <ele>10.973</ele>
        <time>2020-02-08T07:25:22.802Z</time>
      </trkpt>
      <trkpt lat="39.0655" lon="-0.24644167">
        <ele>10.973</ele>
        <time>2020-02-08T07:25:23.802Z</time>
      </trkpt>
      <trkpt lat="39.06537833" lon="-0.24645833">
        <ele>10.973</ele>
        <time>2020-02-08T07:25:24.802Z</time>
      </trkpt>
      <trkpt lat="39.06537833" lon="-0.24645833">
        <ele>10.973</ele>
        <time>2020-02-08T07:25:25.802Z</time>
      </trkpt>
      <trkpt lat="39.06525667" lon="-0.24648667">
        <ele>10.973</ele>
        <time>2020-02-08T07:25:26.802Z</time>
      </trkpt>
      <trkpt lat="39.065195" lon="-0.24650167">
        <ele>10.973</ele>
        <time>2020-02-08T07:25:27.802Z</time>
      </trkpt>
      <trkpt lat="39.065135" lon="-0.24651667">
        <ele>10.973</ele>
        <time>2020-02-08T07:25:28.802Z</time>
      </trkpt>
      <trkpt lat="39.065135" lon="-0.24651667">
        <ele>10.973</ele>
        <time>2020-02-08T07:25:29.802Z</time>
      </trkpt>
      <trkpt lat="39.06501333" lon="-0.24654333">
        <ele>10.973</ele>
        <time>2020-02-08T07:25:30.802Z</time>
      </trkpt>
      <trkpt lat="39.06501333" lon="-0.24654333">
        <ele>10.973</ele>
        <time>2020-02-08T07:25:31.802Z</time>
      </trkpt>
      <trkpt lat="39.064895" lon="-0.24656833">
        <ele>10.973</ele>
        <time>2020-02-08T07:25:32.802Z</time>
      </trkpt>
      <trkpt lat="39.064895" lon="-0.24656833">
        <ele>10.973</ele>
        <time>2020-02-08T07:25:33.802Z</time>
      </trkpt>
      <trkpt lat="39.06478" lon="-0.24659667">
        <ele>11.973</ele>
        <time>2020-02-08T07:25:34.802Z</time>
      </trkpt>
      <trkpt lat="39.06478" lon="-0.24659667">
        <ele>11.973</ele>
        <time>2020-02-08T07:25:35.802Z</time>
      </trkpt>
      <trkpt lat="39.06467" lon="-0.24661833">
        <ele>11.973</ele>
        <time>2020-02-08T07:25:36.802Z</time>
      </trkpt>
      <trkpt lat="39.06462" lon="-0.24663333">
        <ele>11.973</ele>
        <time>2020-02-08T07:25:37.802Z</time>
      </trkpt>
      <trkpt lat="39.06462" lon="-0.24663333">
        <ele>11.973</ele>
        <time>2020-02-08T07:25:38.802Z</time>
      </trkpt>
      <trkpt lat="39.06454333" lon="-0.24671667">
        <ele>11.973</ele>
        <time>2020-02-08T07:25:39.802Z</time>
      </trkpt>
      <trkpt lat="39.06454333" lon="-0.24671667">
        <ele>11.973</ele>
        <time>2020-02-08T07:25:40.802Z</time>
      </trkpt>
      <trkpt lat="39.06450833" lon="-0.24684333">
        <ele>11.973</ele>
        <time>2020-02-08T07:25:41.802Z</time>
      </trkpt>
      <trkpt lat="39.06449333" lon="-0.24691">
        <ele>11.973</ele>
        <time>2020-02-08T07:25:42.802Z</time>
      </trkpt>
      <trkpt lat="39.06449333" lon="-0.24691">
        <ele>11.973</ele>
        <time>2020-02-08T07:25:43.802Z</time>
      </trkpt>
      <trkpt lat="39.06446167" lon="-0.247045">
        <ele>12.973</ele>
        <time>2020-02-08T07:25:44.802Z</time>
      </trkpt>
      <trkpt lat="39.06446167" lon="-0.247045">
        <ele>12.973</ele>
        <time>2020-02-08T07:25:45.802Z</time>
      </trkpt>
      <trkpt lat="39.06441667" lon="-0.24717667">
        <ele>12.973</ele>
        <time>2020-02-08T07:25:46.802Z</time>
      </trkpt>
      <trkpt lat="39.06441667" lon="-0.24717667">
        <ele>12.973</ele>
        <time>2020-02-08T07:25:47.802Z</time>
      </trkpt>
      <trkpt lat="39.06439" lon="-0.247305">
        <ele>12.973</ele>
        <time>2020-02-08T07:25:48.802Z</time>
      </trkpt>
      <trkpt lat="39.06439" lon="-0.247305">
        <ele>13.973</ele>
        <time>2020-02-08T07:25:49.802Z</time>
      </trkpt>
      <trkpt lat="39.06436833" lon="-0.24744">
        <ele>13.973</ele>
        <time>2020-02-08T07:25:50.802Z</time>
      </trkpt>
      <trkpt lat="39.06436833" lon="-0.24744">
        <ele>13.973</ele>
        <time>2020-02-08T07:25:51.802Z</time>
      </trkpt>
      <trkpt lat="39.06434" lon="-0.24758167">
        <ele>13.973</ele>
        <time>2020-02-08T07:25:52.802Z</time>
      </trkpt>
      <trkpt lat="39.064325" lon="-0.24765333">
        <ele>13.973</ele>
        <time>2020-02-08T07:25:53.802Z</time>
      </trkpt>
      <trkpt lat="39.064325" lon="-0.24765333">
        <ele>13.973</ele>
        <time>2020-02-08T07:25:54.802Z</time>
      </trkpt>
      <trkpt lat="39.064295" lon="-0.24779833">
        <ele>13.973</ele>
        <time>2020-02-08T07:25:55.802Z</time>
      </trkpt>
      <trkpt lat="39.064295" lon="-0.24779833">
        <ele>13.973</ele>
        <time>2020-02-08T07:25:56.802Z</time>
      </trkpt>
      <trkpt lat="39.06426" lon="-0.247945">
        <ele>13.973</ele>
        <time>2020-02-08T07:25:57.802Z</time>
      </trkpt>
      <trkpt lat="39.06426" lon="-0.247945">
        <ele>13.973</ele>
        <time>2020-02-08T07:25:58.802Z</time>
      </trkpt>
      <trkpt lat="39.06423167" lon="-0.24809167">
        <ele>13.973</ele>
        <time>2020-02-08T07:25:59.802Z</time>
      </trkpt>
      <trkpt lat="39.06421833" lon="-0.24816667">
        <ele>13.973</ele>
        <time>2020-02-08T07:26:00.802Z</time>
      </trkpt>
      <trkpt lat="39.06421833" lon="-0.24816667">
        <ele>13.973</ele>
        <time>2020-02-08T07:26:01.802Z</time>
      </trkpt>
      <trkpt lat="39.06419167" lon="-0.24831833">
        <ele>13.973</ele>
        <time>2020-02-08T07:26:02.802Z</time>
      </trkpt>
      <trkpt lat="39.06419167" lon="-0.24831833">
        <ele>13.973</ele>
        <time>2020-02-08T07:26:03.802Z</time>
      </trkpt>
      <trkpt lat="39.06416" lon="-0.24846833">
        <ele>13.973</ele>
        <time>2020-02-08T07:26:04.802Z</time>
      </trkpt>
      <trkpt lat="39.06416" lon="-0.24846833">
        <ele>13.973</ele>
        <time>2020-02-08T07:26:05.802Z</time>
      </trkpt>
      <trkpt lat="39.06412667" lon="-0.248615">
        <ele>13.973</ele>
        <time>2020-02-08T07:26:06.802Z</time>
      </trkpt>
      <trkpt lat="39.06411" lon="-0.24868667">
        <ele>13.973</ele>
        <time>2020-02-08T07:26:07.802Z</time>
      </trkpt>
      <trkpt lat="39.06409333" lon="-0.24876">
        <ele>13.973</ele>
        <time>2020-02-08T07:26:08.802Z</time>
      </trkpt>
      <trkpt lat="39.06409333" lon="-0.24876">
        <ele>13.973</ele>
        <time>2020-02-08T07:26:09.802Z</time>
      </trkpt>
      <trkpt lat="39.06406167" lon="-0.24890667">
        <ele>13.973</ele>
        <time>2020-02-08T07:26:10.802Z</time>
      </trkpt>
      <trkpt lat="39.06406167" lon="-0.24890667">
        <ele>13.973</ele>
        <time>2020-02-08T07:26:11.802Z</time>
      </trkpt>
      <trkpt lat="39.06403" lon="-0.24905333">
        <ele>13.973</ele>
        <time>2020-02-08T07:26:12.802Z</time>
      </trkpt>
      <trkpt lat="39.06403" lon="-0.24905333">
        <ele>13.973</ele>
        <time>2020-02-08T07:26:13.802Z</time>
      </trkpt>
      <trkpt lat="39.06400833" lon="-0.24920667">
        <ele>13.973</ele>
        <time>2020-02-08T07:26:14.802Z</time>
      </trkpt>
      <trkpt lat="39.06400833" lon="-0.24920667">
        <ele>13.973</ele>
        <time>2020-02-08T07:26:15.802Z</time>
      </trkpt>
      <trkpt lat="39.06399833" lon="-0.24936167">
        <ele>13.973</ele>
        <time>2020-02-08T07:26:16.802Z</time>
      </trkpt>
      <trkpt lat="39.06399833" lon="-0.24936167">
        <ele>13.973</ele>
        <time>2020-02-08T07:26:17.802Z</time>
      </trkpt>
      <trkpt lat="39.063985" lon="-0.249515">
        <ele>13.973</ele>
        <time>2020-02-08T07:26:18.802Z</time>
      </trkpt>
      <trkpt lat="39.063985" lon="-0.249515">
        <ele>13.973</ele>
        <time>2020-02-08T07:26:19.802Z</time>
      </trkpt>
      <trkpt lat="39.06397167" lon="-0.24966833">
        <ele>13.973</ele>
        <time>2020-02-08T07:26:20.802Z</time>
      </trkpt>
      <trkpt lat="39.06396333" lon="-0.24974333">
        <ele>13.973</ele>
        <time>2020-02-08T07:26:21.802Z</time>
      </trkpt>
      <trkpt lat="39.06395667" lon="-0.24981833">
        <ele>13.973</ele>
        <time>2020-02-08T07:26:22.802Z</time>
      </trkpt>
      <trkpt lat="39.06395667" lon="-0.24981833">
        <ele>13.973</ele>
        <time>2020-02-08T07:26:23.802Z</time>
      </trkpt>
      <trkpt lat="39.063945" lon="-0.24996167">
        <ele>14.973</ele>
        <time>2020-02-08T07:26:24.802Z</time>
      </trkpt>
      <trkpt lat="39.06393833" lon="-0.25003167">
        <ele>14.973</ele>
        <time>2020-02-08T07:26:25.802Z</time>
      </trkpt>
      <trkpt lat="39.06393833" lon="-0.25003167">
        <ele>14.973</ele>
        <time>2020-02-08T07:26:26.802Z</time>
      </trkpt>
      <trkpt lat="39.06392333" lon="-0.250165">
        <ele>14.973</ele>
        <time>2020-02-08T07:26:27.802Z</time>
      </trkpt>
      <trkpt lat="39.06391667" lon="-0.25023167">
        <ele>15.973</ele>
        <time>2020-02-08T07:26:28.802Z</time>
      </trkpt>
      <trkpt lat="39.06390833" lon="-0.25029833">
        <ele>15.973</ele>
        <time>2020-02-08T07:26:29.802Z</time>
      </trkpt>
      <trkpt lat="39.06390833" lon="-0.25029833">
        <ele>15.973</ele>
        <time>2020-02-08T07:26:30.802Z</time>
      </trkpt>
      <trkpt lat="39.06389167" lon="-0.25044">
        <ele>15.973</ele>
        <time>2020-02-08T07:26:31.802Z</time>
      </trkpt>
      <trkpt lat="39.06389167" lon="-0.25044">
        <ele>15.973</ele>
        <time>2020-02-08T07:26:32.802Z</time>
      </trkpt>
      <trkpt lat="39.06387667" lon="-0.25058667">
        <ele>15.973</ele>
        <time>2020-02-08T07:26:33.802Z</time>
      </trkpt>
      <trkpt lat="39.06387667" lon="-0.25058667">
        <ele>15.973</ele>
        <time>2020-02-08T07:26:34.802Z</time>
      </trkpt>
      <trkpt lat="39.06385667" lon="-0.25073">
        <ele>15.973</ele>
        <time>2020-02-08T07:26:35.802Z</time>
      </trkpt>
      <trkpt lat="39.06385667" lon="-0.25073">
        <ele>15.973</ele>
        <time>2020-02-08T07:26:36.802Z</time>
      </trkpt>
      <trkpt lat="39.06383333" lon="-0.25087333">
        <ele>15.973</ele>
        <time>2020-02-08T07:26:37.802Z</time>
      </trkpt>
      <trkpt lat="39.06382" lon="-0.250945">
        <ele>15.973</ele>
        <time>2020-02-08T07:26:38.802Z</time>
      </trkpt>
      <trkpt lat="39.06382" lon="-0.250945">
        <ele>15.973</ele>
        <time>2020-02-08T07:26:39.802Z</time>
      </trkpt>
      <trkpt lat="39.06379333" lon="-0.251085">
        <ele>15.973</ele>
        <time>2020-02-08T07:26:40.802Z</time>
      </trkpt>
      <trkpt lat="39.06379333" lon="-0.251085">
        <ele>15.973</ele>
        <time>2020-02-08T07:26:41.802Z</time>
      </trkpt>
      <trkpt lat="39.06376833" lon="-0.25122">
        <ele>15.973</ele>
        <time>2020-02-08T07:26:42.802Z</time>
      </trkpt>
      <trkpt lat="39.063755" lon="-0.25128667">
        <ele>15.973</ele>
        <time>2020-02-08T07:26:43.802Z</time>
      </trkpt>
      <trkpt lat="39.06374333" lon="-0.25135333">
        <ele>15.973</ele>
        <time>2020-02-08T07:26:44.802Z</time>
      </trkpt>
      <trkpt lat="39.06374333" lon="-0.25135333">
        <ele>16.973</ele>
        <time>2020-02-08T07:26:45.802Z</time>
      </trkpt>
      <trkpt lat="39.06371833" lon="-0.25148333">
        <ele>16.973</ele>
        <time>2020-02-08T07:26:46.802Z</time>
      </trkpt>
      <trkpt lat="39.06371833" lon="-0.25148333">
        <ele>16.973</ele>
        <time>2020-02-08T07:26:47.802Z</time>
      </trkpt>
      <trkpt lat="39.06369667" lon="-0.25162">
        <ele>16.973</ele>
        <time>2020-02-08T07:26:48.802Z</time>
      </trkpt>
      <trkpt lat="39.06368667" lon="-0.25168833">
        <ele>16.973</ele>
        <time>2020-02-08T07:26:49.802Z</time>
      </trkpt>
      <trkpt lat="39.06368667" lon="-0.25168833">
        <ele>16.973</ele>
        <time>2020-02-08T07:26:50.802Z</time>
      </trkpt>
      <trkpt lat="39.06366833" lon="-0.251825">
        <ele>16.973</ele>
        <time>2020-02-08T07:26:51.802Z</time>
      </trkpt>
      <trkpt lat="39.06366" lon="-0.251895">
        <ele>16.973</ele>
        <time>2020-02-08T07:26:52.802Z</time>
      </trkpt>
      <trkpt lat="39.06366" lon="-0.251895">
        <ele>16.973</ele>
        <time>2020-02-08T07:26:53.802Z</time>
      </trkpt>
      <trkpt lat="39.06364333" lon="-0.25203333">
        <ele>16.973</ele>
        <time>2020-02-08T07:26:54.802Z</time>
      </trkpt>
      <trkpt lat="39.063635" lon="-0.25210167">
        <ele>16.973</ele>
        <time>2020-02-08T07:26:55.802Z</time>
      </trkpt>
      <trkpt lat="39.06362833" lon="-0.25217333">
        <ele>16.973</ele>
        <time>2020-02-08T07:26:56.802Z</time>
      </trkpt>
      <trkpt lat="39.06362" lon="-0.25224333">
        <ele>16.973</ele>
        <time>2020-02-08T07:26:57.802Z</time>
      </trkpt>
      <trkpt lat="39.06362" lon="-0.25224333">
        <ele>16.973</ele>
        <time>2020-02-08T07:26:58.802Z</time>
      </trkpt>
      <trkpt lat="39.063605" lon="-0.25238">
        <ele>16.973</ele>
        <time>2020-02-08T07:26:59.802Z</time>
      </trkpt>
      <trkpt lat="39.063605" lon="-0.25238">
        <ele>16.973</ele>
        <time>2020-02-08T07:27:00.802Z</time>
      </trkpt>
      <trkpt lat="39.06359333" lon="-0.25251333">
        <ele>16.973</ele>
        <time>2020-02-08T07:27:01.802Z</time>
      </trkpt>
      <trkpt lat="39.06359333" lon="-0.25251333">
        <ele>16.973</ele>
        <time>2020-02-08T07:27:02.802Z</time>
      </trkpt>
      <trkpt lat="39.06358333" lon="-0.25264833">
        <ele>16.973</ele>
        <time>2020-02-08T07:27:03.802Z</time>
      </trkpt>
      <trkpt lat="39.06358333" lon="-0.25264833">
        <ele>16.973</ele>
        <time>2020-02-08T07:27:04.802Z</time>
      </trkpt>
      <trkpt lat="39.06357" lon="-0.25278833">
        <ele>16.973</ele>
        <time>2020-02-08T07:27:05.802Z</time>
      </trkpt>
      <trkpt lat="39.06356167" lon="-0.25285833">
        <ele>16.973</ele>
        <time>2020-02-08T07:27:06.802Z</time>
      </trkpt>
      <trkpt lat="39.06356167" lon="-0.25285833">
        <ele>16.973</ele>
        <time>2020-02-08T07:27:07.802Z</time>
      </trkpt>
      <trkpt lat="39.06354833" lon="-0.25299833">
        <ele>16.973</ele>
        <time>2020-02-08T07:27:08.802Z</time>
      </trkpt>
      <trkpt lat="39.06354167" lon="-0.25306667">
        <ele>16.973</ele>
        <time>2020-02-08T07:27:09.802Z</time>
      </trkpt>
      <trkpt lat="39.06354167" lon="-0.25306667">
        <ele>16.973</ele>
        <time>2020-02-08T07:27:10.802Z</time>
      </trkpt>
      <trkpt lat="39.06353" lon="-0.253205">
        <ele>16.973</ele>
        <time>2020-02-08T07:27:11.802Z</time>
      </trkpt>
      <trkpt lat="39.06352667" lon="-0.253275">
        <ele>16.973</ele>
        <time>2020-02-08T07:27:12.802Z</time>
      </trkpt>
      <trkpt lat="39.06352667" lon="-0.253275">
        <ele>16.973</ele>
        <time>2020-02-08T07:27:13.802Z</time>
      </trkpt>
      <trkpt lat="39.06351833" lon="-0.25341167">
        <ele>16.973</ele>
        <time>2020-02-08T07:27:14.802Z</time>
      </trkpt>
      <trkpt lat="39.06351833" lon="-0.25341167">
        <ele>16.973</ele>
        <time>2020-02-08T07:27:15.802Z</time>
      </trkpt>
      <trkpt lat="39.06351333" lon="-0.253545">
        <ele>16.973</ele>
        <time>2020-02-08T07:27:16.802Z</time>
      </trkpt>
      <trkpt lat="39.06351333" lon="-0.253545">
        <ele>16.973</ele>
        <time>2020-02-08T07:27:17.802Z</time>
      </trkpt>
      <trkpt lat="39.06350667" lon="-0.25367167">
        <ele>16.973</ele>
        <time>2020-02-08T07:27:18.802Z</time>
      </trkpt>
      <trkpt lat="39.06350667" lon="-0.25367167">
        <ele>16.973</ele>
        <time>2020-02-08T07:27:19.802Z</time>
      </trkpt>
      <trkpt lat="39.0635" lon="-0.25379333">
        <ele>16.973</ele>
        <time>2020-02-08T07:27:20.802Z</time>
      </trkpt>
      <trkpt lat="39.0635" lon="-0.25379333">
        <ele>17.973</ele>
        <time>2020-02-08T07:27:21.802Z</time>
      </trkpt>
      <trkpt lat="39.06349833" lon="-0.25391333">
        <ele>17.973</ele>
        <time>2020-02-08T07:27:22.802Z</time>
      </trkpt>
      <trkpt lat="39.06349667" lon="-0.25397333">
        <ele>17.973</ele>
        <time>2020-02-08T07:27:23.802Z</time>
      </trkpt>
      <trkpt lat="39.063495" lon="-0.25403333">
        <ele>17.973</ele>
        <time>2020-02-08T07:27:24.802Z</time>
      </trkpt>
      <trkpt lat="39.063495" lon="-0.25403333">
        <ele>18.973</ele>
        <time>2020-02-08T07:27:25.802Z</time>
      </trkpt>
      <trkpt lat="39.06348833" lon="-0.25415833">
        <ele>18.973</ele>
        <time>2020-02-08T07:27:26.802Z</time>
      </trkpt>
      <trkpt lat="39.06348833" lon="-0.25415833">
        <ele>19.973</ele>
        <time>2020-02-08T07:27:27.802Z</time>
      </trkpt>
      <trkpt lat="39.063485" lon="-0.25428">
        <ele>19.973</ele>
        <time>2020-02-08T07:27:28.802Z</time>
      </trkpt>
      <trkpt lat="39.063485" lon="-0.25428">
        <ele>19.973</ele>
        <time>2020-02-08T07:27:29.802Z</time>
      </trkpt>
      <trkpt lat="39.06349" lon="-0.25440333">
        <ele>19.973</ele>
        <time>2020-02-08T07:27:30.802Z</time>
      </trkpt>
      <trkpt lat="39.06349" lon="-0.25440333">
        <ele>20.973</ele>
        <time>2020-02-08T07:27:31.802Z</time>
      </trkpt>
      <trkpt lat="39.06348833" lon="-0.25453">
        <ele>20.973</ele>
        <time>2020-02-08T07:27:32.802Z</time>
      </trkpt>
      <trkpt lat="39.06348833" lon="-0.25459333">
        <ele>21.973</ele>
        <time>2020-02-08T07:27:33.802Z</time>
      </trkpt>
      <trkpt lat="39.06348833" lon="-0.25459333">
        <ele>21.973</ele>
        <time>2020-02-08T07:27:34.802Z</time>
      </trkpt>
      <trkpt lat="39.063485" lon="-0.25471667">
        <ele>21.973</ele>
        <time>2020-02-08T07:27:35.802Z</time>
      </trkpt>
      <trkpt lat="39.063485" lon="-0.25471667">
        <ele>21.973</ele>
        <time>2020-02-08T07:27:36.802Z</time>
      </trkpt>
      <trkpt lat="39.06348333" lon="-0.25484333">
        <ele>21.973</ele>
        <time>2020-02-08T07:27:37.802Z</time>
      </trkpt>
      <trkpt lat="39.06348333" lon="-0.25484333">
        <ele>21.973</ele>
        <time>2020-02-08T07:27:38.802Z</time>
      </trkpt>
      <trkpt lat="39.06348167" lon="-0.25496833">
        <ele>21.973</ele>
        <time>2020-02-08T07:27:39.802Z</time>
      </trkpt>
      <trkpt lat="39.06348" lon="-0.25503333">
        <ele>21.973</ele>
        <time>2020-02-08T07:27:40.802Z</time>
      </trkpt>
      <trkpt lat="39.06348" lon="-0.25503333">
        <ele>21.973</ele>
        <time>2020-02-08T07:27:41.802Z</time>
      </trkpt>
      <trkpt lat="39.06347333" lon="-0.25516167">
        <ele>21.973</ele>
        <time>2020-02-08T07:27:42.802Z</time>
      </trkpt>
      <trkpt lat="39.06346833" lon="-0.25522667">
        <ele>21.973</ele>
        <time>2020-02-08T07:27:43.802Z</time>
      </trkpt>
      <trkpt lat="39.06346333" lon="-0.25529167">
        <ele>21.973</ele>
        <time>2020-02-08T07:27:44.802Z</time>
      </trkpt>
      <trkpt lat="39.06346333" lon="-0.25529167">
        <ele>21.973</ele>
        <time>2020-02-08T07:27:45.802Z</time>
      </trkpt>
      <trkpt lat="39.06344833" lon="-0.25542667">
        <ele>21.973</ele>
        <time>2020-02-08T07:27:46.802Z</time>
      </trkpt>
      <trkpt lat="39.06344833" lon="-0.25542667">
        <ele>21.973</ele>
        <time>2020-02-08T07:27:47.802Z</time>
      </trkpt>
      <trkpt lat="39.06342333" lon="-0.25555667">
        <ele>21.973</ele>
        <time>2020-02-08T07:27:48.802Z</time>
      </trkpt>
      <trkpt lat="39.06342333" lon="-0.25555667">
        <ele>21.973</ele>
        <time>2020-02-08T07:27:49.802Z</time>
      </trkpt>
      <trkpt lat="39.06339833" lon="-0.25567833">
        <ele>21.973</ele>
        <time>2020-02-08T07:27:50.802Z</time>
      </trkpt>
      <trkpt lat="39.06339833" lon="-0.25567833">
        <ele>21.973</ele>
        <time>2020-02-08T07:27:51.802Z</time>
      </trkpt>
      <trkpt lat="39.06337667" lon="-0.255795">
        <ele>21.973</ele>
        <time>2020-02-08T07:27:52.802Z</time>
      </trkpt>
      <trkpt lat="39.06337667" lon="-0.255795">
        <ele>21.973</ele>
        <time>2020-02-08T07:27:53.802Z</time>
      </trkpt>
      <trkpt lat="39.06335333" lon="-0.25590667">
        <ele>21.973</ele>
        <time>2020-02-08T07:27:54.802Z</time>
      </trkpt>
      <trkpt lat="39.06335333" lon="-0.25590667">
        <ele>21.973</ele>
        <time>2020-02-08T07:27:55.802Z</time>
      </trkpt>
      <trkpt lat="39.06333167" lon="-0.25601833">
        <ele>21.973</ele>
        <time>2020-02-08T07:27:56.802Z</time>
      </trkpt>
      <trkpt lat="39.06333167" lon="-0.25601833">
        <ele>21.973</ele>
        <time>2020-02-08T07:27:57.802Z</time>
      </trkpt>
      <trkpt lat="39.06330833" lon="-0.256125">
        <ele>21.973</ele>
        <time>2020-02-08T07:27:58.802Z</time>
      </trkpt>
      <trkpt lat="39.06330833" lon="-0.256125">
        <ele>21.973</ele>
        <time>2020-02-08T07:27:59.802Z</time>
      </trkpt>
      <trkpt lat="39.06328833" lon="-0.25624">
        <ele>21.973</ele>
        <time>2020-02-08T07:28:00.802Z</time>
      </trkpt>
      <trkpt lat="39.06328833" lon="-0.25624">
        <ele>21.973</ele>
        <time>2020-02-08T07:28:01.802Z</time>
      </trkpt>
      <trkpt lat="39.06326" lon="-0.25636833">
        <ele>21.973</ele>
        <time>2020-02-08T07:28:02.802Z</time>
      </trkpt>
      <trkpt lat="39.06326" lon="-0.25636833">
        <ele>21.973</ele>
        <time>2020-02-08T07:28:03.802Z</time>
      </trkpt>
      <trkpt lat="39.06321333" lon="-0.256485">
        <ele>21.973</ele>
        <time>2020-02-08T07:28:04.802Z</time>
      </trkpt>
      <trkpt lat="39.06321333" lon="-0.256485">
        <ele>21.973</ele>
        <time>2020-02-08T07:28:05.802Z</time>
      </trkpt>
      <trkpt lat="39.06316" lon="-0.256605">
        <ele>21.973</ele>
        <time>2020-02-08T07:28:06.802Z</time>
      </trkpt>
      <trkpt lat="39.06316" lon="-0.256605">
        <ele>21.973</ele>
        <time>2020-02-08T07:28:07.802Z</time>
      </trkpt>
      <trkpt lat="39.063105" lon="-0.25672833">
        <ele>21.973</ele>
        <time>2020-02-08T07:28:08.802Z</time>
      </trkpt>
      <trkpt lat="39.06307833" lon="-0.25678833">
        <ele>21.973</ele>
        <time>2020-02-08T07:28:09.802Z</time>
      </trkpt>
      <trkpt lat="39.06307833" lon="-0.25678833">
        <ele>21.973</ele>
        <time>2020-02-08T07:28:10.802Z</time>
      </trkpt>
      <trkpt lat="39.06302" lon="-0.25690333">
        <ele>21.973</ele>
        <time>2020-02-08T07:28:11.802Z</time>
      </trkpt>
      <trkpt lat="39.06302" lon="-0.25690333">
        <ele>21.973</ele>
        <time>2020-02-08T07:28:12.802Z</time>
      </trkpt>
      <trkpt lat="39.06296" lon="-0.25701167">
        <ele>21.973</ele>
        <time>2020-02-08T07:28:13.802Z</time>
      </trkpt>
      <trkpt lat="39.06293" lon="-0.257065">
        <ele>21.973</ele>
        <time>2020-02-08T07:28:14.802Z</time>
      </trkpt>
      <trkpt lat="39.06293" lon="-0.257065">
        <ele>21.973</ele>
        <time>2020-02-08T07:28:15.802Z</time>
      </trkpt>
      <trkpt lat="39.06287167" lon="-0.257175">
        <ele>21.973</ele>
        <time>2020-02-08T07:28:16.802Z</time>
      </trkpt>
      <trkpt lat="39.06284167" lon="-0.25723333">
        <ele>21.973</ele>
        <time>2020-02-08T07:28:17.802Z</time>
      </trkpt>
      <trkpt lat="39.06284167" lon="-0.25723333">
        <ele>21.973</ele>
        <time>2020-02-08T07:28:18.802Z</time>
      </trkpt>
      <trkpt lat="39.06279" lon="-0.25735833">
        <ele>21.973</ele>
        <time>2020-02-08T07:28:19.802Z</time>
      </trkpt>
      <trkpt lat="39.062775" lon="-0.257425">
        <ele>21.973</ele>
        <time>2020-02-08T07:28:20.802Z</time>
      </trkpt>
      <trkpt lat="39.062775" lon="-0.257425">
        <ele>21.973</ele>
        <time>2020-02-08T07:28:21.802Z</time>
      </trkpt>
      <trkpt lat="39.06275833" lon="-0.25756">
        <ele>21.973</ele>
        <time>2020-02-08T07:28:22.802Z</time>
      </trkpt>
      <trkpt lat="39.06275833" lon="-0.25756">
        <ele>21.973</ele>
        <time>2020-02-08T07:28:23.802Z</time>
      </trkpt>
      <trkpt lat="39.06274667" lon="-0.2577">
        <ele>21.973</ele>
        <time>2020-02-08T07:28:24.802Z</time>
      </trkpt>
      <trkpt lat="39.06274667" lon="-0.2577">
        <ele>21.973</ele>
        <time>2020-02-08T07:28:25.802Z</time>
      </trkpt>
      <trkpt lat="39.06274167" lon="-0.257845">
        <ele>21.973</ele>
        <time>2020-02-08T07:28:26.802Z</time>
      </trkpt>
      <trkpt lat="39.06274167" lon="-0.257845">
        <ele>21.973</ele>
        <time>2020-02-08T07:28:27.802Z</time>
      </trkpt>
      <trkpt lat="39.06272833" lon="-0.25798333">
        <ele>21.973</ele>
        <time>2020-02-08T07:28:28.802Z</time>
      </trkpt>
      <trkpt lat="39.06272333" lon="-0.258055">
        <ele>21.973</ele>
        <time>2020-02-08T07:28:29.802Z</time>
      </trkpt>
      <trkpt lat="39.06271833" lon="-0.25812333">
        <ele>21.973</ele>
        <time>2020-02-08T07:28:30.802Z</time>
      </trkpt>
      <trkpt lat="39.06271833" lon="-0.25812333">
        <ele>21.973</ele>
        <time>2020-02-08T07:28:31.802Z</time>
      </trkpt>
      <trkpt lat="39.06271" lon="-0.25825667">
        <ele>20.973</ele>
        <time>2020-02-08T07:28:32.802Z</time>
      </trkpt>
      <trkpt lat="39.06271" lon="-0.25825667">
        <ele>20.973</ele>
        <time>2020-02-08T07:28:33.802Z</time>
      </trkpt>
      <trkpt lat="39.06270667" lon="-0.25839">
        <ele>20.973</ele>
        <time>2020-02-08T07:28:34.802Z</time>
      </trkpt>
      <trkpt lat="39.06270667" lon="-0.25839">
        <ele>20.973</ele>
        <time>2020-02-08T07:28:35.802Z</time>
      </trkpt>
      <trkpt lat="39.06269833" lon="-0.25852167">
        <ele>20.973</ele>
        <time>2020-02-08T07:28:36.802Z</time>
      </trkpt>
      <trkpt lat="39.06269833" lon="-0.25852167">
        <ele>20.973</ele>
        <time>2020-02-08T07:28:37.802Z</time>
      </trkpt>
      <trkpt lat="39.062685" lon="-0.25866333">
        <ele>20.973</ele>
        <time>2020-02-08T07:28:38.802Z</time>
      </trkpt>
      <trkpt lat="39.062685" lon="-0.25866333">
        <ele>20.973</ele>
        <time>2020-02-08T07:28:39.802Z</time>
      </trkpt>
      <trkpt lat="39.06266667" lon="-0.258815">
        <ele>20.973</ele>
        <time>2020-02-08T07:28:40.802Z</time>
      </trkpt>
      <trkpt lat="39.06266667" lon="-0.258815">
        <ele>20.973</ele>
        <time>2020-02-08T07:28:41.802Z</time>
      </trkpt>
      <trkpt lat="39.06263667" lon="-0.25897333">
        <ele>20.973</ele>
        <time>2020-02-08T07:28:42.802Z</time>
      </trkpt>
      <trkpt lat="39.06263667" lon="-0.25897333">
        <ele>20.973</ele>
        <time>2020-02-08T07:28:43.802Z</time>
      </trkpt>
      <trkpt lat="39.06259167" lon="-0.25912667">
        <ele>20.973</ele>
        <time>2020-02-08T07:28:44.802Z</time>
      </trkpt>
      <trkpt lat="39.06259167" lon="-0.25912667">
        <ele>20.973</ele>
        <time>2020-02-08T07:28:45.802Z</time>
      </trkpt>
      <trkpt lat="39.06255333" lon="-0.25928">
        <ele>20.973</ele>
        <time>2020-02-08T07:28:46.802Z</time>
      </trkpt>
      <trkpt lat="39.06255333" lon="-0.25928">
        <ele>20.973</ele>
        <time>2020-02-08T07:28:47.802Z</time>
      </trkpt>
      <trkpt lat="39.06252167" lon="-0.259435">
        <ele>20.973</ele>
        <time>2020-02-08T07:28:48.802Z</time>
      </trkpt>
      <trkpt lat="39.06252167" lon="-0.259435">
        <ele>19.973</ele>
        <time>2020-02-08T07:28:49.802Z</time>
      </trkpt>
      <trkpt lat="39.06249667" lon="-0.25959167">
        <ele>19.973</ele>
        <time>2020-02-08T07:28:50.802Z</time>
      </trkpt>
      <trkpt lat="39.06249667" lon="-0.25959167">
        <ele>19.973</ele>
        <time>2020-02-08T07:28:51.802Z</time>
      </trkpt>
      <trkpt lat="39.06247833" lon="-0.25974833">
        <ele>19.973</ele>
        <time>2020-02-08T07:28:52.802Z</time>
      </trkpt>
      <trkpt lat="39.06247833" lon="-0.25974833">
        <ele>19.973</ele>
        <time>2020-02-08T07:28:53.802Z</time>
      </trkpt>
      <trkpt lat="39.062465" lon="-0.25990333">
        <ele>19.973</ele>
        <time>2020-02-08T07:28:54.802Z</time>
      </trkpt>
      <trkpt lat="39.062465" lon="-0.25990333">
        <ele>19.973</ele>
        <time>2020-02-08T07:28:55.802Z</time>
      </trkpt>
      <trkpt lat="39.06246" lon="-0.26005667">
        <ele>19.973</ele>
        <time>2020-02-08T07:28:56.802Z</time>
      </trkpt>
      <trkpt lat="39.06246" lon="-0.26005667">
        <ele>19.973</ele>
        <time>2020-02-08T07:28:57.802Z</time>
      </trkpt>
      <trkpt lat="39.06247167" lon="-0.26020667">
        <ele>19.973</ele>
        <time>2020-02-08T07:28:58.802Z</time>
      </trkpt>
      <trkpt lat="39.06248333" lon="-0.26027667">
        <ele>19.973</ele>
        <time>2020-02-08T07:28:59.802Z</time>
      </trkpt>
      <trkpt lat="39.06249667" lon="-0.26034333">
        <ele>19.973</ele>
        <time>2020-02-08T07:29:00.802Z</time>
      </trkpt>
      <trkpt lat="39.06249667" lon="-0.26034333">
        <ele>19.973</ele>
        <time>2020-02-08T07:29:01.802Z</time>
      </trkpt>
      <trkpt lat="39.06253167" lon="-0.26047">
        <ele>19.973</ele>
        <time>2020-02-08T07:29:02.802Z</time>
      </trkpt>
      <trkpt lat="39.06253167" lon="-0.26047">
        <ele>19.973</ele>
        <time>2020-02-08T07:29:03.802Z</time>
      </trkpt>
      <trkpt lat="39.062575" lon="-0.26059333">
        <ele>19.973</ele>
        <time>2020-02-08T07:29:04.802Z</time>
      </trkpt>
      <trkpt lat="39.062575" lon="-0.26059333">
        <ele>19.973</ele>
        <time>2020-02-08T07:29:05.802Z</time>
      </trkpt>
      <trkpt lat="39.062625" lon="-0.260715">
        <ele>19.973</ele>
        <time>2020-02-08T07:29:06.802Z</time>
      </trkpt>
      <trkpt lat="39.062625" lon="-0.260715">
        <ele>20.973</ele>
        <time>2020-02-08T07:29:07.802Z</time>
      </trkpt>
      <trkpt lat="39.06266167" lon="-0.26084167">
        <ele>20.973</ele>
        <time>2020-02-08T07:29:08.802Z</time>
      </trkpt>
      <trkpt lat="39.06266167" lon="-0.26084167">
        <ele>21.973</ele>
        <time>2020-02-08T07:29:09.802Z</time>
      </trkpt>
      <trkpt lat="39.06269167" lon="-0.260975">
        <ele>21.973</ele>
        <time>2020-02-08T07:29:10.802Z</time>
      </trkpt>
      <trkpt lat="39.06269167" lon="-0.260975">
        <ele>21.973</ele>
        <time>2020-02-08T07:29:11.802Z</time>
      </trkpt>
      <trkpt lat="39.06271333" lon="-0.261115">
        <ele>21.973</ele>
        <time>2020-02-08T07:29:12.802Z</time>
      </trkpt>
      <trkpt lat="39.06271333" lon="-0.261115">
        <ele>21.973</ele>
        <time>2020-02-08T07:29:13.802Z</time>
      </trkpt>
      <trkpt lat="39.06273167" lon="-0.26125667">
        <ele>22.973</ele>
        <time>2020-02-08T07:29:14.802Z</time>
      </trkpt>
      <trkpt lat="39.06273167" lon="-0.26125667">
        <ele>22.973</ele>
        <time>2020-02-08T07:29:15.802Z</time>
      </trkpt>
      <trkpt lat="39.06275167" lon="-0.2614">
        <ele>22.973</ele>
        <time>2020-02-08T07:29:16.802Z</time>
      </trkpt>
      <trkpt lat="39.06275167" lon="-0.2614">
        <ele>22.973</ele>
        <time>2020-02-08T07:29:17.802Z</time>
      </trkpt>
      <trkpt lat="39.06276833" lon="-0.26154333">
        <ele>22.973</ele>
        <time>2020-02-08T07:29:18.802Z</time>
      </trkpt>
      <trkpt lat="39.06276833" lon="-0.26154333">
        <ele>22.973</ele>
        <time>2020-02-08T07:29:19.802Z</time>
      </trkpt>
      <trkpt lat="39.06277833" lon="-0.26169">
        <ele>22.973</ele>
        <time>2020-02-08T07:29:20.802Z</time>
      </trkpt>
      <trkpt lat="39.06277833" lon="-0.26169">
        <ele>22.973</ele>
        <time>2020-02-08T07:29:21.802Z</time>
      </trkpt>
      <trkpt lat="39.06277833" lon="-0.261835">
        <ele>22.973</ele>
        <time>2020-02-08T07:29:22.802Z</time>
      </trkpt>
      <trkpt lat="39.06277833" lon="-0.261835">
        <ele>22.973</ele>
        <time>2020-02-08T07:29:23.802Z</time>
      </trkpt>
      <trkpt lat="39.062775" lon="-0.26198167">
        <ele>22.973</ele>
        <time>2020-02-08T07:29:24.802Z</time>
      </trkpt>
      <trkpt lat="39.062775" lon="-0.26198167">
        <ele>22.973</ele>
        <time>2020-02-08T07:29:25.802Z</time>
      </trkpt>
      <trkpt lat="39.06278333" lon="-0.26213333">
        <ele>22.973</ele>
        <time>2020-02-08T07:29:26.802Z</time>
      </trkpt>
      <trkpt lat="39.06278333" lon="-0.26213333">
        <ele>22.973</ele>
        <time>2020-02-08T07:29:27.802Z</time>
      </trkpt>
      <trkpt lat="39.06281167" lon="-0.26227667">
        <ele>22.973</ele>
        <time>2020-02-08T07:29:28.802Z</time>
      </trkpt>
      <trkpt lat="39.06281167" lon="-0.26227667">
        <ele>22.973</ele>
        <time>2020-02-08T07:29:29.802Z</time>
      </trkpt>
      <trkpt lat="39.06285667" lon="-0.262415">
        <ele>22.973</ele>
        <time>2020-02-08T07:29:30.802Z</time>
      </trkpt>
      <trkpt lat="39.06285667" lon="-0.262415">
        <ele>22.973</ele>
        <time>2020-02-08T07:29:31.802Z</time>
      </trkpt>
      <trkpt lat="39.06290667" lon="-0.26254833">
        <ele>22.973</ele>
        <time>2020-02-08T07:29:32.802Z</time>
      </trkpt>
      <trkpt lat="39.06293" lon="-0.26261667">
        <ele>22.973</ele>
        <time>2020-02-08T07:29:33.802Z</time>
      </trkpt>
      <trkpt lat="39.06293" lon="-0.26261667">
        <ele>22.973</ele>
        <time>2020-02-08T07:29:34.802Z</time>
      </trkpt>
      <trkpt lat="39.06298167" lon="-0.26275">
        <ele>22.973</ele>
        <time>2020-02-08T07:29:35.802Z</time>
      </trkpt>
      <trkpt lat="39.06298167" lon="-0.26275">
        <ele>22.973</ele>
        <time>2020-02-08T07:29:36.802Z</time>
      </trkpt>
      <trkpt lat="39.063025" lon="-0.26288333">
        <ele>22.973</ele>
        <time>2020-02-08T07:29:37.802Z</time>
      </trkpt>
      <trkpt lat="39.06304333" lon="-0.26295167">
        <ele>22.973</ele>
        <time>2020-02-08T07:29:38.802Z</time>
      </trkpt>
      <trkpt lat="39.06304333" lon="-0.26295167">
        <ele>22.973</ele>
        <time>2020-02-08T07:29:39.802Z</time>
      </trkpt>
      <trkpt lat="39.06308333" lon="-0.263095">
        <ele>22.973</ele>
        <time>2020-02-08T07:29:40.802Z</time>
      </trkpt>
      <trkpt lat="39.06308333" lon="-0.263095">
        <ele>22.973</ele>
        <time>2020-02-08T07:29:41.802Z</time>
      </trkpt>
      <trkpt lat="39.06312333" lon="-0.26323833">
        <ele>22.973</ele>
        <time>2020-02-08T07:29:42.802Z</time>
      </trkpt>
      <trkpt lat="39.06314333" lon="-0.26330833">
        <ele>22.973</ele>
        <time>2020-02-08T07:29:43.802Z</time>
      </trkpt>
      <trkpt lat="39.06314333" lon="-0.26330833">
        <ele>22.973</ele>
        <time>2020-02-08T07:29:44.802Z</time>
      </trkpt>
      <trkpt lat="39.06318333" lon="-0.26345167">
        <ele>22.973</ele>
        <time>2020-02-08T07:29:45.802Z</time>
      </trkpt>
      <trkpt lat="39.06318333" lon="-0.26345167">
        <ele>22.973</ele>
        <time>2020-02-08T07:29:46.802Z</time>
      </trkpt>
      <trkpt lat="39.06322333" lon="-0.263595">
        <ele>22.973</ele>
        <time>2020-02-08T07:29:47.802Z</time>
      </trkpt>
      <trkpt lat="39.06324167" lon="-0.263665">
        <ele>22.973</ele>
        <time>2020-02-08T07:29:48.802Z</time>
      </trkpt>
      <trkpt lat="39.06324167" lon="-0.263665">
        <ele>22.973</ele>
        <time>2020-02-08T07:29:49.802Z</time>
      </trkpt>
      <trkpt lat="39.06327833" lon="-0.26380833">
        <ele>22.973</ele>
        <time>2020-02-08T07:29:50.802Z</time>
      </trkpt>
      <trkpt lat="39.06327833" lon="-0.26380833">
        <ele>22.973</ele>
        <time>2020-02-08T07:29:51.802Z</time>
      </trkpt>
      <trkpt lat="39.06331833" lon="-0.26395167">
        <ele>22.973</ele>
        <time>2020-02-08T07:29:52.802Z</time>
      </trkpt>
      <trkpt lat="39.06333667" lon="-0.26402333">
        <ele>22.973</ele>
        <time>2020-02-08T07:29:53.802Z</time>
      </trkpt>
      <trkpt lat="39.06333667" lon="-0.26402333">
        <ele>22.973</ele>
        <time>2020-02-08T07:29:54.802Z</time>
      </trkpt>
      <trkpt lat="39.06337167" lon="-0.26416667">
        <ele>22.973</ele>
        <time>2020-02-08T07:29:55.802Z</time>
      </trkpt>
      <trkpt lat="39.06338667" lon="-0.26424">
        <ele>22.973</ele>
        <time>2020-02-08T07:29:56.802Z</time>
      </trkpt>
      <trkpt lat="39.06338667" lon="-0.26424">
        <ele>22.973</ele>
        <time>2020-02-08T07:29:57.802Z</time>
      </trkpt>
      <trkpt lat="39.06340667" lon="-0.26438667">
        <ele>22.973</ele>
        <time>2020-02-08T07:29:58.802Z</time>
      </trkpt>
      <trkpt lat="39.06340667" lon="-0.26438667">
        <ele>22.973</ele>
        <time>2020-02-08T07:29:59.802Z</time>
      </trkpt>
      <trkpt lat="39.06339833" lon="-0.26452833">
        <ele>22.973</ele>
        <time>2020-02-08T07:30:00.802Z</time>
      </trkpt>
      <trkpt lat="39.06339833" lon="-0.26452833">
        <ele>22.973</ele>
        <time>2020-02-08T07:30:01.802Z</time>
      </trkpt>
      <trkpt lat="39.06339667" lon="-0.26466333">
        <ele>21.973</ele>
        <time>2020-02-08T07:30:02.802Z</time>
      </trkpt>
      <trkpt lat="39.06339667" lon="-0.26466333">
        <ele>21.973</ele>
        <time>2020-02-08T07:30:03.802Z</time>
      </trkpt>
      <trkpt lat="39.063425" lon="-0.26480333">
        <ele>21.973</ele>
        <time>2020-02-08T07:30:04.802Z</time>
      </trkpt>
      <trkpt lat="39.063445" lon="-0.26487667">
        <ele>21.973</ele>
        <time>2020-02-08T07:30:05.802Z</time>
      </trkpt>
      <trkpt lat="39.063445" lon="-0.26487667">
        <ele>21.973</ele>
        <time>2020-02-08T07:30:06.802Z</time>
      </trkpt>
      <trkpt lat="39.06348167" lon="-0.26502333">
        <ele>21.973</ele>
        <time>2020-02-08T07:30:07.802Z</time>
      </trkpt>
      <trkpt lat="39.06349833" lon="-0.2651">
        <ele>21.973</ele>
        <time>2020-02-08T07:30:08.802Z</time>
      </trkpt>
      <trkpt lat="39.06349833" lon="-0.2651">
        <ele>21.973</ele>
        <time>2020-02-08T07:30:09.802Z</time>
      </trkpt>
      <trkpt lat="39.06353167" lon="-0.26525">
        <ele>21.973</ele>
        <time>2020-02-08T07:30:10.802Z</time>
      </trkpt>
      <trkpt lat="39.06353167" lon="-0.26525">
        <ele>21.973</ele>
        <time>2020-02-08T07:30:11.802Z</time>
      </trkpt>
      <trkpt lat="39.063565" lon="-0.26539333">
        <ele>21.973</ele>
        <time>2020-02-08T07:30:12.802Z</time>
      </trkpt>
      <trkpt lat="39.063565" lon="-0.26539333">
        <ele>21.973</ele>
        <time>2020-02-08T07:30:13.802Z</time>
      </trkpt>
      <trkpt lat="39.06359167" lon="-0.265525">
        <ele>21.973</ele>
        <time>2020-02-08T07:30:14.802Z</time>
      </trkpt>
      <trkpt lat="39.06359167" lon="-0.265525">
        <ele>21.973</ele>
        <time>2020-02-08T07:30:15.802Z</time>
      </trkpt>
      <trkpt lat="39.06359667" lon="-0.26565833">
        <ele>21.973</ele>
        <time>2020-02-08T07:30:16.802Z</time>
      </trkpt>
      <trkpt lat="39.06359667" lon="-0.26565833">
        <ele>20.973</ele>
        <time>2020-02-08T07:30:17.802Z</time>
      </trkpt>
      <trkpt lat="39.06358167" lon="-0.26580167">
        <ele>20.973</ele>
        <time>2020-02-08T07:30:18.802Z</time>
      </trkpt>
      <trkpt lat="39.06358167" lon="-0.26580167">
        <ele>20.973</ele>
        <time>2020-02-08T07:30:19.802Z</time>
      </trkpt>
      <trkpt lat="39.063565" lon="-0.265945">
        <ele>20.973</ele>
        <time>2020-02-08T07:30:20.802Z</time>
      </trkpt>
      <trkpt lat="39.063565" lon="-0.265945">
        <ele>20.973</ele>
        <time>2020-02-08T07:30:21.802Z</time>
      </trkpt>
      <trkpt lat="39.06355333" lon="-0.26608333">
        <ele>20.973</ele>
        <time>2020-02-08T07:30:22.802Z</time>
      </trkpt>
      <trkpt lat="39.06354667" lon="-0.26615167">
        <ele>20.973</ele>
        <time>2020-02-08T07:30:23.802Z</time>
      </trkpt>
      <trkpt lat="39.06354667" lon="-0.26615167">
        <ele>20.973</ele>
        <time>2020-02-08T07:30:24.802Z</time>
      </trkpt>
      <trkpt lat="39.06352667" lon="-0.26628667">
        <ele>20.973</ele>
        <time>2020-02-08T07:30:25.802Z</time>
      </trkpt>
      <trkpt lat="39.06350833" lon="-0.26635167">
        <ele>20.973</ele>
        <time>2020-02-08T07:30:26.802Z</time>
      </trkpt>
      <trkpt lat="39.06350833" lon="-0.26635167">
        <ele>20.973</ele>
        <time>2020-02-08T07:30:27.802Z</time>
      </trkpt>
      <trkpt lat="39.06346333" lon="-0.26648">
        <ele>20.973</ele>
        <time>2020-02-08T07:30:28.802Z</time>
      </trkpt>
      <trkpt lat="39.06344167" lon="-0.26654667">
        <ele>20.973</ele>
        <time>2020-02-08T07:30:29.802Z</time>
      </trkpt>
      <trkpt lat="39.06341833" lon="-0.26661">
        <ele>20.973</ele>
        <time>2020-02-08T07:30:30.802Z</time>
      </trkpt>
      <trkpt lat="39.063395" lon="-0.26667333">
        <ele>20.973</ele>
        <time>2020-02-08T07:30:31.802Z</time>
      </trkpt>
      <trkpt lat="39.063395" lon="-0.26667333">
        <ele>20.973</ele>
        <time>2020-02-08T07:30:32.802Z</time>
      </trkpt>
      <trkpt lat="39.06334667" lon="-0.26679667">
        <ele>21.973</ele>
        <time>2020-02-08T07:30:33.802Z</time>
      </trkpt>
      <trkpt lat="39.063325" lon="-0.26685667">
        <ele>21.973</ele>
        <time>2020-02-08T07:30:34.802Z</time>
      </trkpt>
      <trkpt lat="39.063325" lon="-0.26685667">
        <ele>21.973</ele>
        <time>2020-02-08T07:30:35.802Z</time>
      </trkpt>
      <trkpt lat="39.06327833" lon="-0.26698">
        <ele>21.973</ele>
        <time>2020-02-08T07:30:36.802Z</time>
      </trkpt>
      <trkpt lat="39.06327833" lon="-0.26698">
        <ele>21.973</ele>
        <time>2020-02-08T07:30:37.802Z</time>
      </trkpt>
      <trkpt lat="39.06323333" lon="-0.26711">
        <ele>21.973</ele>
        <time>2020-02-08T07:30:38.802Z</time>
      </trkpt>
      <trkpt lat="39.06323333" lon="-0.26711">
        <ele>21.973</ele>
        <time>2020-02-08T07:30:39.802Z</time>
      </trkpt>
      <trkpt lat="39.06318333" lon="-0.26724">
        <ele>21.973</ele>
        <time>2020-02-08T07:30:40.802Z</time>
      </trkpt>
      <trkpt lat="39.06318333" lon="-0.26724">
        <ele>21.973</ele>
        <time>2020-02-08T07:30:41.802Z</time>
      </trkpt>
      <trkpt lat="39.06311" lon="-0.26734167">
        <ele>21.973</ele>
        <time>2020-02-08T07:30:42.802Z</time>
      </trkpt>
      <trkpt lat="39.06311" lon="-0.26734167">
        <ele>21.973</ele>
        <time>2020-02-08T07:30:43.802Z</time>
      </trkpt>
      <trkpt lat="39.06301833" lon="-0.26741833">
        <ele>21.973</ele>
        <time>2020-02-08T07:30:44.802Z</time>
      </trkpt>
      <trkpt lat="39.06301833" lon="-0.26741833">
        <ele>21.973</ele>
        <time>2020-02-08T07:30:45.802Z</time>
      </trkpt>
      <trkpt lat="39.062915" lon="-0.267475">
        <ele>21.973</ele>
        <time>2020-02-08T07:30:46.802Z</time>
      </trkpt>
      <trkpt lat="39.06286167" lon="-0.2675">
        <ele>21.973</ele>
        <time>2020-02-08T07:30:47.802Z</time>
      </trkpt>
      <trkpt lat="39.06286167" lon="-0.2675">
        <ele>21.973</ele>
        <time>2020-02-08T07:30:48.802Z</time>
      </trkpt>
      <trkpt lat="39.06277167" lon="-0.26756667">
        <ele>21.973</ele>
        <time>2020-02-08T07:30:49.802Z</time>
      </trkpt>
      <trkpt lat="39.06273667" lon="-0.26761667">
        <ele>21.973</ele>
        <time>2020-02-08T07:30:50.802Z</time>
      </trkpt>
      <trkpt lat="39.06273667" lon="-0.26761667">
        <ele>21.973</ele>
        <time>2020-02-08T07:30:51.802Z</time>
      </trkpt>
      <trkpt lat="39.06266833" lon="-0.267715">
        <ele>21.973</ele>
        <time>2020-02-08T07:30:52.802Z</time>
      </trkpt>
      <trkpt lat="39.06266833" lon="-0.267715">
        <ele>21.973</ele>
        <time>2020-02-08T07:30:53.802Z</time>
      </trkpt>
      <trkpt lat="39.0626" lon="-0.2678">
        <ele>21.973</ele>
        <time>2020-02-08T07:30:54.802Z</time>
      </trkpt>
      <trkpt lat="39.06257167" lon="-0.26784667">
        <ele>21.973</ele>
        <time>2020-02-08T07:30:55.802Z</time>
      </trkpt>
      <trkpt lat="39.06257167" lon="-0.26784667">
        <ele>21.973</ele>
        <time>2020-02-08T07:30:56.802Z</time>
      </trkpt>
      <trkpt lat="39.06256833" lon="-0.26796333">
        <ele>21.973</ele>
        <time>2020-02-08T07:30:57.802Z</time>
      </trkpt>
      <trkpt lat="39.06256833" lon="-0.26796333">
        <ele>21.973</ele>
        <time>2020-02-08T07:30:58.802Z</time>
      </trkpt>
      <trkpt lat="39.06263" lon="-0.26808667">
        <ele>20.973</ele>
        <time>2020-02-08T07:30:59.802Z</time>
      </trkpt>
      <trkpt lat="39.06266167" lon="-0.26815167">
        <ele>20.973</ele>
        <time>2020-02-08T07:31:00.802Z</time>
      </trkpt>
      <trkpt lat="39.06266167" lon="-0.26815167">
        <ele>20.973</ele>
        <time>2020-02-08T07:31:01.802Z</time>
      </trkpt>
      <trkpt lat="39.06272667" lon="-0.2683">
        <ele>20.973</ele>
        <time>2020-02-08T07:31:02.802Z</time>
      </trkpt>
      <trkpt lat="39.06272667" lon="-0.2683">
        <ele>19.973</ele>
        <time>2020-02-08T07:31:03.802Z</time>
      </trkpt>
      <trkpt lat="39.062795" lon="-0.26845">
        <ele>19.973</ele>
        <time>2020-02-08T07:31:04.802Z</time>
      </trkpt>
      <trkpt lat="39.06283" lon="-0.26852333">
        <ele>19.973</ele>
        <time>2020-02-08T07:31:05.802Z</time>
      </trkpt>
      <trkpt lat="39.06286333" lon="-0.268595">
        <ele>19.973</ele>
        <time>2020-02-08T07:31:06.802Z</time>
      </trkpt>
      <trkpt lat="39.06286333" lon="-0.268595">
        <ele>18.973</ele>
        <time>2020-02-08T07:31:07.802Z</time>
      </trkpt>
      <trkpt lat="39.06293" lon="-0.26873">
        <ele>18.973</ele>
        <time>2020-02-08T07:31:08.802Z</time>
      </trkpt>
      <trkpt lat="39.06293" lon="-0.26873">
        <ele>18.973</ele>
        <time>2020-02-08T07:31:09.802Z</time>
      </trkpt>
      <trkpt lat="39.062995" lon="-0.26886167">
        <ele>18.973</ele>
        <time>2020-02-08T07:31:10.802Z</time>
      </trkpt>
      <trkpt lat="39.062995" lon="-0.26886167">
        <ele>18.973</ele>
        <time>2020-02-08T07:31:11.802Z</time>
      </trkpt>
      <trkpt lat="39.063055" lon="-0.269">
        <ele>17.973</ele>
        <time>2020-02-08T07:31:12.802Z</time>
      </trkpt>
      <trkpt lat="39.063055" lon="-0.269">
        <ele>17.973</ele>
        <time>2020-02-08T07:31:13.802Z</time>
      </trkpt>
      <trkpt lat="39.06310667" lon="-0.26914333">
        <ele>17.973</ele>
        <time>2020-02-08T07:31:14.802Z</time>
      </trkpt>
      <trkpt lat="39.06313" lon="-0.269215">
        <ele>17.973</ele>
        <time>2020-02-08T07:31:15.802Z</time>
      </trkpt>
      <trkpt lat="39.06313" lon="-0.269215">
        <ele>17.973</ele>
        <time>2020-02-08T07:31:16.802Z</time>
      </trkpt>
      <trkpt lat="39.06318167" lon="-0.269355">
        <ele>17.973</ele>
        <time>2020-02-08T07:31:17.802Z</time>
      </trkpt>
      <trkpt lat="39.06318167" lon="-0.269355">
        <ele>17.973</ele>
        <time>2020-02-08T07:31:18.802Z</time>
      </trkpt>
      <trkpt lat="39.06325" lon="-0.26948167">
        <ele>17.973</ele>
        <time>2020-02-08T07:31:19.802Z</time>
      </trkpt>
      <trkpt lat="39.06325" lon="-0.26948167">
        <ele>17.973</ele>
        <time>2020-02-08T07:31:20.802Z</time>
      </trkpt>
      <trkpt lat="39.06333667" lon="-0.269585">
        <ele>17.973</ele>
        <time>2020-02-08T07:31:21.802Z</time>
      </trkpt>
      <trkpt lat="39.06338333" lon="-0.26963167">
        <ele>17.973</ele>
        <time>2020-02-08T07:31:22.802Z</time>
      </trkpt>
      <trkpt lat="39.06338333" lon="-0.26963167">
        <ele>17.973</ele>
        <time>2020-02-08T07:31:23.802Z</time>
      </trkpt>
      <trkpt lat="39.06347833" lon="-0.26972167">
        <ele>17.973</ele>
        <time>2020-02-08T07:31:24.802Z</time>
      </trkpt>
      <trkpt lat="39.06353" lon="-0.269765">
        <ele>17.973</ele>
        <time>2020-02-08T07:31:25.802Z</time>
      </trkpt>
      <trkpt lat="39.06358" lon="-0.26980667">
        <ele>17.973</ele>
        <time>2020-02-08T07:31:26.802Z</time>
      </trkpt>
      <trkpt lat="39.06358" lon="-0.26980667">
        <ele>17.973</ele>
        <time>2020-02-08T07:31:27.802Z</time>
      </trkpt>
      <trkpt lat="39.06368667" lon="-0.26988667">
        <ele>17.973</ele>
        <time>2020-02-08T07:31:28.802Z</time>
      </trkpt>
      <trkpt lat="39.06368667" lon="-0.26988667">
        <ele>17.973</ele>
        <time>2020-02-08T07:31:29.802Z</time>
      </trkpt>
      <trkpt lat="39.06379833" lon="-0.26995833">
        <ele>17.973</ele>
        <time>2020-02-08T07:31:30.802Z</time>
      </trkpt>
      <trkpt lat="39.06379833" lon="-0.26995833">
        <ele>17.973</ele>
        <time>2020-02-08T07:31:31.802Z</time>
      </trkpt>
      <trkpt lat="39.06390833" lon="-0.270025">
        <ele>17.973</ele>
        <time>2020-02-08T07:31:32.802Z</time>
      </trkpt>
      <trkpt lat="39.06390833" lon="-0.270025">
        <ele>17.973</ele>
        <time>2020-02-08T07:31:33.802Z</time>
      </trkpt>
      <trkpt lat="39.06402167" lon="-0.27008667">
        <ele>17.973</ele>
        <time>2020-02-08T07:31:34.802Z</time>
      </trkpt>
      <trkpt lat="39.06402167" lon="-0.27008667">
        <ele>17.973</ele>
        <time>2020-02-08T07:31:35.802Z</time>
      </trkpt>
      <trkpt lat="39.06413333" lon="-0.27015">
        <ele>17.973</ele>
        <time>2020-02-08T07:31:36.802Z</time>
      </trkpt>
      <trkpt lat="39.06413333" lon="-0.27015">
        <ele>17.973</ele>
        <time>2020-02-08T07:31:37.802Z</time>
      </trkpt>
      <trkpt lat="39.06424833" lon="-0.27021333">
        <ele>17.973</ele>
        <time>2020-02-08T07:31:38.802Z</time>
      </trkpt>
      <trkpt lat="39.06430667" lon="-0.27024167">
        <ele>17.973</ele>
        <time>2020-02-08T07:31:39.802Z</time>
      </trkpt>
      <trkpt lat="39.06430667" lon="-0.27024167">
        <ele>17.973</ele>
        <time>2020-02-08T07:31:40.802Z</time>
      </trkpt>
      <trkpt lat="39.06442" lon="-0.27030167">
        <ele>17.973</ele>
        <time>2020-02-08T07:31:41.802Z</time>
      </trkpt>
      <trkpt lat="39.06447667" lon="-0.27033333">
        <ele>17.973</ele>
        <time>2020-02-08T07:31:42.802Z</time>
      </trkpt>
      <trkpt lat="39.06447667" lon="-0.27033333">
        <ele>17.973</ele>
        <time>2020-02-08T07:31:43.802Z</time>
      </trkpt>
      <trkpt lat="39.06459" lon="-0.27039">
        <ele>17.973</ele>
        <time>2020-02-08T07:31:44.802Z</time>
      </trkpt>
      <trkpt lat="39.06459" lon="-0.27039">
        <ele>17.973</ele>
        <time>2020-02-08T07:31:45.802Z</time>
      </trkpt>
      <trkpt lat="39.06470333" lon="-0.27044667">
        <ele>17.973</ele>
        <time>2020-02-08T07:31:46.802Z</time>
      </trkpt>
      <trkpt lat="39.06470333" lon="-0.27044667">
        <ele>17.973</ele>
        <time>2020-02-08T07:31:47.802Z</time>
      </trkpt>
      <trkpt lat="39.06481833" lon="-0.27050167">
        <ele>17.973</ele>
        <time>2020-02-08T07:31:48.802Z</time>
      </trkpt>
      <trkpt lat="39.06481833" lon="-0.27050167">
        <ele>17.973</ele>
        <time>2020-02-08T07:31:49.802Z</time>
      </trkpt>
      <trkpt lat="39.06493167" lon="-0.27055167">
        <ele>18.973</ele>
        <time>2020-02-08T07:31:50.802Z</time>
      </trkpt>
      <trkpt lat="39.06493167" lon="-0.27055167">
        <ele>18.973</ele>
        <time>2020-02-08T07:31:51.802Z</time>
      </trkpt>
      <trkpt lat="39.065045" lon="-0.2706">
        <ele>18.973</ele>
        <time>2020-02-08T07:31:52.802Z</time>
      </trkpt>
      <trkpt lat="39.06510167" lon="-0.270625">
        <ele>18.973</ele>
        <time>2020-02-08T07:31:53.802Z</time>
      </trkpt>
      <trkpt lat="39.06510167" lon="-0.270625">
        <ele>18.973</ele>
        <time>2020-02-08T07:31:54.802Z</time>
      </trkpt>
      <trkpt lat="39.06521667" lon="-0.27067667">
        <ele>18.973</ele>
        <time>2020-02-08T07:31:55.802Z</time>
      </trkpt>
      <trkpt lat="39.06521667" lon="-0.27067667">
        <ele>18.973</ele>
        <time>2020-02-08T07:31:56.802Z</time>
      </trkpt>
      <trkpt lat="39.06532833" lon="-0.27073">
        <ele>18.973</ele>
        <time>2020-02-08T07:31:57.802Z</time>
      </trkpt>
      <trkpt lat="39.065385" lon="-0.27075667">
        <ele>18.973</ele>
        <time>2020-02-08T07:31:58.802Z</time>
      </trkpt>
      <trkpt lat="39.065385" lon="-0.27075667">
        <ele>18.973</ele>
        <time>2020-02-08T07:31:59.802Z</time>
      </trkpt>
      <trkpt lat="39.06550333" lon="-0.27081667">
        <ele>18.973</ele>
        <time>2020-02-08T07:32:00.802Z</time>
      </trkpt>
      <trkpt lat="39.06550333" lon="-0.27081667">
        <ele>18.973</ele>
        <time>2020-02-08T07:32:01.802Z</time>
      </trkpt>
      <trkpt lat="39.065625" lon="-0.27087667">
        <ele>18.973</ele>
        <time>2020-02-08T07:32:02.802Z</time>
      </trkpt>
      <trkpt lat="39.065625" lon="-0.27087667">
        <ele>18.973</ele>
        <time>2020-02-08T07:32:03.802Z</time>
      </trkpt>
      <trkpt lat="39.06574" lon="-0.27092667">
        <ele>18.973</ele>
        <time>2020-02-08T07:32:04.802Z</time>
      </trkpt>
      <trkpt lat="39.06574" lon="-0.27092667">
        <ele>18.973</ele>
        <time>2020-02-08T07:32:05.802Z</time>
      </trkpt>
      <trkpt lat="39.06585667" lon="-0.27098167">
        <ele>18.973</ele>
        <time>2020-02-08T07:32:06.802Z</time>
      </trkpt>
      <trkpt lat="39.06585667" lon="-0.27098167">
        <ele>18.973</ele>
        <time>2020-02-08T07:32:07.802Z</time>
      </trkpt>
      <trkpt lat="39.06597" lon="-0.27103167">
        <ele>18.973</ele>
        <time>2020-02-08T07:32:08.802Z</time>
      </trkpt>
      <trkpt lat="39.06597" lon="-0.27103167">
        <ele>18.973</ele>
        <time>2020-02-08T07:32:09.802Z</time>
      </trkpt>
      <trkpt lat="39.06608" lon="-0.271085">
        <ele>18.973</ele>
        <time>2020-02-08T07:32:10.802Z</time>
      </trkpt>
      <trkpt lat="39.06608" lon="-0.271085">
        <ele>18.973</ele>
        <time>2020-02-08T07:32:11.802Z</time>
      </trkpt>
      <trkpt lat="39.066195" lon="-0.27112667">
        <ele>18.973</ele>
        <time>2020-02-08T07:32:12.802Z</time>
      </trkpt>
      <trkpt lat="39.066195" lon="-0.27112667">
        <ele>18.973</ele>
        <time>2020-02-08T07:32:13.802Z</time>
      </trkpt>
      <trkpt lat="39.066275" lon="-0.27117">
        <ele>18.973</ele>
        <time>2020-02-08T07:32:14.802Z</time>
      </trkpt>
      <trkpt lat="39.066275" lon="-0.27117">
        <ele>18.973</ele>
        <time>2020-02-08T07:32:15.802Z</time>
      </trkpt>
      <trkpt lat="39.06630833" lon="-0.271225">
        <ele>18.973</ele>
        <time>2020-02-08T07:32:16.802Z</time>
      </trkpt>
      <trkpt lat="39.06630833" lon="-0.271225">
        <ele>18.973</ele>
        <time>2020-02-08T07:32:17.802Z</time>
      </trkpt>
      <trkpt lat="39.06629333" lon="-0.27132333">
        <ele>18.973</ele>
        <time>2020-02-08T07:32:18.802Z</time>
      </trkpt>
      <trkpt lat="39.06629333" lon="-0.27132333">
        <ele>17.973</ele>
        <time>2020-02-08T07:32:19.802Z</time>
      </trkpt>
      <trkpt lat="39.066245" lon="-0.27142">
        <ele>17.973</ele>
        <time>2020-02-08T07:32:20.802Z</time>
      </trkpt>
      <trkpt lat="39.066245" lon="-0.27142">
        <ele>17.973</ele>
        <time>2020-02-08T07:32:21.802Z</time>
      </trkpt>
      <trkpt lat="39.06619833" lon="-0.27151833">
        <ele>17.973</ele>
        <time>2020-02-08T07:32:22.802Z</time>
      </trkpt>
      <trkpt lat="39.06619833" lon="-0.27151833">
        <ele>17.973</ele>
        <time>2020-02-08T07:32:23.802Z</time>
      </trkpt>
      <trkpt lat="39.06615333" lon="-0.27162167">
        <ele>17.973</ele>
        <time>2020-02-08T07:32:24.802Z</time>
      </trkpt>
      <trkpt lat="39.06615333" lon="-0.27162167">
        <ele>17.973</ele>
        <time>2020-02-08T07:32:25.802Z</time>
      </trkpt>
      <trkpt lat="39.066105" lon="-0.27172833">
        <ele>17.973</ele>
        <time>2020-02-08T07:32:26.802Z</time>
      </trkpt>
      <trkpt lat="39.066105" lon="-0.27172833">
        <ele>17.973</ele>
        <time>2020-02-08T07:32:27.802Z</time>
      </trkpt>
      <trkpt lat="39.066055" lon="-0.27183167">
        <ele>17.973</ele>
        <time>2020-02-08T07:32:28.802Z</time>
      </trkpt>
      <trkpt lat="39.066055" lon="-0.27183167">
        <ele>17.973</ele>
        <time>2020-02-08T07:32:29.802Z</time>
      </trkpt>
      <trkpt lat="39.06600667" lon="-0.27194167">
        <ele>17.973</ele>
        <time>2020-02-08T07:32:30.802Z</time>
      </trkpt>
      <trkpt lat="39.06600667" lon="-0.27194167">
        <ele>17.973</ele>
        <time>2020-02-08T07:32:31.802Z</time>
      </trkpt>
      <trkpt lat="39.06596" lon="-0.27205833">
        <ele>17.973</ele>
        <time>2020-02-08T07:32:32.802Z</time>
      </trkpt>
      <trkpt lat="39.06596" lon="-0.27205833">
        <ele>18.973</ele>
        <time>2020-02-08T07:32:33.802Z</time>
      </trkpt>
      <trkpt lat="39.06591" lon="-0.272175">
        <ele>18.973</ele>
        <time>2020-02-08T07:32:34.802Z</time>
      </trkpt>
      <trkpt lat="39.06591" lon="-0.272175">
        <ele>18.973</ele>
        <time>2020-02-08T07:32:35.802Z</time>
      </trkpt>
      <trkpt lat="39.06585833" lon="-0.27229167">
        <ele>18.973</ele>
        <time>2020-02-08T07:32:36.802Z</time>
      </trkpt>
      <trkpt lat="39.06585833" lon="-0.27229167">
        <ele>18.973</ele>
        <time>2020-02-08T07:32:37.802Z</time>
      </trkpt>
      <trkpt lat="39.065805" lon="-0.27241">
        <ele>18.973</ele>
        <time>2020-02-08T07:32:38.802Z</time>
      </trkpt>
      <trkpt lat="39.06577667" lon="-0.27247">
        <ele>18.973</ele>
        <time>2020-02-08T07:32:39.802Z</time>
      </trkpt>
      <trkpt lat="39.06577667" lon="-0.27247">
        <ele>18.973</ele>
        <time>2020-02-08T07:32:40.802Z</time>
      </trkpt>
      <trkpt lat="39.06571833" lon="-0.272585">
        <ele>18.973</ele>
        <time>2020-02-08T07:32:41.802Z</time>
      </trkpt>
      <trkpt lat="39.06568833" lon="-0.27264333">
        <ele>18.973</ele>
        <time>2020-02-08T07:32:42.802Z</time>
      </trkpt>
      <trkpt lat="39.06568833" lon="-0.27264333">
        <ele>18.973</ele>
        <time>2020-02-08T07:32:43.802Z</time>
      </trkpt>
      <trkpt lat="39.065625" lon="-0.27275333">
        <ele>18.973</ele>
        <time>2020-02-08T07:32:44.802Z</time>
      </trkpt>
      <trkpt lat="39.065625" lon="-0.27275333">
        <ele>18.973</ele>
        <time>2020-02-08T07:32:45.802Z</time>
      </trkpt>
      <trkpt lat="39.06555333" lon="-0.27286167">
        <ele>18.973</ele>
        <time>2020-02-08T07:32:46.802Z</time>
      </trkpt>
      <trkpt lat="39.06555333" lon="-0.27286167">
        <ele>18.973</ele>
        <time>2020-02-08T07:32:47.802Z</time>
      </trkpt>
      <trkpt lat="39.06547333" lon="-0.27296">
        <ele>18.973</ele>
        <time>2020-02-08T07:32:48.802Z</time>
      </trkpt>
      <trkpt lat="39.06547333" lon="-0.27296">
        <ele>18.973</ele>
        <time>2020-02-08T07:32:49.802Z</time>
      </trkpt>
      <trkpt lat="39.06539333" lon="-0.27305333">
        <ele>18.973</ele>
        <time>2020-02-08T07:32:50.802Z</time>
      </trkpt>
      <trkpt lat="39.06539333" lon="-0.27305333">
        <ele>18.973</ele>
        <time>2020-02-08T07:32:51.802Z</time>
      </trkpt>
      <trkpt lat="39.06531167" lon="-0.273145">
        <ele>18.973</ele>
        <time>2020-02-08T07:32:52.802Z</time>
      </trkpt>
      <trkpt lat="39.06531167" lon="-0.273145">
        <ele>18.973</ele>
        <time>2020-02-08T07:32:53.802Z</time>
      </trkpt>
      <trkpt lat="39.06522833" lon="-0.27324167">
        <ele>18.973</ele>
        <time>2020-02-08T07:32:54.802Z</time>
      </trkpt>
      <trkpt lat="39.06522833" lon="-0.27324167">
        <ele>18.973</ele>
        <time>2020-02-08T07:32:55.802Z</time>
      </trkpt>
      <trkpt lat="39.06514667" lon="-0.27333667">
        <ele>18.973</ele>
        <time>2020-02-08T07:32:56.802Z</time>
      </trkpt>
      <trkpt lat="39.06510333" lon="-0.27338">
        <ele>18.973</ele>
        <time>2020-02-08T07:32:57.802Z</time>
      </trkpt>
      <trkpt lat="39.06510333" lon="-0.27338">
        <ele>18.973</ele>
        <time>2020-02-08T07:32:58.802Z</time>
      </trkpt>
      <trkpt lat="39.06501833" lon="-0.27346667">
        <ele>18.973</ele>
        <time>2020-02-08T07:32:59.802Z</time>
      </trkpt>
      <trkpt lat="39.06497" lon="-0.27350833">
        <ele>18.973</ele>
        <time>2020-02-08T07:33:00.802Z</time>
      </trkpt>
      <trkpt lat="39.06497" lon="-0.27350833">
        <ele>18.973</ele>
        <time>2020-02-08T07:33:01.802Z</time>
      </trkpt>
      <trkpt lat="39.06488333" lon="-0.27359833">
        <ele>18.973</ele>
        <time>2020-02-08T07:33:02.802Z</time>
      </trkpt>
      <trkpt lat="39.06488333" lon="-0.27359833">
        <ele>19.973</ele>
        <time>2020-02-08T07:33:03.802Z</time>
      </trkpt>
      <trkpt lat="39.06479667" lon="-0.273695">
        <ele>19.973</ele>
        <time>2020-02-08T07:33:04.802Z</time>
      </trkpt>
      <trkpt lat="39.06479667" lon="-0.273695">
        <ele>19.973</ele>
        <time>2020-02-08T07:33:05.802Z</time>
      </trkpt>
      <trkpt lat="39.06471667" lon="-0.27379833">
        <ele>19.973</ele>
        <time>2020-02-08T07:33:06.802Z</time>
      </trkpt>
      <trkpt lat="39.06471667" lon="-0.27379833">
        <ele>19.973</ele>
        <time>2020-02-08T07:33:07.802Z</time>
      </trkpt>
      <trkpt lat="39.06463333" lon="-0.2739">
        <ele>19.973</ele>
        <time>2020-02-08T07:33:08.802Z</time>
      </trkpt>
      <trkpt lat="39.06463333" lon="-0.2739">
        <ele>19.973</ele>
        <time>2020-02-08T07:33:09.802Z</time>
      </trkpt>
      <trkpt lat="39.06454833" lon="-0.274005">
        <ele>19.973</ele>
        <time>2020-02-08T07:33:10.802Z</time>
      </trkpt>
      <trkpt lat="39.06454833" lon="-0.274005">
        <ele>19.973</ele>
        <time>2020-02-08T07:33:11.802Z</time>
      </trkpt>
      <trkpt lat="39.06446333" lon="-0.27410667">
        <ele>19.973</ele>
        <time>2020-02-08T07:33:12.802Z</time>
      </trkpt>
      <trkpt lat="39.06446333" lon="-0.27410667">
        <ele>19.973</ele>
        <time>2020-02-08T07:33:13.802Z</time>
      </trkpt>
      <trkpt lat="39.064375" lon="-0.27420667">
        <ele>19.973</ele>
        <time>2020-02-08T07:33:14.802Z</time>
      </trkpt>
      <trkpt lat="39.064375" lon="-0.27420667">
        <ele>19.973</ele>
        <time>2020-02-08T07:33:15.802Z</time>
      </trkpt>
      <trkpt lat="39.06428167" lon="-0.27429333">
        <ele>19.973</ele>
        <time>2020-02-08T07:33:16.802Z</time>
      </trkpt>
      <trkpt lat="39.06428167" lon="-0.27429333">
        <ele>19.973</ele>
        <time>2020-02-08T07:33:17.802Z</time>
      </trkpt>
      <trkpt lat="39.06419167" lon="-0.27439">
        <ele>19.973</ele>
        <time>2020-02-08T07:33:18.802Z</time>
      </trkpt>
      <trkpt lat="39.06419167" lon="-0.27439">
        <ele>19.973</ele>
        <time>2020-02-08T07:33:19.802Z</time>
      </trkpt>
      <trkpt lat="39.064095" lon="-0.27447667">
        <ele>19.973</ele>
        <time>2020-02-08T07:33:20.802Z</time>
      </trkpt>
      <trkpt lat="39.064095" lon="-0.27447667">
        <ele>19.973</ele>
        <time>2020-02-08T07:33:21.802Z</time>
      </trkpt>
      <trkpt lat="39.06399667" lon="-0.27456167">
        <ele>19.973</ele>
        <time>2020-02-08T07:33:22.802Z</time>
      </trkpt>
      <trkpt lat="39.06399667" lon="-0.27456167">
        <ele>19.973</ele>
        <time>2020-02-08T07:33:23.802Z</time>
      </trkpt>
      <trkpt lat="39.063915" lon="-0.27466333">
        <ele>19.973</ele>
        <time>2020-02-08T07:33:24.802Z</time>
      </trkpt>
      <trkpt lat="39.063915" lon="-0.27466333">
        <ele>19.973</ele>
        <time>2020-02-08T07:33:25.802Z</time>
      </trkpt>
      <trkpt lat="39.06383333" lon="-0.27477167">
        <ele>19.973</ele>
        <time>2020-02-08T07:33:26.802Z</time>
      </trkpt>
      <trkpt lat="39.06379167" lon="-0.27482333">
        <ele>19.973</ele>
        <time>2020-02-08T07:33:27.802Z</time>
      </trkpt>
      <trkpt lat="39.06379167" lon="-0.27482333">
        <ele>19.973</ele>
        <time>2020-02-08T07:33:28.802Z</time>
      </trkpt>
      <trkpt lat="39.063705" lon="-0.27492">
        <ele>19.973</ele>
        <time>2020-02-08T07:33:29.802Z</time>
      </trkpt>
      <trkpt lat="39.06365833" lon="-0.27496667">
        <ele>19.973</ele>
        <time>2020-02-08T07:33:30.802Z</time>
      </trkpt>
      <trkpt lat="39.06361333" lon="-0.27501333">
        <ele>19.973</ele>
        <time>2020-02-08T07:33:31.802Z</time>
      </trkpt>
      <trkpt lat="39.06361333" lon="-0.27501333">
        <ele>19.973</ele>
        <time>2020-02-08T07:33:32.802Z</time>
      </trkpt>
      <trkpt lat="39.06351167" lon="-0.27510167">
        <ele>19.973</ele>
        <time>2020-02-08T07:33:33.802Z</time>
      </trkpt>
      <trkpt lat="39.06351167" lon="-0.27510167">
        <ele>19.973</ele>
        <time>2020-02-08T07:33:34.802Z</time>
      </trkpt>
      <trkpt lat="39.06341667" lon="-0.275195">
        <ele>19.973</ele>
        <time>2020-02-08T07:33:35.802Z</time>
      </trkpt>
      <trkpt lat="39.06337833" lon="-0.27524833">
        <ele>20.973</ele>
        <time>2020-02-08T07:33:36.802Z</time>
      </trkpt>
      <trkpt lat="39.06337833" lon="-0.27524833">
        <ele>20.973</ele>
        <time>2020-02-08T07:33:37.802Z</time>
      </trkpt>
      <trkpt lat="39.06330833" lon="-0.27536167">
        <ele>20.973</ele>
        <time>2020-02-08T07:33:38.802Z</time>
      </trkpt>
      <trkpt lat="39.06330833" lon="-0.27536167">
        <ele>20.973</ele>
        <time>2020-02-08T07:33:39.802Z</time>
      </trkpt>
      <trkpt lat="39.06323" lon="-0.27546833">
        <ele>20.973</ele>
        <time>2020-02-08T07:33:40.802Z</time>
      </trkpt>
      <trkpt lat="39.06323" lon="-0.27546833">
        <ele>20.973</ele>
        <time>2020-02-08T07:33:41.802Z</time>
      </trkpt>
      <trkpt lat="39.06315667" lon="-0.27558167">
        <ele>20.973</ele>
        <time>2020-02-08T07:33:42.802Z</time>
      </trkpt>
      <trkpt lat="39.06312" lon="-0.275635">
        <ele>20.973</ele>
        <time>2020-02-08T07:33:43.802Z</time>
      </trkpt>
      <trkpt lat="39.06308333" lon="-0.27568833">
        <ele>20.973</ele>
        <time>2020-02-08T07:33:44.802Z</time>
      </trkpt>
      <trkpt lat="39.06308333" lon="-0.27568833">
        <ele>20.973</ele>
        <time>2020-02-08T07:33:45.802Z</time>
      </trkpt>
      <trkpt lat="39.06299667" lon="-0.27578167">
        <ele>20.973</ele>
        <time>2020-02-08T07:33:46.802Z</time>
      </trkpt>
      <trkpt lat="39.06299667" lon="-0.27578167">
        <ele>20.973</ele>
        <time>2020-02-08T07:33:47.802Z</time>
      </trkpt>
      <trkpt lat="39.06291667" lon="-0.27588333">
        <ele>20.973</ele>
        <time>2020-02-08T07:33:48.802Z</time>
      </trkpt>
      <trkpt lat="39.06291667" lon="-0.27588333">
        <ele>21.973</ele>
        <time>2020-02-08T07:33:49.802Z</time>
      </trkpt>
      <trkpt lat="39.06282667" lon="-0.27596833">
        <ele>21.973</ele>
        <time>2020-02-08T07:33:50.802Z</time>
      </trkpt>
      <trkpt lat="39.06282667" lon="-0.27596833">
        <ele>21.973</ele>
        <time>2020-02-08T07:33:51.802Z</time>
      </trkpt>
      <trkpt lat="39.06273833" lon="-0.27605333">
        <ele>21.973</ele>
        <time>2020-02-08T07:33:52.802Z</time>
      </trkpt>
      <trkpt lat="39.06273833" lon="-0.27605333">
        <ele>21.973</ele>
        <time>2020-02-08T07:33:53.802Z</time>
      </trkpt>
      <trkpt lat="39.06265" lon="-0.27614167">
        <ele>21.973</ele>
        <time>2020-02-08T07:33:54.802Z</time>
      </trkpt>
      <trkpt lat="39.06265" lon="-0.27614167">
        <ele>21.973</ele>
        <time>2020-02-08T07:33:55.802Z</time>
      </trkpt>
      <trkpt lat="39.06256667" lon="-0.27625833">
        <ele>21.973</ele>
        <time>2020-02-08T07:33:56.802Z</time>
      </trkpt>
      <trkpt lat="39.062525" lon="-0.27630667">
        <ele>21.973</ele>
        <time>2020-02-08T07:33:57.802Z</time>
      </trkpt>
      <trkpt lat="39.062525" lon="-0.27630667">
        <ele>21.973</ele>
        <time>2020-02-08T07:33:58.802Z</time>
      </trkpt>
      <trkpt lat="39.06243833" lon="-0.276385">
        <ele>21.973</ele>
        <time>2020-02-08T07:33:59.802Z</time>
      </trkpt>
      <trkpt lat="39.06239167" lon="-0.27642333">
        <ele>21.973</ele>
        <time>2020-02-08T07:34:00.802Z</time>
      </trkpt>
      <trkpt lat="39.06239167" lon="-0.27642333">
        <ele>21.973</ele>
        <time>2020-02-08T07:34:01.802Z</time>
      </trkpt>
      <trkpt lat="39.06231333" lon="-0.27651">
        <ele>21.973</ele>
        <time>2020-02-08T07:34:02.802Z</time>
      </trkpt>
      <trkpt lat="39.06231333" lon="-0.27651">
        <ele>21.973</ele>
        <time>2020-02-08T07:34:03.802Z</time>
      </trkpt>
      <trkpt lat="39.06223" lon="-0.27659">
        <ele>21.973</ele>
        <time>2020-02-08T07:34:04.802Z</time>
      </trkpt>
      <trkpt lat="39.06223" lon="-0.27659">
        <ele>21.973</ele>
        <time>2020-02-08T07:34:05.802Z</time>
      </trkpt>
      <trkpt lat="39.06214667" lon="-0.276675">
        <ele>21.973</ele>
        <time>2020-02-08T07:34:06.802Z</time>
      </trkpt>
      <trkpt lat="39.06214667" lon="-0.276675">
        <ele>21.973</ele>
        <time>2020-02-08T07:34:07.802Z</time>
      </trkpt>
      <trkpt lat="39.06206" lon="-0.27675833">
        <ele>21.973</ele>
        <time>2020-02-08T07:34:08.802Z</time>
      </trkpt>
      <trkpt lat="39.06206" lon="-0.27675833">
        <ele>21.973</ele>
        <time>2020-02-08T07:34:09.802Z</time>
      </trkpt>
      <trkpt lat="39.06197667" lon="-0.27685333">
        <ele>21.973</ele>
        <time>2020-02-08T07:34:10.802Z</time>
      </trkpt>
      <trkpt lat="39.061935" lon="-0.27690333">
        <ele>21.973</ele>
        <time>2020-02-08T07:34:11.802Z</time>
      </trkpt>
      <trkpt lat="39.06189333" lon="-0.27694833">
        <ele>21.973</ele>
        <time>2020-02-08T07:34:12.802Z</time>
      </trkpt>
      <trkpt lat="39.06189333" lon="-0.27694833">
        <ele>21.973</ele>
        <time>2020-02-08T07:34:13.802Z</time>
      </trkpt>
      <trkpt lat="39.06181167" lon="-0.27705">
        <ele>21.973</ele>
        <time>2020-02-08T07:34:14.802Z</time>
      </trkpt>
      <trkpt lat="39.06181167" lon="-0.27705">
        <ele>21.973</ele>
        <time>2020-02-08T07:34:15.802Z</time>
      </trkpt>
      <trkpt lat="39.06173" lon="-0.27715">
        <ele>21.973</ele>
        <time>2020-02-08T07:34:16.802Z</time>
      </trkpt>
      <trkpt lat="39.06173" lon="-0.27715">
        <ele>21.973</ele>
        <time>2020-02-08T07:34:17.802Z</time>
      </trkpt>
      <trkpt lat="39.06164667" lon="-0.27725167">
        <ele>21.973</ele>
        <time>2020-02-08T07:34:18.802Z</time>
      </trkpt>
      <trkpt lat="39.06160833" lon="-0.27730333">
        <ele>21.973</ele>
        <time>2020-02-08T07:34:19.802Z</time>
      </trkpt>
      <trkpt lat="39.06156833" lon="-0.27735333">
        <ele>21.973</ele>
        <time>2020-02-08T07:34:20.802Z</time>
      </trkpt>
      <trkpt lat="39.06156833" lon="-0.27735333">
        <ele>21.973</ele>
        <time>2020-02-08T07:34:21.802Z</time>
      </trkpt>
      <trkpt lat="39.06149667" lon="-0.277455">
        <ele>21.973</ele>
        <time>2020-02-08T07:34:22.802Z</time>
      </trkpt>
      <trkpt lat="39.06149667" lon="-0.277455">
        <ele>21.973</ele>
        <time>2020-02-08T07:34:23.802Z</time>
      </trkpt>
      <trkpt lat="39.061425" lon="-0.277555">
        <ele>21.973</ele>
        <time>2020-02-08T07:34:24.802Z</time>
      </trkpt>
      <trkpt lat="39.061425" lon="-0.277555">
        <ele>21.973</ele>
        <time>2020-02-08T07:34:25.802Z</time>
      </trkpt>
      <trkpt lat="39.06136167" lon="-0.27765667">
        <ele>21.973</ele>
        <time>2020-02-08T07:34:26.802Z</time>
      </trkpt>
      <trkpt lat="39.06136167" lon="-0.27765667">
        <ele>21.973</ele>
        <time>2020-02-08T07:34:27.802Z</time>
      </trkpt>
      <trkpt lat="39.06129" lon="-0.27776">
        <ele>21.973</ele>
        <time>2020-02-08T07:34:28.802Z</time>
      </trkpt>
      <trkpt lat="39.06125333" lon="-0.277815">
        <ele>21.973</ele>
        <time>2020-02-08T07:34:29.802Z</time>
      </trkpt>
      <trkpt lat="39.06121667" lon="-0.27786667">
        <ele>21.973</ele>
        <time>2020-02-08T07:34:30.802Z</time>
      </trkpt>
      <trkpt lat="39.06121667" lon="-0.27786667">
        <ele>21.973</ele>
        <time>2020-02-08T07:34:31.802Z</time>
      </trkpt>
      <trkpt lat="39.06114667" lon="-0.27796833">
        <ele>21.973</ele>
        <time>2020-02-08T07:34:32.802Z</time>
      </trkpt>
      <trkpt lat="39.06114667" lon="-0.27796833">
        <ele>21.973</ele>
        <time>2020-02-08T07:34:33.802Z</time>
      </trkpt>
      <trkpt lat="39.061075" lon="-0.27806667">
        <ele>21.973</ele>
        <time>2020-02-08T07:34:34.802Z</time>
      </trkpt>
      <trkpt lat="39.06103833" lon="-0.27811667">
        <ele>21.973</ele>
        <time>2020-02-08T07:34:35.802Z</time>
      </trkpt>
      <trkpt lat="39.06103833" lon="-0.27811667">
        <ele>21.973</ele>
        <time>2020-02-08T07:34:36.802Z</time>
      </trkpt>
      <trkpt lat="39.06096833" lon="-0.27822">
        <ele>21.973</ele>
        <time>2020-02-08T07:34:37.802Z</time>
      </trkpt>
      <trkpt lat="39.06096833" lon="-0.27822">
        <ele>21.973</ele>
        <time>2020-02-08T07:34:38.802Z</time>
      </trkpt>
      <trkpt lat="39.06089833" lon="-0.278325">
        <ele>21.973</ele>
        <time>2020-02-08T07:34:39.802Z</time>
      </trkpt>
      <trkpt lat="39.06089833" lon="-0.278325">
        <ele>21.973</ele>
        <time>2020-02-08T07:34:40.802Z</time>
      </trkpt>
      <trkpt lat="39.060825" lon="-0.27842833">
        <ele>21.973</ele>
        <time>2020-02-08T07:34:41.802Z</time>
      </trkpt>
      <trkpt lat="39.06078667" lon="-0.27848">
        <ele>21.973</ele>
        <time>2020-02-08T07:34:42.802Z</time>
      </trkpt>
      <trkpt lat="39.06078667" lon="-0.27848">
        <ele>21.973</ele>
        <time>2020-02-08T07:34:43.802Z</time>
      </trkpt>
      <trkpt lat="39.06071" lon="-0.278575">
        <ele>22.973</ele>
        <time>2020-02-08T07:34:44.802Z</time>
      </trkpt>
      <trkpt lat="39.06071" lon="-0.278575">
        <ele>22.973</ele>
        <time>2020-02-08T07:34:45.802Z</time>
      </trkpt>
      <trkpt lat="39.06063667" lon="-0.27867667">
        <ele>22.973</ele>
        <time>2020-02-08T07:34:46.802Z</time>
      </trkpt>
      <trkpt lat="39.06059833" lon="-0.27872333">
        <ele>22.973</ele>
        <time>2020-02-08T07:34:47.802Z</time>
      </trkpt>
      <trkpt lat="39.06056333" lon="-0.27877">
        <ele>22.973</ele>
        <time>2020-02-08T07:34:48.802Z</time>
      </trkpt>
      <trkpt lat="39.06056333" lon="-0.27877">
        <ele>22.973</ele>
        <time>2020-02-08T07:34:49.802Z</time>
      </trkpt>
      <trkpt lat="39.06048833" lon="-0.27886667">
        <ele>22.973</ele>
        <time>2020-02-08T07:34:50.802Z</time>
      </trkpt>
      <trkpt lat="39.06048833" lon="-0.27886667">
        <ele>22.973</ele>
        <time>2020-02-08T07:34:51.802Z</time>
      </trkpt>
      <trkpt lat="39.060415" lon="-0.27897333">
        <ele>22.973</ele>
        <time>2020-02-08T07:34:52.802Z</time>
      </trkpt>
      <trkpt lat="39.060415" lon="-0.27897333">
        <ele>22.973</ele>
        <time>2020-02-08T07:34:53.802Z</time>
      </trkpt>
      <trkpt lat="39.060335" lon="-0.27907167">
        <ele>22.973</ele>
        <time>2020-02-08T07:34:54.802Z</time>
      </trkpt>
      <trkpt lat="39.060335" lon="-0.27907167">
        <ele>22.973</ele>
        <time>2020-02-08T07:34:55.802Z</time>
      </trkpt>
      <trkpt lat="39.06026" lon="-0.279175">
        <ele>22.973</ele>
        <time>2020-02-08T07:34:56.802Z</time>
      </trkpt>
      <trkpt lat="39.06022167" lon="-0.27923">
        <ele>22.973</ele>
        <time>2020-02-08T07:34:57.802Z</time>
      </trkpt>
      <trkpt lat="39.06022167" lon="-0.27923">
        <ele>22.973</ele>
        <time>2020-02-08T07:34:58.802Z</time>
      </trkpt>
      <trkpt lat="39.06014833" lon="-0.27933667">
        <ele>22.973</ele>
        <time>2020-02-08T07:34:59.802Z</time>
      </trkpt>
      <trkpt lat="39.06011167" lon="-0.27939">
        <ele>22.973</ele>
        <time>2020-02-08T07:35:00.802Z</time>
      </trkpt>
      <trkpt lat="39.06011167" lon="-0.27939">
        <ele>22.973</ele>
        <time>2020-02-08T07:35:01.802Z</time>
      </trkpt>
      <trkpt lat="39.06003833" lon="-0.27950333">
        <ele>22.973</ele>
        <time>2020-02-08T07:35:02.802Z</time>
      </trkpt>
      <trkpt lat="39.06003833" lon="-0.27950333">
        <ele>22.973</ele>
        <time>2020-02-08T07:35:03.802Z</time>
      </trkpt>
      <trkpt lat="39.05996833" lon="-0.279615">
        <ele>23.973</ele>
        <time>2020-02-08T07:35:04.802Z</time>
      </trkpt>
      <trkpt lat="39.05996833" lon="-0.279615">
        <ele>23.973</ele>
        <time>2020-02-08T07:35:05.802Z</time>
      </trkpt>
      <trkpt lat="39.059895" lon="-0.27972167">
        <ele>23.973</ele>
        <time>2020-02-08T07:35:06.802Z</time>
      </trkpt>
      <trkpt lat="39.059895" lon="-0.27972167">
        <ele>23.973</ele>
        <time>2020-02-08T07:35:07.802Z</time>
      </trkpt>
      <trkpt lat="39.059825" lon="-0.279835">
        <ele>23.973</ele>
        <time>2020-02-08T07:35:08.802Z</time>
      </trkpt>
      <trkpt lat="39.059825" lon="-0.279835">
        <ele>23.973</ele>
        <time>2020-02-08T07:35:09.802Z</time>
      </trkpt>
      <trkpt lat="39.05975333" lon="-0.27994833">
        <ele>23.973</ele>
        <time>2020-02-08T07:35:10.802Z</time>
      </trkpt>
      <trkpt lat="39.05975333" lon="-0.27994833">
        <ele>23.973</ele>
        <time>2020-02-08T07:35:11.802Z</time>
      </trkpt>
      <trkpt lat="39.05968" lon="-0.28006167">
        <ele>23.973</ele>
        <time>2020-02-08T07:35:12.802Z</time>
      </trkpt>
      <trkpt lat="39.05968" lon="-0.28006167">
        <ele>23.973</ele>
        <time>2020-02-08T07:35:13.802Z</time>
      </trkpt>
      <trkpt lat="39.05960333" lon="-0.280175">
        <ele>23.973</ele>
        <time>2020-02-08T07:35:14.802Z</time>
      </trkpt>
      <trkpt lat="39.05960333" lon="-0.280175">
        <ele>23.973</ele>
        <time>2020-02-08T07:35:15.802Z</time>
      </trkpt>
      <trkpt lat="39.05960333" lon="-0.280175">
        <ele>23.973</ele>
        <time>2020-02-08T07:35:16.802Z</time>
      </trkpt>
      <trkpt lat="39.05952833" lon="-0.28029167">
        <ele>23.973</ele>
        <time>2020-02-08T07:35:17.802Z</time>
      </trkpt>
      <trkpt lat="39.05945" lon="-0.28041167">
        <ele>23.973</ele>
        <time>2020-02-08T07:35:18.802Z</time>
      </trkpt>
      <trkpt lat="39.05945" lon="-0.28041167">
        <ele>23.973</ele>
        <time>2020-02-08T07:35:19.802Z</time>
      </trkpt>
      <trkpt lat="39.05937333" lon="-0.280535">
        <ele>23.973</ele>
        <time>2020-02-08T07:35:20.802Z</time>
      </trkpt>
      <trkpt lat="39.05937333" lon="-0.280535">
        <ele>23.973</ele>
        <time>2020-02-08T07:35:21.802Z</time>
      </trkpt>
      <trkpt lat="39.05929833" lon="-0.28065">
        <ele>23.973</ele>
        <time>2020-02-08T07:35:22.802Z</time>
      </trkpt>
      <trkpt lat="39.05929833" lon="-0.28065">
        <ele>23.973</ele>
        <time>2020-02-08T07:35:23.802Z</time>
      </trkpt>
      <trkpt lat="39.05921833" lon="-0.28075667">
        <ele>23.973</ele>
        <time>2020-02-08T07:35:24.802Z</time>
      </trkpt>
      <trkpt lat="39.05921833" lon="-0.28075667">
        <ele>23.973</ele>
        <time>2020-02-08T07:35:25.802Z</time>
      </trkpt>
      <trkpt lat="39.05914" lon="-0.28086">
        <ele>23.973</ele>
        <time>2020-02-08T07:35:26.802Z</time>
      </trkpt>
      <trkpt lat="39.05914" lon="-0.28086">
        <ele>23.973</ele>
        <time>2020-02-08T07:35:27.802Z</time>
      </trkpt>
      <trkpt lat="39.05905833" lon="-0.28095667">
        <ele>23.973</ele>
        <time>2020-02-08T07:35:28.802Z</time>
      </trkpt>
      <trkpt lat="39.05905833" lon="-0.28095667">
        <ele>23.973</ele>
        <time>2020-02-08T07:35:29.802Z</time>
      </trkpt>
      <trkpt lat="39.05897333" lon="-0.28104833">
        <ele>23.973</ele>
        <time>2020-02-08T07:35:30.802Z</time>
      </trkpt>
      <trkpt lat="39.05897333" lon="-0.28104833">
        <ele>23.973</ele>
        <time>2020-02-08T07:35:31.802Z</time>
      </trkpt>
      <trkpt lat="39.05888667" lon="-0.28114">
        <ele>23.973</ele>
        <time>2020-02-08T07:35:32.802Z</time>
      </trkpt>
      <trkpt lat="39.05888667" lon="-0.28114">
        <ele>24.973</ele>
        <time>2020-02-08T07:35:33.802Z</time>
      </trkpt>
      <trkpt lat="39.05880167" lon="-0.28123333">
        <ele>24.973</ele>
        <time>2020-02-08T07:35:34.802Z</time>
      </trkpt>
      <trkpt lat="39.05880167" lon="-0.28123333">
        <ele>24.973</ele>
        <time>2020-02-08T07:35:35.802Z</time>
      </trkpt>
      <trkpt lat="39.05871" lon="-0.281315">
        <ele>24.973</ele>
        <time>2020-02-08T07:35:36.802Z</time>
      </trkpt>
      <trkpt lat="39.05871" lon="-0.281315">
        <ele>24.973</ele>
        <time>2020-02-08T07:35:37.802Z</time>
      </trkpt>
      <trkpt lat="39.058635" lon="-0.28142167">
        <ele>24.973</ele>
        <time>2020-02-08T07:35:38.802Z</time>
      </trkpt>
      <trkpt lat="39.058635" lon="-0.28142167">
        <ele>24.973</ele>
        <time>2020-02-08T07:35:39.802Z</time>
      </trkpt>
      <trkpt lat="39.05856" lon="-0.281525">
        <ele>24.973</ele>
        <time>2020-02-08T07:35:40.802Z</time>
      </trkpt>
      <trkpt lat="39.05856" lon="-0.281525">
        <ele>24.973</ele>
        <time>2020-02-08T07:35:41.802Z</time>
      </trkpt>
      <trkpt lat="39.05847667" lon="-0.28162833">
        <ele>24.973</ele>
        <time>2020-02-08T07:35:42.802Z</time>
      </trkpt>
      <trkpt lat="39.05847667" lon="-0.28162833">
        <ele>24.973</ele>
        <time>2020-02-08T07:35:43.802Z</time>
      </trkpt>
      <trkpt lat="39.05839167" lon="-0.28173167">
        <ele>24.973</ele>
        <time>2020-02-08T07:35:44.802Z</time>
      </trkpt>
      <trkpt lat="39.05839167" lon="-0.28173167">
        <ele>24.973</ele>
        <time>2020-02-08T07:35:45.802Z</time>
      </trkpt>
      <trkpt lat="39.058305" lon="-0.28183167">
        <ele>24.973</ele>
        <time>2020-02-08T07:35:46.802Z</time>
      </trkpt>
      <trkpt lat="39.058305" lon="-0.28183167">
        <ele>24.973</ele>
        <time>2020-02-08T07:35:47.802Z</time>
      </trkpt>
      <trkpt lat="39.05822167" lon="-0.28193833">
        <ele>24.973</ele>
        <time>2020-02-08T07:35:48.802Z</time>
      </trkpt>
      <trkpt lat="39.05822167" lon="-0.28193833">
        <ele>24.973</ele>
        <time>2020-02-08T07:35:49.802Z</time>
      </trkpt>
      <trkpt lat="39.05815167" lon="-0.282055">
        <ele>24.973</ele>
        <time>2020-02-08T07:35:50.802Z</time>
      </trkpt>
      <trkpt lat="39.05815167" lon="-0.282055">
        <ele>24.973</ele>
        <time>2020-02-08T07:35:51.802Z</time>
      </trkpt>
      <trkpt lat="39.05808667" lon="-0.282175">
        <ele>24.973</ele>
        <time>2020-02-08T07:35:52.802Z</time>
      </trkpt>
      <trkpt lat="39.05808667" lon="-0.282175">
        <ele>24.973</ele>
        <time>2020-02-08T07:35:53.802Z</time>
      </trkpt>
      <trkpt lat="39.05802167" lon="-0.282295">
        <ele>24.973</ele>
        <time>2020-02-08T07:35:54.802Z</time>
      </trkpt>
      <trkpt lat="39.05802167" lon="-0.282295">
        <ele>24.973</ele>
        <time>2020-02-08T07:35:55.802Z</time>
      </trkpt>
      <trkpt lat="39.05795833" lon="-0.28241667">
        <ele>24.973</ele>
        <time>2020-02-08T07:35:56.802Z</time>
      </trkpt>
      <trkpt lat="39.05795833" lon="-0.28241667">
        <ele>24.973</ele>
        <time>2020-02-08T07:35:57.802Z</time>
      </trkpt>
      <trkpt lat="39.05790167" lon="-0.28254">
        <ele>24.973</ele>
        <time>2020-02-08T07:35:58.802Z</time>
      </trkpt>
      <trkpt lat="39.05787167" lon="-0.28260333">
        <ele>24.973</ele>
        <time>2020-02-08T07:35:59.802Z</time>
      </trkpt>
      <trkpt lat="39.05784167" lon="-0.28266667">
        <ele>24.973</ele>
        <time>2020-02-08T07:36:00.802Z</time>
      </trkpt>
      <trkpt lat="39.05781167" lon="-0.28273333">
        <ele>24.973</ele>
        <time>2020-02-08T07:36:01.802Z</time>
      </trkpt>
      <trkpt lat="39.05781167" lon="-0.28273333">
        <ele>24.973</ele>
        <time>2020-02-08T07:36:02.802Z</time>
      </trkpt>
      <trkpt lat="39.05775667" lon="-0.28286833">
        <ele>24.973</ele>
        <time>2020-02-08T07:36:03.802Z</time>
      </trkpt>
      <trkpt lat="39.05775667" lon="-0.28286833">
        <ele>24.973</ele>
        <time>2020-02-08T07:36:04.802Z</time>
      </trkpt>
      <trkpt lat="39.05770833" lon="-0.28300167">
        <ele>24.973</ele>
        <time>2020-02-08T07:36:05.802Z</time>
      </trkpt>
      <trkpt lat="39.05770833" lon="-0.28300167">
        <ele>24.973</ele>
        <time>2020-02-08T07:36:06.802Z</time>
      </trkpt>
      <trkpt lat="39.05765833" lon="-0.28313833">
        <ele>24.973</ele>
        <time>2020-02-08T07:36:07.802Z</time>
      </trkpt>
      <trkpt lat="39.05765833" lon="-0.28313833">
        <ele>24.973</ele>
        <time>2020-02-08T07:36:08.802Z</time>
      </trkpt>
      <trkpt lat="39.05760833" lon="-0.28327333">
        <ele>24.973</ele>
        <time>2020-02-08T07:36:09.802Z</time>
      </trkpt>
      <trkpt lat="39.05758167" lon="-0.28333333">
        <ele>24.973</ele>
        <time>2020-02-08T07:36:10.802Z</time>
      </trkpt>
      <trkpt lat="39.05758167" lon="-0.28333333">
        <ele>24.973</ele>
        <time>2020-02-08T07:36:11.802Z</time>
      </trkpt>
      <trkpt lat="39.05752167" lon="-0.28345333">
        <ele>24.973</ele>
        <time>2020-02-08T07:36:12.802Z</time>
      </trkpt>
      <trkpt lat="39.05752167" lon="-0.28345333">
        <ele>24.973</ele>
        <time>2020-02-08T07:36:13.802Z</time>
      </trkpt>
      <trkpt lat="39.05746" lon="-0.28357">
        <ele>25.973</ele>
        <time>2020-02-08T07:36:14.802Z</time>
      </trkpt>
      <trkpt lat="39.05746" lon="-0.28357">
        <ele>25.973</ele>
        <time>2020-02-08T07:36:15.802Z</time>
      </trkpt>
      <trkpt lat="39.05739667" lon="-0.28369333">
        <ele>25.973</ele>
        <time>2020-02-08T07:36:16.802Z</time>
      </trkpt>
      <trkpt lat="39.05739667" lon="-0.28369333">
        <ele>25.973</ele>
        <time>2020-02-08T07:36:17.802Z</time>
      </trkpt>
      <trkpt lat="39.05733167" lon="-0.28381667">
        <ele>25.973</ele>
        <time>2020-02-08T07:36:18.802Z</time>
      </trkpt>
      <trkpt lat="39.05733167" lon="-0.28381667">
        <ele>25.973</ele>
        <time>2020-02-08T07:36:19.802Z</time>
      </trkpt>
      <trkpt lat="39.05727" lon="-0.28393333">
        <ele>25.973</ele>
        <time>2020-02-08T07:36:20.802Z</time>
      </trkpt>
      <trkpt lat="39.05727" lon="-0.28393333">
        <ele>25.973</ele>
        <time>2020-02-08T07:36:21.802Z</time>
      </trkpt>
      <trkpt lat="39.05721" lon="-0.284055">
        <ele>25.973</ele>
        <time>2020-02-08T07:36:22.802Z</time>
      </trkpt>
      <trkpt lat="39.05721" lon="-0.284055">
        <ele>25.973</ele>
        <time>2020-02-08T07:36:23.802Z</time>
      </trkpt>
      <trkpt lat="39.05714833" lon="-0.28417333">
        <ele>26.973</ele>
        <time>2020-02-08T07:36:24.802Z</time>
      </trkpt>
      <trkpt lat="39.05714833" lon="-0.28417333">
        <ele>26.973</ele>
        <time>2020-02-08T07:36:25.802Z</time>
      </trkpt>
      <trkpt lat="39.057085" lon="-0.28428833">
        <ele>26.973</ele>
        <time>2020-02-08T07:36:26.802Z</time>
      </trkpt>
      <trkpt lat="39.057085" lon="-0.28428833">
        <ele>26.973</ele>
        <time>2020-02-08T07:36:27.802Z</time>
      </trkpt>
      <trkpt lat="39.05702" lon="-0.2844">
        <ele>26.973</ele>
        <time>2020-02-08T07:36:28.802Z</time>
      </trkpt>
      <trkpt lat="39.05702" lon="-0.2844">
        <ele>26.973</ele>
        <time>2020-02-08T07:36:29.802Z</time>
      </trkpt>
      <trkpt lat="39.056955" lon="-0.28450833">
        <ele>26.973</ele>
        <time>2020-02-08T07:36:30.802Z</time>
      </trkpt>
      <trkpt lat="39.056955" lon="-0.28450833">
        <ele>26.973</ele>
        <time>2020-02-08T07:36:31.802Z</time>
      </trkpt>
      <trkpt lat="39.05689333" lon="-0.28462">
        <ele>26.973</ele>
        <time>2020-02-08T07:36:32.802Z</time>
      </trkpt>
      <trkpt lat="39.05689333" lon="-0.28462">
        <ele>26.973</ele>
        <time>2020-02-08T07:36:33.802Z</time>
      </trkpt>
      <trkpt lat="39.056835" lon="-0.28473333">
        <ele>26.973</ele>
        <time>2020-02-08T07:36:34.802Z</time>
      </trkpt>
      <trkpt lat="39.056835" lon="-0.28473333">
        <ele>26.973</ele>
        <time>2020-02-08T07:36:35.802Z</time>
      </trkpt>
      <trkpt lat="39.05677167" lon="-0.28484333">
        <ele>26.973</ele>
        <time>2020-02-08T07:36:36.802Z</time>
      </trkpt>
      <trkpt lat="39.05677167" lon="-0.28484333">
        <ele>27.973</ele>
        <time>2020-02-08T07:36:37.802Z</time>
      </trkpt>
      <trkpt lat="39.05671167" lon="-0.28495167">
        <ele>27.973</ele>
        <time>2020-02-08T07:36:38.802Z</time>
      </trkpt>
      <trkpt lat="39.05671167" lon="-0.28495167">
        <ele>27.973</ele>
        <time>2020-02-08T07:36:39.802Z</time>
      </trkpt>
      <trkpt lat="39.05664833" lon="-0.28505833">
        <ele>27.973</ele>
        <time>2020-02-08T07:36:40.802Z</time>
      </trkpt>
      <trkpt lat="39.05662167" lon="-0.28512167">
        <ele>27.973</ele>
        <time>2020-02-08T07:36:41.802Z</time>
      </trkpt>
      <trkpt lat="39.056595" lon="-0.28517833">
        <ele>27.973</ele>
        <time>2020-02-08T07:36:42.802Z</time>
      </trkpt>
      <trkpt lat="39.056595" lon="-0.28517833">
        <ele>27.973</ele>
        <time>2020-02-08T07:36:43.802Z</time>
      </trkpt>
      <trkpt lat="39.05653333" lon="-0.28528833">
        <ele>27.973</ele>
        <time>2020-02-08T07:36:44.802Z</time>
      </trkpt>
      <trkpt lat="39.05653333" lon="-0.28528833">
        <ele>27.973</ele>
        <time>2020-02-08T07:36:45.802Z</time>
      </trkpt>
      <trkpt lat="39.05647" lon="-0.28540167">
        <ele>27.973</ele>
        <time>2020-02-08T07:36:46.802Z</time>
      </trkpt>
      <trkpt lat="39.05647" lon="-0.28540167">
        <ele>27.973</ele>
        <time>2020-02-08T07:36:47.802Z</time>
      </trkpt>
      <trkpt lat="39.05640167" lon="-0.28549833">
        <ele>27.973</ele>
        <time>2020-02-08T07:36:48.802Z</time>
      </trkpt>
      <trkpt lat="39.05640167" lon="-0.28549833">
        <ele>27.973</ele>
        <time>2020-02-08T07:36:49.802Z</time>
      </trkpt>
      <trkpt lat="39.05631833" lon="-0.28558">
        <ele>27.973</ele>
        <time>2020-02-08T07:36:50.802Z</time>
      </trkpt>
      <trkpt lat="39.05631833" lon="-0.28558">
        <ele>27.973</ele>
        <time>2020-02-08T07:36:51.802Z</time>
      </trkpt>
      <trkpt lat="39.056245" lon="-0.28567167">
        <ele>27.973</ele>
        <time>2020-02-08T07:36:52.802Z</time>
      </trkpt>
      <trkpt lat="39.056245" lon="-0.28567167">
        <ele>27.973</ele>
        <time>2020-02-08T07:36:53.802Z</time>
      </trkpt>
      <trkpt lat="39.05619" lon="-0.28577167">
        <ele>27.973</ele>
        <time>2020-02-08T07:36:54.802Z</time>
      </trkpt>
      <trkpt lat="39.05619" lon="-0.28577167">
        <ele>27.973</ele>
        <time>2020-02-08T07:36:55.802Z</time>
      </trkpt>
      <trkpt lat="39.05613167" lon="-0.28586667">
        <ele>27.973</ele>
        <time>2020-02-08T07:36:56.802Z</time>
      </trkpt>
      <trkpt lat="39.05613167" lon="-0.28586667">
        <ele>27.973</ele>
        <time>2020-02-08T07:36:57.802Z</time>
      </trkpt>
      <trkpt lat="39.05607333" lon="-0.28596333">
        <ele>27.973</ele>
        <time>2020-02-08T07:36:58.802Z</time>
      </trkpt>
      <trkpt lat="39.05604333" lon="-0.28601333">
        <ele>28.973</ele>
        <time>2020-02-08T07:36:59.802Z</time>
      </trkpt>
      <trkpt lat="39.05601667" lon="-0.286065">
        <ele>28.973</ele>
        <time>2020-02-08T07:37:00.802Z</time>
      </trkpt>
      <trkpt lat="39.05601667" lon="-0.286065">
        <ele>28.973</ele>
        <time>2020-02-08T07:37:01.802Z</time>
      </trkpt>
      <trkpt lat="39.05595667" lon="-0.286165">
        <ele>28.973</ele>
        <time>2020-02-08T07:37:02.802Z</time>
      </trkpt>
      <trkpt lat="39.05595667" lon="-0.286165">
        <ele>28.973</ele>
        <time>2020-02-08T07:37:03.802Z</time>
      </trkpt>
      <trkpt lat="39.055905" lon="-0.286275">
        <ele>28.973</ele>
        <time>2020-02-08T07:37:04.802Z</time>
      </trkpt>
      <trkpt lat="39.055905" lon="-0.286275">
        <ele>28.973</ele>
        <time>2020-02-08T07:37:05.802Z</time>
      </trkpt>
      <trkpt lat="39.05586167" lon="-0.28638833">
        <ele>28.973</ele>
        <time>2020-02-08T07:37:06.802Z</time>
      </trkpt>
      <trkpt lat="39.05586167" lon="-0.28638833">
        <ele>28.973</ele>
        <time>2020-02-08T07:37:07.802Z</time>
      </trkpt>
      <trkpt lat="39.05581833" lon="-0.28649667">
        <ele>28.973</ele>
        <time>2020-02-08T07:37:08.802Z</time>
      </trkpt>
      <trkpt lat="39.05581833" lon="-0.28649667">
        <ele>28.973</ele>
        <time>2020-02-08T07:37:09.802Z</time>
      </trkpt>
      <trkpt lat="39.05577167" lon="-0.28660333">
        <ele>28.973</ele>
        <time>2020-02-08T07:37:10.802Z</time>
      </trkpt>
      <trkpt lat="39.05575" lon="-0.28665833">
        <ele>28.973</ele>
        <time>2020-02-08T07:37:11.802Z</time>
      </trkpt>
      <trkpt lat="39.05573" lon="-0.28671333">
        <ele>28.973</ele>
        <time>2020-02-08T07:37:12.802Z</time>
      </trkpt>
      <trkpt lat="39.05570833" lon="-0.28676667">
        <ele>28.973</ele>
        <time>2020-02-08T07:37:13.802Z</time>
      </trkpt>
      <trkpt lat="39.05570833" lon="-0.28676667">
        <ele>28.973</ele>
        <time>2020-02-08T07:37:14.802Z</time>
      </trkpt>
      <trkpt lat="39.05566" lon="-0.28687">
        <ele>28.973</ele>
        <time>2020-02-08T07:37:15.802Z</time>
      </trkpt>
      <trkpt lat="39.05566" lon="-0.28687">
        <ele>28.973</ele>
        <time>2020-02-08T07:37:16.802Z</time>
      </trkpt>
      <trkpt lat="39.05560333" lon="-0.286965">
        <ele>28.973</ele>
        <time>2020-02-08T07:37:17.802Z</time>
      </trkpt>
      <trkpt lat="39.05560333" lon="-0.286965">
        <ele>28.973</ele>
        <time>2020-02-08T07:37:18.802Z</time>
      </trkpt>
      <trkpt lat="39.055545" lon="-0.28705833">
        <ele>28.973</ele>
        <time>2020-02-08T07:37:19.802Z</time>
      </trkpt>
      <trkpt lat="39.05551333" lon="-0.28710667">
        <ele>28.973</ele>
        <time>2020-02-08T07:37:20.802Z</time>
      </trkpt>
      <trkpt lat="39.05551333" lon="-0.28710667">
        <ele>28.973</ele>
        <time>2020-02-08T07:37:21.802Z</time>
      </trkpt>
      <trkpt lat="39.05545" lon="-0.28720333">
        <ele>29.973</ele>
        <time>2020-02-08T07:37:22.802Z</time>
      </trkpt>
      <trkpt lat="39.05545" lon="-0.28720333">
        <ele>29.973</ele>
        <time>2020-02-08T07:37:23.802Z</time>
      </trkpt>
      <trkpt lat="39.05538167" lon="-0.28729833">
        <ele>29.973</ele>
        <time>2020-02-08T07:37:24.802Z</time>
      </trkpt>
      <trkpt lat="39.05538167" lon="-0.28729833">
        <ele>29.973</ele>
        <time>2020-02-08T07:37:25.802Z</time>
      </trkpt>
      <trkpt lat="39.05531167" lon="-0.28738167">
        <ele>29.973</ele>
        <time>2020-02-08T07:37:26.802Z</time>
      </trkpt>
      <trkpt lat="39.05531167" lon="-0.28738167">
        <ele>29.973</ele>
        <time>2020-02-08T07:37:27.802Z</time>
      </trkpt>
      <trkpt lat="39.05523833" lon="-0.28747">
        <ele>30.973</ele>
        <time>2020-02-08T07:37:28.802Z</time>
      </trkpt>
      <trkpt lat="39.0552" lon="-0.28751167">
        <ele>30.973</ele>
        <time>2020-02-08T07:37:29.802Z</time>
      </trkpt>
      <trkpt lat="39.05515667" lon="-0.28755">
        <ele>30.973</ele>
        <time>2020-02-08T07:37:30.802Z</time>
      </trkpt>
      <trkpt lat="39.05515667" lon="-0.28755">
        <ele>30.973</ele>
        <time>2020-02-08T07:37:31.802Z</time>
      </trkpt>
      <trkpt lat="39.055075" lon="-0.28763167">
        <ele>30.973</ele>
        <time>2020-02-08T07:37:32.802Z</time>
      </trkpt>
      <trkpt lat="39.05503333" lon="-0.28767167">
        <ele>30.973</ele>
        <time>2020-02-08T07:37:33.802Z</time>
      </trkpt>
      <trkpt lat="39.05503333" lon="-0.28767167">
        <ele>30.973</ele>
        <time>2020-02-08T07:37:34.802Z</time>
      </trkpt>
      <trkpt lat="39.05495333" lon="-0.28775333">
        <ele>30.973</ele>
        <time>2020-02-08T07:37:35.802Z</time>
      </trkpt>
      <trkpt lat="39.05491167" lon="-0.28779167">
        <ele>30.973</ele>
        <time>2020-02-08T07:37:36.802Z</time>
      </trkpt>
      <trkpt lat="39.05491167" lon="-0.28779167">
        <ele>30.973</ele>
        <time>2020-02-08T07:37:37.802Z</time>
      </trkpt>
      <trkpt lat="39.054835" lon="-0.28787">
        <ele>30.973</ele>
        <time>2020-02-08T07:37:38.802Z</time>
      </trkpt>
      <trkpt lat="39.054835" lon="-0.28787">
        <ele>30.973</ele>
        <time>2020-02-08T07:37:39.802Z</time>
      </trkpt>
      <trkpt lat="39.054755" lon="-0.28794667">
        <ele>30.973</ele>
        <time>2020-02-08T07:37:40.802Z</time>
      </trkpt>
      <trkpt lat="39.054755" lon="-0.28794667">
        <ele>30.973</ele>
        <time>2020-02-08T07:37:41.802Z</time>
      </trkpt>
      <trkpt lat="39.05467333" lon="-0.28801667">
        <ele>30.973</ele>
        <time>2020-02-08T07:37:42.802Z</time>
      </trkpt>
      <trkpt lat="39.05467333" lon="-0.28801667">
        <ele>31.973</ele>
        <time>2020-02-08T07:37:43.802Z</time>
      </trkpt>
      <trkpt lat="39.05458667" lon="-0.28807333">
        <ele>31.973</ele>
        <time>2020-02-08T07:37:44.802Z</time>
      </trkpt>
      <trkpt lat="39.05458667" lon="-0.28807333">
        <ele>31.973</ele>
        <time>2020-02-08T07:37:45.802Z</time>
      </trkpt>
      <trkpt lat="39.05450167" lon="-0.28814167">
        <ele>31.973</ele>
        <time>2020-02-08T07:37:46.802Z</time>
      </trkpt>
      <trkpt lat="39.05450167" lon="-0.28814167">
        <ele>31.973</ele>
        <time>2020-02-08T07:37:47.802Z</time>
      </trkpt>
      <trkpt lat="39.05442167" lon="-0.288215">
        <ele>31.973</ele>
        <time>2020-02-08T07:37:48.802Z</time>
      </trkpt>
      <trkpt lat="39.05442167" lon="-0.288215">
        <ele>31.973</ele>
        <time>2020-02-08T07:37:49.802Z</time>
      </trkpt>
      <trkpt lat="39.05434167" lon="-0.28829">
        <ele>31.973</ele>
        <time>2020-02-08T07:37:50.802Z</time>
      </trkpt>
      <trkpt lat="39.05434167" lon="-0.28829">
        <ele>31.973</ele>
        <time>2020-02-08T07:37:51.802Z</time>
      </trkpt>
      <trkpt lat="39.05425667" lon="-0.28836167">
        <ele>31.973</ele>
        <time>2020-02-08T07:37:52.802Z</time>
      </trkpt>
      <trkpt lat="39.05425667" lon="-0.28836167">
        <ele>31.973</ele>
        <time>2020-02-08T07:37:53.802Z</time>
      </trkpt>
      <trkpt lat="39.05417" lon="-0.28843167">
        <ele>31.973</ele>
        <time>2020-02-08T07:37:54.802Z</time>
      </trkpt>
      <trkpt lat="39.054125" lon="-0.28846667">
        <ele>31.973</ele>
        <time>2020-02-08T07:37:55.802Z</time>
      </trkpt>
      <trkpt lat="39.054125" lon="-0.28846667">
        <ele>31.973</ele>
        <time>2020-02-08T07:37:56.802Z</time>
      </trkpt>
      <trkpt lat="39.05404" lon="-0.28853833">
        <ele>32.973</ele>
        <time>2020-02-08T07:37:57.802Z</time>
      </trkpt>
      <trkpt lat="39.05404" lon="-0.28853833">
        <ele>32.973</ele>
        <time>2020-02-08T07:37:58.802Z</time>
      </trkpt>
      <trkpt lat="39.05395167" lon="-0.28861">
        <ele>32.973</ele>
        <time>2020-02-08T07:37:59.802Z</time>
      </trkpt>
      <trkpt lat="39.05390667" lon="-0.28864333">
        <ele>32.973</ele>
        <time>2020-02-08T07:38:00.802Z</time>
      </trkpt>
      <trkpt lat="39.05390667" lon="-0.28864333">
        <ele>32.973</ele>
        <time>2020-02-08T07:38:01.802Z</time>
      </trkpt>
      <trkpt lat="39.05381833" lon="-0.28871167">
        <ele>32.973</ele>
        <time>2020-02-08T07:38:02.802Z</time>
      </trkpt>
      <trkpt lat="39.05381833" lon="-0.28871167">
        <ele>32.973</ele>
        <time>2020-02-08T07:38:03.802Z</time>
      </trkpt>
      <trkpt lat="39.05372667" lon="-0.28877667">
        <ele>32.973</ele>
        <time>2020-02-08T07:38:04.802Z</time>
      </trkpt>
      <trkpt lat="39.05372667" lon="-0.28877667">
        <ele>32.973</ele>
        <time>2020-02-08T07:38:05.802Z</time>
      </trkpt>
      <trkpt lat="39.053635" lon="-0.288845">
        <ele>32.973</ele>
        <time>2020-02-08T07:38:06.802Z</time>
      </trkpt>
      <trkpt lat="39.053635" lon="-0.288845">
        <ele>32.973</ele>
        <time>2020-02-08T07:38:07.802Z</time>
      </trkpt>
      <trkpt lat="39.05354833" lon="-0.288915">
        <ele>32.973</ele>
        <time>2020-02-08T07:38:08.802Z</time>
      </trkpt>
      <trkpt lat="39.05354833" lon="-0.288915">
        <ele>32.973</ele>
        <time>2020-02-08T07:38:09.802Z</time>
      </trkpt>
      <trkpt lat="39.05346667" lon="-0.28899167">
        <ele>32.973</ele>
        <time>2020-02-08T07:38:10.802Z</time>
      </trkpt>
      <trkpt lat="39.05342333" lon="-0.28901667">
        <ele>32.973</ele>
        <time>2020-02-08T07:38:11.802Z</time>
      </trkpt>
      <trkpt lat="39.05337667" lon="-0.28901167">
        <ele>32.973</ele>
        <time>2020-02-08T07:38:12.802Z</time>
      </trkpt>
      <trkpt lat="39.05337667" lon="-0.28901167">
        <ele>32.973</ele>
        <time>2020-02-08T07:38:13.802Z</time>
      </trkpt>
      <trkpt lat="39.05328833" lon="-0.288955">
        <ele>32.973</ele>
        <time>2020-02-08T07:38:14.802Z</time>
      </trkpt>
      <trkpt lat="39.05328833" lon="-0.288955">
        <ele>32.973</ele>
        <time>2020-02-08T07:38:15.802Z</time>
      </trkpt>
      <trkpt lat="39.05321" lon="-0.28887833">
        <ele>32.973</ele>
        <time>2020-02-08T07:38:16.802Z</time>
      </trkpt>
      <trkpt lat="39.05321" lon="-0.28887833">
        <ele>32.973</ele>
        <time>2020-02-08T07:38:17.802Z</time>
      </trkpt>
      <trkpt lat="39.053145" lon="-0.28878667">
        <ele>32.973</ele>
        <time>2020-02-08T07:38:18.802Z</time>
      </trkpt>
      <trkpt lat="39.053145" lon="-0.28878667">
        <ele>32.973</ele>
        <time>2020-02-08T07:38:19.802Z</time>
      </trkpt>
      <trkpt lat="39.05309833" lon="-0.28868">
        <ele>32.973</ele>
        <time>2020-02-08T07:38:20.802Z</time>
      </trkpt>
      <trkpt lat="39.05309833" lon="-0.28868">
        <ele>32.973</ele>
        <time>2020-02-08T07:38:21.802Z</time>
      </trkpt>
      <trkpt lat="39.053055" lon="-0.28857">
        <ele>33.973</ele>
        <time>2020-02-08T07:38:22.802Z</time>
      </trkpt>
      <trkpt lat="39.053055" lon="-0.28857">
        <ele>33.973</ele>
        <time>2020-02-08T07:38:23.802Z</time>
      </trkpt>
      <trkpt lat="39.05301667" lon="-0.28845833">
        <ele>33.973</ele>
        <time>2020-02-08T07:38:24.802Z</time>
      </trkpt>
      <trkpt lat="39.05301667" lon="-0.28845833">
        <ele>33.973</ele>
        <time>2020-02-08T07:38:25.802Z</time>
      </trkpt>
      <trkpt lat="39.052985" lon="-0.28835167">
        <ele>34.973</ele>
        <time>2020-02-08T07:38:26.802Z</time>
      </trkpt>
      <trkpt lat="39.05296167" lon="-0.28830167">
        <ele>34.973</ele>
        <time>2020-02-08T07:38:27.802Z</time>
      </trkpt>
      <trkpt lat="39.05296167" lon="-0.28830167">
        <ele>34.973</ele>
        <time>2020-02-08T07:38:28.802Z</time>
      </trkpt>
      <trkpt lat="39.05288167" lon="-0.28824">
        <ele>34.973</ele>
        <time>2020-02-08T07:38:29.802Z</time>
      </trkpt>
      <trkpt lat="39.05283333" lon="-0.28823">
        <ele>34.973</ele>
        <time>2020-02-08T07:38:30.802Z</time>
      </trkpt>
      <trkpt lat="39.05283333" lon="-0.28823">
        <ele>34.973</ele>
        <time>2020-02-08T07:38:31.802Z</time>
      </trkpt>
      <trkpt lat="39.05273833" lon="-0.28822833">
        <ele>34.973</ele>
        <time>2020-02-08T07:38:32.802Z</time>
      </trkpt>
      <trkpt lat="39.05273833" lon="-0.28822833">
        <ele>34.973</ele>
        <time>2020-02-08T07:38:33.802Z</time>
      </trkpt>
      <trkpt lat="39.052645" lon="-0.28822167">
        <ele>34.973</ele>
        <time>2020-02-08T07:38:34.802Z</time>
      </trkpt>
      <trkpt lat="39.052595" lon="-0.28822167">
        <ele>34.973</ele>
        <time>2020-02-08T07:38:35.802Z</time>
      </trkpt>
      <trkpt lat="39.052595" lon="-0.28822167">
        <ele>34.973</ele>
        <time>2020-02-08T07:38:36.802Z</time>
      </trkpt>
      <trkpt lat="39.05249167" lon="-0.28823667">
        <ele>34.973</ele>
        <time>2020-02-08T07:38:37.802Z</time>
      </trkpt>
      <trkpt lat="39.05244" lon="-0.28825">
        <ele>34.973</ele>
        <time>2020-02-08T07:38:38.802Z</time>
      </trkpt>
      <trkpt lat="39.05244" lon="-0.28825">
        <ele>34.973</ele>
        <time>2020-02-08T07:38:39.802Z</time>
      </trkpt>
      <trkpt lat="39.052345" lon="-0.288285">
        <ele>34.973</ele>
        <time>2020-02-08T07:38:40.802Z</time>
      </trkpt>
      <trkpt lat="39.05229833" lon="-0.2883">
        <ele>34.973</ele>
        <time>2020-02-08T07:38:41.802Z</time>
      </trkpt>
      <trkpt lat="39.05229833" lon="-0.2883">
        <ele>34.973</ele>
        <time>2020-02-08T07:38:42.802Z</time>
      </trkpt>
      <trkpt lat="39.05220833" lon="-0.28832833">
        <ele>34.973</ele>
        <time>2020-02-08T07:38:43.802Z</time>
      </trkpt>
      <trkpt lat="39.05216167" lon="-0.28834167">
        <ele>34.973</ele>
        <time>2020-02-08T07:38:44.802Z</time>
      </trkpt>
      <trkpt lat="39.05216167" lon="-0.28834167">
        <ele>35.973</ele>
        <time>2020-02-08T07:38:45.802Z</time>
      </trkpt>
      <trkpt lat="39.052075" lon="-0.28837333">
        <ele>35.973</ele>
        <time>2020-02-08T07:38:46.802Z</time>
      </trkpt>
      <trkpt lat="39.052075" lon="-0.28837333">
        <ele>35.973</ele>
        <time>2020-02-08T07:38:47.802Z</time>
      </trkpt>
      <trkpt lat="39.05198667" lon="-0.288405">
        <ele>35.973</ele>
        <time>2020-02-08T07:38:48.802Z</time>
      </trkpt>
      <trkpt lat="39.05194" lon="-0.28841667">
        <ele>35.973</ele>
        <time>2020-02-08T07:38:49.802Z</time>
      </trkpt>
      <trkpt lat="39.05189333" lon="-0.28842833">
        <ele>35.973</ele>
        <time>2020-02-08T07:38:50.802Z</time>
      </trkpt>
      <trkpt lat="39.05189333" lon="-0.28842833">
        <ele>36.973</ele>
        <time>2020-02-08T07:38:51.802Z</time>
      </trkpt>
      <trkpt lat="39.0518" lon="-0.288445">
        <ele>36.973</ele>
        <time>2020-02-08T07:38:52.802Z</time>
      </trkpt>
      <trkpt lat="39.0518" lon="-0.288445">
        <ele>36.973</ele>
        <time>2020-02-08T07:38:53.802Z</time>
      </trkpt>
      <trkpt lat="39.05170333" lon="-0.288435">
        <ele>36.973</ele>
        <time>2020-02-08T07:38:54.802Z</time>
      </trkpt>
      <trkpt lat="39.05170333" lon="-0.288435">
        <ele>36.973</ele>
        <time>2020-02-08T07:38:55.802Z</time>
      </trkpt>
      <trkpt lat="39.05161667" lon="-0.28839167">
        <ele>36.973</ele>
        <time>2020-02-08T07:38:56.802Z</time>
      </trkpt>
      <trkpt lat="39.05161667" lon="-0.28839167">
        <ele>37.973</ele>
        <time>2020-02-08T07:38:57.802Z</time>
      </trkpt>
      <trkpt lat="39.05152833" lon="-0.28833833">
        <ele>37.973</ele>
        <time>2020-02-08T07:38:58.802Z</time>
      </trkpt>
      <trkpt lat="39.05152833" lon="-0.28833833">
        <ele>37.973</ele>
        <time>2020-02-08T07:38:59.802Z</time>
      </trkpt>
      <trkpt lat="39.05144333" lon="-0.2883">
        <ele>37.973</ele>
        <time>2020-02-08T07:39:00.802Z</time>
      </trkpt>
      <trkpt lat="39.05144333" lon="-0.2883">
        <ele>37.973</ele>
        <time>2020-02-08T07:39:01.802Z</time>
      </trkpt>
      <trkpt lat="39.05135" lon="-0.28828333">
        <ele>37.973</ele>
        <time>2020-02-08T07:39:02.802Z</time>
      </trkpt>
      <trkpt lat="39.05135" lon="-0.28828333">
        <ele>38.973</ele>
        <time>2020-02-08T07:39:03.802Z</time>
      </trkpt>
      <trkpt lat="39.05125667" lon="-0.28826333">
        <ele>38.973</ele>
        <time>2020-02-08T07:39:04.802Z</time>
      </trkpt>
      <trkpt lat="39.05121167" lon="-0.28825167">
        <ele>38.973</ele>
        <time>2020-02-08T07:39:05.802Z</time>
      </trkpt>
      <trkpt lat="39.05116667" lon="-0.28824">
        <ele>39.973</ele>
        <time>2020-02-08T07:39:06.802Z</time>
      </trkpt>
      <trkpt lat="39.05116667" lon="-0.28824">
        <ele>39.973</ele>
        <time>2020-02-08T07:39:07.802Z</time>
      </trkpt>
      <trkpt lat="39.05107667" lon="-0.28822167">
        <ele>39.973</ele>
        <time>2020-02-08T07:39:08.802Z</time>
      </trkpt>
      <trkpt lat="39.05107667" lon="-0.28822167">
        <ele>39.973</ele>
        <time>2020-02-08T07:39:09.802Z</time>
      </trkpt>
      <trkpt lat="39.05098667" lon="-0.2882">
        <ele>39.973</ele>
        <time>2020-02-08T07:39:10.802Z</time>
      </trkpt>
      <trkpt lat="39.05098667" lon="-0.2882">
        <ele>39.973</ele>
        <time>2020-02-08T07:39:11.802Z</time>
      </trkpt>
      <trkpt lat="39.050895" lon="-0.28817833">
        <ele>39.973</ele>
        <time>2020-02-08T07:39:12.802Z</time>
      </trkpt>
      <trkpt lat="39.050895" lon="-0.28817833">
        <ele>39.973</ele>
        <time>2020-02-08T07:39:13.802Z</time>
      </trkpt>
      <trkpt lat="39.0508" lon="-0.28815333">
        <ele>40.973</ele>
        <time>2020-02-08T07:39:14.802Z</time>
      </trkpt>
      <trkpt lat="39.0508" lon="-0.28815333">
        <ele>40.973</ele>
        <time>2020-02-08T07:39:15.802Z</time>
      </trkpt>
      <trkpt lat="39.050705" lon="-0.28814">
        <ele>40.973</ele>
        <time>2020-02-08T07:39:16.802Z</time>
      </trkpt>
      <trkpt lat="39.050705" lon="-0.28814">
        <ele>40.973</ele>
        <time>2020-02-08T07:39:17.802Z</time>
      </trkpt>
      <trkpt lat="39.05061333" lon="-0.28814167">
        <ele>40.973</ele>
        <time>2020-02-08T07:39:18.802Z</time>
      </trkpt>
      <trkpt lat="39.05057" lon="-0.28814833">
        <ele>40.973</ele>
        <time>2020-02-08T07:39:19.802Z</time>
      </trkpt>
      <trkpt lat="39.05057" lon="-0.28814833">
        <ele>40.973</ele>
        <time>2020-02-08T07:39:20.802Z</time>
      </trkpt>
      <trkpt lat="39.05048333" lon="-0.28816667">
        <ele>40.973</ele>
        <time>2020-02-08T07:39:21.802Z</time>
      </trkpt>
      <trkpt lat="39.05048333" lon="-0.28816667">
        <ele>40.973</ele>
        <time>2020-02-08T07:39:22.802Z</time>
      </trkpt>
      <trkpt lat="39.05038667" lon="-0.28819667">
        <ele>40.973</ele>
        <time>2020-02-08T07:39:23.802Z</time>
      </trkpt>
      <trkpt lat="39.05033833" lon="-0.28821667">
        <ele>40.973</ele>
        <time>2020-02-08T07:39:24.802Z</time>
      </trkpt>
      <trkpt lat="39.05033833" lon="-0.28821667">
        <ele>40.973</ele>
        <time>2020-02-08T07:39:25.802Z</time>
      </trkpt>
      <trkpt lat="39.05024333" lon="-0.28826333">
        <ele>40.973</ele>
        <time>2020-02-08T07:39:26.802Z</time>
      </trkpt>
      <trkpt lat="39.05024333" lon="-0.28826333">
        <ele>40.973</ele>
        <time>2020-02-08T07:39:27.802Z</time>
      </trkpt>
      <trkpt lat="39.05014833" lon="-0.288315">
        <ele>40.973</ele>
        <time>2020-02-08T07:39:28.802Z</time>
      </trkpt>
      <trkpt lat="39.05014833" lon="-0.288315">
        <ele>40.973</ele>
        <time>2020-02-08T07:39:29.802Z</time>
      </trkpt>
      <trkpt lat="39.05005667" lon="-0.28837333">
        <ele>40.973</ele>
        <time>2020-02-08T07:39:30.802Z</time>
      </trkpt>
      <trkpt lat="39.05005667" lon="-0.28837333">
        <ele>40.973</ele>
        <time>2020-02-08T07:39:31.802Z</time>
      </trkpt>
      <trkpt lat="39.049965" lon="-0.28843333">
        <ele>40.973</ele>
        <time>2020-02-08T07:39:32.802Z</time>
      </trkpt>
      <trkpt lat="39.049965" lon="-0.28843333">
        <ele>40.973</ele>
        <time>2020-02-08T07:39:33.802Z</time>
      </trkpt>
      <trkpt lat="39.04987333" lon="-0.28849667">
        <ele>40.973</ele>
        <time>2020-02-08T07:39:34.802Z</time>
      </trkpt>
      <trkpt lat="39.04987333" lon="-0.28849667">
        <ele>40.973</ele>
        <time>2020-02-08T07:39:35.802Z</time>
      </trkpt>
      <trkpt lat="39.04978333" lon="-0.28856167">
        <ele>40.973</ele>
        <time>2020-02-08T07:39:36.802Z</time>
      </trkpt>
      <trkpt lat="39.04978333" lon="-0.28856167">
        <ele>40.973</ele>
        <time>2020-02-08T07:39:37.802Z</time>
      </trkpt>
      <trkpt lat="39.04969" lon="-0.288625">
        <ele>40.973</ele>
        <time>2020-02-08T07:39:38.802Z</time>
      </trkpt>
      <trkpt lat="39.04969" lon="-0.288625">
        <ele>40.973</ele>
        <time>2020-02-08T07:39:39.802Z</time>
      </trkpt>
      <trkpt lat="39.04959833" lon="-0.28868667">
        <ele>40.973</ele>
        <time>2020-02-08T07:39:40.802Z</time>
      </trkpt>
      <trkpt lat="39.04959833" lon="-0.28868667">
        <ele>40.973</ele>
        <time>2020-02-08T07:39:41.802Z</time>
      </trkpt>
      <trkpt lat="39.04950167" lon="-0.288745">
        <ele>40.973</ele>
        <time>2020-02-08T07:39:42.802Z</time>
      </trkpt>
      <trkpt lat="39.04950167" lon="-0.288745">
        <ele>40.973</ele>
        <time>2020-02-08T07:39:43.802Z</time>
      </trkpt>
      <trkpt lat="39.049405" lon="-0.28881">
        <ele>40.973</ele>
        <time>2020-02-08T07:39:44.802Z</time>
      </trkpt>
      <trkpt lat="39.049405" lon="-0.28881">
        <ele>40.973</ele>
        <time>2020-02-08T07:39:45.802Z</time>
      </trkpt>
      <trkpt lat="39.04930667" lon="-0.28887833">
        <ele>40.973</ele>
        <time>2020-02-08T07:39:46.802Z</time>
      </trkpt>
      <trkpt lat="39.04930667" lon="-0.28887833">
        <ele>40.973</ele>
        <time>2020-02-08T07:39:47.802Z</time>
      </trkpt>
      <trkpt lat="39.04920667" lon="-0.288945">
        <ele>40.973</ele>
        <time>2020-02-08T07:39:48.802Z</time>
      </trkpt>
      <trkpt lat="39.04920667" lon="-0.288945">
        <ele>40.973</ele>
        <time>2020-02-08T07:39:49.802Z</time>
      </trkpt>
      <trkpt lat="39.04910833" lon="-0.28901167">
        <ele>40.973</ele>
        <time>2020-02-08T07:39:50.802Z</time>
      </trkpt>
      <trkpt lat="39.04910833" lon="-0.28901167">
        <ele>40.973</ele>
        <time>2020-02-08T07:39:51.802Z</time>
      </trkpt>
      <trkpt lat="39.04901" lon="-0.28908">
        <ele>40.973</ele>
        <time>2020-02-08T07:39:52.802Z</time>
      </trkpt>
      <trkpt lat="39.04901" lon="-0.28908">
        <ele>40.973</ele>
        <time>2020-02-08T07:39:53.802Z</time>
      </trkpt>
      <trkpt lat="39.048905" lon="-0.289145">
        <ele>40.973</ele>
        <time>2020-02-08T07:39:54.802Z</time>
      </trkpt>
      <trkpt lat="39.048905" lon="-0.289145">
        <ele>40.973</ele>
        <time>2020-02-08T07:39:55.802Z</time>
      </trkpt>
      <trkpt lat="39.04880333" lon="-0.28921">
        <ele>40.973</ele>
        <time>2020-02-08T07:39:56.802Z</time>
      </trkpt>
      <trkpt lat="39.04880333" lon="-0.28921">
        <ele>40.973</ele>
        <time>2020-02-08T07:39:57.802Z</time>
      </trkpt>
      <trkpt lat="39.04869667" lon="-0.28927333">
        <ele>40.973</ele>
        <time>2020-02-08T07:39:58.802Z</time>
      </trkpt>
      <trkpt lat="39.04869667" lon="-0.28927333">
        <ele>40.973</ele>
        <time>2020-02-08T07:39:59.802Z</time>
      </trkpt>
      <trkpt lat="39.048585" lon="-0.28933667">
        <ele>40.973</ele>
        <time>2020-02-08T07:40:00.802Z</time>
      </trkpt>
      <trkpt lat="39.048585" lon="-0.28933667">
        <ele>40.973</ele>
        <time>2020-02-08T07:40:01.802Z</time>
      </trkpt>
      <trkpt lat="39.04847667" lon="-0.28940667">
        <ele>39.973</ele>
        <time>2020-02-08T07:40:02.802Z</time>
      </trkpt>
      <trkpt lat="39.04847667" lon="-0.28940667">
        <ele>39.973</ele>
        <time>2020-02-08T07:40:03.802Z</time>
      </trkpt>
      <trkpt lat="39.04837167" lon="-0.28949167">
        <ele>39.973</ele>
        <time>2020-02-08T07:40:04.802Z</time>
      </trkpt>
      <trkpt lat="39.04837167" lon="-0.28949167">
        <ele>39.973</ele>
        <time>2020-02-08T07:40:05.802Z</time>
      </trkpt>
      <trkpt lat="39.04827333" lon="-0.28957667">
        <ele>39.973</ele>
        <time>2020-02-08T07:40:06.802Z</time>
      </trkpt>
      <trkpt lat="39.04827333" lon="-0.28957667">
        <ele>39.973</ele>
        <time>2020-02-08T07:40:07.802Z</time>
      </trkpt>
      <trkpt lat="39.04817" lon="-0.28964667">
        <ele>39.973</ele>
        <time>2020-02-08T07:40:08.802Z</time>
      </trkpt>
      <trkpt lat="39.04817" lon="-0.28964667">
        <ele>39.973</ele>
        <time>2020-02-08T07:40:09.802Z</time>
      </trkpt>
      <trkpt lat="39.04807167" lon="-0.28971167">
        <ele>39.973</ele>
        <time>2020-02-08T07:40:10.802Z</time>
      </trkpt>
      <trkpt lat="39.04807167" lon="-0.28971167">
        <ele>39.973</ele>
        <time>2020-02-08T07:40:11.802Z</time>
      </trkpt>
      <trkpt lat="39.047975" lon="-0.28977667">
        <ele>39.973</ele>
        <time>2020-02-08T07:40:12.802Z</time>
      </trkpt>
      <trkpt lat="39.047975" lon="-0.28977667">
        <ele>39.973</ele>
        <time>2020-02-08T07:40:13.802Z</time>
      </trkpt>
      <trkpt lat="39.04787667" lon="-0.28983667">
        <ele>39.973</ele>
        <time>2020-02-08T07:40:14.802Z</time>
      </trkpt>
      <trkpt lat="39.04787667" lon="-0.28983667">
        <ele>39.973</ele>
        <time>2020-02-08T07:40:15.802Z</time>
      </trkpt>
      <trkpt lat="39.04777833" lon="-0.2899">
        <ele>39.973</ele>
        <time>2020-02-08T07:40:16.802Z</time>
      </trkpt>
      <trkpt lat="39.04777833" lon="-0.2899">
        <ele>39.973</ele>
        <time>2020-02-08T07:40:17.802Z</time>
      </trkpt>
      <trkpt lat="39.04768" lon="-0.289965">
        <ele>39.973</ele>
        <time>2020-02-08T07:40:18.802Z</time>
      </trkpt>
      <trkpt lat="39.04768" lon="-0.289965">
        <ele>39.973</ele>
        <time>2020-02-08T07:40:19.802Z</time>
      </trkpt>
      <trkpt lat="39.04758167" lon="-0.29003">
        <ele>39.973</ele>
        <time>2020-02-08T07:40:20.802Z</time>
      </trkpt>
      <trkpt lat="39.04758167" lon="-0.29003">
        <ele>39.973</ele>
        <time>2020-02-08T07:40:21.802Z</time>
      </trkpt>
      <trkpt lat="39.04748667" lon="-0.29010167">
        <ele>39.973</ele>
        <time>2020-02-08T07:40:22.802Z</time>
      </trkpt>
      <trkpt lat="39.04748667" lon="-0.29010167">
        <ele>39.973</ele>
        <time>2020-02-08T07:40:23.802Z</time>
      </trkpt>
      <trkpt lat="39.04739333" lon="-0.29018167">
        <ele>39.973</ele>
        <time>2020-02-08T07:40:24.802Z</time>
      </trkpt>
      <trkpt lat="39.04739333" lon="-0.29018167">
        <ele>39.973</ele>
        <time>2020-02-08T07:40:25.802Z</time>
      </trkpt>
      <trkpt lat="39.04730333" lon="-0.29027">
        <ele>39.973</ele>
        <time>2020-02-08T07:40:26.802Z</time>
      </trkpt>
      <trkpt lat="39.04730333" lon="-0.29027">
        <ele>39.973</ele>
        <time>2020-02-08T07:40:27.802Z</time>
      </trkpt>
      <trkpt lat="39.04721" lon="-0.29034833">
        <ele>39.973</ele>
        <time>2020-02-08T07:40:28.802Z</time>
      </trkpt>
      <trkpt lat="39.04721" lon="-0.29034833">
        <ele>39.973</ele>
        <time>2020-02-08T07:40:29.802Z</time>
      </trkpt>
      <trkpt lat="39.04711667" lon="-0.29042333">
        <ele>40.973</ele>
        <time>2020-02-08T07:40:30.802Z</time>
      </trkpt>
      <trkpt lat="39.04711667" lon="-0.29042333">
        <ele>40.973</ele>
        <time>2020-02-08T07:40:31.802Z</time>
      </trkpt>
      <trkpt lat="39.047025" lon="-0.290505">
        <ele>40.973</ele>
        <time>2020-02-08T07:40:32.802Z</time>
      </trkpt>
      <trkpt lat="39.047025" lon="-0.290505">
        <ele>40.973</ele>
        <time>2020-02-08T07:40:33.802Z</time>
      </trkpt>
      <trkpt lat="39.04693333" lon="-0.290585">
        <ele>40.973</ele>
        <time>2020-02-08T07:40:34.802Z</time>
      </trkpt>
      <trkpt lat="39.04693333" lon="-0.290585">
        <ele>40.973</ele>
        <time>2020-02-08T07:40:35.802Z</time>
      </trkpt>
      <trkpt lat="39.046845" lon="-0.29067167">
        <ele>40.973</ele>
        <time>2020-02-08T07:40:36.802Z</time>
      </trkpt>
      <trkpt lat="39.046845" lon="-0.29067167">
        <ele>40.973</ele>
        <time>2020-02-08T07:40:37.802Z</time>
      </trkpt>
      <trkpt lat="39.04675167" lon="-0.29075667">
        <ele>40.973</ele>
        <time>2020-02-08T07:40:38.802Z</time>
      </trkpt>
      <trkpt lat="39.04675167" lon="-0.29075667">
        <ele>40.973</ele>
        <time>2020-02-08T07:40:39.802Z</time>
      </trkpt>
      <trkpt lat="39.046645" lon="-0.290825">
        <ele>41.973</ele>
        <time>2020-02-08T07:40:40.802Z</time>
      </trkpt>
      <trkpt lat="39.046645" lon="-0.290825">
        <ele>41.973</ele>
        <time>2020-02-08T07:40:41.802Z</time>
      </trkpt>
      <trkpt lat="39.04654" lon="-0.29088667">
        <ele>41.973</ele>
        <time>2020-02-08T07:40:42.802Z</time>
      </trkpt>
      <trkpt lat="39.04654" lon="-0.29088667">
        <ele>41.973</ele>
        <time>2020-02-08T07:40:43.802Z</time>
      </trkpt>
      <trkpt lat="39.046435" lon="-0.29095">
        <ele>41.973</ele>
        <time>2020-02-08T07:40:44.802Z</time>
      </trkpt>
      <trkpt lat="39.046435" lon="-0.29095">
        <ele>41.973</ele>
        <time>2020-02-08T07:40:45.802Z</time>
      </trkpt>
      <trkpt lat="39.04633167" lon="-0.29101333">
        <ele>41.973</ele>
        <time>2020-02-08T07:40:46.802Z</time>
      </trkpt>
      <trkpt lat="39.04633167" lon="-0.29101333">
        <ele>41.973</ele>
        <time>2020-02-08T07:40:47.802Z</time>
      </trkpt>
      <trkpt lat="39.04624" lon="-0.29109667">
        <ele>41.973</ele>
        <time>2020-02-08T07:40:48.802Z</time>
      </trkpt>
      <trkpt lat="39.04624" lon="-0.29109667">
        <ele>41.973</ele>
        <time>2020-02-08T07:40:49.802Z</time>
      </trkpt>
      <trkpt lat="39.04616833" lon="-0.29121333">
        <ele>41.973</ele>
        <time>2020-02-08T07:40:50.802Z</time>
      </trkpt>
      <trkpt lat="39.04616833" lon="-0.29121333">
        <ele>41.973</ele>
        <time>2020-02-08T07:40:51.802Z</time>
      </trkpt>
      <trkpt lat="39.04610833" lon="-0.29134333">
        <ele>41.973</ele>
        <time>2020-02-08T07:40:52.802Z</time>
      </trkpt>
      <trkpt lat="39.04610833" lon="-0.29134333">
        <ele>41.973</ele>
        <time>2020-02-08T07:40:53.802Z</time>
      </trkpt>
      <trkpt lat="39.04604833" lon="-0.291475">
        <ele>41.973</ele>
        <time>2020-02-08T07:40:54.802Z</time>
      </trkpt>
      <trkpt lat="39.04604833" lon="-0.291475">
        <ele>41.973</ele>
        <time>2020-02-08T07:40:55.802Z</time>
      </trkpt>
      <trkpt lat="39.04598667" lon="-0.2916">
        <ele>41.973</ele>
        <time>2020-02-08T07:40:56.802Z</time>
      </trkpt>
      <trkpt lat="39.04595667" lon="-0.29166">
        <ele>41.973</ele>
        <time>2020-02-08T07:40:57.802Z</time>
      </trkpt>
      <trkpt lat="39.04595667" lon="-0.29166">
        <ele>41.973</ele>
        <time>2020-02-08T07:40:58.802Z</time>
      </trkpt>
      <trkpt lat="39.045895" lon="-0.291785">
        <ele>41.973</ele>
        <time>2020-02-08T07:40:59.802Z</time>
      </trkpt>
      <trkpt lat="39.045865" lon="-0.29184833">
        <ele>41.973</ele>
        <time>2020-02-08T07:41:00.802Z</time>
      </trkpt>
      <trkpt lat="39.045865" lon="-0.29184833">
        <ele>41.973</ele>
        <time>2020-02-08T07:41:01.802Z</time>
      </trkpt>
      <trkpt lat="39.045805" lon="-0.291975">
        <ele>41.973</ele>
        <time>2020-02-08T07:41:02.802Z</time>
      </trkpt>
      <trkpt lat="39.045805" lon="-0.291975">
        <ele>41.973</ele>
        <time>2020-02-08T07:41:03.802Z</time>
      </trkpt>
      <trkpt lat="39.04574333" lon="-0.292105">
        <ele>41.973</ele>
        <time>2020-02-08T07:41:04.802Z</time>
      </trkpt>
      <trkpt lat="39.04574333" lon="-0.292105">
        <ele>41.973</ele>
        <time>2020-02-08T07:41:05.802Z</time>
      </trkpt>
      <trkpt lat="39.04568333" lon="-0.29223667">
        <ele>41.973</ele>
        <time>2020-02-08T07:41:06.802Z</time>
      </trkpt>
      <trkpt lat="39.04568333" lon="-0.29223667">
        <ele>41.973</ele>
        <time>2020-02-08T07:41:07.802Z</time>
      </trkpt>
      <trkpt lat="39.04562" lon="-0.29236667">
        <ele>41.973</ele>
        <time>2020-02-08T07:41:08.802Z</time>
      </trkpt>
      <trkpt lat="39.04562" lon="-0.29236667">
        <ele>41.973</ele>
        <time>2020-02-08T07:41:09.802Z</time>
      </trkpt>
      <trkpt lat="39.045555" lon="-0.292495">
        <ele>41.973</ele>
        <time>2020-02-08T07:41:10.802Z</time>
      </trkpt>
      <trkpt lat="39.045555" lon="-0.292495">
        <ele>41.973</ele>
        <time>2020-02-08T07:41:11.802Z</time>
      </trkpt>
      <trkpt lat="39.04549167" lon="-0.29262167">
        <ele>41.973</ele>
        <time>2020-02-08T07:41:12.802Z</time>
      </trkpt>
      <trkpt lat="39.04549167" lon="-0.29262167">
        <ele>41.973</ele>
        <time>2020-02-08T07:41:13.802Z</time>
      </trkpt>
      <trkpt lat="39.04542" lon="-0.29274167">
        <ele>41.973</ele>
        <time>2020-02-08T07:41:14.802Z</time>
      </trkpt>
      <trkpt lat="39.04542" lon="-0.29274167">
        <ele>41.973</ele>
        <time>2020-02-08T07:41:15.802Z</time>
      </trkpt>
      <trkpt lat="39.04532667" lon="-0.292835">
        <ele>41.973</ele>
        <time>2020-02-08T07:41:16.802Z</time>
      </trkpt>
      <trkpt lat="39.04532667" lon="-0.292835">
        <ele>41.973</ele>
        <time>2020-02-08T07:41:17.802Z</time>
      </trkpt>
      <trkpt lat="39.04522333" lon="-0.29292333">
        <ele>41.973</ele>
        <time>2020-02-08T07:41:18.802Z</time>
      </trkpt>
      <trkpt lat="39.04522333" lon="-0.29292333">
        <ele>40.973</ele>
        <time>2020-02-08T07:41:19.802Z</time>
      </trkpt>
      <trkpt lat="39.04511833" lon="-0.293">
        <ele>40.973</ele>
        <time>2020-02-08T07:41:20.802Z</time>
      </trkpt>
      <trkpt lat="39.04511833" lon="-0.293">
        <ele>40.973</ele>
        <time>2020-02-08T07:41:21.802Z</time>
      </trkpt>
      <trkpt lat="39.045005" lon="-0.29303333">
        <ele>40.973</ele>
        <time>2020-02-08T07:41:22.802Z</time>
      </trkpt>
      <trkpt lat="39.045005" lon="-0.29303333">
        <ele>40.973</ele>
        <time>2020-02-08T07:41:23.802Z</time>
      </trkpt>
      <trkpt lat="39.04489167" lon="-0.29301167">
        <ele>40.973</ele>
        <time>2020-02-08T07:41:24.802Z</time>
      </trkpt>
      <trkpt lat="39.04489167" lon="-0.29301167">
        <ele>40.973</ele>
        <time>2020-02-08T07:41:25.802Z</time>
      </trkpt>
      <trkpt lat="39.04478833" lon="-0.292945">
        <ele>40.973</ele>
        <time>2020-02-08T07:41:26.802Z</time>
      </trkpt>
      <trkpt lat="39.04478833" lon="-0.292945">
        <ele>40.973</ele>
        <time>2020-02-08T07:41:27.802Z</time>
      </trkpt>
      <trkpt lat="39.04469" lon="-0.29287833">
        <ele>40.973</ele>
        <time>2020-02-08T07:41:28.802Z</time>
      </trkpt>
      <trkpt lat="39.04464167" lon="-0.29285">
        <ele>40.973</ele>
        <time>2020-02-08T07:41:29.802Z</time>
      </trkpt>
      <trkpt lat="39.04464167" lon="-0.29285">
        <ele>40.973</ele>
        <time>2020-02-08T07:41:30.802Z</time>
      </trkpt>
      <trkpt lat="39.04455167" lon="-0.29279167">
        <ele>40.973</ele>
        <time>2020-02-08T07:41:31.802Z</time>
      </trkpt>
      <trkpt lat="39.044505" lon="-0.29276667">
        <ele>40.973</ele>
        <time>2020-02-08T07:41:32.802Z</time>
      </trkpt>
      <trkpt lat="39.044505" lon="-0.29276667">
        <ele>40.973</ele>
        <time>2020-02-08T07:41:33.802Z</time>
      </trkpt>
      <trkpt lat="39.04441333" lon="-0.29271333">
        <ele>41.973</ele>
        <time>2020-02-08T07:41:34.802Z</time>
      </trkpt>
      <trkpt lat="39.04441333" lon="-0.29271333">
        <ele>41.973</ele>
        <time>2020-02-08T07:41:35.802Z</time>
      </trkpt>
      <trkpt lat="39.04431833" lon="-0.29266833">
        <ele>41.973</ele>
        <time>2020-02-08T07:41:36.802Z</time>
      </trkpt>
      <trkpt lat="39.04431833" lon="-0.29266833">
        <ele>41.973</ele>
        <time>2020-02-08T07:41:37.802Z</time>
      </trkpt>
      <trkpt lat="39.04422833" lon="-0.29262167">
        <ele>41.973</ele>
        <time>2020-02-08T07:41:38.802Z</time>
      </trkpt>
      <trkpt lat="39.04422833" lon="-0.29262167">
        <ele>41.973</ele>
        <time>2020-02-08T07:41:39.802Z</time>
      </trkpt>
      <trkpt lat="39.04413667" lon="-0.29260167">
        <ele>42.973</ele>
        <time>2020-02-08T07:41:40.802Z</time>
      </trkpt>
      <trkpt lat="39.04413667" lon="-0.29260167">
        <ele>42.973</ele>
        <time>2020-02-08T07:41:41.802Z</time>
      </trkpt>
      <trkpt lat="39.044045" lon="-0.292595">
        <ele>42.973</ele>
        <time>2020-02-08T07:41:42.802Z</time>
      </trkpt>
      <trkpt lat="39.044045" lon="-0.292595">
        <ele>42.973</ele>
        <time>2020-02-08T07:41:43.802Z</time>
      </trkpt>
      <trkpt lat="39.04395333" lon="-0.292575">
        <ele>43.973</ele>
        <time>2020-02-08T07:41:44.802Z</time>
      </trkpt>
      <trkpt lat="39.04395333" lon="-0.292575">
        <ele>43.973</ele>
        <time>2020-02-08T07:41:45.802Z</time>
      </trkpt>
      <trkpt lat="39.043855" lon="-0.29254833">
        <ele>43.973</ele>
        <time>2020-02-08T07:41:46.802Z</time>
      </trkpt>
      <trkpt lat="39.04380833" lon="-0.29254167">
        <ele>43.973</ele>
        <time>2020-02-08T07:41:47.802Z</time>
      </trkpt>
      <trkpt lat="39.04380833" lon="-0.29254167">
        <ele>43.973</ele>
        <time>2020-02-08T07:41:48.802Z</time>
      </trkpt>
      <trkpt lat="39.04370667" lon="-0.29254167">
        <ele>43.973</ele>
        <time>2020-02-08T07:41:49.802Z</time>
      </trkpt>
      <trkpt lat="39.04365167" lon="-0.29254">
        <ele>43.973</ele>
        <time>2020-02-08T07:41:50.802Z</time>
      </trkpt>
      <trkpt lat="39.04365167" lon="-0.29254">
        <ele>43.973</ele>
        <time>2020-02-08T07:41:51.802Z</time>
      </trkpt>
      <trkpt lat="39.04355333" lon="-0.29250667">
        <ele>43.973</ele>
        <time>2020-02-08T07:41:52.802Z</time>
      </trkpt>
      <trkpt lat="39.04355333" lon="-0.29250667">
        <ele>43.973</ele>
        <time>2020-02-08T07:41:53.802Z</time>
      </trkpt>
      <trkpt lat="39.043485" lon="-0.29243333">
        <ele>43.973</ele>
        <time>2020-02-08T07:41:54.802Z</time>
      </trkpt>
      <trkpt lat="39.043485" lon="-0.29243333">
        <ele>43.973</ele>
        <time>2020-02-08T07:41:55.802Z</time>
      </trkpt>
      <trkpt lat="39.043435" lon="-0.29238667">
        <ele>43.973</ele>
        <time>2020-02-08T07:41:56.802Z</time>
      </trkpt>
      <trkpt lat="39.04340667" lon="-0.29237667">
        <ele>43.973</ele>
        <time>2020-02-08T07:41:57.802Z</time>
      </trkpt>
      <trkpt lat="39.04340667" lon="-0.29237667">
        <ele>43.973</ele>
        <time>2020-02-08T07:41:58.802Z</time>
      </trkpt>
      <trkpt lat="39.04333833" lon="-0.29239167">
        <ele>43.973</ele>
        <time>2020-02-08T07:41:59.802Z</time>
      </trkpt>
      <trkpt lat="39.04333833" lon="-0.29239167">
        <ele>43.973</ele>
        <time>2020-02-08T07:42:00.802Z</time>
      </trkpt>
      <trkpt lat="39.04326" lon="-0.29243833">
        <ele>43.973</ele>
        <time>2020-02-08T07:42:01.802Z</time>
      </trkpt>
      <trkpt lat="39.04322833" lon="-0.29246167">
        <ele>43.973</ele>
        <time>2020-02-08T07:42:02.802Z</time>
      </trkpt>
      <trkpt lat="39.04322833" lon="-0.29246167">
        <ele>43.973</ele>
        <time>2020-02-08T07:42:03.802Z</time>
      </trkpt>
      <trkpt lat="39.043165" lon="-0.29250833">
        <ele>43.973</ele>
        <time>2020-02-08T07:42:04.802Z</time>
      </trkpt>
      <trkpt lat="39.043165" lon="-0.29250833">
        <ele>43.973</ele>
        <time>2020-02-08T07:42:05.802Z</time>
      </trkpt>
      <trkpt lat="39.04315333" lon="-0.2926">
        <ele>43.973</ele>
        <time>2020-02-08T07:42:06.802Z</time>
      </trkpt>
      <trkpt lat="39.04315333" lon="-0.2926">
        <ele>43.973</ele>
        <time>2020-02-08T07:42:07.802Z</time>
      </trkpt>
      <trkpt lat="39.04315833" lon="-0.29273">
        <ele>43.973</ele>
        <time>2020-02-08T07:42:08.802Z</time>
      </trkpt>
      <trkpt lat="39.04315833" lon="-0.29273">
        <ele>43.973</ele>
        <time>2020-02-08T07:42:09.802Z</time>
      </trkpt>
      <trkpt lat="39.04318167" lon="-0.29288333">
        <ele>43.973</ele>
        <time>2020-02-08T07:42:10.802Z</time>
      </trkpt>
      <trkpt lat="39.04318833" lon="-0.29296833">
        <ele>43.973</ele>
        <time>2020-02-08T07:42:11.802Z</time>
      </trkpt>
      <trkpt lat="39.043185" lon="-0.293045">
        <ele>43.973</ele>
        <time>2020-02-08T07:42:12.802Z</time>
      </trkpt>
      <trkpt lat="39.043185" lon="-0.293045">
        <ele>43.973</ele>
        <time>2020-02-08T07:42:13.802Z</time>
      </trkpt>
      <trkpt lat="39.04314333" lon="-0.29318167">
        <ele>43.973</ele>
        <time>2020-02-08T07:42:14.802Z</time>
      </trkpt>
      <trkpt lat="39.04314333" lon="-0.29318167">
        <ele>43.973</ele>
        <time>2020-02-08T07:42:15.802Z</time>
      </trkpt>
      <trkpt lat="39.04313333" lon="-0.29332833">
        <ele>44.973</ele>
        <time>2020-02-08T07:42:16.802Z</time>
      </trkpt>
      <trkpt lat="39.04313333" lon="-0.29332833">
        <ele>44.973</ele>
        <time>2020-02-08T07:42:17.802Z</time>
      </trkpt>
      <trkpt lat="39.043125" lon="-0.29348167">
        <ele>44.973</ele>
        <time>2020-02-08T07:42:18.802Z</time>
      </trkpt>
      <trkpt lat="39.043125" lon="-0.29348167">
        <ele>44.973</ele>
        <time>2020-02-08T07:42:19.802Z</time>
      </trkpt>
      <trkpt lat="39.0431" lon="-0.29362833">
        <ele>44.973</ele>
        <time>2020-02-08T07:42:20.802Z</time>
      </trkpt>
      <trkpt lat="39.04308167" lon="-0.29370167">
        <ele>44.973</ele>
        <time>2020-02-08T07:42:21.802Z</time>
      </trkpt>
      <trkpt lat="39.04308167" lon="-0.29370167">
        <ele>44.973</ele>
        <time>2020-02-08T07:42:22.802Z</time>
      </trkpt>
      <trkpt lat="39.043035" lon="-0.29384">
        <ele>44.973</ele>
        <time>2020-02-08T07:42:23.802Z</time>
      </trkpt>
      <trkpt lat="39.04301" lon="-0.29390333">
        <ele>44.973</ele>
        <time>2020-02-08T07:42:24.802Z</time>
      </trkpt>
      <trkpt lat="39.04301" lon="-0.29390333">
        <ele>44.973</ele>
        <time>2020-02-08T07:42:25.802Z</time>
      </trkpt>
      <trkpt lat="39.042965" lon="-0.29402833">
        <ele>44.973</ele>
        <time>2020-02-08T07:42:26.802Z</time>
      </trkpt>
      <trkpt lat="39.042965" lon="-0.29402833">
        <ele>44.973</ele>
        <time>2020-02-08T07:42:27.802Z</time>
      </trkpt>
      <trkpt lat="39.04292167" lon="-0.29415167">
        <ele>44.973</ele>
        <time>2020-02-08T07:42:28.802Z</time>
      </trkpt>
      <trkpt lat="39.04289667" lon="-0.294205">
        <ele>44.973</ele>
        <time>2020-02-08T07:42:29.802Z</time>
      </trkpt>
      <trkpt lat="39.04289667" lon="-0.294205">
        <ele>45.973</ele>
        <time>2020-02-08T07:42:30.802Z</time>
      </trkpt>
      <trkpt lat="39.04285333" lon="-0.29431833">
        <ele>45.973</ele>
        <time>2020-02-08T07:42:31.802Z</time>
      </trkpt>
      <trkpt lat="39.04282833" lon="-0.29437667">
        <ele>45.973</ele>
        <time>2020-02-08T07:42:32.802Z</time>
      </trkpt>
      <trkpt lat="39.04282833" lon="-0.29437667">
        <ele>45.973</ele>
        <time>2020-02-08T07:42:33.802Z</time>
      </trkpt>
      <trkpt lat="39.04278333" lon="-0.29449333">
        <ele>46.973</ele>
        <time>2020-02-08T07:42:34.802Z</time>
      </trkpt>
      <trkpt lat="39.04278333" lon="-0.29449333">
        <ele>46.973</ele>
        <time>2020-02-08T07:42:35.802Z</time>
      </trkpt>
      <trkpt lat="39.04273833" lon="-0.29460667">
        <ele>46.973</ele>
        <time>2020-02-08T07:42:36.802Z</time>
      </trkpt>
      <trkpt lat="39.04273833" lon="-0.29460667">
        <ele>46.973</ele>
        <time>2020-02-08T07:42:37.802Z</time>
      </trkpt>
      <trkpt lat="39.04269167" lon="-0.29472333">
        <ele>47.973</ele>
        <time>2020-02-08T07:42:38.802Z</time>
      </trkpt>
      <trkpt lat="39.04269167" lon="-0.29472333">
        <ele>47.973</ele>
        <time>2020-02-08T07:42:39.802Z</time>
      </trkpt>
      <trkpt lat="39.04265" lon="-0.29484">
        <ele>47.973</ele>
        <time>2020-02-08T07:42:40.802Z</time>
      </trkpt>
      <trkpt lat="39.04262833" lon="-0.294895">
        <ele>47.973</ele>
        <time>2020-02-08T07:42:41.802Z</time>
      </trkpt>
      <trkpt lat="39.04260667" lon="-0.29495">
        <ele>47.973</ele>
        <time>2020-02-08T07:42:42.802Z</time>
      </trkpt>
      <trkpt lat="39.04260667" lon="-0.29495">
        <ele>47.973</ele>
        <time>2020-02-08T07:42:43.802Z</time>
      </trkpt>
      <trkpt lat="39.04256" lon="-0.295055">
        <ele>48.973</ele>
        <time>2020-02-08T07:42:44.802Z</time>
      </trkpt>
      <trkpt lat="39.04256" lon="-0.295055">
        <ele>48.973</ele>
        <time>2020-02-08T07:42:45.802Z</time>
      </trkpt>
      <trkpt lat="39.042515" lon="-0.29516">
        <ele>48.973</ele>
        <time>2020-02-08T07:42:46.802Z</time>
      </trkpt>
      <trkpt lat="39.042515" lon="-0.29516">
        <ele>48.973</ele>
        <time>2020-02-08T07:42:47.802Z</time>
      </trkpt>
      <trkpt lat="39.04247" lon="-0.295265">
        <ele>49.973</ele>
        <time>2020-02-08T07:42:48.802Z</time>
      </trkpt>
      <trkpt lat="39.04244667" lon="-0.29531667">
        <ele>49.973</ele>
        <time>2020-02-08T07:42:49.802Z</time>
      </trkpt>
      <trkpt lat="39.042425" lon="-0.29537">
        <ele>49.973</ele>
        <time>2020-02-08T07:42:50.802Z</time>
      </trkpt>
      <trkpt lat="39.042425" lon="-0.29537">
        <ele>49.973</ele>
        <time>2020-02-08T07:42:51.802Z</time>
      </trkpt>
      <trkpt lat="39.04238" lon="-0.29547667">
        <ele>50.973</ele>
        <time>2020-02-08T07:42:52.802Z</time>
      </trkpt>
      <trkpt lat="39.04238" lon="-0.29547667">
        <ele>50.973</ele>
        <time>2020-02-08T07:42:53.802Z</time>
      </trkpt>
      <trkpt lat="39.04233333" lon="-0.29558667">
        <ele>50.973</ele>
        <time>2020-02-08T07:42:54.802Z</time>
      </trkpt>
      <trkpt lat="39.04233333" lon="-0.29558667">
        <ele>50.973</ele>
        <time>2020-02-08T07:42:55.802Z</time>
      </trkpt>
      <trkpt lat="39.042285" lon="-0.295695">
        <ele>51.973</ele>
        <time>2020-02-08T07:42:56.802Z</time>
      </trkpt>
      <trkpt lat="39.042285" lon="-0.295695">
        <ele>51.973</ele>
        <time>2020-02-08T07:42:57.802Z</time>
      </trkpt>
      <trkpt lat="39.04223667" lon="-0.2958">
        <ele>51.973</ele>
        <time>2020-02-08T07:42:58.802Z</time>
      </trkpt>
      <trkpt lat="39.04223667" lon="-0.2958">
        <ele>51.973</ele>
        <time>2020-02-08T07:42:59.802Z</time>
      </trkpt>
      <trkpt lat="39.04219167" lon="-0.295905">
        <ele>51.973</ele>
        <time>2020-02-08T07:43:00.802Z</time>
      </trkpt>
      <trkpt lat="39.04217" lon="-0.29596">
        <ele>52.973</ele>
        <time>2020-02-08T07:43:01.802Z</time>
      </trkpt>
      <trkpt lat="39.04217" lon="-0.29596">
        <ele>52.973</ele>
        <time>2020-02-08T07:43:02.802Z</time>
      </trkpt>
      <trkpt lat="39.042125" lon="-0.29606333">
        <ele>52.973</ele>
        <time>2020-02-08T07:43:03.802Z</time>
      </trkpt>
      <trkpt lat="39.04210167" lon="-0.29611833">
        <ele>52.973</ele>
        <time>2020-02-08T07:43:04.802Z</time>
      </trkpt>
      <trkpt lat="39.04210167" lon="-0.29611833">
        <ele>53.973</ele>
        <time>2020-02-08T07:43:05.802Z</time>
      </trkpt>
      <trkpt lat="39.04205667" lon="-0.29622667">
        <ele>53.973</ele>
        <time>2020-02-08T07:43:06.802Z</time>
      </trkpt>
      <trkpt lat="39.04205667" lon="-0.29622667">
        <ele>53.973</ele>
        <time>2020-02-08T07:43:07.802Z</time>
      </trkpt>
      <trkpt lat="39.04201" lon="-0.29633833">
        <ele>53.973</ele>
        <time>2020-02-08T07:43:08.802Z</time>
      </trkpt>
      <trkpt lat="39.04201" lon="-0.29633833">
        <ele>54.973</ele>
        <time>2020-02-08T07:43:09.802Z</time>
      </trkpt>
      <trkpt lat="39.04196333" lon="-0.29645333">
        <ele>54.973</ele>
        <time>2020-02-08T07:43:10.802Z</time>
      </trkpt>
      <trkpt lat="39.04196333" lon="-0.29645333">
        <ele>54.973</ele>
        <time>2020-02-08T07:43:11.802Z</time>
      </trkpt>
      <trkpt lat="39.041915" lon="-0.29656667">
        <ele>54.973</ele>
        <time>2020-02-08T07:43:12.802Z</time>
      </trkpt>
      <trkpt lat="39.041915" lon="-0.29656667">
        <ele>54.973</ele>
        <time>2020-02-08T07:43:13.802Z</time>
      </trkpt>
      <trkpt lat="39.04186833" lon="-0.296685">
        <ele>55.973</ele>
        <time>2020-02-08T07:43:14.802Z</time>
      </trkpt>
      <trkpt lat="39.04186833" lon="-0.296685">
        <ele>55.973</ele>
        <time>2020-02-08T07:43:15.802Z</time>
      </trkpt>
      <trkpt lat="39.04182167" lon="-0.2968">
        <ele>55.973</ele>
        <time>2020-02-08T07:43:16.802Z</time>
      </trkpt>
      <trkpt lat="39.04182167" lon="-0.2968">
        <ele>55.973</ele>
        <time>2020-02-08T07:43:17.802Z</time>
      </trkpt>
      <trkpt lat="39.04177667" lon="-0.296915">
        <ele>55.973</ele>
        <time>2020-02-08T07:43:18.802Z</time>
      </trkpt>
      <trkpt lat="39.04177667" lon="-0.296915">
        <ele>55.973</ele>
        <time>2020-02-08T07:43:19.802Z</time>
      </trkpt>
      <trkpt lat="39.04173167" lon="-0.29703167">
        <ele>55.973</ele>
        <time>2020-02-08T07:43:20.802Z</time>
      </trkpt>
      <trkpt lat="39.04173167" lon="-0.29703167">
        <ele>55.973</ele>
        <time>2020-02-08T07:43:21.802Z</time>
      </trkpt>
      <trkpt lat="39.04168833" lon="-0.29714667">
        <ele>55.973</ele>
        <time>2020-02-08T07:43:22.802Z</time>
      </trkpt>
      <trkpt lat="39.041665" lon="-0.29720333">
        <ele>55.973</ele>
        <time>2020-02-08T07:43:23.802Z</time>
      </trkpt>
      <trkpt lat="39.041665" lon="-0.29720333">
        <ele>56.973</ele>
        <time>2020-02-08T07:43:24.802Z</time>
      </trkpt>
      <trkpt lat="39.04162" lon="-0.29731667">
        <ele>56.973</ele>
        <time>2020-02-08T07:43:25.802Z</time>
      </trkpt>
      <trkpt lat="39.041595" lon="-0.29737667">
        <ele>56.973</ele>
        <time>2020-02-08T07:43:26.802Z</time>
      </trkpt>
      <trkpt lat="39.041595" lon="-0.29737667">
        <ele>56.973</ele>
        <time>2020-02-08T07:43:27.802Z</time>
      </trkpt>
      <trkpt lat="39.04154833" lon="-0.29749167">
        <ele>56.973</ele>
        <time>2020-02-08T07:43:28.802Z</time>
      </trkpt>
      <trkpt lat="39.04154833" lon="-0.29749167">
        <ele>56.973</ele>
        <time>2020-02-08T07:43:29.802Z</time>
      </trkpt>
      <trkpt lat="39.0415" lon="-0.29760333">
        <ele>56.973</ele>
        <time>2020-02-08T07:43:30.802Z</time>
      </trkpt>
      <trkpt lat="39.0415" lon="-0.29760333">
        <ele>56.973</ele>
        <time>2020-02-08T07:43:31.802Z</time>
      </trkpt>
      <trkpt lat="39.041435" lon="-0.29769833">
        <ele>56.973</ele>
        <time>2020-02-08T07:43:32.802Z</time>
      </trkpt>
      <trkpt lat="39.041435" lon="-0.29769833">
        <ele>56.973</ele>
        <time>2020-02-08T07:43:33.802Z</time>
      </trkpt>
      <trkpt lat="39.04136" lon="-0.29778167">
        <ele>56.973</ele>
        <time>2020-02-08T07:43:34.802Z</time>
      </trkpt>
      <trkpt lat="39.04136" lon="-0.29778167">
        <ele>56.973</ele>
        <time>2020-02-08T07:43:35.802Z</time>
      </trkpt>
      <trkpt lat="39.04128333" lon="-0.297855">
        <ele>56.973</ele>
        <time>2020-02-08T07:43:36.802Z</time>
      </trkpt>
      <trkpt lat="39.04128333" lon="-0.297855">
        <ele>57.973</ele>
        <time>2020-02-08T07:43:37.802Z</time>
      </trkpt>
      <trkpt lat="39.04121167" lon="-0.29793">
        <ele>57.973</ele>
        <time>2020-02-08T07:43:38.802Z</time>
      </trkpt>
      <trkpt lat="39.04121167" lon="-0.29793">
        <ele>57.973</ele>
        <time>2020-02-08T07:43:39.802Z</time>
      </trkpt>
      <trkpt lat="39.041145" lon="-0.29800333">
        <ele>57.973</ele>
        <time>2020-02-08T07:43:40.802Z</time>
      </trkpt>
      <trkpt lat="39.041145" lon="-0.29800333">
        <ele>58.973</ele>
        <time>2020-02-08T07:43:41.802Z</time>
      </trkpt>
      <trkpt lat="39.041075" lon="-0.29808">
        <ele>58.973</ele>
        <time>2020-02-08T07:43:42.802Z</time>
      </trkpt>
      <trkpt lat="39.041075" lon="-0.29808">
        <ele>58.973</ele>
        <time>2020-02-08T07:43:43.802Z</time>
      </trkpt>
      <trkpt lat="39.04101167" lon="-0.29816">
        <ele>58.973</ele>
        <time>2020-02-08T07:43:44.802Z</time>
      </trkpt>
      <trkpt lat="39.04101167" lon="-0.29816">
        <ele>58.973</ele>
        <time>2020-02-08T07:43:45.802Z</time>
      </trkpt>
      <trkpt lat="39.04095333" lon="-0.29825833">
        <ele>58.973</ele>
        <time>2020-02-08T07:43:46.802Z</time>
      </trkpt>
      <trkpt lat="39.04095333" lon="-0.29825833">
        <ele>58.973</ele>
        <time>2020-02-08T07:43:47.802Z</time>
      </trkpt>
      <trkpt lat="39.04090167" lon="-0.29836833">
        <ele>59.973</ele>
        <time>2020-02-08T07:43:48.802Z</time>
      </trkpt>
      <trkpt lat="39.04090167" lon="-0.29836833">
        <ele>59.973</ele>
        <time>2020-02-08T07:43:49.802Z</time>
      </trkpt>
      <trkpt lat="39.040845" lon="-0.298475">
        <ele>59.973</ele>
        <time>2020-02-08T07:43:50.802Z</time>
      </trkpt>
      <trkpt lat="39.040845" lon="-0.298475">
        <ele>59.973</ele>
        <time>2020-02-08T07:43:51.802Z</time>
      </trkpt>
      <trkpt lat="39.04078667" lon="-0.29858833">
        <ele>59.973</ele>
        <time>2020-02-08T07:43:52.802Z</time>
      </trkpt>
      <trkpt lat="39.04078667" lon="-0.29858833">
        <ele>59.973</ele>
        <time>2020-02-08T07:43:53.802Z</time>
      </trkpt>
      <trkpt lat="39.04073" lon="-0.29869833">
        <ele>59.973</ele>
        <time>2020-02-08T07:43:54.802Z</time>
      </trkpt>
      <trkpt lat="39.04073" lon="-0.29869833">
        <ele>59.973</ele>
        <time>2020-02-08T07:43:55.802Z</time>
      </trkpt>
      <trkpt lat="39.04067667" lon="-0.29880833">
        <ele>59.973</ele>
        <time>2020-02-08T07:43:56.802Z</time>
      </trkpt>
      <trkpt lat="39.04067667" lon="-0.29880833">
        <ele>59.973</ele>
        <time>2020-02-08T07:43:57.802Z</time>
      </trkpt>
      <trkpt lat="39.04062" lon="-0.29891167">
        <ele>59.973</ele>
        <time>2020-02-08T07:43:58.802Z</time>
      </trkpt>
      <trkpt lat="39.04062" lon="-0.29891167">
        <ele>59.973</ele>
        <time>2020-02-08T07:43:59.802Z</time>
      </trkpt>
      <trkpt lat="39.04057333" lon="-0.29900667">
        <ele>59.973</ele>
        <time>2020-02-08T07:44:00.802Z</time>
      </trkpt>
      <trkpt lat="39.04057333" lon="-0.29900667">
        <ele>59.973</ele>
        <time>2020-02-08T07:44:01.802Z</time>
      </trkpt>
      <trkpt lat="39.04051833" lon="-0.29911167">
        <ele>59.973</ele>
        <time>2020-02-08T07:44:02.802Z</time>
      </trkpt>
      <trkpt lat="39.04051833" lon="-0.29911167">
        <ele>59.973</ele>
        <time>2020-02-08T07:44:03.802Z</time>
      </trkpt>
      <trkpt lat="39.040455" lon="-0.299215">
        <ele>59.973</ele>
        <time>2020-02-08T07:44:04.802Z</time>
      </trkpt>
      <trkpt lat="39.040455" lon="-0.299215">
        <ele>60.973</ele>
        <time>2020-02-08T07:44:05.802Z</time>
      </trkpt>
      <trkpt lat="39.04039167" lon="-0.29931">
        <ele>60.973</ele>
        <time>2020-02-08T07:44:06.802Z</time>
      </trkpt>
      <trkpt lat="39.04039167" lon="-0.29931">
        <ele>60.973</ele>
        <time>2020-02-08T07:44:07.802Z</time>
      </trkpt>
      <trkpt lat="39.04033167" lon="-0.29940667">
        <ele>60.973</ele>
        <time>2020-02-08T07:44:08.802Z</time>
      </trkpt>
      <trkpt lat="39.04033167" lon="-0.29940667">
        <ele>60.973</ele>
        <time>2020-02-08T07:44:09.802Z</time>
      </trkpt>
      <trkpt lat="39.04025833" lon="-0.29948333">
        <ele>61.973</ele>
        <time>2020-02-08T07:44:10.802Z</time>
      </trkpt>
      <trkpt lat="39.04025833" lon="-0.29948333">
        <ele>61.973</ele>
        <time>2020-02-08T07:44:11.802Z</time>
      </trkpt>
      <trkpt lat="39.04018" lon="-0.29954833">
        <ele>61.973</ele>
        <time>2020-02-08T07:44:12.802Z</time>
      </trkpt>
      <trkpt lat="39.04018" lon="-0.29954833">
        <ele>61.973</ele>
        <time>2020-02-08T07:44:13.802Z</time>
      </trkpt>
      <trkpt lat="39.04010333" lon="-0.29961333">
        <ele>61.973</ele>
        <time>2020-02-08T07:44:14.802Z</time>
      </trkpt>
      <trkpt lat="39.04010333" lon="-0.29961333">
        <ele>61.973</ele>
        <time>2020-02-08T07:44:15.802Z</time>
      </trkpt>
      <trkpt lat="39.04002833" lon="-0.29968">
        <ele>61.973</ele>
        <time>2020-02-08T07:44:16.802Z</time>
      </trkpt>
      <trkpt lat="39.04002833" lon="-0.29968">
        <ele>61.973</ele>
        <time>2020-02-08T07:44:17.802Z</time>
      </trkpt>
      <trkpt lat="39.03996167" lon="-0.299745">
        <ele>61.973</ele>
        <time>2020-02-08T07:44:18.802Z</time>
      </trkpt>
      <trkpt lat="39.03996167" lon="-0.299745">
        <ele>61.973</ele>
        <time>2020-02-08T07:44:19.802Z</time>
      </trkpt>
      <trkpt lat="39.03988333" lon="-0.29982">
        <ele>61.973</ele>
        <time>2020-02-08T07:44:20.802Z</time>
      </trkpt>
      <trkpt lat="39.03988333" lon="-0.29982">
        <ele>62.973</ele>
        <time>2020-02-08T07:44:21.802Z</time>
      </trkpt>
      <trkpt lat="39.03980833" lon="-0.29989167">
        <ele>62.973</ele>
        <time>2020-02-08T07:44:22.802Z</time>
      </trkpt>
      <trkpt lat="39.03977167" lon="-0.299925">
        <ele>62.973</ele>
        <time>2020-02-08T07:44:23.802Z</time>
      </trkpt>
      <trkpt lat="39.039735" lon="-0.29996">
        <ele>62.973</ele>
        <time>2020-02-08T07:44:24.802Z</time>
      </trkpt>
      <trkpt lat="39.039735" lon="-0.29996">
        <ele>62.973</ele>
        <time>2020-02-08T07:44:25.802Z</time>
      </trkpt>
      <trkpt lat="39.039655" lon="-0.300025">
        <ele>62.973</ele>
        <time>2020-02-08T07:44:26.802Z</time>
      </trkpt>
      <trkpt lat="39.039655" lon="-0.300025">
        <ele>62.973</ele>
        <time>2020-02-08T07:44:27.802Z</time>
      </trkpt>
      <trkpt lat="39.03956" lon="-0.30006333">
        <ele>62.973</ele>
        <time>2020-02-08T07:44:28.802Z</time>
      </trkpt>
      <trkpt lat="39.03956" lon="-0.30006333">
        <ele>62.973</ele>
        <time>2020-02-08T07:44:29.802Z</time>
      </trkpt>
      <trkpt lat="39.03946333" lon="-0.30009333">
        <ele>62.973</ele>
        <time>2020-02-08T07:44:30.802Z</time>
      </trkpt>
      <trkpt lat="39.03946333" lon="-0.30009333">
        <ele>62.973</ele>
        <time>2020-02-08T07:44:31.802Z</time>
      </trkpt>
      <trkpt lat="39.03937167" lon="-0.30012">
        <ele>62.973</ele>
        <time>2020-02-08T07:44:32.802Z</time>
      </trkpt>
      <trkpt lat="39.03937167" lon="-0.30012">
        <ele>62.973</ele>
        <time>2020-02-08T07:44:33.802Z</time>
      </trkpt>
      <trkpt lat="39.03928" lon="-0.30015667">
        <ele>63.973</ele>
        <time>2020-02-08T07:44:34.802Z</time>
      </trkpt>
      <trkpt lat="39.03924167" lon="-0.30018333">
        <ele>63.973</ele>
        <time>2020-02-08T07:44:35.802Z</time>
      </trkpt>
      <trkpt lat="39.03924167" lon="-0.30018333">
        <ele>63.973</ele>
        <time>2020-02-08T07:44:36.802Z</time>
      </trkpt>
      <trkpt lat="39.03916167" lon="-0.30023667">
        <ele>63.973</ele>
        <time>2020-02-08T07:44:37.802Z</time>
      </trkpt>
      <trkpt lat="39.03916167" lon="-0.30023667">
        <ele>63.973</ele>
        <time>2020-02-08T07:44:38.802Z</time>
      </trkpt>
      <trkpt lat="39.03907667" lon="-0.30029">
        <ele>63.973</ele>
        <time>2020-02-08T07:44:39.802Z</time>
      </trkpt>
      <trkpt lat="39.03903333" lon="-0.300315">
        <ele>63.973</ele>
        <time>2020-02-08T07:44:40.802Z</time>
      </trkpt>
      <trkpt lat="39.03903333" lon="-0.300315">
        <ele>63.973</ele>
        <time>2020-02-08T07:44:41.802Z</time>
      </trkpt>
      <trkpt lat="39.038945" lon="-0.30036">
        <ele>63.973</ele>
        <time>2020-02-08T07:44:42.802Z</time>
      </trkpt>
      <trkpt lat="39.038945" lon="-0.30036">
        <ele>63.973</ele>
        <time>2020-02-08T07:44:43.802Z</time>
      </trkpt>
      <trkpt lat="39.03884833" lon="-0.30035833">
        <ele>63.973</ele>
        <time>2020-02-08T07:44:44.802Z</time>
      </trkpt>
      <trkpt lat="39.03884833" lon="-0.30035833">
        <ele>63.973</ele>
        <time>2020-02-08T07:44:45.802Z</time>
      </trkpt>
      <trkpt lat="39.03876167" lon="-0.30030667">
        <ele>64.973</ele>
        <time>2020-02-08T07:44:46.802Z</time>
      </trkpt>
      <trkpt lat="39.03876167" lon="-0.30030667">
        <ele>64.973</ele>
        <time>2020-02-08T07:44:47.802Z</time>
      </trkpt>
      <trkpt lat="39.03869333" lon="-0.30024167">
        <ele>64.973</ele>
        <time>2020-02-08T07:44:48.802Z</time>
      </trkpt>
      <trkpt lat="39.03869333" lon="-0.30024167">
        <ele>64.973</ele>
        <time>2020-02-08T07:44:49.802Z</time>
      </trkpt>
      <trkpt lat="39.03863333" lon="-0.300185">
        <ele>64.973</ele>
        <time>2020-02-08T07:44:50.802Z</time>
      </trkpt>
      <trkpt lat="39.03863333" lon="-0.300185">
        <ele>64.973</ele>
        <time>2020-02-08T07:44:51.802Z</time>
      </trkpt>
      <trkpt lat="39.03857333" lon="-0.30013167">
        <ele>65.973</ele>
        <time>2020-02-08T07:44:52.802Z</time>
      </trkpt>
      <trkpt lat="39.03857333" lon="-0.30013167">
        <ele>65.973</ele>
        <time>2020-02-08T07:44:53.802Z</time>
      </trkpt>
      <trkpt lat="39.03850833" lon="-0.30011333">
        <ele>65.973</ele>
        <time>2020-02-08T07:44:54.802Z</time>
      </trkpt>
      <trkpt lat="39.03850833" lon="-0.30011333">
        <ele>65.973</ele>
        <time>2020-02-08T07:44:55.802Z</time>
      </trkpt>
      <trkpt lat="39.03845167" lon="-0.30016">
        <ele>65.973</ele>
        <time>2020-02-08T07:44:56.802Z</time>
      </trkpt>
      <trkpt lat="39.03845167" lon="-0.30016">
        <ele>65.973</ele>
        <time>2020-02-08T07:44:57.802Z</time>
      </trkpt>
      <trkpt lat="39.03839667" lon="-0.300235">
        <ele>65.973</ele>
        <time>2020-02-08T07:44:58.802Z</time>
      </trkpt>
      <trkpt lat="39.03839667" lon="-0.300235">
        <ele>65.973</ele>
        <time>2020-02-08T07:44:59.802Z</time>
      </trkpt>
      <trkpt lat="39.03833833" lon="-0.30031167">
        <ele>65.973</ele>
        <time>2020-02-08T07:45:00.802Z</time>
      </trkpt>
      <trkpt lat="39.03833833" lon="-0.30031167">
        <ele>65.973</ele>
        <time>2020-02-08T07:45:01.802Z</time>
      </trkpt>
      <trkpt lat="39.03827333" lon="-0.300395">
        <ele>65.973</ele>
        <time>2020-02-08T07:45:02.802Z</time>
      </trkpt>
      <trkpt lat="39.03827333" lon="-0.300395">
        <ele>65.973</ele>
        <time>2020-02-08T07:45:03.802Z</time>
      </trkpt>
      <trkpt lat="39.03820833" lon="-0.30048167">
        <ele>65.973</ele>
        <time>2020-02-08T07:45:04.802Z</time>
      </trkpt>
      <trkpt lat="39.03817333" lon="-0.30052167">
        <ele>65.973</ele>
        <time>2020-02-08T07:45:05.802Z</time>
      </trkpt>
      <trkpt lat="39.03814" lon="-0.300565">
        <ele>65.973</ele>
        <time>2020-02-08T07:45:06.802Z</time>
      </trkpt>
      <trkpt lat="39.03814" lon="-0.300565">
        <ele>65.973</ele>
        <time>2020-02-08T07:45:07.802Z</time>
      </trkpt>
      <trkpt lat="39.03806833" lon="-0.30065667">
        <ele>65.973</ele>
        <time>2020-02-08T07:45:08.802Z</time>
      </trkpt>
      <trkpt lat="39.03803" lon="-0.300705">
        <ele>65.973</ele>
        <time>2020-02-08T07:45:09.802Z</time>
      </trkpt>
      <trkpt lat="39.03799333" lon="-0.30075333">
        <ele>65.973</ele>
        <time>2020-02-08T07:45:10.802Z</time>
      </trkpt>
      <trkpt lat="39.03799333" lon="-0.30075333">
        <ele>65.973</ele>
        <time>2020-02-08T07:45:11.802Z</time>
      </trkpt>
      <trkpt lat="39.03792167" lon="-0.30084667">
        <ele>65.973</ele>
        <time>2020-02-08T07:45:12.802Z</time>
      </trkpt>
      <trkpt lat="39.03792167" lon="-0.30084667">
        <ele>65.973</ele>
        <time>2020-02-08T07:45:13.802Z</time>
      </trkpt>
      <trkpt lat="39.03785" lon="-0.30094333">
        <ele>65.973</ele>
        <time>2020-02-08T07:45:14.802Z</time>
      </trkpt>
      <trkpt lat="39.03785" lon="-0.30094333">
        <ele>65.973</ele>
        <time>2020-02-08T07:45:15.802Z</time>
      </trkpt>
      <trkpt lat="39.03777833" lon="-0.30104167">
        <ele>65.973</ele>
        <time>2020-02-08T07:45:16.802Z</time>
      </trkpt>
      <trkpt lat="39.03777833" lon="-0.30104167">
        <ele>65.973</ele>
        <time>2020-02-08T07:45:17.802Z</time>
      </trkpt>
      <trkpt lat="39.03770833" lon="-0.30113833">
        <ele>65.973</ele>
        <time>2020-02-08T07:45:18.802Z</time>
      </trkpt>
      <trkpt lat="39.03770833" lon="-0.30113833">
        <ele>65.973</ele>
        <time>2020-02-08T07:45:19.802Z</time>
      </trkpt>
      <trkpt lat="39.03763667" lon="-0.30123">
        <ele>65.973</ele>
        <time>2020-02-08T07:45:20.802Z</time>
      </trkpt>
      <trkpt lat="39.03763667" lon="-0.30123">
        <ele>65.973</ele>
        <time>2020-02-08T07:45:21.802Z</time>
      </trkpt>
      <trkpt lat="39.03757333" lon="-0.30132333">
        <ele>65.973</ele>
        <time>2020-02-08T07:45:22.802Z</time>
      </trkpt>
      <trkpt lat="39.03754833" lon="-0.30137167">
        <ele>65.973</ele>
        <time>2020-02-08T07:45:23.802Z</time>
      </trkpt>
      <trkpt lat="39.03752833" lon="-0.30142">
        <ele>65.973</ele>
        <time>2020-02-08T07:45:24.802Z</time>
      </trkpt>
      <trkpt lat="39.03752833" lon="-0.30142">
        <ele>65.973</ele>
        <time>2020-02-08T07:45:25.802Z</time>
      </trkpt>
      <trkpt lat="39.03748667" lon="-0.30151833">
        <ele>65.973</ele>
        <time>2020-02-08T07:45:26.802Z</time>
      </trkpt>
      <trkpt lat="39.03746667" lon="-0.30156667">
        <ele>65.973</ele>
        <time>2020-02-08T07:45:27.802Z</time>
      </trkpt>
      <trkpt lat="39.03746667" lon="-0.30156667">
        <ele>65.973</ele>
        <time>2020-02-08T07:45:28.802Z</time>
      </trkpt>
      <trkpt lat="39.03743167" lon="-0.30166667">
        <ele>65.973</ele>
        <time>2020-02-08T07:45:29.802Z</time>
      </trkpt>
      <trkpt lat="39.037415" lon="-0.30171667">
        <ele>65.973</ele>
        <time>2020-02-08T07:45:30.802Z</time>
      </trkpt>
      <trkpt lat="39.037415" lon="-0.30171667">
        <ele>65.973</ele>
        <time>2020-02-08T07:45:31.802Z</time>
      </trkpt>
      <trkpt lat="39.03738" lon="-0.30181333">
        <ele>67.973</ele>
        <time>2020-02-08T07:45:32.802Z</time>
      </trkpt>
      <trkpt lat="39.03738" lon="-0.30181333">
        <ele>67.973</ele>
        <time>2020-02-08T07:45:33.802Z</time>
      </trkpt>
      <trkpt lat="39.03733667" lon="-0.30190667">
        <ele>67.973</ele>
        <time>2020-02-08T07:45:34.802Z</time>
      </trkpt>
      <trkpt lat="39.03733667" lon="-0.30190667">
        <ele>67.973</ele>
        <time>2020-02-08T07:45:35.802Z</time>
      </trkpt>
      <trkpt lat="39.037295" lon="-0.30199667">
        <ele>67.973</ele>
        <time>2020-02-08T07:45:36.802Z</time>
      </trkpt>
      <trkpt lat="39.037295" lon="-0.30199667">
        <ele>67.973</ele>
        <time>2020-02-08T07:45:37.802Z</time>
      </trkpt>
      <trkpt lat="39.03725167" lon="-0.30208333">
        <ele>68.973</ele>
        <time>2020-02-08T07:45:38.802Z</time>
      </trkpt>
      <trkpt lat="39.03725167" lon="-0.30208333">
        <ele>68.973</ele>
        <time>2020-02-08T07:45:39.802Z</time>
      </trkpt>
      <trkpt lat="39.037205" lon="-0.30216333">
        <ele>68.973</ele>
        <time>2020-02-08T07:45:40.802Z</time>
      </trkpt>
      <trkpt lat="39.037205" lon="-0.30216333">
        <ele>68.973</ele>
        <time>2020-02-08T07:45:41.802Z</time>
      </trkpt>
      <trkpt lat="39.037155" lon="-0.302245">
        <ele>68.973</ele>
        <time>2020-02-08T07:45:42.802Z</time>
      </trkpt>
      <trkpt lat="39.037155" lon="-0.302245">
        <ele>68.973</ele>
        <time>2020-02-08T07:45:43.802Z</time>
      </trkpt>
      <trkpt lat="39.03710833" lon="-0.30233333">
        <ele>68.973</ele>
        <time>2020-02-08T07:45:44.802Z</time>
      </trkpt>
      <trkpt lat="39.03710833" lon="-0.30233333">
        <ele>68.973</ele>
        <time>2020-02-08T07:45:45.802Z</time>
      </trkpt>
      <trkpt lat="39.03706333" lon="-0.302425">
        <ele>69.973</ele>
        <time>2020-02-08T07:45:46.802Z</time>
      </trkpt>
      <trkpt lat="39.03706333" lon="-0.302425">
        <ele>69.973</ele>
        <time>2020-02-08T07:45:47.802Z</time>
      </trkpt>
      <trkpt lat="39.03701333" lon="-0.30251333">
        <ele>69.973</ele>
        <time>2020-02-08T07:45:48.802Z</time>
      </trkpt>
      <trkpt lat="39.03701333" lon="-0.30251333">
        <ele>69.973</ele>
        <time>2020-02-08T07:45:49.802Z</time>
      </trkpt>
      <trkpt lat="39.03696833" lon="-0.30261">
        <ele>69.973</ele>
        <time>2020-02-08T07:45:50.802Z</time>
      </trkpt>
      <trkpt lat="39.03696833" lon="-0.30261">
        <ele>69.973</ele>
        <time>2020-02-08T07:45:51.802Z</time>
      </trkpt>
      <trkpt lat="39.03691833" lon="-0.30270333">
        <ele>70.973</ele>
        <time>2020-02-08T07:45:52.802Z</time>
      </trkpt>
      <trkpt lat="39.036895" lon="-0.30274833">
        <ele>70.973</ele>
        <time>2020-02-08T07:45:53.802Z</time>
      </trkpt>
      <trkpt lat="39.03687333" lon="-0.302795">
        <ele>70.973</ele>
        <time>2020-02-08T07:45:54.802Z</time>
      </trkpt>
      <trkpt lat="39.03687333" lon="-0.302795">
        <ele>70.973</ele>
        <time>2020-02-08T07:45:55.802Z</time>
      </trkpt>
      <trkpt lat="39.03682667" lon="-0.30288">
        <ele>70.973</ele>
        <time>2020-02-08T07:45:56.802Z</time>
      </trkpt>
      <trkpt lat="39.03680167" lon="-0.30292">
        <ele>70.973</ele>
        <time>2020-02-08T07:45:57.802Z</time>
      </trkpt>
      <trkpt lat="39.03680167" lon="-0.30292">
        <ele>70.973</ele>
        <time>2020-02-08T07:45:58.802Z</time>
      </trkpt>
      <trkpt lat="39.03674333" lon="-0.302995">
        <ele>71.973</ele>
        <time>2020-02-08T07:45:59.802Z</time>
      </trkpt>
      <trkpt lat="39.03671333" lon="-0.30303">
        <ele>71.973</ele>
        <time>2020-02-08T07:46:00.802Z</time>
      </trkpt>
      <trkpt lat="39.03671333" lon="-0.30303">
        <ele>71.973</ele>
        <time>2020-02-08T07:46:01.802Z</time>
      </trkpt>
      <trkpt lat="39.036645" lon="-0.30309">
        <ele>71.973</ele>
        <time>2020-02-08T07:46:02.802Z</time>
      </trkpt>
      <trkpt lat="39.03661167" lon="-0.30311667">
        <ele>72.973</ele>
        <time>2020-02-08T07:46:03.802Z</time>
      </trkpt>
      <trkpt lat="39.03661167" lon="-0.30311667">
        <ele>72.973</ele>
        <time>2020-02-08T07:46:04.802Z</time>
      </trkpt>
      <trkpt lat="39.03654833" lon="-0.30317833">
        <ele>72.973</ele>
        <time>2020-02-08T07:46:05.802Z</time>
      </trkpt>
      <trkpt lat="39.03651667" lon="-0.30321">
        <ele>72.973</ele>
        <time>2020-02-08T07:46:06.802Z</time>
      </trkpt>
      <trkpt lat="39.03651667" lon="-0.30321">
        <ele>72.973</ele>
        <time>2020-02-08T07:46:07.802Z</time>
      </trkpt>
      <trkpt lat="39.036455" lon="-0.30326667">
        <ele>72.973</ele>
        <time>2020-02-08T07:46:08.802Z</time>
      </trkpt>
      <trkpt lat="39.036455" lon="-0.30326667">
        <ele>73.973</ele>
        <time>2020-02-08T07:46:09.802Z</time>
      </trkpt>
      <trkpt lat="39.03639" lon="-0.303325">
        <ele>73.973</ele>
        <time>2020-02-08T07:46:10.802Z</time>
      </trkpt>
      <trkpt lat="39.03639" lon="-0.303325">
        <ele>73.973</ele>
        <time>2020-02-08T07:46:11.802Z</time>
      </trkpt>
      <trkpt lat="39.03632333" lon="-0.30338">
        <ele>73.973</ele>
        <time>2020-02-08T07:46:12.802Z</time>
      </trkpt>
      <trkpt lat="39.03632333" lon="-0.30338">
        <ele>73.973</ele>
        <time>2020-02-08T07:46:13.802Z</time>
      </trkpt>
      <trkpt lat="39.03625333" lon="-0.30343333">
        <ele>73.973</ele>
        <time>2020-02-08T07:46:14.802Z</time>
      </trkpt>
      <trkpt lat="39.03625333" lon="-0.30343333">
        <ele>74.973</ele>
        <time>2020-02-08T07:46:15.802Z</time>
      </trkpt>
      <trkpt lat="39.03618333" lon="-0.30348667">
        <ele>74.973</ele>
        <time>2020-02-08T07:46:16.802Z</time>
      </trkpt>
      <trkpt lat="39.03618333" lon="-0.30348667">
        <ele>74.973</ele>
        <time>2020-02-08T07:46:17.802Z</time>
      </trkpt>
      <trkpt lat="39.03610667" lon="-0.30352667">
        <ele>74.973</ele>
        <time>2020-02-08T07:46:18.802Z</time>
      </trkpt>
      <trkpt lat="39.03610667" lon="-0.30352667">
        <ele>74.973</ele>
        <time>2020-02-08T07:46:19.802Z</time>
      </trkpt>
      <trkpt lat="39.03603167" lon="-0.30351">
        <ele>74.973</ele>
        <time>2020-02-08T07:46:20.802Z</time>
      </trkpt>
      <trkpt lat="39.03603167" lon="-0.30351">
        <ele>74.973</ele>
        <time>2020-02-08T07:46:21.802Z</time>
      </trkpt>
      <trkpt lat="39.03598333" lon="-0.30346167">
        <ele>74.973</ele>
        <time>2020-02-08T07:46:22.802Z</time>
      </trkpt>
      <trkpt lat="39.03596167" lon="-0.303435">
        <ele>75.973</ele>
        <time>2020-02-08T07:46:23.802Z</time>
      </trkpt>
      <trkpt lat="39.03594167" lon="-0.30340833">
        <ele>75.973</ele>
        <time>2020-02-08T07:46:24.802Z</time>
      </trkpt>
      <trkpt lat="39.03594167" lon="-0.30340833">
        <ele>75.973</ele>
        <time>2020-02-08T07:46:25.802Z</time>
      </trkpt>
      <trkpt lat="39.03589667" lon="-0.30335833">
        <ele>76.973</ele>
        <time>2020-02-08T07:46:26.802Z</time>
      </trkpt>
      <trkpt lat="39.03589667" lon="-0.30335833">
        <ele>76.973</ele>
        <time>2020-02-08T07:46:27.802Z</time>
      </trkpt>
      <trkpt lat="39.03585333" lon="-0.30331">
        <ele>76.973</ele>
        <time>2020-02-08T07:46:28.802Z</time>
      </trkpt>
      <trkpt lat="39.03585333" lon="-0.30331">
        <ele>76.973</ele>
        <time>2020-02-08T07:46:29.802Z</time>
      </trkpt>
      <trkpt lat="39.03580833" lon="-0.30326333">
        <ele>77.973</ele>
        <time>2020-02-08T07:46:30.802Z</time>
      </trkpt>
      <trkpt lat="39.03580833" lon="-0.30326333">
        <ele>77.973</ele>
        <time>2020-02-08T07:46:31.802Z</time>
      </trkpt>
      <trkpt lat="39.03576833" lon="-0.30321667">
        <ele>77.973</ele>
        <time>2020-02-08T07:46:32.802Z</time>
      </trkpt>
      <trkpt lat="39.03574667" lon="-0.30319333">
        <ele>77.973</ele>
        <time>2020-02-08T07:46:33.802Z</time>
      </trkpt>
      <trkpt lat="39.03574667" lon="-0.30319333">
        <ele>79.973</ele>
        <time>2020-02-08T07:46:34.802Z</time>
      </trkpt>
      <trkpt lat="39.035695" lon="-0.30314667">
        <ele>79.973</ele>
        <time>2020-02-08T07:46:35.802Z</time>
      </trkpt>
      <trkpt lat="39.035675" lon="-0.303125">
        <ele>79.973</ele>
        <time>2020-02-08T07:46:36.802Z</time>
      </trkpt>
      <trkpt lat="39.035675" lon="-0.303125">
        <ele>79.973</ele>
        <time>2020-02-08T07:46:37.802Z</time>
      </trkpt>
      <trkpt lat="39.03563" lon="-0.30308333">
        <ele>80.973</ele>
        <time>2020-02-08T07:46:38.802Z</time>
      </trkpt>
      <trkpt lat="39.03563" lon="-0.30308333">
        <ele>80.973</ele>
        <time>2020-02-08T07:46:39.802Z</time>
      </trkpt>
      <trkpt lat="39.03558167" lon="-0.30303833">
        <ele>81.973</ele>
        <time>2020-02-08T07:46:40.802Z</time>
      </trkpt>
      <trkpt lat="39.03555833" lon="-0.30302">
        <ele>81.973</ele>
        <time>2020-02-08T07:46:41.802Z</time>
      </trkpt>
      <trkpt lat="39.03553667" lon="-0.30300167">
        <ele>82.973</ele>
        <time>2020-02-08T07:46:42.802Z</time>
      </trkpt>
      <trkpt lat="39.03553667" lon="-0.30300167">
        <ele>82.973</ele>
        <time>2020-02-08T07:46:43.802Z</time>
      </trkpt>
      <trkpt lat="39.03549333" lon="-0.30297667">
        <ele>82.973</ele>
        <time>2020-02-08T07:46:44.802Z</time>
      </trkpt>
      <trkpt lat="39.03549333" lon="-0.30297667">
        <ele>82.973</ele>
        <time>2020-02-08T07:46:45.802Z</time>
      </trkpt>
      <trkpt lat="39.03544667" lon="-0.302995">
        <ele>83.973</ele>
        <time>2020-02-08T07:46:46.802Z</time>
      </trkpt>
      <trkpt lat="39.03544667" lon="-0.302995">
        <ele>83.973</ele>
        <time>2020-02-08T07:46:47.802Z</time>
      </trkpt>
      <trkpt lat="39.03541167" lon="-0.30305167">
        <ele>83.973</ele>
        <time>2020-02-08T07:46:48.802Z</time>
      </trkpt>
      <trkpt lat="39.03540167" lon="-0.30307833">
        <ele>83.973</ele>
        <time>2020-02-08T07:46:49.802Z</time>
      </trkpt>
      <trkpt lat="39.03537833" lon="-0.30311333">
        <ele>83.973</ele>
        <time>2020-02-08T07:46:50.802Z</time>
      </trkpt>
      <trkpt lat="39.03537833" lon="-0.30311333">
        <ele>83.973</ele>
        <time>2020-02-08T07:46:51.802Z</time>
      </trkpt>
      <trkpt lat="39.03533333" lon="-0.30318">
        <ele>83.973</ele>
        <time>2020-02-08T07:46:52.802Z</time>
      </trkpt>
      <trkpt lat="39.03533333" lon="-0.30318">
        <ele>83.973</ele>
        <time>2020-02-08T07:46:53.802Z</time>
      </trkpt>
      <trkpt lat="39.03528833" lon="-0.30325167">
        <ele>83.973</ele>
        <time>2020-02-08T07:46:54.802Z</time>
      </trkpt>
      <trkpt lat="39.03528833" lon="-0.30325167">
        <ele>84.973</ele>
        <time>2020-02-08T07:46:55.802Z</time>
      </trkpt>
      <trkpt lat="39.03524333" lon="-0.30333">
        <ele>84.973</ele>
        <time>2020-02-08T07:46:56.802Z</time>
      </trkpt>
      <trkpt lat="39.03522" lon="-0.30336667">
        <ele>84.973</ele>
        <time>2020-02-08T07:46:57.802Z</time>
      </trkpt>
      <trkpt lat="39.03522" lon="-0.30336667">
        <ele>84.973</ele>
        <time>2020-02-08T07:46:58.802Z</time>
      </trkpt>
      <trkpt lat="39.03517333" lon="-0.30344167">
        <ele>84.973</ele>
        <time>2020-02-08T07:46:59.802Z</time>
      </trkpt>
      <trkpt lat="39.03515" lon="-0.30348167">
        <ele>84.973</ele>
        <time>2020-02-08T07:47:00.802Z</time>
      </trkpt>
      <trkpt lat="39.03515" lon="-0.30348167">
        <ele>84.973</ele>
        <time>2020-02-08T07:47:01.802Z</time>
      </trkpt>
      <trkpt lat="39.03510167" lon="-0.30355333">
        <ele>84.973</ele>
        <time>2020-02-08T07:47:02.802Z</time>
      </trkpt>
      <trkpt lat="39.03510167" lon="-0.30355333">
        <ele>84.973</ele>
        <time>2020-02-08T07:47:03.802Z</time>
      </trkpt>
      <trkpt lat="39.035055" lon="-0.30362167">
        <ele>84.973</ele>
        <time>2020-02-08T07:47:04.802Z</time>
      </trkpt>
      <trkpt lat="39.035055" lon="-0.30362167">
        <ele>84.973</ele>
        <time>2020-02-08T07:47:05.802Z</time>
      </trkpt>
      <trkpt lat="39.03500333" lon="-0.30367833">
        <ele>84.973</ele>
        <time>2020-02-08T07:47:06.802Z</time>
      </trkpt>
      <trkpt lat="39.03500333" lon="-0.30367833">
        <ele>84.973</ele>
        <time>2020-02-08T07:47:07.802Z</time>
      </trkpt>
      <trkpt lat="39.03496" lon="-0.30374333">
        <ele>84.973</ele>
        <time>2020-02-08T07:47:08.802Z</time>
      </trkpt>
      <trkpt lat="39.03496" lon="-0.30374333">
        <ele>84.973</ele>
        <time>2020-02-08T07:47:09.802Z</time>
      </trkpt>
      <trkpt lat="39.034915" lon="-0.303805">
        <ele>84.973</ele>
        <time>2020-02-08T07:47:10.802Z</time>
      </trkpt>
      <trkpt lat="39.034915" lon="-0.303805">
        <ele>84.973</ele>
        <time>2020-02-08T07:47:11.802Z</time>
      </trkpt>
      <trkpt lat="39.034875" lon="-0.30387167">
        <ele>84.973</ele>
        <time>2020-02-08T07:47:12.802Z</time>
      </trkpt>
      <trkpt lat="39.034875" lon="-0.30387167">
        <ele>84.973</ele>
        <time>2020-02-08T07:47:13.802Z</time>
      </trkpt>
      <trkpt lat="39.03483667" lon="-0.30393833">
        <ele>84.973</ele>
        <time>2020-02-08T07:47:14.802Z</time>
      </trkpt>
      <trkpt lat="39.03483667" lon="-0.30393833">
        <ele>84.973</ele>
        <time>2020-02-08T07:47:15.802Z</time>
      </trkpt>
      <trkpt lat="39.03479667" lon="-0.30398333">
        <ele>84.973</ele>
        <time>2020-02-08T07:47:16.802Z</time>
      </trkpt>
      <trkpt lat="39.03478333" lon="-0.304">
        <ele>84.973</ele>
        <time>2020-02-08T07:47:17.802Z</time>
      </trkpt>
      <trkpt lat="39.03478333" lon="-0.304">
        <ele>84.973</ele>
        <time>2020-02-08T07:47:18.802Z</time>
      </trkpt>
      <trkpt lat="39.03474" lon="-0.30402667">
        <ele>84.973</ele>
        <time>2020-02-08T07:47:19.802Z</time>
      </trkpt>
      <trkpt lat="39.03471167" lon="-0.30404167">
        <ele>84.973</ele>
        <time>2020-02-08T07:47:20.802Z</time>
      </trkpt>
      <trkpt lat="39.03471167" lon="-0.30404167">
        <ele>84.973</ele>
        <time>2020-02-08T07:47:21.802Z</time>
      </trkpt>
      <trkpt lat="39.03465333" lon="-0.30404">
        <ele>84.973</ele>
        <time>2020-02-08T07:47:22.802Z</time>
      </trkpt>
      <trkpt lat="39.03465333" lon="-0.30404">
        <ele>84.973</ele>
        <time>2020-02-08T07:47:23.802Z</time>
      </trkpt>
      <trkpt lat="39.034605" lon="-0.30402">
        <ele>84.973</ele>
        <time>2020-02-08T07:47:24.802Z</time>
      </trkpt>
      <trkpt lat="39.034605" lon="-0.30402">
        <ele>85.973</ele>
        <time>2020-02-08T07:47:25.802Z</time>
      </trkpt>
      <trkpt lat="39.03455833" lon="-0.30400167">
        <ele>85.973</ele>
        <time>2020-02-08T07:47:26.802Z</time>
      </trkpt>
      <trkpt lat="39.03455833" lon="-0.30400167">
        <ele>85.973</ele>
        <time>2020-02-08T07:47:27.802Z</time>
      </trkpt>
      <trkpt lat="39.03452" lon="-0.30398167">
        <ele>86.973</ele>
        <time>2020-02-08T07:47:28.802Z</time>
      </trkpt>
      <trkpt lat="39.03449667" lon="-0.30397167">
        <ele>86.973</ele>
        <time>2020-02-08T07:47:29.802Z</time>
      </trkpt>
      <trkpt lat="39.03447667" lon="-0.30396167">
        <ele>86.973</ele>
        <time>2020-02-08T07:47:30.802Z</time>
      </trkpt>
      <trkpt lat="39.03447667" lon="-0.30396167">
        <ele>86.973</ele>
        <time>2020-02-08T07:47:31.802Z</time>
      </trkpt>
      <trkpt lat="39.03443333" lon="-0.30394">
        <ele>87.973</ele>
        <time>2020-02-08T07:47:32.802Z</time>
      </trkpt>
      <trkpt lat="39.03441" lon="-0.30393">
        <ele>87.973</ele>
        <time>2020-02-08T07:47:33.802Z</time>
      </trkpt>
      <trkpt lat="39.03441" lon="-0.30393">
        <ele>87.973</ele>
        <time>2020-02-08T07:47:34.802Z</time>
      </trkpt>
      <trkpt lat="39.034365" lon="-0.303905">
        <ele>87.973</ele>
        <time>2020-02-08T07:47:35.802Z</time>
      </trkpt>
      <trkpt lat="39.03434333" lon="-0.30389333">
        <ele>88.973</ele>
        <time>2020-02-08T07:47:36.802Z</time>
      </trkpt>
      <trkpt lat="39.03434333" lon="-0.30389333">
        <ele>88.973</ele>
        <time>2020-02-08T07:47:37.802Z</time>
      </trkpt>
      <trkpt lat="39.03430333" lon="-0.30386833">
        <ele>88.973</ele>
        <time>2020-02-08T07:47:38.802Z</time>
      </trkpt>
      <trkpt lat="39.03430333" lon="-0.30386833">
        <ele>88.973</ele>
        <time>2020-02-08T07:47:39.802Z</time>
      </trkpt>
      <trkpt lat="39.03426" lon="-0.30384333">
        <ele>89.973</ele>
        <time>2020-02-08T07:47:40.802Z</time>
      </trkpt>
      <trkpt lat="39.03426" lon="-0.30384333">
        <ele>89.973</ele>
        <time>2020-02-08T07:47:41.802Z</time>
      </trkpt>
      <trkpt lat="39.03421333" lon="-0.30381833">
        <ele>89.973</ele>
        <time>2020-02-08T07:47:42.802Z</time>
      </trkpt>
      <trkpt lat="39.03421333" lon="-0.30381833">
        <ele>89.973</ele>
        <time>2020-02-08T07:47:43.802Z</time>
      </trkpt>
      <trkpt lat="39.03417" lon="-0.30379">
        <ele>89.973</ele>
        <time>2020-02-08T07:47:44.802Z</time>
      </trkpt>
      <trkpt lat="39.03417" lon="-0.30379">
        <ele>89.973</ele>
        <time>2020-02-08T07:47:45.802Z</time>
      </trkpt>
      <trkpt lat="39.03412167" lon="-0.303765">
        <ele>89.973</ele>
        <time>2020-02-08T07:47:46.802Z</time>
      </trkpt>
      <trkpt lat="39.03412167" lon="-0.303765">
        <ele>90.973</ele>
        <time>2020-02-08T07:47:47.802Z</time>
      </trkpt>
      <trkpt lat="39.03407" lon="-0.30373667">
        <ele>90.973</ele>
        <time>2020-02-08T07:47:48.802Z</time>
      </trkpt>
      <trkpt lat="39.03407" lon="-0.30373667">
        <ele>90.973</ele>
        <time>2020-02-08T07:47:49.802Z</time>
      </trkpt>
      <trkpt lat="39.03402167" lon="-0.30370167">
        <ele>90.973</ele>
        <time>2020-02-08T07:47:50.802Z</time>
      </trkpt>
      <trkpt lat="39.03402167" lon="-0.30370167">
        <ele>90.973</ele>
        <time>2020-02-08T07:47:51.802Z</time>
      </trkpt>
      <trkpt lat="39.03397" lon="-0.30368167">
        <ele>90.973</ele>
        <time>2020-02-08T07:47:52.802Z</time>
      </trkpt>
      <trkpt lat="39.03397" lon="-0.30368167">
        <ele>90.973</ele>
        <time>2020-02-08T07:47:53.802Z</time>
      </trkpt>
      <trkpt lat="39.03392167" lon="-0.30365667">
        <ele>90.973</ele>
        <time>2020-02-08T07:47:54.802Z</time>
      </trkpt>
      <trkpt lat="39.03392167" lon="-0.30365667">
        <ele>90.973</ele>
        <time>2020-02-08T07:47:55.802Z</time>
      </trkpt>
      <trkpt lat="39.033865" lon="-0.30363667">
        <ele>90.973</ele>
        <time>2020-02-08T07:47:56.802Z</time>
      </trkpt>
      <trkpt lat="39.03384" lon="-0.30362333">
        <ele>90.973</ele>
        <time>2020-02-08T07:47:57.802Z</time>
      </trkpt>
      <trkpt lat="39.03384" lon="-0.30362333">
        <ele>91.973</ele>
        <time>2020-02-08T07:47:58.802Z</time>
      </trkpt>
      <trkpt lat="39.033795" lon="-0.3036">
        <ele>91.973</ele>
        <time>2020-02-08T07:47:59.802Z</time>
      </trkpt>
      <trkpt lat="39.03377333" lon="-0.303585">
        <ele>91.973</ele>
        <time>2020-02-08T07:48:00.802Z</time>
      </trkpt>
      <trkpt lat="39.03377333" lon="-0.303585">
        <ele>91.973</ele>
        <time>2020-02-08T07:48:01.802Z</time>
      </trkpt>
      <trkpt lat="39.033725" lon="-0.30355167">
        <ele>92.973</ele>
        <time>2020-02-08T07:48:02.802Z</time>
      </trkpt>
      <trkpt lat="39.0337" lon="-0.30353667">
        <ele>92.973</ele>
        <time>2020-02-08T07:48:03.802Z</time>
      </trkpt>
      <trkpt lat="39.0337" lon="-0.30353667">
        <ele>92.973</ele>
        <time>2020-02-08T07:48:04.802Z</time>
      </trkpt>
      <trkpt lat="39.03365833" lon="-0.30350167">
        <ele>92.973</ele>
        <time>2020-02-08T07:48:05.802Z</time>
      </trkpt>
      <trkpt lat="39.033635" lon="-0.30348167">
        <ele>92.973</ele>
        <time>2020-02-08T07:48:06.802Z</time>
      </trkpt>
      <trkpt lat="39.033635" lon="-0.30348167">
        <ele>92.973</ele>
        <time>2020-02-08T07:48:07.802Z</time>
      </trkpt>
      <trkpt lat="39.03359833" lon="-0.30344667">
        <ele>93.973</ele>
        <time>2020-02-08T07:48:08.802Z</time>
      </trkpt>
      <trkpt lat="39.03357833" lon="-0.30342833">
        <ele>93.973</ele>
        <time>2020-02-08T07:48:09.802Z</time>
      </trkpt>
      <trkpt lat="39.03356167" lon="-0.30341">
        <ele>93.973</ele>
        <time>2020-02-08T07:48:10.802Z</time>
      </trkpt>
      <trkpt lat="39.03356167" lon="-0.30341">
        <ele>93.973</ele>
        <time>2020-02-08T07:48:11.802Z</time>
      </trkpt>
      <trkpt lat="39.033525" lon="-0.303375">
        <ele>94.973</ele>
        <time>2020-02-08T07:48:12.802Z</time>
      </trkpt>
      <trkpt lat="39.033525" lon="-0.303375">
        <ele>94.973</ele>
        <time>2020-02-08T07:48:13.802Z</time>
      </trkpt>
      <trkpt lat="39.033485" lon="-0.30334333">
        <ele>94.973</ele>
        <time>2020-02-08T07:48:14.802Z</time>
      </trkpt>
      <trkpt lat="39.033485" lon="-0.30334333">
        <ele>94.973</ele>
        <time>2020-02-08T07:48:15.802Z</time>
      </trkpt>
      <trkpt lat="39.03345" lon="-0.30331">
        <ele>95.973</ele>
        <time>2020-02-08T07:48:16.802Z</time>
      </trkpt>
      <trkpt lat="39.03345" lon="-0.30331">
        <ele>95.973</ele>
        <time>2020-02-08T07:48:17.802Z</time>
      </trkpt>
      <trkpt lat="39.03341167" lon="-0.30327167">
        <ele>95.973</ele>
        <time>2020-02-08T07:48:18.802Z</time>
      </trkpt>
      <trkpt lat="39.03341167" lon="-0.30327167">
        <ele>95.973</ele>
        <time>2020-02-08T07:48:19.802Z</time>
      </trkpt>
      <trkpt lat="39.03336833" lon="-0.30323667">
        <ele>96.973</ele>
        <time>2020-02-08T07:48:20.802Z</time>
      </trkpt>
      <trkpt lat="39.03336833" lon="-0.30323667">
        <ele>96.973</ele>
        <time>2020-02-08T07:48:21.802Z</time>
      </trkpt>
      <trkpt lat="39.03331167" lon="-0.30320667">
        <ele>96.973</ele>
        <time>2020-02-08T07:48:22.802Z</time>
      </trkpt>
      <trkpt lat="39.03331167" lon="-0.30320667">
        <ele>96.973</ele>
        <time>2020-02-08T07:48:23.802Z</time>
      </trkpt>
      <trkpt lat="39.03327" lon="-0.303175">
        <ele>97.973</ele>
        <time>2020-02-08T07:48:24.802Z</time>
      </trkpt>
      <trkpt lat="39.03324833" lon="-0.30316167">
        <ele>97.973</ele>
        <time>2020-02-08T07:48:25.802Z</time>
      </trkpt>
      <trkpt lat="39.03324833" lon="-0.30316167">
        <ele>97.973</ele>
        <time>2020-02-08T07:48:26.802Z</time>
      </trkpt>
      <trkpt lat="39.03320167" lon="-0.30313667">
        <ele>98.973</ele>
        <time>2020-02-08T07:48:27.802Z</time>
      </trkpt>
      <trkpt lat="39.03320167" lon="-0.30313667">
        <ele>98.973</ele>
        <time>2020-02-08T07:48:28.802Z</time>
      </trkpt>
      <trkpt lat="39.033155" lon="-0.30312667">
        <ele>98.973</ele>
        <time>2020-02-08T07:48:29.802Z</time>
      </trkpt>
      <trkpt lat="39.033125" lon="-0.30312167">
        <ele>98.973</ele>
        <time>2020-02-08T07:48:30.802Z</time>
      </trkpt>
      <trkpt lat="39.033125" lon="-0.30312167">
        <ele>98.973</ele>
        <time>2020-02-08T07:48:31.802Z</time>
      </trkpt>
      <trkpt lat="39.03306833" lon="-0.303115">
        <ele>98.973</ele>
        <time>2020-02-08T07:48:32.802Z</time>
      </trkpt>
      <trkpt lat="39.03303667" lon="-0.303115">
        <ele>99.973</ele>
        <time>2020-02-08T07:48:33.802Z</time>
      </trkpt>
      <trkpt lat="39.03303667" lon="-0.303115">
        <ele>99.973</ele>
        <time>2020-02-08T07:48:34.802Z</time>
      </trkpt>
      <trkpt lat="39.03297667" lon="-0.30311333">
        <ele>99.973</ele>
        <time>2020-02-08T07:48:35.802Z</time>
      </trkpt>
      <trkpt lat="39.03297667" lon="-0.30311333">
        <ele>99.973</ele>
        <time>2020-02-08T07:48:36.802Z</time>
      </trkpt>
      <trkpt lat="39.03292333" lon="-0.30312">
        <ele>100.973</ele>
        <time>2020-02-08T07:48:37.802Z</time>
      </trkpt>
      <trkpt lat="39.03292333" lon="-0.30312">
        <ele>100.973</ele>
        <time>2020-02-08T07:48:38.802Z</time>
      </trkpt>
      <trkpt lat="39.03286667" lon="-0.30311833">
        <ele>100.973</ele>
        <time>2020-02-08T07:48:39.802Z</time>
      </trkpt>
      <trkpt lat="39.03286667" lon="-0.30311833">
        <ele>100.973</ele>
        <time>2020-02-08T07:48:40.802Z</time>
      </trkpt>
      <trkpt lat="39.03280667" lon="-0.30312">
        <ele>100.973</ele>
        <time>2020-02-08T07:48:41.802Z</time>
      </trkpt>
      <trkpt lat="39.03280667" lon="-0.30312">
        <ele>100.973</ele>
        <time>2020-02-08T07:48:42.802Z</time>
      </trkpt>
      <trkpt lat="39.03274667" lon="-0.303115">
        <ele>101.973</ele>
        <time>2020-02-08T07:48:43.802Z</time>
      </trkpt>
      <trkpt lat="39.03271667" lon="-0.30311333">
        <ele>101.973</ele>
        <time>2020-02-08T07:48:44.802Z</time>
      </trkpt>
      <trkpt lat="39.03271667" lon="-0.30311333">
        <ele>101.973</ele>
        <time>2020-02-08T07:48:45.802Z</time>
      </trkpt>
      <trkpt lat="39.03265667" lon="-0.30311833">
        <ele>101.973</ele>
        <time>2020-02-08T07:48:46.802Z</time>
      </trkpt>
      <trkpt lat="39.03265667" lon="-0.30311833">
        <ele>101.973</ele>
        <time>2020-02-08T07:48:47.802Z</time>
      </trkpt>
      <trkpt lat="39.0326" lon="-0.30312">
        <ele>101.973</ele>
        <time>2020-02-08T07:48:48.802Z</time>
      </trkpt>
      <trkpt lat="39.03257333" lon="-0.30312167">
        <ele>101.973</ele>
        <time>2020-02-08T07:48:49.802Z</time>
      </trkpt>
      <trkpt lat="39.03257333" lon="-0.30312167">
        <ele>101.973</ele>
        <time>2020-02-08T07:48:50.802Z</time>
      </trkpt>
      <trkpt lat="39.03251667" lon="-0.30312667">
        <ele>101.973</ele>
        <time>2020-02-08T07:48:51.802Z</time>
      </trkpt>
      <trkpt lat="39.03248667" lon="-0.30313">
        <ele>101.973</ele>
        <time>2020-02-08T07:48:52.802Z</time>
      </trkpt>
      <trkpt lat="39.03248667" lon="-0.30313">
        <ele>101.973</ele>
        <time>2020-02-08T07:48:53.802Z</time>
      </trkpt>
      <trkpt lat="39.03242333" lon="-0.30314667">
        <ele>102.973</ele>
        <time>2020-02-08T07:48:54.802Z</time>
      </trkpt>
      <trkpt lat="39.03242333" lon="-0.30314667">
        <ele>102.973</ele>
        <time>2020-02-08T07:48:55.802Z</time>
      </trkpt>
      <trkpt lat="39.03236833" lon="-0.30314667">
        <ele>102.973</ele>
        <time>2020-02-08T07:48:56.802Z</time>
      </trkpt>
      <trkpt lat="39.03236833" lon="-0.30314667">
        <ele>102.973</ele>
        <time>2020-02-08T07:48:57.802Z</time>
      </trkpt>
      <trkpt lat="39.03231333" lon="-0.30315167">
        <ele>102.973</ele>
        <time>2020-02-08T07:48:58.802Z</time>
      </trkpt>
      <trkpt lat="39.03231333" lon="-0.30315167">
        <ele>102.973</ele>
        <time>2020-02-08T07:48:59.802Z</time>
      </trkpt>
      <trkpt lat="39.03226" lon="-0.30315167">
        <ele>103.973</ele>
        <time>2020-02-08T07:49:00.802Z</time>
      </trkpt>
      <trkpt lat="39.03223167" lon="-0.30315333">
        <ele>103.973</ele>
        <time>2020-02-08T07:49:01.802Z</time>
      </trkpt>
      <trkpt lat="39.03223167" lon="-0.30315333">
        <ele>103.973</ele>
        <time>2020-02-08T07:49:02.802Z</time>
      </trkpt>
      <trkpt lat="39.03217667" lon="-0.30315667">
        <ele>103.973</ele>
        <time>2020-02-08T07:49:03.802Z</time>
      </trkpt>
      <trkpt lat="39.03215" lon="-0.30315667">
        <ele>103.973</ele>
        <time>2020-02-08T07:49:04.802Z</time>
      </trkpt>
      <trkpt lat="39.032125" lon="-0.30315667">
        <ele>103.973</ele>
        <time>2020-02-08T07:49:05.802Z</time>
      </trkpt>
      <trkpt lat="39.032125" lon="-0.30315667">
        <ele>104.973</ele>
        <time>2020-02-08T07:49:06.802Z</time>
      </trkpt>
      <trkpt lat="39.03206833" lon="-0.30316167">
        <ele>104.973</ele>
        <time>2020-02-08T07:49:07.802Z</time>
      </trkpt>
      <trkpt lat="39.03206833" lon="-0.30316167">
        <ele>104.973</ele>
        <time>2020-02-08T07:49:08.802Z</time>
      </trkpt>
      <trkpt lat="39.03201333" lon="-0.303165">
        <ele>104.973</ele>
        <time>2020-02-08T07:49:09.802Z</time>
      </trkpt>
      <trkpt lat="39.03201333" lon="-0.303165">
        <ele>105.973</ele>
        <time>2020-02-08T07:49:10.802Z</time>
      </trkpt>
      <trkpt lat="39.03195833" lon="-0.30318">
        <ele>105.973</ele>
        <time>2020-02-08T07:49:11.802Z</time>
      </trkpt>
      <trkpt lat="39.03195833" lon="-0.30318">
        <ele>105.973</ele>
        <time>2020-02-08T07:49:12.802Z</time>
      </trkpt>
      <trkpt lat="39.03191" lon="-0.30321">
        <ele>105.973</ele>
        <time>2020-02-08T07:49:13.802Z</time>
      </trkpt>
      <trkpt lat="39.03191" lon="-0.30321">
        <ele>106.973</ele>
        <time>2020-02-08T07:49:14.802Z</time>
      </trkpt>
      <trkpt lat="39.03186833" lon="-0.30325667">
        <ele>106.973</ele>
        <time>2020-02-08T07:49:15.802Z</time>
      </trkpt>
      <trkpt lat="39.03186833" lon="-0.30325667">
        <ele>106.973</ele>
        <time>2020-02-08T07:49:16.802Z</time>
      </trkpt>
      <trkpt lat="39.03183333" lon="-0.30331333">
        <ele>106.973</ele>
        <time>2020-02-08T07:49:17.802Z</time>
      </trkpt>
      <trkpt lat="39.03183333" lon="-0.30331333">
        <ele>106.973</ele>
        <time>2020-02-08T07:49:18.802Z</time>
      </trkpt>
      <trkpt lat="39.03181333" lon="-0.30336833">
        <ele>106.973</ele>
        <time>2020-02-08T07:49:19.802Z</time>
      </trkpt>
      <trkpt lat="39.03181333" lon="-0.30336833">
        <ele>106.973</ele>
        <time>2020-02-08T07:49:20.802Z</time>
      </trkpt>
      <trkpt lat="39.03180167" lon="-0.30343333">
        <ele>107.973</ele>
        <time>2020-02-08T07:49:21.802Z</time>
      </trkpt>
      <trkpt lat="39.031795" lon="-0.30345833">
        <ele>107.973</ele>
        <time>2020-02-08T07:49:22.802Z</time>
      </trkpt>
      <trkpt lat="39.03179" lon="-0.30349">
        <ele>107.973</ele>
        <time>2020-02-08T07:49:23.802Z</time>
      </trkpt>
      <trkpt lat="39.03179" lon="-0.30349">
        <ele>107.973</ele>
        <time>2020-02-08T07:49:24.802Z</time>
      </trkpt>
      <trkpt lat="39.03178167" lon="-0.30355167">
        <ele>107.973</ele>
        <time>2020-02-08T07:49:25.802Z</time>
      </trkpt>
      <trkpt lat="39.03177667" lon="-0.30358667">
        <ele>108.973</ele>
        <time>2020-02-08T07:49:26.802Z</time>
      </trkpt>
      <trkpt lat="39.03177667" lon="-0.30358667">
        <ele>108.973</ele>
        <time>2020-02-08T07:49:27.802Z</time>
      </trkpt>
      <trkpt lat="39.03176667" lon="-0.30365667">
        <ele>108.973</ele>
        <time>2020-02-08T07:49:28.802Z</time>
      </trkpt>
      <trkpt lat="39.03175833" lon="-0.30369833">
        <ele>108.973</ele>
        <time>2020-02-08T07:49:29.802Z</time>
      </trkpt>
      <trkpt lat="39.03175833" lon="-0.30369833">
        <ele>108.973</ele>
        <time>2020-02-08T07:49:30.802Z</time>
      </trkpt>
      <trkpt lat="39.031735" lon="-0.303775">
        <ele>108.973</ele>
        <time>2020-02-08T07:49:31.802Z</time>
      </trkpt>
      <trkpt lat="39.031735" lon="-0.303775">
        <ele>108.973</ele>
        <time>2020-02-08T07:49:32.802Z</time>
      </trkpt>
      <trkpt lat="39.03171333" lon="-0.30384333">
        <ele>108.973</ele>
        <time>2020-02-08T07:49:33.802Z</time>
      </trkpt>
      <trkpt lat="39.031705" lon="-0.30388">
        <ele>109.973</ele>
        <time>2020-02-08T07:49:34.802Z</time>
      </trkpt>
      <trkpt lat="39.031705" lon="-0.30388">
        <ele>109.973</ele>
        <time>2020-02-08T07:49:35.802Z</time>
      </trkpt>
      <trkpt lat="39.03169833" lon="-0.30396833">
        <ele>109.973</ele>
        <time>2020-02-08T07:49:36.802Z</time>
      </trkpt>
      <trkpt lat="39.03169667" lon="-0.30401167">
        <ele>109.973</ele>
        <time>2020-02-08T07:49:37.802Z</time>
      </trkpt>
      <trkpt lat="39.03169667" lon="-0.30401167">
        <ele>109.973</ele>
        <time>2020-02-08T07:49:38.802Z</time>
      </trkpt>
      <trkpt lat="39.0317" lon="-0.30409667">
        <ele>109.973</ele>
        <time>2020-02-08T07:49:39.802Z</time>
      </trkpt>
      <trkpt lat="39.0317" lon="-0.30409667">
        <ele>109.973</ele>
        <time>2020-02-08T07:49:40.802Z</time>
      </trkpt>
      <trkpt lat="39.03172" lon="-0.30417833">
        <ele>109.973</ele>
        <time>2020-02-08T07:49:41.802Z</time>
      </trkpt>
      <trkpt lat="39.03172" lon="-0.30417833">
        <ele>109.973</ele>
        <time>2020-02-08T07:49:42.802Z</time>
      </trkpt>
      <trkpt lat="39.03173833" lon="-0.30425667">
        <ele>109.973</ele>
        <time>2020-02-08T07:49:43.802Z</time>
      </trkpt>
      <trkpt lat="39.03173833" lon="-0.30425667">
        <ele>109.973</ele>
        <time>2020-02-08T07:49:44.802Z</time>
      </trkpt>
      <trkpt lat="39.03177333" lon="-0.30433833">
        <ele>109.973</ele>
        <time>2020-02-08T07:49:45.802Z</time>
      </trkpt>
      <trkpt lat="39.03177333" lon="-0.30433833">
        <ele>109.973</ele>
        <time>2020-02-08T07:49:46.802Z</time>
      </trkpt>
      <trkpt lat="39.03179333" lon="-0.30441667">
        <ele>109.973</ele>
        <time>2020-02-08T07:49:47.802Z</time>
      </trkpt>
      <trkpt lat="39.03179333" lon="-0.30441667">
        <ele>110.973</ele>
        <time>2020-02-08T07:49:48.802Z</time>
      </trkpt>
      <trkpt lat="39.03179667" lon="-0.30448833">
        <ele>110.973</ele>
        <time>2020-02-08T07:49:49.802Z</time>
      </trkpt>
      <trkpt lat="39.031785" lon="-0.30452333">
        <ele>110.973</ele>
        <time>2020-02-08T07:49:50.802Z</time>
      </trkpt>
      <trkpt lat="39.031785" lon="-0.30452333">
        <ele>110.973</ele>
        <time>2020-02-08T07:49:51.802Z</time>
      </trkpt>
      <trkpt lat="39.03174833" lon="-0.30458">
        <ele>110.973</ele>
        <time>2020-02-08T07:49:52.802Z</time>
      </trkpt>
      <trkpt lat="39.03174833" lon="-0.30458">
        <ele>111.973</ele>
        <time>2020-02-08T07:49:53.802Z</time>
      </trkpt>
      <trkpt lat="39.0317" lon="-0.30461833">
        <ele>111.973</ele>
        <time>2020-02-08T07:49:54.802Z</time>
      </trkpt>
      <trkpt lat="39.03167333" lon="-0.30461833">
        <ele>111.973</ele>
        <time>2020-02-08T07:49:55.802Z</time>
      </trkpt>
      <trkpt lat="39.03164667" lon="-0.304605">
        <ele>113.973</ele>
        <time>2020-02-08T07:49:56.802Z</time>
      </trkpt>
      <trkpt lat="39.03164667" lon="-0.304605">
        <ele>113.973</ele>
        <time>2020-02-08T07:49:57.802Z</time>
      </trkpt>
      <trkpt lat="39.031595" lon="-0.30456167">
        <ele>113.973</ele>
        <time>2020-02-08T07:49:58.802Z</time>
      </trkpt>
      <trkpt lat="39.03157333" lon="-0.30453167">
        <ele>113.973</ele>
        <time>2020-02-08T07:49:59.802Z</time>
      </trkpt>
      <trkpt lat="39.03157333" lon="-0.30453167">
        <ele>113.973</ele>
        <time>2020-02-08T07:50:00.802Z</time>
      </trkpt>
      <trkpt lat="39.031535" lon="-0.30446167">
        <ele>113.973</ele>
        <time>2020-02-08T07:50:01.802Z</time>
      </trkpt>
      <trkpt lat="39.031535" lon="-0.30446167">
        <ele>114.973</ele>
        <time>2020-02-08T07:50:02.802Z</time>
      </trkpt>
      <trkpt lat="39.031505" lon="-0.304395">
        <ele>114.973</ele>
        <time>2020-02-08T07:50:03.802Z</time>
      </trkpt>
      <trkpt lat="39.031505" lon="-0.304395">
        <ele>114.973</ele>
        <time>2020-02-08T07:50:04.802Z</time>
      </trkpt>
      <trkpt lat="39.03146833" lon="-0.30432833">
        <ele>114.973</ele>
        <time>2020-02-08T07:50:05.802Z</time>
      </trkpt>
      <trkpt lat="39.03146833" lon="-0.30432833">
        <ele>115.973</ele>
        <time>2020-02-08T07:50:06.802Z</time>
      </trkpt>
      <trkpt lat="39.03143667" lon="-0.30426167">
        <ele>115.973</ele>
        <time>2020-02-08T07:50:07.802Z</time>
      </trkpt>
      <trkpt lat="39.03143667" lon="-0.30426167">
        <ele>115.973</ele>
        <time>2020-02-08T07:50:08.802Z</time>
      </trkpt>
      <trkpt lat="39.03140333" lon="-0.30419667">
        <ele>115.973</ele>
        <time>2020-02-08T07:50:09.802Z</time>
      </trkpt>
      <trkpt lat="39.03138833" lon="-0.304165">
        <ele>115.973</ele>
        <time>2020-02-08T07:50:10.802Z</time>
      </trkpt>
      <trkpt lat="39.03137333" lon="-0.30412667">
        <ele>116.973</ele>
        <time>2020-02-08T07:50:11.802Z</time>
      </trkpt>
      <trkpt lat="39.03137333" lon="-0.30412667">
        <ele>116.973</ele>
        <time>2020-02-08T07:50:12.802Z</time>
      </trkpt>
      <trkpt lat="39.03135" lon="-0.30406167">
        <ele>116.973</ele>
        <time>2020-02-08T07:50:13.802Z</time>
      </trkpt>
      <trkpt lat="39.03135" lon="-0.30406167">
        <ele>116.973</ele>
        <time>2020-02-08T07:50:14.802Z</time>
      </trkpt>
      <trkpt lat="39.03133333" lon="-0.30398167">
        <ele>117.973</ele>
        <time>2020-02-08T07:50:15.802Z</time>
      </trkpt>
      <trkpt lat="39.03133" lon="-0.30394">
        <ele>117.973</ele>
        <time>2020-02-08T07:50:16.802Z</time>
      </trkpt>
      <trkpt lat="39.03133" lon="-0.30394">
        <ele>117.973</ele>
        <time>2020-02-08T07:50:17.802Z</time>
      </trkpt>
      <trkpt lat="39.03133" lon="-0.30384667">
        <ele>117.973</ele>
        <time>2020-02-08T07:50:18.802Z</time>
      </trkpt>
      <trkpt lat="39.03133167" lon="-0.30380167">
        <ele>117.973</ele>
        <time>2020-02-08T07:50:19.802Z</time>
      </trkpt>
      <trkpt lat="39.03133167" lon="-0.30380167">
        <ele>117.973</ele>
        <time>2020-02-08T07:50:20.802Z</time>
      </trkpt>
      <trkpt lat="39.03134167" lon="-0.30372333">
        <ele>118.973</ele>
        <time>2020-02-08T07:50:21.802Z</time>
      </trkpt>
      <trkpt lat="39.03134167" lon="-0.30372333">
        <ele>118.973</ele>
        <time>2020-02-08T07:50:22.802Z</time>
      </trkpt>
      <trkpt lat="39.031355" lon="-0.30364333">
        <ele>118.973</ele>
        <time>2020-02-08T07:50:23.802Z</time>
      </trkpt>
      <trkpt lat="39.031365" lon="-0.303605">
        <ele>118.973</ele>
        <time>2020-02-08T07:50:24.802Z</time>
      </trkpt>
      <trkpt lat="39.031375" lon="-0.30356167">
        <ele>118.973</ele>
        <time>2020-02-08T07:50:25.802Z</time>
      </trkpt>
      <trkpt lat="39.031375" lon="-0.30356167">
        <ele>118.973</ele>
        <time>2020-02-08T07:50:26.802Z</time>
      </trkpt>
      <trkpt lat="39.03139333" lon="-0.30348333">
        <ele>118.973</ele>
        <time>2020-02-08T07:50:27.802Z</time>
      </trkpt>
      <trkpt lat="39.03139333" lon="-0.30348333">
        <ele>119.973</ele>
        <time>2020-02-08T07:50:28.802Z</time>
      </trkpt>
      <trkpt lat="39.03141667" lon="-0.30340833">
        <ele>119.973</ele>
        <time>2020-02-08T07:50:29.802Z</time>
      </trkpt>
      <trkpt lat="39.03141667" lon="-0.30340833">
        <ele>119.973</ele>
        <time>2020-02-08T07:50:30.802Z</time>
      </trkpt>
      <trkpt lat="39.031435" lon="-0.30333333">
        <ele>119.973</ele>
        <time>2020-02-08T07:50:31.802Z</time>
      </trkpt>
      <trkpt lat="39.03144333" lon="-0.30329667">
        <ele>119.973</ele>
        <time>2020-02-08T07:50:32.802Z</time>
      </trkpt>
      <trkpt lat="39.03144333" lon="-0.30329667">
        <ele>119.973</ele>
        <time>2020-02-08T07:50:33.802Z</time>
      </trkpt>
      <trkpt lat="39.03145833" lon="-0.30322167">
        <ele>120.973</ele>
        <time>2020-02-08T07:50:34.802Z</time>
      </trkpt>
      <trkpt lat="39.03146833" lon="-0.303185">
        <ele>120.973</ele>
        <time>2020-02-08T07:50:35.802Z</time>
      </trkpt>
      <trkpt lat="39.03146833" lon="-0.303185">
        <ele>120.973</ele>
        <time>2020-02-08T07:50:36.802Z</time>
      </trkpt>
      <trkpt lat="39.03148667" lon="-0.30310833">
        <ele>120.973</ele>
        <time>2020-02-08T07:50:37.802Z</time>
      </trkpt>
      <trkpt lat="39.03149667" lon="-0.30307">
        <ele>120.973</ele>
        <time>2020-02-08T07:50:38.802Z</time>
      </trkpt>
      <trkpt lat="39.03149667" lon="-0.30307">
        <ele>120.973</ele>
        <time>2020-02-08T07:50:39.802Z</time>
      </trkpt>
      <trkpt lat="39.03151667" lon="-0.30299667">
        <ele>120.973</ele>
        <time>2020-02-08T07:50:40.802Z</time>
      </trkpt>
      <trkpt lat="39.03152667" lon="-0.30296">
        <ele>120.973</ele>
        <time>2020-02-08T07:50:41.802Z</time>
      </trkpt>
      <trkpt lat="39.03152667" lon="-0.30296">
        <ele>120.973</ele>
        <time>2020-02-08T07:50:42.802Z</time>
      </trkpt>
      <trkpt lat="39.03154333" lon="-0.302885">
        <ele>120.973</ele>
        <time>2020-02-08T07:50:43.802Z</time>
      </trkpt>
      <trkpt lat="39.03155167" lon="-0.30284833">
        <ele>120.973</ele>
        <time>2020-02-08T07:50:44.802Z</time>
      </trkpt>
      <trkpt lat="39.03155167" lon="-0.30284833">
        <ele>120.973</ele>
        <time>2020-02-08T07:50:45.802Z</time>
      </trkpt>
      <trkpt lat="39.03157167" lon="-0.302775">
        <ele>121.973</ele>
        <time>2020-02-08T07:50:46.802Z</time>
      </trkpt>
      <trkpt lat="39.03157167" lon="-0.302775">
        <ele>121.973</ele>
        <time>2020-02-08T07:50:47.802Z</time>
      </trkpt>
      <trkpt lat="39.03159167" lon="-0.30271">
        <ele>121.973</ele>
        <time>2020-02-08T07:50:48.802Z</time>
      </trkpt>
      <trkpt lat="39.03159167" lon="-0.30271">
        <ele>121.973</ele>
        <time>2020-02-08T07:50:49.802Z</time>
      </trkpt>
      <trkpt lat="39.03160333" lon="-0.30264">
        <ele>121.973</ele>
        <time>2020-02-08T07:50:50.802Z</time>
      </trkpt>
      <trkpt lat="39.03160333" lon="-0.30264">
        <ele>122.973</ele>
        <time>2020-02-08T07:50:51.802Z</time>
      </trkpt>
      <trkpt lat="39.03161167" lon="-0.302565">
        <ele>122.973</ele>
        <time>2020-02-08T07:50:52.802Z</time>
      </trkpt>
      <trkpt lat="39.03161167" lon="-0.302565">
        <ele>122.973</ele>
        <time>2020-02-08T07:50:53.802Z</time>
      </trkpt>
      <trkpt lat="39.03162333" lon="-0.30248833">
        <ele>122.973</ele>
        <time>2020-02-08T07:50:54.802Z</time>
      </trkpt>
      <trkpt lat="39.03163" lon="-0.30244833">
        <ele>122.973</ele>
        <time>2020-02-08T07:50:55.802Z</time>
      </trkpt>
      <trkpt lat="39.03163667" lon="-0.30241167">
        <ele>123.973</ele>
        <time>2020-02-08T07:50:56.802Z</time>
      </trkpt>
      <trkpt lat="39.03163667" lon="-0.30241167">
        <ele>123.973</ele>
        <time>2020-02-08T07:50:57.802Z</time>
      </trkpt>
      <trkpt lat="39.03165167" lon="-0.30234">
        <ele>123.973</ele>
        <time>2020-02-08T07:50:58.802Z</time>
      </trkpt>
      <trkpt lat="39.03165833" lon="-0.302305">
        <ele>123.973</ele>
        <time>2020-02-08T07:50:59.802Z</time>
      </trkpt>
      <trkpt lat="39.03166667" lon="-0.30227">
        <ele>123.973</ele>
        <time>2020-02-08T07:51:00.802Z</time>
      </trkpt>
      <trkpt lat="39.03166667" lon="-0.30227">
        <ele>123.973</ele>
        <time>2020-02-08T07:51:01.802Z</time>
      </trkpt>
      <trkpt lat="39.03168" lon="-0.3022">
        <ele>124.973</ele>
        <time>2020-02-08T07:51:02.802Z</time>
      </trkpt>
      <trkpt lat="39.03168" lon="-0.3022">
        <ele>124.973</ele>
        <time>2020-02-08T07:51:03.802Z</time>
      </trkpt>
      <trkpt lat="39.03169667" lon="-0.30212667">
        <ele>124.973</ele>
        <time>2020-02-08T07:51:04.802Z</time>
      </trkpt>
      <trkpt lat="39.03169667" lon="-0.30212667">
        <ele>124.973</ele>
        <time>2020-02-08T07:51:05.802Z</time>
      </trkpt>
      <trkpt lat="39.03171667" lon="-0.30205333">
        <ele>125.973</ele>
        <time>2020-02-08T07:51:06.802Z</time>
      </trkpt>
      <trkpt lat="39.03171667" lon="-0.30205333">
        <ele>125.973</ele>
        <time>2020-02-08T07:51:07.802Z</time>
      </trkpt>
      <trkpt lat="39.03173667" lon="-0.30198167">
        <ele>125.973</ele>
        <time>2020-02-08T07:51:08.802Z</time>
      </trkpt>
      <trkpt lat="39.03173667" lon="-0.30198167">
        <ele>125.973</ele>
        <time>2020-02-08T07:51:09.802Z</time>
      </trkpt>
      <trkpt lat="39.03175333" lon="-0.30190667">
        <ele>126.973</ele>
        <time>2020-02-08T07:51:10.802Z</time>
      </trkpt>
      <trkpt lat="39.03176" lon="-0.30186833">
        <ele>126.973</ele>
        <time>2020-02-08T07:51:11.802Z</time>
      </trkpt>
      <trkpt lat="39.03176" lon="-0.30186833">
        <ele>126.973</ele>
        <time>2020-02-08T07:51:12.802Z</time>
      </trkpt>
      <trkpt lat="39.03176167" lon="-0.30179">
        <ele>126.973</ele>
        <time>2020-02-08T07:51:13.802Z</time>
      </trkpt>
      <trkpt lat="39.03175667" lon="-0.301755">
        <ele>126.973</ele>
        <time>2020-02-08T07:51:14.802Z</time>
      </trkpt>
      <trkpt lat="39.03175667" lon="-0.301755">
        <ele>126.973</ele>
        <time>2020-02-08T07:51:15.802Z</time>
      </trkpt>
      <trkpt lat="39.03173167" lon="-0.301685">
        <ele>126.973</ele>
        <time>2020-02-08T07:51:16.802Z</time>
      </trkpt>
      <trkpt lat="39.03173167" lon="-0.301685">
        <ele>126.973</ele>
        <time>2020-02-08T07:51:17.802Z</time>
      </trkpt>
      <trkpt lat="39.031695" lon="-0.30162167">
        <ele>127.973</ele>
        <time>2020-02-08T07:51:18.802Z</time>
      </trkpt>
      <trkpt lat="39.031695" lon="-0.30162167">
        <ele>127.973</ele>
        <time>2020-02-08T07:51:19.802Z</time>
      </trkpt>
      <trkpt lat="39.03165" lon="-0.30156">
        <ele>127.973</ele>
        <time>2020-02-08T07:51:20.802Z</time>
      </trkpt>
      <trkpt lat="39.03165" lon="-0.30156">
        <ele>129.973</ele>
        <time>2020-02-08T07:51:21.802Z</time>
      </trkpt>
      <trkpt lat="39.03160833" lon="-0.30150333">
        <ele>129.973</ele>
        <time>2020-02-08T07:51:22.802Z</time>
      </trkpt>
      <trkpt lat="39.03158333" lon="-0.301475">
        <ele>129.973</ele>
        <time>2020-02-08T07:51:23.802Z</time>
      </trkpt>
      <trkpt lat="39.03158333" lon="-0.301475">
        <ele>129.973</ele>
        <time>2020-02-08T07:51:24.802Z</time>
      </trkpt>
      <trkpt lat="39.03153" lon="-0.30142333">
        <ele>129.973</ele>
        <time>2020-02-08T07:51:25.802Z</time>
      </trkpt>
      <trkpt lat="39.03150167" lon="-0.30139833">
        <ele>129.973</ele>
        <time>2020-02-08T07:51:26.802Z</time>
      </trkpt>
      <trkpt lat="39.03150167" lon="-0.30139833">
        <ele>131.973</ele>
        <time>2020-02-08T07:51:27.802Z</time>
      </trkpt>
      <trkpt lat="39.03144167" lon="-0.30135167">
        <ele>131.973</ele>
        <time>2020-02-08T07:51:28.802Z</time>
      </trkpt>
      <trkpt lat="39.03144167" lon="-0.30135167">
        <ele>131.973</ele>
        <time>2020-02-08T07:51:29.802Z</time>
      </trkpt>
      <trkpt lat="39.03138333" lon="-0.30130667">
        <ele>131.973</ele>
        <time>2020-02-08T07:51:30.802Z</time>
      </trkpt>
      <trkpt lat="39.03135333" lon="-0.30128333">
        <ele>132.973</ele>
        <time>2020-02-08T07:51:31.802Z</time>
      </trkpt>
      <trkpt lat="39.03135333" lon="-0.30128333">
        <ele>132.973</ele>
        <time>2020-02-08T07:51:32.802Z</time>
      </trkpt>
      <trkpt lat="39.031295" lon="-0.30123667">
        <ele>132.973</ele>
        <time>2020-02-08T07:51:33.802Z</time>
      </trkpt>
      <trkpt lat="39.031295" lon="-0.30123667">
        <ele>132.973</ele>
        <time>2020-02-08T07:51:34.802Z</time>
      </trkpt>
      <trkpt lat="39.03123833" lon="-0.30119667">
        <ele>133.973</ele>
        <time>2020-02-08T07:51:35.802Z</time>
      </trkpt>
      <trkpt lat="39.03121" lon="-0.301175">
        <ele>133.973</ele>
        <time>2020-02-08T07:51:36.802Z</time>
      </trkpt>
      <trkpt lat="39.03121" lon="-0.301175">
        <ele>133.973</ele>
        <time>2020-02-08T07:51:37.802Z</time>
      </trkpt>
      <trkpt lat="39.03115333" lon="-0.30114">
        <ele>133.973</ele>
        <time>2020-02-08T07:51:38.802Z</time>
      </trkpt>
      <trkpt lat="39.03115333" lon="-0.30114">
        <ele>133.973</ele>
        <time>2020-02-08T07:51:39.802Z</time>
      </trkpt>
      <trkpt lat="39.03110333" lon="-0.30110167">
        <ele>134.973</ele>
        <time>2020-02-08T07:51:40.802Z</time>
      </trkpt>
      <trkpt lat="39.03110333" lon="-0.30110167">
        <ele>134.973</ele>
        <time>2020-02-08T07:51:41.802Z</time>
      </trkpt>
      <trkpt lat="39.031045" lon="-0.30105667">
        <ele>134.973</ele>
        <time>2020-02-08T07:51:42.802Z</time>
      </trkpt>
      <trkpt lat="39.031045" lon="-0.30105667">
        <ele>134.973</ele>
        <time>2020-02-08T07:51:43.802Z</time>
      </trkpt>
      <trkpt lat="39.03099" lon="-0.30101667">
        <ele>135.973</ele>
        <time>2020-02-08T07:51:44.802Z</time>
      </trkpt>
      <trkpt lat="39.03099" lon="-0.30101667">
        <ele>135.973</ele>
        <time>2020-02-08T07:51:45.802Z</time>
      </trkpt>
      <trkpt lat="39.030935" lon="-0.30098167">
        <ele>135.973</ele>
        <time>2020-02-08T07:51:46.802Z</time>
      </trkpt>
      <trkpt lat="39.030935" lon="-0.30098167">
        <ele>135.973</ele>
        <time>2020-02-08T07:51:47.802Z</time>
      </trkpt>
      <trkpt lat="39.03087667" lon="-0.30095333">
        <ele>135.973</ele>
        <time>2020-02-08T07:51:48.802Z</time>
      </trkpt>
      <trkpt lat="39.03087667" lon="-0.30095333">
        <ele>135.973</ele>
        <time>2020-02-08T07:51:49.802Z</time>
      </trkpt>
      <trkpt lat="39.03082167" lon="-0.30091833">
        <ele>136.973</ele>
        <time>2020-02-08T07:51:50.802Z</time>
      </trkpt>
      <trkpt lat="39.03082167" lon="-0.30091833">
        <ele>136.973</ele>
        <time>2020-02-08T07:51:51.802Z</time>
      </trkpt>
      <trkpt lat="39.03075667" lon="-0.30088">
        <ele>136.973</ele>
        <time>2020-02-08T07:51:52.802Z</time>
      </trkpt>
      <trkpt lat="39.03075667" lon="-0.30088">
        <ele>136.973</ele>
        <time>2020-02-08T07:51:53.802Z</time>
      </trkpt>
      <trkpt lat="39.03069167" lon="-0.30085167">
        <ele>136.973</ele>
        <time>2020-02-08T07:51:54.802Z</time>
      </trkpt>
      <trkpt lat="39.03069167" lon="-0.30085167">
        <ele>137.973</ele>
        <time>2020-02-08T07:51:55.802Z</time>
      </trkpt>
      <trkpt lat="39.030635" lon="-0.30083">
        <ele>137.973</ele>
        <time>2020-02-08T07:51:56.802Z</time>
      </trkpt>
      <trkpt lat="39.030635" lon="-0.30083">
        <ele>137.973</ele>
        <time>2020-02-08T07:51:57.802Z</time>
      </trkpt>
      <trkpt lat="39.03058333" lon="-0.30084667">
        <ele>137.973</ele>
        <time>2020-02-08T07:51:58.802Z</time>
      </trkpt>
      <trkpt lat="39.03058333" lon="-0.30084667">
        <ele>138.973</ele>
        <time>2020-02-08T07:51:59.802Z</time>
      </trkpt>
      <trkpt lat="39.030545" lon="-0.30090333">
        <ele>138.973</ele>
        <time>2020-02-08T07:52:00.802Z</time>
      </trkpt>
      <trkpt lat="39.030545" lon="-0.30090333">
        <ele>138.973</ele>
        <time>2020-02-08T07:52:01.802Z</time>
      </trkpt>
      <trkpt lat="39.03054167" lon="-0.30097">
        <ele>139.973</ele>
        <time>2020-02-08T07:52:02.802Z</time>
      </trkpt>
      <trkpt lat="39.03054167" lon="-0.30097">
        <ele>139.973</ele>
        <time>2020-02-08T07:52:03.802Z</time>
      </trkpt>
      <trkpt lat="39.03057333" lon="-0.30103167">
        <ele>139.973</ele>
        <time>2020-02-08T07:52:04.802Z</time>
      </trkpt>
      <trkpt lat="39.03057333" lon="-0.30103167">
        <ele>139.973</ele>
        <time>2020-02-08T07:52:05.802Z</time>
      </trkpt>
      <trkpt lat="39.03062833" lon="-0.30107333">
        <ele>140.973</ele>
        <time>2020-02-08T07:52:06.802Z</time>
      </trkpt>
      <trkpt lat="39.03065667" lon="-0.30109167">
        <ele>140.973</ele>
        <time>2020-02-08T07:52:07.802Z</time>
      </trkpt>
      <trkpt lat="39.03065667" lon="-0.30109167">
        <ele>140.973</ele>
        <time>2020-02-08T07:52:08.802Z</time>
      </trkpt>
      <trkpt lat="39.03072167" lon="-0.30112167">
        <ele>140.973</ele>
        <time>2020-02-08T07:52:09.802Z</time>
      </trkpt>
      <trkpt lat="39.03072167" lon="-0.30112167">
        <ele>141.973</ele>
        <time>2020-02-08T07:52:10.802Z</time>
      </trkpt>
      <trkpt lat="39.030785" lon="-0.30116167">
        <ele>141.973</ele>
        <time>2020-02-08T07:52:11.802Z</time>
      </trkpt>
      <trkpt lat="39.030785" lon="-0.30116167">
        <ele>141.973</ele>
        <time>2020-02-08T07:52:12.802Z</time>
      </trkpt>
      <trkpt lat="39.03084667" lon="-0.301205">
        <ele>141.973</ele>
        <time>2020-02-08T07:52:13.802Z</time>
      </trkpt>
      <trkpt lat="39.03087833" lon="-0.30122667">
        <ele>142.973</ele>
        <time>2020-02-08T07:52:14.802Z</time>
      </trkpt>
      <trkpt lat="39.03087833" lon="-0.30122667">
        <ele>142.973</ele>
        <time>2020-02-08T07:52:15.802Z</time>
      </trkpt>
      <trkpt lat="39.03093833" lon="-0.301275">
        <ele>142.973</ele>
        <time>2020-02-08T07:52:16.802Z</time>
      </trkpt>
      <trkpt lat="39.03093833" lon="-0.301275">
        <ele>142.973</ele>
        <time>2020-02-08T07:52:17.802Z</time>
      </trkpt>
      <trkpt lat="39.03099667" lon="-0.30133667">
        <ele>142.973</ele>
        <time>2020-02-08T07:52:18.802Z</time>
      </trkpt>
      <trkpt lat="39.03099667" lon="-0.30133667">
        <ele>142.973</ele>
        <time>2020-02-08T07:52:19.802Z</time>
      </trkpt>
      <trkpt lat="39.03105167" lon="-0.30139">
        <ele>142.973</ele>
        <time>2020-02-08T07:52:20.802Z</time>
      </trkpt>
      <trkpt lat="39.03105167" lon="-0.30139">
        <ele>143.973</ele>
        <time>2020-02-08T07:52:21.802Z</time>
      </trkpt>
      <trkpt lat="39.031105" lon="-0.30145167">
        <ele>143.973</ele>
        <time>2020-02-08T07:52:22.802Z</time>
      </trkpt>
      <trkpt lat="39.03113" lon="-0.30148">
        <ele>143.973</ele>
        <time>2020-02-08T07:52:23.802Z</time>
      </trkpt>
      <trkpt lat="39.03113" lon="-0.30148">
        <ele>143.973</ele>
        <time>2020-02-08T07:52:24.802Z</time>
      </trkpt>
      <trkpt lat="39.03118167" lon="-0.30154167">
        <ele>143.973</ele>
        <time>2020-02-08T07:52:25.802Z</time>
      </trkpt>
      <trkpt lat="39.03120667" lon="-0.301575">
        <ele>143.973</ele>
        <time>2020-02-08T07:52:26.802Z</time>
      </trkpt>
      <trkpt lat="39.03120667" lon="-0.301575">
        <ele>144.973</ele>
        <time>2020-02-08T07:52:27.802Z</time>
      </trkpt>
      <trkpt lat="39.031255" lon="-0.301645">
        <ele>144.973</ele>
        <time>2020-02-08T07:52:28.802Z</time>
      </trkpt>
      <trkpt lat="39.031255" lon="-0.301645">
        <ele>144.973</ele>
        <time>2020-02-08T07:52:29.802Z</time>
      </trkpt>
      <trkpt lat="39.03129333" lon="-0.30172167">
        <ele>144.973</ele>
        <time>2020-02-08T07:52:30.802Z</time>
      </trkpt>
      <trkpt lat="39.03129333" lon="-0.30172167">
        <ele>144.973</ele>
        <time>2020-02-08T07:52:31.802Z</time>
      </trkpt>
      <trkpt lat="39.03131333" lon="-0.30180833">
        <ele>144.973</ele>
        <time>2020-02-08T07:52:32.802Z</time>
      </trkpt>
      <trkpt lat="39.03131333" lon="-0.30180833">
        <ele>144.973</ele>
        <time>2020-02-08T07:52:33.802Z</time>
      </trkpt>
      <trkpt lat="39.03132" lon="-0.30189833">
        <ele>144.973</ele>
        <time>2020-02-08T07:52:34.802Z</time>
      </trkpt>
      <trkpt lat="39.03132" lon="-0.301945">
        <ele>144.973</ele>
        <time>2020-02-08T07:52:35.802Z</time>
      </trkpt>
      <trkpt lat="39.03132" lon="-0.301945">
        <ele>144.973</ele>
        <time>2020-02-08T07:52:36.802Z</time>
      </trkpt>
      <trkpt lat="39.03130667" lon="-0.30203167">
        <ele>145.973</ele>
        <time>2020-02-08T07:52:37.802Z</time>
      </trkpt>
      <trkpt lat="39.03130667" lon="-0.30203167">
        <ele>145.973</ele>
        <time>2020-02-08T07:52:38.802Z</time>
      </trkpt>
      <trkpt lat="39.03128833" lon="-0.30212">
        <ele>145.973</ele>
        <time>2020-02-08T07:52:39.802Z</time>
      </trkpt>
      <trkpt lat="39.03128833" lon="-0.30212">
        <ele>145.973</ele>
        <time>2020-02-08T07:52:40.802Z</time>
      </trkpt>
      <trkpt lat="39.031265" lon="-0.30220333">
        <ele>145.973</ele>
        <time>2020-02-08T07:52:41.802Z</time>
      </trkpt>
      <trkpt lat="39.031265" lon="-0.30220333">
        <ele>145.973</ele>
        <time>2020-02-08T07:52:42.802Z</time>
      </trkpt>
      <trkpt lat="39.03124167" lon="-0.302285">
        <ele>146.973</ele>
        <time>2020-02-08T07:52:43.802Z</time>
      </trkpt>
      <trkpt lat="39.03122833" lon="-0.30232167">
        <ele>146.973</ele>
        <time>2020-02-08T07:52:44.802Z</time>
      </trkpt>
      <trkpt lat="39.03122833" lon="-0.30232167">
        <ele>146.973</ele>
        <time>2020-02-08T07:52:45.802Z</time>
      </trkpt>
      <trkpt lat="39.0312" lon="-0.3024">
        <ele>146.973</ele>
        <time>2020-02-08T07:52:46.802Z</time>
      </trkpt>
      <trkpt lat="39.03119167" lon="-0.30244667">
        <ele>146.973</ele>
        <time>2020-02-08T07:52:47.802Z</time>
      </trkpt>
      <trkpt lat="39.03119167" lon="-0.30244667">
        <ele>146.973</ele>
        <time>2020-02-08T07:52:48.802Z</time>
      </trkpt>
      <trkpt lat="39.03117167" lon="-0.30253333">
        <ele>147.973</ele>
        <time>2020-02-08T07:52:49.802Z</time>
      </trkpt>
      <trkpt lat="39.03116" lon="-0.30257833">
        <ele>147.973</ele>
        <time>2020-02-08T07:52:50.802Z</time>
      </trkpt>
      <trkpt lat="39.03116" lon="-0.30257833">
        <ele>147.973</ele>
        <time>2020-02-08T07:52:51.802Z</time>
      </trkpt>
      <trkpt lat="39.03113333" lon="-0.30266333">
        <ele>148.973</ele>
        <time>2020-02-08T07:52:52.802Z</time>
      </trkpt>
      <trkpt lat="39.03111667" lon="-0.30270333">
        <ele>148.973</ele>
        <time>2020-02-08T07:52:53.802Z</time>
      </trkpt>
      <trkpt lat="39.03111667" lon="-0.30270333">
        <ele>148.973</ele>
        <time>2020-02-08T07:52:54.802Z</time>
      </trkpt>
      <trkpt lat="39.03109" lon="-0.30278167">
        <ele>148.973</ele>
        <time>2020-02-08T07:52:55.802Z</time>
      </trkpt>
      <trkpt lat="39.03107167" lon="-0.30282">
        <ele>148.973</ele>
        <time>2020-02-08T07:52:56.802Z</time>
      </trkpt>
      <trkpt lat="39.03107167" lon="-0.30282">
        <ele>148.973</ele>
        <time>2020-02-08T07:52:57.802Z</time>
      </trkpt>
      <trkpt lat="39.03104167" lon="-0.30289833">
        <ele>149.973</ele>
        <time>2020-02-08T07:52:58.802Z</time>
      </trkpt>
      <trkpt lat="39.03104167" lon="-0.30289833">
        <ele>149.973</ele>
        <time>2020-02-08T07:52:59.802Z</time>
      </trkpt>
      <trkpt lat="39.03100667" lon="-0.30297667">
        <ele>149.973</ele>
        <time>2020-02-08T07:53:00.802Z</time>
      </trkpt>
      <trkpt lat="39.03100667" lon="-0.30297667">
        <ele>149.973</ele>
        <time>2020-02-08T07:53:01.802Z</time>
      </trkpt>
      <trkpt lat="39.030965" lon="-0.30305167">
        <ele>149.973</ele>
        <time>2020-02-08T07:53:02.802Z</time>
      </trkpt>
      <trkpt lat="39.030965" lon="-0.30305167">
        <ele>149.973</ele>
        <time>2020-02-08T07:53:03.802Z</time>
      </trkpt>
      <trkpt lat="39.03092333" lon="-0.30312667">
        <ele>149.973</ele>
        <time>2020-02-08T07:53:04.802Z</time>
      </trkpt>
      <trkpt lat="39.03090167" lon="-0.30316333">
        <ele>149.973</ele>
        <time>2020-02-08T07:53:05.802Z</time>
      </trkpt>
      <trkpt lat="39.03090167" lon="-0.30316333">
        <ele>151.973</ele>
        <time>2020-02-08T07:53:06.802Z</time>
      </trkpt>
      <trkpt lat="39.03085833" lon="-0.30323167">
        <ele>151.973</ele>
        <time>2020-02-08T07:53:07.802Z</time>
      </trkpt>
      <trkpt lat="39.03083667" lon="-0.30326667">
        <ele>151.973</ele>
        <time>2020-02-08T07:53:08.802Z</time>
      </trkpt>
      <trkpt lat="39.03083667" lon="-0.30326667">
        <ele>151.973</ele>
        <time>2020-02-08T07:53:09.802Z</time>
      </trkpt>
      <trkpt lat="39.03079" lon="-0.30333167">
        <ele>151.973</ele>
        <time>2020-02-08T07:53:10.802Z</time>
      </trkpt>
      <trkpt lat="39.03076833" lon="-0.303365">
        <ele>151.973</ele>
        <time>2020-02-08T07:53:11.802Z</time>
      </trkpt>
      <trkpt lat="39.03074833" lon="-0.30340167">
        <ele>151.973</ele>
        <time>2020-02-08T07:53:12.802Z</time>
      </trkpt>
      <trkpt lat="39.03074833" lon="-0.30340167">
        <ele>151.973</ele>
        <time>2020-02-08T07:53:13.802Z</time>
      </trkpt>
      <trkpt lat="39.0307" lon="-0.303465">
        <ele>152.973</ele>
        <time>2020-02-08T07:53:14.802Z</time>
      </trkpt>
      <trkpt lat="39.0307" lon="-0.303465">
        <ele>152.973</ele>
        <time>2020-02-08T07:53:15.802Z</time>
      </trkpt>
      <trkpt lat="39.03065167" lon="-0.30353">
        <ele>152.973</ele>
        <time>2020-02-08T07:53:16.802Z</time>
      </trkpt>
      <trkpt lat="39.03065167" lon="-0.30353">
        <ele>152.973</ele>
        <time>2020-02-08T07:53:17.802Z</time>
      </trkpt>
      <trkpt lat="39.03061" lon="-0.30359333">
        <ele>153.973</ele>
        <time>2020-02-08T07:53:18.802Z</time>
      </trkpt>
      <trkpt lat="39.03058667" lon="-0.30363">
        <ele>153.973</ele>
        <time>2020-02-08T07:53:19.802Z</time>
      </trkpt>
      <trkpt lat="39.03056833" lon="-0.30366667">
        <ele>153.973</ele>
        <time>2020-02-08T07:53:20.802Z</time>
      </trkpt>
      <trkpt lat="39.03056833" lon="-0.30366667">
        <ele>153.973</ele>
        <time>2020-02-08T07:53:21.802Z</time>
      </trkpt>
      <trkpt lat="39.03052667" lon="-0.30374333">
        <ele>154.973</ele>
        <time>2020-02-08T07:53:22.802Z</time>
      </trkpt>
      <trkpt lat="39.03052667" lon="-0.30374333">
        <ele>154.973</ele>
        <time>2020-02-08T07:53:23.802Z</time>
      </trkpt>
      <trkpt lat="39.03049" lon="-0.30382">
        <ele>154.973</ele>
        <time>2020-02-08T07:53:24.802Z</time>
      </trkpt>
      <trkpt lat="39.03047333" lon="-0.30386333">
        <ele>154.973</ele>
        <time>2020-02-08T07:53:25.802Z</time>
      </trkpt>
      <trkpt lat="39.03047333" lon="-0.30386333">
        <ele>154.973</ele>
        <time>2020-02-08T07:53:26.802Z</time>
      </trkpt>
      <trkpt lat="39.03044833" lon="-0.30395">
        <ele>154.973</ele>
        <time>2020-02-08T07:53:27.802Z</time>
      </trkpt>
      <trkpt lat="39.03044833" lon="-0.30395">
        <ele>154.973</ele>
        <time>2020-02-08T07:53:28.802Z</time>
      </trkpt>
      <trkpt lat="39.03044667" lon="-0.30404">
        <ele>154.973</ele>
        <time>2020-02-08T07:53:29.802Z</time>
      </trkpt>
      <trkpt lat="39.03044667" lon="-0.30404">
        <ele>154.973</ele>
        <time>2020-02-08T07:53:30.802Z</time>
      </trkpt>
      <trkpt lat="39.03047" lon="-0.30413">
        <ele>154.973</ele>
        <time>2020-02-08T07:53:31.802Z</time>
      </trkpt>
      <trkpt lat="39.03049" lon="-0.30416833">
        <ele>154.973</ele>
        <time>2020-02-08T07:53:32.802Z</time>
      </trkpt>
      <trkpt lat="39.03049" lon="-0.30416833">
        <ele>154.973</ele>
        <time>2020-02-08T07:53:33.802Z</time>
      </trkpt>
      <trkpt lat="39.03054" lon="-0.304235">
        <ele>155.973</ele>
        <time>2020-02-08T07:53:34.802Z</time>
      </trkpt>
      <trkpt lat="39.03054" lon="-0.304235">
        <ele>155.973</ele>
        <time>2020-02-08T07:53:35.802Z</time>
      </trkpt>
      <trkpt lat="39.03059667" lon="-0.30429">
        <ele>155.973</ele>
        <time>2020-02-08T07:53:36.802Z</time>
      </trkpt>
      <trkpt lat="39.03062333" lon="-0.30432167">
        <ele>155.973</ele>
        <time>2020-02-08T07:53:37.802Z</time>
      </trkpt>
      <trkpt lat="39.03065" lon="-0.30435333">
        <ele>155.973</ele>
        <time>2020-02-08T07:53:38.802Z</time>
      </trkpt>
      <trkpt lat="39.03065" lon="-0.30435333">
        <ele>155.973</ele>
        <time>2020-02-08T07:53:39.802Z</time>
      </trkpt>
      <trkpt lat="39.03070167" lon="-0.30441833">
        <ele>156.973</ele>
        <time>2020-02-08T07:53:40.802Z</time>
      </trkpt>
      <trkpt lat="39.03070167" lon="-0.30441833">
        <ele>156.973</ele>
        <time>2020-02-08T07:53:41.802Z</time>
      </trkpt>
      <trkpt lat="39.03075" lon="-0.30449">
        <ele>156.973</ele>
        <time>2020-02-08T07:53:42.802Z</time>
      </trkpt>
      <trkpt lat="39.03077167" lon="-0.30453167">
        <ele>156.973</ele>
        <time>2020-02-08T07:53:43.802Z</time>
      </trkpt>
      <trkpt lat="39.03077167" lon="-0.30453167">
        <ele>156.973</ele>
        <time>2020-02-08T07:53:44.802Z</time>
      </trkpt>
      <trkpt lat="39.03080833" lon="-0.30461167">
        <ele>156.973</ele>
        <time>2020-02-08T07:53:45.802Z</time>
      </trkpt>
      <trkpt lat="39.03080833" lon="-0.30461167">
        <ele>157.973</ele>
        <time>2020-02-08T07:53:46.802Z</time>
      </trkpt>
      <trkpt lat="39.03085167" lon="-0.30468833">
        <ele>157.973</ele>
        <time>2020-02-08T07:53:47.802Z</time>
      </trkpt>
      <trkpt lat="39.03085167" lon="-0.30468833">
        <ele>157.973</ele>
        <time>2020-02-08T07:53:48.802Z</time>
      </trkpt>
      <trkpt lat="39.0309" lon="-0.30477333">
        <ele>157.973</ele>
        <time>2020-02-08T07:53:49.802Z</time>
      </trkpt>
      <trkpt lat="39.03092333" lon="-0.30481333">
        <ele>157.973</ele>
        <time>2020-02-08T07:53:50.802Z</time>
      </trkpt>
      <trkpt lat="39.03092333" lon="-0.30481333">
        <ele>157.973</ele>
        <time>2020-02-08T07:53:51.802Z</time>
      </trkpt>
      <trkpt lat="39.03097" lon="-0.30489167">
        <ele>157.973</ele>
        <time>2020-02-08T07:53:52.802Z</time>
      </trkpt>
      <trkpt lat="39.03097" lon="-0.30489167">
        <ele>158.973</ele>
        <time>2020-02-08T07:53:53.802Z</time>
      </trkpt>
      <trkpt lat="39.031015" lon="-0.30498">
        <ele>158.973</ele>
        <time>2020-02-08T07:53:54.802Z</time>
      </trkpt>
      <trkpt lat="39.031015" lon="-0.30498">
        <ele>158.973</ele>
        <time>2020-02-08T07:53:55.802Z</time>
      </trkpt>
      <trkpt lat="39.03104333" lon="-0.30506833">
        <ele>158.973</ele>
        <time>2020-02-08T07:53:56.802Z</time>
      </trkpt>
      <trkpt lat="39.03104667" lon="-0.30511667">
        <ele>159.973</ele>
        <time>2020-02-08T07:53:57.802Z</time>
      </trkpt>
      <trkpt lat="39.03104" lon="-0.30516">
        <ele>159.973</ele>
        <time>2020-02-08T07:53:58.802Z</time>
      </trkpt>
      <trkpt lat="39.03104" lon="-0.30516">
        <ele>159.973</ele>
        <time>2020-02-08T07:53:59.802Z</time>
      </trkpt>
      <trkpt lat="39.03101167" lon="-0.30523667">
        <ele>159.973</ele>
        <time>2020-02-08T07:54:00.802Z</time>
      </trkpt>
      <trkpt lat="39.03101167" lon="-0.30523667">
        <ele>160.973</ele>
        <time>2020-02-08T07:54:01.802Z</time>
      </trkpt>
      <trkpt lat="39.03096833" lon="-0.30529667">
        <ele>160.973</ele>
        <time>2020-02-08T07:54:02.802Z</time>
      </trkpt>
      <trkpt lat="39.03096833" lon="-0.30529667">
        <ele>160.973</ele>
        <time>2020-02-08T07:54:03.802Z</time>
      </trkpt>
      <trkpt lat="39.03091667" lon="-0.30534833">
        <ele>161.973</ele>
        <time>2020-02-08T07:54:04.802Z</time>
      </trkpt>
      <trkpt lat="39.03091667" lon="-0.30534833">
        <ele>161.973</ele>
        <time>2020-02-08T07:54:05.802Z</time>
      </trkpt>
      <trkpt lat="39.03086167" lon="-0.3054">
        <ele>161.973</ele>
        <time>2020-02-08T07:54:06.802Z</time>
      </trkpt>
      <trkpt lat="39.03083667" lon="-0.30542333">
        <ele>161.973</ele>
        <time>2020-02-08T07:54:07.802Z</time>
      </trkpt>
      <trkpt lat="39.03083667" lon="-0.30542333">
        <ele>162.973</ele>
        <time>2020-02-08T07:54:08.802Z</time>
      </trkpt>
      <trkpt lat="39.03077667" lon="-0.30546333">
        <ele>162.973</ele>
        <time>2020-02-08T07:54:09.802Z</time>
      </trkpt>
      <trkpt lat="39.03077667" lon="-0.30546333">
        <ele>162.973</ele>
        <time>2020-02-08T07:54:10.802Z</time>
      </trkpt>
      <trkpt lat="39.03071333" lon="-0.305495">
        <ele>162.973</ele>
        <time>2020-02-08T07:54:11.802Z</time>
      </trkpt>
      <trkpt lat="39.03071333" lon="-0.305495">
        <ele>163.973</ele>
        <time>2020-02-08T07:54:12.802Z</time>
      </trkpt>
      <trkpt lat="39.03065167" lon="-0.30553">
        <ele>163.973</ele>
        <time>2020-02-08T07:54:13.802Z</time>
      </trkpt>
      <trkpt lat="39.03062167" lon="-0.30554833">
        <ele>163.973</ele>
        <time>2020-02-08T07:54:14.802Z</time>
      </trkpt>
      <trkpt lat="39.03062167" lon="-0.30554833">
        <ele>163.973</ele>
        <time>2020-02-08T07:54:15.802Z</time>
      </trkpt>
      <trkpt lat="39.03056167" lon="-0.30558167">
        <ele>164.973</ele>
        <time>2020-02-08T07:54:16.802Z</time>
      </trkpt>
      <trkpt lat="39.03056167" lon="-0.30558167">
        <ele>164.973</ele>
        <time>2020-02-08T07:54:17.802Z</time>
      </trkpt>
      <trkpt lat="39.03050333" lon="-0.305615">
        <ele>164.973</ele>
        <time>2020-02-08T07:54:18.802Z</time>
      </trkpt>
      <trkpt lat="39.030475" lon="-0.305635">
        <ele>165.973</ele>
        <time>2020-02-08T07:54:19.802Z</time>
      </trkpt>
      <trkpt lat="39.030475" lon="-0.305635">
        <ele>165.973</ele>
        <time>2020-02-08T07:54:20.802Z</time>
      </trkpt>
      <trkpt lat="39.03043" lon="-0.305675">
        <ele>165.973</ele>
        <time>2020-02-08T07:54:21.802Z</time>
      </trkpt>
      <trkpt lat="39.03040167" lon="-0.305695">
        <ele>165.973</ele>
        <time>2020-02-08T07:54:22.802Z</time>
      </trkpt>
      <trkpt lat="39.030375" lon="-0.30571333">
        <ele>166.973</ele>
        <time>2020-02-08T07:54:23.802Z</time>
      </trkpt>
      <trkpt lat="39.030375" lon="-0.30571333">
        <ele>166.973</ele>
        <time>2020-02-08T07:54:24.802Z</time>
      </trkpt>
      <trkpt lat="39.03032333" lon="-0.30575833">
        <ele>166.973</ele>
        <time>2020-02-08T07:54:25.802Z</time>
      </trkpt>
      <trkpt lat="39.030295" lon="-0.30578167">
        <ele>166.973</ele>
        <time>2020-02-08T07:54:26.802Z</time>
      </trkpt>
      <trkpt lat="39.030295" lon="-0.30578167">
        <ele>166.973</ele>
        <time>2020-02-08T07:54:27.802Z</time>
      </trkpt>
      <trkpt lat="39.030235" lon="-0.30582">
        <ele>167.973</ele>
        <time>2020-02-08T07:54:28.802Z</time>
      </trkpt>
      <trkpt lat="39.030235" lon="-0.30582">
        <ele>167.973</ele>
        <time>2020-02-08T07:54:29.802Z</time>
      </trkpt>
      <trkpt lat="39.030175" lon="-0.305855">
        <ele>167.973</ele>
        <time>2020-02-08T07:54:30.802Z</time>
      </trkpt>
      <trkpt lat="39.03014167" lon="-0.305865">
        <ele>167.973</ele>
        <time>2020-02-08T07:54:31.802Z</time>
      </trkpt>
      <trkpt lat="39.03011" lon="-0.30587167">
        <ele>168.973</ele>
        <time>2020-02-08T07:54:32.802Z</time>
      </trkpt>
      <trkpt lat="39.03011" lon="-0.30587167">
        <ele>168.973</ele>
        <time>2020-02-08T07:54:33.802Z</time>
      </trkpt>
      <trkpt lat="39.03004333" lon="-0.305875">
        <ele>168.973</ele>
        <time>2020-02-08T07:54:34.802Z</time>
      </trkpt>
      <trkpt lat="39.03001167" lon="-0.30587667">
        <ele>168.973</ele>
        <time>2020-02-08T07:54:35.802Z</time>
      </trkpt>
      <trkpt lat="39.03001167" lon="-0.30587667">
        <ele>169.973</ele>
        <time>2020-02-08T07:54:36.802Z</time>
      </trkpt>
      <trkpt lat="39.029945" lon="-0.30588333">
        <ele>169.973</ele>
        <time>2020-02-08T07:54:37.802Z</time>
      </trkpt>
      <trkpt lat="39.02991" lon="-0.30589">
        <ele>169.973</ele>
        <time>2020-02-08T07:54:38.802Z</time>
      </trkpt>
      <trkpt lat="39.02991" lon="-0.30589">
        <ele>169.973</ele>
        <time>2020-02-08T07:54:39.802Z</time>
      </trkpt>
      <trkpt lat="39.02984667" lon="-0.30592">
        <ele>169.973</ele>
        <time>2020-02-08T07:54:40.802Z</time>
      </trkpt>
      <trkpt lat="39.02984667" lon="-0.30592">
        <ele>169.973</ele>
        <time>2020-02-08T07:54:41.802Z</time>
      </trkpt>
      <trkpt lat="39.02979333" lon="-0.30596667">
        <ele>170.973</ele>
        <time>2020-02-08T07:54:42.802Z</time>
      </trkpt>
      <trkpt lat="39.02979333" lon="-0.30596667">
        <ele>170.973</ele>
        <time>2020-02-08T07:54:43.802Z</time>
      </trkpt>
      <trkpt lat="39.02974" lon="-0.30602">
        <ele>170.973</ele>
        <time>2020-02-08T07:54:44.802Z</time>
      </trkpt>
      <trkpt lat="39.02974" lon="-0.30602">
        <ele>170.973</ele>
        <time>2020-02-08T07:54:45.802Z</time>
      </trkpt>
      <trkpt lat="39.02968167" lon="-0.30605833">
        <ele>170.973</ele>
        <time>2020-02-08T07:54:46.802Z</time>
      </trkpt>
      <trkpt lat="39.02968167" lon="-0.30605833">
        <ele>170.973</ele>
        <time>2020-02-08T07:54:47.802Z</time>
      </trkpt>
      <trkpt lat="39.02962667" lon="-0.30609667">
        <ele>170.973</ele>
        <time>2020-02-08T07:54:48.802Z</time>
      </trkpt>
      <trkpt lat="39.02962667" lon="-0.30609667">
        <ele>172.973</ele>
        <time>2020-02-08T07:54:49.802Z</time>
      </trkpt>
      <trkpt lat="39.02957" lon="-0.30612667">
        <ele>172.973</ele>
        <time>2020-02-08T07:54:50.802Z</time>
      </trkpt>
      <trkpt lat="39.02957" lon="-0.30612667">
        <ele>172.973</ele>
        <time>2020-02-08T07:54:51.802Z</time>
      </trkpt>
      <trkpt lat="39.02951167" lon="-0.30615833">
        <ele>172.973</ele>
        <time>2020-02-08T07:54:52.802Z</time>
      </trkpt>
      <trkpt lat="39.02948333" lon="-0.30617333">
        <ele>173.973</ele>
        <time>2020-02-08T07:54:53.802Z</time>
      </trkpt>
      <trkpt lat="39.02948333" lon="-0.30617333">
        <ele>173.973</ele>
        <time>2020-02-08T07:54:54.802Z</time>
      </trkpt>
      <trkpt lat="39.029425" lon="-0.30619833">
        <ele>173.973</ele>
        <time>2020-02-08T07:54:55.802Z</time>
      </trkpt>
      <trkpt lat="39.02939667" lon="-0.30621667">
        <ele>173.973</ele>
        <time>2020-02-08T07:54:56.802Z</time>
      </trkpt>
      <trkpt lat="39.02939667" lon="-0.30621667">
        <ele>174.973</ele>
        <time>2020-02-08T07:54:57.802Z</time>
      </trkpt>
      <trkpt lat="39.02934167" lon="-0.30624833">
        <ele>174.973</ele>
        <time>2020-02-08T07:54:58.802Z</time>
      </trkpt>
      <trkpt lat="39.02934167" lon="-0.30624833">
        <ele>174.973</ele>
        <time>2020-02-08T07:54:59.802Z</time>
      </trkpt>
      <trkpt lat="39.029285" lon="-0.30627667">
        <ele>174.973</ele>
        <time>2020-02-08T07:55:00.802Z</time>
      </trkpt>
      <trkpt lat="39.029285" lon="-0.30627667">
        <ele>175.973</ele>
        <time>2020-02-08T07:55:01.802Z</time>
      </trkpt>
      <trkpt lat="39.02922667" lon="-0.30630667">
        <ele>175.973</ele>
        <time>2020-02-08T07:55:02.802Z</time>
      </trkpt>
      <trkpt lat="39.02922667" lon="-0.30630667">
        <ele>175.973</ele>
        <time>2020-02-08T07:55:03.802Z</time>
      </trkpt>
      <trkpt lat="39.02917167" lon="-0.30634667">
        <ele>175.973</ele>
        <time>2020-02-08T07:55:04.802Z</time>
      </trkpt>
      <trkpt lat="39.02917167" lon="-0.30634667">
        <ele>176.973</ele>
        <time>2020-02-08T07:55:05.802Z</time>
      </trkpt>
      <trkpt lat="39.029115" lon="-0.306375">
        <ele>176.973</ele>
        <time>2020-02-08T07:55:06.802Z</time>
      </trkpt>
      <trkpt lat="39.029115" lon="-0.306375">
        <ele>176.973</ele>
        <time>2020-02-08T07:55:07.802Z</time>
      </trkpt>
      <trkpt lat="39.02905833" lon="-0.30641">
        <ele>176.973</ele>
        <time>2020-02-08T07:55:08.802Z</time>
      </trkpt>
      <trkpt lat="39.02905833" lon="-0.30641">
        <ele>177.973</ele>
        <time>2020-02-08T07:55:09.802Z</time>
      </trkpt>
      <trkpt lat="39.02900167" lon="-0.306445">
        <ele>177.973</ele>
        <time>2020-02-08T07:55:10.802Z</time>
      </trkpt>
      <trkpt lat="39.02900167" lon="-0.306445">
        <ele>177.973</ele>
        <time>2020-02-08T07:55:11.802Z</time>
      </trkpt>
      <trkpt lat="39.02894" lon="-0.30647833">
        <ele>177.973</ele>
        <time>2020-02-08T07:55:12.802Z</time>
      </trkpt>
      <trkpt lat="39.02894" lon="-0.30647833">
        <ele>178.973</ele>
        <time>2020-02-08T07:55:13.802Z</time>
      </trkpt>
      <trkpt lat="39.02888333" lon="-0.30651833">
        <ele>178.973</ele>
        <time>2020-02-08T07:55:14.802Z</time>
      </trkpt>
      <trkpt lat="39.02888333" lon="-0.30651833">
        <ele>178.973</ele>
        <time>2020-02-08T07:55:15.802Z</time>
      </trkpt>
      <trkpt lat="39.02882667" lon="-0.30655833">
        <ele>178.973</ele>
        <time>2020-02-08T07:55:16.802Z</time>
      </trkpt>
      <trkpt lat="39.02880167" lon="-0.30658167">
        <ele>178.973</ele>
        <time>2020-02-08T07:55:17.802Z</time>
      </trkpt>
      <trkpt lat="39.02880167" lon="-0.30658167">
        <ele>179.973</ele>
        <time>2020-02-08T07:55:18.802Z</time>
      </trkpt>
      <trkpt lat="39.02875167" lon="-0.306625">
        <ele>179.973</ele>
        <time>2020-02-08T07:55:19.802Z</time>
      </trkpt>
      <trkpt lat="39.028725" lon="-0.30664333">
        <ele>179.973</ele>
        <time>2020-02-08T07:55:20.802Z</time>
      </trkpt>
      <trkpt lat="39.02869833" lon="-0.30666333">
        <ele>179.973</ele>
        <time>2020-02-08T07:55:21.802Z</time>
      </trkpt>
      <trkpt lat="39.02869833" lon="-0.30666333">
        <ele>180.973</ele>
        <time>2020-02-08T07:55:22.802Z</time>
      </trkpt>
      <trkpt lat="39.02864" lon="-0.30670167">
        <ele>180.973</ele>
        <time>2020-02-08T07:55:23.802Z</time>
      </trkpt>
      <trkpt lat="39.02861167" lon="-0.30672167">
        <ele>180.973</ele>
        <time>2020-02-08T07:55:24.802Z</time>
      </trkpt>
      <trkpt lat="39.02861167" lon="-0.30672167">
        <ele>180.973</ele>
        <time>2020-02-08T07:55:25.802Z</time>
      </trkpt>
      <trkpt lat="39.02855833" lon="-0.30676667">
        <ele>181.973</ele>
        <time>2020-02-08T07:55:26.802Z</time>
      </trkpt>
      <trkpt lat="39.02855833" lon="-0.30676667">
        <ele>181.973</ele>
        <time>2020-02-08T07:55:27.802Z</time>
      </trkpt>
      <trkpt lat="39.02851333" lon="-0.306815">
        <ele>181.973</ele>
        <time>2020-02-08T07:55:28.802Z</time>
      </trkpt>
      <trkpt lat="39.02848833" lon="-0.30683833">
        <ele>181.973</ele>
        <time>2020-02-08T07:55:29.802Z</time>
      </trkpt>
      <trkpt lat="39.02848833" lon="-0.30683833">
        <ele>182.973</ele>
        <time>2020-02-08T07:55:30.802Z</time>
      </trkpt>
      <trkpt lat="39.02844" lon="-0.306885">
        <ele>182.973</ele>
        <time>2020-02-08T07:55:31.802Z</time>
      </trkpt>
      <trkpt lat="39.02841667" lon="-0.30690833">
        <ele>182.973</ele>
        <time>2020-02-08T07:55:32.802Z</time>
      </trkpt>
      <trkpt lat="39.02841667" lon="-0.30690833">
        <ele>182.973</ele>
        <time>2020-02-08T07:55:33.802Z</time>
      </trkpt>
      <trkpt lat="39.02836667" lon="-0.306955">
        <ele>183.973</ele>
        <time>2020-02-08T07:55:34.802Z</time>
      </trkpt>
      <trkpt lat="39.028345" lon="-0.30698333">
        <ele>183.973</ele>
        <time>2020-02-08T07:55:35.802Z</time>
      </trkpt>
      <trkpt lat="39.02832167" lon="-0.30701">
        <ele>183.973</ele>
        <time>2020-02-08T07:55:36.802Z</time>
      </trkpt>
      <trkpt lat="39.02832167" lon="-0.30701">
        <ele>183.973</ele>
        <time>2020-02-08T07:55:37.802Z</time>
      </trkpt>
      <trkpt lat="39.02827167" lon="-0.30706">
        <ele>184.973</ele>
        <time>2020-02-08T07:55:38.802Z</time>
      </trkpt>
      <trkpt lat="39.02827167" lon="-0.30706">
        <ele>184.973</ele>
        <time>2020-02-08T07:55:39.802Z</time>
      </trkpt>
      <trkpt lat="39.02822833" lon="-0.30712">
        <ele>184.973</ele>
        <time>2020-02-08T07:55:40.802Z</time>
      </trkpt>
      <trkpt lat="39.02822833" lon="-0.30712">
        <ele>184.973</ele>
        <time>2020-02-08T07:55:41.802Z</time>
      </trkpt>
      <trkpt lat="39.02819833" lon="-0.30719">
        <ele>184.973</ele>
        <time>2020-02-08T07:55:42.802Z</time>
      </trkpt>
      <trkpt lat="39.028185" lon="-0.30722667">
        <ele>184.973</ele>
        <time>2020-02-08T07:55:43.802Z</time>
      </trkpt>
      <trkpt lat="39.028185" lon="-0.30722667">
        <ele>184.973</ele>
        <time>2020-02-08T07:55:44.802Z</time>
      </trkpt>
      <trkpt lat="39.02816167" lon="-0.30730167">
        <ele>184.973</ele>
        <time>2020-02-08T07:55:45.802Z</time>
      </trkpt>
      <trkpt lat="39.02816167" lon="-0.30730167">
        <ele>184.973</ele>
        <time>2020-02-08T07:55:46.802Z</time>
      </trkpt>
      <trkpt lat="39.02814333" lon="-0.307385">
        <ele>186.973</ele>
        <time>2020-02-08T07:55:47.802Z</time>
      </trkpt>
      <trkpt lat="39.02814" lon="-0.307425">
        <ele>186.973</ele>
        <time>2020-02-08T07:55:48.802Z</time>
      </trkpt>
      <trkpt lat="39.02814" lon="-0.307425">
        <ele>186.973</ele>
        <time>2020-02-08T07:55:49.802Z</time>
      </trkpt>
      <trkpt lat="39.02812833" lon="-0.30750833">
        <ele>186.973</ele>
        <time>2020-02-08T07:55:50.802Z</time>
      </trkpt>
      <trkpt lat="39.02812833" lon="-0.30750833">
        <ele>186.973</ele>
        <time>2020-02-08T07:55:51.802Z</time>
      </trkpt>
      <trkpt lat="39.028105" lon="-0.30758333">
        <ele>187.973</ele>
        <time>2020-02-08T07:55:52.802Z</time>
      </trkpt>
      <trkpt lat="39.028105" lon="-0.30758333">
        <ele>187.973</ele>
        <time>2020-02-08T07:55:53.802Z</time>
      </trkpt>
      <trkpt lat="39.02807" lon="-0.30764">
        <ele>187.973</ele>
        <time>2020-02-08T07:55:54.802Z</time>
      </trkpt>
      <trkpt lat="39.02807" lon="-0.30764">
        <ele>187.973</ele>
        <time>2020-02-08T07:55:55.802Z</time>
      </trkpt>
      <trkpt lat="39.02801333" lon="-0.30766167">
        <ele>188.973</ele>
        <time>2020-02-08T07:55:56.802Z</time>
      </trkpt>
      <trkpt lat="39.02801333" lon="-0.30766167">
        <ele>188.973</ele>
        <time>2020-02-08T07:55:57.802Z</time>
      </trkpt>
      <trkpt lat="39.02795667" lon="-0.30762667">
        <ele>188.973</ele>
        <time>2020-02-08T07:55:58.802Z</time>
      </trkpt>
      <trkpt lat="39.02795667" lon="-0.30762667">
        <ele>188.973</ele>
        <time>2020-02-08T07:55:59.802Z</time>
      </trkpt>
      <trkpt lat="39.02791333" lon="-0.30757667">
        <ele>189.973</ele>
        <time>2020-02-08T07:56:00.802Z</time>
      </trkpt>
      <trkpt lat="39.02791333" lon="-0.30757667">
        <ele>189.973</ele>
        <time>2020-02-08T07:56:01.802Z</time>
      </trkpt>
      <trkpt lat="39.02789833" lon="-0.3075">
        <ele>189.973</ele>
        <time>2020-02-08T07:56:02.802Z</time>
      </trkpt>
      <trkpt lat="39.02789833" lon="-0.3075">
        <ele>189.973</ele>
        <time>2020-02-08T07:56:03.802Z</time>
      </trkpt>
      <trkpt lat="39.02790167" lon="-0.30741667">
        <ele>190.973</ele>
        <time>2020-02-08T07:56:04.802Z</time>
      </trkpt>
      <trkpt lat="39.02790167" lon="-0.30741667">
        <ele>190.973</ele>
        <time>2020-02-08T07:56:05.802Z</time>
      </trkpt>
      <trkpt lat="39.02791833" lon="-0.30734333">
        <ele>190.973</ele>
        <time>2020-02-08T07:56:06.802Z</time>
      </trkpt>
      <trkpt lat="39.02791833" lon="-0.30734333">
        <ele>190.973</ele>
        <time>2020-02-08T07:56:07.802Z</time>
      </trkpt>
      <trkpt lat="39.02793333" lon="-0.30727">
        <ele>190.973</ele>
        <time>2020-02-08T07:56:08.802Z</time>
      </trkpt>
      <trkpt lat="39.027945" lon="-0.30723">
        <ele>191.973</ele>
        <time>2020-02-08T07:56:09.802Z</time>
      </trkpt>
      <trkpt lat="39.02796" lon="-0.30719">
        <ele>191.973</ele>
        <time>2020-02-08T07:56:10.802Z</time>
      </trkpt>
      <trkpt lat="39.02797333" lon="-0.30715167">
        <ele>192.973</ele>
        <time>2020-02-08T07:56:11.802Z</time>
      </trkpt>
      <trkpt lat="39.02797333" lon="-0.30715167">
        <ele>192.973</ele>
        <time>2020-02-08T07:56:12.802Z</time>
      </trkpt>
      <trkpt lat="39.02800167" lon="-0.30707667">
        <ele>193.973</ele>
        <time>2020-02-08T07:56:13.802Z</time>
      </trkpt>
      <trkpt lat="39.028015" lon="-0.30703833">
        <ele>193.973</ele>
        <time>2020-02-08T07:56:14.802Z</time>
      </trkpt>
      <trkpt lat="39.02803167" lon="-0.30700333">
        <ele>193.973</ele>
        <time>2020-02-08T07:56:15.802Z</time>
      </trkpt>
      <trkpt lat="39.02803167" lon="-0.30700333">
        <ele>195.973</ele>
        <time>2020-02-08T07:56:16.802Z</time>
      </trkpt>
      <trkpt lat="39.02808" lon="-0.30695">
        <ele>195.973</ele>
        <time>2020-02-08T07:56:17.802Z</time>
      </trkpt>
      <trkpt lat="39.02811" lon="-0.306925">
        <ele>195.973</ele>
        <time>2020-02-08T07:56:18.802Z</time>
      </trkpt>
      <trkpt lat="39.02811" lon="-0.306925">
        <ele>195.973</ele>
        <time>2020-02-08T07:56:19.802Z</time>
      </trkpt>
      <trkpt lat="39.02817167" lon="-0.30687167">
        <ele>195.973</ele>
        <time>2020-02-08T07:56:20.802Z</time>
      </trkpt>
      <trkpt lat="39.02817167" lon="-0.30687167">
        <ele>195.973</ele>
        <time>2020-02-08T07:56:21.802Z</time>
      </trkpt>
      <trkpt lat="39.02823167" lon="-0.30681167">
        <ele>195.973</ele>
        <time>2020-02-08T07:56:22.802Z</time>
      </trkpt>
      <trkpt lat="39.02823167" lon="-0.30681167">
        <ele>195.973</ele>
        <time>2020-02-08T07:56:23.802Z</time>
      </trkpt>
      <trkpt lat="39.02829" lon="-0.30674833">
        <ele>195.973</ele>
        <time>2020-02-08T07:56:24.802Z</time>
      </trkpt>
      <trkpt lat="39.02829" lon="-0.30674833">
        <ele>195.973</ele>
        <time>2020-02-08T07:56:25.802Z</time>
      </trkpt>
      <trkpt lat="39.02835" lon="-0.30668333">
        <ele>195.973</ele>
        <time>2020-02-08T07:56:26.802Z</time>
      </trkpt>
      <trkpt lat="39.02835" lon="-0.30668333">
        <ele>195.973</ele>
        <time>2020-02-08T07:56:27.802Z</time>
      </trkpt>
      <trkpt lat="39.02841" lon="-0.306625">
        <ele>196.973</ele>
        <time>2020-02-08T07:56:28.802Z</time>
      </trkpt>
      <trkpt lat="39.02841" lon="-0.306625">
        <ele>196.973</ele>
        <time>2020-02-08T07:56:29.802Z</time>
      </trkpt>
      <trkpt lat="39.02846333" lon="-0.30655833">
        <ele>196.973</ele>
        <time>2020-02-08T07:56:30.802Z</time>
      </trkpt>
      <trkpt lat="39.02846333" lon="-0.30655833">
        <ele>196.973</ele>
        <time>2020-02-08T07:56:31.802Z</time>
      </trkpt>
      <trkpt lat="39.02851333" lon="-0.30649333">
        <ele>196.973</ele>
        <time>2020-02-08T07:56:32.802Z</time>
      </trkpt>
      <trkpt lat="39.02851333" lon="-0.30649333">
        <ele>196.973</ele>
        <time>2020-02-08T07:56:33.802Z</time>
      </trkpt>
      <trkpt lat="39.02855833" lon="-0.30643333">
        <ele>197.973</ele>
        <time>2020-02-08T07:56:34.802Z</time>
      </trkpt>
      <trkpt lat="39.02855833" lon="-0.30643333">
        <ele>197.973</ele>
        <time>2020-02-08T07:56:35.802Z</time>
      </trkpt>
      <trkpt lat="39.0286" lon="-0.30637167">
        <ele>197.973</ele>
        <time>2020-02-08T07:56:36.802Z</time>
      </trkpt>
      <trkpt lat="39.0286" lon="-0.30637167">
        <ele>197.973</ele>
        <time>2020-02-08T07:56:37.802Z</time>
      </trkpt>
      <trkpt lat="39.02864" lon="-0.30631167">
        <ele>197.973</ele>
        <time>2020-02-08T07:56:38.802Z</time>
      </trkpt>
      <trkpt lat="39.02866167" lon="-0.30628667">
        <ele>197.973</ele>
        <time>2020-02-08T07:56:39.802Z</time>
      </trkpt>
      <trkpt lat="39.02866167" lon="-0.30628667">
        <ele>197.973</ele>
        <time>2020-02-08T07:56:40.802Z</time>
      </trkpt>
      <trkpt lat="39.02870667" lon="-0.30623333">
        <ele>197.973</ele>
        <time>2020-02-08T07:56:41.802Z</time>
      </trkpt>
      <trkpt lat="39.02870667" lon="-0.30623333">
        <ele>198.973</ele>
        <time>2020-02-08T07:56:42.802Z</time>
      </trkpt>
      <trkpt lat="39.02876" lon="-0.30618">
        <ele>198.973</ele>
        <time>2020-02-08T07:56:43.802Z</time>
      </trkpt>
      <trkpt lat="39.02878833" lon="-0.30615667">
        <ele>198.973</ele>
        <time>2020-02-08T07:56:44.802Z</time>
      </trkpt>
      <trkpt lat="39.02878833" lon="-0.30615667">
        <ele>198.973</ele>
        <time>2020-02-08T07:56:45.802Z</time>
      </trkpt>
      <trkpt lat="39.02883833" lon="-0.306105">
        <ele>198.973</ele>
        <time>2020-02-08T07:56:46.802Z</time>
      </trkpt>
      <trkpt lat="39.02883833" lon="-0.306105">
        <ele>199.973</ele>
        <time>2020-02-08T07:56:47.802Z</time>
      </trkpt>
      <trkpt lat="39.02888833" lon="-0.30605833">
        <ele>199.973</ele>
        <time>2020-02-08T07:56:48.802Z</time>
      </trkpt>
      <trkpt lat="39.02888833" lon="-0.30605833">
        <ele>199.973</ele>
        <time>2020-02-08T07:56:49.802Z</time>
      </trkpt>
      <trkpt lat="39.02893667" lon="-0.30601333">
        <ele>199.973</ele>
        <time>2020-02-08T07:56:50.802Z</time>
      </trkpt>
      <trkpt lat="39.02893667" lon="-0.30601333">
        <ele>199.973</ele>
        <time>2020-02-08T07:56:51.802Z</time>
      </trkpt>
      <trkpt lat="39.02898667" lon="-0.30597167">
        <ele>199.973</ele>
        <time>2020-02-08T07:56:52.802Z</time>
      </trkpt>
      <trkpt lat="39.02898667" lon="-0.30597167">
        <ele>200.973</ele>
        <time>2020-02-08T07:56:53.802Z</time>
      </trkpt>
      <trkpt lat="39.02903667" lon="-0.30592333">
        <ele>200.973</ele>
        <time>2020-02-08T07:56:54.802Z</time>
      </trkpt>
      <trkpt lat="39.02903667" lon="-0.30592333">
        <ele>200.973</ele>
        <time>2020-02-08T07:56:55.802Z</time>
      </trkpt>
      <trkpt lat="39.02908667" lon="-0.30587333">
        <ele>200.973</ele>
        <time>2020-02-08T07:56:56.802Z</time>
      </trkpt>
      <trkpt lat="39.02908667" lon="-0.30587333">
        <ele>201.973</ele>
        <time>2020-02-08T07:56:57.802Z</time>
      </trkpt>
      <trkpt lat="39.029135" lon="-0.305825">
        <ele>201.973</ele>
        <time>2020-02-08T07:56:58.802Z</time>
      </trkpt>
      <trkpt lat="39.029135" lon="-0.305825">
        <ele>201.973</ele>
        <time>2020-02-08T07:56:59.802Z</time>
      </trkpt>
      <trkpt lat="39.02917833" lon="-0.305775">
        <ele>201.973</ele>
        <time>2020-02-08T07:57:00.802Z</time>
      </trkpt>
      <trkpt lat="39.02917833" lon="-0.305775">
        <ele>201.973</ele>
        <time>2020-02-08T07:57:01.802Z</time>
      </trkpt>
      <trkpt lat="39.02922667" lon="-0.305725">
        <ele>201.973</ele>
        <time>2020-02-08T07:57:02.802Z</time>
      </trkpt>
      <trkpt lat="39.02922667" lon="-0.305725">
        <ele>202.973</ele>
        <time>2020-02-08T07:57:03.802Z</time>
      </trkpt>
      <trkpt lat="39.02927833" lon="-0.30567833">
        <ele>202.973</ele>
        <time>2020-02-08T07:57:04.802Z</time>
      </trkpt>
      <trkpt lat="39.02927833" lon="-0.30567833">
        <ele>202.973</ele>
        <time>2020-02-08T07:57:05.802Z</time>
      </trkpt>
      <trkpt lat="39.02932833" lon="-0.30563167">
        <ele>202.973</ele>
        <time>2020-02-08T07:57:06.802Z</time>
      </trkpt>
      <trkpt lat="39.02932833" lon="-0.30563167">
        <ele>202.973</ele>
        <time>2020-02-08T07:57:07.802Z</time>
      </trkpt>
      <trkpt lat="39.02937667" lon="-0.30558333">
        <ele>202.973</ele>
        <time>2020-02-08T07:57:08.802Z</time>
      </trkpt>
      <trkpt lat="39.02937667" lon="-0.30558333">
        <ele>203.973</ele>
        <time>2020-02-08T07:57:09.802Z</time>
      </trkpt>
      <trkpt lat="39.02940667" lon="-0.30551167">
        <ele>203.973</ele>
        <time>2020-02-08T07:57:10.802Z</time>
      </trkpt>
      <trkpt lat="39.02942" lon="-0.30547333">
        <ele>203.973</ele>
        <time>2020-02-08T07:57:11.802Z</time>
      </trkpt>
      <trkpt lat="39.02943333" lon="-0.30544167">
        <ele>203.973</ele>
        <time>2020-02-08T07:57:12.802Z</time>
      </trkpt>
      <trkpt lat="39.02943333" lon="-0.30544167">
        <ele>204.973</ele>
        <time>2020-02-08T07:57:13.802Z</time>
      </trkpt>
      <trkpt lat="39.02945667" lon="-0.30538">
        <ele>204.973</ele>
        <time>2020-02-08T07:57:14.802Z</time>
      </trkpt>
      <trkpt lat="39.02945667" lon="-0.30538">
        <ele>204.973</ele>
        <time>2020-02-08T07:57:15.802Z</time>
      </trkpt>
      <trkpt lat="39.02948667" lon="-0.30531">
        <ele>204.973</ele>
        <time>2020-02-08T07:57:16.802Z</time>
      </trkpt>
      <trkpt lat="39.02948667" lon="-0.30531">
        <ele>204.973</ele>
        <time>2020-02-08T07:57:17.802Z</time>
      </trkpt>
      <trkpt lat="39.029525" lon="-0.305245">
        <ele>204.973</ele>
        <time>2020-02-08T07:57:18.802Z</time>
      </trkpt>
      <trkpt lat="39.029525" lon="-0.305245">
        <ele>204.973</ele>
        <time>2020-02-08T07:57:19.802Z</time>
      </trkpt>
      <trkpt lat="39.029565" lon="-0.305185">
        <ele>204.973</ele>
        <time>2020-02-08T07:57:20.802Z</time>
      </trkpt>
      <trkpt lat="39.029565" lon="-0.305185">
        <ele>204.973</ele>
        <time>2020-02-08T07:57:21.802Z</time>
      </trkpt>
      <trkpt lat="39.029605" lon="-0.30511833">
        <ele>205.973</ele>
        <time>2020-02-08T07:57:22.802Z</time>
      </trkpt>
      <trkpt lat="39.029605" lon="-0.30511833">
        <ele>205.973</ele>
        <time>2020-02-08T07:57:23.802Z</time>
      </trkpt>
      <trkpt lat="39.02963667" lon="-0.30504333">
        <ele>205.973</ele>
        <time>2020-02-08T07:57:24.802Z</time>
      </trkpt>
      <trkpt lat="39.02963667" lon="-0.30504333">
        <ele>205.973</ele>
        <time>2020-02-08T07:57:25.802Z</time>
      </trkpt>
      <trkpt lat="39.02965833" lon="-0.30496333">
        <ele>206.973</ele>
        <time>2020-02-08T07:57:26.802Z</time>
      </trkpt>
      <trkpt lat="39.02965833" lon="-0.30496333">
        <ele>206.973</ele>
        <time>2020-02-08T07:57:27.802Z</time>
      </trkpt>
      <trkpt lat="39.02966333" lon="-0.30488167">
        <ele>206.973</ele>
        <time>2020-02-08T07:57:28.802Z</time>
      </trkpt>
      <trkpt lat="39.02966333" lon="-0.30488167">
        <ele>206.973</ele>
        <time>2020-02-08T07:57:29.802Z</time>
      </trkpt>
      <trkpt lat="39.029655" lon="-0.30480667">
        <ele>206.973</ele>
        <time>2020-02-08T07:57:30.802Z</time>
      </trkpt>
      <trkpt lat="39.02964167" lon="-0.30477333">
        <ele>206.973</ele>
        <time>2020-02-08T07:57:31.802Z</time>
      </trkpt>
      <trkpt lat="39.02964167" lon="-0.30477333">
        <ele>206.973</ele>
        <time>2020-02-08T07:57:32.802Z</time>
      </trkpt>
      <trkpt lat="39.02960667" lon="-0.30471167">
        <ele>206.973</ele>
        <time>2020-02-08T07:57:33.802Z</time>
      </trkpt>
      <trkpt lat="39.02958667" lon="-0.30468167">
        <ele>207.973</ele>
        <time>2020-02-08T07:57:34.802Z</time>
      </trkpt>
      <trkpt lat="39.02958667" lon="-0.30468167">
        <ele>207.973</ele>
        <time>2020-02-08T07:57:35.802Z</time>
      </trkpt>
      <trkpt lat="39.02954667" lon="-0.30462333">
        <ele>207.973</ele>
        <time>2020-02-08T07:57:36.802Z</time>
      </trkpt>
      <trkpt lat="39.02954667" lon="-0.30462333">
        <ele>207.973</ele>
        <time>2020-02-08T07:57:37.802Z</time>
      </trkpt>
      <trkpt lat="39.02950333" lon="-0.30456">
        <ele>208.973</ele>
        <time>2020-02-08T07:57:38.802Z</time>
      </trkpt>
      <trkpt lat="39.02948167" lon="-0.30452167">
        <ele>208.973</ele>
        <time>2020-02-08T07:57:39.802Z</time>
      </trkpt>
      <trkpt lat="39.02946167" lon="-0.30448">
        <ele>208.973</ele>
        <time>2020-02-08T07:57:40.802Z</time>
      </trkpt>
      <trkpt lat="39.02946167" lon="-0.30448">
        <ele>208.973</ele>
        <time>2020-02-08T07:57:41.802Z</time>
      </trkpt>
      <trkpt lat="39.02943833" lon="-0.30438833">
        <ele>209.973</ele>
        <time>2020-02-08T07:57:42.802Z</time>
      </trkpt>
      <trkpt lat="39.02943833" lon="-0.30438833">
        <ele>209.973</ele>
        <time>2020-02-08T07:57:43.802Z</time>
      </trkpt>
      <trkpt lat="39.02944" lon="-0.3043">
        <ele>209.973</ele>
        <time>2020-02-08T07:57:44.802Z</time>
      </trkpt>
      <trkpt lat="39.02944" lon="-0.3043">
        <ele>209.973</ele>
        <time>2020-02-08T07:57:45.802Z</time>
      </trkpt>
      <trkpt lat="39.02946167" lon="-0.30421">
        <ele>209.973</ele>
        <time>2020-02-08T07:57:46.802Z</time>
      </trkpt>
      <trkpt lat="39.02947167" lon="-0.304165">
        <ele>210.973</ele>
        <time>2020-02-08T07:57:47.802Z</time>
      </trkpt>
      <trkpt lat="39.02947167" lon="-0.304165">
        <ele>210.973</ele>
        <time>2020-02-08T07:57:48.802Z</time>
      </trkpt>
      <trkpt lat="39.02949667" lon="-0.30407833">
        <ele>210.973</ele>
        <time>2020-02-08T07:57:49.802Z</time>
      </trkpt>
      <trkpt lat="39.029505" lon="-0.30403833">
        <ele>210.973</ele>
        <time>2020-02-08T07:57:50.802Z</time>
      </trkpt>
      <trkpt lat="39.029505" lon="-0.30403833">
        <ele>210.973</ele>
        <time>2020-02-08T07:57:51.802Z</time>
      </trkpt>
      <trkpt lat="39.02951833" lon="-0.30396333">
        <ele>210.973</ele>
        <time>2020-02-08T07:57:52.802Z</time>
      </trkpt>
      <trkpt lat="39.02952667" lon="-0.30392667">
        <ele>211.973</ele>
        <time>2020-02-08T07:57:53.802Z</time>
      </trkpt>
      <trkpt lat="39.02952667" lon="-0.30392667">
        <ele>211.973</ele>
        <time>2020-02-08T07:57:54.802Z</time>
      </trkpt>
      <trkpt lat="39.029545" lon="-0.30386">
        <ele>211.973</ele>
        <time>2020-02-08T07:57:55.802Z</time>
      </trkpt>
      <trkpt lat="39.02955167" lon="-0.303825">
        <ele>211.973</ele>
        <time>2020-02-08T07:57:56.802Z</time>
      </trkpt>
      <trkpt lat="39.02955167" lon="-0.303825">
        <ele>211.973</ele>
        <time>2020-02-08T07:57:57.802Z</time>
      </trkpt>
      <trkpt lat="39.02956667" lon="-0.30375667">
        <ele>211.973</ele>
        <time>2020-02-08T07:57:58.802Z</time>
      </trkpt>
      <trkpt lat="39.02957333" lon="-0.30372333">
        <ele>211.973</ele>
        <time>2020-02-08T07:57:59.802Z</time>
      </trkpt>
      <trkpt lat="39.02957333" lon="-0.30372333">
        <ele>211.973</ele>
        <time>2020-02-08T07:58:00.802Z</time>
      </trkpt>
      <trkpt lat="39.02958667" lon="-0.30365">
        <ele>212.973</ele>
        <time>2020-02-08T07:58:01.802Z</time>
      </trkpt>
      <trkpt lat="39.029595" lon="-0.30361333">
        <ele>212.973</ele>
        <time>2020-02-08T07:58:02.802Z</time>
      </trkpt>
      <trkpt lat="39.029595" lon="-0.30361333">
        <ele>212.973</ele>
        <time>2020-02-08T07:58:03.802Z</time>
      </trkpt>
      <trkpt lat="39.02961167" lon="-0.30353833">
        <ele>212.973</ele>
        <time>2020-02-08T07:58:04.802Z</time>
      </trkpt>
      <trkpt lat="39.02961167" lon="-0.30353833">
        <ele>213.973</ele>
        <time>2020-02-08T07:58:05.802Z</time>
      </trkpt>
      <trkpt lat="39.02962667" lon="-0.30346333">
        <ele>213.973</ele>
        <time>2020-02-08T07:58:06.802Z</time>
      </trkpt>
      <trkpt lat="39.02962667" lon="-0.30346333">
        <ele>213.973</ele>
        <time>2020-02-08T07:58:07.802Z</time>
      </trkpt>
      <trkpt lat="39.02964" lon="-0.30339">
        <ele>213.973</ele>
        <time>2020-02-08T07:58:08.802Z</time>
      </trkpt>
      <trkpt lat="39.02964" lon="-0.30339">
        <ele>213.973</ele>
        <time>2020-02-08T07:58:09.802Z</time>
      </trkpt>
      <trkpt lat="39.02964667" lon="-0.30331">
        <ele>213.973</ele>
        <time>2020-02-08T07:58:10.802Z</time>
      </trkpt>
      <trkpt lat="39.02964667" lon="-0.30331">
        <ele>214.973</ele>
        <time>2020-02-08T07:58:11.802Z</time>
      </trkpt>
      <trkpt lat="39.02964167" lon="-0.303225">
        <ele>214.973</ele>
        <time>2020-02-08T07:58:12.802Z</time>
      </trkpt>
      <trkpt lat="39.02964167" lon="-0.303225">
        <ele>214.973</ele>
        <time>2020-02-08T07:58:13.802Z</time>
      </trkpt>
      <trkpt lat="39.02963833" lon="-0.30314">
        <ele>214.973</ele>
        <time>2020-02-08T07:58:14.802Z</time>
      </trkpt>
      <trkpt lat="39.02963833" lon="-0.30314">
        <ele>214.973</ele>
        <time>2020-02-08T07:58:15.802Z</time>
      </trkpt>
      <trkpt lat="39.02963" lon="-0.30305667">
        <ele>215.973</ele>
        <time>2020-02-08T07:58:16.802Z</time>
      </trkpt>
      <trkpt lat="39.02963" lon="-0.30305667">
        <ele>215.973</ele>
        <time>2020-02-08T07:58:17.802Z</time>
      </trkpt>
      <trkpt lat="39.02961667" lon="-0.30297167">
        <ele>215.973</ele>
        <time>2020-02-08T07:58:18.802Z</time>
      </trkpt>
      <trkpt lat="39.02961667" lon="-0.30297167">
        <ele>215.973</ele>
        <time>2020-02-08T07:58:19.802Z</time>
      </trkpt>
      <trkpt lat="39.02959833" lon="-0.30289">
        <ele>215.973</ele>
        <time>2020-02-08T07:58:20.802Z</time>
      </trkpt>
      <trkpt lat="39.02959833" lon="-0.30289">
        <ele>215.973</ele>
        <time>2020-02-08T07:58:21.802Z</time>
      </trkpt>
      <trkpt lat="39.02957" lon="-0.30280167">
        <ele>215.973</ele>
        <time>2020-02-08T07:58:22.802Z</time>
      </trkpt>
      <trkpt lat="39.02957" lon="-0.30280167">
        <ele>215.973</ele>
        <time>2020-02-08T07:58:23.802Z</time>
      </trkpt>
      <trkpt lat="39.02954" lon="-0.30271">
        <ele>215.973</ele>
        <time>2020-02-08T07:58:24.802Z</time>
      </trkpt>
      <trkpt lat="39.02954" lon="-0.30271">
        <ele>215.973</ele>
        <time>2020-02-08T07:58:25.802Z</time>
      </trkpt>
      <trkpt lat="39.02950833" lon="-0.30263167">
        <ele>215.973</ele>
        <time>2020-02-08T07:58:26.802Z</time>
      </trkpt>
      <trkpt lat="39.02950833" lon="-0.30263167">
        <ele>215.973</ele>
        <time>2020-02-08T07:58:27.802Z</time>
      </trkpt>
      <trkpt lat="39.02947833" lon="-0.302555">
        <ele>216.973</ele>
        <time>2020-02-08T07:58:28.802Z</time>
      </trkpt>
      <trkpt lat="39.02946333" lon="-0.30251833">
        <ele>216.973</ele>
        <time>2020-02-08T07:58:29.802Z</time>
      </trkpt>
      <trkpt lat="39.02944667" lon="-0.30248167">
        <ele>216.973</ele>
        <time>2020-02-08T07:58:30.802Z</time>
      </trkpt>
      <trkpt lat="39.02944667" lon="-0.30248167">
        <ele>216.973</ele>
        <time>2020-02-08T07:58:31.802Z</time>
      </trkpt>
      <trkpt lat="39.02941333" lon="-0.30241">
        <ele>216.973</ele>
        <time>2020-02-08T07:58:32.802Z</time>
      </trkpt>
      <trkpt lat="39.02941333" lon="-0.30241">
        <ele>216.973</ele>
        <time>2020-02-08T07:58:33.802Z</time>
      </trkpt>
      <trkpt lat="39.02937333" lon="-0.30234833">
        <ele>217.973</ele>
        <time>2020-02-08T07:58:34.802Z</time>
      </trkpt>
      <trkpt lat="39.02935" lon="-0.30232833">
        <ele>217.973</ele>
        <time>2020-02-08T07:58:35.802Z</time>
      </trkpt>
      <trkpt lat="39.02935" lon="-0.30232833">
        <ele>217.973</ele>
        <time>2020-02-08T07:58:36.802Z</time>
      </trkpt>
      <trkpt lat="39.02929833" lon="-0.30233">
        <ele>217.973</ele>
        <time>2020-02-08T07:58:37.802Z</time>
      </trkpt>
      <trkpt lat="39.02927667" lon="-0.30234833">
        <ele>217.973</ele>
        <time>2020-02-08T07:58:38.802Z</time>
      </trkpt>
      <trkpt lat="39.02927667" lon="-0.30234833">
        <ele>217.973</ele>
        <time>2020-02-08T07:58:39.802Z</time>
      </trkpt>
      <trkpt lat="39.02926833" lon="-0.30241">
        <ele>218.973</ele>
        <time>2020-02-08T07:58:40.802Z</time>
      </trkpt>
      <trkpt lat="39.02926833" lon="-0.30241">
        <ele>218.973</ele>
        <time>2020-02-08T07:58:41.802Z</time>
      </trkpt>
      <trkpt lat="39.029295" lon="-0.30249">
        <ele>218.973</ele>
        <time>2020-02-08T07:58:42.802Z</time>
      </trkpt>
      <trkpt lat="39.029295" lon="-0.30249">
        <ele>219.973</ele>
        <time>2020-02-08T07:58:43.802Z</time>
      </trkpt>
      <trkpt lat="39.02932333" lon="-0.302555">
        <ele>219.973</ele>
        <time>2020-02-08T07:58:44.802Z</time>
      </trkpt>
      <trkpt lat="39.02932333" lon="-0.302555">
        <ele>219.973</ele>
        <time>2020-02-08T07:58:45.802Z</time>
      </trkpt>
      <trkpt lat="39.02935167" lon="-0.30262333">
        <ele>219.973</ele>
        <time>2020-02-08T07:58:46.802Z</time>
      </trkpt>
      <trkpt lat="39.02935167" lon="-0.30262333">
        <ele>220.973</ele>
        <time>2020-02-08T07:58:47.802Z</time>
      </trkpt>
      <trkpt lat="39.029375" lon="-0.30268">
        <ele>220.973</ele>
        <time>2020-02-08T07:58:48.802Z</time>
      </trkpt>
      <trkpt lat="39.029375" lon="-0.30268">
        <ele>220.973</ele>
        <time>2020-02-08T07:58:49.802Z</time>
      </trkpt>
      <trkpt lat="39.0294" lon="-0.30274">
        <ele>220.973</ele>
        <time>2020-02-08T07:58:50.802Z</time>
      </trkpt>
      <trkpt lat="39.0294" lon="-0.30274">
        <ele>221.973</ele>
        <time>2020-02-08T07:58:51.802Z</time>
      </trkpt>
      <trkpt lat="39.02941833" lon="-0.30280833">
        <ele>221.973</ele>
        <time>2020-02-08T07:58:52.802Z</time>
      </trkpt>
      <trkpt lat="39.02941833" lon="-0.30280833">
        <ele>221.973</ele>
        <time>2020-02-08T07:58:53.802Z</time>
      </trkpt>
      <trkpt lat="39.02943333" lon="-0.302875">
        <ele>221.973</ele>
        <time>2020-02-08T07:58:54.802Z</time>
      </trkpt>
      <trkpt lat="39.02943333" lon="-0.302875">
        <ele>221.973</ele>
        <time>2020-02-08T07:58:55.802Z</time>
      </trkpt>
      <trkpt lat="39.02944167" lon="-0.30294667">
        <ele>222.973</ele>
        <time>2020-02-08T07:58:56.802Z</time>
      </trkpt>
      <trkpt lat="39.02944167" lon="-0.30294667">
        <ele>222.973</ele>
        <time>2020-02-08T07:58:57.802Z</time>
      </trkpt>
      <trkpt lat="39.029445" lon="-0.303015">
        <ele>222.973</ele>
        <time>2020-02-08T07:58:58.802Z</time>
      </trkpt>
      <trkpt lat="39.029445" lon="-0.303015">
        <ele>222.973</ele>
        <time>2020-02-08T07:58:59.802Z</time>
      </trkpt>
      <trkpt lat="39.02945" lon="-0.30308667">
        <ele>223.973</ele>
        <time>2020-02-08T07:59:00.802Z</time>
      </trkpt>
      <trkpt lat="39.02945" lon="-0.30308667">
        <ele>223.973</ele>
        <time>2020-02-08T07:59:01.802Z</time>
      </trkpt>
      <trkpt lat="39.02945333" lon="-0.30315833">
        <ele>223.973</ele>
        <time>2020-02-08T07:59:02.802Z</time>
      </trkpt>
      <trkpt lat="39.02945333" lon="-0.30315833">
        <ele>223.973</ele>
        <time>2020-02-08T07:59:03.802Z</time>
      </trkpt>
      <trkpt lat="39.02944667" lon="-0.30322333">
        <ele>224.973</ele>
        <time>2020-02-08T07:59:04.802Z</time>
      </trkpt>
      <trkpt lat="39.02944667" lon="-0.30322333">
        <ele>224.973</ele>
        <time>2020-02-08T07:59:05.802Z</time>
      </trkpt>
      <trkpt lat="39.029445" lon="-0.303285">
        <ele>224.973</ele>
        <time>2020-02-08T07:59:06.802Z</time>
      </trkpt>
      <trkpt lat="39.029445" lon="-0.303285">
        <ele>224.973</ele>
        <time>2020-02-08T07:59:07.802Z</time>
      </trkpt>
      <trkpt lat="39.02943667" lon="-0.30334667">
        <ele>225.973</ele>
        <time>2020-02-08T07:59:08.802Z</time>
      </trkpt>
      <trkpt lat="39.02943667" lon="-0.30334667">
        <ele>225.973</ele>
        <time>2020-02-08T07:59:09.802Z</time>
      </trkpt>
      <trkpt lat="39.02942667" lon="-0.303415">
        <ele>225.973</ele>
        <time>2020-02-08T07:59:10.802Z</time>
      </trkpt>
      <trkpt lat="39.02942667" lon="-0.303415">
        <ele>225.973</ele>
        <time>2020-02-08T07:59:11.802Z</time>
      </trkpt>
      <trkpt lat="39.02941333" lon="-0.30348333">
        <ele>226.973</ele>
        <time>2020-02-08T07:59:12.802Z</time>
      </trkpt>
      <trkpt lat="39.02941333" lon="-0.30348333">
        <ele>226.973</ele>
        <time>2020-02-08T07:59:13.802Z</time>
      </trkpt>
      <trkpt lat="39.02939167" lon="-0.30354667">
        <ele>226.973</ele>
        <time>2020-02-08T07:59:14.802Z</time>
      </trkpt>
      <trkpt lat="39.02939167" lon="-0.30354667">
        <ele>227.973</ele>
        <time>2020-02-08T07:59:15.802Z</time>
      </trkpt>
      <trkpt lat="39.02937" lon="-0.30360833">
        <ele>227.973</ele>
        <time>2020-02-08T07:59:16.802Z</time>
      </trkpt>
      <trkpt lat="39.02937" lon="-0.30360833">
        <ele>227.973</ele>
        <time>2020-02-08T07:59:17.802Z</time>
      </trkpt>
      <trkpt lat="39.02934667" lon="-0.30367">
        <ele>227.973</ele>
        <time>2020-02-08T07:59:18.802Z</time>
      </trkpt>
      <trkpt lat="39.02934667" lon="-0.30367">
        <ele>228.973</ele>
        <time>2020-02-08T07:59:19.802Z</time>
      </trkpt>
      <trkpt lat="39.02931833" lon="-0.30373">
        <ele>228.973</ele>
        <time>2020-02-08T07:59:20.802Z</time>
      </trkpt>
      <trkpt lat="39.02931833" lon="-0.30373">
        <ele>228.973</ele>
        <time>2020-02-08T07:59:21.802Z</time>
      </trkpt>
      <trkpt lat="39.029285" lon="-0.30378667">
        <ele>228.973</ele>
        <time>2020-02-08T07:59:22.802Z</time>
      </trkpt>
      <trkpt lat="39.029285" lon="-0.30378667">
        <ele>229.973</ele>
        <time>2020-02-08T07:59:23.802Z</time>
      </trkpt>
      <trkpt lat="39.02925" lon="-0.30383833">
        <ele>229.973</ele>
        <time>2020-02-08T07:59:24.802Z</time>
      </trkpt>
      <trkpt lat="39.02925" lon="-0.30383833">
        <ele>229.973</ele>
        <time>2020-02-08T07:59:25.802Z</time>
      </trkpt>
      <trkpt lat="39.02921333" lon="-0.30389167">
        <ele>229.973</ele>
        <time>2020-02-08T07:59:26.802Z</time>
      </trkpt>
      <trkpt lat="39.02921333" lon="-0.30389167">
        <ele>230.973</ele>
        <time>2020-02-08T07:59:27.802Z</time>
      </trkpt>
      <trkpt lat="39.02917833" lon="-0.30395">
        <ele>230.973</ele>
        <time>2020-02-08T07:59:28.802Z</time>
      </trkpt>
      <trkpt lat="39.02917833" lon="-0.30395">
        <ele>230.973</ele>
        <time>2020-02-08T07:59:29.802Z</time>
      </trkpt>
      <trkpt lat="39.02914167" lon="-0.304">
        <ele>230.973</ele>
        <time>2020-02-08T07:59:30.802Z</time>
      </trkpt>
      <trkpt lat="39.02914167" lon="-0.304">
        <ele>231.973</ele>
        <time>2020-02-08T07:59:31.802Z</time>
      </trkpt>
      <trkpt lat="39.0291" lon="-0.30405">
        <ele>231.973</ele>
        <time>2020-02-08T07:59:32.802Z</time>
      </trkpt>
      <trkpt lat="39.0291" lon="-0.30405">
        <ele>231.973</ele>
        <time>2020-02-08T07:59:33.802Z</time>
      </trkpt>
      <trkpt lat="39.02906167" lon="-0.304105">
        <ele>231.973</ele>
        <time>2020-02-08T07:59:34.802Z</time>
      </trkpt>
      <trkpt lat="39.02906167" lon="-0.304105">
        <ele>232.973</ele>
        <time>2020-02-08T07:59:35.802Z</time>
      </trkpt>
      <trkpt lat="39.02903167" lon="-0.304165">
        <ele>232.973</ele>
        <time>2020-02-08T07:59:36.802Z</time>
      </trkpt>
      <trkpt lat="39.02903167" lon="-0.304165">
        <ele>232.973</ele>
        <time>2020-02-08T07:59:37.802Z</time>
      </trkpt>
      <trkpt lat="39.02901" lon="-0.30424167">
        <ele>232.973</ele>
        <time>2020-02-08T07:59:38.802Z</time>
      </trkpt>
      <trkpt lat="39.02901" lon="-0.30424167">
        <ele>232.973</ele>
        <time>2020-02-08T07:59:39.802Z</time>
      </trkpt>
      <trkpt lat="39.028995" lon="-0.30432167">
        <ele>232.973</ele>
        <time>2020-02-08T07:59:40.802Z</time>
      </trkpt>
      <trkpt lat="39.02898833" lon="-0.30435833">
        <ele>233.973</ele>
        <time>2020-02-08T07:59:41.802Z</time>
      </trkpt>
      <trkpt lat="39.02898833" lon="-0.30435833">
        <ele>233.973</ele>
        <time>2020-02-08T07:59:42.802Z</time>
      </trkpt>
      <trkpt lat="39.02898833" lon="-0.304445">
        <ele>233.973</ele>
        <time>2020-02-08T07:59:43.802Z</time>
      </trkpt>
      <trkpt lat="39.02898833" lon="-0.304445">
        <ele>233.973</ele>
        <time>2020-02-08T07:59:44.802Z</time>
      </trkpt>
      <trkpt lat="39.028995" lon="-0.30452167">
        <ele>233.973</ele>
        <time>2020-02-08T07:59:45.802Z</time>
      </trkpt>
      <trkpt lat="39.028995" lon="-0.30452167">
        <ele>234.973</ele>
        <time>2020-02-08T07:59:46.802Z</time>
      </trkpt>
      <trkpt lat="39.029" lon="-0.304595">
        <ele>234.973</ele>
        <time>2020-02-08T07:59:47.802Z</time>
      </trkpt>
      <trkpt lat="39.029" lon="-0.304595">
        <ele>234.973</ele>
        <time>2020-02-08T07:59:48.802Z</time>
      </trkpt>
      <trkpt lat="39.02900833" lon="-0.30467">
        <ele>234.973</ele>
        <time>2020-02-08T07:59:49.802Z</time>
      </trkpt>
      <trkpt lat="39.02901167" lon="-0.30470333">
        <ele>234.973</ele>
        <time>2020-02-08T07:59:50.802Z</time>
      </trkpt>
      <trkpt lat="39.02901167" lon="-0.30470333">
        <ele>234.973</ele>
        <time>2020-02-08T07:59:51.802Z</time>
      </trkpt>
      <trkpt lat="39.02901333" lon="-0.30478167">
        <ele>234.973</ele>
        <time>2020-02-08T07:59:52.802Z</time>
      </trkpt>
      <trkpt lat="39.02901333" lon="-0.30478167">
        <ele>234.973</ele>
        <time>2020-02-08T07:59:53.802Z</time>
      </trkpt>
      <trkpt lat="39.02901" lon="-0.30486">
        <ele>234.973</ele>
        <time>2020-02-08T07:59:54.802Z</time>
      </trkpt>
      <trkpt lat="39.02901" lon="-0.30486">
        <ele>234.973</ele>
        <time>2020-02-08T07:59:55.802Z</time>
      </trkpt>
      <trkpt lat="39.02899333" lon="-0.30493">
        <ele>235.973</ele>
        <time>2020-02-08T07:59:56.802Z</time>
      </trkpt>
      <trkpt lat="39.02899333" lon="-0.30493">
        <ele>235.973</ele>
        <time>2020-02-08T07:59:57.802Z</time>
      </trkpt>
      <trkpt lat="39.02896167" lon="-0.30499">
        <ele>235.973</ele>
        <time>2020-02-08T07:59:58.802Z</time>
      </trkpt>
      <trkpt lat="39.02896167" lon="-0.30499">
        <ele>235.973</ele>
        <time>2020-02-08T07:59:59.802Z</time>
      </trkpt>
      <trkpt lat="39.02891" lon="-0.30501167">
        <ele>236.973</ele>
        <time>2020-02-08T08:00:00.802Z</time>
      </trkpt>
      <trkpt lat="39.02891" lon="-0.30501167">
        <ele>236.973</ele>
        <time>2020-02-08T08:00:01.802Z</time>
      </trkpt>
      <trkpt lat="39.02886167" lon="-0.30500333">
        <ele>236.973</ele>
        <time>2020-02-08T08:00:02.802Z</time>
      </trkpt>
      <trkpt lat="39.02886167" lon="-0.30500333">
        <ele>236.973</ele>
        <time>2020-02-08T08:00:03.802Z</time>
      </trkpt>
      <trkpt lat="39.02882" lon="-0.304955">
        <ele>237.973</ele>
        <time>2020-02-08T08:00:04.802Z</time>
      </trkpt>
      <trkpt lat="39.028805" lon="-0.30492">
        <ele>237.973</ele>
        <time>2020-02-08T08:00:05.802Z</time>
      </trkpt>
      <trkpt lat="39.02879" lon="-0.30488333">
        <ele>238.973</ele>
        <time>2020-02-08T08:00:06.802Z</time>
      </trkpt>
      <trkpt lat="39.02879" lon="-0.30488333">
        <ele>238.973</ele>
        <time>2020-02-08T08:00:07.802Z</time>
      </trkpt>
      <trkpt lat="39.02877333" lon="-0.304805">
        <ele>238.973</ele>
        <time>2020-02-08T08:00:08.802Z</time>
      </trkpt>
      <trkpt lat="39.02877333" lon="-0.304805">
        <ele>238.973</ele>
        <time>2020-02-08T08:00:09.802Z</time>
      </trkpt>
      <trkpt lat="39.02876167" lon="-0.30473">
        <ele>239.973</ele>
        <time>2020-02-08T08:00:10.802Z</time>
      </trkpt>
      <trkpt lat="39.02875667" lon="-0.30469167">
        <ele>239.973</ele>
        <time>2020-02-08T08:00:11.802Z</time>
      </trkpt>
      <trkpt lat="39.02875" lon="-0.304655">
        <ele>239.973</ele>
        <time>2020-02-08T08:00:12.802Z</time>
      </trkpt>
      <trkpt lat="39.02875" lon="-0.304655">
        <ele>240.973</ele>
        <time>2020-02-08T08:00:13.802Z</time>
      </trkpt>
      <trkpt lat="39.028735" lon="-0.30457833">
        <ele>240.973</ele>
        <time>2020-02-08T08:00:14.802Z</time>
      </trkpt>
      <trkpt lat="39.028735" lon="-0.30457833">
        <ele>240.973</ele>
        <time>2020-02-08T08:00:15.802Z</time>
      </trkpt>
      <trkpt lat="39.02872667" lon="-0.304505">
        <ele>240.973</ele>
        <time>2020-02-08T08:00:16.802Z</time>
      </trkpt>
      <trkpt lat="39.02872667" lon="-0.304505">
        <ele>241.973</ele>
        <time>2020-02-08T08:00:17.802Z</time>
      </trkpt>
      <trkpt lat="39.02872333" lon="-0.30443">
        <ele>241.973</ele>
        <time>2020-02-08T08:00:18.802Z</time>
      </trkpt>
      <trkpt lat="39.02872333" lon="-0.30443">
        <ele>241.973</ele>
        <time>2020-02-08T08:00:19.802Z</time>
      </trkpt>
      <trkpt lat="39.02873" lon="-0.30435167">
        <ele>241.973</ele>
        <time>2020-02-08T08:00:20.802Z</time>
      </trkpt>
      <trkpt lat="39.02873" lon="-0.30435167">
        <ele>242.973</ele>
        <time>2020-02-08T08:00:21.802Z</time>
      </trkpt>
      <trkpt lat="39.02873833" lon="-0.30427">
        <ele>242.973</ele>
        <time>2020-02-08T08:00:22.802Z</time>
      </trkpt>
      <trkpt lat="39.02873833" lon="-0.30427">
        <ele>242.973</ele>
        <time>2020-02-08T08:00:23.802Z</time>
      </trkpt>
      <trkpt lat="39.02875833" lon="-0.30418667">
        <ele>242.973</ele>
        <time>2020-02-08T08:00:24.802Z</time>
      </trkpt>
      <trkpt lat="39.02875833" lon="-0.30418667">
        <ele>243.973</ele>
        <time>2020-02-08T08:00:25.802Z</time>
      </trkpt>
      <trkpt lat="39.02878167" lon="-0.304105">
        <ele>243.973</ele>
        <time>2020-02-08T08:00:26.802Z</time>
      </trkpt>
      <trkpt lat="39.02878167" lon="-0.304105">
        <ele>243.973</ele>
        <time>2020-02-08T08:00:27.802Z</time>
      </trkpt>
      <trkpt lat="39.02881167" lon="-0.30402667">
        <ele>243.973</ele>
        <time>2020-02-08T08:00:28.802Z</time>
      </trkpt>
      <trkpt lat="39.02882667" lon="-0.30399">
        <ele>244.973</ele>
        <time>2020-02-08T08:00:29.802Z</time>
      </trkpt>
      <trkpt lat="39.02882667" lon="-0.30399">
        <ele>244.973</ele>
        <time>2020-02-08T08:00:30.802Z</time>
      </trkpt>
      <trkpt lat="39.02886" lon="-0.30392">
        <ele>244.973</ele>
        <time>2020-02-08T08:00:31.802Z</time>
      </trkpt>
      <trkpt lat="39.02886" lon="-0.30392">
        <ele>244.973</ele>
        <time>2020-02-08T08:00:32.802Z</time>
      </trkpt>
      <trkpt lat="39.02889167" lon="-0.30385333">
        <ele>244.973</ele>
        <time>2020-02-08T08:00:33.802Z</time>
      </trkpt>
      <trkpt lat="39.02889167" lon="-0.30385333">
        <ele>244.973</ele>
        <time>2020-02-08T08:00:34.802Z</time>
      </trkpt>
      <trkpt lat="39.02891167" lon="-0.30378333">
        <ele>245.973</ele>
        <time>2020-02-08T08:00:35.802Z</time>
      </trkpt>
      <trkpt lat="39.02891833" lon="-0.30374333">
        <ele>245.973</ele>
        <time>2020-02-08T08:00:36.802Z</time>
      </trkpt>
      <trkpt lat="39.02891833" lon="-0.30374333">
        <ele>245.973</ele>
        <time>2020-02-08T08:00:37.802Z</time>
      </trkpt>
      <trkpt lat="39.02891833" lon="-0.30366833">
        <ele>245.973</ele>
        <time>2020-02-08T08:00:38.802Z</time>
      </trkpt>
      <trkpt lat="39.028915" lon="-0.30363">
        <ele>245.973</ele>
        <time>2020-02-08T08:00:39.802Z</time>
      </trkpt>
      <trkpt lat="39.028915" lon="-0.30363">
        <ele>245.973</ele>
        <time>2020-02-08T08:00:40.802Z</time>
      </trkpt>
      <trkpt lat="39.0289" lon="-0.30355667">
        <ele>245.973</ele>
        <time>2020-02-08T08:00:41.802Z</time>
      </trkpt>
      <trkpt lat="39.0289" lon="-0.30355667">
        <ele>246.973</ele>
        <time>2020-02-08T08:00:42.802Z</time>
      </trkpt>
      <trkpt lat="39.02887667" lon="-0.30348667">
        <ele>246.973</ele>
        <time>2020-02-08T08:00:43.802Z</time>
      </trkpt>
      <trkpt lat="39.028865" lon="-0.30345167">
        <ele>246.973</ele>
        <time>2020-02-08T08:00:44.802Z</time>
      </trkpt>
      <trkpt lat="39.028865" lon="-0.30345167">
        <ele>246.973</ele>
        <time>2020-02-08T08:00:45.802Z</time>
      </trkpt>
      <trkpt lat="39.02884167" lon="-0.30338333">
        <ele>246.973</ele>
        <time>2020-02-08T08:00:46.802Z</time>
      </trkpt>
      <trkpt lat="39.02884167" lon="-0.30338333">
        <ele>246.973</ele>
        <time>2020-02-08T08:00:47.802Z</time>
      </trkpt>
      <trkpt lat="39.02882" lon="-0.30331333">
        <ele>247.973</ele>
        <time>2020-02-08T08:00:48.802Z</time>
      </trkpt>
      <trkpt lat="39.02882" lon="-0.30331333">
        <ele>247.973</ele>
        <time>2020-02-08T08:00:49.802Z</time>
      </trkpt>
      <trkpt lat="39.02880667" lon="-0.30324">
        <ele>247.973</ele>
        <time>2020-02-08T08:00:50.802Z</time>
      </trkpt>
      <trkpt lat="39.02880667" lon="-0.30324">
        <ele>247.973</ele>
        <time>2020-02-08T08:00:51.802Z</time>
      </trkpt>
      <trkpt lat="39.028795" lon="-0.303165">
        <ele>248.973</ele>
        <time>2020-02-08T08:00:52.802Z</time>
      </trkpt>
      <trkpt lat="39.028795" lon="-0.303165">
        <ele>248.973</ele>
        <time>2020-02-08T08:00:53.802Z</time>
      </trkpt>
      <trkpt lat="39.02878" lon="-0.30309167">
        <ele>248.973</ele>
        <time>2020-02-08T08:00:54.802Z</time>
      </trkpt>
      <trkpt lat="39.02878" lon="-0.30309167">
        <ele>248.973</ele>
        <time>2020-02-08T08:00:55.802Z</time>
      </trkpt>
      <trkpt lat="39.02877167" lon="-0.30301667">
        <ele>248.973</ele>
        <time>2020-02-08T08:00:56.802Z</time>
      </trkpt>
      <trkpt lat="39.02877167" lon="-0.30301667">
        <ele>249.973</ele>
        <time>2020-02-08T08:00:57.802Z</time>
      </trkpt>
      <trkpt lat="39.02876333" lon="-0.30293833">
        <ele>249.973</ele>
        <time>2020-02-08T08:00:58.802Z</time>
      </trkpt>
      <trkpt lat="39.02876333" lon="-0.30293833">
        <ele>249.973</ele>
        <time>2020-02-08T08:00:59.802Z</time>
      </trkpt>
      <trkpt lat="39.02876333" lon="-0.30286167">
        <ele>249.973</ele>
        <time>2020-02-08T08:01:00.802Z</time>
      </trkpt>
      <trkpt lat="39.02876333" lon="-0.30282333">
        <ele>249.973</ele>
        <time>2020-02-08T08:01:01.802Z</time>
      </trkpt>
      <trkpt lat="39.02876333" lon="-0.30282333">
        <ele>249.973</ele>
        <time>2020-02-08T08:01:02.802Z</time>
      </trkpt>
      <trkpt lat="39.028755" lon="-0.30275167">
        <ele>250.973</ele>
        <time>2020-02-08T08:01:03.802Z</time>
      </trkpt>
      <trkpt lat="39.028755" lon="-0.30275167">
        <ele>250.973</ele>
        <time>2020-02-08T08:01:04.802Z</time>
      </trkpt>
      <trkpt lat="39.02874167" lon="-0.302685">
        <ele>250.973</ele>
        <time>2020-02-08T08:01:05.802Z</time>
      </trkpt>
      <trkpt lat="39.02873167" lon="-0.302655">
        <ele>250.973</ele>
        <time>2020-02-08T08:01:06.802Z</time>
      </trkpt>
      <trkpt lat="39.02873167" lon="-0.302655">
        <ele>250.973</ele>
        <time>2020-02-08T08:01:07.802Z</time>
      </trkpt>
      <trkpt lat="39.02869333" lon="-0.30261">
        <ele>250.973</ele>
        <time>2020-02-08T08:01:08.802Z</time>
      </trkpt>
      <trkpt lat="39.02867667" lon="-0.30259833">
        <ele>250.973</ele>
        <time>2020-02-08T08:01:09.802Z</time>
      </trkpt>
      <trkpt lat="39.02867667" lon="-0.30259833">
        <ele>250.973</ele>
        <time>2020-02-08T08:01:10.802Z</time>
      </trkpt>
      <trkpt lat="39.02862667" lon="-0.3026">
        <ele>250.973</ele>
        <time>2020-02-08T08:01:11.802Z</time>
      </trkpt>
      <trkpt lat="39.02862667" lon="-0.3026">
        <ele>251.973</ele>
        <time>2020-02-08T08:01:12.802Z</time>
      </trkpt>
      <trkpt lat="39.02859167" lon="-0.30264667">
        <ele>251.973</ele>
        <time>2020-02-08T08:01:13.802Z</time>
      </trkpt>
      <trkpt lat="39.02858667" lon="-0.30267833">
        <ele>251.973</ele>
        <time>2020-02-08T08:01:14.802Z</time>
      </trkpt>
      <trkpt lat="39.02858667" lon="-0.30267833">
        <ele>251.973</ele>
        <time>2020-02-08T08:01:15.802Z</time>
      </trkpt>
      <trkpt lat="39.02859333" lon="-0.302755">
        <ele>252.973</ele>
        <time>2020-02-08T08:01:16.802Z</time>
      </trkpt>
      <trkpt lat="39.02859333" lon="-0.302755">
        <ele>252.973</ele>
        <time>2020-02-08T08:01:17.802Z</time>
      </trkpt>
      <trkpt lat="39.02859833" lon="-0.30282667">
        <ele>252.973</ele>
        <time>2020-02-08T08:01:18.802Z</time>
      </trkpt>
      <trkpt lat="39.02859833" lon="-0.30282667">
        <ele>253.973</ele>
        <time>2020-02-08T08:01:19.802Z</time>
      </trkpt>
      <trkpt lat="39.0286" lon="-0.3029">
        <ele>253.973</ele>
        <time>2020-02-08T08:01:20.802Z</time>
      </trkpt>
      <trkpt lat="39.02860167" lon="-0.30293833">
        <ele>254.973</ele>
        <time>2020-02-08T08:01:21.802Z</time>
      </trkpt>
      <trkpt lat="39.02860167" lon="-0.30293833">
        <ele>254.973</ele>
        <time>2020-02-08T08:01:22.802Z</time>
      </trkpt>
      <trkpt lat="39.02860333" lon="-0.30302833">
        <ele>254.973</ele>
        <time>2020-02-08T08:01:23.802Z</time>
      </trkpt>
      <trkpt lat="39.028605" lon="-0.30307">
        <ele>254.973</ele>
        <time>2020-02-08T08:01:24.802Z</time>
      </trkpt>
      <trkpt lat="39.02860333" lon="-0.30311">
        <ele>255.973</ele>
        <time>2020-02-08T08:01:25.802Z</time>
      </trkpt>
      <trkpt lat="39.02860333" lon="-0.30311">
        <ele>255.973</ele>
        <time>2020-02-08T08:01:26.802Z</time>
      </trkpt>
      <trkpt lat="39.02860167" lon="-0.30318667">
        <ele>255.973</ele>
        <time>2020-02-08T08:01:27.802Z</time>
      </trkpt>
      <trkpt lat="39.02860167" lon="-0.30318667">
        <ele>255.973</ele>
        <time>2020-02-08T08:01:28.802Z</time>
      </trkpt>
      <trkpt lat="39.02859167" lon="-0.30326">
        <ele>256.973</ele>
        <time>2020-02-08T08:01:29.802Z</time>
      </trkpt>
      <trkpt lat="39.02859167" lon="-0.30326">
        <ele>256.973</ele>
        <time>2020-02-08T08:01:30.802Z</time>
      </trkpt>
      <trkpt lat="39.028585" lon="-0.30333667">
        <ele>256.973</ele>
        <time>2020-02-08T08:01:31.802Z</time>
      </trkpt>
      <trkpt lat="39.02858" lon="-0.30337333">
        <ele>256.973</ele>
        <time>2020-02-08T08:01:32.802Z</time>
      </trkpt>
      <trkpt lat="39.02858" lon="-0.30337333">
        <ele>257.973</ele>
        <time>2020-02-08T08:01:33.802Z</time>
      </trkpt>
      <trkpt lat="39.02857" lon="-0.30344333">
        <ele>257.973</ele>
        <time>2020-02-08T08:01:34.802Z</time>
      </trkpt>
      <trkpt lat="39.028565" lon="-0.30347667">
        <ele>257.973</ele>
        <time>2020-02-08T08:01:35.802Z</time>
      </trkpt>
      <trkpt lat="39.02855833" lon="-0.30351167">
        <ele>257.973</ele>
        <time>2020-02-08T08:01:36.802Z</time>
      </trkpt>
      <trkpt lat="39.02855833" lon="-0.30351167">
        <ele>257.973</ele>
        <time>2020-02-08T08:01:37.802Z</time>
      </trkpt>
      <trkpt lat="39.02854333" lon="-0.30358333">
        <ele>257.973</ele>
        <time>2020-02-08T08:01:38.802Z</time>
      </trkpt>
      <trkpt lat="39.028535" lon="-0.30362167">
        <ele>257.973</ele>
        <time>2020-02-08T08:01:39.802Z</time>
      </trkpt>
      <trkpt lat="39.028535" lon="-0.30362167">
        <ele>257.973</ele>
        <time>2020-02-08T08:01:40.802Z</time>
      </trkpt>
      <trkpt lat="39.02852" lon="-0.303695">
        <ele>257.973</ele>
        <time>2020-02-08T08:01:41.802Z</time>
      </trkpt>
      <trkpt lat="39.02851167" lon="-0.30373">
        <ele>257.973</ele>
        <time>2020-02-08T08:01:42.802Z</time>
      </trkpt>
      <trkpt lat="39.02851167" lon="-0.30373">
        <ele>257.973</ele>
        <time>2020-02-08T08:01:43.802Z</time>
      </trkpt>
      <trkpt lat="39.02849833" lon="-0.30379667">
        <ele>258.973</ele>
        <time>2020-02-08T08:01:44.802Z</time>
      </trkpt>
      <trkpt lat="39.02849833" lon="-0.30379667">
        <ele>258.973</ele>
        <time>2020-02-08T08:01:45.802Z</time>
      </trkpt>
      <trkpt lat="39.02847333" lon="-0.30386667">
        <ele>258.973</ele>
        <time>2020-02-08T08:01:46.802Z</time>
      </trkpt>
      <trkpt lat="39.02847333" lon="-0.30386667">
        <ele>258.973</ele>
        <time>2020-02-08T08:01:47.802Z</time>
      </trkpt>
      <trkpt lat="39.02845333" lon="-0.30393833">
        <ele>258.973</ele>
        <time>2020-02-08T08:01:48.802Z</time>
      </trkpt>
      <trkpt lat="39.02845333" lon="-0.30393833">
        <ele>258.973</ele>
        <time>2020-02-08T08:01:49.802Z</time>
      </trkpt>
      <trkpt lat="39.02843667" lon="-0.30402">
        <ele>259.973</ele>
        <time>2020-02-08T08:01:50.802Z</time>
      </trkpt>
      <trkpt lat="39.02843667" lon="-0.30402">
        <ele>259.973</ele>
        <time>2020-02-08T08:01:51.802Z</time>
      </trkpt>
      <trkpt lat="39.02841667" lon="-0.3041">
        <ele>259.973</ele>
        <time>2020-02-08T08:01:52.802Z</time>
      </trkpt>
      <trkpt lat="39.02841667" lon="-0.3041">
        <ele>259.973</ele>
        <time>2020-02-08T08:01:53.802Z</time>
      </trkpt>
      <trkpt lat="39.02839667" lon="-0.304175">
        <ele>259.973</ele>
        <time>2020-02-08T08:01:54.802Z</time>
      </trkpt>
      <trkpt lat="39.02839667" lon="-0.304175">
        <ele>259.973</ele>
        <time>2020-02-08T08:01:55.802Z</time>
      </trkpt>
      <trkpt lat="39.02838" lon="-0.30425167">
        <ele>260.973</ele>
        <time>2020-02-08T08:01:56.802Z</time>
      </trkpt>
      <trkpt lat="39.02838" lon="-0.30425167">
        <ele>260.973</ele>
        <time>2020-02-08T08:01:57.802Z</time>
      </trkpt>
      <trkpt lat="39.028365" lon="-0.30432667">
        <ele>260.973</ele>
        <time>2020-02-08T08:01:58.802Z</time>
      </trkpt>
      <trkpt lat="39.028365" lon="-0.30432667">
        <ele>260.973</ele>
        <time>2020-02-08T08:01:59.802Z</time>
      </trkpt>
      <trkpt lat="39.02835" lon="-0.30440167">
        <ele>260.973</ele>
        <time>2020-02-08T08:02:00.802Z</time>
      </trkpt>
      <trkpt lat="39.02835" lon="-0.30440167">
        <ele>260.973</ele>
        <time>2020-02-08T08:02:01.802Z</time>
      </trkpt>
      <trkpt lat="39.02833833" lon="-0.30448167">
        <ele>261.973</ele>
        <time>2020-02-08T08:02:02.802Z</time>
      </trkpt>
      <trkpt lat="39.02833833" lon="-0.30448167">
        <ele>261.973</ele>
        <time>2020-02-08T08:02:03.802Z</time>
      </trkpt>
      <trkpt lat="39.02833" lon="-0.30456167">
        <ele>261.973</ele>
        <time>2020-02-08T08:02:04.802Z</time>
      </trkpt>
      <trkpt lat="39.02833" lon="-0.30456167">
        <ele>261.973</ele>
        <time>2020-02-08T08:02:05.802Z</time>
      </trkpt>
      <trkpt lat="39.02832333" lon="-0.304645">
        <ele>262.973</ele>
        <time>2020-02-08T08:02:06.802Z</time>
      </trkpt>
      <trkpt lat="39.02832333" lon="-0.304645">
        <ele>262.973</ele>
        <time>2020-02-08T08:02:07.802Z</time>
      </trkpt>
      <trkpt lat="39.02832167" lon="-0.30472833">
        <ele>262.973</ele>
        <time>2020-02-08T08:02:08.802Z</time>
      </trkpt>
      <trkpt lat="39.02832167" lon="-0.30472833">
        <ele>263.973</ele>
        <time>2020-02-08T08:02:09.802Z</time>
      </trkpt>
      <trkpt lat="39.02832167" lon="-0.30481167">
        <ele>263.973</ele>
        <time>2020-02-08T08:02:10.802Z</time>
      </trkpt>
      <trkpt lat="39.02832333" lon="-0.304855">
        <ele>263.973</ele>
        <time>2020-02-08T08:02:11.802Z</time>
      </trkpt>
      <trkpt lat="39.02832333" lon="-0.304855">
        <ele>263.973</ele>
        <time>2020-02-08T08:02:12.802Z</time>
      </trkpt>
      <trkpt lat="39.02832167" lon="-0.30493667">
        <ele>264.973</ele>
        <time>2020-02-08T08:02:13.802Z</time>
      </trkpt>
      <trkpt lat="39.02831833" lon="-0.30497667">
        <ele>264.973</ele>
        <time>2020-02-08T08:02:14.802Z</time>
      </trkpt>
      <trkpt lat="39.02831833" lon="-0.30497667">
        <ele>264.973</ele>
        <time>2020-02-08T08:02:15.802Z</time>
      </trkpt>
      <trkpt lat="39.02831167" lon="-0.305055">
        <ele>264.973</ele>
        <time>2020-02-08T08:02:16.802Z</time>
      </trkpt>
      <trkpt lat="39.02831167" lon="-0.305055">
        <ele>264.973</ele>
        <time>2020-02-08T08:02:17.802Z</time>
      </trkpt>
      <trkpt lat="39.02828667" lon="-0.305125">
        <ele>264.973</ele>
        <time>2020-02-08T08:02:18.802Z</time>
      </trkpt>
      <trkpt lat="39.02828667" lon="-0.305125">
        <ele>265.973</ele>
        <time>2020-02-08T08:02:19.802Z</time>
      </trkpt>
      <trkpt lat="39.028255" lon="-0.30517833">
        <ele>265.973</ele>
        <time>2020-02-08T08:02:20.802Z</time>
      </trkpt>
      <trkpt lat="39.028255" lon="-0.30517833">
        <ele>265.973</ele>
        <time>2020-02-08T08:02:21.802Z</time>
      </trkpt>
      <trkpt lat="39.02819833" lon="-0.30520833">
        <ele>265.973</ele>
        <time>2020-02-08T08:02:22.802Z</time>
      </trkpt>
      <trkpt lat="39.02819833" lon="-0.30520833">
        <ele>265.973</ele>
        <time>2020-02-08T08:02:23.802Z</time>
      </trkpt>
      <trkpt lat="39.02813833" lon="-0.30520333">
        <ele>265.973</ele>
        <time>2020-02-08T08:02:24.802Z</time>
      </trkpt>
      <trkpt lat="39.02813833" lon="-0.30520333">
        <ele>265.973</ele>
        <time>2020-02-08T08:02:25.802Z</time>
      </trkpt>
      <trkpt lat="39.02809167" lon="-0.30515167">
        <ele>265.973</ele>
        <time>2020-02-08T08:02:26.802Z</time>
      </trkpt>
      <trkpt lat="39.02807667" lon="-0.305115">
        <ele>266.973</ele>
        <time>2020-02-08T08:02:27.802Z</time>
      </trkpt>
      <trkpt lat="39.02807667" lon="-0.305115">
        <ele>266.973</ele>
        <time>2020-02-08T08:02:28.802Z</time>
      </trkpt>
      <trkpt lat="39.02806167" lon="-0.30503">
        <ele>267.973</ele>
        <time>2020-02-08T08:02:29.802Z</time>
      </trkpt>
      <trkpt lat="39.02805833" lon="-0.30499">
        <ele>267.973</ele>
        <time>2020-02-08T08:02:30.802Z</time>
      </trkpt>
      <trkpt lat="39.02805833" lon="-0.30499">
        <ele>267.973</ele>
        <time>2020-02-08T08:02:31.802Z</time>
      </trkpt>
      <trkpt lat="39.02805833" lon="-0.30490667">
        <ele>267.973</ele>
        <time>2020-02-08T08:02:32.802Z</time>
      </trkpt>
      <trkpt lat="39.02805833" lon="-0.30490667">
        <ele>269.973</ele>
        <time>2020-02-08T08:02:33.802Z</time>
      </trkpt>
      <trkpt lat="39.02806333" lon="-0.30482833">
        <ele>269.973</ele>
        <time>2020-02-08T08:02:34.802Z</time>
      </trkpt>
      <trkpt lat="39.02806333" lon="-0.30482833">
        <ele>269.973</ele>
        <time>2020-02-08T08:02:35.802Z</time>
      </trkpt>
      <trkpt lat="39.02806667" lon="-0.30475">
        <ele>269.973</ele>
        <time>2020-02-08T08:02:36.802Z</time>
      </trkpt>
      <trkpt lat="39.02806667" lon="-0.30475">
        <ele>270.973</ele>
        <time>2020-02-08T08:02:37.802Z</time>
      </trkpt>
      <trkpt lat="39.02807167" lon="-0.30467167">
        <ele>270.973</ele>
        <time>2020-02-08T08:02:38.802Z</time>
      </trkpt>
      <trkpt lat="39.02807" lon="-0.30463167">
        <ele>270.973</ele>
        <time>2020-02-08T08:02:39.802Z</time>
      </trkpt>
      <trkpt lat="39.02807" lon="-0.30463167">
        <ele>271.973</ele>
        <time>2020-02-08T08:02:40.802Z</time>
      </trkpt>
      <trkpt lat="39.02807" lon="-0.30455167">
        <ele>271.973</ele>
        <time>2020-02-08T08:02:41.802Z</time>
      </trkpt>
      <trkpt lat="39.02807" lon="-0.30451">
        <ele>271.973</ele>
        <time>2020-02-08T08:02:42.802Z</time>
      </trkpt>
      <trkpt lat="39.02807" lon="-0.30451">
        <ele>271.973</ele>
        <time>2020-02-08T08:02:43.802Z</time>
      </trkpt>
      <trkpt lat="39.02806833" lon="-0.30443333">
        <ele>272.973</ele>
        <time>2020-02-08T08:02:44.802Z</time>
      </trkpt>
      <trkpt lat="39.02806833" lon="-0.30443333">
        <ele>272.973</ele>
        <time>2020-02-08T08:02:45.802Z</time>
      </trkpt>
      <trkpt lat="39.02806167" lon="-0.30436">
        <ele>272.973</ele>
        <time>2020-02-08T08:02:46.802Z</time>
      </trkpt>
      <trkpt lat="39.02806167" lon="-0.30436">
        <ele>272.973</ele>
        <time>2020-02-08T08:02:47.802Z</time>
      </trkpt>
      <trkpt lat="39.02806" lon="-0.30429333">
        <ele>272.973</ele>
        <time>2020-02-08T08:02:48.802Z</time>
      </trkpt>
      <trkpt lat="39.02806" lon="-0.30429333">
        <ele>272.973</ele>
        <time>2020-02-08T08:02:49.802Z</time>
      </trkpt>
      <trkpt lat="39.02806167" lon="-0.30422833">
        <ele>272.973</ele>
        <time>2020-02-08T08:02:50.802Z</time>
      </trkpt>
      <trkpt lat="39.02806167" lon="-0.30422833">
        <ele>272.973</ele>
        <time>2020-02-08T08:02:51.802Z</time>
      </trkpt>
      <trkpt lat="39.02806667" lon="-0.30415333">
        <ele>272.973</ele>
        <time>2020-02-08T08:02:52.802Z</time>
      </trkpt>
      <trkpt lat="39.02806667" lon="-0.30415333">
        <ele>272.973</ele>
        <time>2020-02-08T08:02:53.802Z</time>
      </trkpt>
      <trkpt lat="39.02807667" lon="-0.30407167">
        <ele>272.973</ele>
        <time>2020-02-08T08:02:54.802Z</time>
      </trkpt>
      <trkpt lat="39.02808667" lon="-0.30403167">
        <ele>272.973</ele>
        <time>2020-02-08T08:02:55.802Z</time>
      </trkpt>
      <trkpt lat="39.02809333" lon="-0.30399167">
        <ele>272.973</ele>
        <time>2020-02-08T08:02:56.802Z</time>
      </trkpt>
      <trkpt lat="39.02809333" lon="-0.30399167">
        <ele>272.973</ele>
        <time>2020-02-08T08:02:57.802Z</time>
      </trkpt>
      <trkpt lat="39.02811" lon="-0.30391">
        <ele>273.973</ele>
        <time>2020-02-08T08:02:58.802Z</time>
      </trkpt>
      <trkpt lat="39.02811" lon="-0.30391">
        <ele>273.973</ele>
        <time>2020-02-08T08:02:59.802Z</time>
      </trkpt>
      <trkpt lat="39.02812667" lon="-0.30382833">
        <ele>273.973</ele>
        <time>2020-02-08T08:03:00.802Z</time>
      </trkpt>
      <trkpt lat="39.02812667" lon="-0.30382833">
        <ele>273.973</ele>
        <time>2020-02-08T08:03:01.802Z</time>
      </trkpt>
      <trkpt lat="39.02813833" lon="-0.303745">
        <ele>273.973</ele>
        <time>2020-02-08T08:03:02.802Z</time>
      </trkpt>
      <trkpt lat="39.028145" lon="-0.303705">
        <ele>273.973</ele>
        <time>2020-02-08T08:03:03.802Z</time>
      </trkpt>
      <trkpt lat="39.028145" lon="-0.303705">
        <ele>273.973</ele>
        <time>2020-02-08T08:03:04.802Z</time>
      </trkpt>
      <trkpt lat="39.02815333" lon="-0.30362667">
        <ele>273.973</ele>
        <time>2020-02-08T08:03:05.802Z</time>
      </trkpt>
      <trkpt lat="39.02815333" lon="-0.30362667">
        <ele>273.973</ele>
        <time>2020-02-08T08:03:06.802Z</time>
      </trkpt>
      <trkpt lat="39.02815833" lon="-0.30354167">
        <ele>273.973</ele>
        <time>2020-02-08T08:03:07.802Z</time>
      </trkpt>
      <trkpt lat="39.02816" lon="-0.30349833">
        <ele>273.973</ele>
        <time>2020-02-08T08:03:08.802Z</time>
      </trkpt>
      <trkpt lat="39.02816" lon="-0.30349833">
        <ele>274.973</ele>
        <time>2020-02-08T08:03:09.802Z</time>
      </trkpt>
      <trkpt lat="39.02815667" lon="-0.30341333">
        <ele>274.973</ele>
        <time>2020-02-08T08:03:10.802Z</time>
      </trkpt>
      <trkpt lat="39.02815667" lon="-0.30341333">
        <ele>274.973</ele>
        <time>2020-02-08T08:03:11.802Z</time>
      </trkpt>
      <trkpt lat="39.028145" lon="-0.30333167">
        <ele>274.973</ele>
        <time>2020-02-08T08:03:12.802Z</time>
      </trkpt>
      <trkpt lat="39.028145" lon="-0.30333167">
        <ele>274.973</ele>
        <time>2020-02-08T08:03:13.802Z</time>
      </trkpt>
      <trkpt lat="39.02814" lon="-0.30325">
        <ele>274.973</ele>
        <time>2020-02-08T08:03:14.802Z</time>
      </trkpt>
      <trkpt lat="39.02814" lon="-0.30325">
        <ele>274.973</ele>
        <time>2020-02-08T08:03:15.802Z</time>
      </trkpt>
      <trkpt lat="39.02812167" lon="-0.30317167">
        <ele>275.973</ele>
        <time>2020-02-08T08:03:16.802Z</time>
      </trkpt>
      <trkpt lat="39.02812167" lon="-0.30317167">
        <ele>275.973</ele>
        <time>2020-02-08T08:03:17.802Z</time>
      </trkpt>
      <trkpt lat="39.02810167" lon="-0.30309833">
        <ele>275.973</ele>
        <time>2020-02-08T08:03:18.802Z</time>
      </trkpt>
      <trkpt lat="39.02809" lon="-0.30306167">
        <ele>275.973</ele>
        <time>2020-02-08T08:03:19.802Z</time>
      </trkpt>
      <trkpt lat="39.02808" lon="-0.30302333">
        <ele>275.973</ele>
        <time>2020-02-08T08:03:20.802Z</time>
      </trkpt>
      <trkpt lat="39.02808" lon="-0.30302333">
        <ele>276.973</ele>
        <time>2020-02-08T08:03:21.802Z</time>
      </trkpt>
      <trkpt lat="39.02805833" lon="-0.302955">
        <ele>276.973</ele>
        <time>2020-02-08T08:03:22.802Z</time>
      </trkpt>
      <trkpt lat="39.028045" lon="-0.30292167">
        <ele>276.973</ele>
        <time>2020-02-08T08:03:23.802Z</time>
      </trkpt>
      <trkpt lat="39.028045" lon="-0.30292167">
        <ele>276.973</ele>
        <time>2020-02-08T08:03:24.802Z</time>
      </trkpt>
      <trkpt lat="39.02802" lon="-0.302855">
        <ele>276.973</ele>
        <time>2020-02-08T08:03:25.802Z</time>
      </trkpt>
      <trkpt lat="39.02800333" lon="-0.30282">
        <ele>277.973</ele>
        <time>2020-02-08T08:03:26.802Z</time>
      </trkpt>
      <trkpt lat="39.02798833" lon="-0.30278333">
        <ele>277.973</ele>
        <time>2020-02-08T08:03:27.802Z</time>
      </trkpt>
      <trkpt lat="39.02798833" lon="-0.30278333">
        <ele>277.973</ele>
        <time>2020-02-08T08:03:28.802Z</time>
      </trkpt>
      <trkpt lat="39.02796" lon="-0.30271833">
        <ele>277.973</ele>
        <time>2020-02-08T08:03:29.802Z</time>
      </trkpt>
      <trkpt lat="39.02796" lon="-0.30271833">
        <ele>277.973</ele>
        <time>2020-02-08T08:03:30.802Z</time>
      </trkpt>
      <trkpt lat="39.02792167" lon="-0.30266333">
        <ele>277.973</ele>
        <time>2020-02-08T08:03:31.802Z</time>
      </trkpt>
      <trkpt lat="39.02790167" lon="-0.30263667">
        <ele>278.973</ele>
        <time>2020-02-08T08:03:32.802Z</time>
      </trkpt>
      <trkpt lat="39.02790167" lon="-0.30263667">
        <ele>278.973</ele>
        <time>2020-02-08T08:03:33.802Z</time>
      </trkpt>
      <trkpt lat="39.027865" lon="-0.30260667">
        <ele>278.973</ele>
        <time>2020-02-08T08:03:34.802Z</time>
      </trkpt>
      <trkpt lat="39.027865" lon="-0.30260667">
        <ele>278.973</ele>
        <time>2020-02-08T08:03:35.802Z</time>
      </trkpt>
      <trkpt lat="39.02782167" lon="-0.30262">
        <ele>278.973</ele>
        <time>2020-02-08T08:03:36.802Z</time>
      </trkpt>
      <trkpt lat="39.02782167" lon="-0.30262">
        <ele>279.973</ele>
        <time>2020-02-08T08:03:37.802Z</time>
      </trkpt>
      <trkpt lat="39.02778667" lon="-0.302665">
        <ele>279.973</ele>
        <time>2020-02-08T08:03:38.802Z</time>
      </trkpt>
      <trkpt lat="39.02778667" lon="-0.302665">
        <ele>279.973</ele>
        <time>2020-02-08T08:03:39.802Z</time>
      </trkpt>
      <trkpt lat="39.02778667" lon="-0.30272667">
        <ele>279.973</ele>
        <time>2020-02-08T08:03:40.802Z</time>
      </trkpt>
      <trkpt lat="39.02778667" lon="-0.30272667">
        <ele>280.973</ele>
        <time>2020-02-08T08:03:41.802Z</time>
      </trkpt>
      <trkpt lat="39.027795" lon="-0.30276">
        <ele>280.973</ele>
        <time>2020-02-08T08:03:42.802Z</time>
      </trkpt>
      <trkpt lat="39.02783" lon="-0.30282">
        <ele>280.973</ele>
        <time>2020-02-08T08:03:43.802Z</time>
      </trkpt>
      <trkpt lat="39.02785" lon="-0.30285">
        <ele>280.973</ele>
        <time>2020-02-08T08:03:44.802Z</time>
      </trkpt>
      <trkpt lat="39.02785" lon="-0.30285">
        <ele>281.973</ele>
        <time>2020-02-08T08:03:45.802Z</time>
      </trkpt>
      <trkpt lat="39.02788667" lon="-0.30291167">
        <ele>281.973</ele>
        <time>2020-02-08T08:03:46.802Z</time>
      </trkpt>
      <trkpt lat="39.02788667" lon="-0.30291167">
        <ele>281.973</ele>
        <time>2020-02-08T08:03:47.802Z</time>
      </trkpt>
      <trkpt lat="39.02791833" lon="-0.30297833">
        <ele>281.973</ele>
        <time>2020-02-08T08:03:48.802Z</time>
      </trkpt>
      <trkpt lat="39.02791833" lon="-0.30297833">
        <ele>281.973</ele>
        <time>2020-02-08T08:03:49.802Z</time>
      </trkpt>
      <trkpt lat="39.02793667" lon="-0.30304667">
        <ele>282.973</ele>
        <time>2020-02-08T08:03:50.802Z</time>
      </trkpt>
      <trkpt lat="39.02793667" lon="-0.30304667">
        <ele>282.973</ele>
        <time>2020-02-08T08:03:51.802Z</time>
      </trkpt>
      <trkpt lat="39.02794167" lon="-0.30311833">
        <ele>282.973</ele>
        <time>2020-02-08T08:03:52.802Z</time>
      </trkpt>
      <trkpt lat="39.02794167" lon="-0.30311833">
        <ele>282.973</ele>
        <time>2020-02-08T08:03:53.802Z</time>
      </trkpt>
      <trkpt lat="39.02795333" lon="-0.30319">
        <ele>283.973</ele>
        <time>2020-02-08T08:03:54.802Z</time>
      </trkpt>
      <trkpt lat="39.02795333" lon="-0.30319">
        <ele>283.973</ele>
        <time>2020-02-08T08:03:55.802Z</time>
      </trkpt>
      <trkpt lat="39.02796167" lon="-0.30327167">
        <ele>283.973</ele>
        <time>2020-02-08T08:03:56.802Z</time>
      </trkpt>
      <trkpt lat="39.02796167" lon="-0.30327167">
        <ele>283.973</ele>
        <time>2020-02-08T08:03:57.802Z</time>
      </trkpt>
      <trkpt lat="39.02795667" lon="-0.30335333">
        <ele>283.973</ele>
        <time>2020-02-08T08:03:58.802Z</time>
      </trkpt>
      <trkpt lat="39.02795667" lon="-0.30335333">
        <ele>284.973</ele>
        <time>2020-02-08T08:03:59.802Z</time>
      </trkpt>
      <trkpt lat="39.02794833" lon="-0.30342833">
        <ele>284.973</ele>
        <time>2020-02-08T08:04:00.802Z</time>
      </trkpt>
      <trkpt lat="39.02794833" lon="-0.30342833">
        <ele>285.973</ele>
        <time>2020-02-08T08:04:01.802Z</time>
      </trkpt>
      <trkpt lat="39.027935" lon="-0.30350167">
        <ele>285.973</ele>
        <time>2020-02-08T08:04:02.802Z</time>
      </trkpt>
      <trkpt lat="39.027935" lon="-0.30350167">
        <ele>285.973</ele>
        <time>2020-02-08T08:04:03.802Z</time>
      </trkpt>
      <trkpt lat="39.02791167" lon="-0.30357333">
        <ele>285.973</ele>
        <time>2020-02-08T08:04:04.802Z</time>
      </trkpt>
      <trkpt lat="39.02791167" lon="-0.30357333">
        <ele>285.973</ele>
        <time>2020-02-08T08:04:05.802Z</time>
      </trkpt>
      <trkpt lat="39.02788833" lon="-0.30364833">
        <ele>285.973</ele>
        <time>2020-02-08T08:04:06.802Z</time>
      </trkpt>
      <trkpt lat="39.02788833" lon="-0.30364833">
        <ele>285.973</ele>
        <time>2020-02-08T08:04:07.802Z</time>
      </trkpt>
      <trkpt lat="39.02786333" lon="-0.30371667">
        <ele>286.973</ele>
        <time>2020-02-08T08:04:08.802Z</time>
      </trkpt>
      <trkpt lat="39.02786333" lon="-0.30371667">
        <ele>286.973</ele>
        <time>2020-02-08T08:04:09.802Z</time>
      </trkpt>
      <trkpt lat="39.02783333" lon="-0.30378333">
        <ele>286.973</ele>
        <time>2020-02-08T08:04:10.802Z</time>
      </trkpt>
      <trkpt lat="39.02783333" lon="-0.30378333">
        <ele>286.973</ele>
        <time>2020-02-08T08:04:11.802Z</time>
      </trkpt>
      <trkpt lat="39.027805" lon="-0.30385667">
        <ele>287.973</ele>
        <time>2020-02-08T08:04:12.802Z</time>
      </trkpt>
      <trkpt lat="39.027805" lon="-0.30385667">
        <ele>287.973</ele>
        <time>2020-02-08T08:04:13.802Z</time>
      </trkpt>
      <trkpt lat="39.027775" lon="-0.30393">
        <ele>287.973</ele>
        <time>2020-02-08T08:04:14.802Z</time>
      </trkpt>
      <trkpt lat="39.027775" lon="-0.30393">
        <ele>287.973</ele>
        <time>2020-02-08T08:04:15.802Z</time>
      </trkpt>
      <trkpt lat="39.02774833" lon="-0.304005">
        <ele>288.973</ele>
        <time>2020-02-08T08:04:16.802Z</time>
      </trkpt>
      <trkpt lat="39.02774" lon="-0.30404167">
        <ele>288.973</ele>
        <time>2020-02-08T08:04:17.802Z</time>
      </trkpt>
      <trkpt lat="39.02774" lon="-0.30404167">
        <ele>288.973</ele>
        <time>2020-02-08T08:04:18.802Z</time>
      </trkpt>
      <trkpt lat="39.02772" lon="-0.30412333">
        <ele>288.973</ele>
        <time>2020-02-08T08:04:19.802Z</time>
      </trkpt>
      <trkpt lat="39.02771" lon="-0.30416">
        <ele>288.973</ele>
        <time>2020-02-08T08:04:20.802Z</time>
      </trkpt>
      <trkpt lat="39.02771" lon="-0.30416">
        <ele>288.973</ele>
        <time>2020-02-08T08:04:21.802Z</time>
      </trkpt>
      <trkpt lat="39.02770167" lon="-0.30423833">
        <ele>289.973</ele>
        <time>2020-02-08T08:04:22.802Z</time>
      </trkpt>
      <trkpt lat="39.02769167" lon="-0.30428">
        <ele>289.973</ele>
        <time>2020-02-08T08:04:23.802Z</time>
      </trkpt>
      <trkpt lat="39.02769167" lon="-0.30428">
        <ele>289.973</ele>
        <time>2020-02-08T08:04:24.802Z</time>
      </trkpt>
      <trkpt lat="39.027685" lon="-0.30436">
        <ele>289.973</ele>
        <time>2020-02-08T08:04:25.802Z</time>
      </trkpt>
      <trkpt lat="39.02768167" lon="-0.30440667">
        <ele>290.973</ele>
        <time>2020-02-08T08:04:26.802Z</time>
      </trkpt>
      <trkpt lat="39.02768167" lon="-0.30440667">
        <ele>290.973</ele>
        <time>2020-02-08T08:04:27.802Z</time>
      </trkpt>
      <trkpt lat="39.027665" lon="-0.30449333">
        <ele>290.973</ele>
        <time>2020-02-08T08:04:28.802Z</time>
      </trkpt>
      <trkpt lat="39.027665" lon="-0.30449333">
        <ele>290.973</ele>
        <time>2020-02-08T08:04:29.802Z</time>
      </trkpt>
      <trkpt lat="39.027655" lon="-0.304575">
        <ele>290.973</ele>
        <time>2020-02-08T08:04:30.802Z</time>
      </trkpt>
      <trkpt lat="39.027655" lon="-0.304575">
        <ele>290.973</ele>
        <time>2020-02-08T08:04:31.802Z</time>
      </trkpt>
      <trkpt lat="39.02764167" lon="-0.30465667">
        <ele>291.973</ele>
        <time>2020-02-08T08:04:32.802Z</time>
      </trkpt>
      <trkpt lat="39.02764167" lon="-0.30465667">
        <ele>291.973</ele>
        <time>2020-02-08T08:04:33.802Z</time>
      </trkpt>
      <trkpt lat="39.02762833" lon="-0.304735">
        <ele>291.973</ele>
        <time>2020-02-08T08:04:34.802Z</time>
      </trkpt>
      <trkpt lat="39.02762833" lon="-0.304735">
        <ele>291.973</ele>
        <time>2020-02-08T08:04:35.802Z</time>
      </trkpt>
      <trkpt lat="39.02761333" lon="-0.30481833">
        <ele>291.973</ele>
        <time>2020-02-08T08:04:36.802Z</time>
      </trkpt>
      <trkpt lat="39.02761333" lon="-0.30481833">
        <ele>291.973</ele>
        <time>2020-02-08T08:04:37.802Z</time>
      </trkpt>
      <trkpt lat="39.02759667" lon="-0.3049">
        <ele>291.973</ele>
        <time>2020-02-08T08:04:38.802Z</time>
      </trkpt>
      <trkpt lat="39.02758667" lon="-0.30493833">
        <ele>291.973</ele>
        <time>2020-02-08T08:04:39.802Z</time>
      </trkpt>
      <trkpt lat="39.02758667" lon="-0.30493833">
        <ele>291.973</ele>
        <time>2020-02-08T08:04:40.802Z</time>
      </trkpt>
      <trkpt lat="39.02757333" lon="-0.30502">
        <ele>292.973</ele>
        <time>2020-02-08T08:04:41.802Z</time>
      </trkpt>
      <trkpt lat="39.02757333" lon="-0.30502">
        <ele>292.973</ele>
        <time>2020-02-08T08:04:42.802Z</time>
      </trkpt>
      <trkpt lat="39.02755667" lon="-0.3051">
        <ele>292.973</ele>
        <time>2020-02-08T08:04:43.802Z</time>
      </trkpt>
      <trkpt lat="39.027545" lon="-0.30513667">
        <ele>292.973</ele>
        <time>2020-02-08T08:04:44.802Z</time>
      </trkpt>
      <trkpt lat="39.027545" lon="-0.30513667">
        <ele>292.973</ele>
        <time>2020-02-08T08:04:45.802Z</time>
      </trkpt>
      <trkpt lat="39.02752667" lon="-0.30521667">
        <ele>292.973</ele>
        <time>2020-02-08T08:04:46.802Z</time>
      </trkpt>
      <trkpt lat="39.02751333" lon="-0.30525333">
        <ele>293.973</ele>
        <time>2020-02-08T08:04:47.802Z</time>
      </trkpt>
      <trkpt lat="39.02750167" lon="-0.30528833">
        <ele>293.973</ele>
        <time>2020-02-08T08:04:48.802Z</time>
      </trkpt>
      <trkpt lat="39.02750167" lon="-0.30528833">
        <ele>293.973</ele>
        <time>2020-02-08T08:04:49.802Z</time>
      </trkpt>
      <trkpt lat="39.02746833" lon="-0.30536167">
        <ele>293.973</ele>
        <time>2020-02-08T08:04:50.802Z</time>
      </trkpt>
      <trkpt lat="39.02746833" lon="-0.30536167">
        <ele>293.973</ele>
        <time>2020-02-08T08:04:51.802Z</time>
      </trkpt>
      <trkpt lat="39.02743" lon="-0.30543667">
        <ele>293.973</ele>
        <time>2020-02-08T08:04:52.802Z</time>
      </trkpt>
      <trkpt lat="39.027415" lon="-0.30546667">
        <ele>294.973</ele>
        <time>2020-02-08T08:04:53.802Z</time>
      </trkpt>
      <trkpt lat="39.02739333" lon="-0.30549667">
        <ele>294.973</ele>
        <time>2020-02-08T08:04:54.802Z</time>
      </trkpt>
      <trkpt lat="39.02736833" lon="-0.30552167">
        <ele>294.973</ele>
        <time>2020-02-08T08:04:55.802Z</time>
      </trkpt>
      <trkpt lat="39.02736833" lon="-0.30552167">
        <ele>294.973</ele>
        <time>2020-02-08T08:04:56.802Z</time>
      </trkpt>
      <trkpt lat="39.02731" lon="-0.30556333">
        <ele>294.973</ele>
        <time>2020-02-08T08:04:57.802Z</time>
      </trkpt>
      <trkpt lat="39.02731" lon="-0.30556333">
        <ele>294.973</ele>
        <time>2020-02-08T08:04:58.802Z</time>
      </trkpt>
      <trkpt lat="39.02725667" lon="-0.30560167">
        <ele>294.973</ele>
        <time>2020-02-08T08:04:59.802Z</time>
      </trkpt>
      <trkpt lat="39.02723167" lon="-0.30562167">
        <ele>294.973</ele>
        <time>2020-02-08T08:05:00.802Z</time>
      </trkpt>
      <trkpt lat="39.02723167" lon="-0.30562167">
        <ele>294.973</ele>
        <time>2020-02-08T08:05:01.802Z</time>
      </trkpt>
      <trkpt lat="39.02717833" lon="-0.30566">
        <ele>294.973</ele>
        <time>2020-02-08T08:05:02.802Z</time>
      </trkpt>
      <trkpt lat="39.02715167" lon="-0.30568">
        <ele>295.973</ele>
        <time>2020-02-08T08:05:03.802Z</time>
      </trkpt>
      <trkpt lat="39.02715167" lon="-0.30568">
        <ele>295.973</ele>
        <time>2020-02-08T08:05:04.802Z</time>
      </trkpt>
      <trkpt lat="39.02709667" lon="-0.30572">
        <ele>295.973</ele>
        <time>2020-02-08T08:05:05.802Z</time>
      </trkpt>
      <trkpt lat="39.02707" lon="-0.30573833">
        <ele>295.973</ele>
        <time>2020-02-08T08:05:06.802Z</time>
      </trkpt>
      <trkpt lat="39.02707" lon="-0.30573833">
        <ele>295.973</ele>
        <time>2020-02-08T08:05:07.802Z</time>
      </trkpt>
      <trkpt lat="39.027015" lon="-0.30577833">
        <ele>296.973</ele>
        <time>2020-02-08T08:05:08.802Z</time>
      </trkpt>
      <trkpt lat="39.02698833" lon="-0.3058">
        <ele>296.973</ele>
        <time>2020-02-08T08:05:09.802Z</time>
      </trkpt>
      <trkpt lat="39.02698833" lon="-0.3058">
        <ele>296.973</ele>
        <time>2020-02-08T08:05:10.802Z</time>
      </trkpt>
      <trkpt lat="39.026935" lon="-0.30584167">
        <ele>296.973</ele>
        <time>2020-02-08T08:05:11.802Z</time>
      </trkpt>
      <trkpt lat="39.02691167" lon="-0.30586667">
        <ele>296.973</ele>
        <time>2020-02-08T08:05:12.802Z</time>
      </trkpt>
      <trkpt lat="39.02691167" lon="-0.30586667">
        <ele>296.973</ele>
        <time>2020-02-08T08:05:13.802Z</time>
      </trkpt>
      <trkpt lat="39.02687" lon="-0.30592">
        <ele>297.973</ele>
        <time>2020-02-08T08:05:14.802Z</time>
      </trkpt>
      <trkpt lat="39.02687" lon="-0.30592">
        <ele>297.973</ele>
        <time>2020-02-08T08:05:15.802Z</time>
      </trkpt>
      <trkpt lat="39.02683333" lon="-0.305985">
        <ele>297.973</ele>
        <time>2020-02-08T08:05:16.802Z</time>
      </trkpt>
      <trkpt lat="39.02683333" lon="-0.305985">
        <ele>297.973</ele>
        <time>2020-02-08T08:05:17.802Z</time>
      </trkpt>
      <trkpt lat="39.02680667" lon="-0.30606">
        <ele>297.973</ele>
        <time>2020-02-08T08:05:18.802Z</time>
      </trkpt>
      <trkpt lat="39.02680667" lon="-0.30606">
        <ele>297.973</ele>
        <time>2020-02-08T08:05:19.802Z</time>
      </trkpt>
      <trkpt lat="39.02678" lon="-0.306135">
        <ele>297.973</ele>
        <time>2020-02-08T08:05:20.802Z</time>
      </trkpt>
      <trkpt lat="39.02678" lon="-0.306135">
        <ele>297.973</ele>
        <time>2020-02-08T08:05:21.802Z</time>
      </trkpt>
      <trkpt lat="39.02675833" lon="-0.30621167">
        <ele>298.973</ele>
        <time>2020-02-08T08:05:22.802Z</time>
      </trkpt>
      <trkpt lat="39.026745" lon="-0.30625">
        <ele>298.973</ele>
        <time>2020-02-08T08:05:23.802Z</time>
      </trkpt>
      <trkpt lat="39.02674" lon="-0.30629">
        <ele>298.973</ele>
        <time>2020-02-08T08:05:24.802Z</time>
      </trkpt>
      <trkpt lat="39.02674" lon="-0.30629">
        <ele>298.973</ele>
        <time>2020-02-08T08:05:25.802Z</time>
      </trkpt>
      <trkpt lat="39.02671833" lon="-0.306375">
        <ele>299.973</ele>
        <time>2020-02-08T08:05:26.802Z</time>
      </trkpt>
      <trkpt lat="39.02671833" lon="-0.306375">
        <ele>299.973</ele>
        <time>2020-02-08T08:05:27.802Z</time>
      </trkpt>
      <trkpt lat="39.02668" lon="-0.30645">
        <ele>299.973</ele>
        <time>2020-02-08T08:05:28.802Z</time>
      </trkpt>
      <trkpt lat="39.02668" lon="-0.30645">
        <ele>299.973</ele>
        <time>2020-02-08T08:05:29.802Z</time>
      </trkpt>
      <trkpt lat="39.026645" lon="-0.30652667">
        <ele>300.973</ele>
        <time>2020-02-08T08:05:30.802Z</time>
      </trkpt>
      <trkpt lat="39.026645" lon="-0.30652667">
        <ele>300.973</ele>
        <time>2020-02-08T08:05:31.802Z</time>
      </trkpt>
      <trkpt lat="39.026605" lon="-0.306595">
        <ele>300.973</ele>
        <time>2020-02-08T08:05:32.802Z</time>
      </trkpt>
      <trkpt lat="39.026605" lon="-0.306595">
        <ele>301.973</ele>
        <time>2020-02-08T08:05:33.802Z</time>
      </trkpt>
      <trkpt lat="39.026555" lon="-0.30664667">
        <ele>301.973</ele>
        <time>2020-02-08T08:05:34.802Z</time>
      </trkpt>
      <trkpt lat="39.026555" lon="-0.30664667">
        <ele>301.973</ele>
        <time>2020-02-08T08:05:35.802Z</time>
      </trkpt>
      <trkpt lat="39.02650167" lon="-0.30669667">
        <ele>302.973</ele>
        <time>2020-02-08T08:05:36.802Z</time>
      </trkpt>
      <trkpt lat="39.02650167" lon="-0.30669667">
        <ele>302.973</ele>
        <time>2020-02-08T08:05:37.802Z</time>
      </trkpt>
      <trkpt lat="39.02644333" lon="-0.30674833">
        <ele>302.973</ele>
        <time>2020-02-08T08:05:38.802Z</time>
      </trkpt>
      <trkpt lat="39.02644333" lon="-0.30674833">
        <ele>302.973</ele>
        <time>2020-02-08T08:05:39.802Z</time>
      </trkpt>
      <trkpt lat="39.02638667" lon="-0.30679167">
        <ele>303.973</ele>
        <time>2020-02-08T08:05:40.802Z</time>
      </trkpt>
      <trkpt lat="39.02638667" lon="-0.30679167">
        <ele>303.973</ele>
        <time>2020-02-08T08:05:41.802Z</time>
      </trkpt>
      <trkpt lat="39.02633" lon="-0.30683667">
        <ele>303.973</ele>
        <time>2020-02-08T08:05:42.802Z</time>
      </trkpt>
      <trkpt lat="39.02633" lon="-0.30683667">
        <ele>303.973</ele>
        <time>2020-02-08T08:05:43.802Z</time>
      </trkpt>
      <trkpt lat="39.02627333" lon="-0.30687333">
        <ele>304.973</ele>
        <time>2020-02-08T08:05:44.802Z</time>
      </trkpt>
      <trkpt lat="39.02627333" lon="-0.30687333">
        <ele>304.973</ele>
        <time>2020-02-08T08:05:45.802Z</time>
      </trkpt>
      <trkpt lat="39.02621333" lon="-0.3069">
        <ele>304.973</ele>
        <time>2020-02-08T08:05:46.802Z</time>
      </trkpt>
      <trkpt lat="39.02621333" lon="-0.3069">
        <ele>304.973</ele>
        <time>2020-02-08T08:05:47.802Z</time>
      </trkpt>
      <trkpt lat="39.026155" lon="-0.306925">
        <ele>305.973</ele>
        <time>2020-02-08T08:05:48.802Z</time>
      </trkpt>
      <trkpt lat="39.026155" lon="-0.306925">
        <ele>305.973</ele>
        <time>2020-02-08T08:05:49.802Z</time>
      </trkpt>
      <trkpt lat="39.026095" lon="-0.30694833">
        <ele>305.973</ele>
        <time>2020-02-08T08:05:50.802Z</time>
      </trkpt>
      <trkpt lat="39.026095" lon="-0.30694833">
        <ele>305.973</ele>
        <time>2020-02-08T08:05:51.802Z</time>
      </trkpt>
      <trkpt lat="39.02603667" lon="-0.30697667">
        <ele>305.973</ele>
        <time>2020-02-08T08:05:52.802Z</time>
      </trkpt>
      <trkpt lat="39.02603667" lon="-0.30697667">
        <ele>305.973</ele>
        <time>2020-02-08T08:05:53.802Z</time>
      </trkpt>
      <trkpt lat="39.02597833" lon="-0.30701333">
        <ele>306.973</ele>
        <time>2020-02-08T08:05:54.802Z</time>
      </trkpt>
      <trkpt lat="39.02597833" lon="-0.30701333">
        <ele>306.973</ele>
        <time>2020-02-08T08:05:55.802Z</time>
      </trkpt>
      <trkpt lat="39.02591833" lon="-0.30704167">
        <ele>306.973</ele>
        <time>2020-02-08T08:05:56.802Z</time>
      </trkpt>
      <trkpt lat="39.02591833" lon="-0.30704167">
        <ele>306.973</ele>
        <time>2020-02-08T08:05:57.802Z</time>
      </trkpt>
      <trkpt lat="39.025855" lon="-0.307075">
        <ele>306.973</ele>
        <time>2020-02-08T08:05:58.802Z</time>
      </trkpt>
      <trkpt lat="39.02582333" lon="-0.30709667">
        <ele>307.973</ele>
        <time>2020-02-08T08:05:59.802Z</time>
      </trkpt>
      <trkpt lat="39.02579333" lon="-0.30711667">
        <ele>307.973</ele>
        <time>2020-02-08T08:06:00.802Z</time>
      </trkpt>
      <trkpt lat="39.02579333" lon="-0.30711667">
        <ele>307.973</ele>
        <time>2020-02-08T08:06:01.802Z</time>
      </trkpt>
      <trkpt lat="39.02573333" lon="-0.30716333">
        <ele>307.973</ele>
        <time>2020-02-08T08:06:02.802Z</time>
      </trkpt>
      <trkpt lat="39.02573333" lon="-0.30716333">
        <ele>308.973</ele>
        <time>2020-02-08T08:06:03.802Z</time>
      </trkpt>
      <trkpt lat="39.02568" lon="-0.30721667">
        <ele>308.973</ele>
        <time>2020-02-08T08:06:04.802Z</time>
      </trkpt>
      <trkpt lat="39.02565667" lon="-0.307245">
        <ele>308.973</ele>
        <time>2020-02-08T08:06:05.802Z</time>
      </trkpt>
      <trkpt lat="39.025635" lon="-0.30727333">
        <ele>309.973</ele>
        <time>2020-02-08T08:06:06.802Z</time>
      </trkpt>
      <trkpt lat="39.025635" lon="-0.30727333">
        <ele>309.973</ele>
        <time>2020-02-08T08:06:07.802Z</time>
      </trkpt>
      <trkpt lat="39.025595" lon="-0.307335">
        <ele>309.973</ele>
        <time>2020-02-08T08:06:08.802Z</time>
      </trkpt>
      <trkpt lat="39.025595" lon="-0.307335">
        <ele>309.973</ele>
        <time>2020-02-08T08:06:09.802Z</time>
      </trkpt>
      <trkpt lat="39.02556" lon="-0.30741">
        <ele>309.973</ele>
        <time>2020-02-08T08:06:10.802Z</time>
      </trkpt>
      <trkpt lat="39.02556" lon="-0.30741">
        <ele>309.973</ele>
        <time>2020-02-08T08:06:11.802Z</time>
      </trkpt>
      <trkpt lat="39.02554167" lon="-0.30749">
        <ele>309.973</ele>
        <time>2020-02-08T08:06:12.802Z</time>
      </trkpt>
      <trkpt lat="39.02554167" lon="-0.30749">
        <ele>309.973</ele>
        <time>2020-02-08T08:06:13.802Z</time>
      </trkpt>
      <trkpt lat="39.02553333" lon="-0.30757167">
        <ele>309.973</ele>
        <time>2020-02-08T08:06:14.802Z</time>
      </trkpt>
      <trkpt lat="39.02553333" lon="-0.30757167">
        <ele>309.973</ele>
        <time>2020-02-08T08:06:15.802Z</time>
      </trkpt>
      <trkpt lat="39.025535" lon="-0.30765333">
        <ele>309.973</ele>
        <time>2020-02-08T08:06:16.802Z</time>
      </trkpt>
      <trkpt lat="39.025535" lon="-0.30765333">
        <ele>309.973</ele>
        <time>2020-02-08T08:06:17.802Z</time>
      </trkpt>
      <trkpt lat="39.025545" lon="-0.30773333">
        <ele>309.973</ele>
        <time>2020-02-08T08:06:18.802Z</time>
      </trkpt>
      <trkpt lat="39.025545" lon="-0.30773333">
        <ele>310.973</ele>
        <time>2020-02-08T08:06:19.802Z</time>
      </trkpt>
      <trkpt lat="39.02555667" lon="-0.30781833">
        <ele>310.973</ele>
        <time>2020-02-08T08:06:20.802Z</time>
      </trkpt>
      <trkpt lat="39.02555667" lon="-0.30781833">
        <ele>310.973</ele>
        <time>2020-02-08T08:06:21.802Z</time>
      </trkpt>
      <trkpt lat="39.02556333" lon="-0.30789833">
        <ele>310.973</ele>
        <time>2020-02-08T08:06:22.802Z</time>
      </trkpt>
      <trkpt lat="39.02556333" lon="-0.30789833">
        <ele>311.973</ele>
        <time>2020-02-08T08:06:23.802Z</time>
      </trkpt>
      <trkpt lat="39.02557167" lon="-0.30798167">
        <ele>311.973</ele>
        <time>2020-02-08T08:06:24.802Z</time>
      </trkpt>
      <trkpt lat="39.02557" lon="-0.30802167">
        <ele>311.973</ele>
        <time>2020-02-08T08:06:25.802Z</time>
      </trkpt>
      <trkpt lat="39.02557" lon="-0.30802167">
        <ele>311.973</ele>
        <time>2020-02-08T08:06:26.802Z</time>
      </trkpt>
      <trkpt lat="39.02556833" lon="-0.30811">
        <ele>312.973</ele>
        <time>2020-02-08T08:06:27.802Z</time>
      </trkpt>
      <trkpt lat="39.02556833" lon="-0.30811">
        <ele>312.973</ele>
        <time>2020-02-08T08:06:28.802Z</time>
      </trkpt>
      <trkpt lat="39.02556" lon="-0.30819333">
        <ele>312.973</ele>
        <time>2020-02-08T08:06:29.802Z</time>
      </trkpt>
      <trkpt lat="39.02555" lon="-0.30823833">
        <ele>312.973</ele>
        <time>2020-02-08T08:06:30.802Z</time>
      </trkpt>
      <trkpt lat="39.02555" lon="-0.30823833">
        <ele>313.973</ele>
        <time>2020-02-08T08:06:31.802Z</time>
      </trkpt>
      <trkpt lat="39.02553167" lon="-0.30831667">
        <ele>313.973</ele>
        <time>2020-02-08T08:06:32.802Z</time>
      </trkpt>
      <trkpt lat="39.02551667" lon="-0.30835333">
        <ele>313.973</ele>
        <time>2020-02-08T08:06:33.802Z</time>
      </trkpt>
      <trkpt lat="39.02551667" lon="-0.30835333">
        <ele>313.973</ele>
        <time>2020-02-08T08:06:34.802Z</time>
      </trkpt>
      <trkpt lat="39.02548" lon="-0.30842">
        <ele>313.973</ele>
        <time>2020-02-08T08:06:35.802Z</time>
      </trkpt>
      <trkpt lat="39.02545833" lon="-0.30845667">
        <ele>314.973</ele>
        <time>2020-02-08T08:06:36.802Z</time>
      </trkpt>
      <trkpt lat="39.02545833" lon="-0.30845667">
        <ele>314.973</ele>
        <time>2020-02-08T08:06:37.802Z</time>
      </trkpt>
      <trkpt lat="39.02541833" lon="-0.308515">
        <ele>315.973</ele>
        <time>2020-02-08T08:06:38.802Z</time>
      </trkpt>
      <trkpt lat="39.02540167" lon="-0.30854333">
        <ele>315.973</ele>
        <time>2020-02-08T08:06:39.802Z</time>
      </trkpt>
      <trkpt lat="39.02537833" lon="-0.30857333">
        <ele>315.973</ele>
        <time>2020-02-08T08:06:40.802Z</time>
      </trkpt>
      <trkpt lat="39.02537833" lon="-0.30857333">
        <ele>315.973</ele>
        <time>2020-02-08T08:06:41.802Z</time>
      </trkpt>
      <trkpt lat="39.02533833" lon="-0.30863167">
        <ele>315.973</ele>
        <time>2020-02-08T08:06:42.802Z</time>
      </trkpt>
      <trkpt lat="39.02533833" lon="-0.30863167">
        <ele>315.973</ele>
        <time>2020-02-08T08:06:43.802Z</time>
      </trkpt>
      <trkpt lat="39.02530333" lon="-0.30869">
        <ele>316.973</ele>
        <time>2020-02-08T08:06:44.802Z</time>
      </trkpt>
      <trkpt lat="39.02530333" lon="-0.30869">
        <ele>316.973</ele>
        <time>2020-02-08T08:06:45.802Z</time>
      </trkpt>
      <trkpt lat="39.02529833" lon="-0.30876333">
        <ele>316.973</ele>
        <time>2020-02-08T08:06:46.802Z</time>
      </trkpt>
      <trkpt lat="39.02529833" lon="-0.30876333">
        <ele>316.973</ele>
        <time>2020-02-08T08:06:47.802Z</time>
      </trkpt>
      <trkpt lat="39.02530333" lon="-0.30882">
        <ele>316.973</ele>
        <time>2020-02-08T08:06:48.802Z</time>
      </trkpt>
      <trkpt lat="39.02530333" lon="-0.30882">
        <ele>316.973</ele>
        <time>2020-02-08T08:06:49.802Z</time>
      </trkpt>
      <trkpt lat="39.02531833" lon="-0.30886667">
        <ele>316.973</ele>
        <time>2020-02-08T08:06:50.802Z</time>
      </trkpt>
      <trkpt lat="39.02531833" lon="-0.30886667">
        <ele>316.973</ele>
        <time>2020-02-08T08:06:51.802Z</time>
      </trkpt>
      <trkpt lat="39.02533833" lon="-0.30891667">
        <ele>318.973</ele>
        <time>2020-02-08T08:06:52.802Z</time>
      </trkpt>
      <trkpt lat="39.02533833" lon="-0.30891667">
        <ele>318.973</ele>
        <time>2020-02-08T08:06:53.802Z</time>
      </trkpt>
      <trkpt lat="39.02538167" lon="-0.308975">
        <ele>318.973</ele>
        <time>2020-02-08T08:06:54.802Z</time>
      </trkpt>
      <trkpt lat="39.02538167" lon="-0.308975">
        <ele>318.973</ele>
        <time>2020-02-08T08:06:55.802Z</time>
      </trkpt>
      <trkpt lat="39.02543" lon="-0.30903833">
        <ele>318.973</ele>
        <time>2020-02-08T08:06:56.802Z</time>
      </trkpt>
      <trkpt lat="39.02543" lon="-0.30903833">
        <ele>318.973</ele>
        <time>2020-02-08T08:06:57.802Z</time>
      </trkpt>
      <trkpt lat="39.02549833" lon="-0.309105">
        <ele>318.973</ele>
        <time>2020-02-08T08:06:58.802Z</time>
      </trkpt>
      <trkpt lat="39.02549833" lon="-0.309105">
        <ele>318.973</ele>
        <time>2020-02-08T08:06:59.802Z</time>
      </trkpt>
      <trkpt lat="39.02553667" lon="-0.309165">
        <ele>319.973</ele>
        <time>2020-02-08T08:07:00.802Z</time>
      </trkpt>
      <trkpt lat="39.02553667" lon="-0.309165">
        <ele>319.973</ele>
        <time>2020-02-08T08:07:01.802Z</time>
      </trkpt>
      <trkpt lat="39.02557333" lon="-0.30922833">
        <ele>319.973</ele>
        <time>2020-02-08T08:07:02.802Z</time>
      </trkpt>
      <trkpt lat="39.02557333" lon="-0.30922833">
        <ele>319.973</ele>
        <time>2020-02-08T08:07:03.802Z</time>
      </trkpt>
      <trkpt lat="39.02560333" lon="-0.30930833">
        <ele>319.973</ele>
        <time>2020-02-08T08:07:04.802Z</time>
      </trkpt>
      <trkpt lat="39.02560333" lon="-0.30930833">
        <ele>320.973</ele>
        <time>2020-02-08T08:07:05.802Z</time>
      </trkpt>
      <trkpt lat="39.025625" lon="-0.30939333">
        <ele>320.973</ele>
        <time>2020-02-08T08:07:06.802Z</time>
      </trkpt>
      <trkpt lat="39.025625" lon="-0.30939333">
        <ele>320.973</ele>
        <time>2020-02-08T08:07:07.802Z</time>
      </trkpt>
      <trkpt lat="39.02562667" lon="-0.30947667">
        <ele>320.973</ele>
        <time>2020-02-08T08:07:08.802Z</time>
      </trkpt>
      <trkpt lat="39.02562667" lon="-0.30947667">
        <ele>321.973</ele>
        <time>2020-02-08T08:07:09.802Z</time>
      </trkpt>
      <trkpt lat="39.025615" lon="-0.30956">
        <ele>321.973</ele>
        <time>2020-02-08T08:07:10.802Z</time>
      </trkpt>
      <trkpt lat="39.025615" lon="-0.30956">
        <ele>321.973</ele>
        <time>2020-02-08T08:07:11.802Z</time>
      </trkpt>
      <trkpt lat="39.02558167" lon="-0.30963">
        <ele>321.973</ele>
        <time>2020-02-08T08:07:12.802Z</time>
      </trkpt>
      <trkpt lat="39.02558167" lon="-0.30963">
        <ele>322.973</ele>
        <time>2020-02-08T08:07:13.802Z</time>
      </trkpt>
      <trkpt lat="39.02552667" lon="-0.30968">
        <ele>322.973</ele>
        <time>2020-02-08T08:07:14.802Z</time>
      </trkpt>
      <trkpt lat="39.02552667" lon="-0.30968">
        <ele>322.973</ele>
        <time>2020-02-08T08:07:15.802Z</time>
      </trkpt>
      <trkpt lat="39.02547167" lon="-0.30971167">
        <ele>322.973</ele>
        <time>2020-02-08T08:07:16.802Z</time>
      </trkpt>
      <trkpt lat="39.02547167" lon="-0.30971167">
        <ele>322.973</ele>
        <time>2020-02-08T08:07:17.802Z</time>
      </trkpt>
      <trkpt lat="39.02541667" lon="-0.30973667">
        <ele>322.973</ele>
        <time>2020-02-08T08:07:18.802Z</time>
      </trkpt>
      <trkpt lat="39.02541667" lon="-0.30973667">
        <ele>323.973</ele>
        <time>2020-02-08T08:07:19.802Z</time>
      </trkpt>
      <trkpt lat="39.02536167" lon="-0.30975333">
        <ele>323.973</ele>
        <time>2020-02-08T08:07:20.802Z</time>
      </trkpt>
      <trkpt lat="39.02536167" lon="-0.30975333">
        <ele>323.973</ele>
        <time>2020-02-08T08:07:21.802Z</time>
      </trkpt>
      <trkpt lat="39.02530333" lon="-0.309765">
        <ele>323.973</ele>
        <time>2020-02-08T08:07:22.802Z</time>
      </trkpt>
      <trkpt lat="39.02530333" lon="-0.309765">
        <ele>323.973</ele>
        <time>2020-02-08T08:07:23.802Z</time>
      </trkpt>
      <trkpt lat="39.02524333" lon="-0.30976833">
        <ele>323.973</ele>
        <time>2020-02-08T08:07:24.802Z</time>
      </trkpt>
      <trkpt lat="39.02524333" lon="-0.30976833">
        <ele>324.973</ele>
        <time>2020-02-08T08:07:25.802Z</time>
      </trkpt>
      <trkpt lat="39.02518333" lon="-0.30976833">
        <ele>324.973</ele>
        <time>2020-02-08T08:07:26.802Z</time>
      </trkpt>
      <trkpt lat="39.02518333" lon="-0.30976833">
        <ele>324.973</ele>
        <time>2020-02-08T08:07:27.802Z</time>
      </trkpt>
      <trkpt lat="39.02512" lon="-0.30976167">
        <ele>324.973</ele>
        <time>2020-02-08T08:07:28.802Z</time>
      </trkpt>
      <trkpt lat="39.02512" lon="-0.30976167">
        <ele>324.973</ele>
        <time>2020-02-08T08:07:29.802Z</time>
      </trkpt>
      <trkpt lat="39.02505333" lon="-0.30975833">
        <ele>324.973</ele>
        <time>2020-02-08T08:07:30.802Z</time>
      </trkpt>
      <trkpt lat="39.02505333" lon="-0.30975833">
        <ele>325.973</ele>
        <time>2020-02-08T08:07:31.802Z</time>
      </trkpt>
      <trkpt lat="39.02498833" lon="-0.30974167">
        <ele>325.973</ele>
        <time>2020-02-08T08:07:32.802Z</time>
      </trkpt>
      <trkpt lat="39.02498833" lon="-0.30974167">
        <ele>325.973</ele>
        <time>2020-02-08T08:07:33.802Z</time>
      </trkpt>
      <trkpt lat="39.02492333" lon="-0.30972">
        <ele>325.973</ele>
        <time>2020-02-08T08:07:34.802Z</time>
      </trkpt>
      <trkpt lat="39.02492333" lon="-0.30972">
        <ele>325.973</ele>
        <time>2020-02-08T08:07:35.802Z</time>
      </trkpt>
      <trkpt lat="39.02486167" lon="-0.30969333">
        <ele>325.973</ele>
        <time>2020-02-08T08:07:36.802Z</time>
      </trkpt>
      <trkpt lat="39.02486167" lon="-0.30969333">
        <ele>325.973</ele>
        <time>2020-02-08T08:07:37.802Z</time>
      </trkpt>
      <trkpt lat="39.02480667" lon="-0.30966">
        <ele>325.973</ele>
        <time>2020-02-08T08:07:38.802Z</time>
      </trkpt>
      <trkpt lat="39.02480667" lon="-0.30966">
        <ele>325.973</ele>
        <time>2020-02-08T08:07:39.802Z</time>
      </trkpt>
      <trkpt lat="39.02475" lon="-0.30963167">
        <ele>325.973</ele>
        <time>2020-02-08T08:07:40.802Z</time>
      </trkpt>
      <trkpt lat="39.02475" lon="-0.30963167">
        <ele>325.973</ele>
        <time>2020-02-08T08:07:41.802Z</time>
      </trkpt>
      <trkpt lat="39.02469667" lon="-0.30960167">
        <ele>325.973</ele>
        <time>2020-02-08T08:07:42.802Z</time>
      </trkpt>
      <trkpt lat="39.02469667" lon="-0.30960167">
        <ele>325.973</ele>
        <time>2020-02-08T08:07:43.802Z</time>
      </trkpt>
      <trkpt lat="39.024645" lon="-0.30957667">
        <ele>325.973</ele>
        <time>2020-02-08T08:07:44.802Z</time>
      </trkpt>
      <trkpt lat="39.024645" lon="-0.30957667">
        <ele>325.973</ele>
        <time>2020-02-08T08:07:45.802Z</time>
      </trkpt>
      <trkpt lat="39.02458667" lon="-0.30959167">
        <ele>325.973</ele>
        <time>2020-02-08T08:07:46.802Z</time>
      </trkpt>
      <trkpt lat="39.02458667" lon="-0.30959167">
        <ele>325.973</ele>
        <time>2020-02-08T08:07:47.802Z</time>
      </trkpt>
      <trkpt lat="39.02453167" lon="-0.30964667">
        <ele>325.973</ele>
        <time>2020-02-08T08:07:48.802Z</time>
      </trkpt>
      <trkpt lat="39.02453167" lon="-0.30964667">
        <ele>325.973</ele>
        <time>2020-02-08T08:07:49.802Z</time>
      </trkpt>
      <trkpt lat="39.02446833" lon="-0.30972167">
        <ele>325.973</ele>
        <time>2020-02-08T08:07:50.802Z</time>
      </trkpt>
      <trkpt lat="39.02446833" lon="-0.30972167">
        <ele>325.973</ele>
        <time>2020-02-08T08:07:51.802Z</time>
      </trkpt>
      <trkpt lat="39.0244" lon="-0.30979833">
        <ele>325.973</ele>
        <time>2020-02-08T08:07:52.802Z</time>
      </trkpt>
      <trkpt lat="39.0244" lon="-0.30979833">
        <ele>325.973</ele>
        <time>2020-02-08T08:07:53.802Z</time>
      </trkpt>
      <trkpt lat="39.02433667" lon="-0.30987167">
        <ele>325.973</ele>
        <time>2020-02-08T08:07:54.802Z</time>
      </trkpt>
      <trkpt lat="39.02433667" lon="-0.30987167">
        <ele>325.973</ele>
        <time>2020-02-08T08:07:55.802Z</time>
      </trkpt>
      <trkpt lat="39.024275" lon="-0.30993333">
        <ele>325.973</ele>
        <time>2020-02-08T08:07:56.802Z</time>
      </trkpt>
      <trkpt lat="39.024275" lon="-0.30993333">
        <ele>325.973</ele>
        <time>2020-02-08T08:07:57.802Z</time>
      </trkpt>
      <trkpt lat="39.02421" lon="-0.309995">
        <ele>325.973</ele>
        <time>2020-02-08T08:07:58.802Z</time>
      </trkpt>
      <trkpt lat="39.02418" lon="-0.31003167">
        <ele>325.973</ele>
        <time>2020-02-08T08:07:59.802Z</time>
      </trkpt>
      <trkpt lat="39.02414833" lon="-0.31006333">
        <ele>325.973</ele>
        <time>2020-02-08T08:08:00.802Z</time>
      </trkpt>
      <trkpt lat="39.02414833" lon="-0.31006333">
        <ele>325.973</ele>
        <time>2020-02-08T08:08:01.802Z</time>
      </trkpt>
      <trkpt lat="39.024095" lon="-0.31014667">
        <ele>325.973</ele>
        <time>2020-02-08T08:08:02.802Z</time>
      </trkpt>
      <trkpt lat="39.024095" lon="-0.31014667">
        <ele>325.973</ele>
        <time>2020-02-08T08:08:03.802Z</time>
      </trkpt>
      <trkpt lat="39.02404833" lon="-0.31023333">
        <ele>325.973</ele>
        <time>2020-02-08T08:08:04.802Z</time>
      </trkpt>
      <trkpt lat="39.02404833" lon="-0.31023333">
        <ele>325.973</ele>
        <time>2020-02-08T08:08:05.802Z</time>
      </trkpt>
      <trkpt lat="39.024" lon="-0.31031833">
        <ele>325.973</ele>
        <time>2020-02-08T08:08:06.802Z</time>
      </trkpt>
      <trkpt lat="39.024" lon="-0.31031833">
        <ele>325.973</ele>
        <time>2020-02-08T08:08:07.802Z</time>
      </trkpt>
      <trkpt lat="39.02395" lon="-0.31041">
        <ele>325.973</ele>
        <time>2020-02-08T08:08:08.802Z</time>
      </trkpt>
      <trkpt lat="39.02395" lon="-0.31041">
        <ele>325.973</ele>
        <time>2020-02-08T08:08:09.802Z</time>
      </trkpt>
      <trkpt lat="39.023895" lon="-0.310505">
        <ele>325.973</ele>
        <time>2020-02-08T08:08:10.802Z</time>
      </trkpt>
      <trkpt lat="39.023895" lon="-0.310505">
        <ele>325.973</ele>
        <time>2020-02-08T08:08:11.802Z</time>
      </trkpt>
      <trkpt lat="39.02383333" lon="-0.31062">
        <ele>325.973</ele>
        <time>2020-02-08T08:08:12.802Z</time>
      </trkpt>
      <trkpt lat="39.02383333" lon="-0.31062">
        <ele>325.973</ele>
        <time>2020-02-08T08:08:13.802Z</time>
      </trkpt>
      <trkpt lat="39.02377" lon="-0.310745">
        <ele>325.973</ele>
        <time>2020-02-08T08:08:14.802Z</time>
      </trkpt>
      <trkpt lat="39.02377" lon="-0.310745">
        <ele>325.973</ele>
        <time>2020-02-08T08:08:15.802Z</time>
      </trkpt>
      <trkpt lat="39.02372333" lon="-0.3109">
        <ele>324.973</ele>
        <time>2020-02-08T08:08:16.802Z</time>
      </trkpt>
      <trkpt lat="39.02370333" lon="-0.31098833">
        <ele>324.973</ele>
        <time>2020-02-08T08:08:17.802Z</time>
      </trkpt>
      <trkpt lat="39.02370333" lon="-0.31098833">
        <ele>324.973</ele>
        <time>2020-02-08T08:08:18.802Z</time>
      </trkpt>
      <trkpt lat="39.02366" lon="-0.31114167">
        <ele>324.973</ele>
        <time>2020-02-08T08:08:19.802Z</time>
      </trkpt>
      <trkpt lat="39.02363667" lon="-0.31121167">
        <ele>323.973</ele>
        <time>2020-02-08T08:08:20.802Z</time>
      </trkpt>
      <trkpt lat="39.02363667" lon="-0.31121167">
        <ele>323.973</ele>
        <time>2020-02-08T08:08:21.802Z</time>
      </trkpt>
      <trkpt lat="39.02358" lon="-0.31133333">
        <ele>323.973</ele>
        <time>2020-02-08T08:08:22.802Z</time>
      </trkpt>
      <trkpt lat="39.02358" lon="-0.31133333">
        <ele>323.973</ele>
        <time>2020-02-08T08:08:23.802Z</time>
      </trkpt>
      <trkpt lat="39.02351833" lon="-0.31144333">
        <ele>323.973</ele>
        <time>2020-02-08T08:08:24.802Z</time>
      </trkpt>
      <trkpt lat="39.02351833" lon="-0.31144333">
        <ele>323.973</ele>
        <time>2020-02-08T08:08:25.802Z</time>
      </trkpt>
      <trkpt lat="39.02345333" lon="-0.31154">
        <ele>323.973</ele>
        <time>2020-02-08T08:08:26.802Z</time>
      </trkpt>
      <trkpt lat="39.02345333" lon="-0.31154">
        <ele>323.973</ele>
        <time>2020-02-08T08:08:27.802Z</time>
      </trkpt>
      <trkpt lat="39.02339" lon="-0.31164">
        <ele>323.973</ele>
        <time>2020-02-08T08:08:28.802Z</time>
      </trkpt>
      <trkpt lat="39.02339" lon="-0.31164">
        <ele>323.973</ele>
        <time>2020-02-08T08:08:29.802Z</time>
      </trkpt>
      <trkpt lat="39.02334" lon="-0.31174167">
        <ele>323.973</ele>
        <time>2020-02-08T08:08:30.802Z</time>
      </trkpt>
      <trkpt lat="39.02334" lon="-0.31174167">
        <ele>323.973</ele>
        <time>2020-02-08T08:08:31.802Z</time>
      </trkpt>
      <trkpt lat="39.02330167" lon="-0.31187">
        <ele>323.973</ele>
        <time>2020-02-08T08:08:32.802Z</time>
      </trkpt>
      <trkpt lat="39.02330167" lon="-0.31187">
        <ele>323.973</ele>
        <time>2020-02-08T08:08:33.802Z</time>
      </trkpt>
      <trkpt lat="39.02327667" lon="-0.31199833">
        <ele>323.973</ele>
        <time>2020-02-08T08:08:34.802Z</time>
      </trkpt>
      <trkpt lat="39.02327667" lon="-0.31199833">
        <ele>323.973</ele>
        <time>2020-02-08T08:08:35.802Z</time>
      </trkpt>
      <trkpt lat="39.02325667" lon="-0.31212833">
        <ele>323.973</ele>
        <time>2020-02-08T08:08:36.802Z</time>
      </trkpt>
      <trkpt lat="39.02325667" lon="-0.31212833">
        <ele>323.973</ele>
        <time>2020-02-08T08:08:37.802Z</time>
      </trkpt>
      <trkpt lat="39.02324833" lon="-0.31225833">
        <ele>323.973</ele>
        <time>2020-02-08T08:08:38.802Z</time>
      </trkpt>
      <trkpt lat="39.02324833" lon="-0.31225833">
        <ele>323.973</ele>
        <time>2020-02-08T08:08:39.802Z</time>
      </trkpt>
      <trkpt lat="39.02324" lon="-0.3124">
        <ele>323.973</ele>
        <time>2020-02-08T08:08:40.802Z</time>
      </trkpt>
      <trkpt lat="39.02323333" lon="-0.31247833">
        <ele>323.973</ele>
        <time>2020-02-08T08:08:41.802Z</time>
      </trkpt>
      <trkpt lat="39.02322167" lon="-0.312555">
        <ele>323.973</ele>
        <time>2020-02-08T08:08:42.802Z</time>
      </trkpt>
      <trkpt lat="39.02322167" lon="-0.312555">
        <ele>323.973</ele>
        <time>2020-02-08T08:08:43.802Z</time>
      </trkpt>
      <trkpt lat="39.02318833" lon="-0.31269833">
        <ele>323.973</ele>
        <time>2020-02-08T08:08:44.802Z</time>
      </trkpt>
      <trkpt lat="39.02318833" lon="-0.31269833">
        <ele>323.973</ele>
        <time>2020-02-08T08:08:45.802Z</time>
      </trkpt>
      <trkpt lat="39.02315167" lon="-0.31283667">
        <ele>323.973</ele>
        <time>2020-02-08T08:08:46.802Z</time>
      </trkpt>
      <trkpt lat="39.02313333" lon="-0.31290667">
        <ele>323.973</ele>
        <time>2020-02-08T08:08:47.802Z</time>
      </trkpt>
      <trkpt lat="39.02311" lon="-0.31297833">
        <ele>323.973</ele>
        <time>2020-02-08T08:08:48.802Z</time>
      </trkpt>
      <trkpt lat="39.02311" lon="-0.31297833">
        <ele>323.973</ele>
        <time>2020-02-08T08:08:49.802Z</time>
      </trkpt>
      <trkpt lat="39.02305333" lon="-0.31311333">
        <ele>323.973</ele>
        <time>2020-02-08T08:08:50.802Z</time>
      </trkpt>
      <trkpt lat="39.02305333" lon="-0.31311333">
        <ele>323.973</ele>
        <time>2020-02-08T08:08:51.802Z</time>
      </trkpt>
      <trkpt lat="39.02299" lon="-0.31324333">
        <ele>322.973</ele>
        <time>2020-02-08T08:08:52.802Z</time>
      </trkpt>
      <trkpt lat="39.02299" lon="-0.31324333">
        <ele>322.973</ele>
        <time>2020-02-08T08:08:53.802Z</time>
      </trkpt>
      <trkpt lat="39.022915" lon="-0.31336833">
        <ele>322.973</ele>
        <time>2020-02-08T08:08:54.802Z</time>
      </trkpt>
      <trkpt lat="39.022915" lon="-0.31336833">
        <ele>322.973</ele>
        <time>2020-02-08T08:08:55.802Z</time>
      </trkpt>
      <trkpt lat="39.02284" lon="-0.31347667">
        <ele>322.973</ele>
        <time>2020-02-08T08:08:56.802Z</time>
      </trkpt>
      <trkpt lat="39.02284" lon="-0.31347667">
        <ele>322.973</ele>
        <time>2020-02-08T08:08:57.802Z</time>
      </trkpt>
      <trkpt lat="39.02276833" lon="-0.31358">
        <ele>322.973</ele>
        <time>2020-02-08T08:08:58.802Z</time>
      </trkpt>
      <trkpt lat="39.02276833" lon="-0.31358">
        <ele>322.973</ele>
        <time>2020-02-08T08:08:59.802Z</time>
      </trkpt>
      <trkpt lat="39.02270833" lon="-0.3137">
        <ele>322.973</ele>
        <time>2020-02-08T08:09:00.802Z</time>
      </trkpt>
      <trkpt lat="39.02270833" lon="-0.3137">
        <ele>322.973</ele>
        <time>2020-02-08T08:09:01.802Z</time>
      </trkpt>
      <trkpt lat="39.02267167" lon="-0.31382833">
        <ele>322.973</ele>
        <time>2020-02-08T08:09:02.802Z</time>
      </trkpt>
      <trkpt lat="39.02267167" lon="-0.31382833">
        <ele>322.973</ele>
        <time>2020-02-08T08:09:03.802Z</time>
      </trkpt>
      <trkpt lat="39.02263" lon="-0.31395667">
        <ele>322.973</ele>
        <time>2020-02-08T08:09:04.802Z</time>
      </trkpt>
      <trkpt lat="39.02260333" lon="-0.314015">
        <ele>322.973</ele>
        <time>2020-02-08T08:09:05.802Z</time>
      </trkpt>
      <trkpt lat="39.02256833" lon="-0.31407167">
        <ele>322.973</ele>
        <time>2020-02-08T08:09:06.802Z</time>
      </trkpt>
      <trkpt lat="39.02256833" lon="-0.31407167">
        <ele>322.973</ele>
        <time>2020-02-08T08:09:07.802Z</time>
      </trkpt>
      <trkpt lat="39.02248" lon="-0.31416333">
        <ele>322.973</ele>
        <time>2020-02-08T08:09:08.802Z</time>
      </trkpt>
      <trkpt lat="39.02248" lon="-0.31416333">
        <ele>322.973</ele>
        <time>2020-02-08T08:09:09.802Z</time>
      </trkpt>
      <trkpt lat="39.02238333" lon="-0.31424833">
        <ele>322.973</ele>
        <time>2020-02-08T08:09:10.802Z</time>
      </trkpt>
      <trkpt lat="39.02238333" lon="-0.31424833">
        <ele>322.973</ele>
        <time>2020-02-08T08:09:11.802Z</time>
      </trkpt>
      <trkpt lat="39.022285" lon="-0.314335">
        <ele>322.973</ele>
        <time>2020-02-08T08:09:12.802Z</time>
      </trkpt>
      <trkpt lat="39.022285" lon="-0.314335">
        <ele>322.973</ele>
        <time>2020-02-08T08:09:13.802Z</time>
      </trkpt>
      <trkpt lat="39.02218" lon="-0.31442833">
        <ele>322.973</ele>
        <time>2020-02-08T08:09:14.802Z</time>
      </trkpt>
      <trkpt lat="39.02212333" lon="-0.31447667">
        <ele>321.973</ele>
        <time>2020-02-08T08:09:15.802Z</time>
      </trkpt>
      <trkpt lat="39.02212333" lon="-0.31447667">
        <ele>321.973</ele>
        <time>2020-02-08T08:09:16.802Z</time>
      </trkpt>
      <trkpt lat="39.02200833" lon="-0.31457833">
        <ele>321.973</ele>
        <time>2020-02-08T08:09:17.802Z</time>
      </trkpt>
      <trkpt lat="39.02194833" lon="-0.31462333">
        <ele>321.973</ele>
        <time>2020-02-08T08:09:18.802Z</time>
      </trkpt>
      <trkpt lat="39.02194833" lon="-0.31462333">
        <ele>321.973</ele>
        <time>2020-02-08T08:09:19.802Z</time>
      </trkpt>
      <trkpt lat="39.02183833" lon="-0.314705">
        <ele>321.973</ele>
        <time>2020-02-08T08:09:20.802Z</time>
      </trkpt>
      <trkpt lat="39.02183833" lon="-0.314705">
        <ele>320.973</ele>
        <time>2020-02-08T08:09:21.802Z</time>
      </trkpt>
      <trkpt lat="39.02173667" lon="-0.31478167">
        <ele>320.973</ele>
        <time>2020-02-08T08:09:22.802Z</time>
      </trkpt>
      <trkpt lat="39.02173667" lon="-0.31478167">
        <ele>320.973</ele>
        <time>2020-02-08T08:09:23.802Z</time>
      </trkpt>
      <trkpt lat="39.02163333" lon="-0.31484833">
        <ele>320.973</ele>
        <time>2020-02-08T08:09:24.802Z</time>
      </trkpt>
      <trkpt lat="39.02158667" lon="-0.31487833">
        <ele>320.973</ele>
        <time>2020-02-08T08:09:25.802Z</time>
      </trkpt>
      <trkpt lat="39.02158667" lon="-0.31487833">
        <ele>320.973</ele>
        <time>2020-02-08T08:09:26.802Z</time>
      </trkpt>
      <trkpt lat="39.02149333" lon="-0.31494333">
        <ele>320.973</ele>
        <time>2020-02-08T08:09:27.802Z</time>
      </trkpt>
      <trkpt lat="39.02149333" lon="-0.31494333">
        <ele>320.973</ele>
        <time>2020-02-08T08:09:28.802Z</time>
      </trkpt>
      <trkpt lat="39.02141333" lon="-0.31500833">
        <ele>320.973</ele>
        <time>2020-02-08T08:09:29.802Z</time>
      </trkpt>
      <trkpt lat="39.02138167" lon="-0.31504167">
        <ele>320.973</ele>
        <time>2020-02-08T08:09:30.802Z</time>
      </trkpt>
      <trkpt lat="39.02138167" lon="-0.31504167">
        <ele>320.973</ele>
        <time>2020-02-08T08:09:31.802Z</time>
      </trkpt>
      <trkpt lat="39.02133667" lon="-0.31510333">
        <ele>320.973</ele>
        <time>2020-02-08T08:09:32.802Z</time>
      </trkpt>
      <trkpt lat="39.02133667" lon="-0.31510333">
        <ele>321.973</ele>
        <time>2020-02-08T08:09:33.802Z</time>
      </trkpt>
      <trkpt lat="39.02130833" lon="-0.315175">
        <ele>321.973</ele>
        <time>2020-02-08T08:09:34.802Z</time>
      </trkpt>
      <trkpt lat="39.02130833" lon="-0.315175">
        <ele>322.973</ele>
        <time>2020-02-08T08:09:35.802Z</time>
      </trkpt>
      <trkpt lat="39.02131167" lon="-0.31527167">
        <ele>322.973</ele>
        <time>2020-02-08T08:09:36.802Z</time>
      </trkpt>
      <trkpt lat="39.02131167" lon="-0.31527167">
        <ele>322.973</ele>
        <time>2020-02-08T08:09:37.802Z</time>
      </trkpt>
      <trkpt lat="39.02132667" lon="-0.31537167">
        <ele>322.973</ele>
        <time>2020-02-08T08:09:38.802Z</time>
      </trkpt>
      <trkpt lat="39.02132667" lon="-0.31537167">
        <ele>323.973</ele>
        <time>2020-02-08T08:09:39.802Z</time>
      </trkpt>
      <trkpt lat="39.02134167" lon="-0.315465">
        <ele>323.973</ele>
        <time>2020-02-08T08:09:40.802Z</time>
      </trkpt>
      <trkpt lat="39.02134167" lon="-0.315465">
        <ele>323.973</ele>
        <time>2020-02-08T08:09:41.802Z</time>
      </trkpt>
      <trkpt lat="39.02135167" lon="-0.315555">
        <ele>323.973</ele>
        <time>2020-02-08T08:09:42.802Z</time>
      </trkpt>
      <trkpt lat="39.02135167" lon="-0.315555">
        <ele>323.973</ele>
        <time>2020-02-08T08:09:43.802Z</time>
      </trkpt>
      <trkpt lat="39.02135667" lon="-0.31564667">
        <ele>323.973</ele>
        <time>2020-02-08T08:09:44.802Z</time>
      </trkpt>
      <trkpt lat="39.02135667" lon="-0.31564667">
        <ele>324.973</ele>
        <time>2020-02-08T08:09:45.802Z</time>
      </trkpt>
      <trkpt lat="39.02136833" lon="-0.31574333">
        <ele>324.973</ele>
        <time>2020-02-08T08:09:46.802Z</time>
      </trkpt>
      <trkpt lat="39.02136833" lon="-0.31574333">
        <ele>324.973</ele>
        <time>2020-02-08T08:09:47.802Z</time>
      </trkpt>
      <trkpt lat="39.02138167" lon="-0.31583833">
        <ele>324.973</ele>
        <time>2020-02-08T08:09:48.802Z</time>
      </trkpt>
      <trkpt lat="39.02138167" lon="-0.31583833">
        <ele>325.973</ele>
        <time>2020-02-08T08:09:49.802Z</time>
      </trkpt>
      <trkpt lat="39.02138667" lon="-0.31593167">
        <ele>325.973</ele>
        <time>2020-02-08T08:09:50.802Z</time>
      </trkpt>
      <trkpt lat="39.02138833" lon="-0.31597833">
        <ele>325.973</ele>
        <time>2020-02-08T08:09:51.802Z</time>
      </trkpt>
      <trkpt lat="39.02138833" lon="-0.31597833">
        <ele>325.973</ele>
        <time>2020-02-08T08:09:52.802Z</time>
      </trkpt>
      <trkpt lat="39.02138667" lon="-0.31607">
        <ele>326.973</ele>
        <time>2020-02-08T08:09:53.802Z</time>
      </trkpt>
      <trkpt lat="39.02138833" lon="-0.31611833">
        <ele>326.973</ele>
        <time>2020-02-08T08:09:54.802Z</time>
      </trkpt>
      <trkpt lat="39.02138833" lon="-0.31611833">
        <ele>326.973</ele>
        <time>2020-02-08T08:09:55.802Z</time>
      </trkpt>
      <trkpt lat="39.02139" lon="-0.316205">
        <ele>326.973</ele>
        <time>2020-02-08T08:09:56.802Z</time>
      </trkpt>
      <trkpt lat="39.02139" lon="-0.316205">
        <ele>326.973</ele>
        <time>2020-02-08T08:09:57.802Z</time>
      </trkpt>
      <trkpt lat="39.02139167" lon="-0.31628667">
        <ele>327.973</ele>
        <time>2020-02-08T08:09:58.802Z</time>
      </trkpt>
      <trkpt lat="39.02139167" lon="-0.31628667">
        <ele>327.973</ele>
        <time>2020-02-08T08:09:59.802Z</time>
      </trkpt>
      <trkpt lat="39.02139" lon="-0.31636333">
        <ele>327.973</ele>
        <time>2020-02-08T08:10:00.802Z</time>
      </trkpt>
      <trkpt lat="39.02138833" lon="-0.31640167">
        <ele>327.973</ele>
        <time>2020-02-08T08:10:01.802Z</time>
      </trkpt>
      <trkpt lat="39.02138833" lon="-0.31640167">
        <ele>327.973</ele>
        <time>2020-02-08T08:10:02.802Z</time>
      </trkpt>
      <trkpt lat="39.02138333" lon="-0.31647833">
        <ele>328.973</ele>
        <time>2020-02-08T08:10:03.802Z</time>
      </trkpt>
      <trkpt lat="39.02138333" lon="-0.31647833">
        <ele>328.973</ele>
        <time>2020-02-08T08:10:04.802Z</time>
      </trkpt>
      <trkpt lat="39.02137667" lon="-0.31656167">
        <ele>328.973</ele>
        <time>2020-02-08T08:10:05.802Z</time>
      </trkpt>
      <trkpt lat="39.02138167" lon="-0.31660167">
        <ele>328.973</ele>
        <time>2020-02-08T08:10:06.802Z</time>
      </trkpt>
      <trkpt lat="39.02138167" lon="-0.31660167">
        <ele>329.973</ele>
        <time>2020-02-08T08:10:07.802Z</time>
      </trkpt>
      <trkpt lat="39.02137333" lon="-0.31667833">
        <ele>329.973</ele>
        <time>2020-02-08T08:10:08.802Z</time>
      </trkpt>
      <trkpt lat="39.02137333" lon="-0.31667833">
        <ele>329.973</ele>
        <time>2020-02-08T08:10:09.802Z</time>
      </trkpt>
      <trkpt lat="39.02137167" lon="-0.31675833">
        <ele>329.973</ele>
        <time>2020-02-08T08:10:10.802Z</time>
      </trkpt>
      <trkpt lat="39.02137167" lon="-0.31675833">
        <ele>329.973</ele>
        <time>2020-02-08T08:10:11.802Z</time>
      </trkpt>
      <trkpt lat="39.02137833" lon="-0.31683667">
        <ele>329.973</ele>
        <time>2020-02-08T08:10:12.802Z</time>
      </trkpt>
      <trkpt lat="39.02137833" lon="-0.31683667">
        <ele>330.973</ele>
        <time>2020-02-08T08:10:13.802Z</time>
      </trkpt>
      <trkpt lat="39.02139" lon="-0.31691667">
        <ele>330.973</ele>
        <time>2020-02-08T08:10:14.802Z</time>
      </trkpt>
      <trkpt lat="39.02139" lon="-0.31691667">
        <ele>331.973</ele>
        <time>2020-02-08T08:10:15.802Z</time>
      </trkpt>
      <trkpt lat="39.02139833" lon="-0.316995">
        <ele>331.973</ele>
        <time>2020-02-08T08:10:16.802Z</time>
      </trkpt>
      <trkpt lat="39.02139833" lon="-0.316995">
        <ele>331.973</ele>
        <time>2020-02-08T08:10:17.802Z</time>
      </trkpt>
      <trkpt lat="39.02139667" lon="-0.31706667">
        <ele>331.973</ele>
        <time>2020-02-08T08:10:18.802Z</time>
      </trkpt>
      <trkpt lat="39.02139667" lon="-0.31706667">
        <ele>332.973</ele>
        <time>2020-02-08T08:10:19.802Z</time>
      </trkpt>
      <trkpt lat="39.02138167" lon="-0.31714">
        <ele>332.973</ele>
        <time>2020-02-08T08:10:20.802Z</time>
      </trkpt>
      <trkpt lat="39.02138167" lon="-0.31714">
        <ele>332.973</ele>
        <time>2020-02-08T08:10:21.802Z</time>
      </trkpt>
      <trkpt lat="39.02136167" lon="-0.31719667">
        <ele>332.973</ele>
        <time>2020-02-08T08:10:22.802Z</time>
      </trkpt>
      <trkpt lat="39.02136167" lon="-0.31719667">
        <ele>333.973</ele>
        <time>2020-02-08T08:10:23.802Z</time>
      </trkpt>
      <trkpt lat="39.02133333" lon="-0.317245">
        <ele>333.973</ele>
        <time>2020-02-08T08:10:24.802Z</time>
      </trkpt>
      <trkpt lat="39.02133333" lon="-0.317245">
        <ele>333.973</ele>
        <time>2020-02-08T08:10:25.802Z</time>
      </trkpt>
      <trkpt lat="39.02129667" lon="-0.31729">
        <ele>333.973</ele>
        <time>2020-02-08T08:10:26.802Z</time>
      </trkpt>
      <trkpt lat="39.02129667" lon="-0.31729">
        <ele>334.973</ele>
        <time>2020-02-08T08:10:27.802Z</time>
      </trkpt>
      <trkpt lat="39.02125667" lon="-0.31734">
        <ele>335.973</ele>
        <time>2020-02-08T08:10:28.802Z</time>
      </trkpt>
      <trkpt lat="39.02125667" lon="-0.31734">
        <ele>335.973</ele>
        <time>2020-02-08T08:10:29.802Z</time>
      </trkpt>
      <trkpt lat="39.02122667" lon="-0.31740667">
        <ele>335.973</ele>
        <time>2020-02-08T08:10:30.802Z</time>
      </trkpt>
      <trkpt lat="39.02122667" lon="-0.31740667">
        <ele>335.973</ele>
        <time>2020-02-08T08:10:31.802Z</time>
      </trkpt>
      <trkpt lat="39.0212" lon="-0.31747667">
        <ele>336.973</ele>
        <time>2020-02-08T08:10:32.802Z</time>
      </trkpt>
      <trkpt lat="39.0212" lon="-0.31747667">
        <ele>336.973</ele>
        <time>2020-02-08T08:10:33.802Z</time>
      </trkpt>
      <trkpt lat="39.02118167" lon="-0.31756333">
        <ele>336.973</ele>
        <time>2020-02-08T08:10:34.802Z</time>
      </trkpt>
      <trkpt lat="39.02118167" lon="-0.31756333">
        <ele>336.973</ele>
        <time>2020-02-08T08:10:35.802Z</time>
      </trkpt>
      <trkpt lat="39.02116833" lon="-0.31764333">
        <ele>338.973</ele>
        <time>2020-02-08T08:10:36.802Z</time>
      </trkpt>
      <trkpt lat="39.02116833" lon="-0.31764333">
        <ele>338.973</ele>
        <time>2020-02-08T08:10:37.802Z</time>
      </trkpt>
      <trkpt lat="39.02118667" lon="-0.31772833">
        <ele>338.973</ele>
        <time>2020-02-08T08:10:38.802Z</time>
      </trkpt>
      <trkpt lat="39.02118667" lon="-0.31772833">
        <ele>338.973</ele>
        <time>2020-02-08T08:10:39.802Z</time>
      </trkpt>
      <trkpt lat="39.02121833" lon="-0.31779333">
        <ele>338.973</ele>
        <time>2020-02-08T08:10:40.802Z</time>
      </trkpt>
      <trkpt lat="39.02121833" lon="-0.31779333">
        <ele>338.973</ele>
        <time>2020-02-08T08:10:41.802Z</time>
      </trkpt>
      <trkpt lat="39.02124833" lon="-0.31787">
        <ele>339.973</ele>
        <time>2020-02-08T08:10:42.802Z</time>
      </trkpt>
      <trkpt lat="39.02124833" lon="-0.31787">
        <ele>339.973</ele>
        <time>2020-02-08T08:10:43.802Z</time>
      </trkpt>
      <trkpt lat="39.02126833" lon="-0.31793833">
        <ele>339.973</ele>
        <time>2020-02-08T08:10:44.802Z</time>
      </trkpt>
      <trkpt lat="39.02126833" lon="-0.31793833">
        <ele>339.973</ele>
        <time>2020-02-08T08:10:45.802Z</time>
      </trkpt>
      <trkpt lat="39.02127833" lon="-0.318005">
        <ele>340.973</ele>
        <time>2020-02-08T08:10:46.802Z</time>
      </trkpt>
      <trkpt lat="39.02127833" lon="-0.318005">
        <ele>340.973</ele>
        <time>2020-02-08T08:10:47.802Z</time>
      </trkpt>
      <trkpt lat="39.021285" lon="-0.31807">
        <ele>340.973</ele>
        <time>2020-02-08T08:10:48.802Z</time>
      </trkpt>
      <trkpt lat="39.021285" lon="-0.31807">
        <ele>340.973</ele>
        <time>2020-02-08T08:10:49.802Z</time>
      </trkpt>
      <trkpt lat="39.02129333" lon="-0.31813167">
        <ele>340.973</ele>
        <time>2020-02-08T08:10:50.802Z</time>
      </trkpt>
      <trkpt lat="39.02129333" lon="-0.31813167">
        <ele>340.973</ele>
        <time>2020-02-08T08:10:51.802Z</time>
      </trkpt>
      <trkpt lat="39.021305" lon="-0.31820167">
        <ele>340.973</ele>
        <time>2020-02-08T08:10:52.802Z</time>
      </trkpt>
      <trkpt lat="39.021305" lon="-0.31820167">
        <ele>340.973</ele>
        <time>2020-02-08T08:10:53.802Z</time>
      </trkpt>
      <trkpt lat="39.02131833" lon="-0.31826833">
        <ele>341.973</ele>
        <time>2020-02-08T08:10:54.802Z</time>
      </trkpt>
      <trkpt lat="39.02131833" lon="-0.31826833">
        <ele>341.973</ele>
        <time>2020-02-08T08:10:55.802Z</time>
      </trkpt>
      <trkpt lat="39.02133167" lon="-0.31833833">
        <ele>341.973</ele>
        <time>2020-02-08T08:10:56.802Z</time>
      </trkpt>
      <trkpt lat="39.02133167" lon="-0.31833833">
        <ele>342.973</ele>
        <time>2020-02-08T08:10:57.802Z</time>
      </trkpt>
      <trkpt lat="39.02135" lon="-0.31841">
        <ele>342.973</ele>
        <time>2020-02-08T08:10:58.802Z</time>
      </trkpt>
      <trkpt lat="39.021355" lon="-0.31844667">
        <ele>342.973</ele>
        <time>2020-02-08T08:10:59.802Z</time>
      </trkpt>
      <trkpt lat="39.02136167" lon="-0.31848167">
        <ele>342.973</ele>
        <time>2020-02-08T08:11:00.802Z</time>
      </trkpt>
      <trkpt lat="39.02136167" lon="-0.31848167">
        <ele>342.973</ele>
        <time>2020-02-08T08:11:01.802Z</time>
      </trkpt>
      <trkpt lat="39.02137667" lon="-0.318555">
        <ele>342.973</ele>
        <time>2020-02-08T08:11:02.802Z</time>
      </trkpt>
      <trkpt lat="39.02137667" lon="-0.318555">
        <ele>343.973</ele>
        <time>2020-02-08T08:11:03.802Z</time>
      </trkpt>
      <trkpt lat="39.02139167" lon="-0.31862">
        <ele>343.973</ele>
        <time>2020-02-08T08:11:04.802Z</time>
      </trkpt>
      <trkpt lat="39.02140333" lon="-0.31866167">
        <ele>343.973</ele>
        <time>2020-02-08T08:11:05.802Z</time>
      </trkpt>
      <trkpt lat="39.02141167" lon="-0.31869667">
        <ele>343.973</ele>
        <time>2020-02-08T08:11:06.802Z</time>
      </trkpt>
      <trkpt lat="39.02141167" lon="-0.31869667">
        <ele>343.973</ele>
        <time>2020-02-08T08:11:07.802Z</time>
      </trkpt>
      <trkpt lat="39.02142333" lon="-0.31876167">
        <ele>343.973</ele>
        <time>2020-02-08T08:11:08.802Z</time>
      </trkpt>
      <trkpt lat="39.02142333" lon="-0.31876167">
        <ele>344.973</ele>
        <time>2020-02-08T08:11:09.802Z</time>
      </trkpt>
      <trkpt lat="39.02143333" lon="-0.31882833">
        <ele>344.973</ele>
        <time>2020-02-08T08:11:10.802Z</time>
      </trkpt>
      <trkpt lat="39.02143333" lon="-0.31882833">
        <ele>344.973</ele>
        <time>2020-02-08T08:11:11.802Z</time>
      </trkpt>
      <trkpt lat="39.02145167" lon="-0.31889167">
        <ele>344.973</ele>
        <time>2020-02-08T08:11:12.802Z</time>
      </trkpt>
      <trkpt lat="39.02145167" lon="-0.31889167">
        <ele>345.973</ele>
        <time>2020-02-08T08:11:13.802Z</time>
      </trkpt>
      <trkpt lat="39.02146667" lon="-0.31894667">
        <ele>345.973</ele>
        <time>2020-02-08T08:11:14.802Z</time>
      </trkpt>
      <trkpt lat="39.02146667" lon="-0.31894667">
        <ele>345.973</ele>
        <time>2020-02-08T08:11:15.802Z</time>
      </trkpt>
      <trkpt lat="39.02147667" lon="-0.319">
        <ele>345.973</ele>
        <time>2020-02-08T08:11:16.802Z</time>
      </trkpt>
      <trkpt lat="39.02147833" lon="-0.31902833">
        <ele>345.973</ele>
        <time>2020-02-08T08:11:17.802Z</time>
      </trkpt>
      <trkpt lat="39.02147833" lon="-0.319055">
        <ele>345.973</ele>
        <time>2020-02-08T08:11:18.802Z</time>
      </trkpt>
      <trkpt lat="39.02147833" lon="-0.319055">
        <ele>346.973</ele>
        <time>2020-02-08T08:11:19.802Z</time>
      </trkpt>
      <trkpt lat="39.02146333" lon="-0.319105">
        <ele>346.973</ele>
        <time>2020-02-08T08:11:20.802Z</time>
      </trkpt>
      <trkpt lat="39.02146333" lon="-0.319105">
        <ele>346.973</ele>
        <time>2020-02-08T08:11:21.802Z</time>
      </trkpt>
      <trkpt lat="39.02143667" lon="-0.319165">
        <ele>346.973</ele>
        <time>2020-02-08T08:11:22.802Z</time>
      </trkpt>
      <trkpt lat="39.02141667" lon="-0.319195">
        <ele>347.973</ele>
        <time>2020-02-08T08:11:23.802Z</time>
      </trkpt>
      <trkpt lat="39.021395" lon="-0.319225">
        <ele>347.973</ele>
        <time>2020-02-08T08:11:24.802Z</time>
      </trkpt>
      <trkpt lat="39.021395" lon="-0.319225">
        <ele>347.973</ele>
        <time>2020-02-08T08:11:25.802Z</time>
      </trkpt>
      <trkpt lat="39.02134667" lon="-0.31927833">
        <ele>347.973</ele>
        <time>2020-02-08T08:11:26.802Z</time>
      </trkpt>
      <trkpt lat="39.02134667" lon="-0.31927833">
        <ele>347.973</ele>
        <time>2020-02-08T08:11:27.802Z</time>
      </trkpt>
      <trkpt lat="39.021285" lon="-0.31930167">
        <ele>347.973</ele>
        <time>2020-02-08T08:11:28.802Z</time>
      </trkpt>
      <trkpt lat="39.021285" lon="-0.31930167">
        <ele>347.973</ele>
        <time>2020-02-08T08:11:29.802Z</time>
      </trkpt>
      <trkpt lat="39.02123" lon="-0.31933667">
        <ele>347.973</ele>
        <time>2020-02-08T08:11:30.802Z</time>
      </trkpt>
      <trkpt lat="39.02123" lon="-0.31933667">
        <ele>347.973</ele>
        <time>2020-02-08T08:11:31.802Z</time>
      </trkpt>
      <trkpt lat="39.02117333" lon="-0.31937833">
        <ele>347.973</ele>
        <time>2020-02-08T08:11:32.802Z</time>
      </trkpt>
      <trkpt lat="39.02117333" lon="-0.31937833">
        <ele>347.973</ele>
        <time>2020-02-08T08:11:33.802Z</time>
      </trkpt>
      <trkpt lat="39.02113" lon="-0.31942333">
        <ele>348.973</ele>
        <time>2020-02-08T08:11:34.802Z</time>
      </trkpt>
      <trkpt lat="39.02113" lon="-0.31942333">
        <ele>348.973</ele>
        <time>2020-02-08T08:11:35.802Z</time>
      </trkpt>
      <trkpt lat="39.02109" lon="-0.31945833">
        <ele>348.973</ele>
        <time>2020-02-08T08:11:36.802Z</time>
      </trkpt>
      <trkpt lat="39.02109" lon="-0.31945833">
        <ele>348.973</ele>
        <time>2020-02-08T08:11:37.802Z</time>
      </trkpt>
      <trkpt lat="39.02104" lon="-0.31948667">
        <ele>348.973</ele>
        <time>2020-02-08T08:11:38.802Z</time>
      </trkpt>
      <trkpt lat="39.02104" lon="-0.31948667">
        <ele>348.973</ele>
        <time>2020-02-08T08:11:39.802Z</time>
      </trkpt>
      <trkpt lat="39.02098167" lon="-0.31950833">
        <ele>348.973</ele>
        <time>2020-02-08T08:11:40.802Z</time>
      </trkpt>
      <trkpt lat="39.02098167" lon="-0.31950833">
        <ele>348.973</ele>
        <time>2020-02-08T08:11:41.802Z</time>
      </trkpt>
      <trkpt lat="39.020925" lon="-0.31953167">
        <ele>349.973</ele>
        <time>2020-02-08T08:11:42.802Z</time>
      </trkpt>
      <trkpt lat="39.020925" lon="-0.31953167">
        <ele>349.973</ele>
        <time>2020-02-08T08:11:43.802Z</time>
      </trkpt>
      <trkpt lat="39.02086667" lon="-0.319585">
        <ele>349.973</ele>
        <time>2020-02-08T08:11:44.802Z</time>
      </trkpt>
      <trkpt lat="39.02086667" lon="-0.319585">
        <ele>349.973</ele>
        <time>2020-02-08T08:11:45.802Z</time>
      </trkpt>
      <trkpt lat="39.02081833" lon="-0.31965833">
        <ele>349.973</ele>
        <time>2020-02-08T08:11:46.802Z</time>
      </trkpt>
      <trkpt lat="39.020795" lon="-0.31969833">
        <ele>349.973</ele>
        <time>2020-02-08T08:11:47.802Z</time>
      </trkpt>
      <trkpt lat="39.02077167" lon="-0.31974">
        <ele>349.973</ele>
        <time>2020-02-08T08:11:48.802Z</time>
      </trkpt>
      <trkpt lat="39.02077167" lon="-0.31974">
        <ele>349.973</ele>
        <time>2020-02-08T08:11:49.802Z</time>
      </trkpt>
      <trkpt lat="39.020725" lon="-0.31981167">
        <ele>349.973</ele>
        <time>2020-02-08T08:11:50.802Z</time>
      </trkpt>
      <trkpt lat="39.020725" lon="-0.31981167">
        <ele>349.973</ele>
        <time>2020-02-08T08:11:51.802Z</time>
      </trkpt>
      <trkpt lat="39.02068167" lon="-0.31987167">
        <ele>349.973</ele>
        <time>2020-02-08T08:11:52.802Z</time>
      </trkpt>
      <trkpt lat="39.02068167" lon="-0.31987167">
        <ele>349.973</ele>
        <time>2020-02-08T08:11:53.802Z</time>
      </trkpt>
      <trkpt lat="39.02063167" lon="-0.31992167">
        <ele>349.973</ele>
        <time>2020-02-08T08:11:54.802Z</time>
      </trkpt>
      <trkpt lat="39.02063167" lon="-0.31992167">
        <ele>349.973</ele>
        <time>2020-02-08T08:11:55.802Z</time>
      </trkpt>
      <trkpt lat="39.020575" lon="-0.31995333">
        <ele>349.973</ele>
        <time>2020-02-08T08:11:56.802Z</time>
      </trkpt>
      <trkpt lat="39.020575" lon="-0.31995333">
        <ele>349.973</ele>
        <time>2020-02-08T08:11:57.802Z</time>
      </trkpt>
      <trkpt lat="39.02051167" lon="-0.31998">
        <ele>349.973</ele>
        <time>2020-02-08T08:11:58.802Z</time>
      </trkpt>
      <trkpt lat="39.02051167" lon="-0.31998">
        <ele>349.973</ele>
        <time>2020-02-08T08:11:59.802Z</time>
      </trkpt>
      <trkpt lat="39.020435" lon="-0.32">
        <ele>349.973</ele>
        <time>2020-02-08T08:12:00.802Z</time>
      </trkpt>
      <trkpt lat="39.020435" lon="-0.32">
        <ele>350.973</ele>
        <time>2020-02-08T08:12:01.802Z</time>
      </trkpt>
      <trkpt lat="39.02036333" lon="-0.32003333">
        <ele>350.973</ele>
        <time>2020-02-08T08:12:02.802Z</time>
      </trkpt>
      <trkpt lat="39.02036333" lon="-0.32003333">
        <ele>350.973</ele>
        <time>2020-02-08T08:12:03.802Z</time>
      </trkpt>
      <trkpt lat="39.02029333" lon="-0.32006167">
        <ele>350.973</ele>
        <time>2020-02-08T08:12:04.802Z</time>
      </trkpt>
      <trkpt lat="39.02029333" lon="-0.32006167">
        <ele>350.973</ele>
        <time>2020-02-08T08:12:05.802Z</time>
      </trkpt>
      <trkpt lat="39.02022167" lon="-0.32007833">
        <ele>350.973</ele>
        <time>2020-02-08T08:12:06.802Z</time>
      </trkpt>
      <trkpt lat="39.02022167" lon="-0.32007833">
        <ele>350.973</ele>
        <time>2020-02-08T08:12:07.802Z</time>
      </trkpt>
      <trkpt lat="39.02016167" lon="-0.32008">
        <ele>350.973</ele>
        <time>2020-02-08T08:12:08.802Z</time>
      </trkpt>
      <trkpt lat="39.02016167" lon="-0.32008">
        <ele>350.973</ele>
        <time>2020-02-08T08:12:09.802Z</time>
      </trkpt>
      <trkpt lat="39.02009667" lon="-0.32008167">
        <ele>350.973</ele>
        <time>2020-02-08T08:12:10.802Z</time>
      </trkpt>
      <trkpt lat="39.02009667" lon="-0.32008167">
        <ele>350.973</ele>
        <time>2020-02-08T08:12:11.802Z</time>
      </trkpt>
      <trkpt lat="39.02003667" lon="-0.320085">
        <ele>350.973</ele>
        <time>2020-02-08T08:12:12.802Z</time>
      </trkpt>
      <trkpt lat="39.02003667" lon="-0.320085">
        <ele>350.973</ele>
        <time>2020-02-08T08:12:13.802Z</time>
      </trkpt>
      <trkpt lat="39.01998" lon="-0.320085">
        <ele>350.973</ele>
        <time>2020-02-08T08:12:14.802Z</time>
      </trkpt>
      <trkpt lat="39.01998" lon="-0.320085">
        <ele>350.973</ele>
        <time>2020-02-08T08:12:15.802Z</time>
      </trkpt>
      <trkpt lat="39.019915" lon="-0.32008167">
        <ele>350.973</ele>
        <time>2020-02-08T08:12:16.802Z</time>
      </trkpt>
      <trkpt lat="39.019915" lon="-0.32008167">
        <ele>350.973</ele>
        <time>2020-02-08T08:12:17.802Z</time>
      </trkpt>
      <trkpt lat="39.01984333" lon="-0.32009667">
        <ele>350.973</ele>
        <time>2020-02-08T08:12:18.802Z</time>
      </trkpt>
      <trkpt lat="39.01984333" lon="-0.32009667">
        <ele>351.973</ele>
        <time>2020-02-08T08:12:19.802Z</time>
      </trkpt>
      <trkpt lat="39.01977333" lon="-0.32012">
        <ele>351.973</ele>
        <time>2020-02-08T08:12:20.802Z</time>
      </trkpt>
      <trkpt lat="39.01977333" lon="-0.32012">
        <ele>351.973</ele>
        <time>2020-02-08T08:12:21.802Z</time>
      </trkpt>
      <trkpt lat="39.019705" lon="-0.32015167">
        <ele>351.973</ele>
        <time>2020-02-08T08:12:22.802Z</time>
      </trkpt>
      <trkpt lat="39.019705" lon="-0.32015167">
        <ele>351.973</ele>
        <time>2020-02-08T08:12:23.802Z</time>
      </trkpt>
      <trkpt lat="39.01964167" lon="-0.32019167">
        <ele>351.973</ele>
        <time>2020-02-08T08:12:24.802Z</time>
      </trkpt>
      <trkpt lat="39.01961" lon="-0.32020667">
        <ele>351.973</ele>
        <time>2020-02-08T08:12:25.802Z</time>
      </trkpt>
      <trkpt lat="39.01961" lon="-0.32020667">
        <ele>351.973</ele>
        <time>2020-02-08T08:12:26.802Z</time>
      </trkpt>
      <trkpt lat="39.01955" lon="-0.32023333">
        <ele>351.973</ele>
        <time>2020-02-08T08:12:27.802Z</time>
      </trkpt>
      <trkpt lat="39.019525" lon="-0.32025333">
        <ele>351.973</ele>
        <time>2020-02-08T08:12:28.802Z</time>
      </trkpt>
      <trkpt lat="39.01950167" lon="-0.32026667">
        <ele>351.973</ele>
        <time>2020-02-08T08:12:29.802Z</time>
      </trkpt>
      <trkpt lat="39.01947333" lon="-0.32027833">
        <ele>352.973</ele>
        <time>2020-02-08T08:12:30.802Z</time>
      </trkpt>
      <trkpt lat="39.01947333" lon="-0.32027833">
        <ele>352.973</ele>
        <time>2020-02-08T08:12:31.802Z</time>
      </trkpt>
      <trkpt lat="39.01941167" lon="-0.32031">
        <ele>352.973</ele>
        <time>2020-02-08T08:12:32.802Z</time>
      </trkpt>
      <trkpt lat="39.01938" lon="-0.320325">
        <ele>352.973</ele>
        <time>2020-02-08T08:12:33.802Z</time>
      </trkpt>
      <trkpt lat="39.01938" lon="-0.320325">
        <ele>353.973</ele>
        <time>2020-02-08T08:12:34.802Z</time>
      </trkpt>
      <trkpt lat="39.019315" lon="-0.32034833">
        <ele>353.973</ele>
        <time>2020-02-08T08:12:35.802Z</time>
      </trkpt>
      <trkpt lat="39.019285" lon="-0.32036">
        <ele>353.973</ele>
        <time>2020-02-08T08:12:36.802Z</time>
      </trkpt>
      <trkpt lat="39.019255" lon="-0.32037">
        <ele>353.973</ele>
        <time>2020-02-08T08:12:37.802Z</time>
      </trkpt>
      <trkpt lat="39.019255" lon="-0.32037">
        <ele>353.973</ele>
        <time>2020-02-08T08:12:38.802Z</time>
      </trkpt>
      <trkpt lat="39.01919167" lon="-0.32038833">
        <ele>353.973</ele>
        <time>2020-02-08T08:12:39.802Z</time>
      </trkpt>
      <trkpt lat="39.01916" lon="-0.32039667">
        <ele>353.973</ele>
        <time>2020-02-08T08:12:40.802Z</time>
      </trkpt>
      <trkpt lat="39.01916" lon="-0.32039667">
        <ele>353.973</ele>
        <time>2020-02-08T08:12:41.802Z</time>
      </trkpt>
      <trkpt lat="39.01909667" lon="-0.3204">
        <ele>354.973</ele>
        <time>2020-02-08T08:12:42.802Z</time>
      </trkpt>
      <trkpt lat="39.01909667" lon="-0.3204">
        <ele>354.973</ele>
        <time>2020-02-08T08:12:43.802Z</time>
      </trkpt>
      <trkpt lat="39.01903833" lon="-0.32039667">
        <ele>354.973</ele>
        <time>2020-02-08T08:12:44.802Z</time>
      </trkpt>
      <trkpt lat="39.01903833" lon="-0.32039667">
        <ele>354.973</ele>
        <time>2020-02-08T08:12:45.802Z</time>
      </trkpt>
      <trkpt lat="39.01898" lon="-0.32039">
        <ele>355.973</ele>
        <time>2020-02-08T08:12:46.802Z</time>
      </trkpt>
      <trkpt lat="39.01898" lon="-0.32039">
        <ele>355.973</ele>
        <time>2020-02-08T08:12:47.802Z</time>
      </trkpt>
      <trkpt lat="39.01892333" lon="-0.32042">
        <ele>355.973</ele>
        <time>2020-02-08T08:12:48.802Z</time>
      </trkpt>
      <trkpt lat="39.0189" lon="-0.32044833">
        <ele>355.973</ele>
        <time>2020-02-08T08:12:49.802Z</time>
      </trkpt>
      <trkpt lat="39.01888" lon="-0.32048">
        <ele>356.973</ele>
        <time>2020-02-08T08:12:50.802Z</time>
      </trkpt>
      <trkpt lat="39.01888" lon="-0.32048">
        <ele>356.973</ele>
        <time>2020-02-08T08:12:51.802Z</time>
      </trkpt>
      <trkpt lat="39.01884167" lon="-0.32053333">
        <ele>356.973</ele>
        <time>2020-02-08T08:12:52.802Z</time>
      </trkpt>
      <trkpt lat="39.018825" lon="-0.32056167">
        <ele>356.973</ele>
        <time>2020-02-08T08:12:53.802Z</time>
      </trkpt>
      <trkpt lat="39.01879833" lon="-0.320585">
        <ele>357.973</ele>
        <time>2020-02-08T08:12:54.802Z</time>
      </trkpt>
      <trkpt lat="39.01878" lon="-0.32061167">
        <ele>357.973</ele>
        <time>2020-02-08T08:12:55.802Z</time>
      </trkpt>
      <trkpt lat="39.01878" lon="-0.32061167">
        <ele>357.973</ele>
        <time>2020-02-08T08:12:56.802Z</time>
      </trkpt>
      <trkpt lat="39.01873333" lon="-0.32066333">
        <ele>357.973</ele>
        <time>2020-02-08T08:12:57.802Z</time>
      </trkpt>
      <trkpt lat="39.01871167" lon="-0.32068667">
        <ele>357.973</ele>
        <time>2020-02-08T08:12:58.802Z</time>
      </trkpt>
      <trkpt lat="39.01871167" lon="-0.32068667">
        <ele>358.973</ele>
        <time>2020-02-08T08:12:59.802Z</time>
      </trkpt>
      <trkpt lat="39.01866333" lon="-0.32072667">
        <ele>358.973</ele>
        <time>2020-02-08T08:13:00.802Z</time>
      </trkpt>
      <trkpt lat="39.01864167" lon="-0.32074667">
        <ele>358.973</ele>
        <time>2020-02-08T08:13:01.802Z</time>
      </trkpt>
      <trkpt lat="39.01862333" lon="-0.32077167">
        <ele>358.973</ele>
        <time>2020-02-08T08:13:02.802Z</time>
      </trkpt>
      <trkpt lat="39.01860333" lon="-0.3208">
        <ele>358.973</ele>
        <time>2020-02-08T08:13:03.802Z</time>
      </trkpt>
      <trkpt lat="39.01860333" lon="-0.3208">
        <ele>358.973</ele>
        <time>2020-02-08T08:13:04.802Z</time>
      </trkpt>
      <trkpt lat="39.01855667" lon="-0.32085833">
        <ele>359.973</ele>
        <time>2020-02-08T08:13:05.802Z</time>
      </trkpt>
      <trkpt lat="39.01855667" lon="-0.32085833">
        <ele>359.973</ele>
        <time>2020-02-08T08:13:06.802Z</time>
      </trkpt>
      <trkpt lat="39.01851667" lon="-0.32091333">
        <ele>359.973</ele>
        <time>2020-02-08T08:13:07.802Z</time>
      </trkpt>
      <trkpt lat="39.0185" lon="-0.32094">
        <ele>359.973</ele>
        <time>2020-02-08T08:13:08.802Z</time>
      </trkpt>
      <trkpt lat="39.0185" lon="-0.32094">
        <ele>360.973</ele>
        <time>2020-02-08T08:13:09.802Z</time>
      </trkpt>
      <trkpt lat="39.018465" lon="-0.32100833">
        <ele>360.973</ele>
        <time>2020-02-08T08:13:10.802Z</time>
      </trkpt>
      <trkpt lat="39.018465" lon="-0.32100833">
        <ele>360.973</ele>
        <time>2020-02-08T08:13:11.802Z</time>
      </trkpt>
      <trkpt lat="39.018435" lon="-0.32106667">
        <ele>360.973</ele>
        <time>2020-02-08T08:13:12.802Z</time>
      </trkpt>
      <trkpt lat="39.018435" lon="-0.32106667">
        <ele>362.973</ele>
        <time>2020-02-08T08:13:13.802Z</time>
      </trkpt>
      <trkpt lat="39.01840833" lon="-0.32111667">
        <ele>362.973</ele>
        <time>2020-02-08T08:13:14.802Z</time>
      </trkpt>
      <trkpt lat="39.01840833" lon="-0.32111667">
        <ele>362.973</ele>
        <time>2020-02-08T08:13:15.802Z</time>
      </trkpt>
      <trkpt lat="39.01838833" lon="-0.32116667">
        <ele>362.973</ele>
        <time>2020-02-08T08:13:16.802Z</time>
      </trkpt>
      <trkpt lat="39.01837167" lon="-0.32119167">
        <ele>363.973</ele>
        <time>2020-02-08T08:13:17.802Z</time>
      </trkpt>
      <trkpt lat="39.01837167" lon="-0.32119167">
        <ele>363.973</ele>
        <time>2020-02-08T08:13:18.802Z</time>
      </trkpt>
      <trkpt lat="39.01833667" lon="-0.32123333">
        <ele>363.973</ele>
        <time>2020-02-08T08:13:19.802Z</time>
      </trkpt>
      <trkpt lat="39.01833667" lon="-0.32123333">
        <ele>363.973</ele>
        <time>2020-02-08T08:13:20.802Z</time>
      </trkpt>
      <trkpt lat="39.01830167" lon="-0.32127833">
        <ele>364.973</ele>
        <time>2020-02-08T08:13:21.802Z</time>
      </trkpt>
      <trkpt lat="39.01830167" lon="-0.32127833">
        <ele>364.973</ele>
        <time>2020-02-08T08:13:22.802Z</time>
      </trkpt>
      <trkpt lat="39.01825833" lon="-0.32132167">
        <ele>364.973</ele>
        <time>2020-02-08T08:13:23.802Z</time>
      </trkpt>
      <trkpt lat="39.01823167" lon="-0.321345">
        <ele>365.973</ele>
        <time>2020-02-08T08:13:24.802Z</time>
      </trkpt>
      <trkpt lat="39.01823167" lon="-0.321345">
        <ele>365.973</ele>
        <time>2020-02-08T08:13:25.802Z</time>
      </trkpt>
      <trkpt lat="39.01818667" lon="-0.321385">
        <ele>366.973</ele>
        <time>2020-02-08T08:13:26.802Z</time>
      </trkpt>
      <trkpt lat="39.01818667" lon="-0.321385">
        <ele>366.973</ele>
        <time>2020-02-08T08:13:27.802Z</time>
      </trkpt>
      <trkpt lat="39.018145" lon="-0.32142667">
        <ele>366.973</ele>
        <time>2020-02-08T08:13:28.802Z</time>
      </trkpt>
      <trkpt lat="39.018125" lon="-0.32144667">
        <ele>366.973</ele>
        <time>2020-02-08T08:13:29.802Z</time>
      </trkpt>
      <trkpt lat="39.018125" lon="-0.32144667">
        <ele>368.973</ele>
        <time>2020-02-08T08:13:30.802Z</time>
      </trkpt>
      <trkpt lat="39.01809" lon="-0.32149167">
        <ele>368.973</ele>
        <time>2020-02-08T08:13:31.802Z</time>
      </trkpt>
      <trkpt lat="39.01807333" lon="-0.32151667">
        <ele>368.973</ele>
        <time>2020-02-08T08:13:32.802Z</time>
      </trkpt>
      <trkpt lat="39.01807333" lon="-0.32151667">
        <ele>368.973</ele>
        <time>2020-02-08T08:13:33.802Z</time>
      </trkpt>
      <trkpt lat="39.018025" lon="-0.32156">
        <ele>369.973</ele>
        <time>2020-02-08T08:13:34.802Z</time>
      </trkpt>
      <trkpt lat="39.018025" lon="-0.32156">
        <ele>369.973</ele>
        <time>2020-02-08T08:13:35.802Z</time>
      </trkpt>
      <trkpt lat="39.01798833" lon="-0.321605">
        <ele>369.973</ele>
        <time>2020-02-08T08:13:36.802Z</time>
      </trkpt>
      <trkpt lat="39.01798833" lon="-0.321605">
        <ele>369.973</ele>
        <time>2020-02-08T08:13:37.802Z</time>
      </trkpt>
      <trkpt lat="39.01794167" lon="-0.32164167">
        <ele>370.973</ele>
        <time>2020-02-08T08:13:38.802Z</time>
      </trkpt>
      <trkpt lat="39.01794167" lon="-0.32164167">
        <ele>370.973</ele>
        <time>2020-02-08T08:13:39.802Z</time>
      </trkpt>
      <trkpt lat="39.01790667" lon="-0.32167833">
        <ele>370.973</ele>
        <time>2020-02-08T08:13:40.802Z</time>
      </trkpt>
      <trkpt lat="39.01789333" lon="-0.321705">
        <ele>370.973</ele>
        <time>2020-02-08T08:13:41.802Z</time>
      </trkpt>
      <trkpt lat="39.01789333" lon="-0.321705">
        <ele>371.973</ele>
        <time>2020-02-08T08:13:42.802Z</time>
      </trkpt>
      <trkpt lat="39.01784333" lon="-0.32174167">
        <ele>371.973</ele>
        <time>2020-02-08T08:13:43.802Z</time>
      </trkpt>
      <trkpt lat="39.01782" lon="-0.32176167">
        <ele>372.973</ele>
        <time>2020-02-08T08:13:44.802Z</time>
      </trkpt>
      <trkpt lat="39.01782" lon="-0.32176167">
        <ele>372.973</ele>
        <time>2020-02-08T08:13:45.802Z</time>
      </trkpt>
      <trkpt lat="39.017775" lon="-0.32181">
        <ele>373.973</ele>
        <time>2020-02-08T08:13:46.802Z</time>
      </trkpt>
      <trkpt lat="39.01775167" lon="-0.32183333">
        <ele>373.973</ele>
        <time>2020-02-08T08:13:47.802Z</time>
      </trkpt>
      <trkpt lat="39.01775167" lon="-0.32183333">
        <ele>373.973</ele>
        <time>2020-02-08T08:13:48.802Z</time>
      </trkpt>
      <trkpt lat="39.01770333" lon="-0.32187833">
        <ele>373.973</ele>
        <time>2020-02-08T08:13:49.802Z</time>
      </trkpt>
      <trkpt lat="39.01768" lon="-0.3219">
        <ele>374.973</ele>
        <time>2020-02-08T08:13:50.802Z</time>
      </trkpt>
      <trkpt lat="39.01768" lon="-0.3219">
        <ele>374.973</ele>
        <time>2020-02-08T08:13:51.802Z</time>
      </trkpt>
      <trkpt lat="39.01763" lon="-0.32194">
        <ele>374.973</ele>
        <time>2020-02-08T08:13:52.802Z</time>
      </trkpt>
      <trkpt lat="39.01760833" lon="-0.32196167">
        <ele>374.973</ele>
        <time>2020-02-08T08:13:53.802Z</time>
      </trkpt>
      <trkpt lat="39.01760833" lon="-0.32196167">
        <ele>374.973</ele>
        <time>2020-02-08T08:13:54.802Z</time>
      </trkpt>
      <trkpt lat="39.01756" lon="-0.32201">
        <ele>375.973</ele>
        <time>2020-02-08T08:13:55.802Z</time>
      </trkpt>
      <trkpt lat="39.01753667" lon="-0.32203667">
        <ele>375.973</ele>
        <time>2020-02-08T08:13:56.802Z</time>
      </trkpt>
      <trkpt lat="39.01753667" lon="-0.32203667">
        <ele>375.973</ele>
        <time>2020-02-08T08:13:57.802Z</time>
      </trkpt>
      <trkpt lat="39.017485" lon="-0.32208833">
        <ele>375.973</ele>
        <time>2020-02-08T08:13:58.802Z</time>
      </trkpt>
      <trkpt lat="39.017485" lon="-0.32208833">
        <ele>375.973</ele>
        <time>2020-02-08T08:13:59.802Z</time>
      </trkpt>
      <trkpt lat="39.01743167" lon="-0.32213167">
        <ele>375.973</ele>
        <time>2020-02-08T08:14:00.802Z</time>
      </trkpt>
      <trkpt lat="39.01743167" lon="-0.32213167">
        <ele>376.973</ele>
        <time>2020-02-08T08:14:01.802Z</time>
      </trkpt>
      <trkpt lat="39.01738167" lon="-0.32218333">
        <ele>376.973</ele>
        <time>2020-02-08T08:14:02.802Z</time>
      </trkpt>
      <trkpt lat="39.01738167" lon="-0.32218333">
        <ele>376.973</ele>
        <time>2020-02-08T08:14:03.802Z</time>
      </trkpt>
      <trkpt lat="39.01733" lon="-0.322235">
        <ele>376.973</ele>
        <time>2020-02-08T08:14:04.802Z</time>
      </trkpt>
      <trkpt lat="39.01733" lon="-0.322235">
        <ele>376.973</ele>
        <time>2020-02-08T08:14:05.802Z</time>
      </trkpt>
      <trkpt lat="39.01727667" lon="-0.32229167">
        <ele>376.973</ele>
        <time>2020-02-08T08:14:06.802Z</time>
      </trkpt>
      <trkpt lat="39.01725333" lon="-0.322325">
        <ele>376.973</ele>
        <time>2020-02-08T08:14:07.802Z</time>
      </trkpt>
      <trkpt lat="39.01725333" lon="-0.322325">
        <ele>376.973</ele>
        <time>2020-02-08T08:14:08.802Z</time>
      </trkpt>
      <trkpt lat="39.01720667" lon="-0.322395">
        <ele>376.973</ele>
        <time>2020-02-08T08:14:09.802Z</time>
      </trkpt>
      <trkpt lat="39.01720667" lon="-0.322395">
        <ele>376.973</ele>
        <time>2020-02-08T08:14:10.802Z</time>
      </trkpt>
      <trkpt lat="39.01716333" lon="-0.32247">
        <ele>376.973</ele>
        <time>2020-02-08T08:14:11.802Z</time>
      </trkpt>
      <trkpt lat="39.01716333" lon="-0.32247">
        <ele>376.973</ele>
        <time>2020-02-08T08:14:12.802Z</time>
      </trkpt>
      <trkpt lat="39.01711667" lon="-0.32254167">
        <ele>376.973</ele>
        <time>2020-02-08T08:14:13.802Z</time>
      </trkpt>
      <trkpt lat="39.01709167" lon="-0.32257333">
        <ele>376.973</ele>
        <time>2020-02-08T08:14:14.802Z</time>
      </trkpt>
      <trkpt lat="39.01709167" lon="-0.32257333">
        <ele>376.973</ele>
        <time>2020-02-08T08:14:15.802Z</time>
      </trkpt>
      <trkpt lat="39.01703667" lon="-0.32263">
        <ele>376.973</ele>
        <time>2020-02-08T08:14:16.802Z</time>
      </trkpt>
      <trkpt lat="39.01703667" lon="-0.32263">
        <ele>377.973</ele>
        <time>2020-02-08T08:14:17.802Z</time>
      </trkpt>
      <trkpt lat="39.01697667" lon="-0.32265833">
        <ele>377.973</ele>
        <time>2020-02-08T08:14:18.802Z</time>
      </trkpt>
      <trkpt lat="39.01697667" lon="-0.32265833">
        <ele>377.973</ele>
        <time>2020-02-08T08:14:19.802Z</time>
      </trkpt>
      <trkpt lat="39.016905" lon="-0.32266333">
        <ele>377.973</ele>
        <time>2020-02-08T08:14:20.802Z</time>
      </trkpt>
      <trkpt lat="39.016905" lon="-0.32266333">
        <ele>377.973</ele>
        <time>2020-02-08T08:14:21.802Z</time>
      </trkpt>
      <trkpt lat="39.01681667" lon="-0.32265667">
        <ele>377.973</ele>
        <time>2020-02-08T08:14:22.802Z</time>
      </trkpt>
      <trkpt lat="39.01681667" lon="-0.32265667">
        <ele>377.973</ele>
        <time>2020-02-08T08:14:23.802Z</time>
      </trkpt>
      <trkpt lat="39.01670167" lon="-0.32264667">
        <ele>377.973</ele>
        <time>2020-02-08T08:14:24.802Z</time>
      </trkpt>
      <trkpt lat="39.01670167" lon="-0.32264667">
        <ele>377.973</ele>
        <time>2020-02-08T08:14:25.802Z</time>
      </trkpt>
      <trkpt lat="39.01657667" lon="-0.32264333">
        <ele>376.973</ele>
        <time>2020-02-08T08:14:26.802Z</time>
      </trkpt>
      <trkpt lat="39.01657667" lon="-0.32264333">
        <ele>376.973</ele>
        <time>2020-02-08T08:14:27.802Z</time>
      </trkpt>
      <trkpt lat="39.01645167" lon="-0.32265667">
        <ele>376.973</ele>
        <time>2020-02-08T08:14:28.802Z</time>
      </trkpt>
      <trkpt lat="39.01645167" lon="-0.32265667">
        <ele>376.973</ele>
        <time>2020-02-08T08:14:29.802Z</time>
      </trkpt>
      <trkpt lat="39.016335" lon="-0.32269167">
        <ele>375.973</ele>
        <time>2020-02-08T08:14:30.802Z</time>
      </trkpt>
      <trkpt lat="39.016335" lon="-0.32269167">
        <ele>375.973</ele>
        <time>2020-02-08T08:14:31.802Z</time>
      </trkpt>
      <trkpt lat="39.01622333" lon="-0.32273667">
        <ele>375.973</ele>
        <time>2020-02-08T08:14:32.802Z</time>
      </trkpt>
      <trkpt lat="39.01622333" lon="-0.32273667">
        <ele>375.973</ele>
        <time>2020-02-08T08:14:33.802Z</time>
      </trkpt>
      <trkpt lat="39.01611833" lon="-0.32277833">
        <ele>375.973</ele>
        <time>2020-02-08T08:14:34.802Z</time>
      </trkpt>
      <trkpt lat="39.01611833" lon="-0.32277833">
        <ele>375.973</ele>
        <time>2020-02-08T08:14:35.802Z</time>
      </trkpt>
      <trkpt lat="39.01601167" lon="-0.32282167">
        <ele>374.973</ele>
        <time>2020-02-08T08:14:36.802Z</time>
      </trkpt>
      <trkpt lat="39.01601167" lon="-0.32282167">
        <ele>374.973</ele>
        <time>2020-02-08T08:14:37.802Z</time>
      </trkpt>
      <trkpt lat="39.015905" lon="-0.32283667">
        <ele>374.973</ele>
        <time>2020-02-08T08:14:38.802Z</time>
      </trkpt>
      <trkpt lat="39.015905" lon="-0.32283667">
        <ele>374.973</ele>
        <time>2020-02-08T08:14:39.802Z</time>
      </trkpt>
      <trkpt lat="39.01578667" lon="-0.322825">
        <ele>374.973</ele>
        <time>2020-02-08T08:14:40.802Z</time>
      </trkpt>
      <trkpt lat="39.01578667" lon="-0.322825">
        <ele>374.973</ele>
        <time>2020-02-08T08:14:41.802Z</time>
      </trkpt>
      <trkpt lat="39.015665" lon="-0.32279">
        <ele>374.973</ele>
        <time>2020-02-08T08:14:42.802Z</time>
      </trkpt>
      <trkpt lat="39.015665" lon="-0.32279">
        <ele>374.973</ele>
        <time>2020-02-08T08:14:43.802Z</time>
      </trkpt>
      <trkpt lat="39.01555" lon="-0.322735">
        <ele>373.973</ele>
        <time>2020-02-08T08:14:44.802Z</time>
      </trkpt>
      <trkpt lat="39.01555" lon="-0.322735">
        <ele>373.973</ele>
        <time>2020-02-08T08:14:45.802Z</time>
      </trkpt>
      <trkpt lat="39.01544" lon="-0.322675">
        <ele>373.973</ele>
        <time>2020-02-08T08:14:46.802Z</time>
      </trkpt>
      <trkpt lat="39.01538333" lon="-0.32265">
        <ele>373.973</ele>
        <time>2020-02-08T08:14:47.802Z</time>
      </trkpt>
      <trkpt lat="39.01538333" lon="-0.32265">
        <ele>372.973</ele>
        <time>2020-02-08T08:14:48.802Z</time>
      </trkpt>
      <trkpt lat="39.01526167" lon="-0.32261833">
        <ele>372.973</ele>
        <time>2020-02-08T08:14:49.802Z</time>
      </trkpt>
      <trkpt lat="39.01520333" lon="-0.322605">
        <ele>372.973</ele>
        <time>2020-02-08T08:14:50.802Z</time>
      </trkpt>
      <trkpt lat="39.01520333" lon="-0.322605">
        <ele>372.973</ele>
        <time>2020-02-08T08:14:51.802Z</time>
      </trkpt>
      <trkpt lat="39.01507833" lon="-0.32257167">
        <ele>372.973</ele>
        <time>2020-02-08T08:14:52.802Z</time>
      </trkpt>
      <trkpt lat="39.015005" lon="-0.32256167">
        <ele>371.973</ele>
        <time>2020-02-08T08:14:53.802Z</time>
      </trkpt>
      <trkpt lat="39.015005" lon="-0.32256167">
        <ele>371.973</ele>
        <time>2020-02-08T08:14:54.802Z</time>
      </trkpt>
      <trkpt lat="39.01486" lon="-0.322565">
        <ele>370.973</ele>
        <time>2020-02-08T08:14:55.802Z</time>
      </trkpt>
      <trkpt lat="39.01486" lon="-0.322565">
        <ele>370.973</ele>
        <time>2020-02-08T08:14:56.802Z</time>
      </trkpt>
      <trkpt lat="39.01474" lon="-0.322585">
        <ele>370.973</ele>
        <time>2020-02-08T08:14:57.802Z</time>
      </trkpt>
      <trkpt lat="39.01474" lon="-0.322585">
        <ele>370.973</ele>
        <time>2020-02-08T08:14:58.802Z</time>
      </trkpt>
      <trkpt lat="39.01464667" lon="-0.32267">
        <ele>370.973</ele>
        <time>2020-02-08T08:14:59.802Z</time>
      </trkpt>
      <trkpt lat="39.01464667" lon="-0.32267">
        <ele>370.973</ele>
        <time>2020-02-08T08:15:00.802Z</time>
      </trkpt>
      <trkpt lat="39.01460333" lon="-0.32282667">
        <ele>369.973</ele>
        <time>2020-02-08T08:15:01.802Z</time>
      </trkpt>
      <trkpt lat="39.01460333" lon="-0.32282667">
        <ele>369.973</ele>
        <time>2020-02-08T08:15:02.802Z</time>
      </trkpt>
      <trkpt lat="39.014585" lon="-0.32301">
        <ele>369.973</ele>
        <time>2020-02-08T08:15:03.802Z</time>
      </trkpt>
      <trkpt lat="39.01456667" lon="-0.32309833">
        <ele>369.973</ele>
        <time>2020-02-08T08:15:04.802Z</time>
      </trkpt>
      <trkpt lat="39.014545" lon="-0.32318">
        <ele>369.973</ele>
        <time>2020-02-08T08:15:05.802Z</time>
      </trkpt>
      <trkpt lat="39.014545" lon="-0.32318">
        <ele>369.973</ele>
        <time>2020-02-08T08:15:06.802Z</time>
      </trkpt>
      <trkpt lat="39.014495" lon="-0.323305">
        <ele>369.973</ele>
        <time>2020-02-08T08:15:07.802Z</time>
      </trkpt>
      <trkpt lat="39.01447667" lon="-0.32335167">
        <ele>369.973</ele>
        <time>2020-02-08T08:15:08.802Z</time>
      </trkpt>
      <trkpt lat="39.01447667" lon="-0.32335167">
        <ele>369.973</ele>
        <time>2020-02-08T08:15:09.802Z</time>
      </trkpt>
      <trkpt lat="39.01445167" lon="-0.32344833">
        <ele>369.973</ele>
        <time>2020-02-08T08:15:10.802Z</time>
      </trkpt>
      <trkpt lat="39.01443667" lon="-0.3235">
        <ele>370.973</ele>
        <time>2020-02-08T08:15:11.802Z</time>
      </trkpt>
      <trkpt lat="39.01443667" lon="-0.3235">
        <ele>370.973</ele>
        <time>2020-02-08T08:15:12.802Z</time>
      </trkpt>
      <trkpt lat="39.01442167" lon="-0.32362167">
        <ele>370.973</ele>
        <time>2020-02-08T08:15:13.802Z</time>
      </trkpt>
      <trkpt lat="39.014405" lon="-0.323685">
        <ele>370.973</ele>
        <time>2020-02-08T08:15:14.802Z</time>
      </trkpt>
      <trkpt lat="39.014405" lon="-0.323685">
        <ele>370.973</ele>
        <time>2020-02-08T08:15:15.802Z</time>
      </trkpt>
      <trkpt lat="39.01435333" lon="-0.32383667">
        <ele>370.973</ele>
        <time>2020-02-08T08:15:16.802Z</time>
      </trkpt>
      <trkpt lat="39.01435333" lon="-0.32383667">
        <ele>370.973</ele>
        <time>2020-02-08T08:15:17.802Z</time>
      </trkpt>
      <trkpt lat="39.01429167" lon="-0.32399833">
        <ele>370.973</ele>
        <time>2020-02-08T08:15:18.802Z</time>
      </trkpt>
      <trkpt lat="39.01429167" lon="-0.32399833">
        <ele>369.973</ele>
        <time>2020-02-08T08:15:19.802Z</time>
      </trkpt>
      <trkpt lat="39.01423833" lon="-0.324205">
        <ele>368.973</ele>
        <time>2020-02-08T08:15:20.802Z</time>
      </trkpt>
      <trkpt lat="39.01423833" lon="-0.324205">
        <ele>368.973</ele>
        <time>2020-02-08T08:15:21.802Z</time>
      </trkpt>
      <trkpt lat="39.01421" lon="-0.32442667">
        <ele>367.973</ele>
        <time>2020-02-08T08:15:22.802Z</time>
      </trkpt>
      <trkpt lat="39.01421" lon="-0.32442667">
        <ele>367.973</ele>
        <time>2020-02-08T08:15:23.802Z</time>
      </trkpt>
      <trkpt lat="39.014185" lon="-0.32464833">
        <ele>366.973</ele>
        <time>2020-02-08T08:15:24.802Z</time>
      </trkpt>
      <trkpt lat="39.014185" lon="-0.32464833">
        <ele>366.973</ele>
        <time>2020-02-08T08:15:25.802Z</time>
      </trkpt>
      <trkpt lat="39.01416" lon="-0.324875">
        <ele>365.973</ele>
        <time>2020-02-08T08:15:26.802Z</time>
      </trkpt>
      <trkpt lat="39.01416" lon="-0.324875">
        <ele>365.973</ele>
        <time>2020-02-08T08:15:27.802Z</time>
      </trkpt>
      <trkpt lat="39.014125" lon="-0.32509">
        <ele>365.973</ele>
        <time>2020-02-08T08:15:28.802Z</time>
      </trkpt>
      <trkpt lat="39.014095" lon="-0.32519833">
        <ele>365.973</ele>
        <time>2020-02-08T08:15:29.802Z</time>
      </trkpt>
      <trkpt lat="39.014095" lon="-0.32519833">
        <ele>363.973</ele>
        <time>2020-02-08T08:15:30.802Z</time>
      </trkpt>
      <trkpt lat="39.01399333" lon="-0.3254">
        <ele>363.973</ele>
        <time>2020-02-08T08:15:31.802Z</time>
      </trkpt>
      <trkpt lat="39.013935" lon="-0.32549667">
        <ele>362.973</ele>
        <time>2020-02-08T08:15:32.802Z</time>
      </trkpt>
      <trkpt lat="39.013935" lon="-0.32549667">
        <ele>362.973</ele>
        <time>2020-02-08T08:15:33.802Z</time>
      </trkpt>
      <trkpt lat="39.01382333" lon="-0.32570333">
        <ele>361.973</ele>
        <time>2020-02-08T08:15:34.802Z</time>
      </trkpt>
      <trkpt lat="39.01382333" lon="-0.32570333">
        <ele>361.973</ele>
        <time>2020-02-08T08:15:35.802Z</time>
      </trkpt>
      <trkpt lat="39.01372833" lon="-0.32592">
        <ele>360.973</ele>
        <time>2020-02-08T08:15:36.802Z</time>
      </trkpt>
      <trkpt lat="39.01372833" lon="-0.32592">
        <ele>360.973</ele>
        <time>2020-02-08T08:15:37.802Z</time>
      </trkpt>
      <trkpt lat="39.01368167" lon="-0.32615833">
        <ele>358.973</ele>
        <time>2020-02-08T08:15:38.802Z</time>
      </trkpt>
      <trkpt lat="39.01368167" lon="-0.32615833">
        <ele>358.973</ele>
        <time>2020-02-08T08:15:39.802Z</time>
      </trkpt>
      <trkpt lat="39.01365167" lon="-0.326395">
        <ele>357.973</ele>
        <time>2020-02-08T08:15:40.802Z</time>
      </trkpt>
      <trkpt lat="39.01365167" lon="-0.326395">
        <ele>357.973</ele>
        <time>2020-02-08T08:15:41.802Z</time>
      </trkpt>
      <trkpt lat="39.01358833" lon="-0.32661333">
        <ele>355.973</ele>
        <time>2020-02-08T08:15:42.802Z</time>
      </trkpt>
      <trkpt lat="39.01354333" lon="-0.32672">
        <ele>355.973</ele>
        <time>2020-02-08T08:15:43.802Z</time>
      </trkpt>
      <trkpt lat="39.01354333" lon="-0.32672">
        <ele>354.973</ele>
        <time>2020-02-08T08:15:44.802Z</time>
      </trkpt>
      <trkpt lat="39.01345833" lon="-0.32695333">
        <ele>354.973</ele>
        <time>2020-02-08T08:15:45.802Z</time>
      </trkpt>
      <trkpt lat="39.01343" lon="-0.327085">
        <ele>352.973</ele>
        <time>2020-02-08T08:15:46.802Z</time>
      </trkpt>
      <trkpt lat="39.01343" lon="-0.327085">
        <ele>352.973</ele>
        <time>2020-02-08T08:15:47.802Z</time>
      </trkpt>
      <trkpt lat="39.013425" lon="-0.32736">
        <ele>351.973</ele>
        <time>2020-02-08T08:15:48.802Z</time>
      </trkpt>
      <trkpt lat="39.013425" lon="-0.32736">
        <ele>351.973</ele>
        <time>2020-02-08T08:15:49.802Z</time>
      </trkpt>
      <trkpt lat="39.01343667" lon="-0.327625">
        <ele>350.973</ele>
        <time>2020-02-08T08:15:50.802Z</time>
      </trkpt>
      <trkpt lat="39.01343667" lon="-0.327625">
        <ele>350.973</ele>
        <time>2020-02-08T08:15:51.802Z</time>
      </trkpt>
      <trkpt lat="39.01341167" lon="-0.32788167">
        <ele>350.973</ele>
        <time>2020-02-08T08:15:52.802Z</time>
      </trkpt>
      <trkpt lat="39.01341167" lon="-0.32788167">
        <ele>349.973</ele>
        <time>2020-02-08T08:15:53.802Z</time>
      </trkpt>
      <trkpt lat="39.01338" lon="-0.32813667">
        <ele>349.973</ele>
        <time>2020-02-08T08:15:54.802Z</time>
      </trkpt>
      <trkpt lat="39.01338" lon="-0.32813667">
        <ele>349.973</ele>
        <time>2020-02-08T08:15:55.802Z</time>
      </trkpt>
      <trkpt lat="39.013325" lon="-0.328385">
        <ele>349.973</ele>
        <time>2020-02-08T08:15:56.802Z</time>
      </trkpt>
      <trkpt lat="39.013325" lon="-0.328385">
        <ele>348.973</ele>
        <time>2020-02-08T08:15:57.802Z</time>
      </trkpt>
      <trkpt lat="39.01329167" lon="-0.32864667">
        <ele>348.973</ele>
        <time>2020-02-08T08:15:58.802Z</time>
      </trkpt>
      <trkpt lat="39.01329167" lon="-0.32864667">
        <ele>347.973</ele>
        <time>2020-02-08T08:15:59.802Z</time>
      </trkpt>
      <trkpt lat="39.01327667" lon="-0.328925">
        <ele>347.973</ele>
        <time>2020-02-08T08:16:00.802Z</time>
      </trkpt>
      <trkpt lat="39.01327667" lon="-0.328925">
        <ele>346.973</ele>
        <time>2020-02-08T08:16:01.802Z</time>
      </trkpt>
      <trkpt lat="39.01325833" lon="-0.32918667">
        <ele>346.973</ele>
        <time>2020-02-08T08:16:02.802Z</time>
      </trkpt>
      <trkpt lat="39.01325833" lon="-0.32918667">
        <ele>345.973</ele>
        <time>2020-02-08T08:16:03.802Z</time>
      </trkpt>
      <trkpt lat="39.01322167" lon="-0.32943833">
        <ele>345.973</ele>
        <time>2020-02-08T08:16:04.802Z</time>
      </trkpt>
      <trkpt lat="39.01322167" lon="-0.32943833">
        <ele>343.973</ele>
        <time>2020-02-08T08:16:05.802Z</time>
      </trkpt>
      <trkpt lat="39.01312167" lon="-0.32966833">
        <ele>343.973</ele>
        <time>2020-02-08T08:16:06.802Z</time>
      </trkpt>
      <trkpt lat="39.01312167" lon="-0.32966833">
        <ele>342.973</ele>
        <time>2020-02-08T08:16:07.802Z</time>
      </trkpt>
      <trkpt lat="39.01296667" lon="-0.32986667">
        <ele>342.973</ele>
        <time>2020-02-08T08:16:08.802Z</time>
      </trkpt>
      <trkpt lat="39.01296667" lon="-0.32986667">
        <ele>341.973</ele>
        <time>2020-02-08T08:16:09.802Z</time>
      </trkpt>
      <trkpt lat="39.01281" lon="-0.33007167">
        <ele>341.973</ele>
        <time>2020-02-08T08:16:10.802Z</time>
      </trkpt>
      <trkpt lat="39.01281" lon="-0.33007167">
        <ele>340.973</ele>
        <time>2020-02-08T08:16:11.802Z</time>
      </trkpt>
      <trkpt lat="39.01266333" lon="-0.33030333">
        <ele>340.973</ele>
        <time>2020-02-08T08:16:12.802Z</time>
      </trkpt>
      <trkpt lat="39.01266333" lon="-0.33030333">
        <ele>338.973</ele>
        <time>2020-02-08T08:16:13.802Z</time>
      </trkpt>
      <trkpt lat="39.01253333" lon="-0.33054333">
        <ele>338.973</ele>
        <time>2020-02-08T08:16:14.802Z</time>
      </trkpt>
      <trkpt lat="39.01253333" lon="-0.33054333">
        <ele>337.973</ele>
        <time>2020-02-08T08:16:15.802Z</time>
      </trkpt>
      <trkpt lat="39.01244167" lon="-0.33079833">
        <ele>337.973</ele>
        <time>2020-02-08T08:16:16.802Z</time>
      </trkpt>
      <trkpt lat="39.01244167" lon="-0.33079833">
        <ele>335.973</ele>
        <time>2020-02-08T08:16:17.802Z</time>
      </trkpt>
      <trkpt lat="39.01241" lon="-0.33107667">
        <ele>335.973</ele>
        <time>2020-02-08T08:16:18.802Z</time>
      </trkpt>
      <trkpt lat="39.01241" lon="-0.33107667">
        <ele>334.973</ele>
        <time>2020-02-08T08:16:19.802Z</time>
      </trkpt>
      <trkpt lat="39.012405" lon="-0.33134333">
        <ele>333.973</ele>
        <time>2020-02-08T08:16:20.802Z</time>
      </trkpt>
      <trkpt lat="39.012405" lon="-0.33134333">
        <ele>333.973</ele>
        <time>2020-02-08T08:16:21.802Z</time>
      </trkpt>
      <trkpt lat="39.01240667" lon="-0.331615">
        <ele>333.973</ele>
        <time>2020-02-08T08:16:22.802Z</time>
      </trkpt>
      <trkpt lat="39.01240667" lon="-0.331615">
        <ele>333.973</ele>
        <time>2020-02-08T08:16:23.802Z</time>
      </trkpt>
      <trkpt lat="39.01240167" lon="-0.33189">
        <ele>332.973</ele>
        <time>2020-02-08T08:16:24.802Z</time>
      </trkpt>
      <trkpt lat="39.01240167" lon="-0.33189">
        <ele>332.973</ele>
        <time>2020-02-08T08:16:25.802Z</time>
      </trkpt>
      <trkpt lat="39.01237833" lon="-0.33216167">
        <ele>331.973</ele>
        <time>2020-02-08T08:16:26.802Z</time>
      </trkpt>
      <trkpt lat="39.01237833" lon="-0.33216167">
        <ele>331.973</ele>
        <time>2020-02-08T08:16:27.802Z</time>
      </trkpt>
      <trkpt lat="39.01234333" lon="-0.33243333">
        <ele>330.973</ele>
        <time>2020-02-08T08:16:28.802Z</time>
      </trkpt>
      <trkpt lat="39.01231" lon="-0.33256333">
        <ele>330.973</ele>
        <time>2020-02-08T08:16:29.802Z</time>
      </trkpt>
      <trkpt lat="39.01231" lon="-0.33256333">
        <ele>329.973</ele>
        <time>2020-02-08T08:16:30.802Z</time>
      </trkpt>
      <trkpt lat="39.01222167" lon="-0.332825">
        <ele>329.973</ele>
        <time>2020-02-08T08:16:31.802Z</time>
      </trkpt>
      <trkpt lat="39.01216833" lon="-0.33294833">
        <ele>327.973</ele>
        <time>2020-02-08T08:16:32.802Z</time>
      </trkpt>
      <trkpt lat="39.01216833" lon="-0.33294833">
        <ele>327.973</ele>
        <time>2020-02-08T08:16:33.802Z</time>
      </trkpt>
      <trkpt lat="39.01206833" lon="-0.33320333">
        <ele>326.973</ele>
        <time>2020-02-08T08:16:34.802Z</time>
      </trkpt>
      <trkpt lat="39.012015" lon="-0.33333167">
        <ele>326.973</ele>
        <time>2020-02-08T08:16:35.802Z</time>
      </trkpt>
      <trkpt lat="39.012015" lon="-0.33333167">
        <ele>325.973</ele>
        <time>2020-02-08T08:16:36.802Z</time>
      </trkpt>
      <trkpt lat="39.01193" lon="-0.33359667">
        <ele>325.973</ele>
        <time>2020-02-08T08:16:37.802Z</time>
      </trkpt>
      <trkpt lat="39.01193" lon="-0.33359667">
        <ele>323.973</ele>
        <time>2020-02-08T08:16:38.802Z</time>
      </trkpt>
      <trkpt lat="39.01189167" lon="-0.33388833">
        <ele>323.973</ele>
        <time>2020-02-08T08:16:39.802Z</time>
      </trkpt>
      <trkpt lat="39.01189167" lon="-0.33388833">
        <ele>322.973</ele>
        <time>2020-02-08T08:16:40.802Z</time>
      </trkpt>
      <trkpt lat="39.011875" lon="-0.33419167">
        <ele>322.973</ele>
        <time>2020-02-08T08:16:41.802Z</time>
      </trkpt>
      <trkpt lat="39.01186667" lon="-0.33434333">
        <ele>321.973</ele>
        <time>2020-02-08T08:16:42.802Z</time>
      </trkpt>
      <trkpt lat="39.01186667" lon="-0.33434333">
        <ele>321.973</ele>
        <time>2020-02-08T08:16:43.802Z</time>
      </trkpt>
      <trkpt lat="39.01186" lon="-0.33462667">
        <ele>319.973</ele>
        <time>2020-02-08T08:16:44.802Z</time>
      </trkpt>
      <trkpt lat="39.01186" lon="-0.33462667">
        <ele>319.973</ele>
        <time>2020-02-08T08:16:45.802Z</time>
      </trkpt>
      <trkpt lat="39.01189833" lon="-0.33487833">
        <ele>318.973</ele>
        <time>2020-02-08T08:16:46.802Z</time>
      </trkpt>
      <trkpt lat="39.01189833" lon="-0.33487833">
        <ele>318.973</ele>
        <time>2020-02-08T08:16:47.802Z</time>
      </trkpt>
      <trkpt lat="39.01200833" lon="-0.33507833">
        <ele>318.973</ele>
        <time>2020-02-08T08:16:48.802Z</time>
      </trkpt>
      <trkpt lat="39.01200833" lon="-0.33507833">
        <ele>317.973</ele>
        <time>2020-02-08T08:16:49.802Z</time>
      </trkpt>
      <trkpt lat="39.01214" lon="-0.33525167">
        <ele>317.973</ele>
        <time>2020-02-08T08:16:50.802Z</time>
      </trkpt>
      <trkpt lat="39.01214" lon="-0.33525167">
        <ele>316.973</ele>
        <time>2020-02-08T08:16:51.802Z</time>
      </trkpt>
      <trkpt lat="39.01221333" lon="-0.33546">
        <ele>316.973</ele>
        <time>2020-02-08T08:16:52.802Z</time>
      </trkpt>
      <trkpt lat="39.01222" lon="-0.33556833">
        <ele>316.973</ele>
        <time>2020-02-08T08:16:53.802Z</time>
      </trkpt>
      <trkpt lat="39.01222" lon="-0.33556833">
        <ele>316.973</ele>
        <time>2020-02-08T08:16:54.802Z</time>
      </trkpt>
      <trkpt lat="39.01226333" lon="-0.33579167">
        <ele>316.973</ele>
        <time>2020-02-08T08:16:55.802Z</time>
      </trkpt>
      <trkpt lat="39.01230167" lon="-0.335895">
        <ele>316.973</ele>
        <time>2020-02-08T08:16:56.802Z</time>
      </trkpt>
      <trkpt lat="39.01230167" lon="-0.335895">
        <ele>316.973</ele>
        <time>2020-02-08T08:16:57.802Z</time>
      </trkpt>
      <trkpt lat="39.01238833" lon="-0.33609">
        <ele>317.973</ele>
        <time>2020-02-08T08:16:58.802Z</time>
      </trkpt>
      <trkpt lat="39.01242" lon="-0.3362">
        <ele>317.973</ele>
        <time>2020-02-08T08:16:59.802Z</time>
      </trkpt>
      <trkpt lat="39.012445" lon="-0.33631167">
        <ele>317.973</ele>
        <time>2020-02-08T08:17:00.802Z</time>
      </trkpt>
      <trkpt lat="39.012445" lon="-0.33631167">
        <ele>317.973</ele>
        <time>2020-02-08T08:17:01.802Z</time>
      </trkpt>
      <trkpt lat="39.01247833" lon="-0.336535">
        <ele>317.973</ele>
        <time>2020-02-08T08:17:02.802Z</time>
      </trkpt>
      <trkpt lat="39.01247833" lon="-0.336535">
        <ele>317.973</ele>
        <time>2020-02-08T08:17:03.802Z</time>
      </trkpt>
      <trkpt lat="39.01248167" lon="-0.336755">
        <ele>317.973</ele>
        <time>2020-02-08T08:17:04.802Z</time>
      </trkpt>
      <trkpt lat="39.01248167" lon="-0.336755">
        <ele>317.973</ele>
        <time>2020-02-08T08:17:05.802Z</time>
      </trkpt>
      <trkpt lat="39.01241667" lon="-0.33696833">
        <ele>316.973</ele>
        <time>2020-02-08T08:17:06.802Z</time>
      </trkpt>
      <trkpt lat="39.01238333" lon="-0.33707833">
        <ele>316.973</ele>
        <time>2020-02-08T08:17:07.802Z</time>
      </trkpt>
      <trkpt lat="39.01238333" lon="-0.33707833">
        <ele>315.973</ele>
        <time>2020-02-08T08:17:08.802Z</time>
      </trkpt>
      <trkpt lat="39.01238833" lon="-0.33731333">
        <ele>315.973</ele>
        <time>2020-02-08T08:17:09.802Z</time>
      </trkpt>
      <trkpt lat="39.01238833" lon="-0.33731333">
        <ele>315.973</ele>
        <time>2020-02-08T08:17:10.802Z</time>
      </trkpt>
      <trkpt lat="39.01245833" lon="-0.33753667">
        <ele>314.973</ele>
        <time>2020-02-08T08:17:11.802Z</time>
      </trkpt>
      <trkpt lat="39.01249167" lon="-0.33765167">
        <ele>314.973</ele>
        <time>2020-02-08T08:17:12.802Z</time>
      </trkpt>
      <trkpt lat="39.01249167" lon="-0.33765167">
        <ele>313.973</ele>
        <time>2020-02-08T08:17:13.802Z</time>
      </trkpt>
      <trkpt lat="39.01251" lon="-0.33789">
        <ele>313.973</ele>
        <time>2020-02-08T08:17:14.802Z</time>
      </trkpt>
      <trkpt lat="39.01251" lon="-0.33789">
        <ele>313.973</ele>
        <time>2020-02-08T08:17:15.802Z</time>
      </trkpt>
      <trkpt lat="39.01251833" lon="-0.33813167">
        <ele>313.973</ele>
        <time>2020-02-08T08:17:16.802Z</time>
      </trkpt>
      <trkpt lat="39.012535" lon="-0.33824833">
        <ele>312.973</ele>
        <time>2020-02-08T08:17:17.802Z</time>
      </trkpt>
      <trkpt lat="39.01256333" lon="-0.33836">
        <ele>312.973</ele>
        <time>2020-02-08T08:17:18.802Z</time>
      </trkpt>
      <trkpt lat="39.01256333" lon="-0.33836">
        <ele>312.973</ele>
        <time>2020-02-08T08:17:19.802Z</time>
      </trkpt>
      <trkpt lat="39.012615" lon="-0.33857833">
        <ele>313.973</ele>
        <time>2020-02-08T08:17:20.802Z</time>
      </trkpt>
      <trkpt lat="39.012615" lon="-0.33857833">
        <ele>313.973</ele>
        <time>2020-02-08T08:17:21.802Z</time>
      </trkpt>
      <trkpt lat="39.012635" lon="-0.33879667">
        <ele>313.973</ele>
        <time>2020-02-08T08:17:22.802Z</time>
      </trkpt>
      <trkpt lat="39.012635" lon="-0.33879667">
        <ele>313.973</ele>
        <time>2020-02-08T08:17:23.802Z</time>
      </trkpt>
      <trkpt lat="39.01262667" lon="-0.33901333">
        <ele>314.973</ele>
        <time>2020-02-08T08:17:24.802Z</time>
      </trkpt>
      <trkpt lat="39.01262667" lon="-0.33901333">
        <ele>314.973</ele>
        <time>2020-02-08T08:17:25.802Z</time>
      </trkpt>
      <trkpt lat="39.01261" lon="-0.33922833">
        <ele>314.973</ele>
        <time>2020-02-08T08:17:26.802Z</time>
      </trkpt>
      <trkpt lat="39.0126" lon="-0.33933167">
        <ele>314.973</ele>
        <time>2020-02-08T08:17:27.802Z</time>
      </trkpt>
      <trkpt lat="39.0126" lon="-0.33933167">
        <ele>315.973</ele>
        <time>2020-02-08T08:17:28.802Z</time>
      </trkpt>
      <trkpt lat="39.01258" lon="-0.33953167">
        <ele>315.973</ele>
        <time>2020-02-08T08:17:29.802Z</time>
      </trkpt>
      <trkpt lat="39.01257333" lon="-0.339635">
        <ele>315.973</ele>
        <time>2020-02-08T08:17:30.802Z</time>
      </trkpt>
      <trkpt lat="39.01257333" lon="-0.339635">
        <ele>315.973</ele>
        <time>2020-02-08T08:17:31.802Z</time>
      </trkpt>
      <trkpt lat="39.01255333" lon="-0.33982833">
        <ele>315.973</ele>
        <time>2020-02-08T08:17:32.802Z</time>
      </trkpt>
      <trkpt lat="39.01255333" lon="-0.33982833">
        <ele>316.973</ele>
        <time>2020-02-08T08:17:33.802Z</time>
      </trkpt>
      <trkpt lat="39.012495" lon="-0.34">
        <ele>316.973</ele>
        <time>2020-02-08T08:17:34.802Z</time>
      </trkpt>
      <trkpt lat="39.012495" lon="-0.34">
        <ele>316.973</ele>
        <time>2020-02-08T08:17:35.802Z</time>
      </trkpt>
      <trkpt lat="39.01241833" lon="-0.34014833">
        <ele>316.973</ele>
        <time>2020-02-08T08:17:36.802Z</time>
      </trkpt>
      <trkpt lat="39.01241833" lon="-0.34014833">
        <ele>317.973</ele>
        <time>2020-02-08T08:17:37.802Z</time>
      </trkpt>
      <trkpt lat="39.01232167" lon="-0.34029333">
        <ele>317.973</ele>
        <time>2020-02-08T08:17:38.802Z</time>
      </trkpt>
      <trkpt lat="39.01227" lon="-0.34037">
        <ele>317.973</ele>
        <time>2020-02-08T08:17:39.802Z</time>
      </trkpt>
      <trkpt lat="39.01227" lon="-0.34037">
        <ele>317.973</ele>
        <time>2020-02-08T08:17:40.802Z</time>
      </trkpt>
      <trkpt lat="39.01217667" lon="-0.340545">
        <ele>316.973</ele>
        <time>2020-02-08T08:17:41.802Z</time>
      </trkpt>
      <trkpt lat="39.01214833" lon="-0.34065667">
        <ele>316.973</ele>
        <time>2020-02-08T08:17:42.802Z</time>
      </trkpt>
      <trkpt lat="39.01214833" lon="-0.34065667">
        <ele>315.973</ele>
        <time>2020-02-08T08:17:43.802Z</time>
      </trkpt>
      <trkpt lat="39.01212" lon="-0.34089667">
        <ele>315.973</ele>
        <time>2020-02-08T08:17:44.802Z</time>
      </trkpt>
      <trkpt lat="39.01212" lon="-0.34089667">
        <ele>314.973</ele>
        <time>2020-02-08T08:17:45.802Z</time>
      </trkpt>
      <trkpt lat="39.01209333" lon="-0.341155">
        <ele>314.973</ele>
        <time>2020-02-08T08:17:46.802Z</time>
      </trkpt>
      <trkpt lat="39.012085" lon="-0.34129333">
        <ele>313.973</ele>
        <time>2020-02-08T08:17:47.802Z</time>
      </trkpt>
      <trkpt lat="39.012085" lon="-0.34129333">
        <ele>311.973</ele>
        <time>2020-02-08T08:17:48.802Z</time>
      </trkpt>
      <trkpt lat="39.01209833" lon="-0.34157">
        <ele>311.973</ele>
        <time>2020-02-08T08:17:49.802Z</time>
      </trkpt>
      <trkpt lat="39.012125" lon="-0.34171167">
        <ele>309.973</ele>
        <time>2020-02-08T08:17:50.802Z</time>
      </trkpt>
      <trkpt lat="39.01216" lon="-0.34185333">
        <ele>309.973</ele>
        <time>2020-02-08T08:17:51.802Z</time>
      </trkpt>
      <trkpt lat="39.01216" lon="-0.34185333">
        <ele>308.973</ele>
        <time>2020-02-08T08:17:52.802Z</time>
      </trkpt>
      <trkpt lat="39.012225" lon="-0.34214167">
        <ele>308.973</ele>
        <time>2020-02-08T08:17:53.802Z</time>
      </trkpt>
      <trkpt lat="39.012225" lon="-0.34214167">
        <ele>306.973</ele>
        <time>2020-02-08T08:17:54.802Z</time>
      </trkpt>
      <trkpt lat="39.01226833" lon="-0.34243833">
        <ele>306.973</ele>
        <time>2020-02-08T08:17:55.802Z</time>
      </trkpt>
      <trkpt lat="39.01228333" lon="-0.34258667">
        <ele>305.973</ele>
        <time>2020-02-08T08:17:56.802Z</time>
      </trkpt>
      <trkpt lat="39.01228333" lon="-0.34258667">
        <ele>305.973</ele>
        <time>2020-02-08T08:17:57.802Z</time>
      </trkpt>
      <trkpt lat="39.01230667" lon="-0.34288833">
        <ele>304.973</ele>
        <time>2020-02-08T08:17:58.802Z</time>
      </trkpt>
      <trkpt lat="39.01230667" lon="-0.34288833">
        <ele>304.973</ele>
        <time>2020-02-08T08:17:59.802Z</time>
      </trkpt>
      <trkpt lat="39.01232333" lon="-0.34318833">
        <ele>302.973</ele>
        <time>2020-02-08T08:18:00.802Z</time>
      </trkpt>
      <trkpt lat="39.01232333" lon="-0.34318833">
        <ele>302.973</ele>
        <time>2020-02-08T08:18:01.802Z</time>
      </trkpt>
      <trkpt lat="39.01229833" lon="-0.34346">
        <ele>301.973</ele>
        <time>2020-02-08T08:18:02.802Z</time>
      </trkpt>
      <trkpt lat="39.01229833" lon="-0.34346">
        <ele>301.973</ele>
        <time>2020-02-08T08:18:03.802Z</time>
      </trkpt>
      <trkpt lat="39.012255" lon="-0.34371">
        <ele>300.973</ele>
        <time>2020-02-08T08:18:04.802Z</time>
      </trkpt>
      <trkpt lat="39.012255" lon="-0.34371">
        <ele>300.973</ele>
        <time>2020-02-08T08:18:05.802Z</time>
      </trkpt>
      <trkpt lat="39.01220667" lon="-0.343955">
        <ele>300.973</ele>
        <time>2020-02-08T08:18:06.802Z</time>
      </trkpt>
      <trkpt lat="39.01220667" lon="-0.343955">
        <ele>300.973</ele>
        <time>2020-02-08T08:18:07.802Z</time>
      </trkpt>
      <trkpt lat="39.01216333" lon="-0.34419333">
        <ele>300.973</ele>
        <time>2020-02-08T08:18:08.802Z</time>
      </trkpt>
      <trkpt lat="39.01215167" lon="-0.3443">
        <ele>300.973</ele>
        <time>2020-02-08T08:18:09.802Z</time>
      </trkpt>
      <trkpt lat="39.01215167" lon="-0.3443">
        <ele>298.973</ele>
        <time>2020-02-08T08:18:10.802Z</time>
      </trkpt>
      <trkpt lat="39.01218333" lon="-0.34449">
        <ele>298.973</ele>
        <time>2020-02-08T08:18:11.802Z</time>
      </trkpt>
      <trkpt lat="39.01222833" lon="-0.34457">
        <ele>297.973</ele>
        <time>2020-02-08T08:18:12.802Z</time>
      </trkpt>
      <trkpt lat="39.01222833" lon="-0.34457">
        <ele>297.973</ele>
        <time>2020-02-08T08:18:13.802Z</time>
      </trkpt>
      <trkpt lat="39.012365" lon="-0.34470333">
        <ele>296.973</ele>
        <time>2020-02-08T08:18:14.802Z</time>
      </trkpt>
      <trkpt lat="39.012365" lon="-0.34470333">
        <ele>296.973</ele>
        <time>2020-02-08T08:18:15.802Z</time>
      </trkpt>
      <trkpt lat="39.01251" lon="-0.34484667">
        <ele>294.973</ele>
        <time>2020-02-08T08:18:16.802Z</time>
      </trkpt>
      <trkpt lat="39.01257833" lon="-0.34493667">
        <ele>293.973</ele>
        <time>2020-02-08T08:18:17.802Z</time>
      </trkpt>
      <trkpt lat="39.01257833" lon="-0.34493667">
        <ele>293.973</ele>
        <time>2020-02-08T08:18:18.802Z</time>
      </trkpt>
      <trkpt lat="39.012705" lon="-0.34512333">
        <ele>293.973</ele>
        <time>2020-02-08T08:18:19.802Z</time>
      </trkpt>
      <trkpt lat="39.01277667" lon="-0.34521667">
        <ele>293.973</ele>
        <time>2020-02-08T08:18:20.802Z</time>
      </trkpt>
      <trkpt lat="39.01277667" lon="-0.34521667">
        <ele>291.973</ele>
        <time>2020-02-08T08:18:21.802Z</time>
      </trkpt>
      <trkpt lat="39.01291" lon="-0.34540833">
        <ele>291.973</ele>
        <time>2020-02-08T08:18:22.802Z</time>
      </trkpt>
      <trkpt lat="39.01291" lon="-0.34540833">
        <ele>290.973</ele>
        <time>2020-02-08T08:18:23.802Z</time>
      </trkpt>
      <trkpt lat="39.012995" lon="-0.34557333">
        <ele>290.973</ele>
        <time>2020-02-08T08:18:24.802Z</time>
      </trkpt>
      <trkpt lat="39.012995" lon="-0.34557333">
        <ele>289.973</ele>
        <time>2020-02-08T08:18:25.802Z</time>
      </trkpt>
      <trkpt lat="39.01300333" lon="-0.34570667">
        <ele>289.973</ele>
        <time>2020-02-08T08:18:26.802Z</time>
      </trkpt>
      <trkpt lat="39.01300333" lon="-0.34570667">
        <ele>288.973</ele>
        <time>2020-02-08T08:18:27.802Z</time>
      </trkpt>
      <trkpt lat="39.01292167" lon="-0.345765">
        <ele>288.973</ele>
        <time>2020-02-08T08:18:28.802Z</time>
      </trkpt>
      <trkpt lat="39.01292167" lon="-0.345765">
        <ele>287.973</ele>
        <time>2020-02-08T08:18:29.802Z</time>
      </trkpt>
      <trkpt lat="39.01280833" lon="-0.3457">
        <ele>287.973</ele>
        <time>2020-02-08T08:18:30.802Z</time>
      </trkpt>
      <trkpt lat="39.01280833" lon="-0.3457">
        <ele>286.973</ele>
        <time>2020-02-08T08:18:31.802Z</time>
      </trkpt>
      <trkpt lat="39.01270333" lon="-0.34557667">
        <ele>286.973</ele>
        <time>2020-02-08T08:18:32.802Z</time>
      </trkpt>
      <trkpt lat="39.01270333" lon="-0.34557667">
        <ele>286.973</ele>
        <time>2020-02-08T08:18:33.802Z</time>
      </trkpt>
      <trkpt lat="39.01257167" lon="-0.34547833">
        <ele>286.973</ele>
        <time>2020-02-08T08:18:34.802Z</time>
      </trkpt>
      <trkpt lat="39.01257167" lon="-0.34547833">
        <ele>285.973</ele>
        <time>2020-02-08T08:18:35.802Z</time>
      </trkpt>
      <trkpt lat="39.01240167" lon="-0.34542833">
        <ele>285.973</ele>
        <time>2020-02-08T08:18:36.802Z</time>
      </trkpt>
      <trkpt lat="39.01240167" lon="-0.34542833">
        <ele>284.973</ele>
        <time>2020-02-08T08:18:37.802Z</time>
      </trkpt>
      <trkpt lat="39.01221" lon="-0.34542333">
        <ele>284.973</ele>
        <time>2020-02-08T08:18:38.802Z</time>
      </trkpt>
      <trkpt lat="39.01221" lon="-0.34542333">
        <ele>283.973</ele>
        <time>2020-02-08T08:18:39.802Z</time>
      </trkpt>
      <trkpt lat="39.01202" lon="-0.34546">
        <ele>283.973</ele>
        <time>2020-02-08T08:18:40.802Z</time>
      </trkpt>
      <trkpt lat="39.01202" lon="-0.34546">
        <ele>282.973</ele>
        <time>2020-02-08T08:18:41.802Z</time>
      </trkpt>
      <trkpt lat="39.01184667" lon="-0.34554833">
        <ele>282.973</ele>
        <time>2020-02-08T08:18:42.802Z</time>
      </trkpt>
      <trkpt lat="39.01184667" lon="-0.34554833">
        <ele>281.973</ele>
        <time>2020-02-08T08:18:43.802Z</time>
      </trkpt>
      <trkpt lat="39.01171167" lon="-0.34568">
        <ele>281.973</ele>
        <time>2020-02-08T08:18:44.802Z</time>
      </trkpt>
      <trkpt lat="39.01171167" lon="-0.34568">
        <ele>280.973</ele>
        <time>2020-02-08T08:18:45.802Z</time>
      </trkpt>
      <trkpt lat="39.01157333" lon="-0.345765">
        <ele>279.973</ele>
        <time>2020-02-08T08:18:46.802Z</time>
      </trkpt>
      <trkpt lat="39.01157333" lon="-0.345765">
        <ele>279.973</ele>
        <time>2020-02-08T08:18:47.802Z</time>
      </trkpt>
      <trkpt lat="39.01144" lon="-0.34573167">
        <ele>278.973</ele>
        <time>2020-02-08T08:18:48.802Z</time>
      </trkpt>
      <trkpt lat="39.01144" lon="-0.34573167">
        <ele>278.973</ele>
        <time>2020-02-08T08:18:49.802Z</time>
      </trkpt>
      <trkpt lat="39.01135333" lon="-0.345575">
        <ele>277.973</ele>
        <time>2020-02-08T08:18:50.802Z</time>
      </trkpt>
      <trkpt lat="39.01135333" lon="-0.345575">
        <ele>277.973</ele>
        <time>2020-02-08T08:18:51.802Z</time>
      </trkpt>
      <trkpt lat="39.01131" lon="-0.34538167">
        <ele>277.973</ele>
        <time>2020-02-08T08:18:52.802Z</time>
      </trkpt>
      <trkpt lat="39.01131" lon="-0.34538167">
        <ele>277.973</ele>
        <time>2020-02-08T08:18:53.802Z</time>
      </trkpt>
      <trkpt lat="39.01125167" lon="-0.345245">
        <ele>276.973</ele>
        <time>2020-02-08T08:18:54.802Z</time>
      </trkpt>
      <trkpt lat="39.01125167" lon="-0.345245">
        <ele>276.973</ele>
        <time>2020-02-08T08:18:55.802Z</time>
      </trkpt>
      <trkpt lat="39.01115833" lon="-0.34522833">
        <ele>275.973</ele>
        <time>2020-02-08T08:18:56.802Z</time>
      </trkpt>
      <trkpt lat="39.01115833" lon="-0.34522833">
        <ele>275.973</ele>
        <time>2020-02-08T08:18:57.802Z</time>
      </trkpt>
      <trkpt lat="39.01108667" lon="-0.34535333">
        <ele>274.973</ele>
        <time>2020-02-08T08:18:58.802Z</time>
      </trkpt>
      <trkpt lat="39.01108667" lon="-0.34535333">
        <ele>274.973</ele>
        <time>2020-02-08T08:18:59.802Z</time>
      </trkpt>
      <trkpt lat="39.01105333" lon="-0.34555333">
        <ele>274.973</ele>
        <time>2020-02-08T08:19:00.802Z</time>
      </trkpt>
      <trkpt lat="39.01105333" lon="-0.34555333">
        <ele>274.973</ele>
        <time>2020-02-08T08:19:01.802Z</time>
      </trkpt>
      <trkpt lat="39.01107" lon="-0.34577">
        <ele>273.973</ele>
        <time>2020-02-08T08:19:02.802Z</time>
      </trkpt>
      <trkpt lat="39.01107" lon="-0.34577">
        <ele>273.973</ele>
        <time>2020-02-08T08:19:03.802Z</time>
      </trkpt>
      <trkpt lat="39.01113333" lon="-0.34599333">
        <ele>272.973</ele>
        <time>2020-02-08T08:19:04.802Z</time>
      </trkpt>
      <trkpt lat="39.01117333" lon="-0.34611">
        <ele>272.973</ele>
        <time>2020-02-08T08:19:05.802Z</time>
      </trkpt>
      <trkpt lat="39.01117333" lon="-0.34611">
        <ele>271.973</ele>
        <time>2020-02-08T08:19:06.802Z</time>
      </trkpt>
      <trkpt lat="39.01125667" lon="-0.34635167">
        <ele>271.973</ele>
        <time>2020-02-08T08:19:07.802Z</time>
      </trkpt>
      <trkpt lat="39.01130333" lon="-0.34646">
        <ele>270.973</ele>
        <time>2020-02-08T08:19:08.802Z</time>
      </trkpt>
      <trkpt lat="39.01130333" lon="-0.34646">
        <ele>270.973</ele>
        <time>2020-02-08T08:19:09.802Z</time>
      </trkpt>
      <trkpt lat="39.01140167" lon="-0.34662333">
        <ele>268.973</ele>
        <time>2020-02-08T08:19:10.802Z</time>
      </trkpt>
      <trkpt lat="39.01140167" lon="-0.34662333">
        <ele>268.973</ele>
        <time>2020-02-08T08:19:11.802Z</time>
      </trkpt>
      <trkpt lat="39.01152667" lon="-0.34667833">
        <ele>267.973</ele>
        <time>2020-02-08T08:19:12.802Z</time>
      </trkpt>
      <trkpt lat="39.01152667" lon="-0.34667833">
        <ele>267.973</ele>
        <time>2020-02-08T08:19:13.802Z</time>
      </trkpt>
      <trkpt lat="39.01166667" lon="-0.34664833">
        <ele>267.973</ele>
        <time>2020-02-08T08:19:14.802Z</time>
      </trkpt>
      <trkpt lat="39.01166667" lon="-0.34664833">
        <ele>266.973</ele>
        <time>2020-02-08T08:19:15.802Z</time>
      </trkpt>
      <trkpt lat="39.01181" lon="-0.34655167">
        <ele>266.973</ele>
        <time>2020-02-08T08:19:16.802Z</time>
      </trkpt>
      <trkpt lat="39.01181" lon="-0.34655167">
        <ele>266.973</ele>
        <time>2020-02-08T08:19:17.802Z</time>
      </trkpt>
      <trkpt lat="39.01192667" lon="-0.34640333">
        <ele>266.973</ele>
        <time>2020-02-08T08:19:18.802Z</time>
      </trkpt>
      <trkpt lat="39.01192667" lon="-0.34640333">
        <ele>265.973</ele>
        <time>2020-02-08T08:19:19.802Z</time>
      </trkpt>
      <trkpt lat="39.01202833" lon="-0.34628833">
        <ele>265.973</ele>
        <time>2020-02-08T08:19:20.802Z</time>
      </trkpt>
      <trkpt lat="39.01202833" lon="-0.34628833">
        <ele>265.973</ele>
        <time>2020-02-08T08:19:21.802Z</time>
      </trkpt>
      <trkpt lat="39.01212667" lon="-0.34628667">
        <ele>265.973</ele>
        <time>2020-02-08T08:19:22.802Z</time>
      </trkpt>
      <trkpt lat="39.01212667" lon="-0.34628667">
        <ele>264.973</ele>
        <time>2020-02-08T08:19:23.802Z</time>
      </trkpt>
      <trkpt lat="39.01219833" lon="-0.346405">
        <ele>264.973</ele>
        <time>2020-02-08T08:19:24.802Z</time>
      </trkpt>
      <trkpt lat="39.01219833" lon="-0.346405">
        <ele>264.973</ele>
        <time>2020-02-08T08:19:25.802Z</time>
      </trkpt>
      <trkpt lat="39.01223833" lon="-0.34658833">
        <ele>264.973</ele>
        <time>2020-02-08T08:19:26.802Z</time>
      </trkpt>
      <trkpt lat="39.01223833" lon="-0.34658833">
        <ele>263.973</ele>
        <time>2020-02-08T08:19:27.802Z</time>
      </trkpt>
      <trkpt lat="39.01229333" lon="-0.34679333">
        <ele>263.973</ele>
        <time>2020-02-08T08:19:28.802Z</time>
      </trkpt>
      <trkpt lat="39.01232667" lon="-0.34690167">
        <ele>262.973</ele>
        <time>2020-02-08T08:19:29.802Z</time>
      </trkpt>
      <trkpt lat="39.01232667" lon="-0.34690167">
        <ele>262.973</ele>
        <time>2020-02-08T08:19:30.802Z</time>
      </trkpt>
      <trkpt lat="39.01241" lon="-0.34712333">
        <ele>261.973</ele>
        <time>2020-02-08T08:19:31.802Z</time>
      </trkpt>
      <trkpt lat="39.01246333" lon="-0.34722833">
        <ele>261.973</ele>
        <time>2020-02-08T08:19:32.802Z</time>
      </trkpt>
      <trkpt lat="39.01246333" lon="-0.34722833">
        <ele>261.973</ele>
        <time>2020-02-08T08:19:33.802Z</time>
      </trkpt>
      <trkpt lat="39.012605" lon="-0.34741833">
        <ele>261.973</ele>
        <time>2020-02-08T08:19:34.802Z</time>
      </trkpt>
      <trkpt lat="39.012605" lon="-0.34741833">
        <ele>259.973</ele>
        <time>2020-02-08T08:19:35.802Z</time>
      </trkpt>
      <trkpt lat="39.01275" lon="-0.347615">
        <ele>259.973</ele>
        <time>2020-02-08T08:19:36.802Z</time>
      </trkpt>
      <trkpt lat="39.01275" lon="-0.347615">
        <ele>258.973</ele>
        <time>2020-02-08T08:19:37.802Z</time>
      </trkpt>
      <trkpt lat="39.01288167" lon="-0.34783833">
        <ele>258.973</ele>
        <time>2020-02-08T08:19:38.802Z</time>
      </trkpt>
      <trkpt lat="39.01288167" lon="-0.34783833">
        <ele>256.973</ele>
        <time>2020-02-08T08:19:39.802Z</time>
      </trkpt>
      <trkpt lat="39.01301" lon="-0.34806833">
        <ele>256.973</ele>
        <time>2020-02-08T08:19:40.802Z</time>
      </trkpt>
      <trkpt lat="39.01301" lon="-0.34806833">
        <ele>255.973</ele>
        <time>2020-02-08T08:19:41.802Z</time>
      </trkpt>
      <trkpt lat="39.01311667" lon="-0.34830167">
        <ele>255.973</ele>
        <time>2020-02-08T08:19:42.802Z</time>
      </trkpt>
      <trkpt lat="39.01311667" lon="-0.34830167">
        <ele>253.973</ele>
        <time>2020-02-08T08:19:43.802Z</time>
      </trkpt>
      <trkpt lat="39.01322667" lon="-0.348525">
        <ele>252.973</ele>
        <time>2020-02-08T08:19:44.802Z</time>
      </trkpt>
      <trkpt lat="39.01327333" lon="-0.348625">
        <ele>252.973</ele>
        <time>2020-02-08T08:19:45.802Z</time>
      </trkpt>
      <trkpt lat="39.01327333" lon="-0.348625">
        <ele>250.973</ele>
        <time>2020-02-08T08:19:46.802Z</time>
      </trkpt>
      <trkpt lat="39.01334167" lon="-0.34886167">
        <ele>250.973</ele>
        <time>2020-02-08T08:19:47.802Z</time>
      </trkpt>
      <trkpt lat="39.01336167" lon="-0.34899">
        <ele>249.973</ele>
        <time>2020-02-08T08:19:48.802Z</time>
      </trkpt>
      <trkpt lat="39.01338" lon="-0.34912">
        <ele>249.973</ele>
        <time>2020-02-08T08:19:49.802Z</time>
      </trkpt>
      <trkpt lat="39.01338" lon="-0.34912">
        <ele>248.973</ele>
        <time>2020-02-08T08:19:50.802Z</time>
      </trkpt>
      <trkpt lat="39.01343667" lon="-0.34937333">
        <ele>248.973</ele>
        <time>2020-02-08T08:19:51.802Z</time>
      </trkpt>
      <trkpt lat="39.01348333" lon="-0.34948833">
        <ele>247.973</ele>
        <time>2020-02-08T08:19:52.802Z</time>
      </trkpt>
      <trkpt lat="39.01348333" lon="-0.34948833">
        <ele>247.973</ele>
        <time>2020-02-08T08:19:53.802Z</time>
      </trkpt>
      <trkpt lat="39.013585" lon="-0.3497">
        <ele>247.973</ele>
        <time>2020-02-08T08:19:54.802Z</time>
      </trkpt>
      <trkpt lat="39.013585" lon="-0.3497">
        <ele>247.973</ele>
        <time>2020-02-08T08:19:55.802Z</time>
      </trkpt>
      <trkpt lat="39.01366667" lon="-0.34991167">
        <ele>245.973</ele>
        <time>2020-02-08T08:19:56.802Z</time>
      </trkpt>
      <trkpt lat="39.01366667" lon="-0.34991167">
        <ele>245.973</ele>
        <time>2020-02-08T08:19:57.802Z</time>
      </trkpt>
      <trkpt lat="39.01367167" lon="-0.35014667">
        <ele>244.973</ele>
        <time>2020-02-08T08:19:58.802Z</time>
      </trkpt>
      <trkpt lat="39.01367167" lon="-0.35014667">
        <ele>244.973</ele>
        <time>2020-02-08T08:19:59.802Z</time>
      </trkpt>
      <trkpt lat="39.01363167" lon="-0.35039167">
        <ele>243.973</ele>
        <time>2020-02-08T08:20:00.802Z</time>
      </trkpt>
      <trkpt lat="39.01363167" lon="-0.35039167">
        <ele>243.973</ele>
        <time>2020-02-08T08:20:01.802Z</time>
      </trkpt>
      <trkpt lat="39.01356667" lon="-0.35057667">
        <ele>241.973</ele>
        <time>2020-02-08T08:20:02.802Z</time>
      </trkpt>
      <trkpt lat="39.01356667" lon="-0.35057667">
        <ele>241.973</ele>
        <time>2020-02-08T08:20:03.802Z</time>
      </trkpt>
      <trkpt lat="39.01346167" lon="-0.35072">
        <ele>240.973</ele>
        <time>2020-02-08T08:20:04.802Z</time>
      </trkpt>
      <trkpt lat="39.01346167" lon="-0.35072">
        <ele>240.973</ele>
        <time>2020-02-08T08:20:05.802Z</time>
      </trkpt>
      <trkpt lat="39.01330833" lon="-0.35082167">
        <ele>239.973</ele>
        <time>2020-02-08T08:20:06.802Z</time>
      </trkpt>
      <trkpt lat="39.01330833" lon="-0.35082167">
        <ele>239.973</ele>
        <time>2020-02-08T08:20:07.802Z</time>
      </trkpt>
      <trkpt lat="39.01312333" lon="-0.35089">
        <ele>239.973</ele>
        <time>2020-02-08T08:20:08.802Z</time>
      </trkpt>
      <trkpt lat="39.01312333" lon="-0.35089">
        <ele>239.973</ele>
        <time>2020-02-08T08:20:09.802Z</time>
      </trkpt>
      <trkpt lat="39.01293833" lon="-0.35094">
        <ele>238.973</ele>
        <time>2020-02-08T08:20:10.802Z</time>
      </trkpt>
      <trkpt lat="39.01293833" lon="-0.35094">
        <ele>238.973</ele>
        <time>2020-02-08T08:20:11.802Z</time>
      </trkpt>
      <trkpt lat="39.01276667" lon="-0.35094667">
        <ele>237.973</ele>
        <time>2020-02-08T08:20:12.802Z</time>
      </trkpt>
      <trkpt lat="39.01276667" lon="-0.35094667">
        <ele>237.973</ele>
        <time>2020-02-08T08:20:13.802Z</time>
      </trkpt>
      <trkpt lat="39.01259" lon="-0.35092333">
        <ele>236.973</ele>
        <time>2020-02-08T08:20:14.802Z</time>
      </trkpt>
      <trkpt lat="39.01259" lon="-0.35092333">
        <ele>236.973</ele>
        <time>2020-02-08T08:20:15.802Z</time>
      </trkpt>
      <trkpt lat="39.01242667" lon="-0.350985">
        <ele>236.973</ele>
        <time>2020-02-08T08:20:16.802Z</time>
      </trkpt>
      <trkpt lat="39.01242667" lon="-0.350985">
        <ele>235.973</ele>
        <time>2020-02-08T08:20:17.802Z</time>
      </trkpt>
      <trkpt lat="39.01229667" lon="-0.35114167">
        <ele>235.973</ele>
        <time>2020-02-08T08:20:18.802Z</time>
      </trkpt>
      <trkpt lat="39.01229667" lon="-0.35114167">
        <ele>235.973</ele>
        <time>2020-02-08T08:20:19.802Z</time>
      </trkpt>
      <trkpt lat="39.012235" lon="-0.35135333">
        <ele>235.973</ele>
        <time>2020-02-08T08:20:20.802Z</time>
      </trkpt>
      <trkpt lat="39.01224" lon="-0.35147167">
        <ele>235.973</ele>
        <time>2020-02-08T08:20:21.802Z</time>
      </trkpt>
      <trkpt lat="39.01225833" lon="-0.351595">
        <ele>235.973</ele>
        <time>2020-02-08T08:20:22.802Z</time>
      </trkpt>
      <trkpt lat="39.01225833" lon="-0.351595">
        <ele>235.973</ele>
        <time>2020-02-08T08:20:23.802Z</time>
      </trkpt>
      <trkpt lat="39.01225833" lon="-0.35184833">
        <ele>235.973</ele>
        <time>2020-02-08T08:20:24.802Z</time>
      </trkpt>
      <trkpt lat="39.01225833" lon="-0.35184833">
        <ele>234.973</ele>
        <time>2020-02-08T08:20:25.802Z</time>
      </trkpt>
      <trkpt lat="39.01219667" lon="-0.352095">
        <ele>234.973</ele>
        <time>2020-02-08T08:20:26.802Z</time>
      </trkpt>
      <trkpt lat="39.01219667" lon="-0.352095">
        <ele>234.973</ele>
        <time>2020-02-08T08:20:27.802Z</time>
      </trkpt>
      <trkpt lat="39.01209333" lon="-0.35231833">
        <ele>234.973</ele>
        <time>2020-02-08T08:20:28.802Z</time>
      </trkpt>
      <trkpt lat="39.01203" lon="-0.352415">
        <ele>234.973</ele>
        <time>2020-02-08T08:20:29.802Z</time>
      </trkpt>
      <trkpt lat="39.01203" lon="-0.352415">
        <ele>234.973</ele>
        <time>2020-02-08T08:20:30.802Z</time>
      </trkpt>
      <trkpt lat="39.01187833" lon="-0.35256833">
        <ele>233.973</ele>
        <time>2020-02-08T08:20:31.802Z</time>
      </trkpt>
      <trkpt lat="39.01179667" lon="-0.35263">
        <ele>233.973</ele>
        <time>2020-02-08T08:20:32.802Z</time>
      </trkpt>
      <trkpt lat="39.01179667" lon="-0.35263">
        <ele>233.973</ele>
        <time>2020-02-08T08:20:33.802Z</time>
      </trkpt>
      <trkpt lat="39.011635" lon="-0.35272">
        <ele>233.973</ele>
        <time>2020-02-08T08:20:34.802Z</time>
      </trkpt>
      <trkpt lat="39.011635" lon="-0.35272">
        <ele>233.973</ele>
        <time>2020-02-08T08:20:35.802Z</time>
      </trkpt>
      <trkpt lat="39.01147333" lon="-0.35276333">
        <ele>233.973</ele>
        <time>2020-02-08T08:20:36.802Z</time>
      </trkpt>
      <trkpt lat="39.01147333" lon="-0.35276333">
        <ele>233.973</ele>
        <time>2020-02-08T08:20:37.802Z</time>
      </trkpt>
      <trkpt lat="39.01131333" lon="-0.35275333">
        <ele>233.973</ele>
        <time>2020-02-08T08:20:38.802Z</time>
      </trkpt>
      <trkpt lat="39.01131333" lon="-0.35275333">
        <ele>232.973</ele>
        <time>2020-02-08T08:20:39.802Z</time>
      </trkpt>
      <trkpt lat="39.01115667" lon="-0.35272167">
        <ele>232.973</ele>
        <time>2020-02-08T08:20:40.802Z</time>
      </trkpt>
      <trkpt lat="39.01108" lon="-0.35270667">
        <ele>232.973</ele>
        <time>2020-02-08T08:20:41.802Z</time>
      </trkpt>
      <trkpt lat="39.01108" lon="-0.35270667">
        <ele>232.973</ele>
        <time>2020-02-08T08:20:42.802Z</time>
      </trkpt>
      <trkpt lat="39.01094167" lon="-0.35268333">
        <ele>232.973</ele>
        <time>2020-02-08T08:20:43.802Z</time>
      </trkpt>
      <trkpt lat="39.01088167" lon="-0.35267167">
        <ele>231.973</ele>
        <time>2020-02-08T08:20:44.802Z</time>
      </trkpt>
      <trkpt lat="39.01088167" lon="-0.35267167">
        <ele>231.973</ele>
        <time>2020-02-08T08:20:45.802Z</time>
      </trkpt>
      <trkpt lat="39.01075667" lon="-0.35265667">
        <ele>231.973</ele>
        <time>2020-02-08T08:20:46.802Z</time>
      </trkpt>
      <trkpt lat="39.01075667" lon="-0.35265667">
        <ele>231.973</ele>
        <time>2020-02-08T08:20:47.802Z</time>
      </trkpt>
      <trkpt lat="39.01065333" lon="-0.35269833">
        <ele>231.973</ele>
        <time>2020-02-08T08:20:48.802Z</time>
      </trkpt>
      <trkpt lat="39.01065333" lon="-0.35269833">
        <ele>231.973</ele>
        <time>2020-02-08T08:20:49.802Z</time>
      </trkpt>
      <trkpt lat="39.01057" lon="-0.35282167">
        <ele>231.973</ele>
        <time>2020-02-08T08:20:50.802Z</time>
      </trkpt>
      <trkpt lat="39.01055667" lon="-0.35291833">
        <ele>231.973</ele>
        <time>2020-02-08T08:20:51.802Z</time>
      </trkpt>
      <trkpt lat="39.01055667" lon="-0.35291833">
        <ele>230.973</ele>
        <time>2020-02-08T08:20:52.802Z</time>
      </trkpt>
      <trkpt lat="39.01053" lon="-0.35310667">
        <ele>230.973</ele>
        <time>2020-02-08T08:20:53.802Z</time>
      </trkpt>
      <trkpt lat="39.01051333" lon="-0.35320333">
        <ele>230.973</ele>
        <time>2020-02-08T08:20:54.802Z</time>
      </trkpt>
      <trkpt lat="39.01051333" lon="-0.35320333">
        <ele>230.973</ele>
        <time>2020-02-08T08:20:55.802Z</time>
      </trkpt>
      <trkpt lat="39.01046167" lon="-0.35339333">
        <ele>231.973</ele>
        <time>2020-02-08T08:20:56.802Z</time>
      </trkpt>
      <trkpt lat="39.01046167" lon="-0.35339333">
        <ele>231.973</ele>
        <time>2020-02-08T08:20:57.802Z</time>
      </trkpt>
      <trkpt lat="39.01041667" lon="-0.353575">
        <ele>232.973</ele>
        <time>2020-02-08T08:20:58.802Z</time>
      </trkpt>
      <trkpt lat="39.01041" lon="-0.35366167">
        <ele>232.973</ele>
        <time>2020-02-08T08:20:59.802Z</time>
      </trkpt>
      <trkpt lat="39.01041167" lon="-0.353745">
        <ele>233.973</ele>
        <time>2020-02-08T08:21:00.802Z</time>
      </trkpt>
      <trkpt lat="39.01041167" lon="-0.353745">
        <ele>233.973</ele>
        <time>2020-02-08T08:21:01.802Z</time>
      </trkpt>
      <trkpt lat="39.01046167" lon="-0.35390833">
        <ele>234.973</ele>
        <time>2020-02-08T08:21:02.802Z</time>
      </trkpt>
      <trkpt lat="39.01046167" lon="-0.35390833">
        <ele>234.973</ele>
        <time>2020-02-08T08:21:03.802Z</time>
      </trkpt>
      <trkpt lat="39.01051333" lon="-0.35406167">
        <ele>234.973</ele>
        <time>2020-02-08T08:21:04.802Z</time>
      </trkpt>
      <trkpt lat="39.01051333" lon="-0.35406167">
        <ele>234.973</ele>
        <time>2020-02-08T08:21:05.802Z</time>
      </trkpt>
      <trkpt lat="39.01056667" lon="-0.35420333">
        <ele>235.973</ele>
        <time>2020-02-08T08:21:06.802Z</time>
      </trkpt>
      <trkpt lat="39.01056667" lon="-0.35420333">
        <ele>235.973</ele>
        <time>2020-02-08T08:21:07.802Z</time>
      </trkpt>
      <trkpt lat="39.01062" lon="-0.35434333">
        <ele>235.973</ele>
        <time>2020-02-08T08:21:08.802Z</time>
      </trkpt>
      <trkpt lat="39.01064667" lon="-0.35441">
        <ele>235.973</ele>
        <time>2020-02-08T08:21:09.802Z</time>
      </trkpt>
      <trkpt lat="39.01064667" lon="-0.35441">
        <ele>236.973</ele>
        <time>2020-02-08T08:21:10.802Z</time>
      </trkpt>
      <trkpt lat="39.01069667" lon="-0.35454167">
        <ele>236.973</ele>
        <time>2020-02-08T08:21:11.802Z</time>
      </trkpt>
      <trkpt lat="39.01071667" lon="-0.35460667">
        <ele>236.973</ele>
        <time>2020-02-08T08:21:12.802Z</time>
      </trkpt>
      <trkpt lat="39.01071667" lon="-0.35460667">
        <ele>237.973</ele>
        <time>2020-02-08T08:21:13.802Z</time>
      </trkpt>
      <trkpt lat="39.01076167" lon="-0.35472333">
        <ele>237.973</ele>
        <time>2020-02-08T08:21:14.802Z</time>
      </trkpt>
      <trkpt lat="39.01076167" lon="-0.35472333">
        <ele>238.973</ele>
        <time>2020-02-08T08:21:15.802Z</time>
      </trkpt>
      <trkpt lat="39.01081833" lon="-0.35483167">
        <ele>238.973</ele>
        <time>2020-02-08T08:21:16.802Z</time>
      </trkpt>
      <trkpt lat="39.01081833" lon="-0.35483167">
        <ele>238.973</ele>
        <time>2020-02-08T08:21:17.802Z</time>
      </trkpt>
      <trkpt lat="39.01089833" lon="-0.35493">
        <ele>238.973</ele>
        <time>2020-02-08T08:21:18.802Z</time>
      </trkpt>
      <trkpt lat="39.01089833" lon="-0.35493">
        <ele>238.973</ele>
        <time>2020-02-08T08:21:19.802Z</time>
      </trkpt>
      <trkpt lat="39.01100333" lon="-0.35503167">
        <ele>238.973</ele>
        <time>2020-02-08T08:21:20.802Z</time>
      </trkpt>
      <trkpt lat="39.01100333" lon="-0.35503167">
        <ele>238.973</ele>
        <time>2020-02-08T08:21:21.802Z</time>
      </trkpt>
      <trkpt lat="39.01111833" lon="-0.35516167">
        <ele>238.973</ele>
        <time>2020-02-08T08:21:22.802Z</time>
      </trkpt>
      <trkpt lat="39.01111833" lon="-0.35516167">
        <ele>238.973</ele>
        <time>2020-02-08T08:21:23.802Z</time>
      </trkpt>
      <trkpt lat="39.01126" lon="-0.355315">
        <ele>238.973</ele>
        <time>2020-02-08T08:21:24.802Z</time>
      </trkpt>
      <trkpt lat="39.01133167" lon="-0.355395">
        <ele>236.973</ele>
        <time>2020-02-08T08:21:25.802Z</time>
      </trkpt>
      <trkpt lat="39.01133167" lon="-0.355395">
        <ele>236.973</ele>
        <time>2020-02-08T08:21:26.802Z</time>
      </trkpt>
      <trkpt lat="39.01148" lon="-0.35554833">
        <ele>235.973</ele>
        <time>2020-02-08T08:21:27.802Z</time>
      </trkpt>
      <trkpt lat="39.01148" lon="-0.35554833">
        <ele>235.973</ele>
        <time>2020-02-08T08:21:28.802Z</time>
      </trkpt>
      <trkpt lat="39.011625" lon="-0.35568667">
        <ele>233.973</ele>
        <time>2020-02-08T08:21:29.802Z</time>
      </trkpt>
      <trkpt lat="39.01167833" lon="-0.35573333">
        <ele>233.973</ele>
        <time>2020-02-08T08:21:30.802Z</time>
      </trkpt>
      <trkpt lat="39.01167833" lon="-0.35573333">
        <ele>232.973</ele>
        <time>2020-02-08T08:21:31.802Z</time>
      </trkpt>
      <trkpt lat="39.01176167" lon="-0.35582333">
        <ele>232.973</ele>
        <time>2020-02-08T08:21:32.802Z</time>
      </trkpt>
      <trkpt lat="39.01176167" lon="-0.35582333">
        <ele>231.973</ele>
        <time>2020-02-08T08:21:33.802Z</time>
      </trkpt>
      <trkpt lat="39.01186" lon="-0.35593">
        <ele>231.973</ele>
        <time>2020-02-08T08:21:34.802Z</time>
      </trkpt>
      <trkpt lat="39.01186" lon="-0.35593">
        <ele>230.973</ele>
        <time>2020-02-08T08:21:35.802Z</time>
      </trkpt>
      <trkpt lat="39.011975" lon="-0.35605167">
        <ele>230.973</ele>
        <time>2020-02-08T08:21:36.802Z</time>
      </trkpt>
      <trkpt lat="39.011975" lon="-0.35605167">
        <ele>229.973</ele>
        <time>2020-02-08T08:21:37.802Z</time>
      </trkpt>
      <trkpt lat="39.012085" lon="-0.35615333">
        <ele>229.973</ele>
        <time>2020-02-08T08:21:38.802Z</time>
      </trkpt>
      <trkpt lat="39.012085" lon="-0.35615333">
        <ele>228.973</ele>
        <time>2020-02-08T08:21:39.802Z</time>
      </trkpt>
      <trkpt lat="39.01219167" lon="-0.35623667">
        <ele>228.973</ele>
        <time>2020-02-08T08:21:40.802Z</time>
      </trkpt>
      <trkpt lat="39.01219167" lon="-0.35623667">
        <ele>227.973</ele>
        <time>2020-02-08T08:21:41.802Z</time>
      </trkpt>
      <trkpt lat="39.01227" lon="-0.35626833">
        <ele>226.973</ele>
        <time>2020-02-08T08:21:42.802Z</time>
      </trkpt>
      <trkpt lat="39.01227" lon="-0.35626833">
        <ele>226.973</ele>
        <time>2020-02-08T08:21:43.802Z</time>
      </trkpt>
      <trkpt lat="39.01234333" lon="-0.35627833">
        <ele>225.973</ele>
        <time>2020-02-08T08:21:44.802Z</time>
      </trkpt>
      <trkpt lat="39.01234333" lon="-0.35627833">
        <ele>225.973</ele>
        <time>2020-02-08T08:21:45.802Z</time>
      </trkpt>
      <trkpt lat="39.01245667" lon="-0.35628667">
        <ele>224.973</ele>
        <time>2020-02-08T08:21:46.802Z</time>
      </trkpt>
      <trkpt lat="39.01245667" lon="-0.35628667">
        <ele>224.973</ele>
        <time>2020-02-08T08:21:47.802Z</time>
      </trkpt>
      <trkpt lat="39.01257667" lon="-0.35629167">
        <ele>222.973</ele>
        <time>2020-02-08T08:21:48.802Z</time>
      </trkpt>
      <trkpt lat="39.01257667" lon="-0.35629167">
        <ele>222.973</ele>
        <time>2020-02-08T08:21:49.802Z</time>
      </trkpt>
      <trkpt lat="39.01267333" lon="-0.356325">
        <ele>221.973</ele>
        <time>2020-02-08T08:21:50.802Z</time>
      </trkpt>
      <trkpt lat="39.01267333" lon="-0.356325">
        <ele>221.973</ele>
        <time>2020-02-08T08:21:51.802Z</time>
      </trkpt>
      <trkpt lat="39.012735" lon="-0.35644">
        <ele>219.973</ele>
        <time>2020-02-08T08:21:52.802Z</time>
      </trkpt>
      <trkpt lat="39.01274833" lon="-0.35652333">
        <ele>219.973</ele>
        <time>2020-02-08T08:21:53.802Z</time>
      </trkpt>
      <trkpt lat="39.01274833" lon="-0.35652333">
        <ele>218.973</ele>
        <time>2020-02-08T08:21:54.802Z</time>
      </trkpt>
      <trkpt lat="39.01276167" lon="-0.35670667">
        <ele>218.973</ele>
        <time>2020-02-08T08:21:55.802Z</time>
      </trkpt>
      <trkpt lat="39.01276333" lon="-0.35680333">
        <ele>216.973</ele>
        <time>2020-02-08T08:21:56.802Z</time>
      </trkpt>
      <trkpt lat="39.01276333" lon="-0.35680333">
        <ele>216.973</ele>
        <time>2020-02-08T08:21:57.802Z</time>
      </trkpt>
      <trkpt lat="39.01277167" lon="-0.357">
        <ele>214.973</ele>
        <time>2020-02-08T08:21:58.802Z</time>
      </trkpt>
      <trkpt lat="39.01277167" lon="-0.357">
        <ele>214.973</ele>
        <time>2020-02-08T08:21:59.802Z</time>
      </trkpt>
      <trkpt lat="39.01277333" lon="-0.35720167">
        <ele>212.973</ele>
        <time>2020-02-08T08:22:00.802Z</time>
      </trkpt>
      <trkpt lat="39.01277333" lon="-0.35720167">
        <ele>212.973</ele>
        <time>2020-02-08T08:22:01.802Z</time>
      </trkpt>
      <trkpt lat="39.01276667" lon="-0.35741">
        <ele>210.973</ele>
        <time>2020-02-08T08:22:02.802Z</time>
      </trkpt>
      <trkpt lat="39.01276667" lon="-0.35741">
        <ele>210.973</ele>
        <time>2020-02-08T08:22:03.802Z</time>
      </trkpt>
      <trkpt lat="39.01275" lon="-0.35763167">
        <ele>208.973</ele>
        <time>2020-02-08T08:22:04.802Z</time>
      </trkpt>
      <trkpt lat="39.01275" lon="-0.35763167">
        <ele>208.973</ele>
        <time>2020-02-08T08:22:05.802Z</time>
      </trkpt>
      <trkpt lat="39.01270333" lon="-0.357845">
        <ele>206.973</ele>
        <time>2020-02-08T08:22:06.802Z</time>
      </trkpt>
      <trkpt lat="39.01270333" lon="-0.357845">
        <ele>206.973</ele>
        <time>2020-02-08T08:22:07.802Z</time>
      </trkpt>
      <trkpt lat="39.01265167" lon="-0.35804333">
        <ele>203.973</ele>
        <time>2020-02-08T08:22:08.802Z</time>
      </trkpt>
      <trkpt lat="39.01265167" lon="-0.35804333">
        <ele>203.973</ele>
        <time>2020-02-08T08:22:09.802Z</time>
      </trkpt>
      <trkpt lat="39.01260333" lon="-0.35820667">
        <ele>201.973</ele>
        <time>2020-02-08T08:22:10.802Z</time>
      </trkpt>
      <trkpt lat="39.01260333" lon="-0.35820667">
        <ele>201.973</ele>
        <time>2020-02-08T08:22:11.802Z</time>
      </trkpt>
      <trkpt lat="39.01256667" lon="-0.35833333">
        <ele>200.973</ele>
        <time>2020-02-08T08:22:12.802Z</time>
      </trkpt>
      <trkpt lat="39.01256667" lon="-0.35833333">
        <ele>198.973</ele>
        <time>2020-02-08T08:22:13.802Z</time>
      </trkpt>
      <trkpt lat="39.01254667" lon="-0.35842667">
        <ele>198.973</ele>
        <time>2020-02-08T08:22:14.802Z</time>
      </trkpt>
      <trkpt lat="39.01254667" lon="-0.35842667">
        <ele>198.973</ele>
        <time>2020-02-08T08:22:15.802Z</time>
      </trkpt>
      <trkpt lat="39.01253167" lon="-0.35850167">
        <ele>197.973</ele>
        <time>2020-02-08T08:22:16.802Z</time>
      </trkpt>
      <trkpt lat="39.01253167" lon="-0.35850167">
        <ele>197.973</ele>
        <time>2020-02-08T08:22:17.802Z</time>
      </trkpt>
      <trkpt lat="39.01251833" lon="-0.35857167">
        <ele>196.973</ele>
        <time>2020-02-08T08:22:18.802Z</time>
      </trkpt>
      <trkpt lat="39.01251833" lon="-0.35857167">
        <ele>196.973</ele>
        <time>2020-02-08T08:22:19.802Z</time>
      </trkpt>
      <trkpt lat="39.01252" lon="-0.35863833">
        <ele>196.973</ele>
        <time>2020-02-08T08:22:20.802Z</time>
      </trkpt>
      <trkpt lat="39.01252" lon="-0.35863833">
        <ele>196.973</ele>
        <time>2020-02-08T08:22:21.802Z</time>
      </trkpt>
      <trkpt lat="39.01252333" lon="-0.358705">
        <ele>195.973</ele>
        <time>2020-02-08T08:22:22.802Z</time>
      </trkpt>
      <trkpt lat="39.01252333" lon="-0.358705">
        <ele>195.973</ele>
        <time>2020-02-08T08:22:23.802Z</time>
      </trkpt>
      <trkpt lat="39.01253667" lon="-0.358775">
        <ele>195.973</ele>
        <time>2020-02-08T08:22:24.802Z</time>
      </trkpt>
      <trkpt lat="39.01253667" lon="-0.358775">
        <ele>195.973</ele>
        <time>2020-02-08T08:22:25.802Z</time>
      </trkpt>
      <trkpt lat="39.01255667" lon="-0.35884833">
        <ele>195.973</ele>
        <time>2020-02-08T08:22:26.802Z</time>
      </trkpt>
      <trkpt lat="39.01255667" lon="-0.35884833">
        <ele>195.973</ele>
        <time>2020-02-08T08:22:27.802Z</time>
      </trkpt>
      <trkpt lat="39.01257333" lon="-0.35892167">
        <ele>195.973</ele>
        <time>2020-02-08T08:22:28.802Z</time>
      </trkpt>
      <trkpt lat="39.01258333" lon="-0.35896167">
        <ele>195.973</ele>
        <time>2020-02-08T08:22:29.802Z</time>
      </trkpt>
      <trkpt lat="39.01259" lon="-0.35899833">
        <ele>195.973</ele>
        <time>2020-02-08T08:22:30.802Z</time>
      </trkpt>
      <trkpt lat="39.01259" lon="-0.35899833">
        <ele>195.973</ele>
        <time>2020-02-08T08:22:31.802Z</time>
      </trkpt>
      <trkpt lat="39.01260833" lon="-0.35907">
        <ele>195.973</ele>
        <time>2020-02-08T08:22:32.802Z</time>
      </trkpt>
      <trkpt lat="39.01260833" lon="-0.35907">
        <ele>195.973</ele>
        <time>2020-02-08T08:22:33.802Z</time>
      </trkpt>
      <trkpt lat="39.01263167" lon="-0.35914833">
        <ele>195.973</ele>
        <time>2020-02-08T08:22:34.802Z</time>
      </trkpt>
      <trkpt lat="39.01263167" lon="-0.35914833">
        <ele>195.973</ele>
        <time>2020-02-08T08:22:35.802Z</time>
      </trkpt>
      <trkpt lat="39.01265333" lon="-0.35923167">
        <ele>194.973</ele>
        <time>2020-02-08T08:22:36.802Z</time>
      </trkpt>
      <trkpt lat="39.01265333" lon="-0.35923167">
        <ele>194.973</ele>
        <time>2020-02-08T08:22:37.802Z</time>
      </trkpt>
      <trkpt lat="39.012675" lon="-0.35932">
        <ele>194.973</ele>
        <time>2020-02-08T08:22:38.802Z</time>
      </trkpt>
      <trkpt lat="39.012675" lon="-0.35932">
        <ele>194.973</ele>
        <time>2020-02-08T08:22:39.802Z</time>
      </trkpt>
      <trkpt lat="39.01270167" lon="-0.35940333">
        <ele>194.973</ele>
        <time>2020-02-08T08:22:40.802Z</time>
      </trkpt>
      <trkpt lat="39.01270167" lon="-0.35940333">
        <ele>194.973</ele>
        <time>2020-02-08T08:22:41.802Z</time>
      </trkpt>
      <trkpt lat="39.01272667" lon="-0.35948333">
        <ele>194.973</ele>
        <time>2020-02-08T08:22:42.802Z</time>
      </trkpt>
      <trkpt lat="39.01272667" lon="-0.35948333">
        <ele>194.973</ele>
        <time>2020-02-08T08:22:43.802Z</time>
      </trkpt>
      <trkpt lat="39.01275333" lon="-0.35956">
        <ele>194.973</ele>
        <time>2020-02-08T08:22:44.802Z</time>
      </trkpt>
      <trkpt lat="39.01275333" lon="-0.35956">
        <ele>194.973</ele>
        <time>2020-02-08T08:22:45.802Z</time>
      </trkpt>
      <trkpt lat="39.01277" lon="-0.35962167">
        <ele>194.973</ele>
        <time>2020-02-08T08:22:46.802Z</time>
      </trkpt>
      <trkpt lat="39.01277" lon="-0.35962167">
        <ele>194.973</ele>
        <time>2020-02-08T08:22:47.802Z</time>
      </trkpt>
      <trkpt lat="39.01278833" lon="-0.35967833">
        <ele>194.973</ele>
        <time>2020-02-08T08:22:48.802Z</time>
      </trkpt>
      <trkpt lat="39.01278833" lon="-0.35967833">
        <ele>194.973</ele>
        <time>2020-02-08T08:22:49.802Z</time>
      </trkpt>
      <trkpt lat="39.01280833" lon="-0.359735">
        <ele>194.973</ele>
        <time>2020-02-08T08:22:50.802Z</time>
      </trkpt>
      <trkpt lat="39.01280833" lon="-0.359735">
        <ele>194.973</ele>
        <time>2020-02-08T08:22:51.802Z</time>
      </trkpt>
      <trkpt lat="39.01282667" lon="-0.35979">
        <ele>193.973</ele>
        <time>2020-02-08T08:22:52.802Z</time>
      </trkpt>
      <trkpt lat="39.01283833" lon="-0.359815">
        <ele>193.973</ele>
        <time>2020-02-08T08:22:53.802Z</time>
      </trkpt>
      <trkpt lat="39.01284667" lon="-0.35984333">
        <ele>193.973</ele>
        <time>2020-02-08T08:22:54.802Z</time>
      </trkpt>
      <trkpt lat="39.01284667" lon="-0.35984333">
        <ele>193.973</ele>
        <time>2020-02-08T08:22:55.802Z</time>
      </trkpt>
      <trkpt lat="39.01286167" lon="-0.35988833">
        <ele>193.973</ele>
        <time>2020-02-08T08:22:56.802Z</time>
      </trkpt>
      <trkpt lat="39.01286167" lon="-0.35988833">
        <ele>193.973</ele>
        <time>2020-02-08T08:22:57.802Z</time>
      </trkpt>
      <trkpt lat="39.01288167" lon="-0.35993667">
        <ele>193.973</ele>
        <time>2020-02-08T08:22:58.802Z</time>
      </trkpt>
      <trkpt lat="39.01288167" lon="-0.35993667">
        <ele>193.973</ele>
        <time>2020-02-08T08:22:59.802Z</time>
      </trkpt>
      <trkpt lat="39.01289" lon="-0.359975">
        <ele>193.973</ele>
        <time>2020-02-08T08:23:00.802Z</time>
      </trkpt>
      <trkpt lat="39.01289" lon="-0.359975">
        <ele>193.973</ele>
        <time>2020-02-08T08:23:01.802Z</time>
      </trkpt>
      <trkpt lat="39.01290333" lon="-0.36">
        <ele>193.973</ele>
        <time>2020-02-08T08:23:02.802Z</time>
      </trkpt>
      <trkpt lat="39.01290333" lon="-0.36">
        <ele>193.973</ele>
        <time>2020-02-08T08:23:03.802Z</time>
      </trkpt>
      <trkpt lat="39.01291333" lon="-0.360025">
        <ele>193.973</ele>
        <time>2020-02-08T08:23:04.802Z</time>
      </trkpt>
      <trkpt lat="39.01291333" lon="-0.360025">
        <ele>193.973</ele>
        <time>2020-02-08T08:23:05.802Z</time>
      </trkpt>
      <trkpt lat="39.01292333" lon="-0.36004333">
        <ele>193.973</ele>
        <time>2020-02-08T08:23:06.802Z</time>
      </trkpt>
      <trkpt lat="39.01292333" lon="-0.36004333">
        <ele>193.973</ele>
        <time>2020-02-08T08:23:07.802Z</time>
      </trkpt>
      <trkpt lat="39.01293" lon="-0.36006">
        <ele>193.973</ele>
        <time>2020-02-08T08:23:08.802Z</time>
      </trkpt>
      <trkpt lat="39.01293" lon="-0.36006">
        <ele>193.973</ele>
        <time>2020-02-08T08:23:09.802Z</time>
      </trkpt>
      <trkpt lat="39.01293167" lon="-0.36006167">
        <ele>193.973</ele>
        <time>2020-02-08T08:23:10.802Z</time>
      </trkpt>
      <trkpt lat="39.01293167" lon="-0.36006167">
        <ele>193.973</ele>
        <time>2020-02-08T08:23:11.802Z</time>
      </trkpt>
      <trkpt lat="39.01293167" lon="-0.36006167">
        <ele>193.973</ele>
        <time>2020-02-08T08:23:15.559Z</time>
      </trkpt>
      <trkpt lat="39.01293167" lon="-0.36006167">
        <ele>193.973</ele>
        <time>2020-02-08T08:23:16.559Z</time>
      </trkpt>
      <trkpt lat="39.01296333" lon="-0.36013">
        <ele>193.973</ele>
        <time>2020-02-08T08:23:17.559Z</time>
      </trkpt>
      <trkpt lat="39.012975" lon="-0.36016333">
        <ele>193.973</ele>
        <time>2020-02-08T08:23:18.559Z</time>
      </trkpt>
      <trkpt lat="39.012975" lon="-0.36016333">
        <ele>193.973</ele>
        <time>2020-02-08T08:23:19.559Z</time>
      </trkpt>
      <trkpt lat="39.01300333" lon="-0.36024">
        <ele>193.973</ele>
        <time>2020-02-08T08:23:20.559Z</time>
      </trkpt>
      <trkpt lat="39.013025" lon="-0.36028">
        <ele>193.973</ele>
        <time>2020-02-08T08:23:21.559Z</time>
      </trkpt>
      <trkpt lat="39.013025" lon="-0.36028">
        <ele>193.973</ele>
        <time>2020-02-08T08:23:22.559Z</time>
      </trkpt>
      <trkpt lat="39.01305667" lon="-0.360365">
        <ele>193.973</ele>
        <time>2020-02-08T08:23:23.559Z</time>
      </trkpt>
      <trkpt lat="39.01305667" lon="-0.360365">
        <ele>193.973</ele>
        <time>2020-02-08T08:23:24.559Z</time>
      </trkpt>
      <trkpt lat="39.01308667" lon="-0.36045667">
        <ele>193.973</ele>
        <time>2020-02-08T08:23:25.559Z</time>
      </trkpt>
      <trkpt lat="39.01308667" lon="-0.36045667">
        <ele>193.973</ele>
        <time>2020-02-08T08:23:26.559Z</time>
      </trkpt>
      <trkpt lat="39.013115" lon="-0.36055667">
        <ele>193.973</ele>
        <time>2020-02-08T08:23:27.559Z</time>
      </trkpt>
      <trkpt lat="39.013115" lon="-0.36055667">
        <ele>193.973</ele>
        <time>2020-02-08T08:23:28.559Z</time>
      </trkpt>
      <trkpt lat="39.01314" lon="-0.36066833">
        <ele>193.973</ele>
        <time>2020-02-08T08:23:29.559Z</time>
      </trkpt>
      <trkpt lat="39.01314" lon="-0.36066833">
        <ele>193.973</ele>
        <time>2020-02-08T08:23:30.559Z</time>
      </trkpt>
      <trkpt lat="39.01316333" lon="-0.360785">
        <ele>193.973</ele>
        <time>2020-02-08T08:23:31.559Z</time>
      </trkpt>
      <trkpt lat="39.01316333" lon="-0.360785">
        <ele>193.973</ele>
        <time>2020-02-08T08:23:32.559Z</time>
      </trkpt>
      <trkpt lat="39.01319167" lon="-0.3609">
        <ele>193.973</ele>
        <time>2020-02-08T08:23:33.559Z</time>
      </trkpt>
      <trkpt lat="39.01319167" lon="-0.3609">
        <ele>193.973</ele>
        <time>2020-02-08T08:23:34.559Z</time>
      </trkpt>
      <trkpt lat="39.013225" lon="-0.36102">
        <ele>193.973</ele>
        <time>2020-02-08T08:23:35.559Z</time>
      </trkpt>
      <trkpt lat="39.013225" lon="-0.36102">
        <ele>193.973</ele>
        <time>2020-02-08T08:23:36.559Z</time>
      </trkpt>
      <trkpt lat="39.01326333" lon="-0.36114">
        <ele>193.973</ele>
        <time>2020-02-08T08:23:37.559Z</time>
      </trkpt>
      <trkpt lat="39.01326333" lon="-0.36114">
        <ele>193.973</ele>
        <time>2020-02-08T08:23:38.559Z</time>
      </trkpt>
      <trkpt lat="39.01330167" lon="-0.36126333">
        <ele>193.973</ele>
        <time>2020-02-08T08:23:39.559Z</time>
      </trkpt>
      <trkpt lat="39.01330167" lon="-0.36126333">
        <ele>193.973</ele>
        <time>2020-02-08T08:23:40.559Z</time>
      </trkpt>
      <trkpt lat="39.01333833" lon="-0.36138833">
        <ele>193.973</ele>
        <time>2020-02-08T08:23:41.559Z</time>
      </trkpt>
      <trkpt lat="39.01333833" lon="-0.36138833">
        <ele>193.973</ele>
        <time>2020-02-08T08:23:42.559Z</time>
      </trkpt>
      <trkpt lat="39.01337167" lon="-0.361515">
        <ele>193.973</ele>
        <time>2020-02-08T08:23:43.559Z</time>
      </trkpt>
      <trkpt lat="39.01337167" lon="-0.361515">
        <ele>193.973</ele>
        <time>2020-02-08T08:23:44.559Z</time>
      </trkpt>
      <trkpt lat="39.01340333" lon="-0.36164333">
        <ele>193.973</ele>
        <time>2020-02-08T08:23:45.559Z</time>
      </trkpt>
      <trkpt lat="39.01340333" lon="-0.36164333">
        <ele>192.973</ele>
        <time>2020-02-08T08:23:46.559Z</time>
      </trkpt>
      <trkpt lat="39.01343667" lon="-0.361775">
        <ele>192.973</ele>
        <time>2020-02-08T08:23:47.559Z</time>
      </trkpt>
      <trkpt lat="39.013455" lon="-0.36184167">
        <ele>192.973</ele>
        <time>2020-02-08T08:23:48.559Z</time>
      </trkpt>
      <trkpt lat="39.013455" lon="-0.36184167">
        <ele>191.973</ele>
        <time>2020-02-08T08:23:49.559Z</time>
      </trkpt>
      <trkpt lat="39.01349167" lon="-0.36197667">
        <ele>191.973</ele>
        <time>2020-02-08T08:23:50.559Z</time>
      </trkpt>
      <trkpt lat="39.01351333" lon="-0.36204167">
        <ele>191.973</ele>
        <time>2020-02-08T08:23:51.559Z</time>
      </trkpt>
      <trkpt lat="39.01351333" lon="-0.36204167">
        <ele>191.973</ele>
        <time>2020-02-08T08:23:52.559Z</time>
      </trkpt>
      <trkpt lat="39.01355667" lon="-0.36216833">
        <ele>190.973</ele>
        <time>2020-02-08T08:23:53.559Z</time>
      </trkpt>
      <trkpt lat="39.01357667" lon="-0.36223">
        <ele>190.973</ele>
        <time>2020-02-08T08:23:54.559Z</time>
      </trkpt>
      <trkpt lat="39.01361" lon="-0.36229167">
        <ele>190.973</ele>
        <time>2020-02-08T08:23:55.559Z</time>
      </trkpt>
      <trkpt lat="39.01361" lon="-0.36229167">
        <ele>190.973</ele>
        <time>2020-02-08T08:23:56.559Z</time>
      </trkpt>
      <trkpt lat="39.01367" lon="-0.36241167">
        <ele>190.973</ele>
        <time>2020-02-08T08:23:57.559Z</time>
      </trkpt>
      <trkpt lat="39.01367" lon="-0.36241167">
        <ele>190.973</ele>
        <time>2020-02-08T08:23:58.559Z</time>
      </trkpt>
      <trkpt lat="39.01374" lon="-0.36252667">
        <ele>190.973</ele>
        <time>2020-02-08T08:23:59.559Z</time>
      </trkpt>
      <trkpt lat="39.01374" lon="-0.36252667">
        <ele>190.973</ele>
        <time>2020-02-08T08:24:00.559Z</time>
      </trkpt>
      <trkpt lat="39.01380833" lon="-0.36263833">
        <ele>190.973</ele>
        <time>2020-02-08T08:24:01.559Z</time>
      </trkpt>
      <trkpt lat="39.01380833" lon="-0.36263833">
        <ele>190.973</ele>
        <time>2020-02-08T08:24:02.559Z</time>
      </trkpt>
      <trkpt lat="39.01387833" lon="-0.36274167">
        <ele>189.973</ele>
        <time>2020-02-08T08:24:03.559Z</time>
      </trkpt>
      <trkpt lat="39.01387833" lon="-0.36274167">
        <ele>189.973</ele>
        <time>2020-02-08T08:24:04.559Z</time>
      </trkpt>
      <trkpt lat="39.01394667" lon="-0.36285">
        <ele>189.973</ele>
        <time>2020-02-08T08:24:05.559Z</time>
      </trkpt>
      <trkpt lat="39.01394667" lon="-0.36285">
        <ele>189.973</ele>
        <time>2020-02-08T08:24:06.559Z</time>
      </trkpt>
      <trkpt lat="39.01402333" lon="-0.36296167">
        <ele>188.973</ele>
        <time>2020-02-08T08:24:07.559Z</time>
      </trkpt>
      <trkpt lat="39.01402333" lon="-0.36296167">
        <ele>188.973</ele>
        <time>2020-02-08T08:24:08.559Z</time>
      </trkpt>
      <trkpt lat="39.01411" lon="-0.36308">
        <ele>187.973</ele>
        <time>2020-02-08T08:24:09.559Z</time>
      </trkpt>
      <trkpt lat="39.01415833" lon="-0.36314167">
        <ele>187.973</ele>
        <time>2020-02-08T08:24:10.559Z</time>
      </trkpt>
      <trkpt lat="39.01415833" lon="-0.36314167">
        <ele>187.973</ele>
        <time>2020-02-08T08:24:11.559Z</time>
      </trkpt>
      <trkpt lat="39.01426667" lon="-0.36327833">
        <ele>187.973</ele>
        <time>2020-02-08T08:24:12.559Z</time>
      </trkpt>
      <trkpt lat="39.01426667" lon="-0.36327833">
        <ele>186.973</ele>
        <time>2020-02-08T08:24:13.559Z</time>
      </trkpt>
      <trkpt lat="39.01438" lon="-0.363415">
        <ele>186.973</ele>
        <time>2020-02-08T08:24:14.559Z</time>
      </trkpt>
      <trkpt lat="39.01444" lon="-0.36348667">
        <ele>185.973</ele>
        <time>2020-02-08T08:24:15.559Z</time>
      </trkpt>
      <trkpt lat="39.01444" lon="-0.36348667">
        <ele>185.973</ele>
        <time>2020-02-08T08:24:16.559Z</time>
      </trkpt>
      <trkpt lat="39.01455167" lon="-0.36362833">
        <ele>185.973</ele>
        <time>2020-02-08T08:24:17.559Z</time>
      </trkpt>
      <trkpt lat="39.01455167" lon="-0.36362833">
        <ele>185.973</ele>
        <time>2020-02-08T08:24:18.559Z</time>
      </trkpt>
      <trkpt lat="39.01466167" lon="-0.36377">
        <ele>184.973</ele>
        <time>2020-02-08T08:24:19.559Z</time>
      </trkpt>
      <trkpt lat="39.01471167" lon="-0.363835">
        <ele>184.973</ele>
        <time>2020-02-08T08:24:20.559Z</time>
      </trkpt>
      <trkpt lat="39.01471167" lon="-0.363835">
        <ele>183.973</ele>
        <time>2020-02-08T08:24:21.559Z</time>
      </trkpt>
      <trkpt lat="39.01480833" lon="-0.36394333">
        <ele>183.973</ele>
        <time>2020-02-08T08:24:22.559Z</time>
      </trkpt>
      <trkpt lat="39.01480833" lon="-0.36394333">
        <ele>183.973</ele>
        <time>2020-02-08T08:24:23.559Z</time>
      </trkpt>
      <trkpt lat="39.01490333" lon="-0.364065">
        <ele>183.973</ele>
        <time>2020-02-08T08:24:24.559Z</time>
      </trkpt>
      <trkpt lat="39.014945" lon="-0.36413">
        <ele>182.973</ele>
        <time>2020-02-08T08:24:25.559Z</time>
      </trkpt>
      <trkpt lat="39.014945" lon="-0.36413">
        <ele>182.973</ele>
        <time>2020-02-08T08:24:26.559Z</time>
      </trkpt>
      <trkpt lat="39.015035" lon="-0.364275">
        <ele>181.973</ele>
        <time>2020-02-08T08:24:27.559Z</time>
      </trkpt>
      <trkpt lat="39.01505833" lon="-0.36434333">
        <ele>181.973</ele>
        <time>2020-02-08T08:24:28.559Z</time>
      </trkpt>
      <trkpt lat="39.01505833" lon="-0.36434333">
        <ele>181.973</ele>
        <time>2020-02-08T08:24:29.559Z</time>
      </trkpt>
      <trkpt lat="39.01507833" lon="-0.36449667">
        <ele>181.973</ele>
        <time>2020-02-08T08:24:30.559Z</time>
      </trkpt>
      <trkpt lat="39.01508" lon="-0.36457667">
        <ele>179.973</ele>
        <time>2020-02-08T08:24:31.559Z</time>
      </trkpt>
      <trkpt lat="39.01508" lon="-0.36457667">
        <ele>179.973</ele>
        <time>2020-02-08T08:24:32.559Z</time>
      </trkpt>
      <trkpt lat="39.01508833" lon="-0.36472333">
        <ele>179.973</ele>
        <time>2020-02-08T08:24:33.559Z</time>
      </trkpt>
      <trkpt lat="39.01508833" lon="-0.36472333">
        <ele>179.973</ele>
        <time>2020-02-08T08:24:34.559Z</time>
      </trkpt>
      <trkpt lat="39.01508333" lon="-0.36482833">
        <ele>178.973</ele>
        <time>2020-02-08T08:24:35.559Z</time>
      </trkpt>
      <trkpt lat="39.01508333" lon="-0.36482833">
        <ele>178.973</ele>
        <time>2020-02-08T08:24:36.559Z</time>
      </trkpt>
      <trkpt lat="39.01507167" lon="-0.364895">
        <ele>178.973</ele>
        <time>2020-02-08T08:24:37.559Z</time>
      </trkpt>
      <trkpt lat="39.01507167" lon="-0.364895">
        <ele>178.973</ele>
        <time>2020-02-08T08:24:38.559Z</time>
      </trkpt>
      <trkpt lat="39.01501667" lon="-0.364945">
        <ele>177.973</ele>
        <time>2020-02-08T08:24:39.559Z</time>
      </trkpt>
      <trkpt lat="39.01501667" lon="-0.364945">
        <ele>177.973</ele>
        <time>2020-02-08T08:24:40.559Z</time>
      </trkpt>
      <trkpt lat="39.01492667" lon="-0.36495333">
        <ele>177.973</ele>
        <time>2020-02-08T08:24:41.559Z</time>
      </trkpt>
      <trkpt lat="39.01492667" lon="-0.36495333">
        <ele>177.973</ele>
        <time>2020-02-08T08:24:42.559Z</time>
      </trkpt>
      <trkpt lat="39.01484333" lon="-0.36496">
        <ele>177.973</ele>
        <time>2020-02-08T08:24:43.559Z</time>
      </trkpt>
      <trkpt lat="39.01484333" lon="-0.36496">
        <ele>177.973</ele>
        <time>2020-02-08T08:24:44.559Z</time>
      </trkpt>
      <trkpt lat="39.01475833" lon="-0.36496">
        <ele>177.973</ele>
        <time>2020-02-08T08:24:45.559Z</time>
      </trkpt>
      <trkpt lat="39.01475833" lon="-0.36496">
        <ele>177.973</ele>
        <time>2020-02-08T08:24:46.559Z</time>
      </trkpt>
      <trkpt lat="39.01466667" lon="-0.36496333">
        <ele>177.973</ele>
        <time>2020-02-08T08:24:47.559Z</time>
      </trkpt>
      <trkpt lat="39.01461833" lon="-0.36496667">
        <ele>177.973</ele>
        <time>2020-02-08T08:24:48.559Z</time>
      </trkpt>
      <trkpt lat="39.01461833" lon="-0.36496667">
        <ele>177.973</ele>
        <time>2020-02-08T08:24:49.559Z</time>
      </trkpt>
      <trkpt lat="39.014525" lon="-0.36496667">
        <ele>177.973</ele>
        <time>2020-02-08T08:24:50.559Z</time>
      </trkpt>
      <trkpt lat="39.014525" lon="-0.36496667">
        <ele>177.973</ele>
        <time>2020-02-08T08:24:51.559Z</time>
      </trkpt>
      <trkpt lat="39.01443167" lon="-0.36497">
        <ele>177.973</ele>
        <time>2020-02-08T08:24:52.559Z</time>
      </trkpt>
      <trkpt lat="39.01443167" lon="-0.36497">
        <ele>177.973</ele>
        <time>2020-02-08T08:24:53.559Z</time>
      </trkpt>
      <trkpt lat="39.01433667" lon="-0.36497333">
        <ele>177.973</ele>
        <time>2020-02-08T08:24:54.559Z</time>
      </trkpt>
      <trkpt lat="39.01429167" lon="-0.36497333">
        <ele>177.973</ele>
        <time>2020-02-08T08:24:55.559Z</time>
      </trkpt>
      <trkpt lat="39.01429167" lon="-0.36497333">
        <ele>177.973</ele>
        <time>2020-02-08T08:24:56.559Z</time>
      </trkpt>
      <trkpt lat="39.01420667" lon="-0.36498167">
        <ele>177.973</ele>
        <time>2020-02-08T08:24:57.559Z</time>
      </trkpt>
      <trkpt lat="39.01420667" lon="-0.36498167">
        <ele>177.973</ele>
        <time>2020-02-08T08:24:58.559Z</time>
      </trkpt>
      <trkpt lat="39.01412667" lon="-0.364995">
        <ele>178.973</ele>
        <time>2020-02-08T08:24:59.559Z</time>
      </trkpt>
      <trkpt lat="39.01412667" lon="-0.364995">
        <ele>178.973</ele>
        <time>2020-02-08T08:25:00.559Z</time>
      </trkpt>
      <trkpt lat="39.01404" lon="-0.36500833">
        <ele>178.973</ele>
        <time>2020-02-08T08:25:01.559Z</time>
      </trkpt>
      <trkpt lat="39.01404" lon="-0.36500833">
        <ele>178.973</ele>
        <time>2020-02-08T08:25:02.559Z</time>
      </trkpt>
      <trkpt lat="39.01395" lon="-0.36501333">
        <ele>178.973</ele>
        <time>2020-02-08T08:25:03.559Z</time>
      </trkpt>
      <trkpt lat="39.01395" lon="-0.36501333">
        <ele>178.973</ele>
        <time>2020-02-08T08:25:04.559Z</time>
      </trkpt>
      <trkpt lat="39.01386167" lon="-0.365005">
        <ele>178.973</ele>
        <time>2020-02-08T08:25:05.559Z</time>
      </trkpt>
      <trkpt lat="39.01386167" lon="-0.365005">
        <ele>178.973</ele>
        <time>2020-02-08T08:25:06.559Z</time>
      </trkpt>
      <trkpt lat="39.01378167" lon="-0.36499">
        <ele>178.973</ele>
        <time>2020-02-08T08:25:07.559Z</time>
      </trkpt>
      <trkpt lat="39.01378167" lon="-0.36499">
        <ele>178.973</ele>
        <time>2020-02-08T08:25:08.559Z</time>
      </trkpt>
      <trkpt lat="39.013705" lon="-0.364995">
        <ele>179.973</ele>
        <time>2020-02-08T08:25:09.559Z</time>
      </trkpt>
      <trkpt lat="39.013705" lon="-0.364995">
        <ele>179.973</ele>
        <time>2020-02-08T08:25:10.559Z</time>
      </trkpt>
      <trkpt lat="39.01364" lon="-0.36505667">
        <ele>179.973</ele>
        <time>2020-02-08T08:25:11.559Z</time>
      </trkpt>
      <trkpt lat="39.01364" lon="-0.36505667">
        <ele>179.973</ele>
        <time>2020-02-08T08:25:12.559Z</time>
      </trkpt>
      <trkpt lat="39.01358333" lon="-0.36516667">
        <ele>179.973</ele>
        <time>2020-02-08T08:25:13.559Z</time>
      </trkpt>
      <trkpt lat="39.01358333" lon="-0.36516667">
        <ele>178.973</ele>
        <time>2020-02-08T08:25:14.559Z</time>
      </trkpt>
      <trkpt lat="39.01351333" lon="-0.36529667">
        <ele>178.973</ele>
        <time>2020-02-08T08:25:15.559Z</time>
      </trkpt>
      <trkpt lat="39.01351333" lon="-0.36529667">
        <ele>178.973</ele>
        <time>2020-02-08T08:25:16.559Z</time>
      </trkpt>
      <trkpt lat="39.01344667" lon="-0.36544667">
        <ele>178.973</ele>
        <time>2020-02-08T08:25:17.559Z</time>
      </trkpt>
      <trkpt lat="39.01344667" lon="-0.36544667">
        <ele>178.973</ele>
        <time>2020-02-08T08:25:18.559Z</time>
      </trkpt>
      <trkpt lat="39.01336833" lon="-0.36560167">
        <ele>177.973</ele>
        <time>2020-02-08T08:25:19.559Z</time>
      </trkpt>
      <trkpt lat="39.01336833" lon="-0.36560167">
        <ele>177.973</ele>
        <time>2020-02-08T08:25:20.559Z</time>
      </trkpt>
      <trkpt lat="39.01329667" lon="-0.365745">
        <ele>177.973</ele>
        <time>2020-02-08T08:25:21.559Z</time>
      </trkpt>
      <trkpt lat="39.01329667" lon="-0.365745">
        <ele>177.973</ele>
        <time>2020-02-08T08:25:22.559Z</time>
      </trkpt>
      <trkpt lat="39.01323667" lon="-0.36588667">
        <ele>177.973</ele>
        <time>2020-02-08T08:25:23.559Z</time>
      </trkpt>
      <trkpt lat="39.01320833" lon="-0.36595167">
        <ele>177.973</ele>
        <time>2020-02-08T08:25:24.559Z</time>
      </trkpt>
      <trkpt lat="39.01318" lon="-0.366005">
        <ele>176.973</ele>
        <time>2020-02-08T08:25:25.559Z</time>
      </trkpt>
      <trkpt lat="39.01318" lon="-0.366005">
        <ele>176.973</ele>
        <time>2020-02-08T08:25:26.559Z</time>
      </trkpt>
      <trkpt lat="39.01316667" lon="-0.36612167">
        <ele>176.973</ele>
        <time>2020-02-08T08:25:27.559Z</time>
      </trkpt>
      <trkpt lat="39.01316667" lon="-0.36612167">
        <ele>176.973</ele>
        <time>2020-02-08T08:25:28.559Z</time>
      </trkpt>
      <trkpt lat="39.01320833" lon="-0.36625333">
        <ele>176.973</ele>
        <time>2020-02-08T08:25:29.559Z</time>
      </trkpt>
      <trkpt lat="39.013225" lon="-0.36631167">
        <ele>176.973</ele>
        <time>2020-02-08T08:25:30.559Z</time>
      </trkpt>
      <trkpt lat="39.01323333" lon="-0.36637833">
        <ele>176.973</ele>
        <time>2020-02-08T08:25:31.559Z</time>
      </trkpt>
      <trkpt lat="39.01323333" lon="-0.36637833">
        <ele>176.973</ele>
        <time>2020-02-08T08:25:32.559Z</time>
      </trkpt>
      <trkpt lat="39.01326667" lon="-0.3665">
        <ele>178.973</ele>
        <time>2020-02-08T08:25:33.559Z</time>
      </trkpt>
      <trkpt lat="39.01326667" lon="-0.3665">
        <ele>178.973</ele>
        <time>2020-02-08T08:25:34.559Z</time>
      </trkpt>
      <trkpt lat="39.01329333" lon="-0.36661">
        <ele>179.973</ele>
        <time>2020-02-08T08:25:35.559Z</time>
      </trkpt>
      <trkpt lat="39.01330333" lon="-0.36666">
        <ele>179.973</ele>
        <time>2020-02-08T08:25:36.559Z</time>
      </trkpt>
      <trkpt lat="39.01330333" lon="-0.36666">
        <ele>180.973</ele>
        <time>2020-02-08T08:25:37.559Z</time>
      </trkpt>
      <trkpt lat="39.01332667" lon="-0.36674833">
        <ele>180.973</ele>
        <time>2020-02-08T08:25:38.559Z</time>
      </trkpt>
      <trkpt lat="39.01333667" lon="-0.36679167">
        <ele>181.973</ele>
        <time>2020-02-08T08:25:39.559Z</time>
      </trkpt>
      <trkpt lat="39.01333667" lon="-0.36679167">
        <ele>181.973</ele>
        <time>2020-02-08T08:25:40.559Z</time>
      </trkpt>
      <trkpt lat="39.013355" lon="-0.36687667">
        <ele>182.973</ele>
        <time>2020-02-08T08:25:41.559Z</time>
      </trkpt>
      <trkpt lat="39.013355" lon="-0.36687667">
        <ele>182.973</ele>
        <time>2020-02-08T08:25:42.559Z</time>
      </trkpt>
      <trkpt lat="39.013365" lon="-0.366955">
        <ele>183.973</ele>
        <time>2020-02-08T08:25:43.559Z</time>
      </trkpt>
      <trkpt lat="39.013365" lon="-0.366955">
        <ele>183.973</ele>
        <time>2020-02-08T08:25:44.559Z</time>
      </trkpt>
      <trkpt lat="39.01337333" lon="-0.36703833">
        <ele>183.973</ele>
        <time>2020-02-08T08:25:45.559Z</time>
      </trkpt>
      <trkpt lat="39.01337333" lon="-0.36703833">
        <ele>184.973</ele>
        <time>2020-02-08T08:25:46.559Z</time>
      </trkpt>
      <trkpt lat="39.01337333" lon="-0.367135">
        <ele>184.973</ele>
        <time>2020-02-08T08:25:47.559Z</time>
      </trkpt>
      <trkpt lat="39.01337333" lon="-0.367135">
        <ele>184.973</ele>
        <time>2020-02-08T08:25:48.559Z</time>
      </trkpt>
      <trkpt lat="39.01336833" lon="-0.367235">
        <ele>184.973</ele>
        <time>2020-02-08T08:25:49.559Z</time>
      </trkpt>
      <trkpt lat="39.01336833" lon="-0.367235">
        <ele>184.973</ele>
        <time>2020-02-08T08:25:50.559Z</time>
      </trkpt>
      <trkpt lat="39.01335" lon="-0.36732667">
        <ele>184.973</ele>
        <time>2020-02-08T08:25:51.559Z</time>
      </trkpt>
      <trkpt lat="39.01333833" lon="-0.367375">
        <ele>184.973</ele>
        <time>2020-02-08T08:25:52.559Z</time>
      </trkpt>
      <trkpt lat="39.01333833" lon="-0.367375">
        <ele>184.973</ele>
        <time>2020-02-08T08:25:53.559Z</time>
      </trkpt>
      <trkpt lat="39.01329667" lon="-0.36747167">
        <ele>184.973</ele>
        <time>2020-02-08T08:25:54.559Z</time>
      </trkpt>
      <trkpt lat="39.01327" lon="-0.36751667">
        <ele>184.973</ele>
        <time>2020-02-08T08:25:55.559Z</time>
      </trkpt>
      <trkpt lat="39.01327" lon="-0.36751667">
        <ele>184.973</ele>
        <time>2020-02-08T08:25:56.559Z</time>
      </trkpt>
      <trkpt lat="39.01320833" lon="-0.36759833">
        <ele>184.973</ele>
        <time>2020-02-08T08:25:57.559Z</time>
      </trkpt>
      <trkpt lat="39.01320833" lon="-0.36759833">
        <ele>184.973</ele>
        <time>2020-02-08T08:25:58.559Z</time>
      </trkpt>
      <trkpt lat="39.01313667" lon="-0.36767167">
        <ele>184.973</ele>
        <time>2020-02-08T08:25:59.559Z</time>
      </trkpt>
      <trkpt lat="39.01313667" lon="-0.36767167">
        <ele>184.973</ele>
        <time>2020-02-08T08:26:00.559Z</time>
      </trkpt>
      <trkpt lat="39.013075" lon="-0.36774667">
        <ele>184.973</ele>
        <time>2020-02-08T08:26:01.559Z</time>
      </trkpt>
      <trkpt lat="39.013075" lon="-0.36774667">
        <ele>184.973</ele>
        <time>2020-02-08T08:26:02.559Z</time>
      </trkpt>
      <trkpt lat="39.01302667" lon="-0.36783167">
        <ele>184.973</ele>
        <time>2020-02-08T08:26:03.559Z</time>
      </trkpt>
      <trkpt lat="39.01302667" lon="-0.36783167">
        <ele>184.973</ele>
        <time>2020-02-08T08:26:04.559Z</time>
      </trkpt>
      <trkpt lat="39.012985" lon="-0.36792333">
        <ele>184.973</ele>
        <time>2020-02-08T08:26:05.559Z</time>
      </trkpt>
      <trkpt lat="39.012985" lon="-0.36792333">
        <ele>185.973</ele>
        <time>2020-02-08T08:26:06.559Z</time>
      </trkpt>
      <trkpt lat="39.01295667" lon="-0.36800833">
        <ele>185.973</ele>
        <time>2020-02-08T08:26:07.559Z</time>
      </trkpt>
      <trkpt lat="39.01294167" lon="-0.36805">
        <ele>185.973</ele>
        <time>2020-02-08T08:26:08.559Z</time>
      </trkpt>
      <trkpt lat="39.01294167" lon="-0.36805">
        <ele>185.973</ele>
        <time>2020-02-08T08:26:09.559Z</time>
      </trkpt>
      <trkpt lat="39.01290333" lon="-0.36813667">
        <ele>186.973</ele>
        <time>2020-02-08T08:26:10.559Z</time>
      </trkpt>
      <trkpt lat="39.01288833" lon="-0.36817833">
        <ele>186.973</ele>
        <time>2020-02-08T08:26:11.559Z</time>
      </trkpt>
      <trkpt lat="39.01288833" lon="-0.36817833">
        <ele>186.973</ele>
        <time>2020-02-08T08:26:12.559Z</time>
      </trkpt>
      <trkpt lat="39.01285167" lon="-0.36826167">
        <ele>187.973</ele>
        <time>2020-02-08T08:26:13.559Z</time>
      </trkpt>
      <trkpt lat="39.01285167" lon="-0.36826167">
        <ele>187.973</ele>
        <time>2020-02-08T08:26:14.559Z</time>
      </trkpt>
      <trkpt lat="39.01280333" lon="-0.36834333">
        <ele>187.973</ele>
        <time>2020-02-08T08:26:15.559Z</time>
      </trkpt>
      <trkpt lat="39.01278167" lon="-0.36837833">
        <ele>187.973</ele>
        <time>2020-02-08T08:26:16.559Z</time>
      </trkpt>
      <trkpt lat="39.01278167" lon="-0.36837833">
        <ele>187.973</ele>
        <time>2020-02-08T08:26:17.559Z</time>
      </trkpt>
      <trkpt lat="39.01274167" lon="-0.36844333">
        <ele>187.973</ele>
        <time>2020-02-08T08:26:18.559Z</time>
      </trkpt>
      <trkpt lat="39.01274167" lon="-0.36844333">
        <ele>188.973</ele>
        <time>2020-02-08T08:26:19.559Z</time>
      </trkpt>
      <trkpt lat="39.01269167" lon="-0.36850333">
        <ele>188.973</ele>
        <time>2020-02-08T08:26:20.559Z</time>
      </trkpt>
      <trkpt lat="39.01266833" lon="-0.36853333">
        <ele>188.973</ele>
        <time>2020-02-08T08:26:21.559Z</time>
      </trkpt>
      <trkpt lat="39.01266833" lon="-0.36853333">
        <ele>188.973</ele>
        <time>2020-02-08T08:26:22.559Z</time>
      </trkpt>
      <trkpt lat="39.01262" lon="-0.368585">
        <ele>189.973</ele>
        <time>2020-02-08T08:26:23.559Z</time>
      </trkpt>
      <trkpt lat="39.012595" lon="-0.36861">
        <ele>189.973</ele>
        <time>2020-02-08T08:26:24.559Z</time>
      </trkpt>
      <trkpt lat="39.012595" lon="-0.36861">
        <ele>189.973</ele>
        <time>2020-02-08T08:26:25.559Z</time>
      </trkpt>
      <trkpt lat="39.01255167" lon="-0.36867667">
        <ele>189.973</ele>
        <time>2020-02-08T08:26:26.559Z</time>
      </trkpt>
      <trkpt lat="39.01252667" lon="-0.36871">
        <ele>190.973</ele>
        <time>2020-02-08T08:26:27.559Z</time>
      </trkpt>
      <trkpt lat="39.01252667" lon="-0.36871">
        <ele>190.973</ele>
        <time>2020-02-08T08:26:28.559Z</time>
      </trkpt>
      <trkpt lat="39.012465" lon="-0.36878167">
        <ele>190.973</ele>
        <time>2020-02-08T08:26:29.559Z</time>
      </trkpt>
      <trkpt lat="39.012465" lon="-0.36878167">
        <ele>190.973</ele>
        <time>2020-02-08T08:26:30.559Z</time>
      </trkpt>
      <trkpt lat="39.01240167" lon="-0.36884667">
        <ele>190.973</ele>
        <time>2020-02-08T08:26:31.559Z</time>
      </trkpt>
      <trkpt lat="39.01240167" lon="-0.36884667">
        <ele>190.973</ele>
        <time>2020-02-08T08:26:32.559Z</time>
      </trkpt>
      <trkpt lat="39.01234333" lon="-0.368905">
        <ele>191.973</ele>
        <time>2020-02-08T08:26:33.559Z</time>
      </trkpt>
      <trkpt lat="39.01234333" lon="-0.368905">
        <ele>191.973</ele>
        <time>2020-02-08T08:26:34.559Z</time>
      </trkpt>
      <trkpt lat="39.01228833" lon="-0.36896833">
        <ele>191.973</ele>
        <time>2020-02-08T08:26:35.559Z</time>
      </trkpt>
      <trkpt lat="39.01228833" lon="-0.36896833">
        <ele>191.973</ele>
        <time>2020-02-08T08:26:36.559Z</time>
      </trkpt>
      <trkpt lat="39.01221833" lon="-0.36901667">
        <ele>191.973</ele>
        <time>2020-02-08T08:26:37.559Z</time>
      </trkpt>
      <trkpt lat="39.01221833" lon="-0.36901667">
        <ele>191.973</ele>
        <time>2020-02-08T08:26:38.559Z</time>
      </trkpt>
      <trkpt lat="39.012145" lon="-0.369055">
        <ele>191.973</ele>
        <time>2020-02-08T08:26:39.559Z</time>
      </trkpt>
      <trkpt lat="39.012145" lon="-0.369055">
        <ele>191.973</ele>
        <time>2020-02-08T08:26:40.559Z</time>
      </trkpt>
      <trkpt lat="39.01206833" lon="-0.369085">
        <ele>192.973</ele>
        <time>2020-02-08T08:26:41.559Z</time>
      </trkpt>
      <trkpt lat="39.01206833" lon="-0.369085">
        <ele>192.973</ele>
        <time>2020-02-08T08:26:42.559Z</time>
      </trkpt>
      <trkpt lat="39.01200333" lon="-0.36912333">
        <ele>192.973</ele>
        <time>2020-02-08T08:26:43.559Z</time>
      </trkpt>
      <trkpt lat="39.01200333" lon="-0.36912333">
        <ele>192.973</ele>
        <time>2020-02-08T08:26:44.559Z</time>
      </trkpt>
      <trkpt lat="39.01194167" lon="-0.36916667">
        <ele>192.973</ele>
        <time>2020-02-08T08:26:45.559Z</time>
      </trkpt>
      <trkpt lat="39.01194167" lon="-0.36916667">
        <ele>193.973</ele>
        <time>2020-02-08T08:26:46.559Z</time>
      </trkpt>
      <trkpt lat="39.01188667" lon="-0.36921167">
        <ele>193.973</ele>
        <time>2020-02-08T08:26:47.559Z</time>
      </trkpt>
      <trkpt lat="39.01188667" lon="-0.36921167">
        <ele>193.973</ele>
        <time>2020-02-08T08:26:48.559Z</time>
      </trkpt>
      <trkpt lat="39.01183167" lon="-0.36926167">
        <ele>193.973</ele>
        <time>2020-02-08T08:26:49.559Z</time>
      </trkpt>
      <trkpt lat="39.01183167" lon="-0.36926167">
        <ele>193.973</ele>
        <time>2020-02-08T08:26:50.559Z</time>
      </trkpt>
      <trkpt lat="39.01177833" lon="-0.36931">
        <ele>194.973</ele>
        <time>2020-02-08T08:26:51.559Z</time>
      </trkpt>
      <trkpt lat="39.01177833" lon="-0.36931">
        <ele>194.973</ele>
        <time>2020-02-08T08:26:52.559Z</time>
      </trkpt>
      <trkpt lat="39.01173" lon="-0.36936">
        <ele>194.973</ele>
        <time>2020-02-08T08:26:53.559Z</time>
      </trkpt>
      <trkpt lat="39.01170333" lon="-0.36938667">
        <ele>194.973</ele>
        <time>2020-02-08T08:26:54.559Z</time>
      </trkpt>
      <trkpt lat="39.01170333" lon="-0.36938667">
        <ele>195.973</ele>
        <time>2020-02-08T08:26:55.559Z</time>
      </trkpt>
      <trkpt lat="39.01164667" lon="-0.36945167">
        <ele>195.973</ele>
        <time>2020-02-08T08:26:56.559Z</time>
      </trkpt>
      <trkpt lat="39.01161667" lon="-0.36948167">
        <ele>195.973</ele>
        <time>2020-02-08T08:26:57.559Z</time>
      </trkpt>
      <trkpt lat="39.01161667" lon="-0.36948167">
        <ele>195.973</ele>
        <time>2020-02-08T08:26:58.559Z</time>
      </trkpt>
      <trkpt lat="39.01155333" lon="-0.36954333">
        <ele>195.973</ele>
        <time>2020-02-08T08:26:59.559Z</time>
      </trkpt>
      <trkpt lat="39.01155333" lon="-0.36954333">
        <ele>195.973</ele>
        <time>2020-02-08T08:27:00.559Z</time>
      </trkpt>
      <trkpt lat="39.01149667" lon="-0.36960667">
        <ele>195.973</ele>
        <time>2020-02-08T08:27:01.559Z</time>
      </trkpt>
      <trkpt lat="39.01146667" lon="-0.36963333">
        <ele>196.973</ele>
        <time>2020-02-08T08:27:02.559Z</time>
      </trkpt>
      <trkpt lat="39.01146667" lon="-0.36963333">
        <ele>196.973</ele>
        <time>2020-02-08T08:27:03.559Z</time>
      </trkpt>
      <trkpt lat="39.01141333" lon="-0.36969">
        <ele>196.973</ele>
        <time>2020-02-08T08:27:04.559Z</time>
      </trkpt>
      <trkpt lat="39.011385" lon="-0.36972167">
        <ele>196.973</ele>
        <time>2020-02-08T08:27:05.559Z</time>
      </trkpt>
      <trkpt lat="39.011385" lon="-0.36972167">
        <ele>197.973</ele>
        <time>2020-02-08T08:27:06.559Z</time>
      </trkpt>
      <trkpt lat="39.011335" lon="-0.369785">
        <ele>197.973</ele>
        <time>2020-02-08T08:27:07.559Z</time>
      </trkpt>
      <trkpt lat="39.011335" lon="-0.369785">
        <ele>197.973</ele>
        <time>2020-02-08T08:27:08.559Z</time>
      </trkpt>
      <trkpt lat="39.01128833" lon="-0.369845">
        <ele>197.973</ele>
        <time>2020-02-08T08:27:09.559Z</time>
      </trkpt>
      <trkpt lat="39.01126667" lon="-0.36987833">
        <ele>197.973</ele>
        <time>2020-02-08T08:27:10.559Z</time>
      </trkpt>
      <trkpt lat="39.01126667" lon="-0.36987833">
        <ele>197.973</ele>
        <time>2020-02-08T08:27:11.559Z</time>
      </trkpt>
      <trkpt lat="39.011225" lon="-0.36995">
        <ele>197.973</ele>
        <time>2020-02-08T08:27:12.559Z</time>
      </trkpt>
      <trkpt lat="39.01121167" lon="-0.36999167">
        <ele>198.973</ele>
        <time>2020-02-08T08:27:13.559Z</time>
      </trkpt>
      <trkpt lat="39.01121167" lon="-0.36999167">
        <ele>198.973</ele>
        <time>2020-02-08T08:27:14.559Z</time>
      </trkpt>
      <trkpt lat="39.01118667" lon="-0.37006667">
        <ele>198.973</ele>
        <time>2020-02-08T08:27:15.559Z</time>
      </trkpt>
      <trkpt lat="39.01117333" lon="-0.37010167">
        <ele>198.973</ele>
        <time>2020-02-08T08:27:16.559Z</time>
      </trkpt>
      <trkpt lat="39.011165" lon="-0.37013667">
        <ele>198.973</ele>
        <time>2020-02-08T08:27:17.559Z</time>
      </trkpt>
      <trkpt lat="39.011165" lon="-0.37013667">
        <ele>199.973</ele>
        <time>2020-02-08T08:27:18.559Z</time>
      </trkpt>
      <trkpt lat="39.01116667" lon="-0.37021167">
        <ele>199.973</ele>
        <time>2020-02-08T08:27:19.559Z</time>
      </trkpt>
      <trkpt lat="39.01116667" lon="-0.37021167">
        <ele>200.973</ele>
        <time>2020-02-08T08:27:20.559Z</time>
      </trkpt>
      <trkpt lat="39.011165" lon="-0.37028667">
        <ele>200.973</ele>
        <time>2020-02-08T08:27:21.559Z</time>
      </trkpt>
      <trkpt lat="39.011165" lon="-0.37028667">
        <ele>200.973</ele>
        <time>2020-02-08T08:27:22.559Z</time>
      </trkpt>
      <trkpt lat="39.011165" lon="-0.37036">
        <ele>200.973</ele>
        <time>2020-02-08T08:27:23.559Z</time>
      </trkpt>
      <trkpt lat="39.011165" lon="-0.37036">
        <ele>201.973</ele>
        <time>2020-02-08T08:27:24.559Z</time>
      </trkpt>
      <trkpt lat="39.01116" lon="-0.37043167">
        <ele>201.973</ele>
        <time>2020-02-08T08:27:25.559Z</time>
      </trkpt>
      <trkpt lat="39.01116" lon="-0.37046833">
        <ele>201.973</ele>
        <time>2020-02-08T08:27:26.559Z</time>
      </trkpt>
      <trkpt lat="39.01116" lon="-0.37046833">
        <ele>201.973</ele>
        <time>2020-02-08T08:27:27.559Z</time>
      </trkpt>
      <trkpt lat="39.01115667" lon="-0.37054">
        <ele>202.973</ele>
        <time>2020-02-08T08:27:28.559Z</time>
      </trkpt>
      <trkpt lat="39.01115667" lon="-0.37054">
        <ele>202.973</ele>
        <time>2020-02-08T08:27:29.559Z</time>
      </trkpt>
      <trkpt lat="39.01115333" lon="-0.37061">
        <ele>203.973</ele>
        <time>2020-02-08T08:27:30.559Z</time>
      </trkpt>
      <trkpt lat="39.01115" lon="-0.37064667">
        <ele>203.973</ele>
        <time>2020-02-08T08:27:31.559Z</time>
      </trkpt>
      <trkpt lat="39.01115" lon="-0.37064667">
        <ele>203.973</ele>
        <time>2020-02-08T08:27:32.559Z</time>
      </trkpt>
      <trkpt lat="39.01113833" lon="-0.370715">
        <ele>203.973</ele>
        <time>2020-02-08T08:27:33.559Z</time>
      </trkpt>
      <trkpt lat="39.01113" lon="-0.37075">
        <ele>204.973</ele>
        <time>2020-02-08T08:27:34.559Z</time>
      </trkpt>
      <trkpt lat="39.01112167" lon="-0.37078833">
        <ele>204.973</ele>
        <time>2020-02-08T08:27:35.559Z</time>
      </trkpt>
      <trkpt lat="39.01112167" lon="-0.37078833">
        <ele>204.973</ele>
        <time>2020-02-08T08:27:36.559Z</time>
      </trkpt>
      <trkpt lat="39.01111" lon="-0.37086167">
        <ele>204.973</ele>
        <time>2020-02-08T08:27:37.559Z</time>
      </trkpt>
      <trkpt lat="39.01111" lon="-0.37086167">
        <ele>205.973</ele>
        <time>2020-02-08T08:27:38.559Z</time>
      </trkpt>
      <trkpt lat="39.011095" lon="-0.37094167">
        <ele>205.973</ele>
        <time>2020-02-08T08:27:39.559Z</time>
      </trkpt>
      <trkpt lat="39.011095" lon="-0.37094167">
        <ele>205.973</ele>
        <time>2020-02-08T08:27:40.559Z</time>
      </trkpt>
      <trkpt lat="39.01108167" lon="-0.37101833">
        <ele>205.973</ele>
        <time>2020-02-08T08:27:41.559Z</time>
      </trkpt>
      <trkpt lat="39.01108167" lon="-0.37101833">
        <ele>206.973</ele>
        <time>2020-02-08T08:27:42.559Z</time>
      </trkpt>
      <trkpt lat="39.01107833" lon="-0.37109667">
        <ele>206.973</ele>
        <time>2020-02-08T08:27:43.559Z</time>
      </trkpt>
      <trkpt lat="39.01107667" lon="-0.37113333">
        <ele>207.973</ele>
        <time>2020-02-08T08:27:44.559Z</time>
      </trkpt>
      <trkpt lat="39.01107167" lon="-0.37118333">
        <ele>207.973</ele>
        <time>2020-02-08T08:27:45.559Z</time>
      </trkpt>
      <trkpt lat="39.01107167" lon="-0.37118333">
        <ele>207.973</ele>
        <time>2020-02-08T08:27:46.559Z</time>
      </trkpt>
      <trkpt lat="39.011075" lon="-0.37126167">
        <ele>207.973</ele>
        <time>2020-02-08T08:27:47.559Z</time>
      </trkpt>
      <trkpt lat="39.011075" lon="-0.37126167">
        <ele>208.973</ele>
        <time>2020-02-08T08:27:48.559Z</time>
      </trkpt>
      <trkpt lat="39.01106167" lon="-0.37133333">
        <ele>208.973</ele>
        <time>2020-02-08T08:27:49.559Z</time>
      </trkpt>
      <trkpt lat="39.01106167" lon="-0.37133333">
        <ele>208.973</ele>
        <time>2020-02-08T08:27:50.559Z</time>
      </trkpt>
      <trkpt lat="39.01104333" lon="-0.37140833">
        <ele>208.973</ele>
        <time>2020-02-08T08:27:51.559Z</time>
      </trkpt>
      <trkpt lat="39.01104333" lon="-0.37140833">
        <ele>208.973</ele>
        <time>2020-02-08T08:27:52.559Z</time>
      </trkpt>
      <trkpt lat="39.01102333" lon="-0.37148333">
        <ele>208.973</ele>
        <time>2020-02-08T08:27:53.559Z</time>
      </trkpt>
      <trkpt lat="39.011015" lon="-0.37152167">
        <ele>208.973</ele>
        <time>2020-02-08T08:27:54.559Z</time>
      </trkpt>
      <trkpt lat="39.01099833" lon="-0.37155333">
        <ele>208.973</ele>
        <time>2020-02-08T08:27:55.559Z</time>
      </trkpt>
      <trkpt lat="39.01099833" lon="-0.37155333">
        <ele>208.973</ele>
        <time>2020-02-08T08:27:56.559Z</time>
      </trkpt>
      <trkpt lat="39.010975" lon="-0.37162167">
        <ele>208.973</ele>
        <time>2020-02-08T08:27:57.559Z</time>
      </trkpt>
      <trkpt lat="39.010975" lon="-0.37162167">
        <ele>209.973</ele>
        <time>2020-02-08T08:27:58.559Z</time>
      </trkpt>
      <trkpt lat="39.01094833" lon="-0.37169167">
        <ele>209.973</ele>
        <time>2020-02-08T08:27:59.559Z</time>
      </trkpt>
      <trkpt lat="39.01094833" lon="-0.37169167">
        <ele>209.973</ele>
        <time>2020-02-08T08:28:00.559Z</time>
      </trkpt>
      <trkpt lat="39.01090667" lon="-0.37175833">
        <ele>209.973</ele>
        <time>2020-02-08T08:28:01.559Z</time>
      </trkpt>
      <trkpt lat="39.01090667" lon="-0.37175833">
        <ele>209.973</ele>
        <time>2020-02-08T08:28:02.559Z</time>
      </trkpt>
      <trkpt lat="39.01085333" lon="-0.37182333">
        <ele>209.973</ele>
        <time>2020-02-08T08:28:03.559Z</time>
      </trkpt>
      <trkpt lat="39.01085333" lon="-0.37182333">
        <ele>209.973</ele>
        <time>2020-02-08T08:28:04.559Z</time>
      </trkpt>
      <trkpt lat="39.01080667" lon="-0.37188833">
        <ele>209.973</ele>
        <time>2020-02-08T08:28:05.559Z</time>
      </trkpt>
      <trkpt lat="39.01080667" lon="-0.37188833">
        <ele>210.973</ele>
        <time>2020-02-08T08:28:06.559Z</time>
      </trkpt>
      <trkpt lat="39.01077167" lon="-0.37195333">
        <ele>210.973</ele>
        <time>2020-02-08T08:28:07.559Z</time>
      </trkpt>
      <trkpt lat="39.01077167" lon="-0.37195333">
        <ele>210.973</ele>
        <time>2020-02-08T08:28:08.559Z</time>
      </trkpt>
      <trkpt lat="39.01074333" lon="-0.37199333">
        <ele>210.973</ele>
        <time>2020-02-08T08:28:09.559Z</time>
      </trkpt>
      <trkpt lat="39.01074333" lon="-0.37199333">
        <ele>210.973</ele>
        <time>2020-02-08T08:28:10.559Z</time>
      </trkpt>
      <trkpt lat="39.01071167" lon="-0.37203667">
        <ele>211.973</ele>
        <time>2020-02-08T08:28:11.559Z</time>
      </trkpt>
      <trkpt lat="39.01069667" lon="-0.37206333">
        <ele>211.973</ele>
        <time>2020-02-08T08:28:12.559Z</time>
      </trkpt>
      <trkpt lat="39.01069667" lon="-0.37206333">
        <ele>211.973</ele>
        <time>2020-02-08T08:28:13.559Z</time>
      </trkpt>
      <trkpt lat="39.010665" lon="-0.37211667">
        <ele>211.973</ele>
        <time>2020-02-08T08:28:14.559Z</time>
      </trkpt>
      <trkpt lat="39.01064833" lon="-0.37214333">
        <ele>211.973</ele>
        <time>2020-02-08T08:28:15.559Z</time>
      </trkpt>
      <trkpt lat="39.01064833" lon="-0.37214333">
        <ele>211.973</ele>
        <time>2020-02-08T08:28:16.559Z</time>
      </trkpt>
      <trkpt lat="39.01061333" lon="-0.372195">
        <ele>211.973</ele>
        <time>2020-02-08T08:28:17.559Z</time>
      </trkpt>
      <trkpt lat="39.01061333" lon="-0.372195">
        <ele>212.973</ele>
        <time>2020-02-08T08:28:18.559Z</time>
      </trkpt>
      <trkpt lat="39.01058333" lon="-0.37224167">
        <ele>212.973</ele>
        <time>2020-02-08T08:28:19.559Z</time>
      </trkpt>
      <trkpt lat="39.01058333" lon="-0.37224167">
        <ele>212.973</ele>
        <time>2020-02-08T08:28:20.559Z</time>
      </trkpt>
      <trkpt lat="39.01054833" lon="-0.37230667">
        <ele>212.973</ele>
        <time>2020-02-08T08:28:21.559Z</time>
      </trkpt>
      <trkpt lat="39.01052667" lon="-0.37234167">
        <ele>212.973</ele>
        <time>2020-02-08T08:28:22.559Z</time>
      </trkpt>
      <trkpt lat="39.01052667" lon="-0.37234167">
        <ele>212.973</ele>
        <time>2020-02-08T08:28:23.559Z</time>
      </trkpt>
      <trkpt lat="39.01048" lon="-0.37241333">
        <ele>212.973</ele>
        <time>2020-02-08T08:28:24.559Z</time>
      </trkpt>
      <trkpt lat="39.01045667" lon="-0.37244667">
        <ele>212.973</ele>
        <time>2020-02-08T08:28:25.559Z</time>
      </trkpt>
      <trkpt lat="39.01045667" lon="-0.37244667">
        <ele>212.973</ele>
        <time>2020-02-08T08:28:26.559Z</time>
      </trkpt>
      <trkpt lat="39.01041833" lon="-0.372515">
        <ele>213.973</ele>
        <time>2020-02-08T08:28:27.559Z</time>
      </trkpt>
      <trkpt lat="39.01041833" lon="-0.372515">
        <ele>213.973</ele>
        <time>2020-02-08T08:28:28.559Z</time>
      </trkpt>
      <trkpt lat="39.01037333" lon="-0.372575">
        <ele>213.973</ele>
        <time>2020-02-08T08:28:29.559Z</time>
      </trkpt>
      <trkpt lat="39.01034833" lon="-0.372605">
        <ele>213.973</ele>
        <time>2020-02-08T08:28:30.559Z</time>
      </trkpt>
      <trkpt lat="39.01031833" lon="-0.37263667">
        <ele>214.973</ele>
        <time>2020-02-08T08:28:31.559Z</time>
      </trkpt>
      <trkpt lat="39.01031833" lon="-0.37263667">
        <ele>214.973</ele>
        <time>2020-02-08T08:28:32.559Z</time>
      </trkpt>
      <trkpt lat="39.01024333" lon="-0.37270167">
        <ele>214.973</ele>
        <time>2020-02-08T08:28:33.559Z</time>
      </trkpt>
      <trkpt lat="39.01024333" lon="-0.37270167">
        <ele>214.973</ele>
        <time>2020-02-08T08:28:34.559Z</time>
      </trkpt>
      <trkpt lat="39.01018167" lon="-0.372795">
        <ele>214.973</ele>
        <time>2020-02-08T08:28:35.559Z</time>
      </trkpt>
      <trkpt lat="39.01015833" lon="-0.372845">
        <ele>214.973</ele>
        <time>2020-02-08T08:28:36.559Z</time>
      </trkpt>
      <trkpt lat="39.01015833" lon="-0.372845">
        <ele>214.973</ele>
        <time>2020-02-08T08:28:37.559Z</time>
      </trkpt>
      <trkpt lat="39.01009" lon="-0.37292167">
        <ele>214.973</ele>
        <time>2020-02-08T08:28:38.559Z</time>
      </trkpt>
      <trkpt lat="39.01004833" lon="-0.37294833">
        <ele>214.973</ele>
        <time>2020-02-08T08:28:39.559Z</time>
      </trkpt>
      <trkpt lat="39.01004833" lon="-0.37294833">
        <ele>214.973</ele>
        <time>2020-02-08T08:28:40.559Z</time>
      </trkpt>
      <trkpt lat="39.00996333" lon="-0.37298667">
        <ele>214.973</ele>
        <time>2020-02-08T08:28:41.559Z</time>
      </trkpt>
      <trkpt lat="39.00996333" lon="-0.37298667">
        <ele>215.973</ele>
        <time>2020-02-08T08:28:42.559Z</time>
      </trkpt>
      <trkpt lat="39.00988833" lon="-0.37303833">
        <ele>215.973</ele>
        <time>2020-02-08T08:28:43.559Z</time>
      </trkpt>
      <trkpt lat="39.00988833" lon="-0.37303833">
        <ele>215.973</ele>
        <time>2020-02-08T08:28:44.559Z</time>
      </trkpt>
      <trkpt lat="39.009835" lon="-0.37311333">
        <ele>215.973</ele>
        <time>2020-02-08T08:28:45.559Z</time>
      </trkpt>
      <trkpt lat="39.00981667" lon="-0.373155">
        <ele>215.973</ele>
        <time>2020-02-08T08:28:46.559Z</time>
      </trkpt>
      <trkpt lat="39.00981667" lon="-0.373155">
        <ele>215.973</ele>
        <time>2020-02-08T08:28:47.559Z</time>
      </trkpt>
      <trkpt lat="39.009785" lon="-0.37325">
        <ele>215.973</ele>
        <time>2020-02-08T08:28:48.559Z</time>
      </trkpt>
      <trkpt lat="39.00977667" lon="-0.37330167">
        <ele>215.973</ele>
        <time>2020-02-08T08:28:49.559Z</time>
      </trkpt>
      <trkpt lat="39.00977667" lon="-0.37330167">
        <ele>215.973</ele>
        <time>2020-02-08T08:28:50.559Z</time>
      </trkpt>
      <trkpt lat="39.00976167" lon="-0.37339833">
        <ele>215.973</ele>
        <time>2020-02-08T08:28:51.559Z</time>
      </trkpt>
      <trkpt lat="39.00976167" lon="-0.37339833">
        <ele>216.973</ele>
        <time>2020-02-08T08:28:52.559Z</time>
      </trkpt>
      <trkpt lat="39.00973" lon="-0.37346833">
        <ele>216.973</ele>
        <time>2020-02-08T08:28:53.559Z</time>
      </trkpt>
      <trkpt lat="39.00973" lon="-0.37346833">
        <ele>216.973</ele>
        <time>2020-02-08T08:28:54.559Z</time>
      </trkpt>
      <trkpt lat="39.00970167" lon="-0.37353667">
        <ele>216.973</ele>
        <time>2020-02-08T08:28:55.559Z</time>
      </trkpt>
      <trkpt lat="39.00970167" lon="-0.37353667">
        <ele>217.973</ele>
        <time>2020-02-08T08:28:56.559Z</time>
      </trkpt>
      <trkpt lat="39.00968167" lon="-0.3736">
        <ele>217.973</ele>
        <time>2020-02-08T08:28:57.559Z</time>
      </trkpt>
      <trkpt lat="39.00968167" lon="-0.3736">
        <ele>217.973</ele>
        <time>2020-02-08T08:28:58.559Z</time>
      </trkpt>
      <trkpt lat="39.009665" lon="-0.37366667">
        <ele>217.973</ele>
        <time>2020-02-08T08:28:59.559Z</time>
      </trkpt>
      <trkpt lat="39.009665" lon="-0.37366667">
        <ele>218.973</ele>
        <time>2020-02-08T08:29:00.559Z</time>
      </trkpt>
      <trkpt lat="39.00966" lon="-0.37374833">
        <ele>218.973</ele>
        <time>2020-02-08T08:29:01.559Z</time>
      </trkpt>
      <trkpt lat="39.00966" lon="-0.37374833">
        <ele>218.973</ele>
        <time>2020-02-08T08:29:02.559Z</time>
      </trkpt>
      <trkpt lat="39.00965167" lon="-0.37382667">
        <ele>218.973</ele>
        <time>2020-02-08T08:29:03.559Z</time>
      </trkpt>
      <trkpt lat="39.00965167" lon="-0.37382667">
        <ele>219.973</ele>
        <time>2020-02-08T08:29:04.559Z</time>
      </trkpt>
      <trkpt lat="39.00964167" lon="-0.373905">
        <ele>219.973</ele>
        <time>2020-02-08T08:29:05.559Z</time>
      </trkpt>
      <trkpt lat="39.00964" lon="-0.37394">
        <ele>219.973</ele>
        <time>2020-02-08T08:29:06.559Z</time>
      </trkpt>
      <trkpt lat="39.00964" lon="-0.37394">
        <ele>219.973</ele>
        <time>2020-02-08T08:29:07.559Z</time>
      </trkpt>
      <trkpt lat="39.009625" lon="-0.37400833">
        <ele>220.973</ele>
        <time>2020-02-08T08:29:08.559Z</time>
      </trkpt>
      <trkpt lat="39.00961667" lon="-0.37404">
        <ele>220.973</ele>
        <time>2020-02-08T08:29:09.559Z</time>
      </trkpt>
      <trkpt lat="39.00961667" lon="-0.37404">
        <ele>220.973</ele>
        <time>2020-02-08T08:29:10.559Z</time>
      </trkpt>
      <trkpt lat="39.00959167" lon="-0.37411">
        <ele>221.973</ele>
        <time>2020-02-08T08:29:11.559Z</time>
      </trkpt>
      <trkpt lat="39.00959167" lon="-0.37411">
        <ele>221.973</ele>
        <time>2020-02-08T08:29:12.559Z</time>
      </trkpt>
      <trkpt lat="39.00956167" lon="-0.374175">
        <ele>221.973</ele>
        <time>2020-02-08T08:29:13.559Z</time>
      </trkpt>
      <trkpt lat="39.00956167" lon="-0.374175">
        <ele>221.973</ele>
        <time>2020-02-08T08:29:14.559Z</time>
      </trkpt>
      <trkpt lat="39.00954333" lon="-0.37424167">
        <ele>221.973</ele>
        <time>2020-02-08T08:29:15.559Z</time>
      </trkpt>
      <trkpt lat="39.00954333" lon="-0.37424167">
        <ele>221.973</ele>
        <time>2020-02-08T08:29:16.559Z</time>
      </trkpt>
      <trkpt lat="39.009525" lon="-0.37429833">
        <ele>222.973</ele>
        <time>2020-02-08T08:29:17.559Z</time>
      </trkpt>
      <trkpt lat="39.009525" lon="-0.37429833">
        <ele>222.973</ele>
        <time>2020-02-08T08:29:18.559Z</time>
      </trkpt>
      <trkpt lat="39.00950167" lon="-0.37434167">
        <ele>222.973</ele>
        <time>2020-02-08T08:29:19.559Z</time>
      </trkpt>
      <trkpt lat="39.00950167" lon="-0.37434167">
        <ele>222.973</ele>
        <time>2020-02-08T08:29:20.559Z</time>
      </trkpt>
      <trkpt lat="39.009435" lon="-0.37438167">
        <ele>222.973</ele>
        <time>2020-02-08T08:29:21.559Z</time>
      </trkpt>
      <trkpt lat="39.009435" lon="-0.37438167">
        <ele>222.973</ele>
        <time>2020-02-08T08:29:22.559Z</time>
      </trkpt>
      <trkpt lat="39.00935333" lon="-0.37443833">
        <ele>222.973</ele>
        <time>2020-02-08T08:29:23.559Z</time>
      </trkpt>
      <trkpt lat="39.00935333" lon="-0.37443833">
        <ele>222.973</ele>
        <time>2020-02-08T08:29:24.559Z</time>
      </trkpt>
      <trkpt lat="39.00928333" lon="-0.37452333">
        <ele>222.973</ele>
        <time>2020-02-08T08:29:25.559Z</time>
      </trkpt>
      <trkpt lat="39.00928333" lon="-0.37452333">
        <ele>222.973</ele>
        <time>2020-02-08T08:29:26.559Z</time>
      </trkpt>
      <trkpt lat="39.00922" lon="-0.37462333">
        <ele>221.973</ele>
        <time>2020-02-08T08:29:27.559Z</time>
      </trkpt>
      <trkpt lat="39.00922" lon="-0.37462333">
        <ele>221.973</ele>
        <time>2020-02-08T08:29:28.559Z</time>
      </trkpt>
      <trkpt lat="39.009135" lon="-0.37470333">
        <ele>221.973</ele>
        <time>2020-02-08T08:29:29.559Z</time>
      </trkpt>
      <trkpt lat="39.009135" lon="-0.37470333">
        <ele>221.973</ele>
        <time>2020-02-08T08:29:30.559Z</time>
      </trkpt>
      <trkpt lat="39.00904333" lon="-0.37475333">
        <ele>221.973</ele>
        <time>2020-02-08T08:29:31.559Z</time>
      </trkpt>
      <trkpt lat="39.00904333" lon="-0.37475333">
        <ele>221.973</ele>
        <time>2020-02-08T08:29:32.559Z</time>
      </trkpt>
      <trkpt lat="39.00894" lon="-0.37479833">
        <ele>220.973</ele>
        <time>2020-02-08T08:29:33.559Z</time>
      </trkpt>
      <trkpt lat="39.00894" lon="-0.37479833">
        <ele>220.973</ele>
        <time>2020-02-08T08:29:34.559Z</time>
      </trkpt>
      <trkpt lat="39.00883833" lon="-0.37486833">
        <ele>220.973</ele>
        <time>2020-02-08T08:29:35.559Z</time>
      </trkpt>
      <trkpt lat="39.00880833" lon="-0.37493">
        <ele>220.973</ele>
        <time>2020-02-08T08:29:36.559Z</time>
      </trkpt>
      <trkpt lat="39.00877833" lon="-0.37499167">
        <ele>218.973</ele>
        <time>2020-02-08T08:29:37.559Z</time>
      </trkpt>
      <trkpt lat="39.00877833" lon="-0.37499167">
        <ele>218.973</ele>
        <time>2020-02-08T08:29:38.559Z</time>
      </trkpt>
      <trkpt lat="39.00871" lon="-0.37512167">
        <ele>218.973</ele>
        <time>2020-02-08T08:29:39.559Z</time>
      </trkpt>
      <trkpt lat="39.00871" lon="-0.37512167">
        <ele>218.973</ele>
        <time>2020-02-08T08:29:40.559Z</time>
      </trkpt>
      <trkpt lat="39.00861833" lon="-0.37522167">
        <ele>218.973</ele>
        <time>2020-02-08T08:29:41.559Z</time>
      </trkpt>
      <trkpt lat="39.00861833" lon="-0.37522167">
        <ele>218.973</ele>
        <time>2020-02-08T08:29:42.559Z</time>
      </trkpt>
      <trkpt lat="39.00851667" lon="-0.37531833">
        <ele>218.973</ele>
        <time>2020-02-08T08:29:43.559Z</time>
      </trkpt>
      <trkpt lat="39.00851667" lon="-0.37531833">
        <ele>218.973</ele>
        <time>2020-02-08T08:29:44.559Z</time>
      </trkpt>
      <trkpt lat="39.00842667" lon="-0.375425">
        <ele>218.973</ele>
        <time>2020-02-08T08:29:45.559Z</time>
      </trkpt>
      <trkpt lat="39.00842667" lon="-0.375425">
        <ele>218.973</ele>
        <time>2020-02-08T08:29:46.559Z</time>
      </trkpt>
      <trkpt lat="39.00835833" lon="-0.37556">
        <ele>218.973</ele>
        <time>2020-02-08T08:29:47.559Z</time>
      </trkpt>
      <trkpt lat="39.008325" lon="-0.37563167">
        <ele>217.973</ele>
        <time>2020-02-08T08:29:48.559Z</time>
      </trkpt>
      <trkpt lat="39.008285" lon="-0.375695">
        <ele>217.973</ele>
        <time>2020-02-08T08:29:49.559Z</time>
      </trkpt>
      <trkpt lat="39.008285" lon="-0.375695">
        <ele>217.973</ele>
        <time>2020-02-08T08:29:50.559Z</time>
      </trkpt>
      <trkpt lat="39.00820333" lon="-0.37579333">
        <ele>217.973</ele>
        <time>2020-02-08T08:29:51.559Z</time>
      </trkpt>
      <trkpt lat="39.00820333" lon="-0.37579333">
        <ele>217.973</ele>
        <time>2020-02-08T08:29:52.559Z</time>
      </trkpt>
      <trkpt lat="39.008115" lon="-0.37582">
        <ele>217.973</ele>
        <time>2020-02-08T08:29:53.559Z</time>
      </trkpt>
      <trkpt lat="39.00807333" lon="-0.37581333">
        <ele>217.973</ele>
        <time>2020-02-08T08:29:54.559Z</time>
      </trkpt>
      <trkpt lat="39.00802833" lon="-0.37580333">
        <ele>217.973</ele>
        <time>2020-02-08T08:29:55.559Z</time>
      </trkpt>
      <trkpt lat="39.00802833" lon="-0.37580333">
        <ele>217.973</ele>
        <time>2020-02-08T08:29:56.559Z</time>
      </trkpt>
      <trkpt lat="39.00794" lon="-0.375755">
        <ele>217.973</ele>
        <time>2020-02-08T08:29:57.559Z</time>
      </trkpt>
      <trkpt lat="39.00794" lon="-0.375755">
        <ele>216.973</ele>
        <time>2020-02-08T08:29:58.559Z</time>
      </trkpt>
      <trkpt lat="39.00785667" lon="-0.37572833">
        <ele>216.973</ele>
        <time>2020-02-08T08:29:59.559Z</time>
      </trkpt>
      <trkpt lat="39.00785667" lon="-0.37572833">
        <ele>216.973</ele>
        <time>2020-02-08T08:30:00.559Z</time>
      </trkpt>
      <trkpt lat="39.00777333" lon="-0.37576667">
        <ele>216.973</ele>
        <time>2020-02-08T08:30:01.559Z</time>
      </trkpt>
      <trkpt lat="39.00777333" lon="-0.37576667">
        <ele>216.973</ele>
        <time>2020-02-08T08:30:02.559Z</time>
      </trkpt>
      <trkpt lat="39.00775167" lon="-0.37587333">
        <ele>216.973</ele>
        <time>2020-02-08T08:30:03.559Z</time>
      </trkpt>
      <trkpt lat="39.00775167" lon="-0.37587333">
        <ele>216.973</ele>
        <time>2020-02-08T08:30:04.559Z</time>
      </trkpt>
      <trkpt lat="39.00777333" lon="-0.37599">
        <ele>216.973</ele>
        <time>2020-02-08T08:30:05.559Z</time>
      </trkpt>
      <trkpt lat="39.00777333" lon="-0.37599">
        <ele>216.973</ele>
        <time>2020-02-08T08:30:06.559Z</time>
      </trkpt>
      <trkpt lat="39.00781167" lon="-0.37611833">
        <ele>216.973</ele>
        <time>2020-02-08T08:30:07.559Z</time>
      </trkpt>
      <trkpt lat="39.00781167" lon="-0.37611833">
        <ele>216.973</ele>
        <time>2020-02-08T08:30:08.559Z</time>
      </trkpt>
      <trkpt lat="39.007835" lon="-0.37626">
        <ele>216.973</ele>
        <time>2020-02-08T08:30:09.559Z</time>
      </trkpt>
      <trkpt lat="39.007835" lon="-0.37626">
        <ele>216.973</ele>
        <time>2020-02-08T08:30:10.559Z</time>
      </trkpt>
      <trkpt lat="39.007835" lon="-0.37639">
        <ele>216.973</ele>
        <time>2020-02-08T08:30:11.559Z</time>
      </trkpt>
      <trkpt lat="39.00781833" lon="-0.37645333">
        <ele>216.973</ele>
        <time>2020-02-08T08:30:12.559Z</time>
      </trkpt>
      <trkpt lat="39.00779833" lon="-0.37650833">
        <ele>216.973</ele>
        <time>2020-02-08T08:30:13.559Z</time>
      </trkpt>
      <trkpt lat="39.00776833" lon="-0.37655">
        <ele>216.973</ele>
        <time>2020-02-08T08:30:14.559Z</time>
      </trkpt>
      <trkpt lat="39.00776833" lon="-0.37655">
        <ele>215.973</ele>
        <time>2020-02-08T08:30:15.559Z</time>
      </trkpt>
      <trkpt lat="39.00768167" lon="-0.37657833">
        <ele>215.973</ele>
        <time>2020-02-08T08:30:16.559Z</time>
      </trkpt>
      <trkpt lat="39.00768167" lon="-0.37657833">
        <ele>215.973</ele>
        <time>2020-02-08T08:30:17.559Z</time>
      </trkpt>
      <trkpt lat="39.00759667" lon="-0.37651833">
        <ele>215.973</ele>
        <time>2020-02-08T08:30:18.559Z</time>
      </trkpt>
      <trkpt lat="39.00755167" lon="-0.37646167">
        <ele>213.973</ele>
        <time>2020-02-08T08:30:19.559Z</time>
      </trkpt>
      <trkpt lat="39.00755167" lon="-0.37646167">
        <ele>213.973</ele>
        <time>2020-02-08T08:30:20.559Z</time>
      </trkpt>
      <trkpt lat="39.00746167" lon="-0.37631667">
        <ele>213.973</ele>
        <time>2020-02-08T08:30:21.559Z</time>
      </trkpt>
      <trkpt lat="39.00746167" lon="-0.37631667">
        <ele>213.973</ele>
        <time>2020-02-08T08:30:22.559Z</time>
      </trkpt>
      <trkpt lat="39.007385" lon="-0.37617667">
        <ele>212.973</ele>
        <time>2020-02-08T08:30:23.559Z</time>
      </trkpt>
      <trkpt lat="39.00735" lon="-0.3761">
        <ele>212.973</ele>
        <time>2020-02-08T08:30:24.559Z</time>
      </trkpt>
      <trkpt lat="39.00731" lon="-0.37602">
        <ele>212.973</ele>
        <time>2020-02-08T08:30:25.559Z</time>
      </trkpt>
      <trkpt lat="39.00731" lon="-0.37602">
        <ele>212.973</ele>
        <time>2020-02-08T08:30:26.559Z</time>
      </trkpt>
      <trkpt lat="39.00723333" lon="-0.37588167">
        <ele>212.973</ele>
        <time>2020-02-08T08:30:27.559Z</time>
      </trkpt>
      <trkpt lat="39.00723333" lon="-0.37588167">
        <ele>211.973</ele>
        <time>2020-02-08T08:30:28.559Z</time>
      </trkpt>
      <trkpt lat="39.00715333" lon="-0.37576667">
        <ele>211.973</ele>
        <time>2020-02-08T08:30:29.559Z</time>
      </trkpt>
      <trkpt lat="39.00715333" lon="-0.37576667">
        <ele>210.973</ele>
        <time>2020-02-08T08:30:30.559Z</time>
      </trkpt>
      <trkpt lat="39.00703833" lon="-0.37566">
        <ele>210.973</ele>
        <time>2020-02-08T08:30:31.559Z</time>
      </trkpt>
      <trkpt lat="39.00703833" lon="-0.37566">
        <ele>209.973</ele>
        <time>2020-02-08T08:30:32.559Z</time>
      </trkpt>
      <trkpt lat="39.00689167" lon="-0.37554167">
        <ele>209.973</ele>
        <time>2020-02-08T08:30:33.559Z</time>
      </trkpt>
      <trkpt lat="39.00682667" lon="-0.375475">
        <ele>208.973</ele>
        <time>2020-02-08T08:30:34.559Z</time>
      </trkpt>
      <trkpt lat="39.006765" lon="-0.375405">
        <ele>208.973</ele>
        <time>2020-02-08T08:30:35.559Z</time>
      </trkpt>
      <trkpt lat="39.006765" lon="-0.375405">
        <ele>206.973</ele>
        <time>2020-02-08T08:30:36.559Z</time>
      </trkpt>
      <trkpt lat="39.006625" lon="-0.37526167">
        <ele>206.973</ele>
        <time>2020-02-08T08:30:37.559Z</time>
      </trkpt>
      <trkpt lat="39.006625" lon="-0.37526167">
        <ele>205.973</ele>
        <time>2020-02-08T08:30:38.559Z</time>
      </trkpt>
      <trkpt lat="39.00648167" lon="-0.37512833">
        <ele>204.973</ele>
        <time>2020-02-08T08:30:39.559Z</time>
      </trkpt>
      <trkpt lat="39.00648167" lon="-0.37512833">
        <ele>204.973</ele>
        <time>2020-02-08T08:30:40.559Z</time>
      </trkpt>
      <trkpt lat="39.00635333" lon="-0.37502">
        <ele>203.973</ele>
        <time>2020-02-08T08:30:41.559Z</time>
      </trkpt>
      <trkpt lat="39.00635333" lon="-0.37502">
        <ele>203.973</ele>
        <time>2020-02-08T08:30:42.559Z</time>
      </trkpt>
      <trkpt lat="39.00619167" lon="-0.37496833">
        <ele>202.973</ele>
        <time>2020-02-08T08:30:43.559Z</time>
      </trkpt>
      <trkpt lat="39.00619167" lon="-0.37496833">
        <ele>202.973</ele>
        <time>2020-02-08T08:30:44.559Z</time>
      </trkpt>
      <trkpt lat="39.00603167" lon="-0.37499">
        <ele>201.973</ele>
        <time>2020-02-08T08:30:45.559Z</time>
      </trkpt>
      <trkpt lat="39.00603167" lon="-0.37499">
        <ele>201.973</ele>
        <time>2020-02-08T08:30:46.559Z</time>
      </trkpt>
      <trkpt lat="39.00588833" lon="-0.37497833">
        <ele>201.973</ele>
        <time>2020-02-08T08:30:47.559Z</time>
      </trkpt>
      <trkpt lat="39.00588833" lon="-0.37497833">
        <ele>201.973</ele>
        <time>2020-02-08T08:30:48.559Z</time>
      </trkpt>
      <trkpt lat="39.00577833" lon="-0.37491333">
        <ele>202.973</ele>
        <time>2020-02-08T08:30:49.559Z</time>
      </trkpt>
      <trkpt lat="39.00577833" lon="-0.37491333">
        <ele>202.973</ele>
        <time>2020-02-08T08:30:50.559Z</time>
      </trkpt>
      <trkpt lat="39.00567167" lon="-0.37484667">
        <ele>202.973</ele>
        <time>2020-02-08T08:30:51.559Z</time>
      </trkpt>
      <trkpt lat="39.00567167" lon="-0.37484667">
        <ele>203.973</ele>
        <time>2020-02-08T08:30:52.559Z</time>
      </trkpt>
      <trkpt lat="39.00553833" lon="-0.37481667">
        <ele>203.973</ele>
        <time>2020-02-08T08:30:53.559Z</time>
      </trkpt>
      <trkpt lat="39.00553833" lon="-0.37481667">
        <ele>203.973</ele>
        <time>2020-02-08T08:30:54.559Z</time>
      </trkpt>
      <trkpt lat="39.00543" lon="-0.37482667">
        <ele>203.973</ele>
        <time>2020-02-08T08:30:55.559Z</time>
      </trkpt>
      <trkpt lat="39.00543" lon="-0.37482667">
        <ele>204.973</ele>
        <time>2020-02-08T08:30:56.559Z</time>
      </trkpt>
      <trkpt lat="39.00533167" lon="-0.374855">
        <ele>204.973</ele>
        <time>2020-02-08T08:30:57.559Z</time>
      </trkpt>
      <trkpt lat="39.00533167" lon="-0.374855">
        <ele>204.973</ele>
        <time>2020-02-08T08:30:58.559Z</time>
      </trkpt>
      <trkpt lat="39.005225" lon="-0.374905">
        <ele>204.973</ele>
        <time>2020-02-08T08:30:59.559Z</time>
      </trkpt>
      <trkpt lat="39.00517167" lon="-0.374935">
        <ele>204.973</ele>
        <time>2020-02-08T08:31:00.559Z</time>
      </trkpt>
      <trkpt lat="39.00512" lon="-0.37496">
        <ele>204.973</ele>
        <time>2020-02-08T08:31:01.559Z</time>
      </trkpt>
      <trkpt lat="39.00512" lon="-0.37496">
        <ele>204.973</ele>
        <time>2020-02-08T08:31:02.559Z</time>
      </trkpt>
      <trkpt lat="39.005025" lon="-0.37502333">
        <ele>204.973</ele>
        <time>2020-02-08T08:31:03.559Z</time>
      </trkpt>
      <trkpt lat="39.005025" lon="-0.37502333">
        <ele>204.973</ele>
        <time>2020-02-08T08:31:04.559Z</time>
      </trkpt>
      <trkpt lat="39.00493" lon="-0.375115">
        <ele>204.973</ele>
        <time>2020-02-08T08:31:05.559Z</time>
      </trkpt>
      <trkpt lat="39.00493" lon="-0.375115">
        <ele>204.973</ele>
        <time>2020-02-08T08:31:06.559Z</time>
      </trkpt>
      <trkpt lat="39.00482667" lon="-0.37518667">
        <ele>204.973</ele>
        <time>2020-02-08T08:31:07.559Z</time>
      </trkpt>
      <trkpt lat="39.00482667" lon="-0.37518667">
        <ele>204.973</ele>
        <time>2020-02-08T08:31:08.559Z</time>
      </trkpt>
      <trkpt lat="39.004705" lon="-0.37526667">
        <ele>204.973</ele>
        <time>2020-02-08T08:31:09.559Z</time>
      </trkpt>
      <trkpt lat="39.004705" lon="-0.37526667">
        <ele>204.973</ele>
        <time>2020-02-08T08:31:10.559Z</time>
      </trkpt>
      <trkpt lat="39.00458667" lon="-0.37534167">
        <ele>204.973</ele>
        <time>2020-02-08T08:31:11.559Z</time>
      </trkpt>
      <trkpt lat="39.00458667" lon="-0.37534167">
        <ele>204.973</ele>
        <time>2020-02-08T08:31:12.559Z</time>
      </trkpt>
      <trkpt lat="39.00448833" lon="-0.37543333">
        <ele>204.973</ele>
        <time>2020-02-08T08:31:13.559Z</time>
      </trkpt>
      <trkpt lat="39.00448833" lon="-0.37543333">
        <ele>204.973</ele>
        <time>2020-02-08T08:31:14.559Z</time>
      </trkpt>
      <trkpt lat="39.00439667" lon="-0.37553167">
        <ele>204.973</ele>
        <time>2020-02-08T08:31:15.559Z</time>
      </trkpt>
      <trkpt lat="39.00439667" lon="-0.37553167">
        <ele>204.973</ele>
        <time>2020-02-08T08:31:16.559Z</time>
      </trkpt>
      <trkpt lat="39.00430167" lon="-0.37563167">
        <ele>204.973</ele>
        <time>2020-02-08T08:31:17.559Z</time>
      </trkpt>
      <trkpt lat="39.00430167" lon="-0.37563167">
        <ele>204.973</ele>
        <time>2020-02-08T08:31:18.559Z</time>
      </trkpt>
      <trkpt lat="39.00421" lon="-0.37572167">
        <ele>204.973</ele>
        <time>2020-02-08T08:31:19.559Z</time>
      </trkpt>
      <trkpt lat="39.00421" lon="-0.37572167">
        <ele>204.973</ele>
        <time>2020-02-08T08:31:20.559Z</time>
      </trkpt>
      <trkpt lat="39.00414333" lon="-0.37578833">
        <ele>204.973</ele>
        <time>2020-02-08T08:31:21.559Z</time>
      </trkpt>
      <trkpt lat="39.00414333" lon="-0.37578833">
        <ele>204.973</ele>
        <time>2020-02-08T08:31:22.559Z</time>
      </trkpt>
      <trkpt lat="39.00408667" lon="-0.37583833">
        <ele>205.973</ele>
        <time>2020-02-08T08:31:23.559Z</time>
      </trkpt>
      <trkpt lat="39.00406" lon="-0.375865">
        <ele>205.973</ele>
        <time>2020-02-08T08:31:24.559Z</time>
      </trkpt>
      <trkpt lat="39.004035" lon="-0.375895">
        <ele>206.973</ele>
        <time>2020-02-08T08:31:25.559Z</time>
      </trkpt>
      <trkpt lat="39.004035" lon="-0.375895">
        <ele>206.973</ele>
        <time>2020-02-08T08:31:26.559Z</time>
      </trkpt>
      <trkpt lat="39.00397833" lon="-0.37595167">
        <ele>207.973</ele>
        <time>2020-02-08T08:31:27.559Z</time>
      </trkpt>
      <trkpt lat="39.00397833" lon="-0.37595167">
        <ele>207.973</ele>
        <time>2020-02-08T08:31:28.559Z</time>
      </trkpt>
      <trkpt lat="39.00391833" lon="-0.376015">
        <ele>208.973</ele>
        <time>2020-02-08T08:31:29.559Z</time>
      </trkpt>
      <trkpt lat="39.00391833" lon="-0.376015">
        <ele>208.973</ele>
        <time>2020-02-08T08:31:30.559Z</time>
      </trkpt>
      <trkpt lat="39.00385167" lon="-0.37606667">
        <ele>209.973</ele>
        <time>2020-02-08T08:31:31.559Z</time>
      </trkpt>
      <trkpt lat="39.00385167" lon="-0.37606667">
        <ele>209.973</ele>
        <time>2020-02-08T08:31:32.559Z</time>
      </trkpt>
      <trkpt lat="39.00379" lon="-0.37611333">
        <ele>210.973</ele>
        <time>2020-02-08T08:31:33.559Z</time>
      </trkpt>
      <trkpt lat="39.00379" lon="-0.37611333">
        <ele>210.973</ele>
        <time>2020-02-08T08:31:34.559Z</time>
      </trkpt>
      <trkpt lat="39.00372333" lon="-0.37615833">
        <ele>210.973</ele>
        <time>2020-02-08T08:31:35.559Z</time>
      </trkpt>
      <trkpt lat="39.00372333" lon="-0.37615833">
        <ele>210.973</ele>
        <time>2020-02-08T08:31:36.559Z</time>
      </trkpt>
      <trkpt lat="39.00366" lon="-0.37620667">
        <ele>211.973</ele>
        <time>2020-02-08T08:31:37.559Z</time>
      </trkpt>
      <trkpt lat="39.00366" lon="-0.37620667">
        <ele>211.973</ele>
        <time>2020-02-08T08:31:38.559Z</time>
      </trkpt>
      <trkpt lat="39.00360167" lon="-0.376265">
        <ele>211.973</ele>
        <time>2020-02-08T08:31:39.559Z</time>
      </trkpt>
      <trkpt lat="39.00360167" lon="-0.376265">
        <ele>211.973</ele>
        <time>2020-02-08T08:31:40.559Z</time>
      </trkpt>
      <trkpt lat="39.00354667" lon="-0.37633">
        <ele>211.973</ele>
        <time>2020-02-08T08:31:41.559Z</time>
      </trkpt>
      <trkpt lat="39.00354667" lon="-0.37633">
        <ele>212.973</ele>
        <time>2020-02-08T08:31:42.559Z</time>
      </trkpt>
      <trkpt lat="39.00348833" lon="-0.37638333">
        <ele>212.973</ele>
        <time>2020-02-08T08:31:43.559Z</time>
      </trkpt>
      <trkpt lat="39.00348833" lon="-0.37638333">
        <ele>212.973</ele>
        <time>2020-02-08T08:31:44.559Z</time>
      </trkpt>
      <trkpt lat="39.00342667" lon="-0.37644667">
        <ele>212.973</ele>
        <time>2020-02-08T08:31:45.559Z</time>
      </trkpt>
      <trkpt lat="39.00339833" lon="-0.37647833">
        <ele>213.973</ele>
        <time>2020-02-08T08:31:46.559Z</time>
      </trkpt>
      <trkpt lat="39.00339833" lon="-0.37647833">
        <ele>213.973</ele>
        <time>2020-02-08T08:31:47.559Z</time>
      </trkpt>
      <trkpt lat="39.00333667" lon="-0.37653">
        <ele>213.973</ele>
        <time>2020-02-08T08:31:48.559Z</time>
      </trkpt>
      <trkpt lat="39.003305" lon="-0.376555">
        <ele>213.973</ele>
        <time>2020-02-08T08:31:49.559Z</time>
      </trkpt>
      <trkpt lat="39.003305" lon="-0.376555">
        <ele>213.973</ele>
        <time>2020-02-08T08:31:50.559Z</time>
      </trkpt>
      <trkpt lat="39.00324" lon="-0.37660333">
        <ele>213.973</ele>
        <time>2020-02-08T08:31:51.559Z</time>
      </trkpt>
      <trkpt lat="39.00324" lon="-0.37660333">
        <ele>214.973</ele>
        <time>2020-02-08T08:31:52.559Z</time>
      </trkpt>
      <trkpt lat="39.003175" lon="-0.37667333">
        <ele>214.973</ele>
        <time>2020-02-08T08:31:53.559Z</time>
      </trkpt>
      <trkpt lat="39.003145" lon="-0.37670333">
        <ele>214.973</ele>
        <time>2020-02-08T08:31:54.559Z</time>
      </trkpt>
      <trkpt lat="39.00310167" lon="-0.37672333">
        <ele>214.973</ele>
        <time>2020-02-08T08:31:55.559Z</time>
      </trkpt>
      <trkpt lat="39.00310167" lon="-0.37672333">
        <ele>214.973</ele>
        <time>2020-02-08T08:31:56.559Z</time>
      </trkpt>
      <trkpt lat="39.00302667" lon="-0.37677667">
        <ele>214.973</ele>
        <time>2020-02-08T08:31:57.559Z</time>
      </trkpt>
      <trkpt lat="39.00302667" lon="-0.37677667">
        <ele>214.973</ele>
        <time>2020-02-08T08:31:58.559Z</time>
      </trkpt>
      <trkpt lat="39.00293" lon="-0.37683167">
        <ele>214.973</ele>
        <time>2020-02-08T08:31:59.559Z</time>
      </trkpt>
      <trkpt lat="39.00287167" lon="-0.37685833">
        <ele>214.973</ele>
        <time>2020-02-08T08:32:00.559Z</time>
      </trkpt>
      <trkpt lat="39.00281333" lon="-0.37688167">
        <ele>214.973</ele>
        <time>2020-02-08T08:32:01.559Z</time>
      </trkpt>
      <trkpt lat="39.00281333" lon="-0.37688167">
        <ele>213.973</ele>
        <time>2020-02-08T08:32:02.559Z</time>
      </trkpt>
      <trkpt lat="39.00269667" lon="-0.37691">
        <ele>213.973</ele>
        <time>2020-02-08T08:32:03.559Z</time>
      </trkpt>
      <trkpt lat="39.00269667" lon="-0.37691">
        <ele>213.973</ele>
        <time>2020-02-08T08:32:04.559Z</time>
      </trkpt>
      <trkpt lat="39.00257" lon="-0.37693">
        <ele>213.973</ele>
        <time>2020-02-08T08:32:05.559Z</time>
      </trkpt>
      <trkpt lat="39.00257" lon="-0.37693">
        <ele>211.973</ele>
        <time>2020-02-08T08:32:06.559Z</time>
      </trkpt>
      <trkpt lat="39.00243167" lon="-0.376975">
        <ele>211.973</ele>
        <time>2020-02-08T08:32:07.559Z</time>
      </trkpt>
      <trkpt lat="39.00243167" lon="-0.376975">
        <ele>211.973</ele>
        <time>2020-02-08T08:32:08.559Z</time>
      </trkpt>
      <trkpt lat="39.00233667" lon="-0.37703167">
        <ele>211.973</ele>
        <time>2020-02-08T08:32:09.559Z</time>
      </trkpt>
      <trkpt lat="39.00233667" lon="-0.37703167">
        <ele>211.973</ele>
        <time>2020-02-08T08:32:10.559Z</time>
      </trkpt>
      <trkpt lat="39.00227" lon="-0.37710333">
        <ele>211.973</ele>
        <time>2020-02-08T08:32:11.559Z</time>
      </trkpt>
      <trkpt lat="39.00227" lon="-0.37710333">
        <ele>211.973</ele>
        <time>2020-02-08T08:32:12.559Z</time>
      </trkpt>
      <trkpt lat="39.00224167" lon="-0.37721333">
        <ele>211.973</ele>
        <time>2020-02-08T08:32:13.559Z</time>
      </trkpt>
      <trkpt lat="39.00224167" lon="-0.37721333">
        <ele>211.973</ele>
        <time>2020-02-08T08:32:14.559Z</time>
      </trkpt>
      <trkpt lat="39.00221667" lon="-0.37731667">
        <ele>211.973</ele>
        <time>2020-02-08T08:32:15.559Z</time>
      </trkpt>
      <trkpt lat="39.00221667" lon="-0.37731667">
        <ele>211.973</ele>
        <time>2020-02-08T08:32:16.559Z</time>
      </trkpt>
      <trkpt lat="39.00220833" lon="-0.37742667">
        <ele>211.973</ele>
        <time>2020-02-08T08:32:17.559Z</time>
      </trkpt>
      <trkpt lat="39.00220833" lon="-0.37742667">
        <ele>211.973</ele>
        <time>2020-02-08T08:32:18.559Z</time>
      </trkpt>
      <trkpt lat="39.002195" lon="-0.37754167">
        <ele>211.973</ele>
        <time>2020-02-08T08:32:19.559Z</time>
      </trkpt>
      <trkpt lat="39.002195" lon="-0.37754167">
        <ele>211.973</ele>
        <time>2020-02-08T08:32:20.559Z</time>
      </trkpt>
      <trkpt lat="39.00218167" lon="-0.37765833">
        <ele>211.973</ele>
        <time>2020-02-08T08:32:21.559Z</time>
      </trkpt>
      <trkpt lat="39.00218167" lon="-0.37765833">
        <ele>211.973</ele>
        <time>2020-02-08T08:32:22.559Z</time>
      </trkpt>
      <trkpt lat="39.00217167" lon="-0.37777">
        <ele>211.973</ele>
        <time>2020-02-08T08:32:23.559Z</time>
      </trkpt>
      <trkpt lat="39.00217167" lon="-0.37777">
        <ele>211.973</ele>
        <time>2020-02-08T08:32:24.559Z</time>
      </trkpt>
      <trkpt lat="39.00217" lon="-0.37787167">
        <ele>212.973</ele>
        <time>2020-02-08T08:32:25.559Z</time>
      </trkpt>
      <trkpt lat="39.00217" lon="-0.37787167">
        <ele>212.973</ele>
        <time>2020-02-08T08:32:26.559Z</time>
      </trkpt>
      <trkpt lat="39.00219333" lon="-0.37797667">
        <ele>212.973</ele>
        <time>2020-02-08T08:32:27.559Z</time>
      </trkpt>
      <trkpt lat="39.00219833" lon="-0.37802333">
        <ele>212.973</ele>
        <time>2020-02-08T08:32:28.559Z</time>
      </trkpt>
      <trkpt lat="39.00219833" lon="-0.37802333">
        <ele>212.973</ele>
        <time>2020-02-08T08:32:29.559Z</time>
      </trkpt>
      <trkpt lat="39.00222833" lon="-0.378115">
        <ele>212.973</ele>
        <time>2020-02-08T08:32:30.559Z</time>
      </trkpt>
      <trkpt lat="39.00224" lon="-0.37816333">
        <ele>212.973</ele>
        <time>2020-02-08T08:32:31.559Z</time>
      </trkpt>
      <trkpt lat="39.00224" lon="-0.37816333">
        <ele>212.973</ele>
        <time>2020-02-08T08:32:32.559Z</time>
      </trkpt>
      <trkpt lat="39.00225833" lon="-0.37826167">
        <ele>213.973</ele>
        <time>2020-02-08T08:32:33.559Z</time>
      </trkpt>
      <trkpt lat="39.00225833" lon="-0.37826167">
        <ele>213.973</ele>
        <time>2020-02-08T08:32:34.559Z</time>
      </trkpt>
      <trkpt lat="39.00228333" lon="-0.37837">
        <ele>213.973</ele>
        <time>2020-02-08T08:32:35.559Z</time>
      </trkpt>
      <trkpt lat="39.00228333" lon="-0.37837">
        <ele>213.973</ele>
        <time>2020-02-08T08:32:36.559Z</time>
      </trkpt>
      <trkpt lat="39.00231167" lon="-0.37847667">
        <ele>213.973</ele>
        <time>2020-02-08T08:32:37.559Z</time>
      </trkpt>
      <trkpt lat="39.00231167" lon="-0.37847667">
        <ele>213.973</ele>
        <time>2020-02-08T08:32:38.559Z</time>
      </trkpt>
      <trkpt lat="39.00233333" lon="-0.37856833">
        <ele>213.973</ele>
        <time>2020-02-08T08:32:39.559Z</time>
      </trkpt>
      <trkpt lat="39.002345" lon="-0.37861167">
        <ele>213.973</ele>
        <time>2020-02-08T08:32:40.559Z</time>
      </trkpt>
      <trkpt lat="39.002345" lon="-0.37861167">
        <ele>213.973</ele>
        <time>2020-02-08T08:32:41.559Z</time>
      </trkpt>
      <trkpt lat="39.00234667" lon="-0.37870167">
        <ele>213.973</ele>
        <time>2020-02-08T08:32:42.559Z</time>
      </trkpt>
      <trkpt lat="39.00234333" lon="-0.378745">
        <ele>213.973</ele>
        <time>2020-02-08T08:32:43.559Z</time>
      </trkpt>
      <trkpt lat="39.00234333" lon="-0.378745">
        <ele>214.973</ele>
        <time>2020-02-08T08:32:44.559Z</time>
      </trkpt>
      <trkpt lat="39.00231167" lon="-0.37881333">
        <ele>214.973</ele>
        <time>2020-02-08T08:32:45.559Z</time>
      </trkpt>
      <trkpt lat="39.00231167" lon="-0.37881333">
        <ele>214.973</ele>
        <time>2020-02-08T08:32:46.559Z</time>
      </trkpt>
      <trkpt lat="39.00226" lon="-0.37885333">
        <ele>214.973</ele>
        <time>2020-02-08T08:32:47.559Z</time>
      </trkpt>
      <trkpt lat="39.00223333" lon="-0.37886167">
        <ele>214.973</ele>
        <time>2020-02-08T08:32:48.559Z</time>
      </trkpt>
      <trkpt lat="39.00223333" lon="-0.37886167">
        <ele>214.973</ele>
        <time>2020-02-08T08:32:49.559Z</time>
      </trkpt>
      <trkpt lat="39.002185" lon="-0.37886667">
        <ele>215.973</ele>
        <time>2020-02-08T08:32:50.559Z</time>
      </trkpt>
      <trkpt lat="39.002165" lon="-0.378865">
        <ele>215.973</ele>
        <time>2020-02-08T08:32:51.559Z</time>
      </trkpt>
      <trkpt lat="39.002165" lon="-0.378865">
        <ele>215.973</ele>
        <time>2020-02-08T08:32:52.559Z</time>
      </trkpt>
      <trkpt lat="39.002125" lon="-0.37886667">
        <ele>215.973</ele>
        <time>2020-02-08T08:32:53.559Z</time>
      </trkpt>
      <trkpt lat="39.002105" lon="-0.37886333">
        <ele>215.973</ele>
        <time>2020-02-08T08:32:54.559Z</time>
      </trkpt>
      <trkpt lat="39.00208167" lon="-0.37885833">
        <ele>215.973</ele>
        <time>2020-02-08T08:32:55.559Z</time>
      </trkpt>
      <trkpt lat="39.00208167" lon="-0.37885833">
        <ele>215.973</ele>
        <time>2020-02-08T08:32:56.559Z</time>
      </trkpt>
      <trkpt lat="39.00203667" lon="-0.37885333">
        <ele>215.973</ele>
        <time>2020-02-08T08:32:57.559Z</time>
      </trkpt>
      <trkpt lat="39.00203667" lon="-0.37885333">
        <ele>215.973</ele>
        <time>2020-02-08T08:32:58.559Z</time>
      </trkpt>
      <trkpt lat="39.002005" lon="-0.37884833">
        <ele>215.973</ele>
        <time>2020-02-08T08:32:59.559Z</time>
      </trkpt>
      <trkpt lat="39.00199333" lon="-0.37884833">
        <ele>215.973</ele>
        <time>2020-02-08T08:33:00.559Z</time>
      </trkpt>
      <trkpt lat="39.00197333" lon="-0.378845">
        <ele>215.973</ele>
        <time>2020-02-08T08:33:01.559Z</time>
      </trkpt>
      <trkpt lat="39.00197333" lon="-0.378845">
        <ele>215.973</ele>
        <time>2020-02-08T08:33:02.559Z</time>
      </trkpt>
      <trkpt lat="39.00193667" lon="-0.37883833">
        <ele>215.973</ele>
        <time>2020-02-08T08:33:03.559Z</time>
      </trkpt>
      <trkpt lat="39.00193667" lon="-0.37883833">
        <ele>215.973</ele>
        <time>2020-02-08T08:33:04.559Z</time>
      </trkpt>
      <trkpt lat="39.001895" lon="-0.37883667">
        <ele>215.973</ele>
        <time>2020-02-08T08:33:05.559Z</time>
      </trkpt>
      <trkpt lat="39.001895" lon="-0.37883667">
        <ele>215.973</ele>
        <time>2020-02-08T08:33:06.559Z</time>
      </trkpt>
      <trkpt lat="39.00185167" lon="-0.37887167">
        <ele>215.973</ele>
        <time>2020-02-08T08:33:07.559Z</time>
      </trkpt>
      <trkpt lat="39.00185167" lon="-0.37887167">
        <ele>215.973</ele>
        <time>2020-02-08T08:33:08.559Z</time>
      </trkpt>
      <trkpt lat="39.00182333" lon="-0.37891833">
        <ele>215.973</ele>
        <time>2020-02-08T08:33:09.559Z</time>
      </trkpt>
      <trkpt lat="39.00182333" lon="-0.37891833">
        <ele>215.973</ele>
        <time>2020-02-08T08:33:10.559Z</time>
      </trkpt>
      <trkpt lat="39.001795" lon="-0.378975">
        <ele>215.973</ele>
        <time>2020-02-08T08:33:11.559Z</time>
      </trkpt>
      <trkpt lat="39.00177667" lon="-0.379005">
        <ele>215.973</ele>
        <time>2020-02-08T08:33:12.559Z</time>
      </trkpt>
      <trkpt lat="39.00176" lon="-0.37903333">
        <ele>215.973</ele>
        <time>2020-02-08T08:33:13.559Z</time>
      </trkpt>
      <trkpt lat="39.00176" lon="-0.37903333">
        <ele>215.973</ele>
        <time>2020-02-08T08:33:14.559Z</time>
      </trkpt>
      <trkpt lat="39.00172333" lon="-0.37907167">
        <ele>215.973</ele>
        <time>2020-02-08T08:33:15.559Z</time>
      </trkpt>
      <trkpt lat="39.00172333" lon="-0.37907167">
        <ele>215.973</ele>
        <time>2020-02-08T08:33:16.559Z</time>
      </trkpt>
      <trkpt lat="39.00168667" lon="-0.379115">
        <ele>215.973</ele>
        <time>2020-02-08T08:33:17.559Z</time>
      </trkpt>
      <trkpt lat="39.00168667" lon="-0.379115">
        <ele>215.973</ele>
        <time>2020-02-08T08:33:18.559Z</time>
      </trkpt>
      <trkpt lat="39.001655" lon="-0.37915167">
        <ele>215.973</ele>
        <time>2020-02-08T08:33:19.559Z</time>
      </trkpt>
      <trkpt lat="39.001655" lon="-0.37915167">
        <ele>215.973</ele>
        <time>2020-02-08T08:33:20.559Z</time>
      </trkpt>
      <trkpt lat="39.00164333" lon="-0.379185">
        <ele>215.973</ele>
        <time>2020-02-08T08:33:21.559Z</time>
      </trkpt>
      <trkpt lat="39.00164333" lon="-0.379185">
        <ele>215.973</ele>
        <time>2020-02-08T08:33:22.559Z</time>
      </trkpt>
      <trkpt lat="39.00164" lon="-0.37919167">
        <ele>215.973</ele>
        <time>2020-02-08T08:33:23.559Z</time>
      </trkpt>
      <trkpt lat="39.00164" lon="-0.37919167">
        <ele>215.973</ele>
        <time>2020-02-08T08:34:24.571Z</time>
      </trkpt>
      <trkpt lat="39.00162" lon="-0.37922833">
        <ele>215.973</ele>
        <time>2020-02-08T08:34:25.571Z</time>
      </trkpt>
      <trkpt lat="39.00162" lon="-0.37922833">
        <ele>216.973</ele>
        <time>2020-02-08T08:34:26.571Z</time>
      </trkpt>
      <trkpt lat="39.00158833" lon="-0.37926833">
        <ele>216.973</ele>
        <time>2020-02-08T08:34:27.571Z</time>
      </trkpt>
      <trkpt lat="39.00158833" lon="-0.37926833">
        <ele>216.973</ele>
        <time>2020-02-08T08:34:28.571Z</time>
      </trkpt>
      <trkpt lat="39.001565" lon="-0.37930167">
        <ele>216.973</ele>
        <time>2020-02-08T08:34:29.571Z</time>
      </trkpt>
      <trkpt lat="39.001565" lon="-0.37930167">
        <ele>217.973</ele>
        <time>2020-02-08T08:34:30.571Z</time>
      </trkpt>
      <trkpt lat="39.00154" lon="-0.37931667">
        <ele>217.973</ele>
        <time>2020-02-08T08:34:31.571Z</time>
      </trkpt>
      <trkpt lat="39.00154" lon="-0.37931667">
        <ele>217.973</ele>
        <time>2020-02-08T08:34:32.571Z</time>
      </trkpt>
      <trkpt lat="39.00152167" lon="-0.37933167">
        <ele>217.973</ele>
        <time>2020-02-08T08:34:33.571Z</time>
      </trkpt>
      <trkpt lat="39.00152167" lon="-0.37933167">
        <ele>217.973</ele>
        <time>2020-02-08T08:34:34.571Z</time>
      </trkpt>
      <trkpt lat="39.0015" lon="-0.37934333">
        <ele>218.973</ele>
        <time>2020-02-08T08:34:35.571Z</time>
      </trkpt>
      <trkpt lat="39.0015" lon="-0.37934333">
        <ele>218.973</ele>
        <time>2020-02-08T08:34:36.571Z</time>
      </trkpt>
      <trkpt lat="39.00149167" lon="-0.37936333">
        <ele>218.973</ele>
        <time>2020-02-08T08:34:37.571Z</time>
      </trkpt>
      <trkpt lat="39.00149167" lon="-0.37936333">
        <ele>218.973</ele>
        <time>2020-02-08T08:34:38.571Z</time>
      </trkpt>
      <trkpt lat="39.00148333" lon="-0.37939667">
        <ele>218.973</ele>
        <time>2020-02-08T08:34:39.571Z</time>
      </trkpt>
      <trkpt lat="39.00148333" lon="-0.37939667">
        <ele>218.973</ele>
        <time>2020-02-08T08:34:40.571Z</time>
      </trkpt>
      <trkpt lat="39.00147333" lon="-0.37943333">
        <ele>218.973</ele>
        <time>2020-02-08T08:34:41.571Z</time>
      </trkpt>
      <trkpt lat="39.00146667" lon="-0.37945">
        <ele>218.973</ele>
        <time>2020-02-08T08:34:42.571Z</time>
      </trkpt>
      <trkpt lat="39.00146" lon="-0.379465">
        <ele>219.973</ele>
        <time>2020-02-08T08:34:43.571Z</time>
      </trkpt>
      <trkpt lat="39.00146" lon="-0.379465">
        <ele>219.973</ele>
        <time>2020-02-08T08:34:44.571Z</time>
      </trkpt>
      <trkpt lat="39.00144833" lon="-0.379495">
        <ele>219.973</ele>
        <time>2020-02-08T08:34:45.571Z</time>
      </trkpt>
      <trkpt lat="39.00144833" lon="-0.379495">
        <ele>219.973</ele>
        <time>2020-02-08T08:34:46.571Z</time>
      </trkpt>
      <trkpt lat="39.00142667" lon="-0.37952833">
        <ele>219.973</ele>
        <time>2020-02-08T08:34:47.571Z</time>
      </trkpt>
      <trkpt lat="39.00142667" lon="-0.37952833">
        <ele>219.973</ele>
        <time>2020-02-08T08:34:48.571Z</time>
      </trkpt>
      <trkpt lat="39.001405" lon="-0.37956167">
        <ele>219.973</ele>
        <time>2020-02-08T08:34:49.571Z</time>
      </trkpt>
      <trkpt lat="39.001405" lon="-0.37956167">
        <ele>219.973</ele>
        <time>2020-02-08T08:34:50.571Z</time>
      </trkpt>
      <trkpt lat="39.00138" lon="-0.37960167">
        <ele>219.973</ele>
        <time>2020-02-08T08:34:51.571Z</time>
      </trkpt>
      <trkpt lat="39.00138" lon="-0.37960167">
        <ele>221.973</ele>
        <time>2020-02-08T08:34:52.571Z</time>
      </trkpt>
      <trkpt lat="39.00135667" lon="-0.37967">
        <ele>221.973</ele>
        <time>2020-02-08T08:34:53.571Z</time>
      </trkpt>
      <trkpt lat="39.00133667" lon="-0.37970167">
        <ele>222.973</ele>
        <time>2020-02-08T08:34:54.571Z</time>
      </trkpt>
      <trkpt lat="39.00132333" lon="-0.37973">
        <ele>222.973</ele>
        <time>2020-02-08T08:34:55.571Z</time>
      </trkpt>
      <trkpt lat="39.00132333" lon="-0.37973">
        <ele>222.973</ele>
        <time>2020-02-08T08:34:56.571Z</time>
      </trkpt>
      <trkpt lat="39.00129" lon="-0.37980833">
        <ele>222.973</ele>
        <time>2020-02-08T08:34:57.571Z</time>
      </trkpt>
      <trkpt lat="39.00129" lon="-0.37980833">
        <ele>223.973</ele>
        <time>2020-02-08T08:34:58.571Z</time>
      </trkpt>
      <trkpt lat="39.00127" lon="-0.37986833">
        <ele>223.973</ele>
        <time>2020-02-08T08:34:59.571Z</time>
      </trkpt>
      <trkpt lat="39.00126833" lon="-0.379895">
        <ele>223.973</ele>
        <time>2020-02-08T08:35:00.571Z</time>
      </trkpt>
      <trkpt lat="39.001265" lon="-0.37991667">
        <ele>223.973</ele>
        <time>2020-02-08T08:35:01.571Z</time>
      </trkpt>
      <trkpt lat="39.001265" lon="-0.37991667">
        <ele>224.973</ele>
        <time>2020-02-08T08:35:02.571Z</time>
      </trkpt>
      <trkpt lat="39.00126167" lon="-0.37995167">
        <ele>224.973</ele>
        <time>2020-02-08T08:35:03.571Z</time>
      </trkpt>
      <trkpt lat="39.00126167" lon="-0.37995167">
        <ele>224.973</ele>
        <time>2020-02-08T08:35:04.571Z</time>
      </trkpt>
      <trkpt lat="39.00125667" lon="-0.37997333">
        <ele>224.973</ele>
        <time>2020-02-08T08:35:05.571Z</time>
      </trkpt>
      <trkpt lat="39.00125667" lon="-0.37997333">
        <ele>224.973</ele>
        <time>2020-02-08T08:35:06.571Z</time>
      </trkpt>
      <trkpt lat="39.00125" lon="-0.37999667">
        <ele>224.973</ele>
        <time>2020-02-08T08:35:07.571Z</time>
      </trkpt>
      <trkpt lat="39.00125" lon="-0.37999667">
        <ele>224.973</ele>
        <time>2020-02-08T08:35:08.571Z</time>
      </trkpt>
      <trkpt lat="39.00124" lon="-0.38001833">
        <ele>225.973</ele>
        <time>2020-02-08T08:35:09.571Z</time>
      </trkpt>
      <trkpt lat="39.00124" lon="-0.38001833">
        <ele>225.973</ele>
        <time>2020-02-08T08:35:10.571Z</time>
      </trkpt>
      <trkpt lat="39.00122167" lon="-0.38004833">
        <ele>225.973</ele>
        <time>2020-02-08T08:35:11.571Z</time>
      </trkpt>
      <trkpt lat="39.00121167" lon="-0.38006833">
        <ele>225.973</ele>
        <time>2020-02-08T08:35:12.571Z</time>
      </trkpt>
      <trkpt lat="39.00119667" lon="-0.38008">
        <ele>225.973</ele>
        <time>2020-02-08T08:35:13.571Z</time>
      </trkpt>
      <trkpt lat="39.00119667" lon="-0.38008">
        <ele>225.973</ele>
        <time>2020-02-08T08:35:14.571Z</time>
      </trkpt>
      <trkpt lat="39.00117" lon="-0.38010833">
        <ele>225.973</ele>
        <time>2020-02-08T08:35:15.571Z</time>
      </trkpt>
      <trkpt lat="39.00117" lon="-0.38010833">
        <ele>225.973</ele>
        <time>2020-02-08T08:35:16.571Z</time>
      </trkpt>
      <trkpt lat="39.00115333" lon="-0.38012833">
        <ele>226.973</ele>
        <time>2020-02-08T08:35:17.571Z</time>
      </trkpt>
      <trkpt lat="39.00113833" lon="-0.38013667">
        <ele>226.973</ele>
        <time>2020-02-08T08:35:18.571Z</time>
      </trkpt>
      <trkpt lat="39.00112667" lon="-0.38015333">
        <ele>226.973</ele>
        <time>2020-02-08T08:35:19.571Z</time>
      </trkpt>
      <trkpt lat="39.00112667" lon="-0.38015333">
        <ele>226.973</ele>
        <time>2020-02-08T08:35:20.571Z</time>
      </trkpt>
      <trkpt lat="39.00112167" lon="-0.38021833">
        <ele>227.973</ele>
        <time>2020-02-08T08:35:21.571Z</time>
      </trkpt>
      <trkpt lat="39.00111833" lon="-0.380245">
        <ele>227.973</ele>
        <time>2020-02-08T08:35:22.571Z</time>
      </trkpt>
      <trkpt lat="39.00111833" lon="-0.380245">
        <ele>227.973</ele>
        <time>2020-02-08T08:35:23.571Z</time>
      </trkpt>
      <trkpt lat="39.00110333" lon="-0.38029333">
        <ele>227.973</ele>
        <time>2020-02-08T08:35:24.571Z</time>
      </trkpt>
      <trkpt lat="39.00109333" lon="-0.38031667">
        <ele>227.973</ele>
        <time>2020-02-08T08:35:25.571Z</time>
      </trkpt>
      <trkpt lat="39.00109333" lon="-0.38031667">
        <ele>227.973</ele>
        <time>2020-02-08T08:35:26.571Z</time>
      </trkpt>
      <trkpt lat="39.00106333" lon="-0.38035667">
        <ele>228.973</ele>
        <time>2020-02-08T08:35:27.571Z</time>
      </trkpt>
      <trkpt lat="39.00106333" lon="-0.38035667">
        <ele>228.973</ele>
        <time>2020-02-08T08:35:28.571Z</time>
      </trkpt>
      <trkpt lat="39.00103667" lon="-0.38040667">
        <ele>228.973</ele>
        <time>2020-02-08T08:35:29.571Z</time>
      </trkpt>
      <trkpt lat="39.00103667" lon="-0.38040667">
        <ele>228.973</ele>
        <time>2020-02-08T08:35:30.571Z</time>
      </trkpt>
      <trkpt lat="39.00103167" lon="-0.38042667">
        <ele>229.973</ele>
        <time>2020-02-08T08:35:31.571Z</time>
      </trkpt>
      <trkpt lat="39.00103167" lon="-0.38042667">
        <ele>229.973</ele>
        <time>2020-02-08T08:35:32.571Z</time>
      </trkpt>
      <trkpt lat="39.00101667" lon="-0.380455">
        <ele>229.973</ele>
        <time>2020-02-08T08:35:33.571Z</time>
      </trkpt>
      <trkpt lat="39.00101667" lon="-0.380455">
        <ele>229.973</ele>
        <time>2020-02-08T08:35:34.571Z</time>
      </trkpt>
      <trkpt lat="39.00098333" lon="-0.380505">
        <ele>229.973</ele>
        <time>2020-02-08T08:35:35.571Z</time>
      </trkpt>
      <trkpt lat="39.00098333" lon="-0.380505">
        <ele>229.973</ele>
        <time>2020-02-08T08:35:36.571Z</time>
      </trkpt>
      <trkpt lat="39.00097833" lon="-0.38056">
        <ele>229.973</ele>
        <time>2020-02-08T08:35:37.571Z</time>
      </trkpt>
      <trkpt lat="39.00097833" lon="-0.38056">
        <ele>229.973</ele>
        <time>2020-02-08T08:35:38.571Z</time>
      </trkpt>
      <trkpt lat="39.00098333" lon="-0.38061833">
        <ele>229.973</ele>
        <time>2020-02-08T08:35:39.571Z</time>
      </trkpt>
      <trkpt lat="39.00098333" lon="-0.38061833">
        <ele>229.973</ele>
        <time>2020-02-08T08:35:40.571Z</time>
      </trkpt>
      <trkpt lat="39.00096167" lon="-0.38067167">
        <ele>229.973</ele>
        <time>2020-02-08T08:35:41.571Z</time>
      </trkpt>
      <trkpt lat="39.00096167" lon="-0.38067167">
        <ele>229.973</ele>
        <time>2020-02-08T08:35:42.571Z</time>
      </trkpt>
      <trkpt lat="39.00092" lon="-0.38073167">
        <ele>229.973</ele>
        <time>2020-02-08T08:35:43.571Z</time>
      </trkpt>
      <trkpt lat="39.00092" lon="-0.38073167">
        <ele>231.973</ele>
        <time>2020-02-08T08:35:44.571Z</time>
      </trkpt>
      <trkpt lat="39.000895" lon="-0.38079833">
        <ele>231.973</ele>
        <time>2020-02-08T08:35:45.571Z</time>
      </trkpt>
      <trkpt lat="39.000895" lon="-0.38079833">
        <ele>231.973</ele>
        <time>2020-02-08T08:35:46.571Z</time>
      </trkpt>
      <trkpt lat="39.00088333" lon="-0.38086">
        <ele>231.973</ele>
        <time>2020-02-08T08:35:47.571Z</time>
      </trkpt>
      <trkpt lat="39.00088333" lon="-0.38086">
        <ele>232.973</ele>
        <time>2020-02-08T08:35:48.571Z</time>
      </trkpt>
      <trkpt lat="39.00088333" lon="-0.38093667">
        <ele>232.973</ele>
        <time>2020-02-08T08:35:49.571Z</time>
      </trkpt>
      <trkpt lat="39.00088333" lon="-0.38093667">
        <ele>232.973</ele>
        <time>2020-02-08T08:35:50.571Z</time>
      </trkpt>
      <trkpt lat="39.00087167" lon="-0.38103">
        <ele>232.973</ele>
        <time>2020-02-08T08:35:51.571Z</time>
      </trkpt>
      <trkpt lat="39.00085833" lon="-0.38108">
        <ele>233.973</ele>
        <time>2020-02-08T08:35:52.571Z</time>
      </trkpt>
      <trkpt lat="39.00084167" lon="-0.38112167">
        <ele>233.973</ele>
        <time>2020-02-08T08:35:53.571Z</time>
      </trkpt>
      <trkpt lat="39.00084167" lon="-0.38112167">
        <ele>233.973</ele>
        <time>2020-02-08T08:35:54.571Z</time>
      </trkpt>
      <trkpt lat="39.00081" lon="-0.381195">
        <ele>233.973</ele>
        <time>2020-02-08T08:35:55.571Z</time>
      </trkpt>
      <trkpt lat="39.00081" lon="-0.381195">
        <ele>234.973</ele>
        <time>2020-02-08T08:35:56.571Z</time>
      </trkpt>
      <trkpt lat="39.00077667" lon="-0.38126333">
        <ele>234.973</ele>
        <time>2020-02-08T08:35:57.571Z</time>
      </trkpt>
      <trkpt lat="39.00077667" lon="-0.38126333">
        <ele>234.973</ele>
        <time>2020-02-08T08:35:58.571Z</time>
      </trkpt>
      <trkpt lat="39.00076667" lon="-0.381335">
        <ele>234.973</ele>
        <time>2020-02-08T08:35:59.571Z</time>
      </trkpt>
      <trkpt lat="39.000745" lon="-0.38138167">
        <ele>235.973</ele>
        <time>2020-02-08T08:36:00.571Z</time>
      </trkpt>
      <trkpt lat="39.00073167" lon="-0.38141333">
        <ele>235.973</ele>
        <time>2020-02-08T08:36:01.571Z</time>
      </trkpt>
      <trkpt lat="39.00073167" lon="-0.38141333">
        <ele>236.973</ele>
        <time>2020-02-08T08:36:02.571Z</time>
      </trkpt>
      <trkpt lat="39.00071" lon="-0.38149667">
        <ele>236.973</ele>
        <time>2020-02-08T08:36:03.571Z</time>
      </trkpt>
      <trkpt lat="39.00071" lon="-0.38149667">
        <ele>236.973</ele>
        <time>2020-02-08T08:36:04.571Z</time>
      </trkpt>
      <trkpt lat="39.00068" lon="-0.38157333">
        <ele>236.973</ele>
        <time>2020-02-08T08:36:05.571Z</time>
      </trkpt>
      <trkpt lat="39.00068" lon="-0.38157333">
        <ele>236.973</ele>
        <time>2020-02-08T08:36:06.571Z</time>
      </trkpt>
      <trkpt lat="39.00065333" lon="-0.38163833">
        <ele>237.973</ele>
        <time>2020-02-08T08:36:07.571Z</time>
      </trkpt>
      <trkpt lat="39.00064333" lon="-0.38166833">
        <ele>237.973</ele>
        <time>2020-02-08T08:36:08.571Z</time>
      </trkpt>
      <trkpt lat="39.00064333" lon="-0.38166833">
        <ele>237.973</ele>
        <time>2020-02-08T08:36:09.571Z</time>
      </trkpt>
      <trkpt lat="39.00060667" lon="-0.38172167">
        <ele>237.973</ele>
        <time>2020-02-08T08:36:10.571Z</time>
      </trkpt>
      <trkpt lat="39.000585" lon="-0.38174833">
        <ele>238.973</ele>
        <time>2020-02-08T08:36:11.571Z</time>
      </trkpt>
      <trkpt lat="39.000585" lon="-0.38174833">
        <ele>238.973</ele>
        <time>2020-02-08T08:36:12.571Z</time>
      </trkpt>
      <trkpt lat="39.000545" lon="-0.38179333">
        <ele>238.973</ele>
        <time>2020-02-08T08:36:13.571Z</time>
      </trkpt>
      <trkpt lat="39.000545" lon="-0.38179333">
        <ele>238.973</ele>
        <time>2020-02-08T08:36:14.571Z</time>
      </trkpt>
      <trkpt lat="39.000495" lon="-0.38183167">
        <ele>239.973</ele>
        <time>2020-02-08T08:36:15.571Z</time>
      </trkpt>
      <trkpt lat="39.000495" lon="-0.38183167">
        <ele>239.973</ele>
        <time>2020-02-08T08:36:16.571Z</time>
      </trkpt>
      <trkpt lat="39.00043833" lon="-0.38185333">
        <ele>239.973</ele>
        <time>2020-02-08T08:36:17.571Z</time>
      </trkpt>
      <trkpt lat="39.00043833" lon="-0.38185333">
        <ele>239.973</ele>
        <time>2020-02-08T08:36:18.571Z</time>
      </trkpt>
      <trkpt lat="39.00038667" lon="-0.38188333">
        <ele>239.973</ele>
        <time>2020-02-08T08:36:19.571Z</time>
      </trkpt>
      <trkpt lat="39.00038667" lon="-0.38188333">
        <ele>239.973</ele>
        <time>2020-02-08T08:36:20.571Z</time>
      </trkpt>
      <trkpt lat="39.000315" lon="-0.38192833">
        <ele>240.973</ele>
        <time>2020-02-08T08:36:21.571Z</time>
      </trkpt>
      <trkpt lat="39.00027833" lon="-0.38196">
        <ele>240.973</ele>
        <time>2020-02-08T08:36:22.571Z</time>
      </trkpt>
      <trkpt lat="39.00027833" lon="-0.38196">
        <ele>240.973</ele>
        <time>2020-02-08T08:36:23.571Z</time>
      </trkpt>
      <trkpt lat="39.00022" lon="-0.38203167">
        <ele>240.973</ele>
        <time>2020-02-08T08:36:24.571Z</time>
      </trkpt>
      <trkpt lat="39.000195" lon="-0.38206833">
        <ele>240.973</ele>
        <time>2020-02-08T08:36:25.571Z</time>
      </trkpt>
      <trkpt lat="39.000195" lon="-0.38206833">
        <ele>240.973</ele>
        <time>2020-02-08T08:36:26.571Z</time>
      </trkpt>
      <trkpt lat="39.000145" lon="-0.38214">
        <ele>240.973</ele>
        <time>2020-02-08T08:36:27.571Z</time>
      </trkpt>
      <trkpt lat="39.000145" lon="-0.38214">
        <ele>240.973</ele>
        <time>2020-02-08T08:36:28.571Z</time>
      </trkpt>
      <trkpt lat="39.00008167" lon="-0.38220667">
        <ele>240.973</ele>
        <time>2020-02-08T08:36:29.571Z</time>
      </trkpt>
      <trkpt lat="39.00008167" lon="-0.38220667">
        <ele>240.973</ele>
        <time>2020-02-08T08:36:30.571Z</time>
      </trkpt>
      <trkpt lat="39.00001333" lon="-0.38226667">
        <ele>240.973</ele>
        <time>2020-02-08T08:36:31.571Z</time>
      </trkpt>
      <trkpt lat="39.00001333" lon="-0.38226667">
        <ele>240.973</ele>
        <time>2020-02-08T08:36:32.571Z</time>
      </trkpt>
      <trkpt lat="38.99997167" lon="-0.38234667">
        <ele>240.973</ele>
        <time>2020-02-08T08:36:33.571Z</time>
      </trkpt>
      <trkpt lat="38.99996167" lon="-0.38239167">
        <ele>240.973</ele>
        <time>2020-02-08T08:36:34.571Z</time>
      </trkpt>
      <trkpt lat="38.99996167" lon="-0.38239167">
        <ele>239.973</ele>
        <time>2020-02-08T08:36:35.571Z</time>
      </trkpt>
      <trkpt lat="38.99996667" lon="-0.382485">
        <ele>239.973</ele>
        <time>2020-02-08T08:36:36.571Z</time>
      </trkpt>
      <trkpt lat="38.99996167" lon="-0.38254167">
        <ele>239.973</ele>
        <time>2020-02-08T08:36:37.571Z</time>
      </trkpt>
      <trkpt lat="38.99996167" lon="-0.38254167">
        <ele>239.973</ele>
        <time>2020-02-08T08:36:38.571Z</time>
      </trkpt>
      <trkpt lat="38.999945" lon="-0.38267167">
        <ele>238.973</ele>
        <time>2020-02-08T08:36:39.571Z</time>
      </trkpt>
      <trkpt lat="38.999945" lon="-0.38267167">
        <ele>238.973</ele>
        <time>2020-02-08T08:36:40.571Z</time>
      </trkpt>
      <trkpt lat="38.99991667" lon="-0.382795">
        <ele>238.973</ele>
        <time>2020-02-08T08:36:41.571Z</time>
      </trkpt>
      <trkpt lat="38.99990333" lon="-0.38286">
        <ele>238.973</ele>
        <time>2020-02-08T08:36:42.571Z</time>
      </trkpt>
      <trkpt lat="38.99990333" lon="-0.38286">
        <ele>237.973</ele>
        <time>2020-02-08T08:36:43.571Z</time>
      </trkpt>
      <trkpt lat="38.99987667" lon="-0.38298">
        <ele>237.973</ele>
        <time>2020-02-08T08:36:44.571Z</time>
      </trkpt>
      <trkpt lat="38.99987333" lon="-0.38303667">
        <ele>237.973</ele>
        <time>2020-02-08T08:36:45.571Z</time>
      </trkpt>
      <trkpt lat="38.99987333" lon="-0.38303667">
        <ele>237.973</ele>
        <time>2020-02-08T08:36:46.571Z</time>
      </trkpt>
      <trkpt lat="38.99988167" lon="-0.38314333">
        <ele>237.973</ele>
        <time>2020-02-08T08:36:47.571Z</time>
      </trkpt>
      <trkpt lat="38.99988833" lon="-0.38319333">
        <ele>237.973</ele>
        <time>2020-02-08T08:36:48.571Z</time>
      </trkpt>
      <trkpt lat="38.99988833" lon="-0.38319333">
        <ele>237.973</ele>
        <time>2020-02-08T08:36:49.571Z</time>
      </trkpt>
      <trkpt lat="38.99990667" lon="-0.38327667">
        <ele>237.973</ele>
        <time>2020-02-08T08:36:50.571Z</time>
      </trkpt>
      <trkpt lat="38.99991833" lon="-0.38331833">
        <ele>237.973</ele>
        <time>2020-02-08T08:36:51.571Z</time>
      </trkpt>
      <trkpt lat="38.99991833" lon="-0.38331833">
        <ele>237.973</ele>
        <time>2020-02-08T08:36:52.571Z</time>
      </trkpt>
      <trkpt lat="38.99993833" lon="-0.38339333">
        <ele>238.973</ele>
        <time>2020-02-08T08:36:53.571Z</time>
      </trkpt>
      <trkpt lat="38.99993833" lon="-0.38339333">
        <ele>238.973</ele>
        <time>2020-02-08T08:36:54.571Z</time>
      </trkpt>
      <trkpt lat="38.99993" lon="-0.38349">
        <ele>238.973</ele>
        <time>2020-02-08T08:36:55.571Z</time>
      </trkpt>
      <trkpt lat="38.99991833" lon="-0.38355">
        <ele>238.973</ele>
        <time>2020-02-08T08:36:56.571Z</time>
      </trkpt>
      <trkpt lat="38.99990667" lon="-0.38361">
        <ele>238.973</ele>
        <time>2020-02-08T08:36:57.571Z</time>
      </trkpt>
      <trkpt lat="38.99990667" lon="-0.38361">
        <ele>238.973</ele>
        <time>2020-02-08T08:36:58.571Z</time>
      </trkpt>
      <trkpt lat="38.999885" lon="-0.38373333">
        <ele>239.973</ele>
        <time>2020-02-08T08:36:59.571Z</time>
      </trkpt>
      <trkpt lat="38.999885" lon="-0.38373333">
        <ele>239.973</ele>
        <time>2020-02-08T08:37:00.571Z</time>
      </trkpt>
      <trkpt lat="38.99986333" lon="-0.383855">
        <ele>239.973</ele>
        <time>2020-02-08T08:37:01.571Z</time>
      </trkpt>
      <trkpt lat="38.99986333" lon="-0.383855">
        <ele>239.973</ele>
        <time>2020-02-08T08:37:02.571Z</time>
      </trkpt>
      <trkpt lat="38.999875" lon="-0.38397667">
        <ele>239.973</ele>
        <time>2020-02-08T08:37:03.571Z</time>
      </trkpt>
      <trkpt lat="38.99988667" lon="-0.38403833">
        <ele>239.973</ele>
        <time>2020-02-08T08:37:04.571Z</time>
      </trkpt>
      <trkpt lat="38.99988667" lon="-0.38403833">
        <ele>239.973</ele>
        <time>2020-02-08T08:37:05.571Z</time>
      </trkpt>
      <trkpt lat="38.99990167" lon="-0.38416167">
        <ele>239.973</ele>
        <time>2020-02-08T08:37:06.571Z</time>
      </trkpt>
      <trkpt lat="38.99991" lon="-0.38422167">
        <ele>239.973</ele>
        <time>2020-02-08T08:37:07.571Z</time>
      </trkpt>
      <trkpt lat="38.99991" lon="-0.38422167">
        <ele>239.973</ele>
        <time>2020-02-08T08:37:08.571Z</time>
      </trkpt>
      <trkpt lat="38.99995167" lon="-0.38433">
        <ele>241.973</ele>
        <time>2020-02-08T08:37:09.571Z</time>
      </trkpt>
      <trkpt lat="38.99996667" lon="-0.38437833">
        <ele>241.973</ele>
        <time>2020-02-08T08:37:10.571Z</time>
      </trkpt>
      <trkpt lat="38.99996667" lon="-0.38437833">
        <ele>241.973</ele>
        <time>2020-02-08T08:37:11.571Z</time>
      </trkpt>
      <trkpt lat="38.99999167" lon="-0.38448333">
        <ele>241.973</ele>
        <time>2020-02-08T08:37:12.571Z</time>
      </trkpt>
      <trkpt lat="38.999995" lon="-0.38453667">
        <ele>241.973</ele>
        <time>2020-02-08T08:37:13.571Z</time>
      </trkpt>
      <trkpt lat="38.999995" lon="-0.38453667">
        <ele>241.973</ele>
        <time>2020-02-08T08:37:14.571Z</time>
      </trkpt>
      <trkpt lat="38.99999" lon="-0.38465333">
        <ele>241.973</ele>
        <time>2020-02-08T08:37:15.571Z</time>
      </trkpt>
      <trkpt lat="38.99999" lon="-0.38465333">
        <ele>241.973</ele>
        <time>2020-02-08T08:37:16.571Z</time>
      </trkpt>
      <trkpt lat="38.999975" lon="-0.38478667">
        <ele>241.973</ele>
        <time>2020-02-08T08:37:17.571Z</time>
      </trkpt>
      <trkpt lat="38.99995833" lon="-0.38484833">
        <ele>241.973</ele>
        <time>2020-02-08T08:37:18.571Z</time>
      </trkpt>
      <trkpt lat="38.99995833" lon="-0.38484833">
        <ele>240.973</ele>
        <time>2020-02-08T08:37:19.571Z</time>
      </trkpt>
      <trkpt lat="38.99991667" lon="-0.38496333">
        <ele>240.973</ele>
        <time>2020-02-08T08:37:20.571Z</time>
      </trkpt>
      <trkpt lat="38.999895" lon="-0.38501333">
        <ele>240.973</ele>
        <time>2020-02-08T08:37:21.571Z</time>
      </trkpt>
      <trkpt lat="38.999895" lon="-0.38501333">
        <ele>240.973</ele>
        <time>2020-02-08T08:37:22.571Z</time>
      </trkpt>
      <trkpt lat="38.99982833" lon="-0.38508833">
        <ele>239.973</ele>
        <time>2020-02-08T08:37:23.571Z</time>
      </trkpt>
      <trkpt lat="38.99982833" lon="-0.38508833">
        <ele>239.973</ele>
        <time>2020-02-08T08:37:24.571Z</time>
      </trkpt>
      <trkpt lat="38.999745" lon="-0.38513833">
        <ele>239.973</ele>
        <time>2020-02-08T08:37:25.571Z</time>
      </trkpt>
      <trkpt lat="38.999745" lon="-0.38513833">
        <ele>239.973</ele>
        <time>2020-02-08T08:37:26.571Z</time>
      </trkpt>
      <trkpt lat="38.99966167" lon="-0.38515667">
        <ele>238.973</ele>
        <time>2020-02-08T08:37:27.571Z</time>
      </trkpt>
      <trkpt lat="38.99966167" lon="-0.38515667">
        <ele>238.973</ele>
        <time>2020-02-08T08:37:28.571Z</time>
      </trkpt>
      <trkpt lat="38.99958667" lon="-0.385145">
        <ele>236.973</ele>
        <time>2020-02-08T08:37:29.571Z</time>
      </trkpt>
      <trkpt lat="38.99956" lon="-0.38513667">
        <ele>235.973</ele>
        <time>2020-02-08T08:37:30.571Z</time>
      </trkpt>
      <trkpt lat="38.99956" lon="-0.38513667">
        <ele>235.973</ele>
        <time>2020-02-08T08:37:31.571Z</time>
      </trkpt>
      <trkpt lat="38.99951333" lon="-0.38512333">
        <ele>234.973</ele>
        <time>2020-02-08T08:37:32.571Z</time>
      </trkpt>
      <trkpt lat="38.999485" lon="-0.38512">
        <ele>234.973</ele>
        <time>2020-02-08T08:37:33.571Z</time>
      </trkpt>
      <trkpt lat="38.999485" lon="-0.38512">
        <ele>234.973</ele>
        <time>2020-02-08T08:37:34.571Z</time>
      </trkpt>
      <trkpt lat="38.999445" lon="-0.38515">
        <ele>234.973</ele>
        <time>2020-02-08T08:37:35.571Z</time>
      </trkpt>
      <trkpt lat="38.99943333" lon="-0.38517667">
        <ele>234.973</ele>
        <time>2020-02-08T08:37:36.571Z</time>
      </trkpt>
      <trkpt lat="38.99943333" lon="-0.38517667">
        <ele>233.973</ele>
        <time>2020-02-08T08:37:37.571Z</time>
      </trkpt>
      <trkpt lat="38.99944667" lon="-0.38523333">
        <ele>233.973</ele>
        <time>2020-02-08T08:37:38.571Z</time>
      </trkpt>
      <trkpt lat="38.99944667" lon="-0.38523333">
        <ele>233.973</ele>
        <time>2020-02-08T08:37:39.571Z</time>
      </trkpt>
      <trkpt lat="38.99948667" lon="-0.38527167">
        <ele>233.973</ele>
        <time>2020-02-08T08:37:40.571Z</time>
      </trkpt>
      <trkpt lat="38.99948667" lon="-0.38527167">
        <ele>233.973</ele>
        <time>2020-02-08T08:37:41.571Z</time>
      </trkpt>
      <trkpt lat="38.99953" lon="-0.38529667">
        <ele>233.973</ele>
        <time>2020-02-08T08:37:42.571Z</time>
      </trkpt>
      <trkpt lat="38.99953" lon="-0.38529667">
        <ele>233.973</ele>
        <time>2020-02-08T08:37:43.571Z</time>
      </trkpt>
      <trkpt lat="38.99956667" lon="-0.38533">
        <ele>233.973</ele>
        <time>2020-02-08T08:37:44.571Z</time>
      </trkpt>
      <trkpt lat="38.99958333" lon="-0.385345">
        <ele>233.973</ele>
        <time>2020-02-08T08:37:45.571Z</time>
      </trkpt>
      <trkpt lat="38.99958333" lon="-0.385345">
        <ele>233.973</ele>
        <time>2020-02-08T08:37:46.571Z</time>
      </trkpt>
      <trkpt lat="38.99962167" lon="-0.38537167">
        <ele>233.973</ele>
        <time>2020-02-08T08:37:47.571Z</time>
      </trkpt>
      <trkpt lat="38.99964333" lon="-0.38538667">
        <ele>233.973</ele>
        <time>2020-02-08T08:37:48.571Z</time>
      </trkpt>
      <trkpt lat="38.99964333" lon="-0.38538667">
        <ele>233.973</ele>
        <time>2020-02-08T08:37:49.571Z</time>
      </trkpt>
      <trkpt lat="38.999675" lon="-0.38543333">
        <ele>234.973</ele>
        <time>2020-02-08T08:37:50.571Z</time>
      </trkpt>
      <trkpt lat="38.99969333" lon="-0.38545">
        <ele>234.973</ele>
        <time>2020-02-08T08:37:51.571Z</time>
      </trkpt>
      <trkpt lat="38.99969333" lon="-0.38545">
        <ele>235.973</ele>
        <time>2020-02-08T08:37:52.571Z</time>
      </trkpt>
      <trkpt lat="38.99973667" lon="-0.38548833">
        <ele>235.973</ele>
        <time>2020-02-08T08:37:53.571Z</time>
      </trkpt>
      <trkpt lat="38.99976833" lon="-0.38551">
        <ele>235.973</ele>
        <time>2020-02-08T08:37:54.571Z</time>
      </trkpt>
      <trkpt lat="38.9998" lon="-0.38553333">
        <ele>235.973</ele>
        <time>2020-02-08T08:37:55.571Z</time>
      </trkpt>
      <trkpt lat="38.9998" lon="-0.38553333">
        <ele>236.973</ele>
        <time>2020-02-08T08:37:56.571Z</time>
      </trkpt>
      <trkpt lat="38.99986333" lon="-0.38557667">
        <ele>236.973</ele>
        <time>2020-02-08T08:37:57.571Z</time>
      </trkpt>
      <trkpt lat="38.99986333" lon="-0.38557667">
        <ele>236.973</ele>
        <time>2020-02-08T08:37:58.571Z</time>
      </trkpt>
      <trkpt lat="38.999925" lon="-0.38559833">
        <ele>236.973</ele>
        <time>2020-02-08T08:37:59.571Z</time>
      </trkpt>
      <trkpt lat="38.99996" lon="-0.38561333">
        <ele>236.973</ele>
        <time>2020-02-08T08:38:00.571Z</time>
      </trkpt>
      <trkpt lat="38.99999" lon="-0.38561833">
        <ele>237.973</ele>
        <time>2020-02-08T08:38:01.571Z</time>
      </trkpt>
      <trkpt lat="38.99999" lon="-0.38561833">
        <ele>237.973</ele>
        <time>2020-02-08T08:38:02.571Z</time>
      </trkpt>
      <trkpt lat="39.00005" lon="-0.38564333">
        <ele>237.973</ele>
        <time>2020-02-08T08:38:03.571Z</time>
      </trkpt>
      <trkpt lat="39.00008167" lon="-0.38565833">
        <ele>237.973</ele>
        <time>2020-02-08T08:38:04.571Z</time>
      </trkpt>
      <trkpt lat="39.00008167" lon="-0.38565833">
        <ele>238.973</ele>
        <time>2020-02-08T08:38:05.571Z</time>
      </trkpt>
      <trkpt lat="39.00014833" lon="-0.38567">
        <ele>238.973</ele>
        <time>2020-02-08T08:38:06.571Z</time>
      </trkpt>
      <trkpt lat="39.000185" lon="-0.38568167">
        <ele>238.973</ele>
        <time>2020-02-08T08:38:07.571Z</time>
      </trkpt>
      <trkpt lat="39.000185" lon="-0.38568167">
        <ele>238.973</ele>
        <time>2020-02-08T08:38:08.571Z</time>
      </trkpt>
      <trkpt lat="39.00025" lon="-0.3857">
        <ele>238.973</ele>
        <time>2020-02-08T08:38:09.571Z</time>
      </trkpt>
      <trkpt lat="39.00025" lon="-0.3857">
        <ele>238.973</ele>
        <time>2020-02-08T08:38:10.571Z</time>
      </trkpt>
      <trkpt lat="39.000315" lon="-0.38572333">
        <ele>238.973</ele>
        <time>2020-02-08T08:38:11.571Z</time>
      </trkpt>
      <trkpt lat="39.000315" lon="-0.38572333">
        <ele>238.973</ele>
        <time>2020-02-08T08:38:12.571Z</time>
      </trkpt>
      <trkpt lat="39.00036667" lon="-0.38576333">
        <ele>238.973</ele>
        <time>2020-02-08T08:38:13.571Z</time>
      </trkpt>
      <trkpt lat="39.00036667" lon="-0.38576333">
        <ele>238.973</ele>
        <time>2020-02-08T08:38:14.571Z</time>
      </trkpt>
      <trkpt lat="39.00040667" lon="-0.385835">
        <ele>238.973</ele>
        <time>2020-02-08T08:38:15.571Z</time>
      </trkpt>
      <trkpt lat="39.00041833" lon="-0.38587833">
        <ele>238.973</ele>
        <time>2020-02-08T08:38:16.571Z</time>
      </trkpt>
      <trkpt lat="39.00041833" lon="-0.38587833">
        <ele>239.973</ele>
        <time>2020-02-08T08:38:17.571Z</time>
      </trkpt>
      <trkpt lat="39.00043167" lon="-0.385965">
        <ele>239.973</ele>
        <time>2020-02-08T08:38:18.571Z</time>
      </trkpt>
      <trkpt lat="39.00043167" lon="-0.385965">
        <ele>239.973</ele>
        <time>2020-02-08T08:38:19.571Z</time>
      </trkpt>
      <trkpt lat="39.000445" lon="-0.38603">
        <ele>239.973</ele>
        <time>2020-02-08T08:38:20.571Z</time>
      </trkpt>
      <trkpt lat="39.00045167" lon="-0.38606667">
        <ele>239.973</ele>
        <time>2020-02-08T08:38:21.571Z</time>
      </trkpt>
      <trkpt lat="39.00045167" lon="-0.38606667">
        <ele>239.973</ele>
        <time>2020-02-08T08:38:22.571Z</time>
      </trkpt>
      <trkpt lat="39.00045" lon="-0.38614167">
        <ele>239.973</ele>
        <time>2020-02-08T08:38:23.571Z</time>
      </trkpt>
      <trkpt lat="39.00045" lon="-0.38614167">
        <ele>239.973</ele>
        <time>2020-02-08T08:38:24.571Z</time>
      </trkpt>
      <trkpt lat="39.00044" lon="-0.38620833">
        <ele>240.973</ele>
        <time>2020-02-08T08:38:25.571Z</time>
      </trkpt>
      <trkpt lat="39.00043333" lon="-0.386235">
        <ele>240.973</ele>
        <time>2020-02-08T08:38:26.571Z</time>
      </trkpt>
      <trkpt lat="39.00043333" lon="-0.386235">
        <ele>240.973</ele>
        <time>2020-02-08T08:38:27.571Z</time>
      </trkpt>
      <trkpt lat="39.00043333" lon="-0.38629">
        <ele>240.973</ele>
        <time>2020-02-08T08:38:28.571Z</time>
      </trkpt>
      <trkpt lat="39.00043333" lon="-0.38629">
        <ele>240.973</ele>
        <time>2020-02-08T08:38:29.571Z</time>
      </trkpt>
      <trkpt lat="39.00041667" lon="-0.386345">
        <ele>240.973</ele>
        <time>2020-02-08T08:38:30.571Z</time>
      </trkpt>
      <trkpt lat="39.00041667" lon="-0.386345">
        <ele>240.973</ele>
        <time>2020-02-08T08:38:31.571Z</time>
      </trkpt>
      <trkpt lat="39.00041167" lon="-0.38639833">
        <ele>241.973</ele>
        <time>2020-02-08T08:38:32.571Z</time>
      </trkpt>
      <trkpt lat="39.00039833" lon="-0.38642">
        <ele>241.973</ele>
        <time>2020-02-08T08:38:33.571Z</time>
      </trkpt>
      <trkpt lat="39.00039833" lon="-0.38642">
        <ele>241.973</ele>
        <time>2020-02-08T08:38:34.571Z</time>
      </trkpt>
      <trkpt lat="39.000375" lon="-0.38646833">
        <ele>241.973</ele>
        <time>2020-02-08T08:38:35.571Z</time>
      </trkpt>
      <trkpt lat="39.00036833" lon="-0.38649833">
        <ele>241.973</ele>
        <time>2020-02-08T08:38:36.571Z</time>
      </trkpt>
      <trkpt lat="39.00036" lon="-0.38653">
        <ele>241.973</ele>
        <time>2020-02-08T08:38:37.571Z</time>
      </trkpt>
      <trkpt lat="39.00036" lon="-0.38653">
        <ele>242.973</ele>
        <time>2020-02-08T08:38:38.571Z</time>
      </trkpt>
      <trkpt lat="39.00033833" lon="-0.38658833">
        <ele>242.973</ele>
        <time>2020-02-08T08:38:39.571Z</time>
      </trkpt>
      <trkpt lat="39.00033833" lon="-0.38658833">
        <ele>242.973</ele>
        <time>2020-02-08T08:38:40.571Z</time>
      </trkpt>
      <trkpt lat="39.00032167" lon="-0.386655">
        <ele>242.973</ele>
        <time>2020-02-08T08:38:41.571Z</time>
      </trkpt>
      <trkpt lat="39.00031333" lon="-0.38668333">
        <ele>242.973</ele>
        <time>2020-02-08T08:38:42.571Z</time>
      </trkpt>
      <trkpt lat="39.00031333" lon="-0.38668333">
        <ele>242.973</ele>
        <time>2020-02-08T08:38:43.571Z</time>
      </trkpt>
      <trkpt lat="39.00030333" lon="-0.38673833">
        <ele>242.973</ele>
        <time>2020-02-08T08:38:44.571Z</time>
      </trkpt>
      <trkpt lat="39.00030333" lon="-0.38673833">
        <ele>242.973</ele>
        <time>2020-02-08T08:38:45.571Z</time>
      </trkpt>
      <trkpt lat="39.00029" lon="-0.38679">
        <ele>242.973</ele>
        <time>2020-02-08T08:38:46.571Z</time>
      </trkpt>
      <trkpt lat="39.00029" lon="-0.38679">
        <ele>242.973</ele>
        <time>2020-02-08T08:38:47.571Z</time>
      </trkpt>
      <trkpt lat="39.00028" lon="-0.38684667">
        <ele>242.973</ele>
        <time>2020-02-08T08:38:48.571Z</time>
      </trkpt>
      <trkpt lat="39.000275" lon="-0.38687333">
        <ele>242.973</ele>
        <time>2020-02-08T08:38:49.571Z</time>
      </trkpt>
      <trkpt lat="39.000275" lon="-0.38687333">
        <ele>242.973</ele>
        <time>2020-02-08T08:38:50.571Z</time>
      </trkpt>
      <trkpt lat="39.00026167" lon="-0.38692167">
        <ele>242.973</ele>
        <time>2020-02-08T08:38:51.571Z</time>
      </trkpt>
      <trkpt lat="39.000255" lon="-0.38694667">
        <ele>243.973</ele>
        <time>2020-02-08T08:38:52.571Z</time>
      </trkpt>
      <trkpt lat="39.000255" lon="-0.38694667">
        <ele>243.973</ele>
        <time>2020-02-08T08:38:53.571Z</time>
      </trkpt>
      <trkpt lat="39.00024" lon="-0.38698667">
        <ele>243.973</ele>
        <time>2020-02-08T08:38:54.571Z</time>
      </trkpt>
      <trkpt lat="39.00023" lon="-0.387005">
        <ele>243.973</ele>
        <time>2020-02-08T08:38:55.571Z</time>
      </trkpt>
      <trkpt lat="39.00022167" lon="-0.38702667">
        <ele>243.973</ele>
        <time>2020-02-08T08:38:56.571Z</time>
      </trkpt>
      <trkpt lat="39.00022167" lon="-0.38702667">
        <ele>243.973</ele>
        <time>2020-02-08T08:38:57.571Z</time>
      </trkpt>
      <trkpt lat="39.00020333" lon="-0.38707167">
        <ele>243.973</ele>
        <time>2020-02-08T08:38:58.571Z</time>
      </trkpt>
      <trkpt lat="39.00020333" lon="-0.38707167">
        <ele>243.973</ele>
        <time>2020-02-08T08:38:59.571Z</time>
      </trkpt>
      <trkpt lat="39.00017333" lon="-0.38711167">
        <ele>243.973</ele>
        <time>2020-02-08T08:39:00.571Z</time>
      </trkpt>
      <trkpt lat="39.00017667" lon="-0.38713667">
        <ele>244.973</ele>
        <time>2020-02-08T08:39:01.571Z</time>
      </trkpt>
      <trkpt lat="39.00017167" lon="-0.387155">
        <ele>244.973</ele>
        <time>2020-02-08T08:39:02.571Z</time>
      </trkpt>
      <trkpt lat="39.00017167" lon="-0.387155">
        <ele>244.973</ele>
        <time>2020-02-08T08:39:03.571Z</time>
      </trkpt>
      <trkpt lat="39.000155" lon="-0.387205">
        <ele>244.973</ele>
        <time>2020-02-08T08:39:04.571Z</time>
      </trkpt>
      <trkpt lat="39.000155" lon="-0.387205">
        <ele>245.973</ele>
        <time>2020-02-08T08:39:05.571Z</time>
      </trkpt>
      <trkpt lat="39.00015333" lon="-0.38722833">
        <ele>245.973</ele>
        <time>2020-02-08T08:39:06.571Z</time>
      </trkpt>
      <trkpt lat="39.00015333" lon="-0.38722833">
        <ele>245.973</ele>
        <time>2020-02-08T08:39:07.571Z</time>
      </trkpt>
      <trkpt lat="39.00015333" lon="-0.38724167">
        <ele>245.973</ele>
        <time>2020-02-08T08:39:08.571Z</time>
      </trkpt>
      <trkpt lat="39.00015" lon="-0.38725167">
        <ele>245.973</ele>
        <time>2020-02-08T08:39:09.571Z</time>
      </trkpt>
      <trkpt lat="39.00015" lon="-0.38725167">
        <ele>245.973</ele>
        <time>2020-02-08T08:39:10.571Z</time>
      </trkpt>
      <trkpt lat="39.00014667" lon="-0.38727167">
        <ele>245.973</ele>
        <time>2020-02-08T08:39:11.571Z</time>
      </trkpt>
      <trkpt lat="39.00014667" lon="-0.38727167">
        <ele>245.973</ele>
        <time>2020-02-08T08:39:12.571Z</time>
      </trkpt>
      <trkpt lat="39.000135" lon="-0.387285">
        <ele>246.973</ele>
        <time>2020-02-08T08:39:13.571Z</time>
      </trkpt>
      <trkpt lat="39.000135" lon="-0.387285">
        <ele>246.973</ele>
        <time>2020-02-08T08:39:14.571Z</time>
      </trkpt>
      <trkpt lat="39.00012" lon="-0.38729">
        <ele>246.973</ele>
        <time>2020-02-08T08:39:15.571Z</time>
      </trkpt>
      <trkpt lat="39.00012" lon="-0.38729">
        <ele>246.973</ele>
        <time>2020-02-08T08:39:16.571Z</time>
      </trkpt>
      <trkpt lat="39.00011833" lon="-0.38729833">
        <ele>246.973</ele>
        <time>2020-02-08T08:39:17.571Z</time>
      </trkpt>
      <trkpt lat="39.00011833" lon="-0.38729833">
        <ele>246.973</ele>
        <time>2020-02-08T08:39:18.571Z</time>
      </trkpt>
      <trkpt lat="39.00011167" lon="-0.38731167">
        <ele>246.973</ele>
        <time>2020-02-08T08:39:19.571Z</time>
      </trkpt>
      <trkpt lat="39.00011167" lon="-0.38731167">
        <ele>246.973</ele>
        <time>2020-02-08T08:39:20.571Z</time>
      </trkpt>
      <trkpt lat="39.00010667" lon="-0.38732667">
        <ele>247.973</ele>
        <time>2020-02-08T08:39:21.571Z</time>
      </trkpt>
      <trkpt lat="39.00010667" lon="-0.38733667">
        <ele>247.973</ele>
        <time>2020-02-08T08:39:22.571Z</time>
      </trkpt>
      <trkpt lat="39.00010667" lon="-0.38733667">
        <ele>247.973</ele>
        <time>2020-02-08T08:39:23.571Z</time>
      </trkpt>
      <trkpt lat="39.00010333" lon="-0.38735">
        <ele>247.973</ele>
        <time>2020-02-08T08:39:24.571Z</time>
      </trkpt>
      <trkpt lat="39.00010333" lon="-0.38735">
        <ele>247.973</ele>
        <time>2020-02-08T08:39:25.571Z</time>
      </trkpt>
      <trkpt lat="39.00010333" lon="-0.38736333">
        <ele>247.973</ele>
        <time>2020-02-08T08:39:26.571Z</time>
      </trkpt>
      <trkpt lat="39.0001" lon="-0.38737">
        <ele>247.973</ele>
        <time>2020-02-08T08:39:27.571Z</time>
      </trkpt>
      <trkpt lat="39.0001" lon="-0.38737">
        <ele>248.973</ele>
        <time>2020-02-08T08:39:28.571Z</time>
      </trkpt>
      <trkpt lat="39.00008667" lon="-0.38738">
        <ele>248.973</ele>
        <time>2020-02-08T08:39:29.571Z</time>
      </trkpt>
      <trkpt lat="39.00008667" lon="-0.38738">
        <ele>248.973</ele>
        <time>2020-02-08T08:39:30.571Z</time>
      </trkpt>
      <trkpt lat="39.00007333" lon="-0.38739833">
        <ele>248.973</ele>
        <time>2020-02-08T08:39:31.571Z</time>
      </trkpt>
      <trkpt lat="39.00007333" lon="-0.38739833">
        <ele>248.973</ele>
        <time>2020-02-08T08:39:32.571Z</time>
      </trkpt>
      <trkpt lat="39.00005833" lon="-0.3874">
        <ele>248.973</ele>
        <time>2020-02-08T08:39:33.571Z</time>
      </trkpt>
      <trkpt lat="39.00005833" lon="-0.3874">
        <ele>248.973</ele>
        <time>2020-02-08T08:39:34.571Z</time>
      </trkpt>
      <trkpt lat="39.00004333" lon="-0.387415">
        <ele>248.973</ele>
        <time>2020-02-08T08:39:35.571Z</time>
      </trkpt>
      <trkpt lat="39.00003833" lon="-0.38742833">
        <ele>248.973</ele>
        <time>2020-02-08T08:39:36.571Z</time>
      </trkpt>
      <trkpt lat="39.00003833" lon="-0.38742833">
        <ele>248.973</ele>
        <time>2020-02-08T08:39:37.571Z</time>
      </trkpt>
      <trkpt lat="39.00003833" lon="-0.387455">
        <ele>248.973</ele>
        <time>2020-02-08T08:39:38.571Z</time>
      </trkpt>
      <trkpt lat="39.000035" lon="-0.38746333">
        <ele>249.973</ele>
        <time>2020-02-08T08:39:39.571Z</time>
      </trkpt>
      <trkpt lat="39.000035" lon="-0.38746333">
        <ele>249.973</ele>
        <time>2020-02-08T08:39:40.571Z</time>
      </trkpt>
      <trkpt lat="39.00002667" lon="-0.38747333">
        <ele>249.973</ele>
        <time>2020-02-08T08:39:41.571Z</time>
      </trkpt>
      <trkpt lat="39.00002667" lon="-0.38747333">
        <ele>249.973</ele>
        <time>2020-02-08T08:39:42.571Z</time>
      </trkpt>
      <trkpt lat="39.00001833" lon="-0.38748833">
        <ele>250.973</ele>
        <time>2020-02-08T08:39:43.571Z</time>
      </trkpt>
      <trkpt lat="39.00001833" lon="-0.38748833">
        <ele>250.973</ele>
        <time>2020-02-08T08:39:44.571Z</time>
      </trkpt>
      <trkpt lat="39.00001667" lon="-0.38750167">
        <ele>250.973</ele>
        <time>2020-02-08T08:39:45.571Z</time>
      </trkpt>
      <trkpt lat="39.00001667" lon="-0.38750167">
        <ele>250.973</ele>
        <time>2020-02-08T08:39:46.571Z</time>
      </trkpt>
      <trkpt lat="39.00001333" lon="-0.38751333">
        <ele>250.973</ele>
        <time>2020-02-08T08:39:47.571Z</time>
      </trkpt>
      <trkpt lat="39.00001167" lon="-0.38752667">
        <ele>250.973</ele>
        <time>2020-02-08T08:39:48.571Z</time>
      </trkpt>
      <trkpt lat="39.00001" lon="-0.38753833">
        <ele>250.973</ele>
        <time>2020-02-08T08:39:49.571Z</time>
      </trkpt>
      <trkpt lat="39.00001" lon="-0.38753833">
        <ele>250.973</ele>
        <time>2020-02-08T08:39:50.571Z</time>
      </trkpt>
      <trkpt lat="39.00000667" lon="-0.38756833">
        <ele>251.973</ele>
        <time>2020-02-08T08:39:51.571Z</time>
      </trkpt>
      <trkpt lat="39.00000333" lon="-0.38758167">
        <ele>251.973</ele>
        <time>2020-02-08T08:39:52.571Z</time>
      </trkpt>
      <trkpt lat="39.00000333" lon="-0.38758167">
        <ele>251.973</ele>
        <time>2020-02-08T08:39:53.571Z</time>
      </trkpt>
      <trkpt lat="38.99999" lon="-0.38759667">
        <ele>251.973</ele>
        <time>2020-02-08T08:39:54.571Z</time>
      </trkpt>
      <trkpt lat="38.99998833" lon="-0.387605">
        <ele>251.973</ele>
        <time>2020-02-08T08:39:55.571Z</time>
      </trkpt>
      <trkpt lat="38.99998833" lon="-0.387605">
        <ele>251.973</ele>
        <time>2020-02-08T08:39:56.571Z</time>
      </trkpt>
      <trkpt lat="38.99998833" lon="-0.38761833">
        <ele>252.973</ele>
        <time>2020-02-08T08:39:57.571Z</time>
      </trkpt>
      <trkpt lat="38.99998833" lon="-0.38761833">
        <ele>252.973</ele>
        <time>2020-02-08T08:39:58.571Z</time>
      </trkpt>
      <trkpt lat="39.0" lon="-0.38765167">
        <ele>252.973</ele>
        <time>2020-02-08T08:39:59.571Z</time>
      </trkpt>
      <trkpt lat="39.0" lon="-0.38765167">
        <ele>253.973</ele>
        <time>2020-02-08T08:40:00.571Z</time>
      </trkpt>
      <trkpt lat="38.999995" lon="-0.387665">
        <ele>253.973</ele>
        <time>2020-02-08T08:40:01.571Z</time>
      </trkpt>
      <trkpt lat="38.999995" lon="-0.387665">
        <ele>253.973</ele>
        <time>2020-02-08T08:40:02.571Z</time>
      </trkpt>
      <trkpt lat="38.99998" lon="-0.387675">
        <ele>253.973</ele>
        <time>2020-02-08T08:40:03.571Z</time>
      </trkpt>
      <trkpt lat="38.99998" lon="-0.387675">
        <ele>253.973</ele>
        <time>2020-02-08T08:40:04.571Z</time>
      </trkpt>
      <trkpt lat="38.999975" lon="-0.38767833">
        <ele>253.973</ele>
        <time>2020-02-08T08:40:05.571Z</time>
      </trkpt>
      <trkpt lat="38.999975" lon="-0.38767833">
        <ele>253.973</ele>
        <time>2020-02-08T08:40:08.086Z</time>
      </trkpt>
      <trkpt lat="38.999985" lon="-0.38771667">
        <ele>253.973</ele>
        <time>2020-02-08T08:40:09.086Z</time>
      </trkpt>
      <trkpt lat="38.999985" lon="-0.38772333">
        <ele>253.973</ele>
        <time>2020-02-08T08:40:10.086Z</time>
      </trkpt>
      <trkpt lat="38.999985" lon="-0.38772333">
        <ele>254.973</ele>
        <time>2020-02-08T08:40:11.086Z</time>
      </trkpt>
      <trkpt lat="38.99999" lon="-0.387745">
        <ele>254.973</ele>
        <time>2020-02-08T08:40:12.086Z</time>
      </trkpt>
      <trkpt lat="38.99998667" lon="-0.387755">
        <ele>254.973</ele>
        <time>2020-02-08T08:40:13.086Z</time>
      </trkpt>
      <trkpt lat="38.99998667" lon="-0.387755">
        <ele>254.973</ele>
        <time>2020-02-08T08:40:14.086Z</time>
      </trkpt>
      <trkpt lat="38.99998667" lon="-0.38777667">
        <ele>254.973</ele>
        <time>2020-02-08T08:40:15.086Z</time>
      </trkpt>
      <trkpt lat="38.99998667" lon="-0.38777667">
        <ele>254.973</ele>
        <time>2020-02-08T08:40:16.086Z</time>
      </trkpt>
      <trkpt lat="38.99998" lon="-0.387795">
        <ele>255.973</ele>
        <time>2020-02-08T08:40:17.086Z</time>
      </trkpt>
      <trkpt lat="38.99998" lon="-0.387795">
        <ele>255.973</ele>
        <time>2020-02-08T08:40:18.086Z</time>
      </trkpt>
      <trkpt lat="38.999975" lon="-0.38781167">
        <ele>255.973</ele>
        <time>2020-02-08T08:40:19.086Z</time>
      </trkpt>
      <trkpt lat="38.999975" lon="-0.38781167">
        <ele>255.973</ele>
        <time>2020-02-08T08:40:20.086Z</time>
      </trkpt>
      <trkpt lat="38.99996" lon="-0.38783167">
        <ele>256.973</ele>
        <time>2020-02-08T08:40:21.086Z</time>
      </trkpt>
      <trkpt lat="38.99994667" lon="-0.38784667">
        <ele>256.973</ele>
        <time>2020-02-08T08:40:22.086Z</time>
      </trkpt>
      <trkpt lat="38.99994667" lon="-0.38784667">
        <ele>256.973</ele>
        <time>2020-02-08T08:40:23.086Z</time>
      </trkpt>
      <trkpt lat="38.99995167" lon="-0.387865">
        <ele>256.973</ele>
        <time>2020-02-08T08:40:24.086Z</time>
      </trkpt>
      <trkpt lat="38.99995333" lon="-0.38787833">
        <ele>256.973</ele>
        <time>2020-02-08T08:40:25.086Z</time>
      </trkpt>
      <trkpt lat="38.99995333" lon="-0.38787833">
        <ele>256.973</ele>
        <time>2020-02-08T08:40:26.086Z</time>
      </trkpt>
      <trkpt lat="38.99996833" lon="-0.38789667">
        <ele>256.973</ele>
        <time>2020-02-08T08:40:27.086Z</time>
      </trkpt>
      <trkpt lat="38.99996833" lon="-0.38789667">
        <ele>256.973</ele>
        <time>2020-02-08T08:40:28.086Z</time>
      </trkpt>
      <trkpt lat="38.99997" lon="-0.38790333">
        <ele>257.973</ele>
        <time>2020-02-08T08:40:29.086Z</time>
      </trkpt>
      <trkpt lat="38.99997" lon="-0.38790333">
        <ele>257.973</ele>
        <time>2020-02-08T08:40:30.086Z</time>
      </trkpt>
      <trkpt lat="38.99996667" lon="-0.38792167">
        <ele>257.973</ele>
        <time>2020-02-08T08:40:31.086Z</time>
      </trkpt>
      <trkpt lat="38.99996667" lon="-0.38792167">
        <ele>257.973</ele>
        <time>2020-02-08T08:40:32.086Z</time>
      </trkpt>
      <trkpt lat="38.99996" lon="-0.387935">
        <ele>257.973</ele>
        <time>2020-02-08T08:40:33.086Z</time>
      </trkpt>
      <trkpt lat="38.99996" lon="-0.387935">
        <ele>257.973</ele>
        <time>2020-02-08T08:40:34.086Z</time>
      </trkpt>
      <trkpt lat="38.99995667" lon="-0.38795167">
        <ele>257.973</ele>
        <time>2020-02-08T08:40:35.086Z</time>
      </trkpt>
      <trkpt lat="38.99995667" lon="-0.38795167">
        <ele>257.973</ele>
        <time>2020-02-08T08:40:36.086Z</time>
      </trkpt>
      <trkpt lat="38.99996" lon="-0.387965">
        <ele>258.973</ele>
        <time>2020-02-08T08:40:37.086Z</time>
      </trkpt>
      <trkpt lat="38.99996" lon="-0.387965">
        <ele>258.973</ele>
        <time>2020-02-08T08:40:38.086Z</time>
      </trkpt>
      <trkpt lat="38.99997167" lon="-0.38798333">
        <ele>258.973</ele>
        <time>2020-02-08T08:40:39.086Z</time>
      </trkpt>
      <trkpt lat="38.99997167" lon="-0.38798333">
        <ele>259.973</ele>
        <time>2020-02-08T08:40:40.086Z</time>
      </trkpt>
      <trkpt lat="38.99998667" lon="-0.388005">
        <ele>259.973</ele>
        <time>2020-02-08T08:40:41.086Z</time>
      </trkpt>
      <trkpt lat="38.99999" lon="-0.38801333">
        <ele>259.973</ele>
        <time>2020-02-08T08:40:42.086Z</time>
      </trkpt>
      <trkpt lat="38.99999333" lon="-0.388025">
        <ele>259.973</ele>
        <time>2020-02-08T08:40:43.086Z</time>
      </trkpt>
      <trkpt lat="38.99999333" lon="-0.388025">
        <ele>259.973</ele>
        <time>2020-02-08T08:40:44.086Z</time>
      </trkpt>
      <trkpt lat="38.99999" lon="-0.38804333">
        <ele>259.973</ele>
        <time>2020-02-08T08:40:45.086Z</time>
      </trkpt>
      <trkpt lat="38.99999" lon="-0.38804333">
        <ele>260.973</ele>
        <time>2020-02-08T08:40:46.086Z</time>
      </trkpt>
      <trkpt lat="38.99999" lon="-0.388065">
        <ele>260.973</ele>
        <time>2020-02-08T08:40:47.086Z</time>
      </trkpt>
      <trkpt lat="38.99999" lon="-0.388065">
        <ele>260.973</ele>
        <time>2020-02-08T08:40:48.086Z</time>
      </trkpt>
      <trkpt lat="38.99998667" lon="-0.38808667">
        <ele>260.973</ele>
        <time>2020-02-08T08:40:49.086Z</time>
      </trkpt>
      <trkpt lat="38.99998667" lon="-0.38808667">
        <ele>260.973</ele>
        <time>2020-02-08T08:40:50.086Z</time>
      </trkpt>
      <trkpt lat="38.99998833" lon="-0.38810667">
        <ele>260.973</ele>
        <time>2020-02-08T08:40:51.086Z</time>
      </trkpt>
      <trkpt lat="38.99998833" lon="-0.38810667">
        <ele>260.973</ele>
        <time>2020-02-08T08:40:52.086Z</time>
      </trkpt>
      <trkpt lat="38.99999" lon="-0.38812667">
        <ele>260.973</ele>
        <time>2020-02-08T08:40:53.086Z</time>
      </trkpt>
      <trkpt lat="38.99999" lon="-0.38812667">
        <ele>260.973</ele>
        <time>2020-02-08T08:40:54.086Z</time>
      </trkpt>
      <trkpt lat="38.999995" lon="-0.38815167">
        <ele>260.973</ele>
        <time>2020-02-08T08:40:55.086Z</time>
      </trkpt>
      <trkpt lat="38.999995" lon="-0.38815167">
        <ele>260.973</ele>
        <time>2020-02-08T08:40:56.086Z</time>
      </trkpt>
      <trkpt lat="39.00000833" lon="-0.38817833">
        <ele>260.973</ele>
        <time>2020-02-08T08:40:57.086Z</time>
      </trkpt>
      <trkpt lat="39.000005" lon="-0.38818667">
        <ele>260.973</ele>
        <time>2020-02-08T08:40:58.086Z</time>
      </trkpt>
      <trkpt lat="39.00001167" lon="-0.38819833">
        <ele>260.973</ele>
        <time>2020-02-08T08:40:59.086Z</time>
      </trkpt>
      <trkpt lat="39.00001167" lon="-0.38819833">
        <ele>259.973</ele>
        <time>2020-02-08T08:41:00.086Z</time>
      </trkpt>
      <trkpt lat="39.00002167" lon="-0.38821833">
        <ele>259.973</ele>
        <time>2020-02-08T08:41:01.086Z</time>
      </trkpt>
      <trkpt lat="39.00002167" lon="-0.38821833">
        <ele>259.973</ele>
        <time>2020-02-08T08:41:02.086Z</time>
      </trkpt>
      <trkpt lat="39.00001333" lon="-0.38823667">
        <ele>259.973</ele>
        <time>2020-02-08T08:41:03.086Z</time>
      </trkpt>
      <trkpt lat="39.00001333" lon="-0.38823667">
        <ele>260.973</ele>
        <time>2020-02-08T08:41:04.086Z</time>
      </trkpt>
      <trkpt lat="39.00001833" lon="-0.38826">
        <ele>260.973</ele>
        <time>2020-02-08T08:41:05.086Z</time>
      </trkpt>
      <trkpt lat="39.00001833" lon="-0.38826">
        <ele>261.973</ele>
        <time>2020-02-08T08:41:06.086Z</time>
      </trkpt>
      <trkpt lat="39.00002" lon="-0.388275">
        <ele>261.973</ele>
        <time>2020-02-08T08:41:07.086Z</time>
      </trkpt>
      <trkpt lat="39.00002" lon="-0.388275">
        <ele>261.973</ele>
        <time>2020-02-08T08:41:08.086Z</time>
      </trkpt>
      <trkpt lat="39.000015" lon="-0.38829167">
        <ele>261.973</ele>
        <time>2020-02-08T08:41:09.086Z</time>
      </trkpt>
      <trkpt lat="39.000015" lon="-0.38829167">
        <ele>261.973</ele>
        <time>2020-02-08T08:41:10.086Z</time>
      </trkpt>
      <trkpt lat="39.00001333" lon="-0.38831">
        <ele>261.973</ele>
        <time>2020-02-08T08:41:11.086Z</time>
      </trkpt>
      <trkpt lat="39.000015" lon="-0.38832167">
        <ele>261.973</ele>
        <time>2020-02-08T08:41:12.086Z</time>
      </trkpt>
      <trkpt lat="39.000015" lon="-0.38832167">
        <ele>262.973</ele>
        <time>2020-02-08T08:41:13.086Z</time>
      </trkpt>
      <trkpt lat="39.00001333" lon="-0.38834333">
        <ele>262.973</ele>
        <time>2020-02-08T08:41:14.086Z</time>
      </trkpt>
      <trkpt lat="39.000015" lon="-0.38835333">
        <ele>262.973</ele>
        <time>2020-02-08T08:41:15.086Z</time>
      </trkpt>
      <trkpt lat="39.000015" lon="-0.38835333">
        <ele>262.973</ele>
        <time>2020-02-08T08:41:16.086Z</time>
      </trkpt>
      <trkpt lat="39.00001" lon="-0.38837">
        <ele>262.973</ele>
        <time>2020-02-08T08:41:17.086Z</time>
      </trkpt>
      <trkpt lat="39.00001" lon="-0.38837">
        <ele>262.973</ele>
        <time>2020-02-08T08:41:18.086Z</time>
      </trkpt>
      <trkpt lat="39.00001167" lon="-0.388385">
        <ele>262.973</ele>
        <time>2020-02-08T08:41:19.086Z</time>
      </trkpt>
      <trkpt lat="39.00001167" lon="-0.388385">
        <ele>262.973</ele>
        <time>2020-02-08T08:41:20.086Z</time>
      </trkpt>
      <trkpt lat="39.00001167" lon="-0.388405">
        <ele>262.973</ele>
        <time>2020-02-08T08:41:21.086Z</time>
      </trkpt>
      <trkpt lat="39.00001167" lon="-0.388405">
        <ele>262.973</ele>
        <time>2020-02-08T08:41:22.086Z</time>
      </trkpt>
      <trkpt lat="39.000005" lon="-0.388425">
        <ele>262.973</ele>
        <time>2020-02-08T08:41:23.086Z</time>
      </trkpt>
      <trkpt lat="39.00000667" lon="-0.38843667">
        <ele>262.973</ele>
        <time>2020-02-08T08:41:24.086Z</time>
      </trkpt>
      <trkpt lat="39.00000667" lon="-0.38843667">
        <ele>263.973</ele>
        <time>2020-02-08T08:41:25.086Z</time>
      </trkpt>
      <trkpt lat="39.00000667" lon="-0.38845333">
        <ele>263.973</ele>
        <time>2020-02-08T08:41:26.086Z</time>
      </trkpt>
      <trkpt lat="39.00000667" lon="-0.38846167">
        <ele>263.973</ele>
        <time>2020-02-08T08:41:27.086Z</time>
      </trkpt>
      <trkpt lat="39.00000667" lon="-0.38846167">
        <ele>263.973</ele>
        <time>2020-02-08T08:41:28.086Z</time>
      </trkpt>
      <trkpt lat="39.00000667" lon="-0.38848333">
        <ele>263.973</ele>
        <time>2020-02-08T08:41:29.086Z</time>
      </trkpt>
      <trkpt lat="39.00000667" lon="-0.38848333">
        <ele>263.973</ele>
        <time>2020-02-08T08:41:30.086Z</time>
      </trkpt>
      <trkpt lat="39.00000833" lon="-0.38850333">
        <ele>263.973</ele>
        <time>2020-02-08T08:41:31.086Z</time>
      </trkpt>
      <trkpt lat="39.00000833" lon="-0.38850333">
        <ele>263.973</ele>
        <time>2020-02-08T08:41:32.086Z</time>
      </trkpt>
      <trkpt lat="39.00001167" lon="-0.38851833">
        <ele>264.973</ele>
        <time>2020-02-08T08:41:33.086Z</time>
      </trkpt>
      <trkpt lat="39.00001333" lon="-0.38852667">
        <ele>264.973</ele>
        <time>2020-02-08T08:41:34.086Z</time>
      </trkpt>
      <trkpt lat="39.00001333" lon="-0.38853167">
        <ele>264.973</ele>
        <time>2020-02-08T08:41:35.086Z</time>
      </trkpt>
      <trkpt lat="39.00001333" lon="-0.38853167">
        <ele>264.973</ele>
        <time>2020-02-08T08:41:36.086Z</time>
      </trkpt>
      <trkpt lat="39.000015" lon="-0.388545">
        <ele>264.973</ele>
        <time>2020-02-08T08:41:37.086Z</time>
      </trkpt>
      <trkpt lat="39.000015" lon="-0.388545">
        <ele>264.973</ele>
        <time>2020-02-08T08:41:38.086Z</time>
      </trkpt>
      <trkpt lat="39.00000833" lon="-0.38855333">
        <ele>264.973</ele>
        <time>2020-02-08T08:41:39.086Z</time>
      </trkpt>
      <trkpt lat="39.00000833" lon="-0.38855333">
        <ele>264.973</ele>
        <time>2020-02-08T08:41:40.086Z</time>
      </trkpt>
      <trkpt lat="39.000005" lon="-0.388565">
        <ele>264.973</ele>
        <time>2020-02-08T08:41:44.092Z</time>
      </trkpt>
      <trkpt lat="39.00001333" lon="-0.38860167">
        <ele>264.973</ele>
        <time>2020-02-08T08:41:45.092Z</time>
      </trkpt>
      <trkpt lat="39.00001333" lon="-0.38860167">
        <ele>265.973</ele>
        <time>2020-02-08T08:41:46.092Z</time>
      </trkpt>
      <trkpt lat="39.00001167" lon="-0.38861667">
        <ele>265.973</ele>
        <time>2020-02-08T08:41:47.092Z</time>
      </trkpt>
      <trkpt lat="39.00001167" lon="-0.38861667">
        <ele>265.973</ele>
        <time>2020-02-08T08:41:48.092Z</time>
      </trkpt>
      <trkpt lat="39.00001" lon="-0.38862833">
        <ele>265.973</ele>
        <time>2020-02-08T08:41:49.092Z</time>
      </trkpt>
      <trkpt lat="39.00001" lon="-0.38862833">
        <ele>266.973</ele>
        <time>2020-02-08T08:41:50.092Z</time>
      </trkpt>
      <trkpt lat="39.00001333" lon="-0.38865167">
        <ele>266.973</ele>
        <time>2020-02-08T08:41:51.092Z</time>
      </trkpt>
      <trkpt lat="39.00001333" lon="-0.38865167">
        <ele>266.973</ele>
        <time>2020-02-08T08:41:52.092Z</time>
      </trkpt>
      <trkpt lat="39.00001333" lon="-0.38867667">
        <ele>266.973</ele>
        <time>2020-02-08T08:41:53.092Z</time>
      </trkpt>
      <trkpt lat="39.00001333" lon="-0.38867667">
        <ele>266.973</ele>
        <time>2020-02-08T08:41:54.092Z</time>
      </trkpt>
      <trkpt lat="39.00000833" lon="-0.3887">
        <ele>266.973</ele>
        <time>2020-02-08T08:41:55.092Z</time>
      </trkpt>
      <trkpt lat="39.00000667" lon="-0.38871167">
        <ele>266.973</ele>
        <time>2020-02-08T08:41:56.092Z</time>
      </trkpt>
      <trkpt lat="39.00000667" lon="-0.38871167">
        <ele>266.973</ele>
        <time>2020-02-08T08:41:57.092Z</time>
      </trkpt>
      <trkpt lat="39.0" lon="-0.38873333">
        <ele>266.973</ele>
        <time>2020-02-08T08:41:58.092Z</time>
      </trkpt>
      <trkpt lat="39.0" lon="-0.38873333">
        <ele>266.973</ele>
        <time>2020-02-08T08:41:59.092Z</time>
      </trkpt>
      <trkpt lat="38.99999167" lon="-0.38875667">
        <ele>266.973</ele>
        <time>2020-02-08T08:42:00.092Z</time>
      </trkpt>
      <trkpt lat="38.99999" lon="-0.38876167">
        <ele>266.973</ele>
        <time>2020-02-08T08:42:01.092Z</time>
      </trkpt>
      <trkpt lat="38.99999" lon="-0.38876167">
        <ele>266.973</ele>
        <time>2020-02-08T08:42:03.598Z</time>
      </trkpt>
      <trkpt lat="38.99999" lon="-0.38876167">
        <ele>266.973</ele>
        <time>2020-02-08T08:42:04.598Z</time>
      </trkpt>
      <trkpt lat="38.99997833" lon="-0.388795">
        <ele>267.973</ele>
        <time>2020-02-08T08:42:05.598Z</time>
      </trkpt>
      <trkpt lat="38.99997833" lon="-0.388795">
        <ele>267.973</ele>
        <time>2020-02-08T08:42:06.598Z</time>
      </trkpt>
      <trkpt lat="38.99997" lon="-0.38880167">
        <ele>267.973</ele>
        <time>2020-02-08T08:42:07.598Z</time>
      </trkpt>
      <trkpt lat="38.99997" lon="-0.38880167">
        <ele>267.973</ele>
        <time>2020-02-08T08:42:10.102Z</time>
      </trkpt>
      <trkpt lat="38.99996833" lon="-0.38882167">
        <ele>267.973</ele>
        <time>2020-02-08T08:42:11.102Z</time>
      </trkpt>
      <trkpt lat="38.999965" lon="-0.38883667">
        <ele>267.973</ele>
        <time>2020-02-08T08:42:13.608Z</time>
      </trkpt>
      <trkpt lat="38.999965" lon="-0.38883667">
        <ele>267.973</ele>
        <time>2020-02-08T08:42:14.608Z</time>
      </trkpt>
      <trkpt lat="38.99996" lon="-0.38885833">
        <ele>268.973</ele>
        <time>2020-02-08T08:42:15.608Z</time>
      </trkpt>
      <trkpt lat="38.99996" lon="-0.38885833">
        <ele>268.973</ele>
        <time>2020-02-08T08:42:16.608Z</time>
      </trkpt>
      <trkpt lat="38.99994667" lon="-0.388875">
        <ele>268.973</ele>
        <time>2020-02-08T08:42:17.608Z</time>
      </trkpt>
      <trkpt lat="38.99994667" lon="-0.388875">
        <ele>268.973</ele>
        <time>2020-02-08T08:42:18.608Z</time>
      </trkpt>
      <trkpt lat="38.99994" lon="-0.38889">
        <ele>268.973</ele>
        <time>2020-02-08T08:42:19.608Z</time>
      </trkpt>
      <trkpt lat="38.99994" lon="-0.38889">
        <ele>268.973</ele>
        <time>2020-02-08T08:42:20.608Z</time>
      </trkpt>
      <trkpt lat="38.99993" lon="-0.38890167">
        <ele>269.973</ele>
        <time>2020-02-08T08:42:21.608Z</time>
      </trkpt>
      <trkpt lat="38.99993" lon="-0.38890167">
        <ele>269.973</ele>
        <time>2020-02-08T08:42:22.608Z</time>
      </trkpt>
      <trkpt lat="38.99991667" lon="-0.388915">
        <ele>269.973</ele>
        <time>2020-02-08T08:42:23.608Z</time>
      </trkpt>
      <trkpt lat="38.99991667" lon="-0.388915">
        <ele>269.973</ele>
        <time>2020-02-08T08:42:24.608Z</time>
      </trkpt>
      <trkpt lat="38.999905" lon="-0.38893333">
        <ele>269.973</ele>
        <time>2020-02-08T08:42:25.608Z</time>
      </trkpt>
      <trkpt lat="38.999905" lon="-0.38893333">
        <ele>269.973</ele>
        <time>2020-02-08T08:42:26.608Z</time>
      </trkpt>
      <trkpt lat="38.99988667" lon="-0.38894833">
        <ele>269.973</ele>
        <time>2020-02-08T08:42:27.608Z</time>
      </trkpt>
      <trkpt lat="38.99988667" lon="-0.38894833">
        <ele>270.973</ele>
        <time>2020-02-08T08:42:28.608Z</time>
      </trkpt>
      <trkpt lat="38.99987167" lon="-0.38896">
        <ele>270.973</ele>
        <time>2020-02-08T08:42:29.608Z</time>
      </trkpt>
      <trkpt lat="38.99987167" lon="-0.38896">
        <ele>270.973</ele>
        <time>2020-02-08T08:42:30.608Z</time>
      </trkpt>
      <trkpt lat="38.999865" lon="-0.38898">
        <ele>270.973</ele>
        <time>2020-02-08T08:42:31.608Z</time>
      </trkpt>
      <trkpt lat="38.999865" lon="-0.38898">
        <ele>270.973</ele>
        <time>2020-02-08T08:42:32.608Z</time>
      </trkpt>
      <trkpt lat="38.99985167" lon="-0.38899833">
        <ele>271.973</ele>
        <time>2020-02-08T08:42:33.608Z</time>
      </trkpt>
      <trkpt lat="38.99985167" lon="-0.38899833">
        <ele>271.973</ele>
        <time>2020-02-08T08:42:34.608Z</time>
      </trkpt>
      <trkpt lat="38.99984" lon="-0.38901833">
        <ele>271.973</ele>
        <time>2020-02-08T08:42:35.608Z</time>
      </trkpt>
      <trkpt lat="38.99983167" lon="-0.38901667">
        <ele>271.973</ele>
        <time>2020-02-08T08:42:36.608Z</time>
      </trkpt>
      <trkpt lat="38.99983167" lon="-0.38901667">
        <ele>271.973</ele>
        <time>2020-02-08T08:42:37.608Z</time>
      </trkpt>
      <trkpt lat="38.99982333" lon="-0.38902333">
        <ele>271.973</ele>
        <time>2020-02-08T08:42:38.608Z</time>
      </trkpt>
      <trkpt lat="38.99982333" lon="-0.38902333">
        <ele>271.973</ele>
        <time>2020-02-08T08:42:39.608Z</time>
      </trkpt>
      <trkpt lat="38.99982167" lon="-0.38905833">
        <ele>271.973</ele>
        <time>2020-02-08T08:42:40.608Z</time>
      </trkpt>
      <trkpt lat="38.99982" lon="-0.38908167">
        <ele>271.973</ele>
        <time>2020-02-08T08:42:41.608Z</time>
      </trkpt>
      <trkpt lat="38.99982" lon="-0.38911">
        <ele>271.973</ele>
        <time>2020-02-08T08:42:42.608Z</time>
      </trkpt>
      <trkpt lat="38.99982" lon="-0.38911">
        <ele>271.973</ele>
        <time>2020-02-08T08:42:43.608Z</time>
      </trkpt>
      <trkpt lat="38.99982333" lon="-0.38915833">
        <ele>271.973</ele>
        <time>2020-02-08T08:42:44.608Z</time>
      </trkpt>
      <trkpt lat="38.99983167" lon="-0.38918333">
        <ele>271.973</ele>
        <time>2020-02-08T08:42:45.608Z</time>
      </trkpt>
      <trkpt lat="38.99983167" lon="-0.38918333">
        <ele>271.973</ele>
        <time>2020-02-08T08:42:46.608Z</time>
      </trkpt>
      <trkpt lat="38.99985167" lon="-0.38923167">
        <ele>270.973</ele>
        <time>2020-02-08T08:42:47.608Z</time>
      </trkpt>
      <trkpt lat="38.99985167" lon="-0.38923167">
        <ele>270.973</ele>
        <time>2020-02-08T08:42:48.608Z</time>
      </trkpt>
      <trkpt lat="38.99987167" lon="-0.38927333">
        <ele>269.973</ele>
        <time>2020-02-08T08:42:49.608Z</time>
      </trkpt>
      <trkpt lat="38.99987167" lon="-0.38927333">
        <ele>269.973</ele>
        <time>2020-02-08T08:42:50.608Z</time>
      </trkpt>
      <trkpt lat="38.99988667" lon="-0.389325">
        <ele>269.973</ele>
        <time>2020-02-08T08:42:51.608Z</time>
      </trkpt>
      <trkpt lat="38.99988667" lon="-0.389325">
        <ele>269.973</ele>
        <time>2020-02-08T08:42:52.608Z</time>
      </trkpt>
      <trkpt lat="38.999895" lon="-0.38937833">
        <ele>268.973</ele>
        <time>2020-02-08T08:42:53.608Z</time>
      </trkpt>
      <trkpt lat="38.999895" lon="-0.38937833">
        <ele>267.973</ele>
        <time>2020-02-08T08:42:54.608Z</time>
      </trkpt>
      <trkpt lat="38.99989167" lon="-0.38942833">
        <ele>267.973</ele>
        <time>2020-02-08T08:42:55.608Z</time>
      </trkpt>
      <trkpt lat="38.99989167" lon="-0.38942833">
        <ele>267.973</ele>
        <time>2020-02-08T08:42:56.608Z</time>
      </trkpt>
      <trkpt lat="38.999885" lon="-0.38949">
        <ele>267.973</ele>
        <time>2020-02-08T08:42:57.608Z</time>
      </trkpt>
      <trkpt lat="38.999885" lon="-0.38949">
        <ele>266.973</ele>
        <time>2020-02-08T08:42:58.608Z</time>
      </trkpt>
      <trkpt lat="38.99988167" lon="-0.38955667">
        <ele>266.973</ele>
        <time>2020-02-08T08:42:59.608Z</time>
      </trkpt>
      <trkpt lat="38.99988167" lon="-0.38955667">
        <ele>265.973</ele>
        <time>2020-02-08T08:43:00.608Z</time>
      </trkpt>
      <trkpt lat="38.99987" lon="-0.38960833">
        <ele>265.973</ele>
        <time>2020-02-08T08:43:01.608Z</time>
      </trkpt>
      <trkpt lat="38.99987" lon="-0.38960833">
        <ele>265.973</ele>
        <time>2020-02-08T08:43:02.608Z</time>
      </trkpt>
      <trkpt lat="38.99986667" lon="-0.38965167">
        <ele>265.973</ele>
        <time>2020-02-08T08:43:03.608Z</time>
      </trkpt>
      <trkpt lat="38.99986667" lon="-0.38967833">
        <ele>265.973</ele>
        <time>2020-02-08T08:43:04.608Z</time>
      </trkpt>
      <trkpt lat="38.99986333" lon="-0.389705">
        <ele>265.973</ele>
        <time>2020-02-08T08:43:05.608Z</time>
      </trkpt>
      <trkpt lat="38.99986333" lon="-0.389705">
        <ele>265.973</ele>
        <time>2020-02-08T08:43:06.608Z</time>
      </trkpt>
      <trkpt lat="38.99985333" lon="-0.38975167">
        <ele>265.973</ele>
        <time>2020-02-08T08:43:07.608Z</time>
      </trkpt>
      <trkpt lat="38.99985333" lon="-0.38975167">
        <ele>263.973</ele>
        <time>2020-02-08T08:43:08.608Z</time>
      </trkpt>
      <trkpt lat="38.99984333" lon="-0.38979167">
        <ele>263.973</ele>
        <time>2020-02-08T08:43:09.608Z</time>
      </trkpt>
      <trkpt lat="38.99984333" lon="-0.38979167">
        <ele>263.973</ele>
        <time>2020-02-08T08:43:10.608Z</time>
      </trkpt>
      <trkpt lat="38.99983" lon="-0.38982167">
        <ele>263.973</ele>
        <time>2020-02-08T08:43:11.608Z</time>
      </trkpt>
      <trkpt lat="38.99983" lon="-0.38982167">
        <ele>262.973</ele>
        <time>2020-02-08T08:43:12.608Z</time>
      </trkpt>
      <trkpt lat="38.999815" lon="-0.38985667">
        <ele>262.973</ele>
        <time>2020-02-08T08:43:13.608Z</time>
      </trkpt>
      <trkpt lat="38.99981" lon="-0.389875">
        <ele>262.973</ele>
        <time>2020-02-08T08:43:14.608Z</time>
      </trkpt>
      <trkpt lat="38.99980333" lon="-0.38989333">
        <ele>262.973</ele>
        <time>2020-02-08T08:43:15.608Z</time>
      </trkpt>
      <trkpt lat="38.99980333" lon="-0.38989333">
        <ele>261.973</ele>
        <time>2020-02-08T08:43:16.608Z</time>
      </trkpt>
      <trkpt lat="38.99979167" lon="-0.38994">
        <ele>261.973</ele>
        <time>2020-02-08T08:43:17.608Z</time>
      </trkpt>
      <trkpt lat="38.99978833" lon="-0.38996167">
        <ele>261.973</ele>
        <time>2020-02-08T08:43:18.608Z</time>
      </trkpt>
      <trkpt lat="38.99978833" lon="-0.38996167">
        <ele>261.973</ele>
        <time>2020-02-08T08:43:19.608Z</time>
      </trkpt>
      <trkpt lat="38.99977833" lon="-0.39000167">
        <ele>260.973</ele>
        <time>2020-02-08T08:43:20.608Z</time>
      </trkpt>
      <trkpt lat="38.99977333" lon="-0.39002167">
        <ele>260.973</ele>
        <time>2020-02-08T08:43:21.608Z</time>
      </trkpt>
      <trkpt lat="38.99977333" lon="-0.39002167">
        <ele>259.973</ele>
        <time>2020-02-08T08:43:22.608Z</time>
      </trkpt>
      <trkpt lat="38.99977" lon="-0.39007167">
        <ele>259.973</ele>
        <time>2020-02-08T08:43:23.608Z</time>
      </trkpt>
      <trkpt lat="38.99977" lon="-0.39009">
        <ele>259.973</ele>
        <time>2020-02-08T08:43:24.608Z</time>
      </trkpt>
      <trkpt lat="38.99977" lon="-0.39009">
        <ele>258.973</ele>
        <time>2020-02-08T08:43:25.608Z</time>
      </trkpt>
      <trkpt lat="38.99976667" lon="-0.39012667">
        <ele>258.973</ele>
        <time>2020-02-08T08:43:26.608Z</time>
      </trkpt>
      <trkpt lat="38.99976167" lon="-0.390145">
        <ele>257.973</ele>
        <time>2020-02-08T08:43:27.608Z</time>
      </trkpt>
      <trkpt lat="38.99976167" lon="-0.390145">
        <ele>257.973</ele>
        <time>2020-02-08T08:43:28.608Z</time>
      </trkpt>
      <trkpt lat="38.99975167" lon="-0.39017833">
        <ele>256.973</ele>
        <time>2020-02-08T08:43:29.608Z</time>
      </trkpt>
      <trkpt lat="38.99974333" lon="-0.3902">
        <ele>256.973</ele>
        <time>2020-02-08T08:43:30.608Z</time>
      </trkpt>
      <trkpt lat="38.99973667" lon="-0.39022167">
        <ele>256.973</ele>
        <time>2020-02-08T08:43:31.608Z</time>
      </trkpt>
      <trkpt lat="38.99973667" lon="-0.39022167">
        <ele>256.973</ele>
        <time>2020-02-08T08:43:32.608Z</time>
      </trkpt>
      <trkpt lat="38.99972167" lon="-0.39026">
        <ele>256.973</ele>
        <time>2020-02-08T08:43:33.608Z</time>
      </trkpt>
      <trkpt lat="38.99972167" lon="-0.39026">
        <ele>256.973</ele>
        <time>2020-02-08T08:43:34.608Z</time>
      </trkpt>
      <trkpt lat="38.99971167" lon="-0.39029">
        <ele>254.973</ele>
        <time>2020-02-08T08:43:35.608Z</time>
      </trkpt>
      <trkpt lat="38.99971167" lon="-0.39029">
        <ele>254.973</ele>
        <time>2020-02-08T08:43:36.608Z</time>
      </trkpt>
      <trkpt lat="38.99971833" lon="-0.39031667">
        <ele>254.973</ele>
        <time>2020-02-08T08:43:37.608Z</time>
      </trkpt>
      <trkpt lat="38.99971833" lon="-0.39031667">
        <ele>254.973</ele>
        <time>2020-02-08T08:43:38.608Z</time>
      </trkpt>
      <trkpt lat="38.99972667" lon="-0.390325">
        <ele>253.973</ele>
        <time>2020-02-08T08:43:39.608Z</time>
      </trkpt>
      <trkpt lat="38.99972667" lon="-0.390325">
        <ele>253.973</ele>
        <time>2020-02-08T08:43:40.608Z</time>
      </trkpt>
      <trkpt lat="38.99971833" lon="-0.390345">
        <ele>253.973</ele>
        <time>2020-02-08T08:43:41.608Z</time>
      </trkpt>
      <trkpt lat="38.99971833" lon="-0.390345">
        <ele>253.973</ele>
        <time>2020-02-08T08:43:42.608Z</time>
      </trkpt>
      <trkpt lat="38.999715" lon="-0.39037">
        <ele>253.973</ele>
        <time>2020-02-08T08:43:43.608Z</time>
      </trkpt>
      <trkpt lat="38.999715" lon="-0.39037">
        <ele>253.973</ele>
        <time>2020-02-08T08:43:44.608Z</time>
      </trkpt>
      <trkpt lat="38.999705" lon="-0.39038833">
        <ele>253.973</ele>
        <time>2020-02-08T08:43:45.608Z</time>
      </trkpt>
      <trkpt lat="38.999705" lon="-0.39038833">
        <ele>253.973</ele>
        <time>2020-02-08T08:43:46.608Z</time>
      </trkpt>
      <trkpt lat="38.99970333" lon="-0.390415">
        <ele>253.973</ele>
        <time>2020-02-08T08:43:47.608Z</time>
      </trkpt>
      <trkpt lat="38.9997" lon="-0.39042667">
        <ele>253.973</ele>
        <time>2020-02-08T08:43:48.608Z</time>
      </trkpt>
      <trkpt lat="38.9997" lon="-0.39044667">
        <ele>252.973</ele>
        <time>2020-02-08T08:43:49.608Z</time>
      </trkpt>
      <trkpt lat="38.9997" lon="-0.39044667">
        <ele>252.973</ele>
        <time>2020-02-08T08:43:50.608Z</time>
      </trkpt>
      <trkpt lat="38.99969833" lon="-0.39048833">
        <ele>252.973</ele>
        <time>2020-02-08T08:43:51.608Z</time>
      </trkpt>
      <trkpt lat="38.99969833" lon="-0.39048833">
        <ele>252.973</ele>
        <time>2020-02-08T08:43:52.608Z</time>
      </trkpt>
      <trkpt lat="38.99968167" lon="-0.39052167">
        <ele>250.973</ele>
        <time>2020-02-08T08:43:53.608Z</time>
      </trkpt>
      <trkpt lat="38.99968167" lon="-0.39052167">
        <ele>250.973</ele>
        <time>2020-02-08T08:43:54.608Z</time>
      </trkpt>
      <trkpt lat="38.99967" lon="-0.39055333">
        <ele>250.973</ele>
        <time>2020-02-08T08:43:55.608Z</time>
      </trkpt>
      <trkpt lat="38.99967" lon="-0.39055333">
        <ele>249.973</ele>
        <time>2020-02-08T08:43:56.608Z</time>
      </trkpt>
      <trkpt lat="38.99966667" lon="-0.39058167">
        <ele>249.973</ele>
        <time>2020-02-08T08:43:57.608Z</time>
      </trkpt>
      <trkpt lat="38.99966667" lon="-0.3906">
        <ele>249.973</ele>
        <time>2020-02-08T08:43:58.608Z</time>
      </trkpt>
      <trkpt lat="38.99966667" lon="-0.3906">
        <ele>249.973</ele>
        <time>2020-02-08T08:43:59.608Z</time>
      </trkpt>
      <trkpt lat="38.99966" lon="-0.39064833">
        <ele>249.973</ele>
        <time>2020-02-08T08:44:00.608Z</time>
      </trkpt>
      <trkpt lat="38.99966" lon="-0.39064833">
        <ele>249.973</ele>
        <time>2020-02-08T08:44:01.608Z</time>
      </trkpt>
      <trkpt lat="38.99966" lon="-0.390695">
        <ele>249.973</ele>
        <time>2020-02-08T08:44:02.608Z</time>
      </trkpt>
      <trkpt lat="38.99965833" lon="-0.39072">
        <ele>249.973</ele>
        <time>2020-02-08T08:44:03.608Z</time>
      </trkpt>
      <trkpt lat="38.99965833" lon="-0.39072">
        <ele>248.973</ele>
        <time>2020-02-08T08:44:04.608Z</time>
      </trkpt>
      <trkpt lat="38.99965333" lon="-0.39077">
        <ele>248.973</ele>
        <time>2020-02-08T08:44:05.608Z</time>
      </trkpt>
      <trkpt lat="38.99965333" lon="-0.39077">
        <ele>248.973</ele>
        <time>2020-02-08T08:44:06.608Z</time>
      </trkpt>
      <trkpt lat="38.99965" lon="-0.390815">
        <ele>248.973</ele>
        <time>2020-02-08T08:44:07.608Z</time>
      </trkpt>
      <trkpt lat="38.99965" lon="-0.390815">
        <ele>248.973</ele>
        <time>2020-02-08T08:44:08.608Z</time>
      </trkpt>
      <trkpt lat="38.99965333" lon="-0.39084833">
        <ele>248.973</ele>
        <time>2020-02-08T08:44:09.608Z</time>
      </trkpt>
      <trkpt lat="38.99965333" lon="-0.39084833">
        <ele>247.973</ele>
        <time>2020-02-08T08:44:10.608Z</time>
      </trkpt>
      <trkpt lat="38.99966" lon="-0.39087667">
        <ele>247.973</ele>
        <time>2020-02-08T08:44:11.608Z</time>
      </trkpt>
      <trkpt lat="38.99965333" lon="-0.39089">
        <ele>247.973</ele>
        <time>2020-02-08T08:44:12.608Z</time>
      </trkpt>
      <trkpt lat="38.99964333" lon="-0.39089667">
        <ele>247.973</ele>
        <time>2020-02-08T08:44:13.608Z</time>
      </trkpt>
      <trkpt lat="38.99964333" lon="-0.39089667">
        <ele>247.973</ele>
        <time>2020-02-08T08:44:14.608Z</time>
      </trkpt>
      <trkpt lat="38.999635" lon="-0.39092333">
        <ele>247.973</ele>
        <time>2020-02-08T08:44:15.608Z</time>
      </trkpt>
      <trkpt lat="38.999635" lon="-0.39092333">
        <ele>246.973</ele>
        <time>2020-02-08T08:44:16.608Z</time>
      </trkpt>
      <trkpt lat="38.99962167" lon="-0.39095">
        <ele>246.973</ele>
        <time>2020-02-08T08:44:17.608Z</time>
      </trkpt>
      <trkpt lat="38.999615" lon="-0.39096333">
        <ele>246.973</ele>
        <time>2020-02-08T08:44:18.608Z</time>
      </trkpt>
      <trkpt lat="38.999615" lon="-0.39096333">
        <ele>246.973</ele>
        <time>2020-02-08T08:44:19.608Z</time>
      </trkpt>
      <trkpt lat="38.99960167" lon="-0.39099167">
        <ele>246.973</ele>
        <time>2020-02-08T08:44:20.608Z</time>
      </trkpt>
      <trkpt lat="38.99960167" lon="-0.39099167">
        <ele>246.973</ele>
        <time>2020-02-08T08:44:21.608Z</time>
      </trkpt>
      <trkpt lat="38.99958167" lon="-0.391025">
        <ele>246.973</ele>
        <time>2020-02-08T08:44:22.608Z</time>
      </trkpt>
      <trkpt lat="38.99958167" lon="-0.391025">
        <ele>245.973</ele>
        <time>2020-02-08T08:44:23.608Z</time>
      </trkpt>
      <trkpt lat="38.999575" lon="-0.39105667">
        <ele>245.973</ele>
        <time>2020-02-08T08:44:24.608Z</time>
      </trkpt>
      <trkpt lat="38.999575" lon="-0.39105667">
        <ele>245.973</ele>
        <time>2020-02-08T08:44:25.608Z</time>
      </trkpt>
      <trkpt lat="38.99957333" lon="-0.3911">
        <ele>245.973</ele>
        <time>2020-02-08T08:44:26.608Z</time>
      </trkpt>
      <trkpt lat="38.999565" lon="-0.39111333">
        <ele>245.973</ele>
        <time>2020-02-08T08:44:27.608Z</time>
      </trkpt>
      <trkpt lat="38.999565" lon="-0.39111333">
        <ele>245.973</ele>
        <time>2020-02-08T08:44:28.608Z</time>
      </trkpt>
      <trkpt lat="38.99954833" lon="-0.39113667">
        <ele>245.973</ele>
        <time>2020-02-08T08:44:29.608Z</time>
      </trkpt>
      <trkpt lat="38.99954833" lon="-0.39113667">
        <ele>245.973</ele>
        <time>2020-02-08T08:44:30.608Z</time>
      </trkpt>
      <trkpt lat="38.999525" lon="-0.39119">
        <ele>244.973</ele>
        <time>2020-02-08T08:44:31.608Z</time>
      </trkpt>
      <trkpt lat="38.99951167" lon="-0.39121833">
        <ele>244.973</ele>
        <time>2020-02-08T08:44:32.608Z</time>
      </trkpt>
      <trkpt lat="38.99949667" lon="-0.39123">
        <ele>244.973</ele>
        <time>2020-02-08T08:44:33.608Z</time>
      </trkpt>
      <trkpt lat="38.99949667" lon="-0.39123">
        <ele>244.973</ele>
        <time>2020-02-08T08:44:34.608Z</time>
      </trkpt>
      <trkpt lat="38.99948" lon="-0.391245">
        <ele>244.973</ele>
        <time>2020-02-08T08:44:35.608Z</time>
      </trkpt>
      <trkpt lat="38.99948" lon="-0.391245">
        <ele>244.973</ele>
        <time>2020-02-08T08:44:36.608Z</time>
      </trkpt>
      <trkpt lat="38.99946667" lon="-0.39127833">
        <ele>244.973</ele>
        <time>2020-02-08T08:44:37.608Z</time>
      </trkpt>
      <trkpt lat="38.99946667" lon="-0.39127833">
        <ele>244.973</ele>
        <time>2020-02-08T08:44:38.608Z</time>
      </trkpt>
      <trkpt lat="38.99946167" lon="-0.39131">
        <ele>244.973</ele>
        <time>2020-02-08T08:44:39.608Z</time>
      </trkpt>
      <trkpt lat="38.99946167" lon="-0.39131">
        <ele>244.973</ele>
        <time>2020-02-08T08:44:40.608Z</time>
      </trkpt>
      <trkpt lat="38.99947167" lon="-0.39134667">
        <ele>244.973</ele>
        <time>2020-02-08T08:44:41.608Z</time>
      </trkpt>
      <trkpt lat="38.99947167" lon="-0.39134667">
        <ele>244.973</ele>
        <time>2020-02-08T08:44:42.608Z</time>
      </trkpt>
      <trkpt lat="38.99948" lon="-0.39138">
        <ele>244.973</ele>
        <time>2020-02-08T08:44:43.608Z</time>
      </trkpt>
      <trkpt lat="38.99948" lon="-0.39138">
        <ele>244.973</ele>
        <time>2020-02-08T08:44:44.608Z</time>
      </trkpt>
      <trkpt lat="38.999485" lon="-0.39142167">
        <ele>244.973</ele>
        <time>2020-02-08T08:44:45.608Z</time>
      </trkpt>
      <trkpt lat="38.999485" lon="-0.39142167">
        <ele>244.973</ele>
        <time>2020-02-08T08:44:46.608Z</time>
      </trkpt>
      <trkpt lat="38.99948833" lon="-0.39146667">
        <ele>244.973</ele>
        <time>2020-02-08T08:44:47.608Z</time>
      </trkpt>
      <trkpt lat="38.99948833" lon="-0.39146667">
        <ele>244.973</ele>
        <time>2020-02-08T08:44:48.608Z</time>
      </trkpt>
      <trkpt lat="38.99948333" lon="-0.39149833">
        <ele>244.973</ele>
        <time>2020-02-08T08:44:49.608Z</time>
      </trkpt>
      <trkpt lat="38.99948333" lon="-0.39149833">
        <ele>243.973</ele>
        <time>2020-02-08T08:44:50.608Z</time>
      </trkpt>
      <trkpt lat="38.99948667" lon="-0.39153333">
        <ele>243.973</ele>
        <time>2020-02-08T08:44:51.608Z</time>
      </trkpt>
      <trkpt lat="38.99948667" lon="-0.39153333">
        <ele>243.973</ele>
        <time>2020-02-08T08:44:52.608Z</time>
      </trkpt>
      <trkpt lat="38.99948833" lon="-0.39156667">
        <ele>243.973</ele>
        <time>2020-02-08T08:44:53.608Z</time>
      </trkpt>
      <trkpt lat="38.99948833" lon="-0.39156667">
        <ele>243.973</ele>
        <time>2020-02-08T08:44:54.608Z</time>
      </trkpt>
      <trkpt lat="38.99949333" lon="-0.3916">
        <ele>243.973</ele>
        <time>2020-02-08T08:44:55.608Z</time>
      </trkpt>
      <trkpt lat="38.99949333" lon="-0.3916">
        <ele>242.973</ele>
        <time>2020-02-08T08:44:56.608Z</time>
      </trkpt>
      <trkpt lat="38.99949167" lon="-0.39163167">
        <ele>242.973</ele>
        <time>2020-02-08T08:44:57.608Z</time>
      </trkpt>
      <trkpt lat="38.99949167" lon="-0.39163167">
        <ele>242.973</ele>
        <time>2020-02-08T08:44:58.608Z</time>
      </trkpt>
      <trkpt lat="38.99949167" lon="-0.391655">
        <ele>242.973</ele>
        <time>2020-02-08T08:44:59.608Z</time>
      </trkpt>
      <trkpt lat="38.99949167" lon="-0.391655">
        <ele>242.973</ele>
        <time>2020-02-08T08:45:00.608Z</time>
      </trkpt>
      <trkpt lat="38.999495" lon="-0.39166667">
        <ele>242.973</ele>
        <time>2020-02-08T08:45:01.608Z</time>
      </trkpt>
      <trkpt lat="38.999495" lon="-0.39166667">
        <ele>242.973</ele>
        <time>2020-02-08T08:45:02.608Z</time>
      </trkpt>
      <trkpt lat="38.999495" lon="-0.39168167">
        <ele>242.973</ele>
        <time>2020-02-08T08:45:03.608Z</time>
      </trkpt>
      <trkpt lat="38.999495" lon="-0.39168167">
        <ele>242.973</ele>
        <time>2020-02-08T08:45:04.608Z</time>
      </trkpt>
      <trkpt lat="38.9995" lon="-0.39168833">
        <ele>242.973</ele>
        <time>2020-02-08T08:45:05.608Z</time>
      </trkpt>
      <trkpt lat="38.9995" lon="-0.39168833">
        <ele>241.973</ele>
        <time>2020-02-08T08:45:06.608Z</time>
      </trkpt>
      <trkpt lat="38.99950667" lon="-0.3917">
        <ele>241.973</ele>
        <time>2020-02-08T08:45:07.608Z</time>
      </trkpt>
      <trkpt lat="38.99950667" lon="-0.3917">
        <ele>241.973</ele>
        <time>2020-02-08T08:45:08.608Z</time>
      </trkpt>
      <trkpt lat="38.99952" lon="-0.391725">
        <ele>241.973</ele>
        <time>2020-02-08T08:45:09.608Z</time>
      </trkpt>
      <trkpt lat="38.99952" lon="-0.391725">
        <ele>240.973</ele>
        <time>2020-02-08T08:45:10.608Z</time>
      </trkpt>
      <trkpt lat="38.999525" lon="-0.39173167">
        <ele>240.973</ele>
        <time>2020-02-08T08:45:11.608Z</time>
      </trkpt>
      <trkpt lat="38.999525" lon="-0.39173167">
        <ele>240.973</ele>
        <time>2020-02-08T08:45:12.608Z</time>
      </trkpt>
      <trkpt lat="38.99953" lon="-0.391735">
        <ele>240.973</ele>
        <time>2020-02-08T08:45:13.608Z</time>
      </trkpt>
      <trkpt lat="38.99953" lon="-0.391735">
        <ele>240.973</ele>
        <time>2020-02-08T08:45:14.608Z</time>
      </trkpt>
      <trkpt lat="38.99953" lon="-0.391735">
        <ele>240.973</ele>
        <time>2020-02-08T08:45:15.608Z</time>
      </trkpt>
      <trkpt lat="38.99953" lon="-0.391735">
        <ele>240.973</ele>
        <time>2020-02-08T08:45:16.608Z</time>
      </trkpt>
      <trkpt lat="38.99953" lon="-0.391735">
        <ele>240.973</ele>
        <time>2020-02-08T08:45:20.616Z</time>
      </trkpt>
      <trkpt lat="38.99955667" lon="-0.39179333">
        <ele>240.973</ele>
        <time>2020-02-08T08:45:21.616Z</time>
      </trkpt>
      <trkpt lat="38.99955667" lon="-0.39179333">
        <ele>240.973</ele>
        <time>2020-02-08T08:45:22.616Z</time>
      </trkpt>
      <trkpt lat="38.99957167" lon="-0.391825">
        <ele>240.973</ele>
        <time>2020-02-08T08:45:23.616Z</time>
      </trkpt>
      <trkpt lat="38.99957167" lon="-0.391825">
        <ele>240.973</ele>
        <time>2020-02-08T08:45:24.616Z</time>
      </trkpt>
      <trkpt lat="38.999585" lon="-0.391855">
        <ele>240.973</ele>
        <time>2020-02-08T08:45:25.616Z</time>
      </trkpt>
      <trkpt lat="38.999585" lon="-0.391855">
        <ele>239.973</ele>
        <time>2020-02-08T08:45:26.616Z</time>
      </trkpt>
      <trkpt lat="38.99960333" lon="-0.39188833">
        <ele>239.973</ele>
        <time>2020-02-08T08:45:27.616Z</time>
      </trkpt>
      <trkpt lat="38.99960333" lon="-0.39188833">
        <ele>239.973</ele>
        <time>2020-02-08T08:45:28.616Z</time>
      </trkpt>
      <trkpt lat="38.99962" lon="-0.39192">
        <ele>239.973</ele>
        <time>2020-02-08T08:45:29.616Z</time>
      </trkpt>
      <trkpt lat="38.99962" lon="-0.39192">
        <ele>238.973</ele>
        <time>2020-02-08T08:45:30.616Z</time>
      </trkpt>
      <trkpt lat="38.99963167" lon="-0.391945">
        <ele>238.973</ele>
        <time>2020-02-08T08:45:31.616Z</time>
      </trkpt>
      <trkpt lat="38.99963167" lon="-0.391945">
        <ele>237.973</ele>
        <time>2020-02-08T08:45:32.616Z</time>
      </trkpt>
      <trkpt lat="38.99964167" lon="-0.39196333">
        <ele>237.973</ele>
        <time>2020-02-08T08:45:33.616Z</time>
      </trkpt>
      <trkpt lat="38.99964167" lon="-0.39196333">
        <ele>237.973</ele>
        <time>2020-02-08T08:45:34.616Z</time>
      </trkpt>
      <trkpt lat="38.99965667" lon="-0.39198667">
        <ele>237.973</ele>
        <time>2020-02-08T08:45:35.616Z</time>
      </trkpt>
      <trkpt lat="38.99965667" lon="-0.39198667">
        <ele>237.973</ele>
        <time>2020-02-08T08:45:36.616Z</time>
      </trkpt>
      <trkpt lat="38.99966667" lon="-0.39200833">
        <ele>237.973</ele>
        <time>2020-02-08T08:45:37.616Z</time>
      </trkpt>
      <trkpt lat="38.99966667" lon="-0.39200833">
        <ele>237.973</ele>
        <time>2020-02-08T08:45:38.616Z</time>
      </trkpt>
      <trkpt lat="38.99967667" lon="-0.39201833">
        <ele>237.973</ele>
        <time>2020-02-08T08:45:39.616Z</time>
      </trkpt>
      <trkpt lat="38.99967667" lon="-0.39201833">
        <ele>237.973</ele>
        <time>2020-02-08T08:45:40.616Z</time>
      </trkpt>
      <trkpt lat="38.99968333" lon="-0.39202667">
        <ele>237.973</ele>
        <time>2020-02-08T08:45:41.616Z</time>
      </trkpt>
      <trkpt lat="38.99968333" lon="-0.39202667">
        <ele>236.973</ele>
        <time>2020-02-08T08:45:42.616Z</time>
      </trkpt>
      <trkpt lat="38.99969667" lon="-0.39205167">
        <ele>236.973</ele>
        <time>2020-02-08T08:45:43.616Z</time>
      </trkpt>
      <trkpt lat="38.99969667" lon="-0.39205167">
        <ele>236.973</ele>
        <time>2020-02-08T08:45:44.616Z</time>
      </trkpt>
      <trkpt lat="38.99970333" lon="-0.392075">
        <ele>236.973</ele>
        <time>2020-02-08T08:45:45.616Z</time>
      </trkpt>
      <trkpt lat="38.99970333" lon="-0.392075">
        <ele>236.973</ele>
        <time>2020-02-08T08:45:46.616Z</time>
      </trkpt>
      <trkpt lat="38.99970667" lon="-0.39209">
        <ele>236.973</ele>
        <time>2020-02-08T08:45:47.616Z</time>
      </trkpt>
      <trkpt lat="38.99970333" lon="-0.392105">
        <ele>236.973</ele>
        <time>2020-02-08T08:45:48.616Z</time>
      </trkpt>
      <trkpt lat="38.99970333" lon="-0.392105">
        <ele>236.973</ele>
        <time>2020-02-08T08:45:49.616Z</time>
      </trkpt>
      <trkpt lat="38.99970167" lon="-0.392125">
        <ele>236.973</ele>
        <time>2020-02-08T08:45:50.616Z</time>
      </trkpt>
      <trkpt lat="38.99970167" lon="-0.392135">
        <ele>236.973</ele>
        <time>2020-02-08T08:45:51.616Z</time>
      </trkpt>
      <trkpt lat="38.99970167" lon="-0.392135">
        <ele>236.973</ele>
        <time>2020-02-08T08:45:52.616Z</time>
      </trkpt>
      <trkpt lat="38.999705" lon="-0.392145">
        <ele>236.973</ele>
        <time>2020-02-08T08:45:53.616Z</time>
      </trkpt>
      <trkpt lat="38.999705" lon="-0.392145">
        <ele>236.973</ele>
        <time>2020-02-08T08:45:54.616Z</time>
      </trkpt>
      <trkpt lat="38.999705" lon="-0.392145">
        <ele>236.973</ele>
        <time>2020-02-08T08:45:55.616Z</time>
      </trkpt>
      <trkpt lat="38.999705" lon="-0.392145">
        <ele>236.973</ele>
        <time>2020-02-08T08:45:56.616Z</time>
      </trkpt>
      <trkpt lat="38.99970667" lon="-0.392145">
        <ele>236.973</ele>
        <time>2020-02-08T08:45:57.616Z</time>
      </trkpt>
      <trkpt lat="38.99970667" lon="-0.392145">
        <ele>236.973</ele>
        <time>2020-02-08T08:45:58.616Z</time>
      </trkpt>
      <trkpt lat="38.99969" lon="-0.39216667">
        <ele>236.973</ele>
        <time>2020-02-08T08:46:01.124Z</time>
      </trkpt>
      <trkpt lat="38.99969" lon="-0.39216667">
        <ele>236.973</ele>
        <time>2020-02-08T08:46:02.124Z</time>
      </trkpt>
      <trkpt lat="38.99968167" lon="-0.392175">
        <ele>236.973</ele>
        <time>2020-02-08T08:46:03.124Z</time>
      </trkpt>
      <trkpt lat="38.99968167" lon="-0.392175">
        <ele>236.973</ele>
        <time>2020-02-08T08:46:04.124Z</time>
      </trkpt>
      <trkpt lat="38.99968333" lon="-0.39219667">
        <ele>236.973</ele>
        <time>2020-02-08T08:46:05.124Z</time>
      </trkpt>
      <trkpt lat="38.99968333" lon="-0.39219667">
        <ele>236.973</ele>
        <time>2020-02-08T08:46:06.124Z</time>
      </trkpt>
      <trkpt lat="38.999675" lon="-0.39220167">
        <ele>236.973</ele>
        <time>2020-02-08T08:46:07.124Z</time>
      </trkpt>
      <trkpt lat="38.999675" lon="-0.39220167">
        <ele>236.973</ele>
        <time>2020-02-08T08:46:08.124Z</time>
      </trkpt>
      <trkpt lat="38.999675" lon="-0.392215">
        <ele>236.973</ele>
        <time>2020-02-08T08:46:09.124Z</time>
      </trkpt>
      <trkpt lat="38.999675" lon="-0.392215">
        <ele>234.973</ele>
        <time>2020-02-08T08:46:10.124Z</time>
      </trkpt>
      <trkpt lat="38.99967167" lon="-0.39222833">
        <ele>234.973</ele>
        <time>2020-02-08T08:46:11.124Z</time>
      </trkpt>
      <trkpt lat="38.99967167" lon="-0.39222833">
        <ele>234.973</ele>
        <time>2020-02-08T08:46:12.124Z</time>
      </trkpt>
      <trkpt lat="38.99967333" lon="-0.39225167">
        <ele>234.973</ele>
        <time>2020-02-08T08:46:13.124Z</time>
      </trkpt>
      <trkpt lat="38.99967333" lon="-0.39225167">
        <ele>234.973</ele>
        <time>2020-02-08T08:46:14.124Z</time>
      </trkpt>
      <trkpt lat="38.99967167" lon="-0.39227667">
        <ele>234.973</ele>
        <time>2020-02-08T08:46:15.124Z</time>
      </trkpt>
      <trkpt lat="38.99967167" lon="-0.39227667">
        <ele>234.973</ele>
        <time>2020-02-08T08:46:16.124Z</time>
      </trkpt>
      <trkpt lat="38.99966667" lon="-0.39230833">
        <ele>234.973</ele>
        <time>2020-02-08T08:46:17.124Z</time>
      </trkpt>
      <trkpt lat="38.99966667" lon="-0.39230833">
        <ele>234.973</ele>
        <time>2020-02-08T08:46:18.124Z</time>
      </trkpt>
      <trkpt lat="38.99966167" lon="-0.39233833">
        <ele>233.973</ele>
        <time>2020-02-08T08:46:19.124Z</time>
      </trkpt>
      <trkpt lat="38.99966167" lon="-0.39233833">
        <ele>233.973</ele>
        <time>2020-02-08T08:46:20.124Z</time>
      </trkpt>
      <trkpt lat="38.99965667" lon="-0.39235167">
        <ele>233.973</ele>
        <time>2020-02-08T08:46:21.124Z</time>
      </trkpt>
      <trkpt lat="38.99965667" lon="-0.39235167">
        <ele>233.973</ele>
        <time>2020-02-08T08:46:22.124Z</time>
      </trkpt>
      <trkpt lat="38.99964833" lon="-0.39235667">
        <ele>233.973</ele>
        <time>2020-02-08T08:46:23.124Z</time>
      </trkpt>
      <trkpt lat="38.99964833" lon="-0.39235667">
        <ele>233.973</ele>
        <time>2020-02-08T08:46:24.124Z</time>
      </trkpt>
      <trkpt lat="38.99964167" lon="-0.39235333">
        <ele>233.973</ele>
        <time>2020-02-08T08:46:25.124Z</time>
      </trkpt>
      <trkpt lat="38.99964167" lon="-0.39235333">
        <ele>233.973</ele>
        <time>2020-02-08T08:46:26.124Z</time>
      </trkpt>
      <trkpt lat="38.99964167" lon="-0.39235333">
        <ele>233.973</ele>
        <time>2020-02-08T08:46:27.124Z</time>
      </trkpt>
      <trkpt lat="38.99964167" lon="-0.39235333">
        <ele>233.973</ele>
        <time>2020-02-08T08:46:29.657Z</time>
      </trkpt>
      <trkpt lat="38.99959833" lon="-0.39236333">
        <ele>233.973</ele>
        <time>2020-02-08T08:46:30.657Z</time>
      </trkpt>
      <trkpt lat="38.999595" lon="-0.392365">
        <ele>233.973</ele>
        <time>2020-02-08T08:46:31.657Z</time>
      </trkpt>
      <trkpt lat="38.999595" lon="-0.392365">
        <ele>233.973</ele>
        <time>2020-02-08T08:46:32.657Z</time>
      </trkpt>
      <trkpt lat="38.999575" lon="-0.39237667">
        <ele>233.973</ele>
        <time>2020-02-08T08:46:33.657Z</time>
      </trkpt>
      <trkpt lat="38.999575" lon="-0.39237667">
        <ele>233.973</ele>
        <time>2020-02-08T08:46:34.657Z</time>
      </trkpt>
      <trkpt lat="38.999555" lon="-0.39238333">
        <ele>233.973</ele>
        <time>2020-02-08T08:46:35.657Z</time>
      </trkpt>
      <trkpt lat="38.999555" lon="-0.39238333">
        <ele>233.973</ele>
        <time>2020-02-08T08:46:36.657Z</time>
      </trkpt>
      <trkpt lat="38.99954833" lon="-0.392385">
        <ele>232.973</ele>
        <time>2020-02-08T08:46:37.657Z</time>
      </trkpt>
      <trkpt lat="38.99954833" lon="-0.392385">
        <ele>232.973</ele>
        <time>2020-02-08T08:46:38.657Z</time>
      </trkpt>
      <trkpt lat="38.99954667" lon="-0.39239">
        <ele>232.973</ele>
        <time>2020-02-08T08:46:39.657Z</time>
      </trkpt>
      <trkpt lat="38.99954667" lon="-0.39239">
        <ele>232.973</ele>
        <time>2020-02-08T08:46:40.657Z</time>
      </trkpt>
      <trkpt lat="38.99953667" lon="-0.392405">
        <ele>232.973</ele>
        <time>2020-02-08T08:46:41.657Z</time>
      </trkpt>
      <trkpt lat="38.99953667" lon="-0.392405">
        <ele>232.973</ele>
        <time>2020-02-08T08:46:42.657Z</time>
      </trkpt>
      <trkpt lat="38.99952167" lon="-0.39242833">
        <ele>232.973</ele>
        <time>2020-02-08T08:46:43.657Z</time>
      </trkpt>
      <trkpt lat="38.99952167" lon="-0.39242833">
        <ele>232.973</ele>
        <time>2020-02-08T08:46:44.657Z</time>
      </trkpt>
      <trkpt lat="38.99951333" lon="-0.39245333">
        <ele>232.973</ele>
        <time>2020-02-08T08:46:45.657Z</time>
      </trkpt>
      <trkpt lat="38.99951167" lon="-0.39246833">
        <ele>231.973</ele>
        <time>2020-02-08T08:46:46.657Z</time>
      </trkpt>
      <trkpt lat="38.99951167" lon="-0.39246833">
        <ele>231.973</ele>
        <time>2020-02-08T08:46:47.657Z</time>
      </trkpt>
      <trkpt lat="38.99951833" lon="-0.39249667">
        <ele>231.973</ele>
        <time>2020-02-08T08:46:48.657Z</time>
      </trkpt>
      <trkpt lat="38.99951833" lon="-0.39249667">
        <ele>231.973</ele>
        <time>2020-02-08T08:46:49.657Z</time>
      </trkpt>
      <trkpt lat="38.99951667" lon="-0.39252333">
        <ele>231.973</ele>
        <time>2020-02-08T08:46:50.657Z</time>
      </trkpt>
      <trkpt lat="38.99951833" lon="-0.39253333">
        <ele>231.973</ele>
        <time>2020-02-08T08:46:51.657Z</time>
      </trkpt>
      <trkpt lat="38.99951833" lon="-0.39253333">
        <ele>231.973</ele>
        <time>2020-02-08T08:46:52.657Z</time>
      </trkpt>
      <trkpt lat="38.99953" lon="-0.39255833">
        <ele>231.973</ele>
        <time>2020-02-08T08:46:53.657Z</time>
      </trkpt>
      <trkpt lat="38.99953" lon="-0.39255833">
        <ele>230.973</ele>
        <time>2020-02-08T08:46:54.657Z</time>
      </trkpt>
      <trkpt lat="38.99953333" lon="-0.39257">
        <ele>230.973</ele>
        <time>2020-02-08T08:46:55.657Z</time>
      </trkpt>
      <trkpt lat="38.99953333" lon="-0.39257">
        <ele>230.973</ele>
        <time>2020-02-08T08:46:56.657Z</time>
      </trkpt>
      <trkpt lat="38.99953667" lon="-0.392575">
        <ele>230.973</ele>
        <time>2020-02-08T08:46:57.657Z</time>
      </trkpt>
      <trkpt lat="38.99953667" lon="-0.392575">
        <ele>230.973</ele>
        <time>2020-02-08T08:46:58.657Z</time>
      </trkpt>
      <trkpt lat="38.99953667" lon="-0.392575">
        <ele>230.973</ele>
        <time>2020-02-08T08:46:59.657Z</time>
      </trkpt>
      <trkpt lat="38.99953667" lon="-0.392575">
        <ele>230.973</ele>
        <time>2020-02-08T08:47:00.657Z</time>
      </trkpt>
      <trkpt lat="38.99953667" lon="-0.392575">
        <ele>230.973</ele>
        <time>2020-02-08T08:47:01.657Z</time>
      </trkpt>
      <trkpt lat="38.99953667" lon="-0.392575">
        <ele>230.973</ele>
        <time>2020-02-08T08:47:04.162Z</time>
      </trkpt>
      <trkpt lat="38.99953667" lon="-0.392575">
        <ele>230.973</ele>
        <time>2020-02-08T08:47:05.162Z</time>
      </trkpt>
      <trkpt lat="38.99955" lon="-0.39261667">
        <ele>230.973</ele>
        <time>2020-02-08T08:47:06.162Z</time>
      </trkpt>
      <trkpt lat="38.99955333" lon="-0.39262">
        <ele>230.973</ele>
        <time>2020-02-08T08:47:07.162Z</time>
      </trkpt>
      <trkpt lat="38.99955333" lon="-0.39262">
        <ele>230.973</ele>
        <time>2020-02-08T08:47:08.162Z</time>
      </trkpt>
      <trkpt lat="38.99956833" lon="-0.39263333">
        <ele>230.973</ele>
        <time>2020-02-08T08:47:09.162Z</time>
      </trkpt>
      <trkpt lat="38.99957833" lon="-0.392645">
        <ele>230.973</ele>
        <time>2020-02-08T08:47:10.162Z</time>
      </trkpt>
      <trkpt lat="38.99957833" lon="-0.392645">
        <ele>229.973</ele>
        <time>2020-02-08T08:47:11.162Z</time>
      </trkpt>
      <trkpt lat="38.99959333" lon="-0.39266167">
        <ele>229.973</ele>
        <time>2020-02-08T08:47:12.162Z</time>
      </trkpt>
      <trkpt lat="38.999605" lon="-0.39267333">
        <ele>229.973</ele>
        <time>2020-02-08T08:47:13.162Z</time>
      </trkpt>
      <trkpt lat="38.999605" lon="-0.39267333">
        <ele>229.973</ele>
        <time>2020-02-08T08:47:14.162Z</time>
      </trkpt>
      <trkpt lat="38.99963667" lon="-0.39269">
        <ele>229.973</ele>
        <time>2020-02-08T08:47:15.162Z</time>
      </trkpt>
      <trkpt lat="38.99963667" lon="-0.39269">
        <ele>229.973</ele>
        <time>2020-02-08T08:47:16.162Z</time>
      </trkpt>
      <trkpt lat="38.99965167" lon="-0.3927">
        <ele>229.973</ele>
        <time>2020-02-08T08:47:17.162Z</time>
      </trkpt>
      <trkpt lat="38.99965167" lon="-0.3927">
        <ele>229.973</ele>
        <time>2020-02-08T08:47:18.162Z</time>
      </trkpt>
      <trkpt lat="38.99966" lon="-0.39273167">
        <ele>229.973</ele>
        <time>2020-02-08T08:47:19.162Z</time>
      </trkpt>
      <trkpt lat="38.99966" lon="-0.39273167">
        <ele>229.973</ele>
        <time>2020-02-08T08:47:20.162Z</time>
      </trkpt>
      <trkpt lat="38.99966667" lon="-0.39275333">
        <ele>229.973</ele>
        <time>2020-02-08T08:47:21.162Z</time>
      </trkpt>
      <trkpt lat="38.99966667" lon="-0.39275333">
        <ele>229.973</ele>
        <time>2020-02-08T08:47:22.162Z</time>
      </trkpt>
      <trkpt lat="38.99967667" lon="-0.39278">
        <ele>229.973</ele>
        <time>2020-02-08T08:47:23.162Z</time>
      </trkpt>
      <trkpt lat="38.99968333" lon="-0.39279667">
        <ele>229.973</ele>
        <time>2020-02-08T08:47:24.162Z</time>
      </trkpt>
      <trkpt lat="38.99968333" lon="-0.39279667">
        <ele>228.973</ele>
        <time>2020-02-08T08:47:25.162Z</time>
      </trkpt>
      <trkpt lat="38.99968333" lon="-0.39282333">
        <ele>228.973</ele>
        <time>2020-02-08T08:47:26.162Z</time>
      </trkpt>
      <trkpt lat="38.99968667" lon="-0.39283833">
        <ele>228.973</ele>
        <time>2020-02-08T08:47:27.162Z</time>
      </trkpt>
      <trkpt lat="38.99968667" lon="-0.39283833">
        <ele>228.973</ele>
        <time>2020-02-08T08:47:28.162Z</time>
      </trkpt>
      <trkpt lat="38.99969333" lon="-0.39286667">
        <ele>228.973</ele>
        <time>2020-02-08T08:47:29.162Z</time>
      </trkpt>
      <trkpt lat="38.99969667" lon="-0.392875">
        <ele>227.973</ele>
        <time>2020-02-08T08:47:30.162Z</time>
      </trkpt>
      <trkpt lat="38.99969833" lon="-0.39288167">
        <ele>227.973</ele>
        <time>2020-02-08T08:47:31.162Z</time>
      </trkpt>
      <trkpt lat="38.99969833" lon="-0.39288167">
        <ele>227.973</ele>
        <time>2020-02-08T08:47:32.162Z</time>
      </trkpt>
      <trkpt lat="38.99969667" lon="-0.392895">
        <ele>227.973</ele>
        <time>2020-02-08T08:47:33.162Z</time>
      </trkpt>
      <trkpt lat="38.99970167" lon="-0.39289667">
        <ele>227.973</ele>
        <time>2020-02-08T08:47:34.162Z</time>
      </trkpt>
      <trkpt lat="38.99970167" lon="-0.39289667">
        <ele>227.973</ele>
        <time>2020-02-08T08:47:35.162Z</time>
      </trkpt>
      <trkpt lat="38.99970833" lon="-0.39290333">
        <ele>227.973</ele>
        <time>2020-02-08T08:47:36.162Z</time>
      </trkpt>
      <trkpt lat="38.99970833" lon="-0.39290333">
        <ele>227.973</ele>
        <time>2020-02-08T08:47:37.162Z</time>
      </trkpt>
      <trkpt lat="38.99971167" lon="-0.39292">
        <ele>227.973</ele>
        <time>2020-02-08T08:47:38.162Z</time>
      </trkpt>
      <trkpt lat="38.99970833" lon="-0.39292667">
        <ele>227.973</ele>
        <time>2020-02-08T08:47:39.162Z</time>
      </trkpt>
      <trkpt lat="38.99970833" lon="-0.39292667">
        <ele>227.973</ele>
        <time>2020-02-08T08:47:40.162Z</time>
      </trkpt>
      <trkpt lat="38.99970167" lon="-0.39294667">
        <ele>227.973</ele>
        <time>2020-02-08T08:47:41.162Z</time>
      </trkpt>
      <trkpt lat="38.99969833" lon="-0.392955">
        <ele>227.973</ele>
        <time>2020-02-08T08:47:42.162Z</time>
      </trkpt>
      <trkpt lat="38.99969833" lon="-0.392955">
        <ele>227.973</ele>
        <time>2020-02-08T08:47:43.162Z</time>
      </trkpt>
      <trkpt lat="38.99969667" lon="-0.39297">
        <ele>227.973</ele>
        <time>2020-02-08T08:47:44.162Z</time>
      </trkpt>
      <trkpt lat="38.99970833" lon="-0.39298833">
        <ele>227.973</ele>
        <time>2020-02-08T08:47:45.162Z</time>
      </trkpt>
      <trkpt lat="38.99970833" lon="-0.39298833">
        <ele>227.973</ele>
        <time>2020-02-08T08:47:46.162Z</time>
      </trkpt>
      <trkpt lat="38.99971" lon="-0.39300833">
        <ele>227.973</ele>
        <time>2020-02-08T08:47:47.162Z</time>
      </trkpt>
      <trkpt lat="38.99971" lon="-0.39300833">
        <ele>227.973</ele>
        <time>2020-02-08T08:47:48.162Z</time>
      </trkpt>
      <trkpt lat="38.99971333" lon="-0.393025">
        <ele>227.973</ele>
        <time>2020-02-08T08:47:49.162Z</time>
      </trkpt>
      <trkpt lat="38.99971333" lon="-0.393025">
        <ele>227.973</ele>
        <time>2020-02-08T08:47:50.162Z</time>
      </trkpt>
      <trkpt lat="38.99971333" lon="-0.39305">
        <ele>227.973</ele>
        <time>2020-02-08T08:47:51.162Z</time>
      </trkpt>
      <trkpt lat="38.99971333" lon="-0.39305">
        <ele>227.973</ele>
        <time>2020-02-08T08:47:52.162Z</time>
      </trkpt>
      <trkpt lat="38.99971167" lon="-0.39307833">
        <ele>227.973</ele>
        <time>2020-02-08T08:47:53.162Z</time>
      </trkpt>
      <trkpt lat="38.99971167" lon="-0.39307833">
        <ele>227.973</ele>
        <time>2020-02-08T08:47:54.162Z</time>
      </trkpt>
      <trkpt lat="38.99971333" lon="-0.39310833">
        <ele>227.973</ele>
        <time>2020-02-08T08:47:55.162Z</time>
      </trkpt>
      <trkpt lat="38.99971333" lon="-0.39312167">
        <ele>227.973</ele>
        <time>2020-02-08T08:47:56.162Z</time>
      </trkpt>
      <trkpt lat="38.99971667" lon="-0.39314">
        <ele>227.973</ele>
        <time>2020-02-08T08:47:57.162Z</time>
      </trkpt>
      <trkpt lat="38.99971667" lon="-0.39314">
        <ele>227.973</ele>
        <time>2020-02-08T08:47:58.162Z</time>
      </trkpt>
      <trkpt lat="38.999715" lon="-0.39317167">
        <ele>227.973</ele>
        <time>2020-02-08T08:47:59.162Z</time>
      </trkpt>
      <trkpt lat="38.999715" lon="-0.39317167">
        <ele>227.973</ele>
        <time>2020-02-08T08:48:00.162Z</time>
      </trkpt>
      <trkpt lat="38.99970667" lon="-0.39319">
        <ele>227.973</ele>
        <time>2020-02-08T08:48:01.162Z</time>
      </trkpt>
      <trkpt lat="38.99970667" lon="-0.39319">
        <ele>227.973</ele>
        <time>2020-02-08T08:48:02.162Z</time>
      </trkpt>
      <trkpt lat="38.99971" lon="-0.39321333">
        <ele>226.973</ele>
        <time>2020-02-08T08:48:03.162Z</time>
      </trkpt>
      <trkpt lat="38.99971" lon="-0.39321333">
        <ele>226.973</ele>
        <time>2020-02-08T08:48:04.162Z</time>
      </trkpt>
      <trkpt lat="38.999715" lon="-0.39323333">
        <ele>226.973</ele>
        <time>2020-02-08T08:48:05.162Z</time>
      </trkpt>
      <trkpt lat="38.99971333" lon="-0.39324167">
        <ele>226.973</ele>
        <time>2020-02-08T08:48:06.162Z</time>
      </trkpt>
      <trkpt lat="38.99971167" lon="-0.39325">
        <ele>226.973</ele>
        <time>2020-02-08T08:48:07.162Z</time>
      </trkpt>
      <trkpt lat="38.99971167" lon="-0.39325">
        <ele>226.973</ele>
        <time>2020-02-08T08:48:08.162Z</time>
      </trkpt>
      <trkpt lat="38.99971167" lon="-0.393265">
        <ele>226.973</ele>
        <time>2020-02-08T08:48:09.162Z</time>
      </trkpt>
      <trkpt lat="38.999715" lon="-0.39327667">
        <ele>226.973</ele>
        <time>2020-02-08T08:48:10.162Z</time>
      </trkpt>
      <trkpt lat="38.999715" lon="-0.39327667">
        <ele>226.973</ele>
        <time>2020-02-08T08:48:11.162Z</time>
      </trkpt>
      <trkpt lat="38.999725" lon="-0.39329333">
        <ele>226.973</ele>
        <time>2020-02-08T08:48:12.162Z</time>
      </trkpt>
      <trkpt lat="38.99973" lon="-0.39330167">
        <ele>226.973</ele>
        <time>2020-02-08T08:48:13.162Z</time>
      </trkpt>
      <trkpt lat="38.99973" lon="-0.39330167">
        <ele>226.973</ele>
        <time>2020-02-08T08:48:14.162Z</time>
      </trkpt>
      <trkpt lat="38.99973667" lon="-0.39332">
        <ele>226.973</ele>
        <time>2020-02-08T08:48:15.162Z</time>
      </trkpt>
      <trkpt lat="38.99973667" lon="-0.39332">
        <ele>226.973</ele>
        <time>2020-02-08T08:48:16.162Z</time>
      </trkpt>
      <trkpt lat="38.99974" lon="-0.39333333">
        <ele>226.973</ele>
        <time>2020-02-08T08:48:17.162Z</time>
      </trkpt>
      <trkpt lat="38.99974" lon="-0.39333333">
        <ele>226.973</ele>
        <time>2020-02-08T08:48:18.162Z</time>
      </trkpt>
      <trkpt lat="38.99974167" lon="-0.393355">
        <ele>226.973</ele>
        <time>2020-02-08T08:48:19.162Z</time>
      </trkpt>
      <trkpt lat="38.99974167" lon="-0.393355">
        <ele>226.973</ele>
        <time>2020-02-08T08:48:20.162Z</time>
      </trkpt>
      <trkpt lat="38.99974333" lon="-0.393375">
        <ele>226.973</ele>
        <time>2020-02-08T08:48:21.162Z</time>
      </trkpt>
      <trkpt lat="38.99974333" lon="-0.393375">
        <ele>225.973</ele>
        <time>2020-02-08T08:48:22.162Z</time>
      </trkpt>
      <trkpt lat="38.999745" lon="-0.39339333">
        <ele>225.973</ele>
        <time>2020-02-08T08:48:23.162Z</time>
      </trkpt>
      <trkpt lat="38.999745" lon="-0.39339333">
        <ele>225.973</ele>
        <time>2020-02-08T08:48:24.162Z</time>
      </trkpt>
      <trkpt lat="38.99976667" lon="-0.39343667">
        <ele>225.973</ele>
        <time>2020-02-08T08:48:25.162Z</time>
      </trkpt>
      <trkpt lat="38.99976667" lon="-0.39343667">
        <ele>225.973</ele>
        <time>2020-02-08T08:48:26.162Z</time>
      </trkpt>
      <trkpt lat="38.99979333" lon="-0.39350167">
        <ele>225.973</ele>
        <time>2020-02-08T08:48:27.162Z</time>
      </trkpt>
      <trkpt lat="38.99979333" lon="-0.39350167">
        <ele>225.973</ele>
        <time>2020-02-08T08:48:28.162Z</time>
      </trkpt>
      <trkpt lat="38.99982" lon="-0.393555">
        <ele>225.973</ele>
        <time>2020-02-08T08:48:29.162Z</time>
      </trkpt>
      <trkpt lat="38.99982" lon="-0.393555">
        <ele>225.973</ele>
        <time>2020-02-08T08:48:30.162Z</time>
      </trkpt>
      <trkpt lat="38.999835" lon="-0.3936">
        <ele>225.973</ele>
        <time>2020-02-08T08:48:31.162Z</time>
      </trkpt>
      <trkpt lat="38.999835" lon="-0.3936">
        <ele>225.973</ele>
        <time>2020-02-08T08:48:32.162Z</time>
      </trkpt>
      <trkpt lat="38.99984333" lon="-0.39365">
        <ele>225.973</ele>
        <time>2020-02-08T08:48:33.162Z</time>
      </trkpt>
      <trkpt lat="38.99984333" lon="-0.39365">
        <ele>225.973</ele>
        <time>2020-02-08T08:48:34.162Z</time>
      </trkpt>
      <trkpt lat="38.99985333" lon="-0.393695">
        <ele>224.973</ele>
        <time>2020-02-08T08:48:35.162Z</time>
      </trkpt>
      <trkpt lat="38.99985333" lon="-0.393695">
        <ele>224.973</ele>
        <time>2020-02-08T08:48:36.162Z</time>
      </trkpt>
      <trkpt lat="38.99986833" lon="-0.39373">
        <ele>224.973</ele>
        <time>2020-02-08T08:48:37.162Z</time>
      </trkpt>
      <trkpt lat="38.99986833" lon="-0.39373">
        <ele>224.973</ele>
        <time>2020-02-08T08:48:38.162Z</time>
      </trkpt>
      <trkpt lat="38.99987333" lon="-0.39375833">
        <ele>224.973</ele>
        <time>2020-02-08T08:48:39.162Z</time>
      </trkpt>
      <trkpt lat="38.99987333" lon="-0.39375833">
        <ele>224.973</ele>
        <time>2020-02-08T08:48:40.162Z</time>
      </trkpt>
      <trkpt lat="38.99986333" lon="-0.39377333">
        <ele>224.973</ele>
        <time>2020-02-08T08:48:41.162Z</time>
      </trkpt>
      <trkpt lat="38.99986333" lon="-0.39377333">
        <ele>224.973</ele>
        <time>2020-02-08T08:48:42.162Z</time>
      </trkpt>
      <trkpt lat="38.999855" lon="-0.39377833">
        <ele>224.973</ele>
        <time>2020-02-08T08:48:43.162Z</time>
      </trkpt>
      <trkpt lat="38.999855" lon="-0.39377833">
        <ele>224.973</ele>
        <time>2020-02-08T08:48:44.162Z</time>
      </trkpt>
      <trkpt lat="38.99985167" lon="-0.39378">
        <ele>224.973</ele>
        <time>2020-02-08T08:48:45.162Z</time>
      </trkpt>
      <trkpt lat="38.99985167" lon="-0.39378">
        <ele>224.973</ele>
        <time>2020-02-08T08:48:55.168Z</time>
      </trkpt>
      <trkpt lat="38.99985167" lon="-0.39378">
        <ele>224.973</ele>
        <time>2020-02-08T08:48:56.168Z</time>
      </trkpt>
      <trkpt lat="38.99985667" lon="-0.393805">
        <ele>224.973</ele>
        <time>2020-02-08T08:48:57.168Z</time>
      </trkpt>
      <trkpt lat="38.99985667" lon="-0.393805">
        <ele>224.973</ele>
        <time>2020-02-08T08:49:29.678Z</time>
      </trkpt>
      <trkpt lat="38.99985667" lon="-0.393805">
        <ele>224.973</ele>
        <time>2020-02-08T08:49:30.678Z</time>
      </trkpt>
      <trkpt lat="38.99990167" lon="-0.393925">
        <ele>224.973</ele>
        <time>2020-02-08T08:49:31.678Z</time>
      </trkpt>
      <trkpt lat="38.99990167" lon="-0.393925">
        <ele>224.973</ele>
        <time>2020-02-08T08:49:32.678Z</time>
      </trkpt>
      <trkpt lat="38.99991" lon="-0.393925">
        <ele>224.973</ele>
        <time>2020-02-08T08:49:33.678Z</time>
      </trkpt>
      <trkpt lat="38.99991" lon="-0.393925">
        <ele>224.973</ele>
        <time>2020-02-08T08:49:34.678Z</time>
      </trkpt>
      <trkpt lat="38.99991833" lon="-0.39392167">
        <ele>224.973</ele>
        <time>2020-02-08T08:49:35.678Z</time>
      </trkpt>
      <trkpt lat="38.99991833" lon="-0.39392167">
        <ele>224.973</ele>
        <time>2020-02-08T08:49:36.678Z</time>
      </trkpt>
      <trkpt lat="38.99992333" lon="-0.393925">
        <ele>224.973</ele>
        <time>2020-02-08T08:49:37.678Z</time>
      </trkpt>
      <trkpt lat="38.99992333" lon="-0.393925">
        <ele>224.973</ele>
        <time>2020-02-08T08:49:38.678Z</time>
      </trkpt>
      <trkpt lat="38.99991833" lon="-0.39392333">
        <ele>224.973</ele>
        <time>2020-02-08T08:49:39.678Z</time>
      </trkpt>
      <trkpt lat="38.99991833" lon="-0.39392333">
        <ele>224.973</ele>
        <time>2020-02-08T08:49:40.678Z</time>
      </trkpt>
      <trkpt lat="38.99991667" lon="-0.39392333">
        <ele>224.973</ele>
        <time>2020-02-08T08:49:41.678Z</time>
      </trkpt>
      <trkpt lat="38.99991667" lon="-0.39392333">
        <ele>224.973</ele>
        <time>2020-02-08T08:49:42.678Z</time>
      </trkpt>
      <trkpt lat="38.99991667" lon="-0.39392333">
        <ele>224.973</ele>
        <time>2020-02-08T08:49:46.683Z</time>
      </trkpt>
      <trkpt lat="38.99995" lon="-0.39395667">
        <ele>224.973</ele>
        <time>2020-02-08T08:49:47.683Z</time>
      </trkpt>
      <trkpt lat="38.99995" lon="-0.39395667">
        <ele>223.973</ele>
        <time>2020-02-08T08:49:48.683Z</time>
      </trkpt>
      <trkpt lat="38.999955" lon="-0.39396333">
        <ele>223.973</ele>
        <time>2020-02-08T08:49:49.683Z</time>
      </trkpt>
      <trkpt lat="38.999955" lon="-0.39396333">
        <ele>223.973</ele>
        <time>2020-02-08T08:49:50.683Z</time>
      </trkpt>
      <trkpt lat="38.99995833" lon="-0.39397">
        <ele>223.973</ele>
        <time>2020-02-08T08:49:51.683Z</time>
      </trkpt>
      <trkpt lat="38.99995833" lon="-0.39397">
        <ele>222.973</ele>
        <time>2020-02-08T08:49:52.683Z</time>
      </trkpt>
      <trkpt lat="38.99996833" lon="-0.393985">
        <ele>222.973</ele>
        <time>2020-02-08T08:49:53.683Z</time>
      </trkpt>
      <trkpt lat="38.99997333" lon="-0.393995">
        <ele>222.973</ele>
        <time>2020-02-08T08:49:54.683Z</time>
      </trkpt>
      <trkpt lat="38.99997333" lon="-0.393995">
        <ele>222.973</ele>
        <time>2020-02-08T08:49:55.683Z</time>
      </trkpt>
      <trkpt lat="38.99998833" lon="-0.394015">
        <ele>222.973</ele>
        <time>2020-02-08T08:49:56.683Z</time>
      </trkpt>
      <trkpt lat="38.99998833" lon="-0.394015">
        <ele>222.973</ele>
        <time>2020-02-08T08:49:57.683Z</time>
      </trkpt>
      <trkpt lat="39.00000333" lon="-0.39403167">
        <ele>221.973</ele>
        <time>2020-02-08T08:49:58.683Z</time>
      </trkpt>
      <trkpt lat="39.00000333" lon="-0.39403167">
        <ele>221.973</ele>
        <time>2020-02-08T08:49:59.683Z</time>
      </trkpt>
      <trkpt lat="39.00002167" lon="-0.39405">
        <ele>221.973</ele>
        <time>2020-02-08T08:50:00.683Z</time>
      </trkpt>
      <trkpt lat="39.00003333" lon="-0.39405833">
        <ele>221.973</ele>
        <time>2020-02-08T08:50:01.683Z</time>
      </trkpt>
      <trkpt lat="39.00003333" lon="-0.39405833">
        <ele>221.973</ele>
        <time>2020-02-08T08:50:02.683Z</time>
      </trkpt>
      <trkpt lat="39.00005" lon="-0.394075">
        <ele>221.973</ele>
        <time>2020-02-08T08:50:03.683Z</time>
      </trkpt>
      <trkpt lat="39.00005" lon="-0.394075">
        <ele>220.973</ele>
        <time>2020-02-08T08:50:04.683Z</time>
      </trkpt>
      <trkpt lat="39.00006667" lon="-0.39408667">
        <ele>220.973</ele>
        <time>2020-02-08T08:50:05.683Z</time>
      </trkpt>
      <trkpt lat="39.00006667" lon="-0.39408667">
        <ele>220.973</ele>
        <time>2020-02-08T08:50:06.683Z</time>
      </trkpt>
      <trkpt lat="39.000085" lon="-0.39410167">
        <ele>220.973</ele>
        <time>2020-02-08T08:50:07.683Z</time>
      </trkpt>
      <trkpt lat="39.000085" lon="-0.39410167">
        <ele>220.973</ele>
        <time>2020-02-08T08:50:08.683Z</time>
      </trkpt>
      <trkpt lat="39.0001" lon="-0.39412167">
        <ele>220.973</ele>
        <time>2020-02-08T08:50:09.683Z</time>
      </trkpt>
      <trkpt lat="39.0001" lon="-0.39412167">
        <ele>220.973</ele>
        <time>2020-02-08T08:50:10.683Z</time>
      </trkpt>
      <trkpt lat="39.00011167" lon="-0.39414333">
        <ele>220.973</ele>
        <time>2020-02-08T08:50:11.683Z</time>
      </trkpt>
      <trkpt lat="39.00011167" lon="-0.394145">
        <ele>220.973</ele>
        <time>2020-02-08T08:50:12.683Z</time>
      </trkpt>
      <trkpt lat="39.00011167" lon="-0.394145">
        <ele>220.973</ele>
        <time>2020-02-08T08:50:13.683Z</time>
      </trkpt>
      <trkpt lat="39.00011" lon="-0.39414333">
        <ele>220.973</ele>
        <time>2020-02-08T08:50:14.683Z</time>
      </trkpt>
      <trkpt lat="39.00011" lon="-0.39414333">
        <ele>220.973</ele>
        <time>2020-02-08T08:50:15.683Z</time>
      </trkpt>
      <trkpt lat="39.00011" lon="-0.39414333">
        <ele>220.973</ele>
        <time>2020-02-08T08:50:16.683Z</time>
      </trkpt>
      <trkpt lat="39.00011" lon="-0.39414333">
        <ele>220.973</ele>
        <time>2020-02-08T08:50:19.203Z</time>
      </trkpt>
      <trkpt lat="39.00011" lon="-0.39414333">
        <ele>220.973</ele>
        <time>2020-02-08T08:50:20.203Z</time>
      </trkpt>
      <trkpt lat="39.000155" lon="-0.39418833">
        <ele>220.973</ele>
        <time>2020-02-08T08:50:21.203Z</time>
      </trkpt>
      <trkpt lat="39.000155" lon="-0.39418833">
        <ele>220.973</ele>
        <time>2020-02-08T08:50:22.203Z</time>
      </trkpt>
      <trkpt lat="39.000165" lon="-0.39420667">
        <ele>220.973</ele>
        <time>2020-02-08T08:50:23.203Z</time>
      </trkpt>
      <trkpt lat="39.000165" lon="-0.39420667">
        <ele>220.973</ele>
        <time>2020-02-08T08:50:24.203Z</time>
      </trkpt>
      <trkpt lat="39.00018" lon="-0.39421167">
        <ele>220.973</ele>
        <time>2020-02-08T08:50:25.203Z</time>
      </trkpt>
      <trkpt lat="39.00018" lon="-0.39421167">
        <ele>219.973</ele>
        <time>2020-02-08T08:50:26.203Z</time>
      </trkpt>
      <trkpt lat="39.0002" lon="-0.394215">
        <ele>219.973</ele>
        <time>2020-02-08T08:50:27.203Z</time>
      </trkpt>
      <trkpt lat="39.0002" lon="-0.394215">
        <ele>219.973</ele>
        <time>2020-02-08T08:50:28.203Z</time>
      </trkpt>
      <trkpt lat="39.00021" lon="-0.39423333">
        <ele>219.973</ele>
        <time>2020-02-08T08:50:29.203Z</time>
      </trkpt>
      <trkpt lat="39.00021667" lon="-0.39424667">
        <ele>219.973</ele>
        <time>2020-02-08T08:50:30.203Z</time>
      </trkpt>
      <trkpt lat="39.00021667" lon="-0.39424667">
        <ele>219.973</ele>
        <time>2020-02-08T08:50:31.203Z</time>
      </trkpt>
      <trkpt lat="39.00022667" lon="-0.39427">
        <ele>219.973</ele>
        <time>2020-02-08T08:50:32.203Z</time>
      </trkpt>
      <trkpt lat="39.00023167" lon="-0.39428333">
        <ele>219.973</ele>
        <time>2020-02-08T08:50:33.203Z</time>
      </trkpt>
      <trkpt lat="39.00023167" lon="-0.39428333">
        <ele>219.973</ele>
        <time>2020-02-08T08:50:34.203Z</time>
      </trkpt>
      <trkpt lat="39.000245" lon="-0.39430667">
        <ele>219.973</ele>
        <time>2020-02-08T08:50:35.203Z</time>
      </trkpt>
      <trkpt lat="39.000255" lon="-0.39431667">
        <ele>219.973</ele>
        <time>2020-02-08T08:50:36.203Z</time>
      </trkpt>
      <trkpt lat="39.000255" lon="-0.39431667">
        <ele>219.973</ele>
        <time>2020-02-08T08:50:37.203Z</time>
      </trkpt>
      <trkpt lat="39.00026833" lon="-0.39432833">
        <ele>219.973</ele>
        <time>2020-02-08T08:50:38.203Z</time>
      </trkpt>
      <trkpt lat="39.00027333" lon="-0.39433833">
        <ele>219.973</ele>
        <time>2020-02-08T08:50:39.203Z</time>
      </trkpt>
      <trkpt lat="39.00027333" lon="-0.39433833">
        <ele>219.973</ele>
        <time>2020-02-08T08:50:40.203Z</time>
      </trkpt>
      <trkpt lat="39.000285" lon="-0.39436">
        <ele>219.973</ele>
        <time>2020-02-08T08:50:41.203Z</time>
      </trkpt>
      <trkpt lat="39.000285" lon="-0.39436">
        <ele>219.973</ele>
        <time>2020-02-08T08:50:42.203Z</time>
      </trkpt>
      <trkpt lat="39.00029" lon="-0.39438333">
        <ele>219.973</ele>
        <time>2020-02-08T08:50:43.203Z</time>
      </trkpt>
      <trkpt lat="39.00029" lon="-0.39438333">
        <ele>219.973</ele>
        <time>2020-02-08T08:50:44.203Z</time>
      </trkpt>
      <trkpt lat="39.00029167" lon="-0.39439667">
        <ele>219.973</ele>
        <time>2020-02-08T08:50:45.203Z</time>
      </trkpt>
      <trkpt lat="39.00029167" lon="-0.39439667">
        <ele>219.973</ele>
        <time>2020-02-08T08:50:46.203Z</time>
      </trkpt>
      <trkpt lat="39.00029833" lon="-0.39440833">
        <ele>219.973</ele>
        <time>2020-02-08T08:50:47.203Z</time>
      </trkpt>
      <trkpt lat="39.00029833" lon="-0.39440833">
        <ele>219.973</ele>
        <time>2020-02-08T08:50:48.203Z</time>
      </trkpt>
      <trkpt lat="39.00031333" lon="-0.39441833">
        <ele>219.973</ele>
        <time>2020-02-08T08:50:49.203Z</time>
      </trkpt>
      <trkpt lat="39.00031333" lon="-0.39441833">
        <ele>219.973</ele>
        <time>2020-02-08T08:50:50.203Z</time>
      </trkpt>
      <trkpt lat="39.00032333" lon="-0.39442333">
        <ele>219.973</ele>
        <time>2020-02-08T08:50:51.203Z</time>
      </trkpt>
      <trkpt lat="39.00032333" lon="-0.39442333">
        <ele>219.973</ele>
        <time>2020-02-08T08:50:52.203Z</time>
      </trkpt>
      <trkpt lat="39.00034167" lon="-0.39444667">
        <ele>219.973</ele>
        <time>2020-02-08T08:50:53.203Z</time>
      </trkpt>
      <trkpt lat="39.00034167" lon="-0.39444667">
        <ele>219.973</ele>
        <time>2020-02-08T08:50:54.203Z</time>
      </trkpt>
      <trkpt lat="39.000385" lon="-0.39449333">
        <ele>219.973</ele>
        <time>2020-02-08T08:50:55.203Z</time>
      </trkpt>
      <trkpt lat="39.000385" lon="-0.39449333">
        <ele>219.973</ele>
        <time>2020-02-08T08:50:56.203Z</time>
      </trkpt>
      <trkpt lat="39.00041333" lon="-0.39453333">
        <ele>219.973</ele>
        <time>2020-02-08T08:50:57.203Z</time>
      </trkpt>
      <trkpt lat="39.00041333" lon="-0.39453333">
        <ele>219.973</ele>
        <time>2020-02-08T08:50:58.203Z</time>
      </trkpt>
      <trkpt lat="39.000455" lon="-0.39458">
        <ele>219.973</ele>
        <time>2020-02-08T08:50:59.203Z</time>
      </trkpt>
      <trkpt lat="39.000455" lon="-0.39458">
        <ele>219.973</ele>
        <time>2020-02-08T08:51:00.203Z</time>
      </trkpt>
      <trkpt lat="39.000495" lon="-0.39464167">
        <ele>219.973</ele>
        <time>2020-02-08T08:51:01.203Z</time>
      </trkpt>
      <trkpt lat="39.000495" lon="-0.39464167">
        <ele>219.973</ele>
        <time>2020-02-08T08:51:02.203Z</time>
      </trkpt>
      <trkpt lat="39.00053833" lon="-0.394715">
        <ele>219.973</ele>
        <time>2020-02-08T08:51:03.203Z</time>
      </trkpt>
      <trkpt lat="39.00053833" lon="-0.394715">
        <ele>219.973</ele>
        <time>2020-02-08T08:51:04.203Z</time>
      </trkpt>
      <trkpt lat="39.00058333" lon="-0.39479333">
        <ele>219.973</ele>
        <time>2020-02-08T08:51:05.203Z</time>
      </trkpt>
      <trkpt lat="39.00058333" lon="-0.39479333">
        <ele>219.973</ele>
        <time>2020-02-08T08:51:06.203Z</time>
      </trkpt>
      <trkpt lat="39.00059833" lon="-0.39489167">
        <ele>219.973</ele>
        <time>2020-02-08T08:51:07.203Z</time>
      </trkpt>
      <trkpt lat="39.00059833" lon="-0.39489167">
        <ele>219.973</ele>
        <time>2020-02-08T08:51:08.203Z</time>
      </trkpt>
      <trkpt lat="39.00061" lon="-0.39500667">
        <ele>219.973</ele>
        <time>2020-02-08T08:51:09.203Z</time>
      </trkpt>
      <trkpt lat="39.00061" lon="-0.39500667">
        <ele>219.973</ele>
        <time>2020-02-08T08:51:10.203Z</time>
      </trkpt>
      <trkpt lat="39.00061167" lon="-0.39512667">
        <ele>219.973</ele>
        <time>2020-02-08T08:51:11.203Z</time>
      </trkpt>
      <trkpt lat="39.00061167" lon="-0.39512667">
        <ele>219.973</ele>
        <time>2020-02-08T08:51:12.203Z</time>
      </trkpt>
      <trkpt lat="39.00062667" lon="-0.39526">
        <ele>219.973</ele>
        <time>2020-02-08T08:51:13.203Z</time>
      </trkpt>
      <trkpt lat="39.00062667" lon="-0.39526">
        <ele>219.973</ele>
        <time>2020-02-08T08:51:14.203Z</time>
      </trkpt>
      <trkpt lat="39.00063667" lon="-0.39535167">
        <ele>219.973</ele>
        <time>2020-02-08T08:51:15.203Z</time>
      </trkpt>
      <trkpt lat="39.00063667" lon="-0.39535167">
        <ele>219.973</ele>
        <time>2020-02-08T08:51:16.203Z</time>
      </trkpt>
      <trkpt lat="39.00064" lon="-0.39538167">
        <ele>220.973</ele>
        <time>2020-02-08T08:51:17.203Z</time>
      </trkpt>
      <trkpt lat="39.00064" lon="-0.39538167">
        <ele>220.973</ele>
        <time>2020-02-08T08:51:18.203Z</time>
      </trkpt>
      <trkpt lat="39.00063333" lon="-0.39540167">
        <ele>221.973</ele>
        <time>2020-02-08T08:51:19.203Z</time>
      </trkpt>
      <trkpt lat="39.00063333" lon="-0.39540167">
        <ele>221.973</ele>
        <time>2020-02-08T08:51:20.203Z</time>
      </trkpt>
      <trkpt lat="39.00062333" lon="-0.39542167">
        <ele>222.973</ele>
        <time>2020-02-08T08:51:21.203Z</time>
      </trkpt>
      <trkpt lat="39.00062333" lon="-0.39542167">
        <ele>222.973</ele>
        <time>2020-02-08T08:51:22.203Z</time>
      </trkpt>
      <trkpt lat="39.00062167" lon="-0.39545">
        <ele>222.973</ele>
        <time>2020-02-08T08:51:23.203Z</time>
      </trkpt>
      <trkpt lat="39.00062167" lon="-0.39545">
        <ele>222.973</ele>
        <time>2020-02-08T08:51:24.203Z</time>
      </trkpt>
      <trkpt lat="39.00063167" lon="-0.39551167">
        <ele>223.973</ele>
        <time>2020-02-08T08:51:25.203Z</time>
      </trkpt>
      <trkpt lat="39.00063167" lon="-0.39551167">
        <ele>223.973</ele>
        <time>2020-02-08T08:51:26.203Z</time>
      </trkpt>
      <trkpt lat="39.00065" lon="-0.39558">
        <ele>223.973</ele>
        <time>2020-02-08T08:51:27.203Z</time>
      </trkpt>
      <trkpt lat="39.00065" lon="-0.39558">
        <ele>223.973</ele>
        <time>2020-02-08T08:51:28.203Z</time>
      </trkpt>
      <trkpt lat="39.00068667" lon="-0.39563833">
        <ele>223.973</ele>
        <time>2020-02-08T08:51:29.203Z</time>
      </trkpt>
      <trkpt lat="39.00068667" lon="-0.39563833">
        <ele>223.973</ele>
        <time>2020-02-08T08:51:30.203Z</time>
      </trkpt>
      <trkpt lat="39.00072833" lon="-0.39569">
        <ele>223.973</ele>
        <time>2020-02-08T08:51:31.203Z</time>
      </trkpt>
      <trkpt lat="39.00072833" lon="-0.39569">
        <ele>222.973</ele>
        <time>2020-02-08T08:51:32.203Z</time>
      </trkpt>
      <trkpt lat="39.000765" lon="-0.39574833">
        <ele>222.973</ele>
        <time>2020-02-08T08:51:33.203Z</time>
      </trkpt>
      <trkpt lat="39.000765" lon="-0.39574833">
        <ele>221.973</ele>
        <time>2020-02-08T08:51:34.203Z</time>
      </trkpt>
      <trkpt lat="39.00079167" lon="-0.39579167">
        <ele>221.973</ele>
        <time>2020-02-08T08:51:35.203Z</time>
      </trkpt>
      <trkpt lat="39.00080667" lon="-0.39580833">
        <ele>220.973</ele>
        <time>2020-02-08T08:51:36.203Z</time>
      </trkpt>
      <trkpt lat="39.00080667" lon="-0.39580833">
        <ele>220.973</ele>
        <time>2020-02-08T08:51:37.203Z</time>
      </trkpt>
      <trkpt lat="39.00083833" lon="-0.395855">
        <ele>219.973</ele>
        <time>2020-02-08T08:51:38.203Z</time>
      </trkpt>
      <trkpt lat="39.00085333" lon="-0.39588">
        <ele>219.973</ele>
        <time>2020-02-08T08:51:39.203Z</time>
      </trkpt>
      <trkpt lat="39.00085333" lon="-0.39588">
        <ele>218.973</ele>
        <time>2020-02-08T08:51:40.203Z</time>
      </trkpt>
      <trkpt lat="39.00088333" lon="-0.39592333">
        <ele>218.973</ele>
        <time>2020-02-08T08:51:41.203Z</time>
      </trkpt>
      <trkpt lat="39.00088333" lon="-0.39592333">
        <ele>217.973</ele>
        <time>2020-02-08T08:51:42.203Z</time>
      </trkpt>
      <trkpt lat="39.00091" lon="-0.395975">
        <ele>217.973</ele>
        <time>2020-02-08T08:51:43.203Z</time>
      </trkpt>
      <trkpt lat="39.00091" lon="-0.395975">
        <ele>217.973</ele>
        <time>2020-02-08T08:51:44.203Z</time>
      </trkpt>
      <trkpt lat="39.00094167" lon="-0.39602833">
        <ele>217.973</ele>
        <time>2020-02-08T08:51:45.203Z</time>
      </trkpt>
      <trkpt lat="39.00094167" lon="-0.39602833">
        <ele>216.973</ele>
        <time>2020-02-08T08:51:46.203Z</time>
      </trkpt>
      <trkpt lat="39.00096167" lon="-0.39606">
        <ele>216.973</ele>
        <time>2020-02-08T08:51:47.203Z</time>
      </trkpt>
      <trkpt lat="39.000965" lon="-0.39607167">
        <ele>215.973</ele>
        <time>2020-02-08T08:51:48.203Z</time>
      </trkpt>
      <trkpt lat="39.00097167" lon="-0.39609167">
        <ele>215.973</ele>
        <time>2020-02-08T08:51:49.203Z</time>
      </trkpt>
      <trkpt lat="39.00097167" lon="-0.39609167">
        <ele>215.973</ele>
        <time>2020-02-08T08:51:50.203Z</time>
      </trkpt>
      <trkpt lat="39.00100667" lon="-0.39614333">
        <ele>215.973</ele>
        <time>2020-02-08T08:51:51.203Z</time>
      </trkpt>
      <trkpt lat="39.00100667" lon="-0.39614333">
        <ele>215.973</ele>
        <time>2020-02-08T08:51:52.203Z</time>
      </trkpt>
      <trkpt lat="39.00103833" lon="-0.39620333">
        <ele>215.973</ele>
        <time>2020-02-08T08:51:53.203Z</time>
      </trkpt>
      <trkpt lat="39.00103833" lon="-0.39620333">
        <ele>215.973</ele>
        <time>2020-02-08T08:51:54.203Z</time>
      </trkpt>
      <trkpt lat="39.00106667" lon="-0.39627333">
        <ele>214.973</ele>
        <time>2020-02-08T08:51:55.203Z</time>
      </trkpt>
      <trkpt lat="39.001085" lon="-0.39631">
        <ele>214.973</ele>
        <time>2020-02-08T08:51:56.203Z</time>
      </trkpt>
      <trkpt lat="39.001085" lon="-0.39631">
        <ele>214.973</ele>
        <time>2020-02-08T08:51:57.203Z</time>
      </trkpt>
      <trkpt lat="39.001125" lon="-0.396395">
        <ele>214.973</ele>
        <time>2020-02-08T08:51:58.203Z</time>
      </trkpt>
      <trkpt lat="39.001125" lon="-0.396395">
        <ele>214.973</ele>
        <time>2020-02-08T08:51:59.203Z</time>
      </trkpt>
      <trkpt lat="39.00116833" lon="-0.39649167">
        <ele>214.973</ele>
        <time>2020-02-08T08:52:00.203Z</time>
      </trkpt>
      <trkpt lat="39.00119167" lon="-0.396535">
        <ele>214.973</ele>
        <time>2020-02-08T08:52:01.203Z</time>
      </trkpt>
      <trkpt lat="39.00119167" lon="-0.396535">
        <ele>214.973</ele>
        <time>2020-02-08T08:52:02.203Z</time>
      </trkpt>
      <trkpt lat="39.00126167" lon="-0.396595">
        <ele>214.973</ele>
        <time>2020-02-08T08:52:03.203Z</time>
      </trkpt>
      <trkpt lat="39.00126167" lon="-0.396595">
        <ele>214.973</ele>
        <time>2020-02-08T08:52:04.203Z</time>
      </trkpt>
      <trkpt lat="39.00133833" lon="-0.39665667">
        <ele>213.973</ele>
        <time>2020-02-08T08:52:05.203Z</time>
      </trkpt>
      <trkpt lat="39.00133833" lon="-0.39665667">
        <ele>213.973</ele>
        <time>2020-02-08T08:52:06.203Z</time>
      </trkpt>
      <trkpt lat="39.00141" lon="-0.396725">
        <ele>213.973</ele>
        <time>2020-02-08T08:52:07.203Z</time>
      </trkpt>
      <trkpt lat="39.00141" lon="-0.396725">
        <ele>213.973</ele>
        <time>2020-02-08T08:52:08.203Z</time>
      </trkpt>
      <trkpt lat="39.001475" lon="-0.39678167">
        <ele>212.973</ele>
        <time>2020-02-08T08:52:09.203Z</time>
      </trkpt>
      <trkpt lat="39.001475" lon="-0.39678167">
        <ele>212.973</ele>
        <time>2020-02-08T08:52:10.203Z</time>
      </trkpt>
      <trkpt lat="39.00153333" lon="-0.39681667">
        <ele>212.973</ele>
        <time>2020-02-08T08:52:11.203Z</time>
      </trkpt>
      <trkpt lat="39.00153333" lon="-0.39681667">
        <ele>212.973</ele>
        <time>2020-02-08T08:52:12.203Z</time>
      </trkpt>
      <trkpt lat="39.00160333" lon="-0.39684333">
        <ele>212.973</ele>
        <time>2020-02-08T08:52:13.203Z</time>
      </trkpt>
      <trkpt lat="39.00160333" lon="-0.39684333">
        <ele>212.973</ele>
        <time>2020-02-08T08:52:14.203Z</time>
      </trkpt>
      <trkpt lat="39.00166833" lon="-0.396865">
        <ele>211.973</ele>
        <time>2020-02-08T08:52:15.203Z</time>
      </trkpt>
      <trkpt lat="39.00166833" lon="-0.396865">
        <ele>211.973</ele>
        <time>2020-02-08T08:52:16.203Z</time>
      </trkpt>
      <trkpt lat="39.00172333" lon="-0.39688667">
        <ele>210.973</ele>
        <time>2020-02-08T08:52:17.203Z</time>
      </trkpt>
      <trkpt lat="39.00172333" lon="-0.39688667">
        <ele>210.973</ele>
        <time>2020-02-08T08:52:18.203Z</time>
      </trkpt>
      <trkpt lat="39.00176167" lon="-0.39691">
        <ele>209.973</ele>
        <time>2020-02-08T08:52:19.203Z</time>
      </trkpt>
      <trkpt lat="39.00176167" lon="-0.39691">
        <ele>209.973</ele>
        <time>2020-02-08T08:52:20.203Z</time>
      </trkpt>
      <trkpt lat="39.00180667" lon="-0.39692">
        <ele>209.973</ele>
        <time>2020-02-08T08:52:21.203Z</time>
      </trkpt>
      <trkpt lat="39.00180667" lon="-0.39692">
        <ele>209.973</ele>
        <time>2020-02-08T08:52:22.203Z</time>
      </trkpt>
      <trkpt lat="39.00184667" lon="-0.39693833">
        <ele>209.973</ele>
        <time>2020-02-08T08:52:23.203Z</time>
      </trkpt>
      <trkpt lat="39.00184667" lon="-0.39693833">
        <ele>207.973</ele>
        <time>2020-02-08T08:52:24.203Z</time>
      </trkpt>
      <trkpt lat="39.00188" lon="-0.39696667">
        <ele>207.973</ele>
        <time>2020-02-08T08:52:25.203Z</time>
      </trkpt>
      <trkpt lat="39.00190333" lon="-0.396985">
        <ele>207.973</ele>
        <time>2020-02-08T08:52:26.203Z</time>
      </trkpt>
      <trkpt lat="39.00192333" lon="-0.39700333">
        <ele>207.973</ele>
        <time>2020-02-08T08:52:27.203Z</time>
      </trkpt>
      <trkpt lat="39.00192333" lon="-0.39700333">
        <ele>207.973</ele>
        <time>2020-02-08T08:52:28.203Z</time>
      </trkpt>
      <trkpt lat="39.00195833" lon="-0.39702667">
        <ele>207.973</ele>
        <time>2020-02-08T08:52:29.203Z</time>
      </trkpt>
      <trkpt lat="39.00195833" lon="-0.39702667">
        <ele>207.973</ele>
        <time>2020-02-08T08:52:30.203Z</time>
      </trkpt>
      <trkpt lat="39.00198167" lon="-0.39704833">
        <ele>207.973</ele>
        <time>2020-02-08T08:52:31.203Z</time>
      </trkpt>
      <trkpt lat="39.00198167" lon="-0.39704833">
        <ele>206.973</ele>
        <time>2020-02-08T08:52:32.203Z</time>
      </trkpt>
      <trkpt lat="39.00201833" lon="-0.39707667">
        <ele>206.973</ele>
        <time>2020-02-08T08:52:33.203Z</time>
      </trkpt>
      <trkpt lat="39.00201833" lon="-0.39707667">
        <ele>206.973</ele>
        <time>2020-02-08T08:52:34.203Z</time>
      </trkpt>
      <trkpt lat="39.00204333" lon="-0.39710667">
        <ele>206.973</ele>
        <time>2020-02-08T08:52:35.203Z</time>
      </trkpt>
      <trkpt lat="39.00204333" lon="-0.39710667">
        <ele>205.973</ele>
        <time>2020-02-08T08:52:36.203Z</time>
      </trkpt>
      <trkpt lat="39.00206" lon="-0.39711833">
        <ele>205.973</ele>
        <time>2020-02-08T08:52:37.203Z</time>
      </trkpt>
      <trkpt lat="39.00206" lon="-0.39711833">
        <ele>205.973</ele>
        <time>2020-02-08T08:52:38.203Z</time>
      </trkpt>
      <trkpt lat="39.00207833" lon="-0.39712">
        <ele>205.973</ele>
        <time>2020-02-08T08:52:39.203Z</time>
      </trkpt>
      <trkpt lat="39.00207833" lon="-0.39712">
        <ele>204.973</ele>
        <time>2020-02-08T08:52:40.203Z</time>
      </trkpt>
      <trkpt lat="39.00210333" lon="-0.39713833">
        <ele>204.973</ele>
        <time>2020-02-08T08:52:41.203Z</time>
      </trkpt>
      <trkpt lat="39.00210333" lon="-0.39713833">
        <ele>204.973</ele>
        <time>2020-02-08T08:52:42.203Z</time>
      </trkpt>
      <trkpt lat="39.00214333" lon="-0.39713667">
        <ele>204.973</ele>
        <time>2020-02-08T08:52:43.203Z</time>
      </trkpt>
      <trkpt lat="39.00215833" lon="-0.39713833">
        <ele>204.973</ele>
        <time>2020-02-08T08:52:44.203Z</time>
      </trkpt>
      <trkpt lat="39.002175" lon="-0.39714667">
        <ele>203.973</ele>
        <time>2020-02-08T08:52:45.203Z</time>
      </trkpt>
      <trkpt lat="39.002175" lon="-0.39714667">
        <ele>203.973</ele>
        <time>2020-02-08T08:52:46.203Z</time>
      </trkpt>
      <trkpt lat="39.00220167" lon="-0.39716">
        <ele>203.973</ele>
        <time>2020-02-08T08:52:47.203Z</time>
      </trkpt>
      <trkpt lat="39.00220167" lon="-0.39716">
        <ele>203.973</ele>
        <time>2020-02-08T08:52:48.203Z</time>
      </trkpt>
      <trkpt lat="39.00224" lon="-0.39717167">
        <ele>202.973</ele>
        <time>2020-02-08T08:52:49.203Z</time>
      </trkpt>
      <trkpt lat="39.00224" lon="-0.39717167">
        <ele>202.973</ele>
        <time>2020-02-08T08:52:50.203Z</time>
      </trkpt>
      <trkpt lat="39.00228167" lon="-0.39719167">
        <ele>202.973</ele>
        <time>2020-02-08T08:52:51.203Z</time>
      </trkpt>
      <trkpt lat="39.00228167" lon="-0.39719167">
        <ele>202.973</ele>
        <time>2020-02-08T08:52:52.203Z</time>
      </trkpt>
      <trkpt lat="39.002315" lon="-0.39720833">
        <ele>201.973</ele>
        <time>2020-02-08T08:52:53.203Z</time>
      </trkpt>
      <trkpt lat="39.002315" lon="-0.39720833">
        <ele>201.973</ele>
        <time>2020-02-08T08:52:54.203Z</time>
      </trkpt>
      <trkpt lat="39.00234833" lon="-0.39722833">
        <ele>201.973</ele>
        <time>2020-02-08T08:52:55.203Z</time>
      </trkpt>
      <trkpt lat="39.00234833" lon="-0.39722833">
        <ele>201.973</ele>
        <time>2020-02-08T08:52:56.203Z</time>
      </trkpt>
      <trkpt lat="39.002375" lon="-0.39724333">
        <ele>201.973</ele>
        <time>2020-02-08T08:52:57.203Z</time>
      </trkpt>
      <trkpt lat="39.00238333" lon="-0.39724667">
        <ele>201.973</ele>
        <time>2020-02-08T08:52:58.203Z</time>
      </trkpt>
      <trkpt lat="39.00238333" lon="-0.39724667">
        <ele>201.973</ele>
        <time>2020-02-08T08:52:59.203Z</time>
      </trkpt>
      <trkpt lat="39.00240667" lon="-0.397265">
        <ele>199.973</ele>
        <time>2020-02-08T08:53:00.203Z</time>
      </trkpt>
      <trkpt lat="39.00239167" lon="-0.39727">
        <ele>199.973</ele>
        <time>2020-02-08T08:53:01.203Z</time>
      </trkpt>
      <trkpt lat="39.00238" lon="-0.39726667">
        <ele>199.973</ele>
        <time>2020-02-08T08:53:02.203Z</time>
      </trkpt>
      <trkpt lat="39.00238" lon="-0.39726667">
        <ele>199.973</ele>
        <time>2020-02-08T08:53:03.203Z</time>
      </trkpt>
      <trkpt lat="39.00240667" lon="-0.39728">
        <ele>199.973</ele>
        <time>2020-02-08T08:53:04.203Z</time>
      </trkpt>
      <trkpt lat="39.00241667" lon="-0.397295">
        <ele>199.973</ele>
        <time>2020-02-08T08:53:05.203Z</time>
      </trkpt>
      <trkpt lat="39.00242833" lon="-0.39731">
        <ele>199.973</ele>
        <time>2020-02-08T08:53:06.203Z</time>
      </trkpt>
      <trkpt lat="39.00244167" lon="-0.39732">
        <ele>199.973</ele>
        <time>2020-02-08T08:53:07.203Z</time>
      </trkpt>
      <trkpt lat="39.00244167" lon="-0.39732">
        <ele>199.973</ele>
        <time>2020-02-08T08:53:08.203Z</time>
      </trkpt>
      <trkpt lat="39.00246667" lon="-0.39734333">
        <ele>199.973</ele>
        <time>2020-02-08T08:53:09.203Z</time>
      </trkpt>
      <trkpt lat="39.00246667" lon="-0.39734333">
        <ele>197.973</ele>
        <time>2020-02-08T08:53:10.203Z</time>
      </trkpt>
      <trkpt lat="39.00248667" lon="-0.39737">
        <ele>197.973</ele>
        <time>2020-02-08T08:53:11.203Z</time>
      </trkpt>
      <trkpt lat="39.00248667" lon="-0.39737">
        <ele>197.973</ele>
        <time>2020-02-08T08:53:12.203Z</time>
      </trkpt>
      <trkpt lat="39.002505" lon="-0.3974">
        <ele>197.973</ele>
        <time>2020-02-08T08:53:13.203Z</time>
      </trkpt>
      <trkpt lat="39.002505" lon="-0.3974">
        <ele>197.973</ele>
        <time>2020-02-08T08:53:14.203Z</time>
      </trkpt>
      <trkpt lat="39.00252167" lon="-0.39743">
        <ele>197.973</ele>
        <time>2020-02-08T08:53:15.203Z</time>
      </trkpt>
      <trkpt lat="39.00252167" lon="-0.39743">
        <ele>197.973</ele>
        <time>2020-02-08T08:53:16.203Z</time>
      </trkpt>
      <trkpt lat="39.00254167" lon="-0.39745333">
        <ele>197.973</ele>
        <time>2020-02-08T08:53:17.203Z</time>
      </trkpt>
      <trkpt lat="39.00254167" lon="-0.39745333">
        <ele>197.973</ele>
        <time>2020-02-08T08:53:18.203Z</time>
      </trkpt>
      <trkpt lat="39.00257333" lon="-0.39746167">
        <ele>197.973</ele>
        <time>2020-02-08T08:53:19.203Z</time>
      </trkpt>
      <trkpt lat="39.00259" lon="-0.39747333">
        <ele>197.973</ele>
        <time>2020-02-08T08:53:20.203Z</time>
      </trkpt>
      <trkpt lat="39.00259" lon="-0.39747333">
        <ele>197.973</ele>
        <time>2020-02-08T08:53:21.203Z</time>
      </trkpt>
      <trkpt lat="39.00261833" lon="-0.39751">
        <ele>196.973</ele>
        <time>2020-02-08T08:53:22.203Z</time>
      </trkpt>
      <trkpt lat="39.00261833" lon="-0.39751">
        <ele>196.973</ele>
        <time>2020-02-08T08:53:23.203Z</time>
      </trkpt>
      <trkpt lat="39.00263167" lon="-0.397545">
        <ele>196.973</ele>
        <time>2020-02-08T08:53:24.203Z</time>
      </trkpt>
      <trkpt lat="39.002645" lon="-0.39756">
        <ele>195.973</ele>
        <time>2020-02-08T08:53:25.203Z</time>
      </trkpt>
      <trkpt lat="39.002645" lon="-0.39756">
        <ele>195.973</ele>
        <time>2020-02-08T08:53:26.203Z</time>
      </trkpt>
      <trkpt lat="39.00265833" lon="-0.39759">
        <ele>195.973</ele>
        <time>2020-02-08T08:53:27.203Z</time>
      </trkpt>
      <trkpt lat="39.00265833" lon="-0.39759">
        <ele>195.973</ele>
        <time>2020-02-08T08:53:28.203Z</time>
      </trkpt>
      <trkpt lat="39.00267" lon="-0.397615">
        <ele>195.973</ele>
        <time>2020-02-08T08:53:29.203Z</time>
      </trkpt>
      <trkpt lat="39.00267" lon="-0.397615">
        <ele>195.973</ele>
        <time>2020-02-08T08:53:30.203Z</time>
      </trkpt>
      <trkpt lat="39.00269" lon="-0.39763">
        <ele>194.973</ele>
        <time>2020-02-08T08:53:31.203Z</time>
      </trkpt>
      <trkpt lat="39.00269" lon="-0.39763">
        <ele>194.973</ele>
        <time>2020-02-08T08:53:32.203Z</time>
      </trkpt>
      <trkpt lat="39.00271833" lon="-0.39765333">
        <ele>194.973</ele>
        <time>2020-02-08T08:53:33.203Z</time>
      </trkpt>
      <trkpt lat="39.00271833" lon="-0.39765333">
        <ele>194.973</ele>
        <time>2020-02-08T08:53:34.203Z</time>
      </trkpt>
      <trkpt lat="39.002745" lon="-0.39769">
        <ele>193.973</ele>
        <time>2020-02-08T08:53:35.203Z</time>
      </trkpt>
      <trkpt lat="39.002755" lon="-0.39770667">
        <ele>193.973</ele>
        <time>2020-02-08T08:53:36.203Z</time>
      </trkpt>
      <trkpt lat="39.00276167" lon="-0.39772">
        <ele>193.973</ele>
        <time>2020-02-08T08:53:37.203Z</time>
      </trkpt>
      <trkpt lat="39.00276167" lon="-0.39772">
        <ele>193.973</ele>
        <time>2020-02-08T08:53:38.203Z</time>
      </trkpt>
      <trkpt lat="39.00276667" lon="-0.39776">
        <ele>192.973</ele>
        <time>2020-02-08T08:53:39.203Z</time>
      </trkpt>
      <trkpt lat="39.00276667" lon="-0.39776">
        <ele>192.973</ele>
        <time>2020-02-08T08:53:40.203Z</time>
      </trkpt>
      <trkpt lat="39.002775" lon="-0.39779833">
        <ele>192.973</ele>
        <time>2020-02-08T08:53:41.203Z</time>
      </trkpt>
      <trkpt lat="39.002775" lon="-0.39779833">
        <ele>192.973</ele>
        <time>2020-02-08T08:53:42.203Z</time>
      </trkpt>
      <trkpt lat="39.00279167" lon="-0.397825">
        <ele>192.973</ele>
        <time>2020-02-08T08:53:43.203Z</time>
      </trkpt>
      <trkpt lat="39.00279167" lon="-0.397825">
        <ele>192.973</ele>
        <time>2020-02-08T08:53:44.203Z</time>
      </trkpt>
      <trkpt lat="39.00281333" lon="-0.39784833">
        <ele>192.973</ele>
        <time>2020-02-08T08:53:45.203Z</time>
      </trkpt>
      <trkpt lat="39.00281333" lon="-0.39784833">
        <ele>192.973</ele>
        <time>2020-02-08T08:53:46.203Z</time>
      </trkpt>
      <trkpt lat="39.00283" lon="-0.39786667">
        <ele>192.973</ele>
        <time>2020-02-08T08:53:47.203Z</time>
      </trkpt>
      <trkpt lat="39.00283167" lon="-0.397885">
        <ele>192.973</ele>
        <time>2020-02-08T08:53:48.203Z</time>
      </trkpt>
      <trkpt lat="39.00283167" lon="-0.397885">
        <ele>192.973</ele>
        <time>2020-02-08T08:53:49.203Z</time>
      </trkpt>
      <trkpt lat="39.00284" lon="-0.39790833">
        <ele>192.973</ele>
        <time>2020-02-08T08:53:50.203Z</time>
      </trkpt>
      <trkpt lat="39.00285" lon="-0.39792167">
        <ele>192.973</ele>
        <time>2020-02-08T08:53:51.203Z</time>
      </trkpt>
      <trkpt lat="39.00285" lon="-0.39792167">
        <ele>192.973</ele>
        <time>2020-02-08T08:53:52.203Z</time>
      </trkpt>
      <trkpt lat="39.00286333" lon="-0.39794333">
        <ele>192.973</ele>
        <time>2020-02-08T08:53:53.203Z</time>
      </trkpt>
      <trkpt lat="39.00286333" lon="-0.39794333">
        <ele>192.973</ele>
        <time>2020-02-08T08:53:54.203Z</time>
      </trkpt>
      <trkpt lat="39.00287167" lon="-0.39797833">
        <ele>192.973</ele>
        <time>2020-02-08T08:53:55.203Z</time>
      </trkpt>
      <trkpt lat="39.00287167" lon="-0.39797833">
        <ele>192.973</ele>
        <time>2020-02-08T08:53:56.203Z</time>
      </trkpt>
      <trkpt lat="39.00287" lon="-0.39801167">
        <ele>192.973</ele>
        <time>2020-02-08T08:53:57.203Z</time>
      </trkpt>
      <trkpt lat="39.00287" lon="-0.39801167">
        <ele>192.973</ele>
        <time>2020-02-08T08:53:58.203Z</time>
      </trkpt>
      <trkpt lat="39.00287167" lon="-0.39804">
        <ele>192.973</ele>
        <time>2020-02-08T08:53:59.203Z</time>
      </trkpt>
      <trkpt lat="39.00287167" lon="-0.39804">
        <ele>192.973</ele>
        <time>2020-02-08T08:54:00.203Z</time>
      </trkpt>
      <trkpt lat="39.00286833" lon="-0.39806833">
        <ele>192.973</ele>
        <time>2020-02-08T08:54:01.203Z</time>
      </trkpt>
      <trkpt lat="39.00286833" lon="-0.39806833">
        <ele>192.973</ele>
        <time>2020-02-08T08:54:02.203Z</time>
      </trkpt>
      <trkpt lat="39.00286833" lon="-0.39806833">
        <ele>192.973</ele>
        <time>2020-02-08T08:54:15.211Z</time>
      </trkpt>
      <trkpt lat="39.00294333" lon="-0.39812333">
        <ele>192.973</ele>
        <time>2020-02-08T08:54:16.211Z</time>
      </trkpt>
      <trkpt lat="39.00294833" lon="-0.39813333">
        <ele>192.973</ele>
        <time>2020-02-08T08:54:17.211Z</time>
      </trkpt>
      <trkpt lat="39.00294833" lon="-0.39813333">
        <ele>192.973</ele>
        <time>2020-02-08T08:54:18.211Z</time>
      </trkpt>
      <trkpt lat="39.002955" lon="-0.39815333">
        <ele>192.973</ele>
        <time>2020-02-08T08:54:19.211Z</time>
      </trkpt>
      <trkpt lat="39.002955" lon="-0.39815333">
        <ele>192.973</ele>
        <time>2020-02-08T08:54:20.211Z</time>
      </trkpt>
      <trkpt lat="39.00295833" lon="-0.398165">
        <ele>192.973</ele>
        <time>2020-02-08T08:54:21.211Z</time>
      </trkpt>
      <trkpt lat="39.00295833" lon="-0.398165">
        <ele>192.973</ele>
        <time>2020-02-08T08:54:22.211Z</time>
      </trkpt>
      <trkpt lat="39.00295" lon="-0.39818">
        <ele>192.973</ele>
        <time>2020-02-08T08:54:23.211Z</time>
      </trkpt>
      <trkpt lat="39.00295" lon="-0.39818">
        <ele>192.973</ele>
        <time>2020-02-08T08:54:24.211Z</time>
      </trkpt>
      <trkpt lat="39.002955" lon="-0.39819667">
        <ele>192.973</ele>
        <time>2020-02-08T08:54:25.211Z</time>
      </trkpt>
      <trkpt lat="39.002955" lon="-0.39819667">
        <ele>192.973</ele>
        <time>2020-02-08T08:54:26.211Z</time>
      </trkpt>
      <trkpt lat="39.00297" lon="-0.39818833">
        <ele>192.973</ele>
        <time>2020-02-08T08:54:27.211Z</time>
      </trkpt>
      <trkpt lat="39.00297" lon="-0.39818833">
        <ele>192.973</ele>
        <time>2020-02-08T08:54:28.211Z</time>
      </trkpt>
      <trkpt lat="39.00298" lon="-0.39819667">
        <ele>192.973</ele>
        <time>2020-02-08T08:54:29.211Z</time>
      </trkpt>
      <trkpt lat="39.00298" lon="-0.39819667">
        <ele>192.973</ele>
        <time>2020-02-08T08:54:30.211Z</time>
      </trkpt>
      <trkpt lat="39.00298" lon="-0.39819667">
        <ele>192.973</ele>
        <time>2020-02-08T08:54:37.218Z</time>
      </trkpt>
      <trkpt lat="39.00298" lon="-0.39819667">
        <ele>192.973</ele>
        <time>2020-02-08T08:54:38.218Z</time>
      </trkpt>
      <trkpt lat="39.00297167" lon="-0.39832167">
        <ele>192.973</ele>
        <time>2020-02-08T08:54:39.218Z</time>
      </trkpt>
      <trkpt lat="39.00297167" lon="-0.39832167">
        <ele>192.973</ele>
        <time>2020-02-08T08:54:40.218Z</time>
      </trkpt>
      <trkpt lat="39.00298333" lon="-0.39837667">
        <ele>192.973</ele>
        <time>2020-02-08T08:54:41.218Z</time>
      </trkpt>
      <trkpt lat="39.00298333" lon="-0.39837667">
        <ele>192.973</ele>
        <time>2020-02-08T08:54:42.218Z</time>
      </trkpt>
      <trkpt lat="39.00299667" lon="-0.39843667">
        <ele>191.973</ele>
        <time>2020-02-08T08:54:43.218Z</time>
      </trkpt>
      <trkpt lat="39.00299667" lon="-0.39843667">
        <ele>191.973</ele>
        <time>2020-02-08T08:54:44.218Z</time>
      </trkpt>
      <trkpt lat="39.00301" lon="-0.398495">
        <ele>191.973</ele>
        <time>2020-02-08T08:54:45.218Z</time>
      </trkpt>
      <trkpt lat="39.00301" lon="-0.398495">
        <ele>191.973</ele>
        <time>2020-02-08T08:54:46.218Z</time>
      </trkpt>
      <trkpt lat="39.00302333" lon="-0.39854">
        <ele>191.973</ele>
        <time>2020-02-08T08:54:47.218Z</time>
      </trkpt>
      <trkpt lat="39.00302333" lon="-0.39854">
        <ele>191.973</ele>
        <time>2020-02-08T08:54:48.218Z</time>
      </trkpt>
      <trkpt lat="39.003035" lon="-0.39858667">
        <ele>191.973</ele>
        <time>2020-02-08T08:54:49.218Z</time>
      </trkpt>
      <trkpt lat="39.003035" lon="-0.39858667">
        <ele>191.973</ele>
        <time>2020-02-08T08:54:50.218Z</time>
      </trkpt>
      <trkpt lat="39.00303833" lon="-0.39864167">
        <ele>191.973</ele>
        <time>2020-02-08T08:54:51.218Z</time>
      </trkpt>
      <trkpt lat="39.00303833" lon="-0.39864167">
        <ele>191.973</ele>
        <time>2020-02-08T08:54:52.218Z</time>
      </trkpt>
      <trkpt lat="39.00304" lon="-0.39867333">
        <ele>191.973</ele>
        <time>2020-02-08T08:54:53.218Z</time>
      </trkpt>
      <trkpt lat="39.003035" lon="-0.39868">
        <ele>191.973</ele>
        <time>2020-02-08T08:54:54.218Z</time>
      </trkpt>
      <trkpt lat="39.003035" lon="-0.39868">
        <ele>191.973</ele>
        <time>2020-02-08T08:54:55.218Z</time>
      </trkpt>
      <trkpt lat="39.00303333" lon="-0.39871167">
        <ele>191.973</ele>
        <time>2020-02-08T08:54:56.218Z</time>
      </trkpt>
      <trkpt lat="39.00303" lon="-0.39873333">
        <ele>191.973</ele>
        <time>2020-02-08T08:54:57.218Z</time>
      </trkpt>
      <trkpt lat="39.00303" lon="-0.39873333">
        <ele>191.973</ele>
        <time>2020-02-08T08:54:58.218Z</time>
      </trkpt>
      <trkpt lat="39.00302167" lon="-0.398805">
        <ele>191.973</ele>
        <time>2020-02-08T08:54:59.218Z</time>
      </trkpt>
      <trkpt lat="39.00301833" lon="-0.39884667">
        <ele>191.973</ele>
        <time>2020-02-08T08:55:00.218Z</time>
      </trkpt>
      <trkpt lat="39.00301833" lon="-0.39887667">
        <ele>191.973</ele>
        <time>2020-02-08T08:55:01.218Z</time>
      </trkpt>
      <trkpt lat="39.00301833" lon="-0.39887667">
        <ele>191.973</ele>
        <time>2020-02-08T08:55:02.218Z</time>
      </trkpt>
      <trkpt lat="39.00303333" lon="-0.39894">
        <ele>191.973</ele>
        <time>2020-02-08T08:55:03.218Z</time>
      </trkpt>
      <trkpt lat="39.00303333" lon="-0.39894">
        <ele>191.973</ele>
        <time>2020-02-08T08:55:04.218Z</time>
      </trkpt>
      <trkpt lat="39.00305667" lon="-0.39896833">
        <ele>191.973</ele>
        <time>2020-02-08T08:55:05.218Z</time>
      </trkpt>
      <trkpt lat="39.00305667" lon="-0.39896833">
        <ele>191.973</ele>
        <time>2020-02-08T08:55:06.218Z</time>
      </trkpt>
      <trkpt lat="39.00308" lon="-0.39901333">
        <ele>191.973</ele>
        <time>2020-02-08T08:55:07.218Z</time>
      </trkpt>
      <trkpt lat="39.00308" lon="-0.39901333">
        <ele>190.973</ele>
        <time>2020-02-08T08:55:08.218Z</time>
      </trkpt>
      <trkpt lat="39.00309333" lon="-0.39906833">
        <ele>190.973</ele>
        <time>2020-02-08T08:55:09.218Z</time>
      </trkpt>
      <trkpt lat="39.00309333" lon="-0.39906833">
        <ele>190.973</ele>
        <time>2020-02-08T08:55:10.218Z</time>
      </trkpt>
      <trkpt lat="39.00310667" lon="-0.39910333">
        <ele>190.973</ele>
        <time>2020-02-08T08:55:11.218Z</time>
      </trkpt>
      <trkpt lat="39.00310667" lon="-0.39910333">
        <ele>190.973</ele>
        <time>2020-02-08T08:55:12.218Z</time>
      </trkpt>
      <trkpt lat="39.00311667" lon="-0.39910333">
        <ele>190.973</ele>
        <time>2020-02-08T08:55:13.218Z</time>
      </trkpt>
      <trkpt lat="39.00311667" lon="-0.39910333">
        <ele>190.973</ele>
        <time>2020-02-08T08:55:14.218Z</time>
      </trkpt>
      <trkpt lat="39.00311667" lon="-0.39910333">
        <ele>190.973</ele>
        <time>2020-02-08T08:55:16.726Z</time>
      </trkpt>
      <trkpt lat="39.00311667" lon="-0.39910333">
        <ele>190.973</ele>
        <time>2020-02-08T08:55:17.726Z</time>
      </trkpt>
      <trkpt lat="39.00315333" lon="-0.39916167">
        <ele>190.973</ele>
        <time>2020-02-08T08:55:18.726Z</time>
      </trkpt>
      <trkpt lat="39.00315333" lon="-0.39916167">
        <ele>190.973</ele>
        <time>2020-02-08T08:55:19.726Z</time>
      </trkpt>
      <trkpt lat="39.00316833" lon="-0.39917333">
        <ele>189.973</ele>
        <time>2020-02-08T08:55:20.726Z</time>
      </trkpt>
      <trkpt lat="39.00316833" lon="-0.39917333">
        <ele>189.973</ele>
        <time>2020-02-08T08:55:21.726Z</time>
      </trkpt>
      <trkpt lat="39.00316833" lon="-0.39917333">
        <ele>189.973</ele>
        <time>2020-02-08T08:55:28.733Z</time>
      </trkpt>
      <trkpt lat="39.003185" lon="-0.39921667">
        <ele>189.973</ele>
        <time>2020-02-08T08:55:29.733Z</time>
      </trkpt>
      <trkpt lat="39.00318" lon="-0.39923">
        <ele>189.973</ele>
        <time>2020-02-08T08:55:30.733Z</time>
      </trkpt>
      <trkpt lat="39.00318" lon="-0.39923">
        <ele>189.973</ele>
        <time>2020-02-08T08:55:31.733Z</time>
      </trkpt>
      <trkpt lat="39.00318" lon="-0.39923">
        <ele>189.973</ele>
        <time>2020-02-08T08:55:32.733Z</time>
      </trkpt>
      <trkpt lat="39.003175" lon="-0.39924667">
        <ele>189.973</ele>
        <time>2020-02-08T08:55:33.733Z</time>
      </trkpt>
      <trkpt lat="39.003175" lon="-0.39924667">
        <ele>189.973</ele>
        <time>2020-02-08T08:55:34.733Z</time>
      </trkpt>
      <trkpt lat="39.00317333" lon="-0.39927667">
        <ele>189.973</ele>
        <time>2020-02-08T08:55:35.733Z</time>
      </trkpt>
      <trkpt lat="39.00317333" lon="-0.39927667">
        <ele>189.973</ele>
        <time>2020-02-08T08:55:36.733Z</time>
      </trkpt>
      <trkpt lat="39.00317333" lon="-0.39931333">
        <ele>189.973</ele>
        <time>2020-02-08T08:55:37.733Z</time>
      </trkpt>
      <trkpt lat="39.00317333" lon="-0.39931333">
        <ele>189.973</ele>
        <time>2020-02-08T08:55:38.733Z</time>
      </trkpt>
      <trkpt lat="39.00317" lon="-0.399345">
        <ele>189.973</ele>
        <time>2020-02-08T08:55:39.733Z</time>
      </trkpt>
      <trkpt lat="39.00316333" lon="-0.39935667">
        <ele>189.973</ele>
        <time>2020-02-08T08:55:40.733Z</time>
      </trkpt>
      <trkpt lat="39.00316333" lon="-0.39935667">
        <ele>189.973</ele>
        <time>2020-02-08T08:55:41.733Z</time>
      </trkpt>
      <trkpt lat="39.00316667" lon="-0.39939167">
        <ele>189.973</ele>
        <time>2020-02-08T08:55:42.733Z</time>
      </trkpt>
      <trkpt lat="39.00316667" lon="-0.39939167">
        <ele>189.973</ele>
        <time>2020-02-08T08:55:43.733Z</time>
      </trkpt>
      <trkpt lat="39.00316667" lon="-0.39939167">
        <ele>189.973</ele>
        <time>2020-02-08T08:55:44.733Z</time>
      </trkpt>
      <trkpt lat="39.00317167" lon="-0.39941333">
        <ele>189.973</ele>
        <time>2020-02-08T08:55:45.733Z</time>
      </trkpt>
      <trkpt lat="39.00317167" lon="-0.39941333">
        <ele>189.973</ele>
        <time>2020-02-08T08:55:46.733Z</time>
      </trkpt>
      <trkpt lat="39.003165" lon="-0.39940833">
        <ele>189.973</ele>
        <time>2020-02-08T08:55:47.733Z</time>
      </trkpt>
      <trkpt lat="39.00316" lon="-0.39941667">
        <ele>189.973</ele>
        <time>2020-02-08T08:55:48.733Z</time>
      </trkpt>
      <trkpt lat="39.00316" lon="-0.39941667">
        <ele>189.973</ele>
        <time>2020-02-08T08:55:49.733Z</time>
      </trkpt>
      <trkpt lat="39.00316" lon="-0.39941667">
        <ele>189.973</ele>
        <time>2020-02-08T08:55:50.733Z</time>
      </trkpt>
      <trkpt lat="39.003155" lon="-0.39945333">
        <ele>189.973</ele>
        <time>2020-02-08T08:55:51.733Z</time>
      </trkpt>
      <trkpt lat="39.003155" lon="-0.39945333">
        <ele>189.973</ele>
        <time>2020-02-08T08:55:52.733Z</time>
      </trkpt>
      <trkpt lat="39.00316167" lon="-0.39949667">
        <ele>189.973</ele>
        <time>2020-02-08T08:55:53.733Z</time>
      </trkpt>
      <trkpt lat="39.00317667" lon="-0.39956">
        <ele>189.973</ele>
        <time>2020-02-08T08:55:54.733Z</time>
      </trkpt>
      <trkpt lat="39.00317667" lon="-0.39956">
        <ele>188.973</ele>
        <time>2020-02-08T08:55:55.733Z</time>
      </trkpt>
      <trkpt lat="39.00317667" lon="-0.39956">
        <ele>188.973</ele>
        <time>2020-02-08T08:55:56.733Z</time>
      </trkpt>
      <trkpt lat="39.003195" lon="-0.39961667">
        <ele>188.973</ele>
        <time>2020-02-08T08:55:57.733Z</time>
      </trkpt>
      <trkpt lat="39.003195" lon="-0.39961667">
        <ele>188.973</ele>
        <time>2020-02-08T08:55:58.733Z</time>
      </trkpt>
      <trkpt lat="39.00321333" lon="-0.39967">
        <ele>188.973</ele>
        <time>2020-02-08T08:55:59.733Z</time>
      </trkpt>
      <trkpt lat="39.00321333" lon="-0.39967">
        <ele>188.973</ele>
        <time>2020-02-08T08:56:00.733Z</time>
      </trkpt>
      <trkpt lat="39.00324" lon="-0.39972">
        <ele>188.973</ele>
        <time>2020-02-08T08:56:01.733Z</time>
      </trkpt>
      <trkpt lat="39.00324" lon="-0.39972">
        <ele>188.973</ele>
        <time>2020-02-08T08:56:02.733Z</time>
      </trkpt>
      <trkpt lat="39.00327167" lon="-0.39976667">
        <ele>188.973</ele>
        <time>2020-02-08T08:56:03.733Z</time>
      </trkpt>
      <trkpt lat="39.00327167" lon="-0.39976667">
        <ele>188.973</ele>
        <time>2020-02-08T08:56:04.733Z</time>
      </trkpt>
      <trkpt lat="39.00329333" lon="-0.399795">
        <ele>188.973</ele>
        <time>2020-02-08T08:56:05.733Z</time>
      </trkpt>
      <trkpt lat="39.00329333" lon="-0.399795">
        <ele>188.973</ele>
        <time>2020-02-08T08:56:06.733Z</time>
      </trkpt>
      <trkpt lat="39.00329667" lon="-0.39983833">
        <ele>188.973</ele>
        <time>2020-02-08T08:56:07.733Z</time>
      </trkpt>
      <trkpt lat="39.00329667" lon="-0.39983833">
        <ele>188.973</ele>
        <time>2020-02-08T08:56:08.733Z</time>
      </trkpt>
      <trkpt lat="39.0033" lon="-0.39988167">
        <ele>188.973</ele>
        <time>2020-02-08T08:56:09.733Z</time>
      </trkpt>
      <trkpt lat="39.0033" lon="-0.39988167">
        <ele>188.973</ele>
        <time>2020-02-08T08:56:10.733Z</time>
      </trkpt>
      <trkpt lat="39.00334667" lon="-0.4">
        <ele>188.973</ele>
        <time>2020-02-08T08:56:11.733Z</time>
      </trkpt>
      <trkpt lat="39.00334667" lon="-0.4">
        <ele>188.973</ele>
        <time>2020-02-08T08:56:12.733Z</time>
      </trkpt>
      <trkpt lat="39.00336167" lon="-0.40003667">
        <ele>188.973</ele>
        <time>2020-02-08T08:56:13.733Z</time>
      </trkpt>
      <trkpt lat="39.00336167" lon="-0.40003667">
        <ele>188.973</ele>
        <time>2020-02-08T08:56:14.733Z</time>
      </trkpt>
      <trkpt lat="39.00338667" lon="-0.40009333">
        <ele>188.973</ele>
        <time>2020-02-08T08:56:15.733Z</time>
      </trkpt>
      <trkpt lat="39.00338667" lon="-0.40009333">
        <ele>188.973</ele>
        <time>2020-02-08T08:56:16.733Z</time>
      </trkpt>
      <trkpt lat="39.003435" lon="-0.40017">
        <ele>188.973</ele>
        <time>2020-02-08T08:56:17.733Z</time>
      </trkpt>
      <trkpt lat="39.003435" lon="-0.40017">
        <ele>187.973</ele>
        <time>2020-02-08T08:56:18.733Z</time>
      </trkpt>
      <trkpt lat="39.00346833" lon="-0.40020333">
        <ele>187.973</ele>
        <time>2020-02-08T08:56:19.733Z</time>
      </trkpt>
      <trkpt lat="39.00346833" lon="-0.40020333">
        <ele>187.973</ele>
        <time>2020-02-08T08:56:20.733Z</time>
      </trkpt>
      <trkpt lat="39.00349" lon="-0.40021333">
        <ele>187.973</ele>
        <time>2020-02-08T08:56:21.733Z</time>
      </trkpt>
      <trkpt lat="39.00349" lon="-0.40021333">
        <ele>186.973</ele>
        <time>2020-02-08T08:56:22.733Z</time>
      </trkpt>
      <trkpt lat="39.00353" lon="-0.40022667">
        <ele>186.973</ele>
        <time>2020-02-08T08:56:23.733Z</time>
      </trkpt>
      <trkpt lat="39.00353" lon="-0.40022667">
        <ele>186.973</ele>
        <time>2020-02-08T08:56:24.733Z</time>
      </trkpt>
      <trkpt lat="39.00358667" lon="-0.40023667">
        <ele>186.973</ele>
        <time>2020-02-08T08:56:25.733Z</time>
      </trkpt>
      <trkpt lat="39.00358667" lon="-0.40023667">
        <ele>186.973</ele>
        <time>2020-02-08T08:56:26.733Z</time>
      </trkpt>
      <trkpt lat="39.00365" lon="-0.400255">
        <ele>186.973</ele>
        <time>2020-02-08T08:56:27.733Z</time>
      </trkpt>
      <trkpt lat="39.00369667" lon="-0.400285">
        <ele>185.973</ele>
        <time>2020-02-08T08:56:28.733Z</time>
      </trkpt>
      <trkpt lat="39.00369667" lon="-0.400285">
        <ele>185.973</ele>
        <time>2020-02-08T08:56:29.733Z</time>
      </trkpt>
      <trkpt lat="39.00369667" lon="-0.400285">
        <ele>185.973</ele>
        <time>2020-02-08T08:56:30.733Z</time>
      </trkpt>
      <trkpt lat="39.00375167" lon="-0.4003">
        <ele>185.973</ele>
        <time>2020-02-08T08:56:31.733Z</time>
      </trkpt>
      <trkpt lat="39.00375167" lon="-0.4003">
        <ele>185.973</ele>
        <time>2020-02-08T08:56:32.733Z</time>
      </trkpt>
      <trkpt lat="39.003795" lon="-0.40031667">
        <ele>186.973</ele>
        <time>2020-02-08T08:56:33.733Z</time>
      </trkpt>
      <trkpt lat="39.003795" lon="-0.40031667">
        <ele>186.973</ele>
        <time>2020-02-08T08:56:34.733Z</time>
      </trkpt>
      <trkpt lat="39.0038" lon="-0.400345">
        <ele>186.973</ele>
        <time>2020-02-08T08:56:35.733Z</time>
      </trkpt>
      <trkpt lat="39.00381667" lon="-0.40036333">
        <ele>186.973</ele>
        <time>2020-02-08T08:56:36.733Z</time>
      </trkpt>
      <trkpt lat="39.00381667" lon="-0.40036333">
        <ele>187.973</ele>
        <time>2020-02-08T08:56:37.733Z</time>
      </trkpt>
      <trkpt lat="39.00381667" lon="-0.40036333">
        <ele>187.973</ele>
        <time>2020-02-08T08:56:38.733Z</time>
      </trkpt>
      <trkpt lat="39.00384167" lon="-0.40039333">
        <ele>187.973</ele>
        <time>2020-02-08T08:56:39.733Z</time>
      </trkpt>
      <trkpt lat="39.00384167" lon="-0.40039333">
        <ele>187.973</ele>
        <time>2020-02-08T08:56:40.733Z</time>
      </trkpt>
      <trkpt lat="39.00387667" lon="-0.4004">
        <ele>188.973</ele>
        <time>2020-02-08T08:56:41.733Z</time>
      </trkpt>
      <trkpt lat="39.00391167" lon="-0.400425">
        <ele>188.973</ele>
        <time>2020-02-08T08:56:42.733Z</time>
      </trkpt>
      <trkpt lat="39.00391167" lon="-0.400425">
        <ele>188.973</ele>
        <time>2020-02-08T08:56:43.733Z</time>
      </trkpt>
      <trkpt lat="39.00391167" lon="-0.400425">
        <ele>188.973</ele>
        <time>2020-02-08T08:56:44.733Z</time>
      </trkpt>
      <trkpt lat="39.00396167" lon="-0.40047167">
        <ele>188.973</ele>
        <time>2020-02-08T08:56:45.733Z</time>
      </trkpt>
      <trkpt lat="39.00396167" lon="-0.40047167">
        <ele>188.973</ele>
        <time>2020-02-08T08:56:46.733Z</time>
      </trkpt>
      <trkpt lat="39.00401833" lon="-0.40052667">
        <ele>188.973</ele>
        <time>2020-02-08T08:56:47.733Z</time>
      </trkpt>
      <trkpt lat="39.00401833" lon="-0.40052667">
        <ele>188.973</ele>
        <time>2020-02-08T08:56:48.733Z</time>
      </trkpt>
      <trkpt lat="39.00402" lon="-0.400535">
        <ele>188.973</ele>
        <time>2020-02-08T08:56:49.733Z</time>
      </trkpt>
      <trkpt lat="39.00402" lon="-0.400535">
        <ele>188.973</ele>
        <time>2020-02-08T08:56:50.733Z</time>
      </trkpt>
      <trkpt lat="39.004025" lon="-0.40054333">
        <ele>189.973</ele>
        <time>2020-02-08T08:56:51.733Z</time>
      </trkpt>
      <trkpt lat="39.004025" lon="-0.40054333">
        <ele>189.973</ele>
        <time>2020-02-08T08:56:52.733Z</time>
      </trkpt>
      <trkpt lat="39.00403667" lon="-0.400565">
        <ele>189.973</ele>
        <time>2020-02-08T08:56:53.733Z</time>
      </trkpt>
      <trkpt lat="39.00403667" lon="-0.400565">
        <ele>189.973</ele>
        <time>2020-02-08T08:56:54.733Z</time>
      </trkpt>
      <trkpt lat="39.00403833" lon="-0.40057333">
        <ele>189.973</ele>
        <time>2020-02-08T08:56:55.733Z</time>
      </trkpt>
      <trkpt lat="39.00403833" lon="-0.40057333">
        <ele>189.973</ele>
        <time>2020-02-08T08:56:58.238Z</time>
      </trkpt>
      <trkpt lat="39.00404167" lon="-0.40059333">
        <ele>189.973</ele>
        <time>2020-02-08T08:56:59.238Z</time>
      </trkpt>
      <trkpt lat="39.00407167" lon="-0.400605">
        <ele>189.973</ele>
        <time>2020-02-08T08:57:04.743Z</time>
      </trkpt>
      <trkpt lat="39.00407167" lon="-0.400605">
        <ele>190.973</ele>
        <time>2020-02-08T08:57:05.743Z</time>
      </trkpt>
      <trkpt lat="39.00407167" lon="-0.40061667">
        <ele>190.973</ele>
        <time>2020-02-08T08:57:06.743Z</time>
      </trkpt>
      <trkpt lat="39.00406" lon="-0.40064667">
        <ele>190.973</ele>
        <time>2020-02-08T08:57:09.249Z</time>
      </trkpt>
      <trkpt lat="39.00406" lon="-0.40064667">
        <ele>190.973</ele>
        <time>2020-02-08T08:57:10.249Z</time>
      </trkpt>
      <trkpt lat="39.004065" lon="-0.40071667">
        <ele>190.973</ele>
        <time>2020-02-08T08:57:11.249Z</time>
      </trkpt>
      <trkpt lat="39.004065" lon="-0.40071667">
        <ele>190.973</ele>
        <time>2020-02-08T08:57:12.249Z</time>
      </trkpt>
      <trkpt lat="39.00408667" lon="-0.40078167">
        <ele>191.973</ele>
        <time>2020-02-08T08:57:13.249Z</time>
      </trkpt>
      <trkpt lat="39.00408667" lon="-0.40078167">
        <ele>191.973</ele>
        <time>2020-02-08T08:57:14.249Z</time>
      </trkpt>
      <trkpt lat="39.00407833" lon="-0.40084167">
        <ele>191.973</ele>
        <time>2020-02-08T08:57:15.249Z</time>
      </trkpt>
      <trkpt lat="39.00407833" lon="-0.40084167">
        <ele>191.973</ele>
        <time>2020-02-08T08:57:16.249Z</time>
      </trkpt>
      <trkpt lat="39.00406667" lon="-0.40090333">
        <ele>191.973</ele>
        <time>2020-02-08T08:57:17.249Z</time>
      </trkpt>
      <trkpt lat="39.00406667" lon="-0.40090333">
        <ele>191.973</ele>
        <time>2020-02-08T08:57:18.249Z</time>
      </trkpt>
      <trkpt lat="39.00407667" lon="-0.40097167">
        <ele>191.973</ele>
        <time>2020-02-08T08:57:19.249Z</time>
      </trkpt>
      <trkpt lat="39.00407667" lon="-0.40097167">
        <ele>192.973</ele>
        <time>2020-02-08T08:57:20.249Z</time>
      </trkpt>
      <trkpt lat="39.00408" lon="-0.40103667">
        <ele>192.973</ele>
        <time>2020-02-08T08:57:21.249Z</time>
      </trkpt>
      <trkpt lat="39.00408" lon="-0.40103667">
        <ele>192.973</ele>
        <time>2020-02-08T08:57:22.249Z</time>
      </trkpt>
      <trkpt lat="39.00405833" lon="-0.40109167">
        <ele>192.973</ele>
        <time>2020-02-08T08:57:23.249Z</time>
      </trkpt>
      <trkpt lat="39.00405833" lon="-0.40109167">
        <ele>192.973</ele>
        <time>2020-02-08T08:57:24.249Z</time>
      </trkpt>
      <trkpt lat="39.00403833" lon="-0.40116667">
        <ele>192.973</ele>
        <time>2020-02-08T08:57:25.249Z</time>
      </trkpt>
      <trkpt lat="39.00403833" lon="-0.40116667">
        <ele>192.973</ele>
        <time>2020-02-08T08:57:26.249Z</time>
      </trkpt>
      <trkpt lat="39.00401667" lon="-0.40124667">
        <ele>192.973</ele>
        <time>2020-02-08T08:57:27.249Z</time>
      </trkpt>
      <trkpt lat="39.004005" lon="-0.40128667">
        <ele>192.973</ele>
        <time>2020-02-08T08:57:28.249Z</time>
      </trkpt>
      <trkpt lat="39.004005" lon="-0.40128667">
        <ele>192.973</ele>
        <time>2020-02-08T08:57:29.249Z</time>
      </trkpt>
      <trkpt lat="39.003985" lon="-0.401375">
        <ele>192.973</ele>
        <time>2020-02-08T08:57:30.249Z</time>
      </trkpt>
      <trkpt lat="39.003975" lon="-0.40141667">
        <ele>192.973</ele>
        <time>2020-02-08T08:57:31.249Z</time>
      </trkpt>
      <trkpt lat="39.003975" lon="-0.40141667">
        <ele>192.973</ele>
        <time>2020-02-08T08:57:32.249Z</time>
      </trkpt>
      <trkpt lat="39.00395333" lon="-0.401495">
        <ele>192.973</ele>
        <time>2020-02-08T08:57:33.249Z</time>
      </trkpt>
      <trkpt lat="39.00395333" lon="-0.401495">
        <ele>191.973</ele>
        <time>2020-02-08T08:57:34.249Z</time>
      </trkpt>
      <trkpt lat="39.00394" lon="-0.401585">
        <ele>191.973</ele>
        <time>2020-02-08T08:57:35.249Z</time>
      </trkpt>
      <trkpt lat="39.00394" lon="-0.401585">
        <ele>191.973</ele>
        <time>2020-02-08T08:57:36.249Z</time>
      </trkpt>
      <trkpt lat="39.00391833" lon="-0.401635">
        <ele>191.973</ele>
        <time>2020-02-08T08:57:37.249Z</time>
      </trkpt>
      <trkpt lat="39.00391833" lon="-0.401635">
        <ele>191.973</ele>
        <time>2020-02-08T08:57:38.249Z</time>
      </trkpt>
      <trkpt lat="39.00390667" lon="-0.40168667">
        <ele>191.973</ele>
        <time>2020-02-08T08:57:39.249Z</time>
      </trkpt>
      <trkpt lat="39.00390667" lon="-0.40168667">
        <ele>190.973</ele>
        <time>2020-02-08T08:57:40.249Z</time>
      </trkpt>
      <trkpt lat="39.00391" lon="-0.401745">
        <ele>190.973</ele>
        <time>2020-02-08T08:57:41.249Z</time>
      </trkpt>
      <trkpt lat="39.00391" lon="-0.401745">
        <ele>190.973</ele>
        <time>2020-02-08T08:57:42.249Z</time>
      </trkpt>
      <trkpt lat="39.00392167" lon="-0.40180833">
        <ele>189.973</ele>
        <time>2020-02-08T08:57:43.249Z</time>
      </trkpt>
      <trkpt lat="39.00392167" lon="-0.40180833">
        <ele>189.973</ele>
        <time>2020-02-08T08:57:44.249Z</time>
      </trkpt>
      <trkpt lat="39.00393167" lon="-0.40186333">
        <ele>189.973</ele>
        <time>2020-02-08T08:57:45.249Z</time>
      </trkpt>
      <trkpt lat="39.00394667" lon="-0.40189">
        <ele>189.973</ele>
        <time>2020-02-08T08:57:46.249Z</time>
      </trkpt>
      <trkpt lat="39.00394667" lon="-0.40189">
        <ele>187.973</ele>
        <time>2020-02-08T08:57:47.249Z</time>
      </trkpt>
      <trkpt lat="39.00398667" lon="-0.40195833">
        <ele>187.973</ele>
        <time>2020-02-08T08:57:48.249Z</time>
      </trkpt>
      <trkpt lat="39.004" lon="-0.401995">
        <ele>186.973</ele>
        <time>2020-02-08T08:57:49.249Z</time>
      </trkpt>
      <trkpt lat="39.004" lon="-0.401995">
        <ele>186.973</ele>
        <time>2020-02-08T08:57:50.249Z</time>
      </trkpt>
      <trkpt lat="39.00403333" lon="-0.40207833">
        <ele>185.973</ele>
        <time>2020-02-08T08:57:51.249Z</time>
      </trkpt>
      <trkpt lat="39.00403333" lon="-0.40207833">
        <ele>185.973</ele>
        <time>2020-02-08T08:57:52.249Z</time>
      </trkpt>
      <trkpt lat="39.00406333" lon="-0.402195">
        <ele>184.973</ele>
        <time>2020-02-08T08:57:53.249Z</time>
      </trkpt>
      <trkpt lat="39.00406333" lon="-0.402195">
        <ele>184.973</ele>
        <time>2020-02-08T08:57:54.249Z</time>
      </trkpt>
      <trkpt lat="39.00408" lon="-0.40233">
        <ele>184.973</ele>
        <time>2020-02-08T08:57:55.249Z</time>
      </trkpt>
      <trkpt lat="39.00408" lon="-0.40233">
        <ele>183.973</ele>
        <time>2020-02-08T08:57:56.249Z</time>
      </trkpt>
      <trkpt lat="39.0041" lon="-0.40245833">
        <ele>183.973</ele>
        <time>2020-02-08T08:57:57.249Z</time>
      </trkpt>
      <trkpt lat="39.0041" lon="-0.40245833">
        <ele>183.973</ele>
        <time>2020-02-08T08:57:58.249Z</time>
      </trkpt>
      <trkpt lat="39.00409167" lon="-0.40255">
        <ele>182.973</ele>
        <time>2020-02-08T08:57:59.249Z</time>
      </trkpt>
      <trkpt lat="39.00409167" lon="-0.40255">
        <ele>182.973</ele>
        <time>2020-02-08T08:58:00.249Z</time>
      </trkpt>
      <trkpt lat="39.00408333" lon="-0.40263167">
        <ele>182.973</ele>
        <time>2020-02-08T08:58:01.249Z</time>
      </trkpt>
      <trkpt lat="39.00408333" lon="-0.40263167">
        <ele>182.973</ele>
        <time>2020-02-08T08:58:02.249Z</time>
      </trkpt>
      <trkpt lat="39.00406667" lon="-0.40272333">
        <ele>182.973</ele>
        <time>2020-02-08T08:58:03.249Z</time>
      </trkpt>
      <trkpt lat="39.00406667" lon="-0.40272333">
        <ele>180.973</ele>
        <time>2020-02-08T08:58:04.249Z</time>
      </trkpt>
      <trkpt lat="39.00409" lon="-0.40281">
        <ele>180.973</ele>
        <time>2020-02-08T08:58:05.249Z</time>
      </trkpt>
      <trkpt lat="39.00409" lon="-0.40281">
        <ele>179.973</ele>
        <time>2020-02-08T08:58:06.249Z</time>
      </trkpt>
      <trkpt lat="39.004135" lon="-0.40287833">
        <ele>179.973</ele>
        <time>2020-02-08T08:58:07.249Z</time>
      </trkpt>
      <trkpt lat="39.004135" lon="-0.40287833">
        <ele>177.973</ele>
        <time>2020-02-08T08:58:08.249Z</time>
      </trkpt>
      <trkpt lat="39.00421333" lon="-0.402935">
        <ele>177.973</ele>
        <time>2020-02-08T08:58:09.249Z</time>
      </trkpt>
      <trkpt lat="39.00421333" lon="-0.402935">
        <ele>175.973</ele>
        <time>2020-02-08T08:58:10.249Z</time>
      </trkpt>
      <trkpt lat="39.004325" lon="-0.40300667">
        <ele>174.973</ele>
        <time>2020-02-08T08:58:11.249Z</time>
      </trkpt>
      <trkpt lat="39.004325" lon="-0.40300667">
        <ele>174.973</ele>
        <time>2020-02-08T08:58:12.249Z</time>
      </trkpt>
      <trkpt lat="39.004415" lon="-0.403065">
        <ele>173.973</ele>
        <time>2020-02-08T08:58:13.249Z</time>
      </trkpt>
      <trkpt lat="39.00445" lon="-0.40308833">
        <ele>173.973</ele>
        <time>2020-02-08T08:58:14.249Z</time>
      </trkpt>
      <trkpt lat="39.00448333" lon="-0.40312333">
        <ele>173.973</ele>
        <time>2020-02-08T08:58:15.249Z</time>
      </trkpt>
      <trkpt lat="39.00448333" lon="-0.40312333">
        <ele>173.973</ele>
        <time>2020-02-08T08:58:16.249Z</time>
      </trkpt>
      <trkpt lat="39.00451167" lon="-0.40322833">
        <ele>174.973</ele>
        <time>2020-02-08T08:58:17.249Z</time>
      </trkpt>
      <trkpt lat="39.00451167" lon="-0.40322833">
        <ele>174.973</ele>
        <time>2020-02-08T08:58:18.249Z</time>
      </trkpt>
      <trkpt lat="39.004505" lon="-0.403345">
        <ele>174.973</ele>
        <time>2020-02-08T08:58:19.249Z</time>
      </trkpt>
      <trkpt lat="39.004505" lon="-0.403345">
        <ele>174.973</ele>
        <time>2020-02-08T08:58:20.249Z</time>
      </trkpt>
      <trkpt lat="39.00447167" lon="-0.40345167">
        <ele>176.973</ele>
        <time>2020-02-08T08:58:21.249Z</time>
      </trkpt>
      <trkpt lat="39.00447167" lon="-0.40345167">
        <ele>176.973</ele>
        <time>2020-02-08T08:58:22.249Z</time>
      </trkpt>
      <trkpt lat="39.00443333" lon="-0.40354333">
        <ele>177.973</ele>
        <time>2020-02-08T08:58:23.249Z</time>
      </trkpt>
      <trkpt lat="39.00443333" lon="-0.40354333">
        <ele>177.973</ele>
        <time>2020-02-08T08:58:24.249Z</time>
      </trkpt>
      <trkpt lat="39.00440167" lon="-0.40360667">
        <ele>178.973</ele>
        <time>2020-02-08T08:58:25.249Z</time>
      </trkpt>
      <trkpt lat="39.00440167" lon="-0.40360667">
        <ele>178.973</ele>
        <time>2020-02-08T08:58:26.249Z</time>
      </trkpt>
      <trkpt lat="39.00436333" lon="-0.40367167">
        <ele>179.973</ele>
        <time>2020-02-08T08:58:27.249Z</time>
      </trkpt>
      <trkpt lat="39.00436333" lon="-0.40367167">
        <ele>179.973</ele>
        <time>2020-02-08T08:58:28.249Z</time>
      </trkpt>
      <trkpt lat="39.00432333" lon="-0.40373333">
        <ele>180.973</ele>
        <time>2020-02-08T08:58:29.249Z</time>
      </trkpt>
      <trkpt lat="39.00432333" lon="-0.40373333">
        <ele>180.973</ele>
        <time>2020-02-08T08:58:30.249Z</time>
      </trkpt>
      <trkpt lat="39.00429833" lon="-0.40378167">
        <ele>181.973</ele>
        <time>2020-02-08T08:58:31.249Z</time>
      </trkpt>
      <trkpt lat="39.00428667" lon="-0.40380667">
        <ele>181.973</ele>
        <time>2020-02-08T08:58:32.249Z</time>
      </trkpt>
      <trkpt lat="39.00428667" lon="-0.40380667">
        <ele>182.973</ele>
        <time>2020-02-08T08:58:33.249Z</time>
      </trkpt>
      <trkpt lat="39.00425" lon="-0.40385833">
        <ele>182.973</ele>
        <time>2020-02-08T08:58:34.249Z</time>
      </trkpt>
      <trkpt lat="39.00425" lon="-0.40385833">
        <ele>183.973</ele>
        <time>2020-02-08T08:58:35.249Z</time>
      </trkpt>
      <trkpt lat="39.00422667" lon="-0.403905">
        <ele>183.973</ele>
        <time>2020-02-08T08:58:36.249Z</time>
      </trkpt>
      <trkpt lat="39.00422667" lon="-0.403905">
        <ele>184.973</ele>
        <time>2020-02-08T08:58:37.249Z</time>
      </trkpt>
      <trkpt lat="39.00419" lon="-0.40395667">
        <ele>184.973</ele>
        <time>2020-02-08T08:58:38.249Z</time>
      </trkpt>
      <trkpt lat="39.004175" lon="-0.40398333">
        <ele>185.973</ele>
        <time>2020-02-08T08:58:39.249Z</time>
      </trkpt>
      <trkpt lat="39.004175" lon="-0.40398333">
        <ele>185.973</ele>
        <time>2020-02-08T08:58:40.249Z</time>
      </trkpt>
      <trkpt lat="39.00415" lon="-0.404035">
        <ele>186.973</ele>
        <time>2020-02-08T08:58:41.249Z</time>
      </trkpt>
      <trkpt lat="39.00415" lon="-0.404035">
        <ele>187.973</ele>
        <time>2020-02-08T08:58:42.249Z</time>
      </trkpt>
      <trkpt lat="39.004125" lon="-0.40408667">
        <ele>187.973</ele>
        <time>2020-02-08T08:58:43.249Z</time>
      </trkpt>
      <trkpt lat="39.004125" lon="-0.40408667">
        <ele>187.973</ele>
        <time>2020-02-08T08:58:44.249Z</time>
      </trkpt>
      <trkpt lat="39.00408667" lon="-0.40414">
        <ele>187.973</ele>
        <time>2020-02-08T08:58:45.249Z</time>
      </trkpt>
      <trkpt lat="39.00408667" lon="-0.40414">
        <ele>187.973</ele>
        <time>2020-02-08T08:58:46.249Z</time>
      </trkpt>
      <trkpt lat="39.00405833" lon="-0.40417833">
        <ele>187.973</ele>
        <time>2020-02-08T08:58:47.249Z</time>
      </trkpt>
      <trkpt lat="39.00404167" lon="-0.40419833">
        <ele>189.973</ele>
        <time>2020-02-08T08:58:48.249Z</time>
      </trkpt>
      <trkpt lat="39.004025" lon="-0.40422">
        <ele>189.973</ele>
        <time>2020-02-08T08:58:49.249Z</time>
      </trkpt>
      <trkpt lat="39.004025" lon="-0.40422">
        <ele>189.973</ele>
        <time>2020-02-08T08:58:50.249Z</time>
      </trkpt>
      <trkpt lat="39.00399333" lon="-0.40427167">
        <ele>189.973</ele>
        <time>2020-02-08T08:58:51.249Z</time>
      </trkpt>
      <trkpt lat="39.00397667" lon="-0.40429167">
        <ele>189.973</ele>
        <time>2020-02-08T08:58:52.249Z</time>
      </trkpt>
      <trkpt lat="39.00397667" lon="-0.40429167">
        <ele>190.973</ele>
        <time>2020-02-08T08:58:53.249Z</time>
      </trkpt>
      <trkpt lat="39.00394833" lon="-0.40433333">
        <ele>190.973</ele>
        <time>2020-02-08T08:58:54.249Z</time>
      </trkpt>
      <trkpt lat="39.00393667" lon="-0.40435667">
        <ele>191.973</ele>
        <time>2020-02-08T08:58:55.249Z</time>
      </trkpt>
      <trkpt lat="39.00393667" lon="-0.40435667">
        <ele>191.973</ele>
        <time>2020-02-08T08:58:56.249Z</time>
      </trkpt>
      <trkpt lat="39.00391167" lon="-0.40440833">
        <ele>191.973</ele>
        <time>2020-02-08T08:58:57.249Z</time>
      </trkpt>
      <trkpt lat="39.00391167" lon="-0.40440833">
        <ele>191.973</ele>
        <time>2020-02-08T08:58:58.249Z</time>
      </trkpt>
      <trkpt lat="39.00387667" lon="-0.40445167">
        <ele>192.973</ele>
        <time>2020-02-08T08:58:59.249Z</time>
      </trkpt>
      <trkpt lat="39.00385833" lon="-0.40446833">
        <ele>192.973</ele>
        <time>2020-02-08T08:59:00.249Z</time>
      </trkpt>
      <trkpt lat="39.00385833" lon="-0.40446833">
        <ele>192.973</ele>
        <time>2020-02-08T08:59:01.249Z</time>
      </trkpt>
      <trkpt lat="39.00383" lon="-0.40451333">
        <ele>192.973</ele>
        <time>2020-02-08T08:59:02.249Z</time>
      </trkpt>
      <trkpt lat="39.003815" lon="-0.40453667">
        <ele>192.973</ele>
        <time>2020-02-08T08:59:03.249Z</time>
      </trkpt>
      <trkpt lat="39.003815" lon="-0.40453667">
        <ele>192.973</ele>
        <time>2020-02-08T08:59:04.249Z</time>
      </trkpt>
      <trkpt lat="39.00377667" lon="-0.404585">
        <ele>193.973</ele>
        <time>2020-02-08T08:59:05.249Z</time>
      </trkpt>
      <trkpt lat="39.00375833" lon="-0.40461167">
        <ele>193.973</ele>
        <time>2020-02-08T08:59:06.249Z</time>
      </trkpt>
      <trkpt lat="39.00374167" lon="-0.40464">
        <ele>193.973</ele>
        <time>2020-02-08T08:59:07.249Z</time>
      </trkpt>
      <trkpt lat="39.00374167" lon="-0.40464">
        <ele>193.973</ele>
        <time>2020-02-08T08:59:08.249Z</time>
      </trkpt>
      <trkpt lat="39.00370667" lon="-0.40469">
        <ele>193.973</ele>
        <time>2020-02-08T08:59:09.249Z</time>
      </trkpt>
      <trkpt lat="39.00370667" lon="-0.40469">
        <ele>195.973</ele>
        <time>2020-02-08T08:59:10.249Z</time>
      </trkpt>
      <trkpt lat="39.003665" lon="-0.404735">
        <ele>195.973</ele>
        <time>2020-02-08T08:59:11.249Z</time>
      </trkpt>
      <trkpt lat="39.003665" lon="-0.404735">
        <ele>195.973</ele>
        <time>2020-02-08T08:59:12.249Z</time>
      </trkpt>
      <trkpt lat="39.00362333" lon="-0.40477">
        <ele>195.973</ele>
        <time>2020-02-08T08:59:13.249Z</time>
      </trkpt>
      <trkpt lat="39.00362333" lon="-0.40477">
        <ele>195.973</ele>
        <time>2020-02-08T08:59:14.249Z</time>
      </trkpt>
      <trkpt lat="39.003585" lon="-0.40479667">
        <ele>196.973</ele>
        <time>2020-02-08T08:59:15.249Z</time>
      </trkpt>
      <trkpt lat="39.003585" lon="-0.40479667">
        <ele>196.973</ele>
        <time>2020-02-08T08:59:16.249Z</time>
      </trkpt>
      <trkpt lat="39.00355667" lon="-0.404835">
        <ele>196.973</ele>
        <time>2020-02-08T08:59:17.249Z</time>
      </trkpt>
      <trkpt lat="39.00355667" lon="-0.404835">
        <ele>196.973</ele>
        <time>2020-02-08T08:59:18.249Z</time>
      </trkpt>
      <trkpt lat="39.00352667" lon="-0.40487833">
        <ele>196.973</ele>
        <time>2020-02-08T08:59:19.249Z</time>
      </trkpt>
      <trkpt lat="39.00352667" lon="-0.40487833">
        <ele>196.973</ele>
        <time>2020-02-08T08:59:20.249Z</time>
      </trkpt>
      <trkpt lat="39.00349833" lon="-0.40492167">
        <ele>197.973</ele>
        <time>2020-02-08T08:59:21.249Z</time>
      </trkpt>
      <trkpt lat="39.00349833" lon="-0.40492167">
        <ele>197.973</ele>
        <time>2020-02-08T08:59:22.249Z</time>
      </trkpt>
      <trkpt lat="39.00347333" lon="-0.40496833">
        <ele>197.973</ele>
        <time>2020-02-08T08:59:23.249Z</time>
      </trkpt>
      <trkpt lat="39.00347333" lon="-0.40496833">
        <ele>197.973</ele>
        <time>2020-02-08T08:59:24.249Z</time>
      </trkpt>
      <trkpt lat="39.00345667" lon="-0.405015">
        <ele>197.973</ele>
        <time>2020-02-08T08:59:25.249Z</time>
      </trkpt>
      <trkpt lat="39.00345667" lon="-0.405015">
        <ele>197.973</ele>
        <time>2020-02-08T08:59:26.249Z</time>
      </trkpt>
      <trkpt lat="39.00344167" lon="-0.40507">
        <ele>197.973</ele>
        <time>2020-02-08T08:59:27.249Z</time>
      </trkpt>
      <trkpt lat="39.00343667" lon="-0.40511167">
        <ele>197.973</ele>
        <time>2020-02-08T08:59:28.249Z</time>
      </trkpt>
      <trkpt lat="39.00343667" lon="-0.40511167">
        <ele>197.973</ele>
        <time>2020-02-08T08:59:29.249Z</time>
      </trkpt>
      <trkpt lat="39.00342667" lon="-0.40521833">
        <ele>197.973</ele>
        <time>2020-02-08T08:59:30.249Z</time>
      </trkpt>
      <trkpt lat="39.00342333" lon="-0.405275">
        <ele>197.973</ele>
        <time>2020-02-08T08:59:31.249Z</time>
      </trkpt>
      <trkpt lat="39.00342333" lon="-0.405275">
        <ele>197.973</ele>
        <time>2020-02-08T08:59:32.249Z</time>
      </trkpt>
      <trkpt lat="39.00342333" lon="-0.40538667">
        <ele>197.973</ele>
        <time>2020-02-08T08:59:33.249Z</time>
      </trkpt>
      <trkpt lat="39.00342333" lon="-0.40538667">
        <ele>197.973</ele>
        <time>2020-02-08T08:59:34.249Z</time>
      </trkpt>
      <trkpt lat="39.00343667" lon="-0.405495">
        <ele>197.973</ele>
        <time>2020-02-08T08:59:35.249Z</time>
      </trkpt>
      <trkpt lat="39.003445" lon="-0.40554833">
        <ele>197.973</ele>
        <time>2020-02-08T08:59:36.249Z</time>
      </trkpt>
      <trkpt lat="39.003455" lon="-0.40559833">
        <ele>196.973</ele>
        <time>2020-02-08T08:59:37.249Z</time>
      </trkpt>
      <trkpt lat="39.003455" lon="-0.40559833">
        <ele>196.973</ele>
        <time>2020-02-08T08:59:38.249Z</time>
      </trkpt>
      <trkpt lat="39.00348167" lon="-0.40569667">
        <ele>196.973</ele>
        <time>2020-02-08T08:59:39.249Z</time>
      </trkpt>
      <trkpt lat="39.00348167" lon="-0.40569667">
        <ele>196.973</ele>
        <time>2020-02-08T08:59:40.249Z</time>
      </trkpt>
      <trkpt lat="39.00351167" lon="-0.40580167">
        <ele>196.973</ele>
        <time>2020-02-08T08:59:41.249Z</time>
      </trkpt>
      <trkpt lat="39.00351167" lon="-0.40580167">
        <ele>196.973</ele>
        <time>2020-02-08T08:59:42.249Z</time>
      </trkpt>
      <trkpt lat="39.003545" lon="-0.40590167">
        <ele>196.973</ele>
        <time>2020-02-08T08:59:43.249Z</time>
      </trkpt>
      <trkpt lat="39.003545" lon="-0.40590167">
        <ele>197.973</ele>
        <time>2020-02-08T08:59:44.249Z</time>
      </trkpt>
      <trkpt lat="39.00358167" lon="-0.405995">
        <ele>197.973</ele>
        <time>2020-02-08T08:59:45.249Z</time>
      </trkpt>
      <trkpt lat="39.00358167" lon="-0.405995">
        <ele>197.973</ele>
        <time>2020-02-08T08:59:46.249Z</time>
      </trkpt>
      <trkpt lat="39.00364333" lon="-0.40606167">
        <ele>197.973</ele>
        <time>2020-02-08T08:59:47.249Z</time>
      </trkpt>
      <trkpt lat="39.00368333" lon="-0.40608167">
        <ele>197.973</ele>
        <time>2020-02-08T08:59:48.249Z</time>
      </trkpt>
      <trkpt lat="39.00368333" lon="-0.40608167">
        <ele>197.973</ele>
        <time>2020-02-08T08:59:49.249Z</time>
      </trkpt>
      <trkpt lat="39.00375833" lon="-0.406115">
        <ele>197.973</ele>
        <time>2020-02-08T08:59:50.249Z</time>
      </trkpt>
      <trkpt lat="39.00375833" lon="-0.406115">
        <ele>197.973</ele>
        <time>2020-02-08T08:59:51.249Z</time>
      </trkpt>
      <trkpt lat="39.003815" lon="-0.40617667">
        <ele>199.973</ele>
        <time>2020-02-08T08:59:52.249Z</time>
      </trkpt>
      <trkpt lat="39.003815" lon="-0.40617667">
        <ele>199.973</ele>
        <time>2020-02-08T08:59:53.249Z</time>
      </trkpt>
      <trkpt lat="39.003835" lon="-0.40627167">
        <ele>199.973</ele>
        <time>2020-02-08T08:59:54.249Z</time>
      </trkpt>
      <trkpt lat="39.003835" lon="-0.40627167">
        <ele>199.973</ele>
        <time>2020-02-08T08:59:55.249Z</time>
      </trkpt>
      <trkpt lat="39.00383333" lon="-0.40637167">
        <ele>200.973</ele>
        <time>2020-02-08T08:59:56.249Z</time>
      </trkpt>
      <trkpt lat="39.00383333" lon="-0.40637167">
        <ele>200.973</ele>
        <time>2020-02-08T08:59:57.249Z</time>
      </trkpt>
      <trkpt lat="39.003825" lon="-0.40646667">
        <ele>201.973</ele>
        <time>2020-02-08T08:59:58.249Z</time>
      </trkpt>
      <trkpt lat="39.003825" lon="-0.40646667">
        <ele>201.973</ele>
        <time>2020-02-08T08:59:59.249Z</time>
      </trkpt>
      <trkpt lat="39.00382667" lon="-0.40655333">
        <ele>201.973</ele>
        <time>2020-02-08T09:00:00.249Z</time>
      </trkpt>
      <trkpt lat="39.00382667" lon="-0.40655333">
        <ele>201.973</ele>
        <time>2020-02-08T09:00:01.249Z</time>
      </trkpt>
      <trkpt lat="39.00383333" lon="-0.40663667">
        <ele>202.973</ele>
        <time>2020-02-08T09:00:02.249Z</time>
      </trkpt>
      <trkpt lat="39.00383833" lon="-0.40668167">
        <ele>202.973</ele>
        <time>2020-02-08T09:00:03.249Z</time>
      </trkpt>
      <trkpt lat="39.00383833" lon="-0.40668167">
        <ele>202.973</ele>
        <time>2020-02-08T09:00:04.249Z</time>
      </trkpt>
      <trkpt lat="39.00385667" lon="-0.40677167">
        <ele>202.973</ele>
        <time>2020-02-08T09:00:05.249Z</time>
      </trkpt>
      <trkpt lat="39.00385667" lon="-0.40677167">
        <ele>203.973</ele>
        <time>2020-02-08T09:00:06.249Z</time>
      </trkpt>
      <trkpt lat="39.00387333" lon="-0.40685833">
        <ele>204.973</ele>
        <time>2020-02-08T09:00:07.249Z</time>
      </trkpt>
      <trkpt lat="39.00387833" lon="-0.4069">
        <ele>204.973</ele>
        <time>2020-02-08T09:00:08.249Z</time>
      </trkpt>
      <trkpt lat="39.00388333" lon="-0.40694333">
        <ele>204.973</ele>
        <time>2020-02-08T09:00:09.249Z</time>
      </trkpt>
      <trkpt lat="39.00388333" lon="-0.40694333">
        <ele>204.973</ele>
        <time>2020-02-08T09:00:10.249Z</time>
      </trkpt>
      <trkpt lat="39.00389333" lon="-0.40703333">
        <ele>205.973</ele>
        <time>2020-02-08T09:00:11.249Z</time>
      </trkpt>
      <trkpt lat="39.00389333" lon="-0.40703333">
        <ele>205.973</ele>
        <time>2020-02-08T09:00:12.249Z</time>
      </trkpt>
      <trkpt lat="39.00389" lon="-0.40712667">
        <ele>205.973</ele>
        <time>2020-02-08T09:00:13.249Z</time>
      </trkpt>
      <trkpt lat="39.00389" lon="-0.40712667">
        <ele>205.973</ele>
        <time>2020-02-08T09:00:14.249Z</time>
      </trkpt>
      <trkpt lat="39.00388333" lon="-0.40721833">
        <ele>205.973</ele>
        <time>2020-02-08T09:00:15.249Z</time>
      </trkpt>
      <trkpt lat="39.00388167" lon="-0.407265">
        <ele>206.973</ele>
        <time>2020-02-08T09:00:16.249Z</time>
      </trkpt>
      <trkpt lat="39.00388167" lon="-0.407265">
        <ele>206.973</ele>
        <time>2020-02-08T09:00:17.249Z</time>
      </trkpt>
      <trkpt lat="39.00388333" lon="-0.407365">
        <ele>206.973</ele>
        <time>2020-02-08T09:00:18.249Z</time>
      </trkpt>
      <trkpt lat="39.00388333" lon="-0.407365">
        <ele>206.973</ele>
        <time>2020-02-08T09:00:19.249Z</time>
      </trkpt>
      <trkpt lat="39.00389167" lon="-0.40746167">
        <ele>208.973</ele>
        <time>2020-02-08T09:00:20.249Z</time>
      </trkpt>
      <trkpt lat="39.00389167" lon="-0.40746167">
        <ele>208.973</ele>
        <time>2020-02-08T09:00:21.249Z</time>
      </trkpt>
      <trkpt lat="39.00390833" lon="-0.40755833">
        <ele>208.973</ele>
        <time>2020-02-08T09:00:22.249Z</time>
      </trkpt>
      <trkpt lat="39.00390833" lon="-0.40755833">
        <ele>208.973</ele>
        <time>2020-02-08T09:00:23.249Z</time>
      </trkpt>
      <trkpt lat="39.00393167" lon="-0.40766167">
        <ele>208.973</ele>
        <time>2020-02-08T09:00:24.249Z</time>
      </trkpt>
      <trkpt lat="39.00394333" lon="-0.407715">
        <ele>208.973</ele>
        <time>2020-02-08T09:00:25.249Z</time>
      </trkpt>
      <trkpt lat="39.00394333" lon="-0.407715">
        <ele>208.973</ele>
        <time>2020-02-08T09:00:26.249Z</time>
      </trkpt>
      <trkpt lat="39.00396833" lon="-0.40781333">
        <ele>208.973</ele>
        <time>2020-02-08T09:00:27.249Z</time>
      </trkpt>
      <trkpt lat="39.00398167" lon="-0.40786167">
        <ele>208.973</ele>
        <time>2020-02-08T09:00:28.249Z</time>
      </trkpt>
      <trkpt lat="39.00398167" lon="-0.40786167">
        <ele>208.973</ele>
        <time>2020-02-08T09:00:29.249Z</time>
      </trkpt>
      <trkpt lat="39.004005" lon="-0.40795833">
        <ele>208.973</ele>
        <time>2020-02-08T09:00:30.249Z</time>
      </trkpt>
      <trkpt lat="39.00401667" lon="-0.40800667">
        <ele>208.973</ele>
        <time>2020-02-08T09:00:31.249Z</time>
      </trkpt>
      <trkpt lat="39.00401667" lon="-0.40800667">
        <ele>208.973</ele>
        <time>2020-02-08T09:00:32.249Z</time>
      </trkpt>
      <trkpt lat="39.00404833" lon="-0.408105">
        <ele>208.973</ele>
        <time>2020-02-08T09:00:33.249Z</time>
      </trkpt>
      <trkpt lat="39.00404833" lon="-0.408105">
        <ele>208.973</ele>
        <time>2020-02-08T09:00:34.249Z</time>
      </trkpt>
      <trkpt lat="39.00407667" lon="-0.40821167">
        <ele>208.973</ele>
        <time>2020-02-08T09:00:35.249Z</time>
      </trkpt>
      <trkpt lat="39.00407667" lon="-0.40821167">
        <ele>208.973</ele>
        <time>2020-02-08T09:00:36.249Z</time>
      </trkpt>
      <trkpt lat="39.00411167" lon="-0.408325">
        <ele>208.973</ele>
        <time>2020-02-08T09:00:37.249Z</time>
      </trkpt>
      <trkpt lat="39.00411167" lon="-0.408325">
        <ele>208.973</ele>
        <time>2020-02-08T09:00:38.249Z</time>
      </trkpt>
      <trkpt lat="39.004165" lon="-0.40844667">
        <ele>207.973</ele>
        <time>2020-02-08T09:00:39.249Z</time>
      </trkpt>
      <trkpt lat="39.004165" lon="-0.40844667">
        <ele>207.973</ele>
        <time>2020-02-08T09:00:40.249Z</time>
      </trkpt>
      <trkpt lat="39.00425167" lon="-0.40857833">
        <ele>207.973</ele>
        <time>2020-02-08T09:00:41.249Z</time>
      </trkpt>
      <trkpt lat="39.00425167" lon="-0.40857833">
        <ele>207.973</ele>
        <time>2020-02-08T09:00:42.249Z</time>
      </trkpt>
      <trkpt lat="39.00435167" lon="-0.40869833">
        <ele>206.973</ele>
        <time>2020-02-08T09:00:43.249Z</time>
      </trkpt>
      <trkpt lat="39.00435167" lon="-0.40869833">
        <ele>206.973</ele>
        <time>2020-02-08T09:00:44.249Z</time>
      </trkpt>
      <trkpt lat="39.00445167" lon="-0.40883">
        <ele>206.973</ele>
        <time>2020-02-08T09:00:45.249Z</time>
      </trkpt>
      <trkpt lat="39.00445167" lon="-0.40883">
        <ele>206.973</ele>
        <time>2020-02-08T09:00:46.249Z</time>
      </trkpt>
      <trkpt lat="39.004535" lon="-0.40897833">
        <ele>206.973</ele>
        <time>2020-02-08T09:00:47.249Z</time>
      </trkpt>
      <trkpt lat="39.004535" lon="-0.40897833">
        <ele>206.973</ele>
        <time>2020-02-08T09:00:48.249Z</time>
      </trkpt>
      <trkpt lat="39.00459" lon="-0.409145">
        <ele>206.973</ele>
        <time>2020-02-08T09:00:49.249Z</time>
      </trkpt>
      <trkpt lat="39.00459" lon="-0.409145">
        <ele>206.973</ele>
        <time>2020-02-08T09:00:50.249Z</time>
      </trkpt>
      <trkpt lat="39.00462833" lon="-0.409315">
        <ele>206.973</ele>
        <time>2020-02-08T09:00:51.249Z</time>
      </trkpt>
      <trkpt lat="39.00462833" lon="-0.409315">
        <ele>206.973</ele>
        <time>2020-02-08T09:00:52.249Z</time>
      </trkpt>
      <trkpt lat="39.00465833" lon="-0.40948833">
        <ele>206.973</ele>
        <time>2020-02-08T09:00:53.249Z</time>
      </trkpt>
      <trkpt lat="39.00467667" lon="-0.40957167">
        <ele>206.973</ele>
        <time>2020-02-08T09:00:54.249Z</time>
      </trkpt>
      <trkpt lat="39.00467667" lon="-0.40957167">
        <ele>206.973</ele>
        <time>2020-02-08T09:00:55.249Z</time>
      </trkpt>
      <trkpt lat="39.00470833" lon="-0.409725">
        <ele>206.973</ele>
        <time>2020-02-08T09:00:56.249Z</time>
      </trkpt>
      <trkpt lat="39.00470833" lon="-0.409725">
        <ele>206.973</ele>
        <time>2020-02-08T09:00:57.249Z</time>
      </trkpt>
      <trkpt lat="39.00473167" lon="-0.40988167">
        <ele>206.973</ele>
        <time>2020-02-08T09:00:58.249Z</time>
      </trkpt>
      <trkpt lat="39.00473167" lon="-0.40988167">
        <ele>206.973</ele>
        <time>2020-02-08T09:00:59.249Z</time>
      </trkpt>
      <trkpt lat="39.00475833" lon="-0.41004333">
        <ele>206.973</ele>
        <time>2020-02-08T09:01:00.249Z</time>
      </trkpt>
      <trkpt lat="39.00475833" lon="-0.41004333">
        <ele>206.973</ele>
        <time>2020-02-08T09:01:01.249Z</time>
      </trkpt>
      <trkpt lat="39.00479167" lon="-0.41022333">
        <ele>206.973</ele>
        <time>2020-02-08T09:01:02.249Z</time>
      </trkpt>
      <trkpt lat="39.00481667" lon="-0.41031833">
        <ele>206.973</ele>
        <time>2020-02-08T09:01:03.249Z</time>
      </trkpt>
      <trkpt lat="39.00481667" lon="-0.41031833">
        <ele>206.973</ele>
        <time>2020-02-08T09:01:04.249Z</time>
      </trkpt>
      <trkpt lat="39.004895" lon="-0.41051167">
        <ele>204.973</ele>
        <time>2020-02-08T09:01:05.249Z</time>
      </trkpt>
      <trkpt lat="39.004895" lon="-0.41051167">
        <ele>204.973</ele>
        <time>2020-02-08T09:01:06.249Z</time>
      </trkpt>
      <trkpt lat="39.00498833" lon="-0.410715">
        <ele>204.973</ele>
        <time>2020-02-08T09:01:07.249Z</time>
      </trkpt>
      <trkpt lat="39.00503333" lon="-0.41082833">
        <ele>202.973</ele>
        <time>2020-02-08T09:01:08.249Z</time>
      </trkpt>
      <trkpt lat="39.00503333" lon="-0.41082833">
        <ele>202.973</ele>
        <time>2020-02-08T09:01:09.249Z</time>
      </trkpt>
      <trkpt lat="39.00513667" lon="-0.41106333">
        <ele>200.973</ele>
        <time>2020-02-08T09:01:10.249Z</time>
      </trkpt>
      <trkpt lat="39.005195" lon="-0.411185">
        <ele>200.973</ele>
        <time>2020-02-08T09:01:11.249Z</time>
      </trkpt>
      <trkpt lat="39.005195" lon="-0.411185">
        <ele>198.973</ele>
        <time>2020-02-08T09:01:12.249Z</time>
      </trkpt>
      <trkpt lat="39.00530833" lon="-0.411445">
        <ele>198.973</ele>
        <time>2020-02-08T09:01:13.249Z</time>
      </trkpt>
      <trkpt lat="39.00530833" lon="-0.411445">
        <ele>196.973</ele>
        <time>2020-02-08T09:01:14.249Z</time>
      </trkpt>
      <trkpt lat="39.00541667" lon="-0.41171333">
        <ele>196.973</ele>
        <time>2020-02-08T09:01:15.249Z</time>
      </trkpt>
      <trkpt lat="39.00541667" lon="-0.41171333">
        <ele>193.973</ele>
        <time>2020-02-08T09:01:16.249Z</time>
      </trkpt>
      <trkpt lat="39.00556" lon="-0.411985">
        <ele>193.973</ele>
        <time>2020-02-08T09:01:17.249Z</time>
      </trkpt>
      <trkpt lat="39.00556" lon="-0.411985">
        <ele>191.973</ele>
        <time>2020-02-08T09:01:18.249Z</time>
      </trkpt>
      <trkpt lat="39.00574167" lon="-0.41222833">
        <ele>191.973</ele>
        <time>2020-02-08T09:01:19.249Z</time>
      </trkpt>
      <trkpt lat="39.00574167" lon="-0.41222833">
        <ele>188.973</ele>
        <time>2020-02-08T09:01:20.249Z</time>
      </trkpt>
      <trkpt lat="39.005925" lon="-0.41246833">
        <ele>188.973</ele>
        <time>2020-02-08T09:01:21.249Z</time>
      </trkpt>
      <trkpt lat="39.005925" lon="-0.41246833">
        <ele>186.973</ele>
        <time>2020-02-08T09:01:22.249Z</time>
      </trkpt>
      <trkpt lat="39.00610333" lon="-0.41272">
        <ele>186.973</ele>
        <time>2020-02-08T09:01:23.249Z</time>
      </trkpt>
      <trkpt lat="39.00610333" lon="-0.41272">
        <ele>183.973</ele>
        <time>2020-02-08T09:01:24.249Z</time>
      </trkpt>
      <trkpt lat="39.00626" lon="-0.41294">
        <ele>183.973</ele>
        <time>2020-02-08T09:01:25.249Z</time>
      </trkpt>
      <trkpt lat="39.00626" lon="-0.41294">
        <ele>181.973</ele>
        <time>2020-02-08T09:01:26.249Z</time>
      </trkpt>
      <trkpt lat="39.00642333" lon="-0.4131">
        <ele>181.973</ele>
        <time>2020-02-08T09:01:27.249Z</time>
      </trkpt>
      <trkpt lat="39.00651667" lon="-0.413155">
        <ele>178.973</ele>
        <time>2020-02-08T09:01:28.249Z</time>
      </trkpt>
      <trkpt lat="39.00661" lon="-0.413205">
        <ele>178.973</ele>
        <time>2020-02-08T09:01:29.249Z</time>
      </trkpt>
      <trkpt lat="39.00669667" lon="-0.41325667">
        <ele>176.973</ele>
        <time>2020-02-08T09:01:30.249Z</time>
      </trkpt>
      <trkpt lat="39.00669667" lon="-0.41325667">
        <ele>176.973</ele>
        <time>2020-02-08T09:01:31.249Z</time>
      </trkpt>
      <trkpt lat="39.00686667" lon="-0.41334333">
        <ele>174.973</ele>
        <time>2020-02-08T09:01:32.249Z</time>
      </trkpt>
      <trkpt lat="39.006945" lon="-0.413365">
        <ele>174.973</ele>
        <time>2020-02-08T09:01:33.249Z</time>
      </trkpt>
      <trkpt lat="39.006945" lon="-0.413365">
        <ele>172.973</ele>
        <time>2020-02-08T09:01:34.249Z</time>
      </trkpt>
      <trkpt lat="39.00710167" lon="-0.41333">
        <ele>171.973</ele>
        <time>2020-02-08T09:01:35.249Z</time>
      </trkpt>
      <trkpt lat="39.00710167" lon="-0.41333">
        <ele>171.973</ele>
        <time>2020-02-08T09:01:36.249Z</time>
      </trkpt>
      <trkpt lat="39.00725167" lon="-0.41324667">
        <ele>170.973</ele>
        <time>2020-02-08T09:01:37.249Z</time>
      </trkpt>
      <trkpt lat="39.00725167" lon="-0.41324667">
        <ele>170.973</ele>
        <time>2020-02-08T09:01:38.249Z</time>
      </trkpt>
      <trkpt lat="39.00742333" lon="-0.41322">
        <ele>169.973</ele>
        <time>2020-02-08T09:01:39.249Z</time>
      </trkpt>
      <trkpt lat="39.00751" lon="-0.41324833">
        <ele>169.973</ele>
        <time>2020-02-08T09:01:40.249Z</time>
      </trkpt>
      <trkpt lat="39.00751" lon="-0.41324833">
        <ele>167.973</ele>
        <time>2020-02-08T09:01:41.249Z</time>
      </trkpt>
      <trkpt lat="39.007685" lon="-0.41337167">
        <ele>167.973</ele>
        <time>2020-02-08T09:01:42.249Z</time>
      </trkpt>
      <trkpt lat="39.007685" lon="-0.41337167">
        <ele>165.973</ele>
        <time>2020-02-08T09:01:43.249Z</time>
      </trkpt>
      <trkpt lat="39.007865" lon="-0.41350667">
        <ele>165.973</ele>
        <time>2020-02-08T09:01:44.249Z</time>
      </trkpt>
      <trkpt lat="39.00795667" lon="-0.41355">
        <ele>163.973</ele>
        <time>2020-02-08T09:01:45.249Z</time>
      </trkpt>
      <trkpt lat="39.00795667" lon="-0.41355">
        <ele>163.973</ele>
        <time>2020-02-08T09:01:46.249Z</time>
      </trkpt>
      <trkpt lat="39.00814333" lon="-0.41359667">
        <ele>161.973</ele>
        <time>2020-02-08T09:01:47.249Z</time>
      </trkpt>
      <trkpt lat="39.00814333" lon="-0.41359667">
        <ele>161.973</ele>
        <time>2020-02-08T09:01:48.249Z</time>
      </trkpt>
      <trkpt lat="39.008335" lon="-0.41360833">
        <ele>159.973</ele>
        <time>2020-02-08T09:01:49.249Z</time>
      </trkpt>
      <trkpt lat="39.00843333" lon="-0.41359833">
        <ele>159.973</ele>
        <time>2020-02-08T09:01:50.249Z</time>
      </trkpt>
      <trkpt lat="39.00852667" lon="-0.41358167">
        <ele>157.973</ele>
        <time>2020-02-08T09:01:51.249Z</time>
      </trkpt>
      <trkpt lat="39.00852667" lon="-0.41358167">
        <ele>157.973</ele>
        <time>2020-02-08T09:01:52.249Z</time>
      </trkpt>
      <trkpt lat="39.00870833" lon="-0.413565">
        <ele>155.973</ele>
        <time>2020-02-08T09:01:53.249Z</time>
      </trkpt>
      <trkpt lat="39.00870833" lon="-0.413565">
        <ele>155.973</ele>
        <time>2020-02-08T09:01:54.249Z</time>
      </trkpt>
      <trkpt lat="39.00888333" lon="-0.41356167">
        <ele>153.973</ele>
        <time>2020-02-08T09:01:55.249Z</time>
      </trkpt>
      <trkpt lat="39.00888333" lon="-0.41356167">
        <ele>153.973</ele>
        <time>2020-02-08T09:01:56.249Z</time>
      </trkpt>
      <trkpt lat="39.00905667" lon="-0.41351667">
        <ele>152.973</ele>
        <time>2020-02-08T09:01:57.249Z</time>
      </trkpt>
      <trkpt lat="39.00905667" lon="-0.41351667">
        <ele>152.973</ele>
        <time>2020-02-08T09:01:58.249Z</time>
      </trkpt>
      <trkpt lat="39.00923333" lon="-0.41348167">
        <ele>150.973</ele>
        <time>2020-02-08T09:01:59.249Z</time>
      </trkpt>
      <trkpt lat="39.00932833" lon="-0.41347667">
        <ele>150.973</ele>
        <time>2020-02-08T09:02:00.249Z</time>
      </trkpt>
      <trkpt lat="39.00932833" lon="-0.41347667">
        <ele>149.973</ele>
        <time>2020-02-08T09:02:01.249Z</time>
      </trkpt>
      <trkpt lat="39.00950667" lon="-0.413475">
        <ele>149.973</ele>
        <time>2020-02-08T09:02:02.249Z</time>
      </trkpt>
      <trkpt lat="39.00959333" lon="-0.41348167">
        <ele>147.973</ele>
        <time>2020-02-08T09:02:03.249Z</time>
      </trkpt>
      <trkpt lat="39.00959333" lon="-0.41348167">
        <ele>146.973</ele>
        <time>2020-02-08T09:02:04.249Z</time>
      </trkpt>
      <trkpt lat="39.009765" lon="-0.41352333">
        <ele>146.973</ele>
        <time>2020-02-08T09:02:05.249Z</time>
      </trkpt>
      <trkpt lat="39.00985" lon="-0.41353667">
        <ele>145.973</ele>
        <time>2020-02-08T09:02:06.249Z</time>
      </trkpt>
      <trkpt lat="39.00993" lon="-0.41355667">
        <ele>145.973</ele>
        <time>2020-02-08T09:02:07.249Z</time>
      </trkpt>
      <trkpt lat="39.00993" lon="-0.41355667">
        <ele>145.973</ele>
        <time>2020-02-08T09:02:08.249Z</time>
      </trkpt>
      <trkpt lat="39.01008833" lon="-0.41358333">
        <ele>145.973</ele>
        <time>2020-02-08T09:02:09.249Z</time>
      </trkpt>
      <trkpt lat="39.01016667" lon="-0.41359833">
        <ele>144.973</ele>
        <time>2020-02-08T09:02:10.249Z</time>
      </trkpt>
      <trkpt lat="39.01016667" lon="-0.41359833">
        <ele>144.973</ele>
        <time>2020-02-08T09:02:11.249Z</time>
      </trkpt>
      <trkpt lat="39.010315" lon="-0.41362833">
        <ele>144.973</ele>
        <time>2020-02-08T09:02:12.249Z</time>
      </trkpt>
      <trkpt lat="39.01039667" lon="-0.41364667">
        <ele>144.973</ele>
        <time>2020-02-08T09:02:13.249Z</time>
      </trkpt>
      <trkpt lat="39.01039667" lon="-0.41364667">
        <ele>143.973</ele>
        <time>2020-02-08T09:02:14.249Z</time>
      </trkpt>
      <trkpt lat="39.01055833" lon="-0.41369">
        <ele>143.973</ele>
        <time>2020-02-08T09:02:15.249Z</time>
      </trkpt>
      <trkpt lat="39.01055833" lon="-0.41369">
        <ele>142.973</ele>
        <time>2020-02-08T09:02:16.249Z</time>
      </trkpt>
      <trkpt lat="39.010715" lon="-0.41370333">
        <ele>142.973</ele>
        <time>2020-02-08T09:02:17.249Z</time>
      </trkpt>
      <trkpt lat="39.010715" lon="-0.41370333">
        <ele>142.973</ele>
        <time>2020-02-08T09:02:18.249Z</time>
      </trkpt>
      <trkpt lat="39.01087333" lon="-0.41365833">
        <ele>141.973</ele>
        <time>2020-02-08T09:02:19.249Z</time>
      </trkpt>
      <trkpt lat="39.01087333" lon="-0.41365833">
        <ele>141.973</ele>
        <time>2020-02-08T09:02:20.249Z</time>
      </trkpt>
      <trkpt lat="39.01104667" lon="-0.41361167">
        <ele>140.973</ele>
        <time>2020-02-08T09:02:21.249Z</time>
      </trkpt>
      <trkpt lat="39.01104667" lon="-0.41361167">
        <ele>140.973</ele>
        <time>2020-02-08T09:02:22.249Z</time>
      </trkpt>
      <trkpt lat="39.01124833" lon="-0.41357667">
        <ele>138.973</ele>
        <time>2020-02-08T09:02:23.249Z</time>
      </trkpt>
      <trkpt lat="39.01124833" lon="-0.41357667">
        <ele>138.973</ele>
        <time>2020-02-08T09:02:24.249Z</time>
      </trkpt>
      <trkpt lat="39.01145" lon="-0.41355333">
        <ele>136.973</ele>
        <time>2020-02-08T09:02:25.249Z</time>
      </trkpt>
      <trkpt lat="39.01145" lon="-0.41355333">
        <ele>136.973</ele>
        <time>2020-02-08T09:02:26.249Z</time>
      </trkpt>
      <trkpt lat="39.01164667" lon="-0.41353833">
        <ele>134.973</ele>
        <time>2020-02-08T09:02:27.249Z</time>
      </trkpt>
      <trkpt lat="39.011735" lon="-0.41356667">
        <ele>134.973</ele>
        <time>2020-02-08T09:02:28.249Z</time>
      </trkpt>
      <trkpt lat="39.011735" lon="-0.41356667">
        <ele>132.973</ele>
        <time>2020-02-08T09:02:29.249Z</time>
      </trkpt>
      <trkpt lat="39.01189667" lon="-0.41367">
        <ele>132.973</ele>
        <time>2020-02-08T09:02:30.249Z</time>
      </trkpt>
      <trkpt lat="39.01195333" lon="-0.413735">
        <ele>131.973</ele>
        <time>2020-02-08T09:02:31.249Z</time>
      </trkpt>
      <trkpt lat="39.01195333" lon="-0.413735">
        <ele>131.973</ele>
        <time>2020-02-08T09:02:32.249Z</time>
      </trkpt>
      <trkpt lat="39.012055" lon="-0.41387833">
        <ele>131.973</ele>
        <time>2020-02-08T09:02:33.249Z</time>
      </trkpt>
      <trkpt lat="39.012105" lon="-0.41396">
        <ele>131.973</ele>
        <time>2020-02-08T09:02:34.249Z</time>
      </trkpt>
      <trkpt lat="39.012105" lon="-0.41396">
        <ele>131.973</ele>
        <time>2020-02-08T09:02:35.249Z</time>
      </trkpt>
      <trkpt lat="39.01219167" lon="-0.41411167">
        <ele>132.973</ele>
        <time>2020-02-08T09:02:36.249Z</time>
      </trkpt>
      <trkpt lat="39.01223" lon="-0.41419">
        <ele>132.973</ele>
        <time>2020-02-08T09:02:37.249Z</time>
      </trkpt>
      <trkpt lat="39.01223" lon="-0.41419">
        <ele>132.973</ele>
        <time>2020-02-08T09:02:38.249Z</time>
      </trkpt>
      <trkpt lat="39.01230667" lon="-0.41434833">
        <ele>132.973</ele>
        <time>2020-02-08T09:02:39.249Z</time>
      </trkpt>
      <trkpt lat="39.01230667" lon="-0.41434833">
        <ele>134.973</ele>
        <time>2020-02-08T09:02:40.249Z</time>
      </trkpt>
      <trkpt lat="39.01238" lon="-0.414505">
        <ele>134.973</ele>
        <time>2020-02-08T09:02:41.249Z</time>
      </trkpt>
      <trkpt lat="39.01238" lon="-0.414505">
        <ele>135.973</ele>
        <time>2020-02-08T09:02:42.249Z</time>
      </trkpt>
      <trkpt lat="39.01245833" lon="-0.41464833">
        <ele>135.973</ele>
        <time>2020-02-08T09:02:43.249Z</time>
      </trkpt>
      <trkpt lat="39.01245833" lon="-0.41464833">
        <ele>136.973</ele>
        <time>2020-02-08T09:02:44.249Z</time>
      </trkpt>
      <trkpt lat="39.01253667" lon="-0.414785">
        <ele>136.973</ele>
        <time>2020-02-08T09:02:45.249Z</time>
      </trkpt>
      <trkpt lat="39.01253667" lon="-0.414785">
        <ele>136.973</ele>
        <time>2020-02-08T09:02:46.249Z</time>
      </trkpt>
      <trkpt lat="39.01261" lon="-0.41492">
        <ele>136.973</ele>
        <time>2020-02-08T09:02:47.249Z</time>
      </trkpt>
      <trkpt lat="39.01261" lon="-0.41492">
        <ele>137.973</ele>
        <time>2020-02-08T09:02:48.249Z</time>
      </trkpt>
      <trkpt lat="39.01267167" lon="-0.415045">
        <ele>137.973</ele>
        <time>2020-02-08T09:02:49.249Z</time>
      </trkpt>
      <trkpt lat="39.01267167" lon="-0.415045">
        <ele>138.973</ele>
        <time>2020-02-08T09:02:50.249Z</time>
      </trkpt>
      <trkpt lat="39.01274167" lon="-0.41515167">
        <ele>138.973</ele>
        <time>2020-02-08T09:02:51.249Z</time>
      </trkpt>
      <trkpt lat="39.01274167" lon="-0.41515167">
        <ele>139.973</ele>
        <time>2020-02-08T09:02:52.249Z</time>
      </trkpt>
      <trkpt lat="39.01281333" lon="-0.41524167">
        <ele>139.973</ele>
        <time>2020-02-08T09:02:53.249Z</time>
      </trkpt>
      <trkpt lat="39.01285" lon="-0.415285">
        <ele>141.973</ele>
        <time>2020-02-08T09:02:54.249Z</time>
      </trkpt>
      <trkpt lat="39.01285" lon="-0.415285">
        <ele>141.973</ele>
        <time>2020-02-08T09:02:55.249Z</time>
      </trkpt>
      <trkpt lat="39.01292167" lon="-0.415365">
        <ele>142.973</ele>
        <time>2020-02-08T09:02:56.249Z</time>
      </trkpt>
      <trkpt lat="39.01296" lon="-0.41540667">
        <ele>142.973</ele>
        <time>2020-02-08T09:02:57.249Z</time>
      </trkpt>
      <trkpt lat="39.01296" lon="-0.41540667">
        <ele>143.973</ele>
        <time>2020-02-08T09:02:58.249Z</time>
      </trkpt>
      <trkpt lat="39.01304" lon="-0.41546">
        <ele>143.973</ele>
        <time>2020-02-08T09:02:59.249Z</time>
      </trkpt>
      <trkpt lat="39.01304" lon="-0.41546">
        <ele>144.973</ele>
        <time>2020-02-08T09:03:00.249Z</time>
      </trkpt>
      <trkpt lat="39.01312833" lon="-0.41549667">
        <ele>144.973</ele>
        <time>2020-02-08T09:03:01.249Z</time>
      </trkpt>
      <trkpt lat="39.01312833" lon="-0.41549667">
        <ele>144.973</ele>
        <time>2020-02-08T09:03:02.249Z</time>
      </trkpt>
      <trkpt lat="39.01322333" lon="-0.41550833">
        <ele>145.973</ele>
        <time>2020-02-08T09:03:03.249Z</time>
      </trkpt>
      <trkpt lat="39.01327667" lon="-0.4155">
        <ele>145.973</ele>
        <time>2020-02-08T09:03:04.249Z</time>
      </trkpt>
      <trkpt lat="39.01327667" lon="-0.4155">
        <ele>145.973</ele>
        <time>2020-02-08T09:03:05.249Z</time>
      </trkpt>
      <trkpt lat="39.01339667" lon="-0.41546">
        <ele>145.973</ele>
        <time>2020-02-08T09:03:06.249Z</time>
      </trkpt>
      <trkpt lat="39.01339667" lon="-0.41546">
        <ele>144.973</ele>
        <time>2020-02-08T09:03:07.249Z</time>
      </trkpt>
      <trkpt lat="39.01353167" lon="-0.41540667">
        <ele>144.973</ele>
        <time>2020-02-08T09:03:08.249Z</time>
      </trkpt>
      <trkpt lat="39.01360333" lon="-0.41538">
        <ele>143.973</ele>
        <time>2020-02-08T09:03:09.249Z</time>
      </trkpt>
      <trkpt lat="39.01360333" lon="-0.41538">
        <ele>143.973</ele>
        <time>2020-02-08T09:03:10.249Z</time>
      </trkpt>
      <trkpt lat="39.01375667" lon="-0.41532833">
        <ele>142.973</ele>
        <time>2020-02-08T09:03:11.249Z</time>
      </trkpt>
      <trkpt lat="39.01384" lon="-0.415305">
        <ele>142.973</ele>
        <time>2020-02-08T09:03:12.249Z</time>
      </trkpt>
      <trkpt lat="39.01392667" lon="-0.41528333">
        <ele>142.973</ele>
        <time>2020-02-08T09:03:13.249Z</time>
      </trkpt>
      <trkpt lat="39.01392667" lon="-0.41528333">
        <ele>141.973</ele>
        <time>2020-02-08T09:03:14.249Z</time>
      </trkpt>
      <trkpt lat="39.01408" lon="-0.41524833">
        <ele>141.973</ele>
        <time>2020-02-08T09:03:15.249Z</time>
      </trkpt>
      <trkpt lat="39.01408" lon="-0.41524833">
        <ele>141.973</ele>
        <time>2020-02-08T09:03:16.249Z</time>
      </trkpt>
      <trkpt lat="39.01422333" lon="-0.41522167">
        <ele>141.973</ele>
        <time>2020-02-08T09:03:17.249Z</time>
      </trkpt>
      <trkpt lat="39.01422333" lon="-0.41522167">
        <ele>141.973</ele>
        <time>2020-02-08T09:03:18.249Z</time>
      </trkpt>
      <trkpt lat="39.014365" lon="-0.41519833">
        <ele>141.973</ele>
        <time>2020-02-08T09:03:19.249Z</time>
      </trkpt>
      <trkpt lat="39.014365" lon="-0.41519833">
        <ele>141.973</ele>
        <time>2020-02-08T09:03:20.249Z</time>
      </trkpt>
      <trkpt lat="39.0145" lon="-0.41516833">
        <ele>141.973</ele>
        <time>2020-02-08T09:03:21.249Z</time>
      </trkpt>
      <trkpt lat="39.0145" lon="-0.41516833">
        <ele>141.973</ele>
        <time>2020-02-08T09:03:22.249Z</time>
      </trkpt>
      <trkpt lat="39.01462833" lon="-0.41514">
        <ele>141.973</ele>
        <time>2020-02-08T09:03:23.249Z</time>
      </trkpt>
      <trkpt lat="39.01469" lon="-0.41513">
        <ele>142.973</ele>
        <time>2020-02-08T09:03:24.249Z</time>
      </trkpt>
      <trkpt lat="39.01469" lon="-0.41513">
        <ele>142.973</ele>
        <time>2020-02-08T09:03:25.249Z</time>
      </trkpt>
      <trkpt lat="39.01480667" lon="-0.41510833">
        <ele>142.973</ele>
        <time>2020-02-08T09:03:26.249Z</time>
      </trkpt>
      <trkpt lat="39.01480667" lon="-0.41510833">
        <ele>142.973</ele>
        <time>2020-02-08T09:03:27.249Z</time>
      </trkpt>
      <trkpt lat="39.01491333" lon="-0.415085">
        <ele>143.973</ele>
        <time>2020-02-08T09:03:28.249Z</time>
      </trkpt>
      <trkpt lat="39.01491333" lon="-0.415085">
        <ele>143.973</ele>
        <time>2020-02-08T09:03:29.249Z</time>
      </trkpt>
      <trkpt lat="39.01501333" lon="-0.41507">
        <ele>144.973</ele>
        <time>2020-02-08T09:03:30.249Z</time>
      </trkpt>
      <trkpt lat="39.01506" lon="-0.41506833">
        <ele>144.973</ele>
        <time>2020-02-08T09:03:31.249Z</time>
      </trkpt>
      <trkpt lat="39.01506" lon="-0.41506833">
        <ele>145.973</ele>
        <time>2020-02-08T09:03:32.249Z</time>
      </trkpt>
      <trkpt lat="39.01516" lon="-0.415055">
        <ele>145.973</ele>
        <time>2020-02-08T09:03:33.249Z</time>
      </trkpt>
      <trkpt lat="39.01516" lon="-0.415055">
        <ele>145.973</ele>
        <time>2020-02-08T09:03:34.249Z</time>
      </trkpt>
      <trkpt lat="39.01524833" lon="-0.41504667">
        <ele>146.973</ele>
        <time>2020-02-08T09:03:35.249Z</time>
      </trkpt>
      <trkpt lat="39.01524833" lon="-0.41504667">
        <ele>146.973</ele>
        <time>2020-02-08T09:03:36.249Z</time>
      </trkpt>
      <trkpt lat="39.01532667" lon="-0.41504333">
        <ele>147.973</ele>
        <time>2020-02-08T09:03:37.249Z</time>
      </trkpt>
      <trkpt lat="39.01532667" lon="-0.41504333">
        <ele>147.973</ele>
        <time>2020-02-08T09:03:38.249Z</time>
      </trkpt>
      <trkpt lat="39.01540833" lon="-0.41504">
        <ele>148.973</ele>
        <time>2020-02-08T09:03:39.249Z</time>
      </trkpt>
      <trkpt lat="39.01540833" lon="-0.41504">
        <ele>148.973</ele>
        <time>2020-02-08T09:03:40.249Z</time>
      </trkpt>
      <trkpt lat="39.015485" lon="-0.41505">
        <ele>149.973</ele>
        <time>2020-02-08T09:03:41.249Z</time>
      </trkpt>
      <trkpt lat="39.015485" lon="-0.41505">
        <ele>149.973</ele>
        <time>2020-02-08T09:03:42.249Z</time>
      </trkpt>
      <trkpt lat="39.01555667" lon="-0.41507667">
        <ele>149.973</ele>
        <time>2020-02-08T09:03:43.249Z</time>
      </trkpt>
      <trkpt lat="39.01555667" lon="-0.41507667">
        <ele>149.973</ele>
        <time>2020-02-08T09:03:44.249Z</time>
      </trkpt>
      <trkpt lat="39.01562167" lon="-0.41511">
        <ele>150.973</ele>
        <time>2020-02-08T09:03:45.249Z</time>
      </trkpt>
      <trkpt lat="39.01562167" lon="-0.41511">
        <ele>150.973</ele>
        <time>2020-02-08T09:03:46.249Z</time>
      </trkpt>
      <trkpt lat="39.01568" lon="-0.41515167">
        <ele>150.973</ele>
        <time>2020-02-08T09:03:47.249Z</time>
      </trkpt>
      <trkpt lat="39.01568" lon="-0.41515167">
        <ele>150.973</ele>
        <time>2020-02-08T09:03:48.249Z</time>
      </trkpt>
      <trkpt lat="39.015745" lon="-0.41519333">
        <ele>152.973</ele>
        <time>2020-02-08T09:03:49.249Z</time>
      </trkpt>
      <trkpt lat="39.015745" lon="-0.41519333">
        <ele>152.973</ele>
        <time>2020-02-08T09:03:50.249Z</time>
      </trkpt>
      <trkpt lat="39.01580667" lon="-0.41524667">
        <ele>152.973</ele>
        <time>2020-02-08T09:03:51.249Z</time>
      </trkpt>
      <trkpt lat="39.01580667" lon="-0.41524667">
        <ele>152.973</ele>
        <time>2020-02-08T09:03:52.249Z</time>
      </trkpt>
      <trkpt lat="39.01587167" lon="-0.41530833">
        <ele>152.973</ele>
        <time>2020-02-08T09:03:53.249Z</time>
      </trkpt>
      <trkpt lat="39.01590833" lon="-0.41534167">
        <ele>152.973</ele>
        <time>2020-02-08T09:03:54.249Z</time>
      </trkpt>
      <trkpt lat="39.01590833" lon="-0.41534167">
        <ele>152.973</ele>
        <time>2020-02-08T09:03:55.249Z</time>
      </trkpt>
      <trkpt lat="39.01598667" lon="-0.41541667">
        <ele>152.973</ele>
        <time>2020-02-08T09:03:56.249Z</time>
      </trkpt>
      <trkpt lat="39.01602833" lon="-0.415455">
        <ele>152.973</ele>
        <time>2020-02-08T09:03:57.249Z</time>
      </trkpt>
      <trkpt lat="39.01602833" lon="-0.415455">
        <ele>152.973</ele>
        <time>2020-02-08T09:03:58.249Z</time>
      </trkpt>
      <trkpt lat="39.01612" lon="-0.415535">
        <ele>152.973</ele>
        <time>2020-02-08T09:03:59.249Z</time>
      </trkpt>
      <trkpt lat="39.01612" lon="-0.415535">
        <ele>152.973</ele>
        <time>2020-02-08T09:04:00.249Z</time>
      </trkpt>
      <trkpt lat="39.01621167" lon="-0.41562833">
        <ele>152.973</ele>
        <time>2020-02-08T09:04:01.249Z</time>
      </trkpt>
      <trkpt lat="39.01621167" lon="-0.41562833">
        <ele>151.973</ele>
        <time>2020-02-08T09:04:02.249Z</time>
      </trkpt>
      <trkpt lat="39.01630333" lon="-0.41573833">
        <ele>151.973</ele>
        <time>2020-02-08T09:04:03.249Z</time>
      </trkpt>
      <trkpt lat="39.01630333" lon="-0.41573833">
        <ele>150.973</ele>
        <time>2020-02-08T09:04:04.249Z</time>
      </trkpt>
      <trkpt lat="39.01640333" lon="-0.41583833">
        <ele>150.973</ele>
        <time>2020-02-08T09:04:05.249Z</time>
      </trkpt>
      <trkpt lat="39.01640333" lon="-0.41583833">
        <ele>149.973</ele>
        <time>2020-02-08T09:04:06.249Z</time>
      </trkpt>
      <trkpt lat="39.01653167" lon="-0.41584">
        <ele>149.973</ele>
        <time>2020-02-08T09:04:07.249Z</time>
      </trkpt>
      <trkpt lat="39.01653167" lon="-0.41584">
        <ele>147.973</ele>
        <time>2020-02-08T09:04:08.249Z</time>
      </trkpt>
      <trkpt lat="39.016665" lon="-0.415735">
        <ele>147.973</ele>
        <time>2020-02-08T09:04:09.249Z</time>
      </trkpt>
      <trkpt lat="39.016665" lon="-0.415735">
        <ele>146.973</ele>
        <time>2020-02-08T09:04:10.249Z</time>
      </trkpt>
      <trkpt lat="39.01681333" lon="-0.415635">
        <ele>146.973</ele>
        <time>2020-02-08T09:04:11.249Z</time>
      </trkpt>
      <trkpt lat="39.01681333" lon="-0.415635">
        <ele>145.973</ele>
        <time>2020-02-08T09:04:12.249Z</time>
      </trkpt>
      <trkpt lat="39.01698833" lon="-0.41555833">
        <ele>145.973</ele>
        <time>2020-02-08T09:04:13.249Z</time>
      </trkpt>
      <trkpt lat="39.01698833" lon="-0.41555833">
        <ele>143.973</ele>
        <time>2020-02-08T09:04:14.249Z</time>
      </trkpt>
      <trkpt lat="39.01716667" lon="-0.41547333">
        <ele>143.973</ele>
        <time>2020-02-08T09:04:15.249Z</time>
      </trkpt>
      <trkpt lat="39.01716667" lon="-0.41547333">
        <ele>142.973</ele>
        <time>2020-02-08T09:04:16.249Z</time>
      </trkpt>
      <trkpt lat="39.017345" lon="-0.41537167">
        <ele>142.973</ele>
        <time>2020-02-08T09:04:17.249Z</time>
      </trkpt>
      <trkpt lat="39.017345" lon="-0.41537167">
        <ele>141.973</ele>
        <time>2020-02-08T09:04:18.249Z</time>
      </trkpt>
      <trkpt lat="39.01752333" lon="-0.41527167">
        <ele>141.973</ele>
        <time>2020-02-08T09:04:19.249Z</time>
      </trkpt>
      <trkpt lat="39.01752333" lon="-0.41527167">
        <ele>140.973</ele>
        <time>2020-02-08T09:04:20.249Z</time>
      </trkpt>
      <trkpt lat="39.01770167" lon="-0.415175">
        <ele>140.973</ele>
        <time>2020-02-08T09:04:21.249Z</time>
      </trkpt>
      <trkpt lat="39.01770167" lon="-0.415175">
        <ele>138.973</ele>
        <time>2020-02-08T09:04:22.249Z</time>
      </trkpt>
      <trkpt lat="39.01787833" lon="-0.415085">
        <ele>138.973</ele>
        <time>2020-02-08T09:04:23.249Z</time>
      </trkpt>
      <trkpt lat="39.01787833" lon="-0.415085">
        <ele>138.973</ele>
        <time>2020-02-08T09:04:24.249Z</time>
      </trkpt>
      <trkpt lat="39.01805667" lon="-0.41500667">
        <ele>138.973</ele>
        <time>2020-02-08T09:04:25.249Z</time>
      </trkpt>
      <trkpt lat="39.01805667" lon="-0.41500667">
        <ele>137.973</ele>
        <time>2020-02-08T09:04:26.249Z</time>
      </trkpt>
      <trkpt lat="39.01824" lon="-0.414955">
        <ele>137.973</ele>
        <time>2020-02-08T09:04:27.249Z</time>
      </trkpt>
      <trkpt lat="39.018335" lon="-0.414945">
        <ele>137.973</ele>
        <time>2020-02-08T09:04:28.249Z</time>
      </trkpt>
      <trkpt lat="39.01843167" lon="-0.41495">
        <ele>137.973</ele>
        <time>2020-02-08T09:04:29.249Z</time>
      </trkpt>
      <trkpt lat="39.01843167" lon="-0.41495">
        <ele>136.973</ele>
        <time>2020-02-08T09:04:30.249Z</time>
      </trkpt>
      <trkpt lat="39.01861333" lon="-0.41499833">
        <ele>136.973</ele>
        <time>2020-02-08T09:04:31.249Z</time>
      </trkpt>
      <trkpt lat="39.01861333" lon="-0.41499833">
        <ele>136.973</ele>
        <time>2020-02-08T09:04:32.249Z</time>
      </trkpt>
      <trkpt lat="39.01877333" lon="-0.41506667">
        <ele>136.973</ele>
        <time>2020-02-08T09:04:33.249Z</time>
      </trkpt>
      <trkpt lat="39.01877333" lon="-0.41506667">
        <ele>136.973</ele>
        <time>2020-02-08T09:04:34.249Z</time>
      </trkpt>
      <trkpt lat="39.01891833" lon="-0.41512667">
        <ele>136.973</ele>
        <time>2020-02-08T09:04:35.249Z</time>
      </trkpt>
      <trkpt lat="39.01891833" lon="-0.41512667">
        <ele>136.973</ele>
        <time>2020-02-08T09:04:36.249Z</time>
      </trkpt>
      <trkpt lat="39.01905167" lon="-0.415185">
        <ele>136.973</ele>
        <time>2020-02-08T09:04:37.249Z</time>
      </trkpt>
      <trkpt lat="39.01905167" lon="-0.415185">
        <ele>136.973</ele>
        <time>2020-02-08T09:04:38.249Z</time>
      </trkpt>
      <trkpt lat="39.01918667" lon="-0.41523333">
        <ele>136.973</ele>
        <time>2020-02-08T09:04:39.249Z</time>
      </trkpt>
      <trkpt lat="39.01918667" lon="-0.41523333">
        <ele>136.973</ele>
        <time>2020-02-08T09:04:40.249Z</time>
      </trkpt>
      <trkpt lat="39.01933" lon="-0.41527833">
        <ele>136.973</ele>
        <time>2020-02-08T09:04:41.249Z</time>
      </trkpt>
      <trkpt lat="39.01933" lon="-0.41527833">
        <ele>135.973</ele>
        <time>2020-02-08T09:04:42.249Z</time>
      </trkpt>
      <trkpt lat="39.01947833" lon="-0.41533167">
        <ele>135.973</ele>
        <time>2020-02-08T09:04:43.249Z</time>
      </trkpt>
      <trkpt lat="39.01947833" lon="-0.41533167">
        <ele>134.973</ele>
        <time>2020-02-08T09:04:44.249Z</time>
      </trkpt>
      <trkpt lat="39.01964" lon="-0.41538167">
        <ele>134.973</ele>
        <time>2020-02-08T09:04:45.249Z</time>
      </trkpt>
      <trkpt lat="39.01964" lon="-0.41538167">
        <ele>133.973</ele>
        <time>2020-02-08T09:04:46.249Z</time>
      </trkpt>
      <trkpt lat="39.01980667" lon="-0.41542667">
        <ele>133.973</ele>
        <time>2020-02-08T09:04:47.249Z</time>
      </trkpt>
      <trkpt lat="39.01980667" lon="-0.41542667">
        <ele>132.973</ele>
        <time>2020-02-08T09:04:48.249Z</time>
      </trkpt>
      <trkpt lat="39.019975" lon="-0.41544333">
        <ele>132.973</ele>
        <time>2020-02-08T09:04:49.249Z</time>
      </trkpt>
      <trkpt lat="39.019975" lon="-0.41544333">
        <ele>131.973</ele>
        <time>2020-02-08T09:04:50.249Z</time>
      </trkpt>
      <trkpt lat="39.02014833" lon="-0.41545667">
        <ele>131.973</ele>
        <time>2020-02-08T09:04:51.249Z</time>
      </trkpt>
      <trkpt lat="39.02014833" lon="-0.41545667">
        <ele>130.973</ele>
        <time>2020-02-08T09:04:52.249Z</time>
      </trkpt>
      <trkpt lat="39.02031167" lon="-0.41549">
        <ele>130.973</ele>
        <time>2020-02-08T09:04:53.249Z</time>
      </trkpt>
      <trkpt lat="39.02031167" lon="-0.41549">
        <ele>129.973</ele>
        <time>2020-02-08T09:04:54.249Z</time>
      </trkpt>
      <trkpt lat="39.02049167" lon="-0.41553167">
        <ele>129.973</ele>
        <time>2020-02-08T09:04:55.249Z</time>
      </trkpt>
      <trkpt lat="39.02049167" lon="-0.41553167">
        <ele>128.973</ele>
        <time>2020-02-08T09:04:56.249Z</time>
      </trkpt>
      <trkpt lat="39.02068667" lon="-0.41558167">
        <ele>128.973</ele>
        <time>2020-02-08T09:04:57.249Z</time>
      </trkpt>
      <trkpt lat="39.02068667" lon="-0.41558167">
        <ele>126.973</ele>
        <time>2020-02-08T09:04:58.249Z</time>
      </trkpt>
      <trkpt lat="39.02084667" lon="-0.41565167">
        <ele>124.973</ele>
        <time>2020-02-08T09:04:59.249Z</time>
      </trkpt>
      <trkpt lat="39.02084667" lon="-0.41565167">
        <ele>124.973</ele>
        <time>2020-02-08T09:05:00.249Z</time>
      </trkpt>
      <trkpt lat="39.02097167" lon="-0.41571333">
        <ele>122.973</ele>
        <time>2020-02-08T09:05:01.249Z</time>
      </trkpt>
      <trkpt lat="39.02097167" lon="-0.41571333">
        <ele>122.973</ele>
        <time>2020-02-08T09:05:02.249Z</time>
      </trkpt>
      <trkpt lat="39.021075" lon="-0.41575833">
        <ele>120.973</ele>
        <time>2020-02-08T09:05:03.249Z</time>
      </trkpt>
      <trkpt lat="39.021075" lon="-0.41575833">
        <ele>120.973</ele>
        <time>2020-02-08T09:05:04.249Z</time>
      </trkpt>
      <trkpt lat="39.02121333" lon="-0.41580167">
        <ele>119.973</ele>
        <time>2020-02-08T09:05:05.249Z</time>
      </trkpt>
      <trkpt lat="39.02121333" lon="-0.41580167">
        <ele>119.973</ele>
        <time>2020-02-08T09:05:06.249Z</time>
      </trkpt>
      <trkpt lat="39.021315" lon="-0.41585833">
        <ele>118.973</ele>
        <time>2020-02-08T09:05:07.249Z</time>
      </trkpt>
      <trkpt lat="39.021315" lon="-0.41585833">
        <ele>118.973</ele>
        <time>2020-02-08T09:05:08.249Z</time>
      </trkpt>
      <trkpt lat="39.02138" lon="-0.41591333">
        <ele>117.973</ele>
        <time>2020-02-08T09:05:09.249Z</time>
      </trkpt>
      <trkpt lat="39.02138" lon="-0.41591333">
        <ele>117.973</ele>
        <time>2020-02-08T09:05:10.249Z</time>
      </trkpt>
      <trkpt lat="39.02145167" lon="-0.415935">
        <ele>116.973</ele>
        <time>2020-02-08T09:05:11.249Z</time>
      </trkpt>
      <trkpt lat="39.02145167" lon="-0.415935">
        <ele>116.973</ele>
        <time>2020-02-08T09:05:12.249Z</time>
      </trkpt>
      <trkpt lat="39.02150167" lon="-0.41594167">
        <ele>116.973</ele>
        <time>2020-02-08T09:05:13.249Z</time>
      </trkpt>
      <trkpt lat="39.02150167" lon="-0.41594167">
        <ele>116.973</ele>
        <time>2020-02-08T09:05:14.249Z</time>
      </trkpt>
      <trkpt lat="39.021525" lon="-0.41593833">
        <ele>116.973</ele>
        <time>2020-02-08T09:05:15.249Z</time>
      </trkpt>
      <trkpt lat="39.021525" lon="-0.41593833">
        <ele>116.973</ele>
        <time>2020-02-08T09:05:16.249Z</time>
      </trkpt>
      <trkpt lat="39.02154833" lon="-0.41593333">
        <ele>115.973</ele>
        <time>2020-02-08T09:05:17.249Z</time>
      </trkpt>
      <trkpt lat="39.02154833" lon="-0.41593333">
        <ele>115.973</ele>
        <time>2020-02-08T09:05:18.249Z</time>
      </trkpt>
      <trkpt lat="39.02156833" lon="-0.41593">
        <ele>115.973</ele>
        <time>2020-02-08T09:05:19.249Z</time>
      </trkpt>
      <trkpt lat="39.02156833" lon="-0.41593">
        <ele>115.973</ele>
        <time>2020-02-08T09:05:20.249Z</time>
      </trkpt>
      <trkpt lat="39.02161" lon="-0.415915">
        <ele>115.973</ele>
        <time>2020-02-08T09:05:21.249Z</time>
      </trkpt>
      <trkpt lat="39.02161" lon="-0.415915">
        <ele>115.973</ele>
        <time>2020-02-08T09:05:22.249Z</time>
      </trkpt>
      <trkpt lat="39.02164" lon="-0.41592333">
        <ele>115.973</ele>
        <time>2020-02-08T09:05:23.249Z</time>
      </trkpt>
      <trkpt lat="39.02164" lon="-0.41592333">
        <ele>115.973</ele>
        <time>2020-02-08T09:05:24.249Z</time>
      </trkpt>
      <trkpt lat="39.02168167" lon="-0.41593167">
        <ele>114.973</ele>
        <time>2020-02-08T09:05:25.249Z</time>
      </trkpt>
      <trkpt lat="39.02168167" lon="-0.41593167">
        <ele>114.973</ele>
        <time>2020-02-08T09:05:26.249Z</time>
      </trkpt>
      <trkpt lat="39.02171667" lon="-0.41594">
        <ele>114.973</ele>
        <time>2020-02-08T09:05:27.249Z</time>
      </trkpt>
      <trkpt lat="39.02173" lon="-0.41594667">
        <ele>114.973</ele>
        <time>2020-02-08T09:05:28.249Z</time>
      </trkpt>
      <trkpt lat="39.02173" lon="-0.41594667">
        <ele>114.973</ele>
        <time>2020-02-08T09:05:29.249Z</time>
      </trkpt>
      <trkpt lat="39.02177333" lon="-0.41594667">
        <ele>114.973</ele>
        <time>2020-02-08T09:05:30.249Z</time>
      </trkpt>
      <trkpt lat="39.02177833" lon="-0.41595333">
        <ele>114.973</ele>
        <time>2020-02-08T09:05:31.249Z</time>
      </trkpt>
      <trkpt lat="39.02179833" lon="-0.41596">
        <ele>114.973</ele>
        <time>2020-02-08T09:05:32.249Z</time>
      </trkpt>
      <trkpt lat="39.02179833" lon="-0.41596">
        <ele>114.973</ele>
        <time>2020-02-08T09:05:33.249Z</time>
      </trkpt>
      <trkpt lat="39.02181833" lon="-0.41596833">
        <ele>114.973</ele>
        <time>2020-02-08T09:05:34.249Z</time>
      </trkpt>
      <trkpt lat="39.02182167" lon="-0.41597">
        <ele>114.973</ele>
        <time>2020-02-08T09:05:35.249Z</time>
      </trkpt>
      <trkpt lat="39.02182167" lon="-0.41597">
        <ele>114.973</ele>
        <time>2020-02-08T09:05:36.249Z</time>
      </trkpt>
      <trkpt lat="39.02195167" lon="-0.40448333">
        <ele>125.947</ele>
        <time>2020-02-08T10:05:00.359Z</time>
      </trkpt>
      <trkpt lat="39.02195167" lon="-0.40448333">
        <ele>125.947</ele>
        <time>2020-02-08T10:05:01.359Z</time>
      </trkpt>
      <trkpt lat="39.02195667" lon="-0.40438167">
        <ele>125.947</ele>
        <time>2020-02-08T10:05:02.359Z</time>
      </trkpt>
      <trkpt lat="39.02196167" lon="-0.40433167">
        <ele>125.947</ele>
        <time>2020-02-08T10:05:03.359Z</time>
      </trkpt>
      <trkpt lat="39.02196333" lon="-0.40428">
        <ele>125.947</ele>
        <time>2020-02-08T10:05:04.359Z</time>
      </trkpt>
      <trkpt lat="39.02196333" lon="-0.40428">
        <ele>125.947</ele>
        <time>2020-02-08T10:05:05.359Z</time>
      </trkpt>
      <trkpt lat="39.02197167" lon="-0.40417667">
        <ele>125.947</ele>
        <time>2020-02-08T10:05:06.359Z</time>
      </trkpt>
      <trkpt lat="39.02197167" lon="-0.40417667">
        <ele>125.947</ele>
        <time>2020-02-08T10:05:07.359Z</time>
      </trkpt>
      <trkpt lat="39.02197833" lon="-0.40407667">
        <ele>127.947</ele>
        <time>2020-02-08T10:05:08.359Z</time>
      </trkpt>
      <trkpt lat="39.02197833" lon="-0.40407667">
        <ele>126.947</ele>
        <time>2020-02-08T10:05:09.359Z</time>
      </trkpt>
      <trkpt lat="39.021985" lon="-0.403975">
        <ele>126.947</ele>
        <time>2020-02-08T10:05:10.359Z</time>
      </trkpt>
      <trkpt lat="39.02198833" lon="-0.40392167">
        <ele>127.947</ele>
        <time>2020-02-08T10:05:11.359Z</time>
      </trkpt>
      <trkpt lat="39.02199" lon="-0.40386833">
        <ele>127.947</ele>
        <time>2020-02-08T10:05:12.359Z</time>
      </trkpt>
      <trkpt lat="39.02199" lon="-0.40386833">
        <ele>123.947</ele>
        <time>2020-02-08T10:05:13.359Z</time>
      </trkpt>
      <trkpt lat="39.02198333" lon="-0.40376">
        <ele>123.947</ele>
        <time>2020-02-08T10:05:14.359Z</time>
      </trkpt>
      <trkpt lat="39.02198333" lon="-0.40376">
        <ele>125.947</ele>
        <time>2020-02-08T10:05:15.359Z</time>
      </trkpt>
      <trkpt lat="39.02196333" lon="-0.40364833">
        <ele>125.947</ele>
        <time>2020-02-08T10:05:16.359Z</time>
      </trkpt>
      <trkpt lat="39.02194667" lon="-0.40359333">
        <ele>126.947</ele>
        <time>2020-02-08T10:05:17.359Z</time>
      </trkpt>
      <trkpt lat="39.02193" lon="-0.40353667">
        <ele>126.947</ele>
        <time>2020-02-08T10:05:18.359Z</time>
      </trkpt>
      <trkpt lat="39.02193" lon="-0.40353667">
        <ele>126.947</ele>
        <time>2020-02-08T10:05:19.359Z</time>
      </trkpt>
      <trkpt lat="39.02189333" lon="-0.40342833">
        <ele>126.947</ele>
        <time>2020-02-08T10:05:20.359Z</time>
      </trkpt>
      <trkpt lat="39.02189333" lon="-0.40342833">
        <ele>125.947</ele>
        <time>2020-02-08T10:05:21.359Z</time>
      </trkpt>
      <trkpt lat="39.02186833" lon="-0.403325">
        <ele>125.947</ele>
        <time>2020-02-08T10:05:22.359Z</time>
      </trkpt>
      <trkpt lat="39.02186833" lon="-0.403325">
        <ele>125.947</ele>
        <time>2020-02-08T10:05:23.359Z</time>
      </trkpt>
      <trkpt lat="39.02183167" lon="-0.40322333">
        <ele>125.947</ele>
        <time>2020-02-08T10:05:24.359Z</time>
      </trkpt>
      <trkpt lat="39.02183167" lon="-0.40322333">
        <ele>125.947</ele>
        <time>2020-02-08T10:05:25.359Z</time>
      </trkpt>
      <trkpt lat="39.02179333" lon="-0.40311667">
        <ele>125.947</ele>
        <time>2020-02-08T10:05:26.359Z</time>
      </trkpt>
      <trkpt lat="39.02179333" lon="-0.40311667">
        <ele>125.947</ele>
        <time>2020-02-08T10:05:27.359Z</time>
      </trkpt>
      <trkpt lat="39.02175333" lon="-0.40301167">
        <ele>125.947</ele>
        <time>2020-02-08T10:05:28.359Z</time>
      </trkpt>
      <trkpt lat="39.02173167" lon="-0.40296">
        <ele>125.947</ele>
        <time>2020-02-08T10:05:29.359Z</time>
      </trkpt>
      <trkpt lat="39.02171333" lon="-0.402905">
        <ele>125.947</ele>
        <time>2020-02-08T10:05:30.359Z</time>
      </trkpt>
      <trkpt lat="39.02171333" lon="-0.402905">
        <ele>126.947</ele>
        <time>2020-02-08T10:05:31.359Z</time>
      </trkpt>
      <trkpt lat="39.02167667" lon="-0.402795">
        <ele>126.947</ele>
        <time>2020-02-08T10:05:32.359Z</time>
      </trkpt>
      <trkpt lat="39.02167667" lon="-0.402795">
        <ele>126.947</ele>
        <time>2020-02-08T10:05:33.359Z</time>
      </trkpt>
      <trkpt lat="39.02167667" lon="-0.40268">
        <ele>126.947</ele>
        <time>2020-02-08T10:05:34.359Z</time>
      </trkpt>
      <trkpt lat="39.02167667" lon="-0.40268">
        <ele>126.947</ele>
        <time>2020-02-08T10:05:35.359Z</time>
      </trkpt>
      <trkpt lat="39.02168667" lon="-0.40256667">
        <ele>126.947</ele>
        <time>2020-02-08T10:05:36.359Z</time>
      </trkpt>
      <trkpt lat="39.02168667" lon="-0.40256667">
        <ele>126.947</ele>
        <time>2020-02-08T10:05:37.359Z</time>
      </trkpt>
      <trkpt lat="39.02170333" lon="-0.40246">
        <ele>126.947</ele>
        <time>2020-02-08T10:05:38.359Z</time>
      </trkpt>
      <trkpt lat="39.02170333" lon="-0.40246">
        <ele>126.947</ele>
        <time>2020-02-08T10:05:39.359Z</time>
      </trkpt>
      <trkpt lat="39.02171833" lon="-0.40236">
        <ele>126.947</ele>
        <time>2020-02-08T10:05:40.359Z</time>
      </trkpt>
      <trkpt lat="39.02171833" lon="-0.40236">
        <ele>126.947</ele>
        <time>2020-02-08T10:05:41.359Z</time>
      </trkpt>
      <trkpt lat="39.02173" lon="-0.40226167">
        <ele>126.947</ele>
        <time>2020-02-08T10:05:42.359Z</time>
      </trkpt>
      <trkpt lat="39.02173" lon="-0.40226167">
        <ele>126.947</ele>
        <time>2020-02-08T10:05:43.359Z</time>
      </trkpt>
      <trkpt lat="39.02175" lon="-0.40216167">
        <ele>126.947</ele>
        <time>2020-02-08T10:05:44.359Z</time>
      </trkpt>
      <trkpt lat="39.02175" lon="-0.40216167">
        <ele>126.947</ele>
        <time>2020-02-08T10:05:45.359Z</time>
      </trkpt>
      <trkpt lat="39.021775" lon="-0.40206">
        <ele>126.947</ele>
        <time>2020-02-08T10:05:46.359Z</time>
      </trkpt>
      <trkpt lat="39.02178" lon="-0.40200833">
        <ele>126.947</ele>
        <time>2020-02-08T10:05:47.359Z</time>
      </trkpt>
      <trkpt lat="39.02179167" lon="-0.40195667">
        <ele>126.947</ele>
        <time>2020-02-08T10:05:48.359Z</time>
      </trkpt>
      <trkpt lat="39.02179167" lon="-0.40195667">
        <ele>125.947</ele>
        <time>2020-02-08T10:05:49.359Z</time>
      </trkpt>
      <trkpt lat="39.02181167" lon="-0.40185">
        <ele>125.947</ele>
        <time>2020-02-08T10:05:50.359Z</time>
      </trkpt>
      <trkpt lat="39.02181167" lon="-0.40185">
        <ele>130.947</ele>
        <time>2020-02-08T10:05:51.359Z</time>
      </trkpt>
      <trkpt lat="39.02182833" lon="-0.40174833">
        <ele>130.947</ele>
        <time>2020-02-08T10:05:52.359Z</time>
      </trkpt>
      <trkpt lat="39.02182833" lon="-0.40174833">
        <ele>129.947</ele>
        <time>2020-02-08T10:05:53.359Z</time>
      </trkpt>
      <trkpt lat="39.02185667" lon="-0.40165167">
        <ele>129.947</ele>
        <time>2020-02-08T10:05:54.359Z</time>
      </trkpt>
      <trkpt lat="39.02185667" lon="-0.40165167">
        <ele>131.947</ele>
        <time>2020-02-08T10:05:55.359Z</time>
      </trkpt>
      <trkpt lat="39.02188333" lon="-0.40155333">
        <ele>131.947</ele>
        <time>2020-02-08T10:05:56.359Z</time>
      </trkpt>
      <trkpt lat="39.02188333" lon="-0.40155333">
        <ele>129.947</ele>
        <time>2020-02-08T10:05:57.359Z</time>
      </trkpt>
      <trkpt lat="39.02191" lon="-0.40146167">
        <ele>129.947</ele>
        <time>2020-02-08T10:05:58.359Z</time>
      </trkpt>
      <trkpt lat="39.02192" lon="-0.40141167">
        <ele>124.947</ele>
        <time>2020-02-08T10:05:59.359Z</time>
      </trkpt>
      <trkpt lat="39.02194" lon="-0.401365">
        <ele>124.947</ele>
        <time>2020-02-08T10:06:00.359Z</time>
      </trkpt>
      <trkpt lat="39.02194" lon="-0.401365">
        <ele>128.947</ele>
        <time>2020-02-08T10:06:01.359Z</time>
      </trkpt>
      <trkpt lat="39.021985" lon="-0.40127167">
        <ele>128.947</ele>
        <time>2020-02-08T10:06:02.359Z</time>
      </trkpt>
      <trkpt lat="39.021985" lon="-0.40127167">
        <ele>130.947</ele>
        <time>2020-02-08T10:06:03.359Z</time>
      </trkpt>
      <trkpt lat="39.02202667" lon="-0.40117333">
        <ele>130.947</ele>
        <time>2020-02-08T10:06:04.359Z</time>
      </trkpt>
      <trkpt lat="39.02202667" lon="-0.40117333">
        <ele>126.947</ele>
        <time>2020-02-08T10:06:05.359Z</time>
      </trkpt>
      <trkpt lat="39.02206667" lon="-0.40107667">
        <ele>128.947</ele>
        <time>2020-02-08T10:06:06.359Z</time>
      </trkpt>
      <trkpt lat="39.02206667" lon="-0.40107667">
        <ele>128.947</ele>
        <time>2020-02-08T10:06:07.359Z</time>
      </trkpt>
      <trkpt lat="39.02210333" lon="-0.40098333">
        <ele>128.947</ele>
        <time>2020-02-08T10:06:08.359Z</time>
      </trkpt>
      <trkpt lat="39.02210333" lon="-0.40098333">
        <ele>128.947</ele>
        <time>2020-02-08T10:06:09.359Z</time>
      </trkpt>
      <trkpt lat="39.022135" lon="-0.40089167">
        <ele>128.947</ele>
        <time>2020-02-08T10:06:10.359Z</time>
      </trkpt>
      <trkpt lat="39.02215" lon="-0.40084333">
        <ele>128.947</ele>
        <time>2020-02-08T10:06:11.359Z</time>
      </trkpt>
      <trkpt lat="39.02216667" lon="-0.40079833">
        <ele>128.947</ele>
        <time>2020-02-08T10:06:12.359Z</time>
      </trkpt>
      <trkpt lat="39.02216667" lon="-0.40079833">
        <ele>128.947</ele>
        <time>2020-02-08T10:06:13.359Z</time>
      </trkpt>
      <trkpt lat="39.02219667" lon="-0.40071333">
        <ele>129.947</ele>
        <time>2020-02-08T10:06:14.359Z</time>
      </trkpt>
      <trkpt lat="39.02219667" lon="-0.40071333">
        <ele>129.947</ele>
        <time>2020-02-08T10:06:15.359Z</time>
      </trkpt>
      <trkpt lat="39.02221833" lon="-0.40062833">
        <ele>129.947</ele>
        <time>2020-02-08T10:06:16.359Z</time>
      </trkpt>
      <trkpt lat="39.02221833" lon="-0.40062833">
        <ele>129.947</ele>
        <time>2020-02-08T10:06:17.359Z</time>
      </trkpt>
      <trkpt lat="39.02224" lon="-0.40054667">
        <ele>129.947</ele>
        <time>2020-02-08T10:06:18.359Z</time>
      </trkpt>
      <trkpt lat="39.02225667" lon="-0.400505">
        <ele>129.947</ele>
        <time>2020-02-08T10:06:19.359Z</time>
      </trkpt>
      <trkpt lat="39.02225667" lon="-0.400505">
        <ele>130.947</ele>
        <time>2020-02-08T10:06:20.359Z</time>
      </trkpt>
      <trkpt lat="39.02228333" lon="-0.40041667">
        <ele>130.947</ele>
        <time>2020-02-08T10:06:21.359Z</time>
      </trkpt>
      <trkpt lat="39.02229833" lon="-0.40037167">
        <ele>130.947</ele>
        <time>2020-02-08T10:06:22.359Z</time>
      </trkpt>
      <trkpt lat="39.02229833" lon="-0.40037167">
        <ele>130.947</ele>
        <time>2020-02-08T10:06:23.359Z</time>
      </trkpt>
      <trkpt lat="39.02232833" lon="-0.40027833">
        <ele>130.947</ele>
        <time>2020-02-08T10:06:24.359Z</time>
      </trkpt>
      <trkpt lat="39.02232833" lon="-0.40027833">
        <ele>130.947</ele>
        <time>2020-02-08T10:06:25.359Z</time>
      </trkpt>
      <trkpt lat="39.02236667" lon="-0.40019">
        <ele>130.947</ele>
        <time>2020-02-08T10:06:26.359Z</time>
      </trkpt>
      <trkpt lat="39.02236667" lon="-0.40019">
        <ele>130.947</ele>
        <time>2020-02-08T10:06:27.359Z</time>
      </trkpt>
      <trkpt lat="39.022395" lon="-0.40011667">
        <ele>130.947</ele>
        <time>2020-02-08T10:06:28.359Z</time>
      </trkpt>
      <trkpt lat="39.022405" lon="-0.400075">
        <ele>131.947</ele>
        <time>2020-02-08T10:06:29.359Z</time>
      </trkpt>
      <trkpt lat="39.02241167" lon="-0.40003167">
        <ele>131.947</ele>
        <time>2020-02-08T10:06:30.359Z</time>
      </trkpt>
      <trkpt lat="39.02241167" lon="-0.40003167">
        <ele>131.947</ele>
        <time>2020-02-08T10:06:31.359Z</time>
      </trkpt>
      <trkpt lat="39.02241" lon="-0.39993667">
        <ele>131.947</ele>
        <time>2020-02-08T10:06:32.359Z</time>
      </trkpt>
      <trkpt lat="39.02241" lon="-0.39993667">
        <ele>131.947</ele>
        <time>2020-02-08T10:06:33.359Z</time>
      </trkpt>
      <trkpt lat="39.02239167" lon="-0.39983">
        <ele>131.947</ele>
        <time>2020-02-08T10:06:34.359Z</time>
      </trkpt>
      <trkpt lat="39.02239167" lon="-0.39983">
        <ele>131.947</ele>
        <time>2020-02-08T10:06:35.359Z</time>
      </trkpt>
      <trkpt lat="39.02236167" lon="-0.39972167">
        <ele>131.947</ele>
        <time>2020-02-08T10:06:36.359Z</time>
      </trkpt>
      <trkpt lat="39.02236167" lon="-0.39972167">
        <ele>131.947</ele>
        <time>2020-02-08T10:06:37.359Z</time>
      </trkpt>
      <trkpt lat="39.02233333" lon="-0.39961333">
        <ele>131.947</ele>
        <time>2020-02-08T10:06:38.359Z</time>
      </trkpt>
      <trkpt lat="39.02233333" lon="-0.39961333">
        <ele>131.947</ele>
        <time>2020-02-08T10:06:39.359Z</time>
      </trkpt>
      <trkpt lat="39.02230833" lon="-0.399495">
        <ele>131.947</ele>
        <time>2020-02-08T10:06:40.359Z</time>
      </trkpt>
      <trkpt lat="39.02230833" lon="-0.399495">
        <ele>131.947</ele>
        <time>2020-02-08T10:06:41.359Z</time>
      </trkpt>
      <trkpt lat="39.022275" lon="-0.39937">
        <ele>131.947</ele>
        <time>2020-02-08T10:06:42.359Z</time>
      </trkpt>
      <trkpt lat="39.022275" lon="-0.39937">
        <ele>131.947</ele>
        <time>2020-02-08T10:06:43.359Z</time>
      </trkpt>
      <trkpt lat="39.02224667" lon="-0.399245">
        <ele>131.947</ele>
        <time>2020-02-08T10:06:44.359Z</time>
      </trkpt>
      <trkpt lat="39.02224667" lon="-0.399245">
        <ele>131.947</ele>
        <time>2020-02-08T10:06:45.359Z</time>
      </trkpt>
      <trkpt lat="39.02223" lon="-0.39914333">
        <ele>131.947</ele>
        <time>2020-02-08T10:06:46.359Z</time>
      </trkpt>
      <trkpt lat="39.02223" lon="-0.39914333">
        <ele>131.947</ele>
        <time>2020-02-08T10:06:47.359Z</time>
      </trkpt>
      <trkpt lat="39.02220167" lon="-0.39905167">
        <ele>131.947</ele>
        <time>2020-02-08T10:06:48.359Z</time>
      </trkpt>
      <trkpt lat="39.02220167" lon="-0.39905167">
        <ele>131.947</ele>
        <time>2020-02-08T10:06:49.359Z</time>
      </trkpt>
      <trkpt lat="39.02216167" lon="-0.39894667">
        <ele>130.947</ele>
        <time>2020-02-08T10:06:50.359Z</time>
      </trkpt>
      <trkpt lat="39.02216167" lon="-0.39894667">
        <ele>130.947</ele>
        <time>2020-02-08T10:06:51.359Z</time>
      </trkpt>
      <trkpt lat="39.0221" lon="-0.39882167">
        <ele>130.947</ele>
        <time>2020-02-08T10:06:52.359Z</time>
      </trkpt>
      <trkpt lat="39.0221" lon="-0.39882167">
        <ele>130.947</ele>
        <time>2020-02-08T10:06:53.359Z</time>
      </trkpt>
      <trkpt lat="39.02201333" lon="-0.39869333">
        <ele>129.947</ele>
        <time>2020-02-08T10:06:54.359Z</time>
      </trkpt>
      <trkpt lat="39.02201333" lon="-0.39869333">
        <ele>129.947</ele>
        <time>2020-02-08T10:06:55.359Z</time>
      </trkpt>
      <trkpt lat="39.02190833" lon="-0.39855833">
        <ele>128.947</ele>
        <time>2020-02-08T10:06:56.359Z</time>
      </trkpt>
      <trkpt lat="39.02185667" lon="-0.39848833">
        <ele>128.947</ele>
        <time>2020-02-08T10:06:57.359Z</time>
      </trkpt>
      <trkpt lat="39.02180833" lon="-0.398415">
        <ele>127.947</ele>
        <time>2020-02-08T10:06:58.359Z</time>
      </trkpt>
      <trkpt lat="39.02180833" lon="-0.398415">
        <ele>127.947</ele>
        <time>2020-02-08T10:06:59.359Z</time>
      </trkpt>
      <trkpt lat="39.02174667" lon="-0.39824667">
        <ele>127.947</ele>
        <time>2020-02-08T10:07:00.359Z</time>
      </trkpt>
      <trkpt lat="39.02174667" lon="-0.39824667">
        <ele>127.947</ele>
        <time>2020-02-08T10:07:01.359Z</time>
      </trkpt>
      <trkpt lat="39.02170667" lon="-0.39807833">
        <ele>126.947</ele>
        <time>2020-02-08T10:07:02.359Z</time>
      </trkpt>
      <trkpt lat="39.02170667" lon="-0.39807833">
        <ele>126.947</ele>
        <time>2020-02-08T10:07:03.359Z</time>
      </trkpt>
      <trkpt lat="39.021685" lon="-0.39791667">
        <ele>126.947</ele>
        <time>2020-02-08T10:07:04.359Z</time>
      </trkpt>
      <trkpt lat="39.02167167" lon="-0.397845">
        <ele>125.947</ele>
        <time>2020-02-08T10:07:05.359Z</time>
      </trkpt>
      <trkpt lat="39.02165833" lon="-0.39777333">
        <ele>125.947</ele>
        <time>2020-02-08T10:07:06.359Z</time>
      </trkpt>
      <trkpt lat="39.02165833" lon="-0.39777333">
        <ele>125.947</ele>
        <time>2020-02-08T10:07:07.359Z</time>
      </trkpt>
      <trkpt lat="39.02164" lon="-0.39762667">
        <ele>125.947</ele>
        <time>2020-02-08T10:07:08.359Z</time>
      </trkpt>
      <trkpt lat="39.02164333" lon="-0.39755167">
        <ele>125.947</ele>
        <time>2020-02-08T10:07:09.359Z</time>
      </trkpt>
      <trkpt lat="39.02164333" lon="-0.39755167">
        <ele>125.947</ele>
        <time>2020-02-08T10:07:10.359Z</time>
      </trkpt>
      <trkpt lat="39.02166167" lon="-0.39739667">
        <ele>122.947</ele>
        <time>2020-02-08T10:07:11.359Z</time>
      </trkpt>
      <trkpt lat="39.02167" lon="-0.39732">
        <ele>122.947</ele>
        <time>2020-02-08T10:07:12.359Z</time>
      </trkpt>
      <trkpt lat="39.021675" lon="-0.39724667">
        <ele>123.947</ele>
        <time>2020-02-08T10:07:13.359Z</time>
      </trkpt>
      <trkpt lat="39.021685" lon="-0.397175">
        <ele>123.947</ele>
        <time>2020-02-08T10:07:14.359Z</time>
      </trkpt>
      <trkpt lat="39.021685" lon="-0.397175">
        <ele>123.947</ele>
        <time>2020-02-08T10:07:15.359Z</time>
      </trkpt>
      <trkpt lat="39.021705" lon="-0.39704333">
        <ele>123.947</ele>
        <time>2020-02-08T10:07:16.359Z</time>
      </trkpt>
      <trkpt lat="39.021705" lon="-0.39704333">
        <ele>123.947</ele>
        <time>2020-02-08T10:07:17.359Z</time>
      </trkpt>
      <trkpt lat="39.02172167" lon="-0.39692167">
        <ele>123.947</ele>
        <time>2020-02-08T10:07:18.359Z</time>
      </trkpt>
      <trkpt lat="39.02172167" lon="-0.39692167">
        <ele>124.947</ele>
        <time>2020-02-08T10:07:19.359Z</time>
      </trkpt>
      <trkpt lat="39.02173667" lon="-0.39680167">
        <ele>124.947</ele>
        <time>2020-02-08T10:07:20.359Z</time>
      </trkpt>
      <trkpt lat="39.02173667" lon="-0.39680167">
        <ele>124.947</ele>
        <time>2020-02-08T10:07:21.359Z</time>
      </trkpt>
      <trkpt lat="39.021745" lon="-0.39668833">
        <ele>124.947</ele>
        <time>2020-02-08T10:07:22.359Z</time>
      </trkpt>
      <trkpt lat="39.021745" lon="-0.39662833">
        <ele>123.947</ele>
        <time>2020-02-08T10:07:23.359Z</time>
      </trkpt>
      <trkpt lat="39.021745" lon="-0.39662833">
        <ele>123.947</ele>
        <time>2020-02-08T10:07:24.359Z</time>
      </trkpt>
      <trkpt lat="39.021745" lon="-0.39651333">
        <ele>124.947</ele>
        <time>2020-02-08T10:07:25.359Z</time>
      </trkpt>
      <trkpt lat="39.021745" lon="-0.39646167">
        <ele>124.947</ele>
        <time>2020-02-08T10:07:26.359Z</time>
      </trkpt>
      <trkpt lat="39.021745" lon="-0.39646167">
        <ele>124.947</ele>
        <time>2020-02-08T10:07:27.359Z</time>
      </trkpt>
      <trkpt lat="39.02175167" lon="-0.39636167">
        <ele>124.947</ele>
        <time>2020-02-08T10:07:28.359Z</time>
      </trkpt>
      <trkpt lat="39.02175167" lon="-0.39636167">
        <ele>124.947</ele>
        <time>2020-02-08T10:07:29.359Z</time>
      </trkpt>
      <trkpt lat="39.02175333" lon="-0.39626333">
        <ele>124.947</ele>
        <time>2020-02-08T10:07:30.359Z</time>
      </trkpt>
      <trkpt lat="39.02175333" lon="-0.39626333">
        <ele>124.947</ele>
        <time>2020-02-08T10:07:31.359Z</time>
      </trkpt>
      <trkpt lat="39.02175" lon="-0.396165">
        <ele>124.947</ele>
        <time>2020-02-08T10:07:32.359Z</time>
      </trkpt>
      <trkpt lat="39.02175" lon="-0.396165">
        <ele>124.947</ele>
        <time>2020-02-08T10:07:33.359Z</time>
      </trkpt>
      <trkpt lat="39.02174667" lon="-0.39607">
        <ele>124.947</ele>
        <time>2020-02-08T10:07:34.359Z</time>
      </trkpt>
      <trkpt lat="39.02174667" lon="-0.39607">
        <ele>124.947</ele>
        <time>2020-02-08T10:07:35.359Z</time>
      </trkpt>
      <trkpt lat="39.02174167" lon="-0.39597667">
        <ele>124.947</ele>
        <time>2020-02-08T10:07:36.359Z</time>
      </trkpt>
      <trkpt lat="39.02174167" lon="-0.39597667">
        <ele>124.947</ele>
        <time>2020-02-08T10:07:37.359Z</time>
      </trkpt>
      <trkpt lat="39.02175" lon="-0.39588333">
        <ele>124.947</ele>
        <time>2020-02-08T10:07:38.359Z</time>
      </trkpt>
      <trkpt lat="39.02175" lon="-0.39588333">
        <ele>124.947</ele>
        <time>2020-02-08T10:07:39.359Z</time>
      </trkpt>
      <trkpt lat="39.02175333" lon="-0.39577333">
        <ele>124.947</ele>
        <time>2020-02-08T10:07:40.359Z</time>
      </trkpt>
      <trkpt lat="39.02175333" lon="-0.39577333">
        <ele>124.947</ele>
        <time>2020-02-08T10:07:41.359Z</time>
      </trkpt>
      <trkpt lat="39.021745" lon="-0.39567">
        <ele>124.947</ele>
        <time>2020-02-08T10:07:42.359Z</time>
      </trkpt>
      <trkpt lat="39.021745" lon="-0.39567">
        <ele>124.947</ele>
        <time>2020-02-08T10:07:43.359Z</time>
      </trkpt>
      <trkpt lat="39.021715" lon="-0.39556833">
        <ele>124.947</ele>
        <time>2020-02-08T10:07:44.359Z</time>
      </trkpt>
      <trkpt lat="39.021715" lon="-0.39556833">
        <ele>124.947</ele>
        <time>2020-02-08T10:07:45.359Z</time>
      </trkpt>
      <trkpt lat="39.02167" lon="-0.39546">
        <ele>124.947</ele>
        <time>2020-02-08T10:07:46.359Z</time>
      </trkpt>
      <trkpt lat="39.02167" lon="-0.39546">
        <ele>124.947</ele>
        <time>2020-02-08T10:07:47.359Z</time>
      </trkpt>
      <trkpt lat="39.02162167" lon="-0.39536">
        <ele>124.947</ele>
        <time>2020-02-08T10:07:48.359Z</time>
      </trkpt>
      <trkpt lat="39.02162167" lon="-0.39536">
        <ele>124.947</ele>
        <time>2020-02-08T10:07:49.359Z</time>
      </trkpt>
      <trkpt lat="39.02157" lon="-0.39526667">
        <ele>124.947</ele>
        <time>2020-02-08T10:07:50.359Z</time>
      </trkpt>
      <trkpt lat="39.021545" lon="-0.39522167">
        <ele>124.947</ele>
        <time>2020-02-08T10:07:51.359Z</time>
      </trkpt>
      <trkpt lat="39.021545" lon="-0.39522167">
        <ele>124.947</ele>
        <time>2020-02-08T10:07:52.359Z</time>
      </trkpt>
      <trkpt lat="39.021495" lon="-0.39513">
        <ele>124.947</ele>
        <time>2020-02-08T10:07:53.359Z</time>
      </trkpt>
      <trkpt lat="39.02147167" lon="-0.39508667">
        <ele>124.947</ele>
        <time>2020-02-08T10:07:54.359Z</time>
      </trkpt>
      <trkpt lat="39.02147167" lon="-0.39508667">
        <ele>124.947</ele>
        <time>2020-02-08T10:07:55.359Z</time>
      </trkpt>
      <trkpt lat="39.02143167" lon="-0.39499333">
        <ele>124.947</ele>
        <time>2020-02-08T10:07:56.359Z</time>
      </trkpt>
      <trkpt lat="39.02143167" lon="-0.39499333">
        <ele>124.947</ele>
        <time>2020-02-08T10:07:57.359Z</time>
      </trkpt>
      <trkpt lat="39.02137833" lon="-0.39489333">
        <ele>124.947</ele>
        <time>2020-02-08T10:07:58.359Z</time>
      </trkpt>
      <trkpt lat="39.02135" lon="-0.39484667">
        <ele>124.947</ele>
        <time>2020-02-08T10:07:59.359Z</time>
      </trkpt>
      <trkpt lat="39.02132167" lon="-0.39479667">
        <ele>124.947</ele>
        <time>2020-02-08T10:08:00.359Z</time>
      </trkpt>
      <trkpt lat="39.02132167" lon="-0.39479667">
        <ele>124.947</ele>
        <time>2020-02-08T10:08:01.359Z</time>
      </trkpt>
      <trkpt lat="39.02127167" lon="-0.3947">
        <ele>124.947</ele>
        <time>2020-02-08T10:08:02.359Z</time>
      </trkpt>
      <trkpt lat="39.02127167" lon="-0.3947">
        <ele>124.947</ele>
        <time>2020-02-08T10:08:03.359Z</time>
      </trkpt>
      <trkpt lat="39.02122667" lon="-0.394605">
        <ele>124.947</ele>
        <time>2020-02-08T10:08:04.359Z</time>
      </trkpt>
      <trkpt lat="39.02122667" lon="-0.394605">
        <ele>124.947</ele>
        <time>2020-02-08T10:08:05.359Z</time>
      </trkpt>
      <trkpt lat="39.02118667" lon="-0.394515">
        <ele>124.947</ele>
        <time>2020-02-08T10:08:06.359Z</time>
      </trkpt>
      <trkpt lat="39.02118667" lon="-0.394515">
        <ele>124.947</ele>
        <time>2020-02-08T10:08:07.359Z</time>
      </trkpt>
      <trkpt lat="39.02114333" lon="-0.39442">
        <ele>125.947</ele>
        <time>2020-02-08T10:08:08.359Z</time>
      </trkpt>
      <trkpt lat="39.02114333" lon="-0.39442">
        <ele>125.947</ele>
        <time>2020-02-08T10:08:09.359Z</time>
      </trkpt>
      <trkpt lat="39.02109667" lon="-0.39432333">
        <ele>125.947</ele>
        <time>2020-02-08T10:08:10.359Z</time>
      </trkpt>
      <trkpt lat="39.02107333" lon="-0.39427667">
        <ele>125.947</ele>
        <time>2020-02-08T10:08:11.359Z</time>
      </trkpt>
      <trkpt lat="39.02105333" lon="-0.39423333">
        <ele>125.947</ele>
        <time>2020-02-08T10:08:12.359Z</time>
      </trkpt>
      <trkpt lat="39.02105333" lon="-0.39423333">
        <ele>125.947</ele>
        <time>2020-02-08T10:08:13.359Z</time>
      </trkpt>
      <trkpt lat="39.02100167" lon="-0.394135">
        <ele>126.947</ele>
        <time>2020-02-08T10:08:14.359Z</time>
      </trkpt>
      <trkpt lat="39.02100167" lon="-0.394135">
        <ele>126.947</ele>
        <time>2020-02-08T10:08:15.359Z</time>
      </trkpt>
      <trkpt lat="39.02095333" lon="-0.39404833">
        <ele>126.947</ele>
        <time>2020-02-08T10:08:16.359Z</time>
      </trkpt>
      <trkpt lat="39.02095333" lon="-0.39404833">
        <ele>126.947</ele>
        <time>2020-02-08T10:08:17.359Z</time>
      </trkpt>
      <trkpt lat="39.02091333" lon="-0.39395833">
        <ele>126.947</ele>
        <time>2020-02-08T10:08:18.359Z</time>
      </trkpt>
      <trkpt lat="39.02091333" lon="-0.39395833">
        <ele>126.947</ele>
        <time>2020-02-08T10:08:19.359Z</time>
      </trkpt>
      <trkpt lat="39.02087" lon="-0.39387">
        <ele>125.947</ele>
        <time>2020-02-08T10:08:20.359Z</time>
      </trkpt>
      <trkpt lat="39.02087" lon="-0.39387">
        <ele>125.947</ele>
        <time>2020-02-08T10:08:21.359Z</time>
      </trkpt>
      <trkpt lat="39.02081833" lon="-0.39377667">
        <ele>126.947</ele>
        <time>2020-02-08T10:08:22.359Z</time>
      </trkpt>
      <trkpt lat="39.020795" lon="-0.39372667">
        <ele>126.947</ele>
        <time>2020-02-08T10:08:23.359Z</time>
      </trkpt>
      <trkpt lat="39.020795" lon="-0.39372667">
        <ele>126.947</ele>
        <time>2020-02-08T10:08:24.359Z</time>
      </trkpt>
      <trkpt lat="39.02073667" lon="-0.39363167">
        <ele>126.947</ele>
        <time>2020-02-08T10:08:25.359Z</time>
      </trkpt>
      <trkpt lat="39.020705" lon="-0.39357833">
        <ele>126.947</ele>
        <time>2020-02-08T10:08:26.359Z</time>
      </trkpt>
      <trkpt lat="39.020705" lon="-0.39357833">
        <ele>126.947</ele>
        <time>2020-02-08T10:08:27.359Z</time>
      </trkpt>
      <trkpt lat="39.02064" lon="-0.39348833">
        <ele>126.947</ele>
        <time>2020-02-08T10:08:28.359Z</time>
      </trkpt>
      <trkpt lat="39.02064" lon="-0.39348833">
        <ele>126.947</ele>
        <time>2020-02-08T10:08:29.359Z</time>
      </trkpt>
      <trkpt lat="39.020575" lon="-0.3934">
        <ele>126.947</ele>
        <time>2020-02-08T10:08:30.359Z</time>
      </trkpt>
      <trkpt lat="39.020575" lon="-0.3934">
        <ele>126.947</ele>
        <time>2020-02-08T10:08:31.359Z</time>
      </trkpt>
      <trkpt lat="39.02051833" lon="-0.39331">
        <ele>126.947</ele>
        <time>2020-02-08T10:08:32.359Z</time>
      </trkpt>
      <trkpt lat="39.02051833" lon="-0.39331">
        <ele>126.947</ele>
        <time>2020-02-08T10:08:33.359Z</time>
      </trkpt>
      <trkpt lat="39.02047" lon="-0.393215">
        <ele>126.947</ele>
        <time>2020-02-08T10:08:34.359Z</time>
      </trkpt>
      <trkpt lat="39.02047" lon="-0.393215">
        <ele>126.947</ele>
        <time>2020-02-08T10:08:35.359Z</time>
      </trkpt>
      <trkpt lat="39.02042667" lon="-0.39312333">
        <ele>126.947</ele>
        <time>2020-02-08T10:08:36.359Z</time>
      </trkpt>
      <trkpt lat="39.02042667" lon="-0.39312333">
        <ele>126.947</ele>
        <time>2020-02-08T10:08:37.359Z</time>
      </trkpt>
      <trkpt lat="39.02038667" lon="-0.39303667">
        <ele>126.947</ele>
        <time>2020-02-08T10:08:38.359Z</time>
      </trkpt>
      <trkpt lat="39.02038667" lon="-0.39303667">
        <ele>126.947</ele>
        <time>2020-02-08T10:08:39.359Z</time>
      </trkpt>
      <trkpt lat="39.02034333" lon="-0.39296833">
        <ele>126.947</ele>
        <time>2020-02-08T10:08:40.359Z</time>
      </trkpt>
      <trkpt lat="39.02034333" lon="-0.39296833">
        <ele>126.947</ele>
        <time>2020-02-08T10:08:41.359Z</time>
      </trkpt>
      <trkpt lat="39.02028667" lon="-0.392895">
        <ele>126.947</ele>
        <time>2020-02-08T10:08:42.359Z</time>
      </trkpt>
      <trkpt lat="39.02028667" lon="-0.392895">
        <ele>126.947</ele>
        <time>2020-02-08T10:08:43.359Z</time>
      </trkpt>
      <trkpt lat="39.02022333" lon="-0.392825">
        <ele>127.947</ele>
        <time>2020-02-08T10:08:44.359Z</time>
      </trkpt>
      <trkpt lat="39.02022333" lon="-0.392825">
        <ele>127.947</ele>
        <time>2020-02-08T10:08:45.359Z</time>
      </trkpt>
      <trkpt lat="39.02015667" lon="-0.39275167">
        <ele>127.947</ele>
        <time>2020-02-08T10:08:46.359Z</time>
      </trkpt>
      <trkpt lat="39.02015667" lon="-0.39275167">
        <ele>127.947</ele>
        <time>2020-02-08T10:08:47.359Z</time>
      </trkpt>
      <trkpt lat="39.02010167" lon="-0.392675">
        <ele>127.947</ele>
        <time>2020-02-08T10:08:48.359Z</time>
      </trkpt>
      <trkpt lat="39.02010167" lon="-0.392675">
        <ele>127.947</ele>
        <time>2020-02-08T10:08:49.359Z</time>
      </trkpt>
      <trkpt lat="39.02004333" lon="-0.392605">
        <ele>128.947</ele>
        <time>2020-02-08T10:08:50.359Z</time>
      </trkpt>
      <trkpt lat="39.02004333" lon="-0.392605">
        <ele>128.947</ele>
        <time>2020-02-08T10:08:51.359Z</time>
      </trkpt>
      <trkpt lat="39.019985" lon="-0.392535">
        <ele>128.947</ele>
        <time>2020-02-08T10:08:52.359Z</time>
      </trkpt>
      <trkpt lat="39.019985" lon="-0.392535">
        <ele>128.947</ele>
        <time>2020-02-08T10:08:53.359Z</time>
      </trkpt>
      <trkpt lat="39.019925" lon="-0.39246333">
        <ele>128.947</ele>
        <time>2020-02-08T10:08:54.359Z</time>
      </trkpt>
      <trkpt lat="39.019925" lon="-0.39246333">
        <ele>128.947</ele>
        <time>2020-02-08T10:08:55.359Z</time>
      </trkpt>
      <trkpt lat="39.01986667" lon="-0.39238333">
        <ele>129.947</ele>
        <time>2020-02-08T10:08:56.359Z</time>
      </trkpt>
      <trkpt lat="39.01986667" lon="-0.39238333">
        <ele>129.947</ele>
        <time>2020-02-08T10:08:57.359Z</time>
      </trkpt>
      <trkpt lat="39.01980667" lon="-0.39229">
        <ele>129.947</ele>
        <time>2020-02-08T10:08:58.359Z</time>
      </trkpt>
      <trkpt lat="39.01980667" lon="-0.39229">
        <ele>129.947</ele>
        <time>2020-02-08T10:08:59.359Z</time>
      </trkpt>
      <trkpt lat="39.01975167" lon="-0.39219667">
        <ele>129.947</ele>
        <time>2020-02-08T10:09:00.359Z</time>
      </trkpt>
      <trkpt lat="39.01972667" lon="-0.39215167">
        <ele>129.947</ele>
        <time>2020-02-08T10:09:01.359Z</time>
      </trkpt>
      <trkpt lat="39.01972667" lon="-0.39215167">
        <ele>129.947</ele>
        <time>2020-02-08T10:09:02.359Z</time>
      </trkpt>
      <trkpt lat="39.01967167" lon="-0.392055">
        <ele>129.947</ele>
        <time>2020-02-08T10:09:03.359Z</time>
      </trkpt>
      <trkpt lat="39.01967167" lon="-0.392055">
        <ele>129.947</ele>
        <time>2020-02-08T10:09:04.359Z</time>
      </trkpt>
      <trkpt lat="39.01962" lon="-0.391955">
        <ele>129.947</ele>
        <time>2020-02-08T10:09:05.359Z</time>
      </trkpt>
      <trkpt lat="39.01959667" lon="-0.39190667">
        <ele>129.947</ele>
        <time>2020-02-08T10:09:06.359Z</time>
      </trkpt>
      <trkpt lat="39.01959667" lon="-0.39190667">
        <ele>129.947</ele>
        <time>2020-02-08T10:09:07.359Z</time>
      </trkpt>
      <trkpt lat="39.019555" lon="-0.39181667">
        <ele>129.947</ele>
        <time>2020-02-08T10:09:08.359Z</time>
      </trkpt>
      <trkpt lat="39.019555" lon="-0.39181667">
        <ele>129.947</ele>
        <time>2020-02-08T10:09:09.359Z</time>
      </trkpt>
      <trkpt lat="39.01951" lon="-0.39173333">
        <ele>129.947</ele>
        <time>2020-02-08T10:09:10.359Z</time>
      </trkpt>
      <trkpt lat="39.01951" lon="-0.39173333">
        <ele>129.947</ele>
        <time>2020-02-08T10:09:11.359Z</time>
      </trkpt>
      <trkpt lat="39.01947167" lon="-0.39164833">
        <ele>129.947</ele>
        <time>2020-02-08T10:09:12.359Z</time>
      </trkpt>
      <trkpt lat="39.01947167" lon="-0.39164833">
        <ele>129.947</ele>
        <time>2020-02-08T10:09:13.359Z</time>
      </trkpt>
      <trkpt lat="39.01943" lon="-0.391555">
        <ele>129.947</ele>
        <time>2020-02-08T10:09:14.359Z</time>
      </trkpt>
      <trkpt lat="39.01943" lon="-0.391555">
        <ele>129.947</ele>
        <time>2020-02-08T10:09:15.359Z</time>
      </trkpt>
      <trkpt lat="39.01939" lon="-0.391465">
        <ele>129.947</ele>
        <time>2020-02-08T10:09:16.359Z</time>
      </trkpt>
      <trkpt lat="39.01939" lon="-0.391465">
        <ele>130.947</ele>
        <time>2020-02-08T10:09:17.359Z</time>
      </trkpt>
      <trkpt lat="39.01935333" lon="-0.39137833">
        <ele>130.947</ele>
        <time>2020-02-08T10:09:18.359Z</time>
      </trkpt>
      <trkpt lat="39.01935333" lon="-0.39137833">
        <ele>130.947</ele>
        <time>2020-02-08T10:09:19.359Z</time>
      </trkpt>
      <trkpt lat="39.01931333" lon="-0.39129">
        <ele>130.947</ele>
        <time>2020-02-08T10:09:20.359Z</time>
      </trkpt>
      <trkpt lat="39.01931333" lon="-0.39129">
        <ele>130.947</ele>
        <time>2020-02-08T10:09:21.359Z</time>
      </trkpt>
      <trkpt lat="39.01926667" lon="-0.3912">
        <ele>130.947</ele>
        <time>2020-02-08T10:09:22.359Z</time>
      </trkpt>
      <trkpt lat="39.01926667" lon="-0.3912">
        <ele>130.947</ele>
        <time>2020-02-08T10:09:23.359Z</time>
      </trkpt>
      <trkpt lat="39.01921833" lon="-0.39109833">
        <ele>130.947</ele>
        <time>2020-02-08T10:09:24.359Z</time>
      </trkpt>
      <trkpt lat="39.01921833" lon="-0.39109833">
        <ele>130.947</ele>
        <time>2020-02-08T10:09:25.359Z</time>
      </trkpt>
      <trkpt lat="39.019165" lon="-0.39098333">
        <ele>130.947</ele>
        <time>2020-02-08T10:09:26.359Z</time>
      </trkpt>
      <trkpt lat="39.019165" lon="-0.39098333">
        <ele>129.947</ele>
        <time>2020-02-08T10:09:27.359Z</time>
      </trkpt>
      <trkpt lat="39.01910667" lon="-0.39087667">
        <ele>129.947</ele>
        <time>2020-02-08T10:09:28.359Z</time>
      </trkpt>
      <trkpt lat="39.01907167" lon="-0.39082833">
        <ele>129.947</ele>
        <time>2020-02-08T10:09:29.359Z</time>
      </trkpt>
      <trkpt lat="39.01907167" lon="-0.39082833">
        <ele>129.947</ele>
        <time>2020-02-08T10:09:30.359Z</time>
      </trkpt>
      <trkpt lat="39.019005" lon="-0.39074">
        <ele>129.947</ele>
        <time>2020-02-08T10:09:31.359Z</time>
      </trkpt>
      <trkpt lat="39.019005" lon="-0.39074">
        <ele>129.947</ele>
        <time>2020-02-08T10:09:32.359Z</time>
      </trkpt>
      <trkpt lat="39.01894333" lon="-0.39065833">
        <ele>129.947</ele>
        <time>2020-02-08T10:09:33.359Z</time>
      </trkpt>
      <trkpt lat="39.01891" lon="-0.39062333">
        <ele>129.947</ele>
        <time>2020-02-08T10:09:34.359Z</time>
      </trkpt>
      <trkpt lat="39.01891" lon="-0.39062333">
        <ele>129.947</ele>
        <time>2020-02-08T10:09:35.359Z</time>
      </trkpt>
      <trkpt lat="39.01885" lon="-0.39055333">
        <ele>129.947</ele>
        <time>2020-02-08T10:09:36.359Z</time>
      </trkpt>
      <trkpt lat="39.01885" lon="-0.39055333">
        <ele>129.947</ele>
        <time>2020-02-08T10:09:37.359Z</time>
      </trkpt>
      <trkpt lat="39.01879167" lon="-0.39048833">
        <ele>129.947</ele>
        <time>2020-02-08T10:09:38.359Z</time>
      </trkpt>
      <trkpt lat="39.01879167" lon="-0.39048833">
        <ele>129.947</ele>
        <time>2020-02-08T10:09:39.359Z</time>
      </trkpt>
      <trkpt lat="39.01873833" lon="-0.39041667">
        <ele>129.947</ele>
        <time>2020-02-08T10:09:40.359Z</time>
      </trkpt>
      <trkpt lat="39.01873833" lon="-0.39041667">
        <ele>129.947</ele>
        <time>2020-02-08T10:09:41.359Z</time>
      </trkpt>
      <trkpt lat="39.018685" lon="-0.39034833">
        <ele>129.947</ele>
        <time>2020-02-08T10:09:42.359Z</time>
      </trkpt>
      <trkpt lat="39.018685" lon="-0.39034833">
        <ele>129.947</ele>
        <time>2020-02-08T10:09:43.359Z</time>
      </trkpt>
      <trkpt lat="39.01863167" lon="-0.39027">
        <ele>129.947</ele>
        <time>2020-02-08T10:09:44.359Z</time>
      </trkpt>
      <trkpt lat="39.01863167" lon="-0.39027">
        <ele>129.947</ele>
        <time>2020-02-08T10:09:45.359Z</time>
      </trkpt>
      <trkpt lat="39.01857" lon="-0.39019">
        <ele>129.947</ele>
        <time>2020-02-08T10:09:46.359Z</time>
      </trkpt>
      <trkpt lat="39.018535" lon="-0.39015167">
        <ele>128.947</ele>
        <time>2020-02-08T10:09:47.359Z</time>
      </trkpt>
      <trkpt lat="39.018535" lon="-0.39015167">
        <ele>128.947</ele>
        <time>2020-02-08T10:09:48.359Z</time>
      </trkpt>
      <trkpt lat="39.018475" lon="-0.390065">
        <ele>128.947</ele>
        <time>2020-02-08T10:09:49.359Z</time>
      </trkpt>
      <trkpt lat="39.01845667" lon="-0.39001167">
        <ele>128.947</ele>
        <time>2020-02-08T10:09:50.359Z</time>
      </trkpt>
      <trkpt lat="39.01845667" lon="-0.39001167">
        <ele>126.947</ele>
        <time>2020-02-08T10:09:51.359Z</time>
      </trkpt>
      <trkpt lat="39.01844333" lon="-0.38988">
        <ele>126.947</ele>
        <time>2020-02-08T10:09:52.359Z</time>
      </trkpt>
      <trkpt lat="39.01844333" lon="-0.38988">
        <ele>126.947</ele>
        <time>2020-02-08T10:09:53.359Z</time>
      </trkpt>
      <trkpt lat="39.01842833" lon="-0.38976">
        <ele>126.947</ele>
        <time>2020-02-08T10:09:54.359Z</time>
      </trkpt>
      <trkpt lat="39.01842833" lon="-0.38976">
        <ele>126.947</ele>
        <time>2020-02-08T10:09:55.359Z</time>
      </trkpt>
      <trkpt lat="39.01837667" lon="-0.38967667">
        <ele>125.947</ele>
        <time>2020-02-08T10:09:56.359Z</time>
      </trkpt>
      <trkpt lat="39.01837667" lon="-0.38967667">
        <ele>125.947</ele>
        <time>2020-02-08T10:09:57.359Z</time>
      </trkpt>
      <trkpt lat="39.01830833" lon="-0.38961833">
        <ele>125.947</ele>
        <time>2020-02-08T10:09:58.359Z</time>
      </trkpt>
      <trkpt lat="39.01830833" lon="-0.38961833">
        <ele>125.947</ele>
        <time>2020-02-08T10:09:59.359Z</time>
      </trkpt>
      <trkpt lat="39.018245" lon="-0.38955833">
        <ele>126.947</ele>
        <time>2020-02-08T10:10:00.359Z</time>
      </trkpt>
      <trkpt lat="39.018245" lon="-0.38955833">
        <ele>126.947</ele>
        <time>2020-02-08T10:10:01.359Z</time>
      </trkpt>
      <trkpt lat="39.01818167" lon="-0.38951">
        <ele>126.947</ele>
        <time>2020-02-08T10:10:02.359Z</time>
      </trkpt>
      <trkpt lat="39.01818167" lon="-0.38951">
        <ele>126.947</ele>
        <time>2020-02-08T10:10:03.359Z</time>
      </trkpt>
      <trkpt lat="39.01811833" lon="-0.38946167">
        <ele>126.947</ele>
        <time>2020-02-08T10:10:04.359Z</time>
      </trkpt>
      <trkpt lat="39.01811833" lon="-0.38946167">
        <ele>126.947</ele>
        <time>2020-02-08T10:10:05.359Z</time>
      </trkpt>
      <trkpt lat="39.01805" lon="-0.38940833">
        <ele>126.947</ele>
        <time>2020-02-08T10:10:06.359Z</time>
      </trkpt>
      <trkpt lat="39.01805" lon="-0.38940833">
        <ele>126.947</ele>
        <time>2020-02-08T10:10:07.359Z</time>
      </trkpt>
      <trkpt lat="39.01799333" lon="-0.38934833">
        <ele>126.947</ele>
        <time>2020-02-08T10:10:08.359Z</time>
      </trkpt>
      <trkpt lat="39.01799333" lon="-0.38934833">
        <ele>126.947</ele>
        <time>2020-02-08T10:10:09.359Z</time>
      </trkpt>
      <trkpt lat="39.01794167" lon="-0.38929667">
        <ele>126.947</ele>
        <time>2020-02-08T10:10:10.359Z</time>
      </trkpt>
      <trkpt lat="39.01794167" lon="-0.38929667">
        <ele>126.947</ele>
        <time>2020-02-08T10:10:11.359Z</time>
      </trkpt>
      <trkpt lat="39.01790333" lon="-0.38924667">
        <ele>126.947</ele>
        <time>2020-02-08T10:10:12.359Z</time>
      </trkpt>
      <trkpt lat="39.01790333" lon="-0.38924667">
        <ele>126.947</ele>
        <time>2020-02-08T10:10:13.359Z</time>
      </trkpt>
      <trkpt lat="39.017885" lon="-0.38918833">
        <ele>126.947</ele>
        <time>2020-02-08T10:10:14.359Z</time>
      </trkpt>
      <trkpt lat="39.017885" lon="-0.38918833">
        <ele>126.947</ele>
        <time>2020-02-08T10:10:15.359Z</time>
      </trkpt>
      <trkpt lat="39.01789" lon="-0.38913333">
        <ele>126.947</ele>
        <time>2020-02-08T10:10:16.359Z</time>
      </trkpt>
      <trkpt lat="39.01789" lon="-0.38913333">
        <ele>126.947</ele>
        <time>2020-02-08T10:10:17.359Z</time>
      </trkpt>
      <trkpt lat="39.017905" lon="-0.38908167">
        <ele>126.947</ele>
        <time>2020-02-08T10:10:18.359Z</time>
      </trkpt>
      <trkpt lat="39.017905" lon="-0.38908167">
        <ele>126.947</ele>
        <time>2020-02-08T10:10:19.359Z</time>
      </trkpt>
      <trkpt lat="39.01792667" lon="-0.38903667">
        <ele>126.947</ele>
        <time>2020-02-08T10:10:20.359Z</time>
      </trkpt>
      <trkpt lat="39.01792667" lon="-0.38903667">
        <ele>126.947</ele>
        <time>2020-02-08T10:10:21.359Z</time>
      </trkpt>
      <trkpt lat="39.017945" lon="-0.38898333">
        <ele>126.947</ele>
        <time>2020-02-08T10:10:22.359Z</time>
      </trkpt>
      <trkpt lat="39.017945" lon="-0.38898333">
        <ele>126.947</ele>
        <time>2020-02-08T10:10:23.359Z</time>
      </trkpt>
      <trkpt lat="39.01796" lon="-0.38894833">
        <ele>126.947</ele>
        <time>2020-02-08T10:10:24.359Z</time>
      </trkpt>
      <trkpt lat="39.01796" lon="-0.38894833">
        <ele>126.947</ele>
        <time>2020-02-08T10:10:25.359Z</time>
      </trkpt>
      <trkpt lat="39.01797833" lon="-0.38891667">
        <ele>126.947</ele>
        <time>2020-02-08T10:10:26.359Z</time>
      </trkpt>
      <trkpt lat="39.01798833" lon="-0.38889667">
        <ele>126.947</ele>
        <time>2020-02-08T10:10:27.359Z</time>
      </trkpt>
      <trkpt lat="39.01798833" lon="-0.38889667">
        <ele>126.947</ele>
        <time>2020-02-08T10:10:28.359Z</time>
      </trkpt>
      <trkpt lat="39.01800667" lon="-0.38885333">
        <ele>126.947</ele>
        <time>2020-02-08T10:10:29.359Z</time>
      </trkpt>
      <trkpt lat="39.01801833" lon="-0.38883167">
        <ele>126.947</ele>
        <time>2020-02-08T10:10:30.359Z</time>
      </trkpt>
      <trkpt lat="39.01801833" lon="-0.38883167">
        <ele>126.947</ele>
        <time>2020-02-08T10:10:31.359Z</time>
      </trkpt>
      <trkpt lat="39.01804" lon="-0.38878333">
        <ele>126.947</ele>
        <time>2020-02-08T10:10:32.359Z</time>
      </trkpt>
      <trkpt lat="39.01804" lon="-0.38878333">
        <ele>126.947</ele>
        <time>2020-02-08T10:10:33.359Z</time>
      </trkpt>
      <trkpt lat="39.01806167" lon="-0.388745">
        <ele>126.947</ele>
        <time>2020-02-08T10:10:34.359Z</time>
      </trkpt>
      <trkpt lat="39.01806167" lon="-0.388745">
        <ele>126.947</ele>
        <time>2020-02-08T10:10:35.359Z</time>
      </trkpt>
      <trkpt lat="39.01808667" lon="-0.38870833">
        <ele>126.947</ele>
        <time>2020-02-08T10:10:36.359Z</time>
      </trkpt>
      <trkpt lat="39.01808667" lon="-0.38870833">
        <ele>126.947</ele>
        <time>2020-02-08T10:10:37.359Z</time>
      </trkpt>
      <trkpt lat="39.018115" lon="-0.38867167">
        <ele>126.947</ele>
        <time>2020-02-08T10:10:38.359Z</time>
      </trkpt>
      <trkpt lat="39.018115" lon="-0.38867167">
        <ele>127.947</ele>
        <time>2020-02-08T10:10:39.359Z</time>
      </trkpt>
      <trkpt lat="39.01815667" lon="-0.38862667">
        <ele>127.947</ele>
        <time>2020-02-08T10:10:40.359Z</time>
      </trkpt>
      <trkpt lat="39.01815667" lon="-0.38862667">
        <ele>127.947</ele>
        <time>2020-02-08T10:10:41.359Z</time>
      </trkpt>
      <trkpt lat="39.01820667" lon="-0.38858">
        <ele>127.947</ele>
        <time>2020-02-08T10:10:42.359Z</time>
      </trkpt>
      <trkpt lat="39.01823833" lon="-0.38855667">
        <ele>127.947</ele>
        <time>2020-02-08T10:10:43.359Z</time>
      </trkpt>
      <trkpt lat="39.01823833" lon="-0.38855667">
        <ele>127.947</ele>
        <time>2020-02-08T10:10:44.359Z</time>
      </trkpt>
      <trkpt lat="39.01828833" lon="-0.38851">
        <ele>127.947</ele>
        <time>2020-02-08T10:10:45.359Z</time>
      </trkpt>
      <trkpt lat="39.018315" lon="-0.38848667">
        <ele>127.947</ele>
        <time>2020-02-08T10:10:46.359Z</time>
      </trkpt>
      <trkpt lat="39.018315" lon="-0.38848667">
        <ele>128.947</ele>
        <time>2020-02-08T10:10:47.359Z</time>
      </trkpt>
      <trkpt lat="39.01836833" lon="-0.38843">
        <ele>128.947</ele>
        <time>2020-02-08T10:10:48.359Z</time>
      </trkpt>
      <trkpt lat="39.01836833" lon="-0.38843">
        <ele>128.947</ele>
        <time>2020-02-08T10:10:49.359Z</time>
      </trkpt>
      <trkpt lat="39.01841833" lon="-0.38838">
        <ele>128.947</ele>
        <time>2020-02-08T10:10:50.359Z</time>
      </trkpt>
      <trkpt lat="39.01841833" lon="-0.38838">
        <ele>128.947</ele>
        <time>2020-02-08T10:10:51.359Z</time>
      </trkpt>
      <trkpt lat="39.01846667" lon="-0.38834333">
        <ele>129.947</ele>
        <time>2020-02-08T10:10:52.359Z</time>
      </trkpt>
      <trkpt lat="39.01846667" lon="-0.38834333">
        <ele>129.947</ele>
        <time>2020-02-08T10:10:53.359Z</time>
      </trkpt>
      <trkpt lat="39.01850667" lon="-0.388305">
        <ele>129.947</ele>
        <time>2020-02-08T10:10:54.359Z</time>
      </trkpt>
      <trkpt lat="39.01850667" lon="-0.388305">
        <ele>129.947</ele>
        <time>2020-02-08T10:10:55.359Z</time>
      </trkpt>
      <trkpt lat="39.01853667" lon="-0.38827167">
        <ele>129.947</ele>
        <time>2020-02-08T10:10:56.359Z</time>
      </trkpt>
      <trkpt lat="39.01853667" lon="-0.38827167">
        <ele>130.947</ele>
        <time>2020-02-08T10:10:57.359Z</time>
      </trkpt>
      <trkpt lat="39.01856333" lon="-0.38822">
        <ele>130.947</ele>
        <time>2020-02-08T10:10:58.359Z</time>
      </trkpt>
      <trkpt lat="39.01856333" lon="-0.38822">
        <ele>130.947</ele>
        <time>2020-02-08T10:10:59.359Z</time>
      </trkpt>
      <trkpt lat="39.01859667" lon="-0.38817167">
        <ele>130.947</ele>
        <time>2020-02-08T10:11:00.359Z</time>
      </trkpt>
      <trkpt lat="39.01859667" lon="-0.38817167">
        <ele>130.947</ele>
        <time>2020-02-08T10:11:01.359Z</time>
      </trkpt>
      <trkpt lat="39.018625" lon="-0.38812667">
        <ele>130.947</ele>
        <time>2020-02-08T10:11:02.359Z</time>
      </trkpt>
      <trkpt lat="39.01864" lon="-0.38810333">
        <ele>131.947</ele>
        <time>2020-02-08T10:11:03.359Z</time>
      </trkpt>
      <trkpt lat="39.01864" lon="-0.38810333">
        <ele>131.947</ele>
        <time>2020-02-08T10:11:04.359Z</time>
      </trkpt>
      <trkpt lat="39.01867667" lon="-0.38807">
        <ele>131.947</ele>
        <time>2020-02-08T10:11:05.359Z</time>
      </trkpt>
      <trkpt lat="39.01869167" lon="-0.38806">
        <ele>131.947</ele>
        <time>2020-02-08T10:11:06.359Z</time>
      </trkpt>
      <trkpt lat="39.01869167" lon="-0.38806">
        <ele>132.947</ele>
        <time>2020-02-08T10:11:07.359Z</time>
      </trkpt>
      <trkpt lat="39.01872833" lon="-0.38804833">
        <ele>132.947</ele>
        <time>2020-02-08T10:11:08.359Z</time>
      </trkpt>
      <trkpt lat="39.01872833" lon="-0.38804833">
        <ele>132.947</ele>
        <time>2020-02-08T10:11:09.359Z</time>
      </trkpt>
      <trkpt lat="39.01877" lon="-0.38804333">
        <ele>132.947</ele>
        <time>2020-02-08T10:11:10.359Z</time>
      </trkpt>
      <trkpt lat="39.01877" lon="-0.38804333">
        <ele>133.947</ele>
        <time>2020-02-08T10:11:11.359Z</time>
      </trkpt>
      <trkpt lat="39.01880833" lon="-0.38803333">
        <ele>133.947</ele>
        <time>2020-02-08T10:11:12.359Z</time>
      </trkpt>
      <trkpt lat="39.01880833" lon="-0.38803333">
        <ele>133.947</ele>
        <time>2020-02-08T10:11:13.359Z</time>
      </trkpt>
      <trkpt lat="39.01885167" lon="-0.38802667">
        <ele>133.947</ele>
        <time>2020-02-08T10:11:14.359Z</time>
      </trkpt>
      <trkpt lat="39.01885167" lon="-0.38802667">
        <ele>134.947</ele>
        <time>2020-02-08T10:11:15.359Z</time>
      </trkpt>
      <trkpt lat="39.01889833" lon="-0.38802">
        <ele>134.947</ele>
        <time>2020-02-08T10:11:16.359Z</time>
      </trkpt>
      <trkpt lat="39.01889833" lon="-0.38802">
        <ele>134.947</ele>
        <time>2020-02-08T10:11:17.359Z</time>
      </trkpt>
      <trkpt lat="39.018945" lon="-0.38801333">
        <ele>134.947</ele>
        <time>2020-02-08T10:11:18.359Z</time>
      </trkpt>
      <trkpt lat="39.018945" lon="-0.38801333">
        <ele>135.947</ele>
        <time>2020-02-08T10:11:19.359Z</time>
      </trkpt>
      <trkpt lat="39.01899" lon="-0.38800667">
        <ele>135.947</ele>
        <time>2020-02-08T10:11:20.359Z</time>
      </trkpt>
      <trkpt lat="39.01899" lon="-0.38800667">
        <ele>135.947</ele>
        <time>2020-02-08T10:11:21.359Z</time>
      </trkpt>
      <trkpt lat="39.01903667" lon="-0.38800333">
        <ele>135.947</ele>
        <time>2020-02-08T10:11:22.359Z</time>
      </trkpt>
      <trkpt lat="39.01903667" lon="-0.38800333">
        <ele>136.947</ele>
        <time>2020-02-08T10:11:23.359Z</time>
      </trkpt>
      <trkpt lat="39.01908333" lon="-0.38799667">
        <ele>136.947</ele>
        <time>2020-02-08T10:11:24.359Z</time>
      </trkpt>
      <trkpt lat="39.01908333" lon="-0.38799667">
        <ele>136.947</ele>
        <time>2020-02-08T10:11:25.359Z</time>
      </trkpt>
      <trkpt lat="39.01912833" lon="-0.38798833">
        <ele>136.947</ele>
        <time>2020-02-08T10:11:26.359Z</time>
      </trkpt>
      <trkpt lat="39.01914833" lon="-0.38798333">
        <ele>137.947</ele>
        <time>2020-02-08T10:11:27.359Z</time>
      </trkpt>
      <trkpt lat="39.01914833" lon="-0.38798333">
        <ele>137.947</ele>
        <time>2020-02-08T10:11:28.359Z</time>
      </trkpt>
      <trkpt lat="39.01919667" lon="-0.38794167">
        <ele>137.947</ele>
        <time>2020-02-08T10:11:29.359Z</time>
      </trkpt>
      <trkpt lat="39.01920667" lon="-0.38790833">
        <ele>137.947</ele>
        <time>2020-02-08T10:11:30.359Z</time>
      </trkpt>
      <trkpt lat="39.01920667" lon="-0.38790833">
        <ele>138.947</ele>
        <time>2020-02-08T10:11:31.359Z</time>
      </trkpt>
      <trkpt lat="39.01922333" lon="-0.38783667">
        <ele>138.947</ele>
        <time>2020-02-08T10:11:32.359Z</time>
      </trkpt>
      <trkpt lat="39.01922333" lon="-0.38783667">
        <ele>138.947</ele>
        <time>2020-02-08T10:11:33.359Z</time>
      </trkpt>
      <trkpt lat="39.01923333" lon="-0.38776833">
        <ele>138.947</ele>
        <time>2020-02-08T10:11:34.359Z</time>
      </trkpt>
      <trkpt lat="39.01924" lon="-0.38773667">
        <ele>139.947</ele>
        <time>2020-02-08T10:11:35.359Z</time>
      </trkpt>
      <trkpt lat="39.019245" lon="-0.38770333">
        <ele>139.947</ele>
        <time>2020-02-08T10:11:36.359Z</time>
      </trkpt>
      <trkpt lat="39.019245" lon="-0.38770333">
        <ele>139.947</ele>
        <time>2020-02-08T10:11:37.359Z</time>
      </trkpt>
      <trkpt lat="39.01925833" lon="-0.38763667">
        <ele>139.947</ele>
        <time>2020-02-08T10:11:38.359Z</time>
      </trkpt>
      <trkpt lat="39.01925833" lon="-0.38763667">
        <ele>140.947</ele>
        <time>2020-02-08T10:11:39.359Z</time>
      </trkpt>
      <trkpt lat="39.01927167" lon="-0.38757667">
        <ele>140.947</ele>
        <time>2020-02-08T10:11:40.359Z</time>
      </trkpt>
      <trkpt lat="39.01927167" lon="-0.38757667">
        <ele>140.947</ele>
        <time>2020-02-08T10:11:41.359Z</time>
      </trkpt>
      <trkpt lat="39.01928167" lon="-0.38751">
        <ele>140.947</ele>
        <time>2020-02-08T10:11:42.359Z</time>
      </trkpt>
      <trkpt lat="39.01928833" lon="-0.38747833">
        <ele>141.947</ele>
        <time>2020-02-08T10:11:43.359Z</time>
      </trkpt>
      <trkpt lat="39.01929667" lon="-0.387445">
        <ele>141.947</ele>
        <time>2020-02-08T10:11:44.359Z</time>
      </trkpt>
      <trkpt lat="39.01929667" lon="-0.387445">
        <ele>141.947</ele>
        <time>2020-02-08T10:11:45.359Z</time>
      </trkpt>
      <trkpt lat="39.01931" lon="-0.38738667">
        <ele>141.947</ele>
        <time>2020-02-08T10:11:46.359Z</time>
      </trkpt>
      <trkpt lat="39.01931" lon="-0.38738667">
        <ele>142.947</ele>
        <time>2020-02-08T10:11:47.359Z</time>
      </trkpt>
      <trkpt lat="39.01932" lon="-0.387325">
        <ele>142.947</ele>
        <time>2020-02-08T10:11:48.359Z</time>
      </trkpt>
      <trkpt lat="39.01932" lon="-0.387325">
        <ele>142.947</ele>
        <time>2020-02-08T10:11:49.359Z</time>
      </trkpt>
      <trkpt lat="39.01932667" lon="-0.38726">
        <ele>142.947</ele>
        <time>2020-02-08T10:11:50.359Z</time>
      </trkpt>
      <trkpt lat="39.01932667" lon="-0.38726">
        <ele>143.947</ele>
        <time>2020-02-08T10:11:51.359Z</time>
      </trkpt>
      <trkpt lat="39.019335" lon="-0.38719">
        <ele>143.947</ele>
        <time>2020-02-08T10:11:52.359Z</time>
      </trkpt>
      <trkpt lat="39.01933833" lon="-0.387155">
        <ele>143.947</ele>
        <time>2020-02-08T10:11:53.359Z</time>
      </trkpt>
      <trkpt lat="39.01933833" lon="-0.38712">
        <ele>144.947</ele>
        <time>2020-02-08T10:11:54.359Z</time>
      </trkpt>
      <trkpt lat="39.01933833" lon="-0.38712">
        <ele>144.947</ele>
        <time>2020-02-08T10:11:55.359Z</time>
      </trkpt>
      <trkpt lat="39.01933667" lon="-0.38705167">
        <ele>144.947</ele>
        <time>2020-02-08T10:11:56.359Z</time>
      </trkpt>
      <trkpt lat="39.01933167" lon="-0.38702">
        <ele>144.947</ele>
        <time>2020-02-08T10:11:57.359Z</time>
      </trkpt>
      <trkpt lat="39.01933167" lon="-0.38702">
        <ele>145.947</ele>
        <time>2020-02-08T10:11:58.359Z</time>
      </trkpt>
      <trkpt lat="39.01932833" lon="-0.38695333">
        <ele>145.947</ele>
        <time>2020-02-08T10:11:59.359Z</time>
      </trkpt>
      <trkpt lat="39.01932667" lon="-0.386925">
        <ele>145.947</ele>
        <time>2020-02-08T10:12:00.359Z</time>
      </trkpt>
      <trkpt lat="39.01932667" lon="-0.386925">
        <ele>145.947</ele>
        <time>2020-02-08T10:12:01.359Z</time>
      </trkpt>
      <trkpt lat="39.01931667" lon="-0.38686167">
        <ele>146.947</ele>
        <time>2020-02-08T10:12:02.359Z</time>
      </trkpt>
      <trkpt lat="39.01931667" lon="-0.38686167">
        <ele>146.947</ele>
        <time>2020-02-08T10:12:03.359Z</time>
      </trkpt>
      <trkpt lat="39.01929833" lon="-0.38679833">
        <ele>146.947</ele>
        <time>2020-02-08T10:12:04.359Z</time>
      </trkpt>
      <trkpt lat="39.01929833" lon="-0.38679833">
        <ele>146.947</ele>
        <time>2020-02-08T10:12:05.359Z</time>
      </trkpt>
      <trkpt lat="39.01926833" lon="-0.38674167">
        <ele>146.947</ele>
        <time>2020-02-08T10:12:06.359Z</time>
      </trkpt>
      <trkpt lat="39.01926833" lon="-0.38674167">
        <ele>146.947</ele>
        <time>2020-02-08T10:12:07.359Z</time>
      </trkpt>
      <trkpt lat="39.01922833" lon="-0.38670333">
        <ele>146.947</ele>
        <time>2020-02-08T10:12:08.359Z</time>
      </trkpt>
      <trkpt lat="39.01922833" lon="-0.38670333">
        <ele>146.947</ele>
        <time>2020-02-08T10:12:09.359Z</time>
      </trkpt>
      <trkpt lat="39.01917667" lon="-0.38667333">
        <ele>146.947</ele>
        <time>2020-02-08T10:12:10.359Z</time>
      </trkpt>
      <trkpt lat="39.01915" lon="-0.38666">
        <ele>146.947</ele>
        <time>2020-02-08T10:12:11.359Z</time>
      </trkpt>
      <trkpt lat="39.01912333" lon="-0.38664667">
        <ele>146.947</ele>
        <time>2020-02-08T10:12:12.359Z</time>
      </trkpt>
      <trkpt lat="39.01912333" lon="-0.38664667">
        <ele>146.947</ele>
        <time>2020-02-08T10:12:13.359Z</time>
      </trkpt>
      <trkpt lat="39.01906833" lon="-0.38662">
        <ele>146.947</ele>
        <time>2020-02-08T10:12:14.359Z</time>
      </trkpt>
      <trkpt lat="39.01906833" lon="-0.38662">
        <ele>146.947</ele>
        <time>2020-02-08T10:12:15.359Z</time>
      </trkpt>
      <trkpt lat="39.01901833" lon="-0.38659">
        <ele>146.947</ele>
        <time>2020-02-08T10:12:16.359Z</time>
      </trkpt>
      <trkpt lat="39.01901833" lon="-0.38659">
        <ele>146.947</ele>
        <time>2020-02-08T10:12:17.359Z</time>
      </trkpt>
      <trkpt lat="39.01897667" lon="-0.38655167">
        <ele>146.947</ele>
        <time>2020-02-08T10:12:18.359Z</time>
      </trkpt>
      <trkpt lat="39.01897667" lon="-0.38655167">
        <ele>146.947</ele>
        <time>2020-02-08T10:12:19.359Z</time>
      </trkpt>
      <trkpt lat="39.01894" lon="-0.38651">
        <ele>147.947</ele>
        <time>2020-02-08T10:12:20.359Z</time>
      </trkpt>
      <trkpt lat="39.01894" lon="-0.38651">
        <ele>147.947</ele>
        <time>2020-02-08T10:12:21.359Z</time>
      </trkpt>
      <trkpt lat="39.01891167" lon="-0.386455">
        <ele>147.947</ele>
        <time>2020-02-08T10:12:22.359Z</time>
      </trkpt>
      <trkpt lat="39.01891167" lon="-0.386455">
        <ele>147.947</ele>
        <time>2020-02-08T10:12:23.359Z</time>
      </trkpt>
      <trkpt lat="39.01888833" lon="-0.38640667">
        <ele>147.947</ele>
        <time>2020-02-08T10:12:24.359Z</time>
      </trkpt>
      <trkpt lat="39.01888833" lon="-0.38640667">
        <ele>148.947</ele>
        <time>2020-02-08T10:12:25.359Z</time>
      </trkpt>
      <trkpt lat="39.01886833" lon="-0.38637">
        <ele>148.947</ele>
        <time>2020-02-08T10:12:26.359Z</time>
      </trkpt>
      <trkpt lat="39.01886833" lon="-0.38637">
        <ele>148.947</ele>
        <time>2020-02-08T10:12:27.359Z</time>
      </trkpt>
      <trkpt lat="39.01885167" lon="-0.38629833">
        <ele>148.947</ele>
        <time>2020-02-08T10:12:28.359Z</time>
      </trkpt>
      <trkpt lat="39.01885167" lon="-0.38629833">
        <ele>148.947</ele>
        <time>2020-02-08T10:12:29.359Z</time>
      </trkpt>
      <trkpt lat="39.018845" lon="-0.38622">
        <ele>148.947</ele>
        <time>2020-02-08T10:12:30.359Z</time>
      </trkpt>
      <trkpt lat="39.018845" lon="-0.38622">
        <ele>148.947</ele>
        <time>2020-02-08T10:12:31.359Z</time>
      </trkpt>
      <trkpt lat="39.01883333" lon="-0.38615167">
        <ele>148.947</ele>
        <time>2020-02-08T10:12:32.359Z</time>
      </trkpt>
      <trkpt lat="39.01883333" lon="-0.38615167">
        <ele>148.947</ele>
        <time>2020-02-08T10:12:33.359Z</time>
      </trkpt>
      <trkpt lat="39.01881833" lon="-0.386075">
        <ele>148.947</ele>
        <time>2020-02-08T10:12:34.359Z</time>
      </trkpt>
      <trkpt lat="39.01881833" lon="-0.386075">
        <ele>149.947</ele>
        <time>2020-02-08T10:12:35.359Z</time>
      </trkpt>
      <trkpt lat="39.01881" lon="-0.38600333">
        <ele>149.947</ele>
        <time>2020-02-08T10:12:36.359Z</time>
      </trkpt>
      <trkpt lat="39.01881" lon="-0.38600333">
        <ele>149.947</ele>
        <time>2020-02-08T10:12:37.359Z</time>
      </trkpt>
      <trkpt lat="39.0188" lon="-0.385935">
        <ele>149.947</ele>
        <time>2020-02-08T10:12:38.359Z</time>
      </trkpt>
      <trkpt lat="39.0188" lon="-0.385935">
        <ele>149.947</ele>
        <time>2020-02-08T10:12:39.359Z</time>
      </trkpt>
      <trkpt lat="39.01878833" lon="-0.385865">
        <ele>149.947</ele>
        <time>2020-02-08T10:12:40.359Z</time>
      </trkpt>
      <trkpt lat="39.01878833" lon="-0.385865">
        <ele>150.947</ele>
        <time>2020-02-08T10:12:41.359Z</time>
      </trkpt>
      <trkpt lat="39.01877833" lon="-0.38579667">
        <ele>150.947</ele>
        <time>2020-02-08T10:12:42.359Z</time>
      </trkpt>
      <trkpt lat="39.01877833" lon="-0.38579667">
        <ele>150.947</ele>
        <time>2020-02-08T10:12:43.359Z</time>
      </trkpt>
      <trkpt lat="39.01876167" lon="-0.38573333">
        <ele>150.947</ele>
        <time>2020-02-08T10:12:44.359Z</time>
      </trkpt>
      <trkpt lat="39.01876167" lon="-0.38573333">
        <ele>150.947</ele>
        <time>2020-02-08T10:12:45.359Z</time>
      </trkpt>
      <trkpt lat="39.01874667" lon="-0.38566667">
        <ele>150.947</ele>
        <time>2020-02-08T10:12:46.359Z</time>
      </trkpt>
      <trkpt lat="39.01874667" lon="-0.38566667">
        <ele>150.947</ele>
        <time>2020-02-08T10:12:47.359Z</time>
      </trkpt>
      <trkpt lat="39.01873333" lon="-0.3856">
        <ele>150.947</ele>
        <time>2020-02-08T10:12:48.359Z</time>
      </trkpt>
      <trkpt lat="39.01873333" lon="-0.3856">
        <ele>151.947</ele>
        <time>2020-02-08T10:12:49.359Z</time>
      </trkpt>
      <trkpt lat="39.01872333" lon="-0.38553667">
        <ele>151.947</ele>
        <time>2020-02-08T10:12:50.359Z</time>
      </trkpt>
      <trkpt lat="39.01872333" lon="-0.38553667">
        <ele>151.947</ele>
        <time>2020-02-08T10:12:51.359Z</time>
      </trkpt>
      <trkpt lat="39.018715" lon="-0.385465">
        <ele>151.947</ele>
        <time>2020-02-08T10:12:52.359Z</time>
      </trkpt>
      <trkpt lat="39.018715" lon="-0.385465">
        <ele>151.947</ele>
        <time>2020-02-08T10:12:53.359Z</time>
      </trkpt>
      <trkpt lat="39.01870667" lon="-0.38539667">
        <ele>152.947</ele>
        <time>2020-02-08T10:12:54.359Z</time>
      </trkpt>
      <trkpt lat="39.01870667" lon="-0.38539667">
        <ele>152.947</ele>
        <time>2020-02-08T10:12:55.359Z</time>
      </trkpt>
      <trkpt lat="39.01870167" lon="-0.385325">
        <ele>152.947</ele>
        <time>2020-02-08T10:12:56.359Z</time>
      </trkpt>
      <trkpt lat="39.01870167" lon="-0.385325">
        <ele>152.947</ele>
        <time>2020-02-08T10:12:57.359Z</time>
      </trkpt>
      <trkpt lat="39.018695" lon="-0.38525167">
        <ele>152.947</ele>
        <time>2020-02-08T10:12:58.359Z</time>
      </trkpt>
      <trkpt lat="39.01869333" lon="-0.38520333">
        <ele>152.947</ele>
        <time>2020-02-08T10:12:59.359Z</time>
      </trkpt>
      <trkpt lat="39.01869333" lon="-0.38520333">
        <ele>152.947</ele>
        <time>2020-02-08T10:13:00.359Z</time>
      </trkpt>
      <trkpt lat="39.01868167" lon="-0.38511667">
        <ele>152.947</ele>
        <time>2020-02-08T10:13:01.359Z</time>
      </trkpt>
      <trkpt lat="39.01868" lon="-0.38507">
        <ele>153.947</ele>
        <time>2020-02-08T10:13:02.359Z</time>
      </trkpt>
      <trkpt lat="39.01868" lon="-0.38507">
        <ele>153.947</ele>
        <time>2020-02-08T10:13:03.359Z</time>
      </trkpt>
      <trkpt lat="39.01867333" lon="-0.38498167">
        <ele>153.947</ele>
        <time>2020-02-08T10:13:04.359Z</time>
      </trkpt>
      <trkpt lat="39.01867333" lon="-0.38498167">
        <ele>153.947</ele>
        <time>2020-02-08T10:13:05.359Z</time>
      </trkpt>
      <trkpt lat="39.01866833" lon="-0.38489667">
        <ele>153.947</ele>
        <time>2020-02-08T10:13:06.359Z</time>
      </trkpt>
      <trkpt lat="39.01866833" lon="-0.38489667">
        <ele>153.947</ele>
        <time>2020-02-08T10:13:07.359Z</time>
      </trkpt>
      <trkpt lat="39.01866" lon="-0.38481833">
        <ele>153.947</ele>
        <time>2020-02-08T10:13:08.359Z</time>
      </trkpt>
      <trkpt lat="39.01866" lon="-0.38481833">
        <ele>153.947</ele>
        <time>2020-02-08T10:13:09.359Z</time>
      </trkpt>
      <trkpt lat="39.01864833" lon="-0.38474">
        <ele>153.947</ele>
        <time>2020-02-08T10:13:10.359Z</time>
      </trkpt>
      <trkpt lat="39.01864333" lon="-0.3847">
        <ele>153.947</ele>
        <time>2020-02-08T10:13:11.359Z</time>
      </trkpt>
      <trkpt lat="39.01864333" lon="-0.3847">
        <ele>153.947</ele>
        <time>2020-02-08T10:13:12.359Z</time>
      </trkpt>
      <trkpt lat="39.01863667" lon="-0.38462">
        <ele>153.947</ele>
        <time>2020-02-08T10:13:13.359Z</time>
      </trkpt>
      <trkpt lat="39.01863167" lon="-0.38458333">
        <ele>154.947</ele>
        <time>2020-02-08T10:13:14.359Z</time>
      </trkpt>
      <trkpt lat="39.01863167" lon="-0.38458333">
        <ele>154.947</ele>
        <time>2020-02-08T10:13:15.359Z</time>
      </trkpt>
      <trkpt lat="39.01862" lon="-0.38450667">
        <ele>154.947</ele>
        <time>2020-02-08T10:13:16.359Z</time>
      </trkpt>
      <trkpt lat="39.01862" lon="-0.38450667">
        <ele>154.947</ele>
        <time>2020-02-08T10:13:17.359Z</time>
      </trkpt>
      <trkpt lat="39.01861333" lon="-0.38443">
        <ele>154.947</ele>
        <time>2020-02-08T10:13:18.359Z</time>
      </trkpt>
      <trkpt lat="39.01861333" lon="-0.38443">
        <ele>154.947</ele>
        <time>2020-02-08T10:13:19.359Z</time>
      </trkpt>
      <trkpt lat="39.018605" lon="-0.384355">
        <ele>154.947</ele>
        <time>2020-02-08T10:13:20.359Z</time>
      </trkpt>
      <trkpt lat="39.018605" lon="-0.384355">
        <ele>155.947</ele>
        <time>2020-02-08T10:13:21.359Z</time>
      </trkpt>
      <trkpt lat="39.01859667" lon="-0.38427833">
        <ele>155.947</ele>
        <time>2020-02-08T10:13:22.359Z</time>
      </trkpt>
      <trkpt lat="39.01859667" lon="-0.38427833">
        <ele>155.947</ele>
        <time>2020-02-08T10:13:23.359Z</time>
      </trkpt>
      <trkpt lat="39.01858667" lon="-0.38419833">
        <ele>155.947</ele>
        <time>2020-02-08T10:13:24.359Z</time>
      </trkpt>
      <trkpt lat="39.01858667" lon="-0.38419833">
        <ele>155.947</ele>
        <time>2020-02-08T10:13:25.359Z</time>
      </trkpt>
      <trkpt lat="39.01857667" lon="-0.38412333">
        <ele>155.947</ele>
        <time>2020-02-08T10:13:26.359Z</time>
      </trkpt>
      <trkpt lat="39.01857667" lon="-0.38412333">
        <ele>155.947</ele>
        <time>2020-02-08T10:13:27.359Z</time>
      </trkpt>
      <trkpt lat="39.01856667" lon="-0.38404333">
        <ele>155.947</ele>
        <time>2020-02-08T10:13:28.359Z</time>
      </trkpt>
      <trkpt lat="39.01856667" lon="-0.38404333">
        <ele>155.947</ele>
        <time>2020-02-08T10:13:29.359Z</time>
      </trkpt>
      <trkpt lat="39.01855333" lon="-0.38395667">
        <ele>155.947</ele>
        <time>2020-02-08T10:13:30.359Z</time>
      </trkpt>
      <trkpt lat="39.01855333" lon="-0.38395667">
        <ele>155.947</ele>
        <time>2020-02-08T10:13:31.359Z</time>
      </trkpt>
      <trkpt lat="39.01854333" lon="-0.38387">
        <ele>156.947</ele>
        <time>2020-02-08T10:13:32.359Z</time>
      </trkpt>
      <trkpt lat="39.01854333" lon="-0.38387">
        <ele>156.947</ele>
        <time>2020-02-08T10:13:33.359Z</time>
      </trkpt>
      <trkpt lat="39.01853333" lon="-0.38378333">
        <ele>156.947</ele>
        <time>2020-02-08T10:13:34.359Z</time>
      </trkpt>
      <trkpt lat="39.01852667" lon="-0.38374">
        <ele>156.947</ele>
        <time>2020-02-08T10:13:35.359Z</time>
      </trkpt>
      <trkpt lat="39.01852667" lon="-0.38374">
        <ele>156.947</ele>
        <time>2020-02-08T10:13:36.359Z</time>
      </trkpt>
      <trkpt lat="39.01852" lon="-0.38365167">
        <ele>156.947</ele>
        <time>2020-02-08T10:13:37.359Z</time>
      </trkpt>
      <trkpt lat="39.018515" lon="-0.38360667">
        <ele>156.947</ele>
        <time>2020-02-08T10:13:38.359Z</time>
      </trkpt>
      <trkpt lat="39.018515" lon="-0.38360667">
        <ele>156.947</ele>
        <time>2020-02-08T10:13:39.359Z</time>
      </trkpt>
      <trkpt lat="39.01850167" lon="-0.38351167">
        <ele>156.947</ele>
        <time>2020-02-08T10:13:40.359Z</time>
      </trkpt>
      <trkpt lat="39.01849667" lon="-0.38346667">
        <ele>156.947</ele>
        <time>2020-02-08T10:13:41.359Z</time>
      </trkpt>
      <trkpt lat="39.01849667" lon="-0.38346667">
        <ele>156.947</ele>
        <time>2020-02-08T10:13:42.359Z</time>
      </trkpt>
      <trkpt lat="39.018485" lon="-0.38337167">
        <ele>156.947</ele>
        <time>2020-02-08T10:13:43.359Z</time>
      </trkpt>
      <trkpt lat="39.01848" lon="-0.38332167">
        <ele>157.947</ele>
        <time>2020-02-08T10:13:44.359Z</time>
      </trkpt>
      <trkpt lat="39.01848" lon="-0.38332167">
        <ele>157.947</ele>
        <time>2020-02-08T10:13:45.359Z</time>
      </trkpt>
      <trkpt lat="39.01847167" lon="-0.38322167">
        <ele>157.947</ele>
        <time>2020-02-08T10:13:46.359Z</time>
      </trkpt>
      <trkpt lat="39.01846833" lon="-0.383175">
        <ele>157.947</ele>
        <time>2020-02-08T10:13:47.359Z</time>
      </trkpt>
      <trkpt lat="39.01846833" lon="-0.383175">
        <ele>157.947</ele>
        <time>2020-02-08T10:13:48.359Z</time>
      </trkpt>
      <trkpt lat="39.01846" lon="-0.383085">
        <ele>158.947</ele>
        <time>2020-02-08T10:13:49.359Z</time>
      </trkpt>
      <trkpt lat="39.01845833" lon="-0.38303667">
        <ele>158.947</ele>
        <time>2020-02-08T10:13:50.359Z</time>
      </trkpt>
      <trkpt lat="39.01845833" lon="-0.38303667">
        <ele>158.947</ele>
        <time>2020-02-08T10:13:51.359Z</time>
      </trkpt>
      <trkpt lat="39.018455" lon="-0.38294">
        <ele>158.947</ele>
        <time>2020-02-08T10:13:52.359Z</time>
      </trkpt>
      <trkpt lat="39.018455" lon="-0.38294">
        <ele>159.947</ele>
        <time>2020-02-08T10:13:53.359Z</time>
      </trkpt>
      <trkpt lat="39.01845167" lon="-0.38284667">
        <ele>159.947</ele>
        <time>2020-02-08T10:13:54.359Z</time>
      </trkpt>
      <trkpt lat="39.01845167" lon="-0.38284667">
        <ele>159.947</ele>
        <time>2020-02-08T10:13:55.359Z</time>
      </trkpt>
      <trkpt lat="39.01844833" lon="-0.38274667">
        <ele>159.947</ele>
        <time>2020-02-08T10:13:56.359Z</time>
      </trkpt>
      <trkpt lat="39.01844833" lon="-0.38274667">
        <ele>159.947</ele>
        <time>2020-02-08T10:13:57.359Z</time>
      </trkpt>
      <trkpt lat="39.01844667" lon="-0.38265">
        <ele>159.947</ele>
        <time>2020-02-08T10:13:58.359Z</time>
      </trkpt>
      <trkpt lat="39.018445" lon="-0.38260333">
        <ele>160.947</ele>
        <time>2020-02-08T10:13:59.359Z</time>
      </trkpt>
      <trkpt lat="39.018445" lon="-0.38260333">
        <ele>160.947</ele>
        <time>2020-02-08T10:14:00.359Z</time>
      </trkpt>
      <trkpt lat="39.01844167" lon="-0.38250333">
        <ele>160.947</ele>
        <time>2020-02-08T10:14:01.359Z</time>
      </trkpt>
      <trkpt lat="39.01844" lon="-0.38245">
        <ele>160.947</ele>
        <time>2020-02-08T10:14:02.359Z</time>
      </trkpt>
      <trkpt lat="39.01844" lon="-0.38245">
        <ele>160.947</ele>
        <time>2020-02-08T10:14:03.359Z</time>
      </trkpt>
      <trkpt lat="39.01843833" lon="-0.38234167">
        <ele>160.947</ele>
        <time>2020-02-08T10:14:04.359Z</time>
      </trkpt>
      <trkpt lat="39.01843833" lon="-0.38234167">
        <ele>160.947</ele>
        <time>2020-02-08T10:14:05.359Z</time>
      </trkpt>
      <trkpt lat="39.01843833" lon="-0.38223833">
        <ele>160.947</ele>
        <time>2020-02-08T10:14:06.359Z</time>
      </trkpt>
      <trkpt lat="39.01843833" lon="-0.38223833">
        <ele>161.947</ele>
        <time>2020-02-08T10:14:07.359Z</time>
      </trkpt>
      <trkpt lat="39.01843833" lon="-0.382135">
        <ele>161.947</ele>
        <time>2020-02-08T10:14:08.359Z</time>
      </trkpt>
      <trkpt lat="39.01843833" lon="-0.382135">
        <ele>161.947</ele>
        <time>2020-02-08T10:14:09.359Z</time>
      </trkpt>
      <trkpt lat="39.01843667" lon="-0.38202667">
        <ele>161.947</ele>
        <time>2020-02-08T10:14:10.359Z</time>
      </trkpt>
      <trkpt lat="39.01843667" lon="-0.38202667">
        <ele>161.947</ele>
        <time>2020-02-08T10:14:11.359Z</time>
      </trkpt>
      <trkpt lat="39.01843333" lon="-0.38191667">
        <ele>161.947</ele>
        <time>2020-02-08T10:14:12.359Z</time>
      </trkpt>
      <trkpt lat="39.01843333" lon="-0.38191667">
        <ele>162.947</ele>
        <time>2020-02-08T10:14:13.359Z</time>
      </trkpt>
      <trkpt lat="39.01843167" lon="-0.381805">
        <ele>162.947</ele>
        <time>2020-02-08T10:14:14.359Z</time>
      </trkpt>
      <trkpt lat="39.01843167" lon="-0.381805">
        <ele>162.947</ele>
        <time>2020-02-08T10:14:15.359Z</time>
      </trkpt>
      <trkpt lat="39.01843167" lon="-0.381695">
        <ele>162.947</ele>
        <time>2020-02-08T10:14:16.359Z</time>
      </trkpt>
      <trkpt lat="39.01843167" lon="-0.381695">
        <ele>162.947</ele>
        <time>2020-02-08T10:14:17.359Z</time>
      </trkpt>
      <trkpt lat="39.018435" lon="-0.38158333">
        <ele>162.947</ele>
        <time>2020-02-08T10:14:18.359Z</time>
      </trkpt>
      <trkpt lat="39.018435" lon="-0.38158333">
        <ele>162.947</ele>
        <time>2020-02-08T10:14:19.359Z</time>
      </trkpt>
      <trkpt lat="39.01844833" lon="-0.38146667">
        <ele>163.947</ele>
        <time>2020-02-08T10:14:20.359Z</time>
      </trkpt>
      <trkpt lat="39.01844833" lon="-0.38146667">
        <ele>163.947</ele>
        <time>2020-02-08T10:14:21.359Z</time>
      </trkpt>
      <trkpt lat="39.018475" lon="-0.38135667">
        <ele>163.947</ele>
        <time>2020-02-08T10:14:22.359Z</time>
      </trkpt>
      <trkpt lat="39.018475" lon="-0.38135667">
        <ele>163.947</ele>
        <time>2020-02-08T10:14:23.359Z</time>
      </trkpt>
      <trkpt lat="39.01850667" lon="-0.38125167">
        <ele>163.947</ele>
        <time>2020-02-08T10:14:24.359Z</time>
      </trkpt>
      <trkpt lat="39.01850667" lon="-0.38125167">
        <ele>163.947</ele>
        <time>2020-02-08T10:14:25.359Z</time>
      </trkpt>
      <trkpt lat="39.01853167" lon="-0.38114833">
        <ele>164.947</ele>
        <time>2020-02-08T10:14:26.359Z</time>
      </trkpt>
      <trkpt lat="39.01853167" lon="-0.38114833">
        <ele>164.947</ele>
        <time>2020-02-08T10:14:27.359Z</time>
      </trkpt>
      <trkpt lat="39.01854667" lon="-0.38103833">
        <ele>164.947</ele>
        <time>2020-02-08T10:14:28.359Z</time>
      </trkpt>
      <trkpt lat="39.01854667" lon="-0.38103833">
        <ele>164.947</ele>
        <time>2020-02-08T10:14:29.359Z</time>
      </trkpt>
      <trkpt lat="39.01855" lon="-0.38092333">
        <ele>164.947</ele>
        <time>2020-02-08T10:14:30.359Z</time>
      </trkpt>
      <trkpt lat="39.01855" lon="-0.38092333">
        <ele>164.947</ele>
        <time>2020-02-08T10:14:31.359Z</time>
      </trkpt>
      <trkpt lat="39.018545" lon="-0.38080333">
        <ele>164.947</ele>
        <time>2020-02-08T10:14:32.359Z</time>
      </trkpt>
      <trkpt lat="39.018545" lon="-0.38080333">
        <ele>164.947</ele>
        <time>2020-02-08T10:14:33.359Z</time>
      </trkpt>
      <trkpt lat="39.01852833" lon="-0.38069667">
        <ele>164.947</ele>
        <time>2020-02-08T10:14:34.359Z</time>
      </trkpt>
      <trkpt lat="39.01852833" lon="-0.38069667">
        <ele>164.947</ele>
        <time>2020-02-08T10:14:35.359Z</time>
      </trkpt>
      <trkpt lat="39.01849667" lon="-0.38059667">
        <ele>164.947</ele>
        <time>2020-02-08T10:14:36.359Z</time>
      </trkpt>
      <trkpt lat="39.01849667" lon="-0.38059667">
        <ele>164.947</ele>
        <time>2020-02-08T10:14:37.359Z</time>
      </trkpt>
      <trkpt lat="39.01846833" lon="-0.38049667">
        <ele>164.947</ele>
        <time>2020-02-08T10:14:38.359Z</time>
      </trkpt>
      <trkpt lat="39.01846833" lon="-0.38049667">
        <ele>165.947</ele>
        <time>2020-02-08T10:14:39.359Z</time>
      </trkpt>
      <trkpt lat="39.01843833" lon="-0.38041">
        <ele>165.947</ele>
        <time>2020-02-08T10:14:40.359Z</time>
      </trkpt>
      <trkpt lat="39.01843833" lon="-0.38041">
        <ele>165.947</ele>
        <time>2020-02-08T10:14:41.359Z</time>
      </trkpt>
      <trkpt lat="39.01841333" lon="-0.380325">
        <ele>165.947</ele>
        <time>2020-02-08T10:14:42.359Z</time>
      </trkpt>
      <trkpt lat="39.01841333" lon="-0.380325">
        <ele>165.947</ele>
        <time>2020-02-08T10:14:43.359Z</time>
      </trkpt>
      <trkpt lat="39.01839" lon="-0.38024">
        <ele>165.947</ele>
        <time>2020-02-08T10:14:44.359Z</time>
      </trkpt>
      <trkpt lat="39.01837667" lon="-0.3802">
        <ele>165.947</ele>
        <time>2020-02-08T10:14:45.359Z</time>
      </trkpt>
      <trkpt lat="39.01837667" lon="-0.3802">
        <ele>165.947</ele>
        <time>2020-02-08T10:14:46.359Z</time>
      </trkpt>
      <trkpt lat="39.018335" lon="-0.38013">
        <ele>165.947</ele>
        <time>2020-02-08T10:14:47.359Z</time>
      </trkpt>
      <trkpt lat="39.01831333" lon="-0.38008">
        <ele>165.947</ele>
        <time>2020-02-08T10:14:48.359Z</time>
      </trkpt>
      <trkpt lat="39.01831333" lon="-0.38008">
        <ele>165.947</ele>
        <time>2020-02-08T10:14:49.359Z</time>
      </trkpt>
      <trkpt lat="39.01825833" lon="-0.379965">
        <ele>165.947</ele>
        <time>2020-02-08T10:14:50.359Z</time>
      </trkpt>
      <trkpt lat="39.01825833" lon="-0.379965">
        <ele>165.947</ele>
        <time>2020-02-08T10:14:51.359Z</time>
      </trkpt>
      <trkpt lat="39.01818833" lon="-0.37987167">
        <ele>165.947</ele>
        <time>2020-02-08T10:14:52.359Z</time>
      </trkpt>
      <trkpt lat="39.01818833" lon="-0.37987167">
        <ele>165.947</ele>
        <time>2020-02-08T10:14:53.359Z</time>
      </trkpt>
      <trkpt lat="39.01809833" lon="-0.379795">
        <ele>165.947</ele>
        <time>2020-02-08T10:14:54.359Z</time>
      </trkpt>
      <trkpt lat="39.018055" lon="-0.37976333">
        <ele>165.947</ele>
        <time>2020-02-08T10:14:55.359Z</time>
      </trkpt>
      <trkpt lat="39.01801667" lon="-0.37973167">
        <ele>165.947</ele>
        <time>2020-02-08T10:14:56.359Z</time>
      </trkpt>
      <trkpt lat="39.01797833" lon="-0.3797">
        <ele>165.947</ele>
        <time>2020-02-08T10:14:57.359Z</time>
      </trkpt>
      <trkpt lat="39.01797833" lon="-0.3797">
        <ele>165.947</ele>
        <time>2020-02-08T10:14:58.359Z</time>
      </trkpt>
      <trkpt lat="39.01791333" lon="-0.37963167">
        <ele>165.947</ele>
        <time>2020-02-08T10:14:59.359Z</time>
      </trkpt>
      <trkpt lat="39.01788667" lon="-0.37959333">
        <ele>165.947</ele>
        <time>2020-02-08T10:15:00.359Z</time>
      </trkpt>
      <trkpt lat="39.01788667" lon="-0.37959333">
        <ele>165.947</ele>
        <time>2020-02-08T10:15:01.359Z</time>
      </trkpt>
      <trkpt lat="39.01783667" lon="-0.379505">
        <ele>166.947</ele>
        <time>2020-02-08T10:15:02.359Z</time>
      </trkpt>
      <trkpt lat="39.01783667" lon="-0.379505">
        <ele>166.947</ele>
        <time>2020-02-08T10:15:03.359Z</time>
      </trkpt>
      <trkpt lat="39.017785" lon="-0.3794">
        <ele>166.947</ele>
        <time>2020-02-08T10:15:04.359Z</time>
      </trkpt>
      <trkpt lat="39.017785" lon="-0.3794">
        <ele>166.947</ele>
        <time>2020-02-08T10:15:05.359Z</time>
      </trkpt>
      <trkpt lat="39.017725" lon="-0.37928833">
        <ele>166.947</ele>
        <time>2020-02-08T10:15:06.359Z</time>
      </trkpt>
      <trkpt lat="39.017725" lon="-0.37928833">
        <ele>166.947</ele>
        <time>2020-02-08T10:15:07.359Z</time>
      </trkpt>
      <trkpt lat="39.01766333" lon="-0.37918">
        <ele>165.947</ele>
        <time>2020-02-08T10:15:08.359Z</time>
      </trkpt>
      <trkpt lat="39.01766333" lon="-0.37918">
        <ele>165.947</ele>
        <time>2020-02-08T10:15:09.359Z</time>
      </trkpt>
      <trkpt lat="39.01760333" lon="-0.37906667">
        <ele>165.947</ele>
        <time>2020-02-08T10:15:10.359Z</time>
      </trkpt>
      <trkpt lat="39.01760333" lon="-0.37906667">
        <ele>165.947</ele>
        <time>2020-02-08T10:15:11.359Z</time>
      </trkpt>
      <trkpt lat="39.01754167" lon="-0.37894">
        <ele>165.947</ele>
        <time>2020-02-08T10:15:12.359Z</time>
      </trkpt>
      <trkpt lat="39.01754167" lon="-0.37894">
        <ele>165.947</ele>
        <time>2020-02-08T10:15:13.359Z</time>
      </trkpt>
      <trkpt lat="39.01747167" lon="-0.37882">
        <ele>165.947</ele>
        <time>2020-02-08T10:15:14.359Z</time>
      </trkpt>
      <trkpt lat="39.01747167" lon="-0.37882">
        <ele>165.947</ele>
        <time>2020-02-08T10:15:15.359Z</time>
      </trkpt>
      <trkpt lat="39.01739" lon="-0.378725">
        <ele>165.947</ele>
        <time>2020-02-08T10:15:16.359Z</time>
      </trkpt>
      <trkpt lat="39.01739" lon="-0.378725">
        <ele>165.947</ele>
        <time>2020-02-08T10:15:17.359Z</time>
      </trkpt>
      <trkpt lat="39.017295" lon="-0.37864167">
        <ele>165.947</ele>
        <time>2020-02-08T10:15:18.359Z</time>
      </trkpt>
      <trkpt lat="39.017295" lon="-0.37864167">
        <ele>165.947</ele>
        <time>2020-02-08T10:15:19.359Z</time>
      </trkpt>
      <trkpt lat="39.01719333" lon="-0.37856833">
        <ele>165.947</ele>
        <time>2020-02-08T10:15:20.359Z</time>
      </trkpt>
      <trkpt lat="39.01719333" lon="-0.37856833">
        <ele>165.947</ele>
        <time>2020-02-08T10:15:21.359Z</time>
      </trkpt>
      <trkpt lat="39.01709833" lon="-0.37848833">
        <ele>164.947</ele>
        <time>2020-02-08T10:15:22.359Z</time>
      </trkpt>
      <trkpt lat="39.01705167" lon="-0.37845167">
        <ele>164.947</ele>
        <time>2020-02-08T10:15:23.359Z</time>
      </trkpt>
      <trkpt lat="39.017" lon="-0.378415">
        <ele>163.947</ele>
        <time>2020-02-08T10:15:24.359Z</time>
      </trkpt>
      <trkpt lat="39.017" lon="-0.378415">
        <ele>163.947</ele>
        <time>2020-02-08T10:15:25.359Z</time>
      </trkpt>
      <trkpt lat="39.01689167" lon="-0.37834833">
        <ele>163.947</ele>
        <time>2020-02-08T10:15:26.359Z</time>
      </trkpt>
      <trkpt lat="39.01689167" lon="-0.37834833">
        <ele>163.947</ele>
        <time>2020-02-08T10:15:27.359Z</time>
      </trkpt>
      <trkpt lat="39.01677833" lon="-0.37832167">
        <ele>163.947</ele>
        <time>2020-02-08T10:15:28.359Z</time>
      </trkpt>
      <trkpt lat="39.01677833" lon="-0.37832167">
        <ele>163.947</ele>
        <time>2020-02-08T10:15:29.359Z</time>
      </trkpt>
      <trkpt lat="39.01665667" lon="-0.37832333">
        <ele>163.947</ele>
        <time>2020-02-08T10:15:30.359Z</time>
      </trkpt>
      <trkpt lat="39.01665667" lon="-0.37832333">
        <ele>163.947</ele>
        <time>2020-02-08T10:15:31.359Z</time>
      </trkpt>
      <trkpt lat="39.01654" lon="-0.37830833">
        <ele>163.947</ele>
        <time>2020-02-08T10:15:32.359Z</time>
      </trkpt>
      <trkpt lat="39.016485" lon="-0.37828667">
        <ele>163.947</ele>
        <time>2020-02-08T10:15:33.359Z</time>
      </trkpt>
      <trkpt lat="39.016485" lon="-0.37828667">
        <ele>163.947</ele>
        <time>2020-02-08T10:15:34.359Z</time>
      </trkpt>
      <trkpt lat="39.01639333" lon="-0.37821333">
        <ele>163.947</ele>
        <time>2020-02-08T10:15:35.359Z</time>
      </trkpt>
      <trkpt lat="39.01635167" lon="-0.378155">
        <ele>162.947</ele>
        <time>2020-02-08T10:15:36.359Z</time>
      </trkpt>
      <trkpt lat="39.01635167" lon="-0.378155">
        <ele>162.947</ele>
        <time>2020-02-08T10:15:37.359Z</time>
      </trkpt>
      <trkpt lat="39.01630167" lon="-0.378025">
        <ele>162.947</ele>
        <time>2020-02-08T10:15:38.359Z</time>
      </trkpt>
      <trkpt lat="39.01630167" lon="-0.378025">
        <ele>162.947</ele>
        <time>2020-02-08T10:15:39.359Z</time>
      </trkpt>
      <trkpt lat="39.01627667" lon="-0.37788833">
        <ele>162.947</ele>
        <time>2020-02-08T10:15:40.359Z</time>
      </trkpt>
      <trkpt lat="39.01627333" lon="-0.37781833">
        <ele>162.947</ele>
        <time>2020-02-08T10:15:41.359Z</time>
      </trkpt>
      <trkpt lat="39.016265" lon="-0.37775667">
        <ele>162.947</ele>
        <time>2020-02-08T10:15:42.359Z</time>
      </trkpt>
      <trkpt lat="39.016265" lon="-0.37775667">
        <ele>162.947</ele>
        <time>2020-02-08T10:15:43.359Z</time>
      </trkpt>
      <trkpt lat="39.01624" lon="-0.37763167">
        <ele>162.947</ele>
        <time>2020-02-08T10:15:44.359Z</time>
      </trkpt>
      <trkpt lat="39.01624" lon="-0.37763167">
        <ele>162.947</ele>
        <time>2020-02-08T10:15:45.359Z</time>
      </trkpt>
      <trkpt lat="39.0162" lon="-0.3775">
        <ele>162.947</ele>
        <time>2020-02-08T10:15:46.359Z</time>
      </trkpt>
      <trkpt lat="39.0162" lon="-0.3775">
        <ele>162.947</ele>
        <time>2020-02-08T10:15:47.359Z</time>
      </trkpt>
      <trkpt lat="39.01615333" lon="-0.37738167">
        <ele>163.947</ele>
        <time>2020-02-08T10:15:48.359Z</time>
      </trkpt>
      <trkpt lat="39.01615333" lon="-0.37738167">
        <ele>163.947</ele>
        <time>2020-02-08T10:15:49.359Z</time>
      </trkpt>
      <trkpt lat="39.01610833" lon="-0.37727167">
        <ele>163.947</ele>
        <time>2020-02-08T10:15:50.359Z</time>
      </trkpt>
      <trkpt lat="39.01610833" lon="-0.37727167">
        <ele>163.947</ele>
        <time>2020-02-08T10:15:51.359Z</time>
      </trkpt>
      <trkpt lat="39.01607333" lon="-0.377155">
        <ele>164.947</ele>
        <time>2020-02-08T10:15:52.359Z</time>
      </trkpt>
      <trkpt lat="39.01607333" lon="-0.377155">
        <ele>164.947</ele>
        <time>2020-02-08T10:15:53.359Z</time>
      </trkpt>
      <trkpt lat="39.01603333" lon="-0.377025">
        <ele>164.947</ele>
        <time>2020-02-08T10:15:54.359Z</time>
      </trkpt>
      <trkpt lat="39.01603333" lon="-0.377025">
        <ele>164.947</ele>
        <time>2020-02-08T10:15:55.359Z</time>
      </trkpt>
      <trkpt lat="39.015995" lon="-0.376875">
        <ele>164.947</ele>
        <time>2020-02-08T10:15:56.359Z</time>
      </trkpt>
      <trkpt lat="39.015995" lon="-0.376875">
        <ele>164.947</ele>
        <time>2020-02-08T10:15:57.359Z</time>
      </trkpt>
      <trkpt lat="39.01595333" lon="-0.37674667">
        <ele>164.947</ele>
        <time>2020-02-08T10:15:58.359Z</time>
      </trkpt>
      <trkpt lat="39.01595333" lon="-0.37674667">
        <ele>164.947</ele>
        <time>2020-02-08T10:15:59.359Z</time>
      </trkpt>
      <trkpt lat="39.01590833" lon="-0.37662">
        <ele>165.947</ele>
        <time>2020-02-08T10:16:00.359Z</time>
      </trkpt>
      <trkpt lat="39.01590833" lon="-0.37662">
        <ele>165.947</ele>
        <time>2020-02-08T10:16:01.359Z</time>
      </trkpt>
      <trkpt lat="39.01585833" lon="-0.37649167">
        <ele>165.947</ele>
        <time>2020-02-08T10:16:02.359Z</time>
      </trkpt>
      <trkpt lat="39.01585833" lon="-0.37649167">
        <ele>165.947</ele>
        <time>2020-02-08T10:16:03.359Z</time>
      </trkpt>
      <trkpt lat="39.01580167" lon="-0.376355">
        <ele>165.947</ele>
        <time>2020-02-08T10:16:04.359Z</time>
      </trkpt>
      <trkpt lat="39.01577333" lon="-0.37628667">
        <ele>165.947</ele>
        <time>2020-02-08T10:16:05.359Z</time>
      </trkpt>
      <trkpt lat="39.015745" lon="-0.37621833">
        <ele>165.947</ele>
        <time>2020-02-08T10:16:06.359Z</time>
      </trkpt>
      <trkpt lat="39.015745" lon="-0.37621833">
        <ele>165.947</ele>
        <time>2020-02-08T10:16:07.359Z</time>
      </trkpt>
      <trkpt lat="39.01568333" lon="-0.37608">
        <ele>165.947</ele>
        <time>2020-02-08T10:16:08.359Z</time>
      </trkpt>
      <trkpt lat="39.01565667" lon="-0.37601">
        <ele>165.947</ele>
        <time>2020-02-08T10:16:09.359Z</time>
      </trkpt>
      <trkpt lat="39.01565667" lon="-0.37601">
        <ele>165.947</ele>
        <time>2020-02-08T10:16:10.359Z</time>
      </trkpt>
      <trkpt lat="39.01561" lon="-0.37586833">
        <ele>165.947</ele>
        <time>2020-02-08T10:16:11.359Z</time>
      </trkpt>
      <trkpt lat="39.01558833" lon="-0.37579667">
        <ele>165.947</ele>
        <time>2020-02-08T10:16:12.359Z</time>
      </trkpt>
      <trkpt lat="39.01558833" lon="-0.37579667">
        <ele>165.947</ele>
        <time>2020-02-08T10:16:13.359Z</time>
      </trkpt>
      <trkpt lat="39.01553833" lon="-0.37565">
        <ele>165.947</ele>
        <time>2020-02-08T10:16:14.359Z</time>
      </trkpt>
      <trkpt lat="39.01553833" lon="-0.37565">
        <ele>165.947</ele>
        <time>2020-02-08T10:16:15.359Z</time>
      </trkpt>
      <trkpt lat="39.01549333" lon="-0.375515">
        <ele>165.947</ele>
        <time>2020-02-08T10:16:16.359Z</time>
      </trkpt>
      <trkpt lat="39.01549333" lon="-0.375515">
        <ele>165.947</ele>
        <time>2020-02-08T10:16:17.359Z</time>
      </trkpt>
      <trkpt lat="39.01544" lon="-0.37538833">
        <ele>165.947</ele>
        <time>2020-02-08T10:16:18.359Z</time>
      </trkpt>
      <trkpt lat="39.01544" lon="-0.37538833">
        <ele>165.947</ele>
        <time>2020-02-08T10:16:19.359Z</time>
      </trkpt>
      <trkpt lat="39.01539167" lon="-0.375255">
        <ele>165.947</ele>
        <time>2020-02-08T10:16:20.359Z</time>
      </trkpt>
      <trkpt lat="39.01539167" lon="-0.375255">
        <ele>165.947</ele>
        <time>2020-02-08T10:16:21.359Z</time>
      </trkpt>
      <trkpt lat="39.01534833" lon="-0.37512333">
        <ele>165.947</ele>
        <time>2020-02-08T10:16:22.359Z</time>
      </trkpt>
      <trkpt lat="39.01534833" lon="-0.37512333">
        <ele>166.947</ele>
        <time>2020-02-08T10:16:23.359Z</time>
      </trkpt>
      <trkpt lat="39.01530667" lon="-0.375005">
        <ele>166.947</ele>
        <time>2020-02-08T10:16:24.359Z</time>
      </trkpt>
      <trkpt lat="39.01530667" lon="-0.375005">
        <ele>166.947</ele>
        <time>2020-02-08T10:16:25.359Z</time>
      </trkpt>
      <trkpt lat="39.01526" lon="-0.37488167">
        <ele>166.947</ele>
        <time>2020-02-08T10:16:26.359Z</time>
      </trkpt>
      <trkpt lat="39.01526" lon="-0.37488167">
        <ele>166.947</ele>
        <time>2020-02-08T10:16:27.359Z</time>
      </trkpt>
      <trkpt lat="39.01522333" lon="-0.37476167">
        <ele>167.947</ele>
        <time>2020-02-08T10:16:28.359Z</time>
      </trkpt>
      <trkpt lat="39.01522333" lon="-0.37476167">
        <ele>167.947</ele>
        <time>2020-02-08T10:16:29.359Z</time>
      </trkpt>
      <trkpt lat="39.015185" lon="-0.37463833">
        <ele>167.947</ele>
        <time>2020-02-08T10:16:30.359Z</time>
      </trkpt>
      <trkpt lat="39.01517" lon="-0.374575">
        <ele>167.947</ele>
        <time>2020-02-08T10:16:31.359Z</time>
      </trkpt>
      <trkpt lat="39.01515833" lon="-0.37451167">
        <ele>167.947</ele>
        <time>2020-02-08T10:16:32.359Z</time>
      </trkpt>
      <trkpt lat="39.01515833" lon="-0.37451167">
        <ele>167.947</ele>
        <time>2020-02-08T10:16:33.359Z</time>
      </trkpt>
      <trkpt lat="39.01513833" lon="-0.37439">
        <ele>167.947</ele>
        <time>2020-02-08T10:16:34.359Z</time>
      </trkpt>
      <trkpt lat="39.01513833" lon="-0.37439">
        <ele>167.947</ele>
        <time>2020-02-08T10:16:35.359Z</time>
      </trkpt>
      <trkpt lat="39.01510667" lon="-0.37427167">
        <ele>167.947</ele>
        <time>2020-02-08T10:16:36.359Z</time>
      </trkpt>
      <trkpt lat="39.01510667" lon="-0.37427167">
        <ele>167.947</ele>
        <time>2020-02-08T10:16:37.359Z</time>
      </trkpt>
      <trkpt lat="39.015075" lon="-0.37415833">
        <ele>169.947</ele>
        <time>2020-02-08T10:16:38.359Z</time>
      </trkpt>
      <trkpt lat="39.015075" lon="-0.37415833">
        <ele>169.947</ele>
        <time>2020-02-08T10:16:39.359Z</time>
      </trkpt>
      <trkpt lat="39.01504167" lon="-0.37404333">
        <ele>169.947</ele>
        <time>2020-02-08T10:16:40.359Z</time>
      </trkpt>
      <trkpt lat="39.01504167" lon="-0.37404333">
        <ele>169.947</ele>
        <time>2020-02-08T10:16:41.359Z</time>
      </trkpt>
      <trkpt lat="39.015005" lon="-0.37392333">
        <ele>169.947</ele>
        <time>2020-02-08T10:16:42.359Z</time>
      </trkpt>
      <trkpt lat="39.015005" lon="-0.37392333">
        <ele>169.947</ele>
        <time>2020-02-08T10:16:43.359Z</time>
      </trkpt>
      <trkpt lat="39.01496833" lon="-0.37380833">
        <ele>169.947</ele>
        <time>2020-02-08T10:16:44.359Z</time>
      </trkpt>
      <trkpt lat="39.01496833" lon="-0.37380833">
        <ele>169.947</ele>
        <time>2020-02-08T10:16:45.359Z</time>
      </trkpt>
      <trkpt lat="39.014945" lon="-0.37370333">
        <ele>169.947</ele>
        <time>2020-02-08T10:16:46.359Z</time>
      </trkpt>
      <trkpt lat="39.014945" lon="-0.37370333">
        <ele>170.947</ele>
        <time>2020-02-08T10:16:47.359Z</time>
      </trkpt>
      <trkpt lat="39.01491333" lon="-0.37361">
        <ele>170.947</ele>
        <time>2020-02-08T10:16:48.359Z</time>
      </trkpt>
      <trkpt lat="39.01491333" lon="-0.37361">
        <ele>170.947</ele>
        <time>2020-02-08T10:16:49.359Z</time>
      </trkpt>
      <trkpt lat="39.01487833" lon="-0.37350833">
        <ele>170.947</ele>
        <time>2020-02-08T10:16:50.359Z</time>
      </trkpt>
      <trkpt lat="39.01487833" lon="-0.37350833">
        <ele>170.947</ele>
        <time>2020-02-08T10:16:51.359Z</time>
      </trkpt>
      <trkpt lat="39.01482833" lon="-0.37341833">
        <ele>170.947</ele>
        <time>2020-02-08T10:16:52.359Z</time>
      </trkpt>
      <trkpt lat="39.01482833" lon="-0.37341833">
        <ele>170.947</ele>
        <time>2020-02-08T10:16:53.359Z</time>
      </trkpt>
      <trkpt lat="39.014765" lon="-0.37333333">
        <ele>170.947</ele>
        <time>2020-02-08T10:16:54.359Z</time>
      </trkpt>
      <trkpt lat="39.014765" lon="-0.37333333">
        <ele>171.947</ele>
        <time>2020-02-08T10:16:55.359Z</time>
      </trkpt>
      <trkpt lat="39.01470833" lon="-0.37323833">
        <ele>171.947</ele>
        <time>2020-02-08T10:16:56.359Z</time>
      </trkpt>
      <trkpt lat="39.01470833" lon="-0.37323833">
        <ele>171.947</ele>
        <time>2020-02-08T10:16:57.359Z</time>
      </trkpt>
      <trkpt lat="39.01467667" lon="-0.37313333">
        <ele>171.947</ele>
        <time>2020-02-08T10:16:58.359Z</time>
      </trkpt>
      <trkpt lat="39.01467667" lon="-0.37313333">
        <ele>171.947</ele>
        <time>2020-02-08T10:16:59.359Z</time>
      </trkpt>
      <trkpt lat="39.01464833" lon="-0.37301">
        <ele>171.947</ele>
        <time>2020-02-08T10:17:00.359Z</time>
      </trkpt>
      <trkpt lat="39.01464833" lon="-0.37301">
        <ele>171.947</ele>
        <time>2020-02-08T10:17:01.359Z</time>
      </trkpt>
      <trkpt lat="39.01460333" lon="-0.372865">
        <ele>171.947</ele>
        <time>2020-02-08T10:17:02.359Z</time>
      </trkpt>
      <trkpt lat="39.01460333" lon="-0.372865">
        <ele>170.947</ele>
        <time>2020-02-08T10:17:03.359Z</time>
      </trkpt>
      <trkpt lat="39.014535" lon="-0.372705">
        <ele>170.947</ele>
        <time>2020-02-08T10:17:04.359Z</time>
      </trkpt>
      <trkpt lat="39.01449" lon="-0.37262333">
        <ele>169.947</ele>
        <time>2020-02-08T10:17:05.359Z</time>
      </trkpt>
      <trkpt lat="39.01443667" lon="-0.37254">
        <ele>169.947</ele>
        <time>2020-02-08T10:17:06.359Z</time>
      </trkpt>
      <trkpt lat="39.01443667" lon="-0.37254">
        <ele>168.947</ele>
        <time>2020-02-08T10:17:07.359Z</time>
      </trkpt>
      <trkpt lat="39.01432833" lon="-0.37236333">
        <ele>166.947</ele>
        <time>2020-02-08T10:17:08.359Z</time>
      </trkpt>
      <trkpt lat="39.01432833" lon="-0.37236333">
        <ele>166.947</ele>
        <time>2020-02-08T10:17:09.359Z</time>
      </trkpt>
      <trkpt lat="39.01423667" lon="-0.37219667">
        <ele>165.947</ele>
        <time>2020-02-08T10:17:10.359Z</time>
      </trkpt>
      <trkpt lat="39.01423667" lon="-0.37219667">
        <ele>165.947</ele>
        <time>2020-02-08T10:17:11.359Z</time>
      </trkpt>
      <trkpt lat="39.01416" lon="-0.37204833">
        <ele>165.947</ele>
        <time>2020-02-08T10:17:12.359Z</time>
      </trkpt>
      <trkpt lat="39.01416" lon="-0.37204833">
        <ele>165.947</ele>
        <time>2020-02-08T10:17:13.359Z</time>
      </trkpt>
      <trkpt lat="39.01412167" lon="-0.371895">
        <ele>165.947</ele>
        <time>2020-02-08T10:17:14.359Z</time>
      </trkpt>
      <trkpt lat="39.01412167" lon="-0.371895">
        <ele>165.947</ele>
        <time>2020-02-08T10:17:15.359Z</time>
      </trkpt>
      <trkpt lat="39.01410333" lon="-0.37178833">
        <ele>165.947</ele>
        <time>2020-02-08T10:17:16.359Z</time>
      </trkpt>
      <trkpt lat="39.01411" lon="-0.37175167">
        <ele>165.947</ele>
        <time>2020-02-08T10:17:17.359Z</time>
      </trkpt>
      <trkpt lat="39.01411" lon="-0.37175167">
        <ele>165.947</ele>
        <time>2020-02-08T10:17:18.359Z</time>
      </trkpt>
      <trkpt lat="39.01413667" lon="-0.371695">
        <ele>165.947</ele>
        <time>2020-02-08T10:17:19.359Z</time>
      </trkpt>
      <trkpt lat="39.014165" lon="-0.37167">
        <ele>165.947</ele>
        <time>2020-02-08T10:17:20.359Z</time>
      </trkpt>
      <trkpt lat="39.014165" lon="-0.37167">
        <ele>165.947</ele>
        <time>2020-02-08T10:17:21.359Z</time>
      </trkpt>
      <trkpt lat="39.01422" lon="-0.37161167">
        <ele>165.947</ele>
        <time>2020-02-08T10:17:22.359Z</time>
      </trkpt>
      <trkpt lat="39.01422" lon="-0.37161167">
        <ele>165.947</ele>
        <time>2020-02-08T10:17:23.359Z</time>
      </trkpt>
      <trkpt lat="39.01428333" lon="-0.37155">
        <ele>165.947</ele>
        <time>2020-02-08T10:17:24.359Z</time>
      </trkpt>
      <trkpt lat="39.01428333" lon="-0.37155">
        <ele>165.947</ele>
        <time>2020-02-08T10:17:25.359Z</time>
      </trkpt>
      <trkpt lat="39.01433333" lon="-0.371495">
        <ele>166.947</ele>
        <time>2020-02-08T10:17:26.359Z</time>
      </trkpt>
      <trkpt lat="39.01433333" lon="-0.371495">
        <ele>166.947</ele>
        <time>2020-02-08T10:17:27.359Z</time>
      </trkpt>
      <trkpt lat="39.01438167" lon="-0.37144167">
        <ele>166.947</ele>
        <time>2020-02-08T10:17:28.359Z</time>
      </trkpt>
      <trkpt lat="39.01438167" lon="-0.37144167">
        <ele>166.947</ele>
        <time>2020-02-08T10:17:29.359Z</time>
      </trkpt>
      <trkpt lat="39.01444333" lon="-0.37136833">
        <ele>166.947</ele>
        <time>2020-02-08T10:17:30.359Z</time>
      </trkpt>
      <trkpt lat="39.01446833" lon="-0.371325">
        <ele>167.947</ele>
        <time>2020-02-08T10:17:31.359Z</time>
      </trkpt>
      <trkpt lat="39.01446833" lon="-0.371325">
        <ele>167.947</ele>
        <time>2020-02-08T10:17:32.359Z</time>
      </trkpt>
      <trkpt lat="39.01449833" lon="-0.37123833">
        <ele>168.947</ele>
        <time>2020-02-08T10:17:33.359Z</time>
      </trkpt>
      <trkpt lat="39.01449833" lon="-0.37123833">
        <ele>168.947</ele>
        <time>2020-02-08T10:17:34.359Z</time>
      </trkpt>
      <trkpt lat="39.01450667" lon="-0.37114667">
        <ele>168.947</ele>
        <time>2020-02-08T10:17:35.359Z</time>
      </trkpt>
      <trkpt lat="39.01450667" lon="-0.37114667">
        <ele>168.947</ele>
        <time>2020-02-08T10:17:36.359Z</time>
      </trkpt>
      <trkpt lat="39.014505" lon="-0.37105833">
        <ele>168.947</ele>
        <time>2020-02-08T10:17:37.359Z</time>
      </trkpt>
      <trkpt lat="39.01449833" lon="-0.37101667">
        <ele>169.947</ele>
        <time>2020-02-08T10:17:38.359Z</time>
      </trkpt>
      <trkpt lat="39.01449833" lon="-0.37101667">
        <ele>169.947</ele>
        <time>2020-02-08T10:17:39.359Z</time>
      </trkpt>
      <trkpt lat="39.01448333" lon="-0.37092167">
        <ele>169.947</ele>
        <time>2020-02-08T10:17:40.359Z</time>
      </trkpt>
      <trkpt lat="39.01448333" lon="-0.37092167">
        <ele>169.947</ele>
        <time>2020-02-08T10:17:41.359Z</time>
      </trkpt>
      <trkpt lat="39.01447167" lon="-0.37082">
        <ele>169.947</ele>
        <time>2020-02-08T10:17:42.359Z</time>
      </trkpt>
      <trkpt lat="39.01447167" lon="-0.37082">
        <ele>169.947</ele>
        <time>2020-02-08T10:17:43.359Z</time>
      </trkpt>
      <trkpt lat="39.014465" lon="-0.37072">
        <ele>170.947</ele>
        <time>2020-02-08T10:17:44.359Z</time>
      </trkpt>
      <trkpt lat="39.014465" lon="-0.37072">
        <ele>170.947</ele>
        <time>2020-02-08T10:17:45.359Z</time>
      </trkpt>
      <trkpt lat="39.014455" lon="-0.37062">
        <ele>170.947</ele>
        <time>2020-02-08T10:17:46.359Z</time>
      </trkpt>
      <trkpt lat="39.01445" lon="-0.37056833">
        <ele>170.947</ele>
        <time>2020-02-08T10:17:47.359Z</time>
      </trkpt>
      <trkpt lat="39.014445" lon="-0.37051833">
        <ele>170.947</ele>
        <time>2020-02-08T10:17:48.359Z</time>
      </trkpt>
      <trkpt lat="39.014445" lon="-0.37051833">
        <ele>170.947</ele>
        <time>2020-02-08T10:17:49.359Z</time>
      </trkpt>
      <trkpt lat="39.01443667" lon="-0.37041333">
        <ele>170.947</ele>
        <time>2020-02-08T10:17:50.359Z</time>
      </trkpt>
      <trkpt lat="39.014435" lon="-0.37036333">
        <ele>170.947</ele>
        <time>2020-02-08T10:17:51.359Z</time>
      </trkpt>
      <trkpt lat="39.014435" lon="-0.37036333">
        <ele>170.947</ele>
        <time>2020-02-08T10:17:52.359Z</time>
      </trkpt>
      <trkpt lat="39.01442" lon="-0.37026">
        <ele>170.947</ele>
        <time>2020-02-08T10:17:53.359Z</time>
      </trkpt>
      <trkpt lat="39.01441167" lon="-0.37020833">
        <ele>170.947</ele>
        <time>2020-02-08T10:17:54.359Z</time>
      </trkpt>
      <trkpt lat="39.01441167" lon="-0.37020833">
        <ele>170.947</ele>
        <time>2020-02-08T10:17:55.359Z</time>
      </trkpt>
      <trkpt lat="39.0144" lon="-0.37010333">
        <ele>170.947</ele>
        <time>2020-02-08T10:17:56.359Z</time>
      </trkpt>
      <trkpt lat="39.01439833" lon="-0.37004667">
        <ele>170.947</ele>
        <time>2020-02-08T10:17:57.359Z</time>
      </trkpt>
      <trkpt lat="39.01439833" lon="-0.37004667">
        <ele>170.947</ele>
        <time>2020-02-08T10:17:58.359Z</time>
      </trkpt>
      <trkpt lat="39.01438667" lon="-0.36992833">
        <ele>170.947</ele>
        <time>2020-02-08T10:17:59.359Z</time>
      </trkpt>
      <trkpt lat="39.01438" lon="-0.36987">
        <ele>170.947</ele>
        <time>2020-02-08T10:18:00.359Z</time>
      </trkpt>
      <trkpt lat="39.01438" lon="-0.36987">
        <ele>170.947</ele>
        <time>2020-02-08T10:18:01.359Z</time>
      </trkpt>
      <trkpt lat="39.01436667" lon="-0.36974333">
        <ele>170.947</ele>
        <time>2020-02-08T10:18:02.359Z</time>
      </trkpt>
      <trkpt lat="39.01435833" lon="-0.369675">
        <ele>170.947</ele>
        <time>2020-02-08T10:18:03.359Z</time>
      </trkpt>
      <trkpt lat="39.01435833" lon="-0.369675">
        <ele>170.947</ele>
        <time>2020-02-08T10:18:04.359Z</time>
      </trkpt>
      <trkpt lat="39.01434167" lon="-0.36954167">
        <ele>170.947</ele>
        <time>2020-02-08T10:18:05.359Z</time>
      </trkpt>
      <trkpt lat="39.01433" lon="-0.36948">
        <ele>170.947</ele>
        <time>2020-02-08T10:18:06.359Z</time>
      </trkpt>
      <trkpt lat="39.01433" lon="-0.36948">
        <ele>170.947</ele>
        <time>2020-02-08T10:18:07.359Z</time>
      </trkpt>
      <trkpt lat="39.01430833" lon="-0.369365">
        <ele>170.947</ele>
        <time>2020-02-08T10:18:08.359Z</time>
      </trkpt>
      <trkpt lat="39.01430833" lon="-0.369365">
        <ele>170.947</ele>
        <time>2020-02-08T10:18:09.359Z</time>
      </trkpt>
      <trkpt lat="39.01428833" lon="-0.36924667">
        <ele>170.947</ele>
        <time>2020-02-08T10:18:10.359Z</time>
      </trkpt>
      <trkpt lat="39.01428833" lon="-0.36924667">
        <ele>170.947</ele>
        <time>2020-02-08T10:18:11.359Z</time>
      </trkpt>
      <trkpt lat="39.01427167" lon="-0.369125">
        <ele>170.947</ele>
        <time>2020-02-08T10:18:12.359Z</time>
      </trkpt>
      <trkpt lat="39.01427167" lon="-0.36906">
        <ele>170.947</ele>
        <time>2020-02-08T10:18:13.359Z</time>
      </trkpt>
      <trkpt lat="39.01427833" lon="-0.369">
        <ele>170.947</ele>
        <time>2020-02-08T10:18:14.359Z</time>
      </trkpt>
      <trkpt lat="39.01427833" lon="-0.369">
        <ele>170.947</ele>
        <time>2020-02-08T10:18:15.359Z</time>
      </trkpt>
      <trkpt lat="39.01430833" lon="-0.3689">
        <ele>170.947</ele>
        <time>2020-02-08T10:18:16.359Z</time>
      </trkpt>
      <trkpt lat="39.01430833" lon="-0.3689">
        <ele>170.947</ele>
        <time>2020-02-08T10:18:17.359Z</time>
      </trkpt>
      <trkpt lat="39.01435833" lon="-0.36883167">
        <ele>170.947</ele>
        <time>2020-02-08T10:18:18.359Z</time>
      </trkpt>
      <trkpt lat="39.01435833" lon="-0.36883167">
        <ele>170.947</ele>
        <time>2020-02-08T10:18:19.359Z</time>
      </trkpt>
      <trkpt lat="39.01440667" lon="-0.368765">
        <ele>170.947</ele>
        <time>2020-02-08T10:18:20.359Z</time>
      </trkpt>
      <trkpt lat="39.01440667" lon="-0.368765">
        <ele>170.947</ele>
        <time>2020-02-08T10:18:21.359Z</time>
      </trkpt>
      <trkpt lat="39.01445333" lon="-0.36865833">
        <ele>170.947</ele>
        <time>2020-02-08T10:18:22.359Z</time>
      </trkpt>
      <trkpt lat="39.01445" lon="-0.36861167">
        <ele>170.947</ele>
        <time>2020-02-08T10:18:23.359Z</time>
      </trkpt>
      <trkpt lat="39.01443333" lon="-0.36856667">
        <ele>170.947</ele>
        <time>2020-02-08T10:18:24.359Z</time>
      </trkpt>
      <trkpt lat="39.01443333" lon="-0.36856667">
        <ele>170.947</ele>
        <time>2020-02-08T10:18:25.359Z</time>
      </trkpt>
      <trkpt lat="39.01439833" lon="-0.36848833">
        <ele>170.947</ele>
        <time>2020-02-08T10:18:26.359Z</time>
      </trkpt>
      <trkpt lat="39.01439833" lon="-0.36848833">
        <ele>171.947</ele>
        <time>2020-02-08T10:18:27.359Z</time>
      </trkpt>
      <trkpt lat="39.014365" lon="-0.36841833">
        <ele>171.947</ele>
        <time>2020-02-08T10:18:28.359Z</time>
      </trkpt>
      <trkpt lat="39.014365" lon="-0.36841833">
        <ele>173.947</ele>
        <time>2020-02-08T10:18:29.359Z</time>
      </trkpt>
      <trkpt lat="39.01432833" lon="-0.368345">
        <ele>173.947</ele>
        <time>2020-02-08T10:18:30.359Z</time>
      </trkpt>
      <trkpt lat="39.01432833" lon="-0.368345">
        <ele>173.947</ele>
        <time>2020-02-08T10:18:31.359Z</time>
      </trkpt>
      <trkpt lat="39.01429833" lon="-0.36826833">
        <ele>173.947</ele>
        <time>2020-02-08T10:18:32.359Z</time>
      </trkpt>
      <trkpt lat="39.01429833" lon="-0.36826833">
        <ele>174.947</ele>
        <time>2020-02-08T10:18:33.359Z</time>
      </trkpt>
      <trkpt lat="39.01427" lon="-0.368195">
        <ele>174.947</ele>
        <time>2020-02-08T10:18:34.359Z</time>
      </trkpt>
      <trkpt lat="39.01427" lon="-0.368195">
        <ele>175.947</ele>
        <time>2020-02-08T10:18:35.359Z</time>
      </trkpt>
      <trkpt lat="39.01425833" lon="-0.36812667">
        <ele>175.947</ele>
        <time>2020-02-08T10:18:36.359Z</time>
      </trkpt>
      <trkpt lat="39.01425833" lon="-0.36812667">
        <ele>175.947</ele>
        <time>2020-02-08T10:18:37.359Z</time>
      </trkpt>
      <trkpt lat="39.01425667" lon="-0.36804667">
        <ele>176.947</ele>
        <time>2020-02-08T10:18:38.359Z</time>
      </trkpt>
      <trkpt lat="39.01425667" lon="-0.36804667">
        <ele>176.947</ele>
        <time>2020-02-08T10:18:39.359Z</time>
      </trkpt>
      <trkpt lat="39.01425" lon="-0.36797833">
        <ele>176.947</ele>
        <time>2020-02-08T10:18:40.359Z</time>
      </trkpt>
      <trkpt lat="39.01425" lon="-0.36797833">
        <ele>176.947</ele>
        <time>2020-02-08T10:18:41.359Z</time>
      </trkpt>
      <trkpt lat="39.01424" lon="-0.36791833">
        <ele>177.947</ele>
        <time>2020-02-08T10:18:42.359Z</time>
      </trkpt>
      <trkpt lat="39.01424" lon="-0.36791833">
        <ele>177.947</ele>
        <time>2020-02-08T10:18:43.359Z</time>
      </trkpt>
      <trkpt lat="39.01423667" lon="-0.36782167">
        <ele>177.947</ele>
        <time>2020-02-08T10:18:44.359Z</time>
      </trkpt>
      <trkpt lat="39.01423667" lon="-0.36782167">
        <ele>177.947</ele>
        <time>2020-02-08T10:18:45.359Z</time>
      </trkpt>
      <trkpt lat="39.01425" lon="-0.36772333">
        <ele>178.947</ele>
        <time>2020-02-08T10:18:46.359Z</time>
      </trkpt>
      <trkpt lat="39.01425167" lon="-0.36768167">
        <ele>178.947</ele>
        <time>2020-02-08T10:18:47.359Z</time>
      </trkpt>
      <trkpt lat="39.01425167" lon="-0.36768167">
        <ele>178.947</ele>
        <time>2020-02-08T10:18:48.359Z</time>
      </trkpt>
      <trkpt lat="39.01426333" lon="-0.36758667">
        <ele>178.947</ele>
        <time>2020-02-08T10:18:49.359Z</time>
      </trkpt>
      <trkpt lat="39.01427333" lon="-0.36753">
        <ele>178.947</ele>
        <time>2020-02-08T10:18:50.359Z</time>
      </trkpt>
      <trkpt lat="39.01427333" lon="-0.36753">
        <ele>178.947</ele>
        <time>2020-02-08T10:18:51.359Z</time>
      </trkpt>
      <trkpt lat="39.014295" lon="-0.36742167">
        <ele>179.947</ele>
        <time>2020-02-08T10:18:52.359Z</time>
      </trkpt>
      <trkpt lat="39.014295" lon="-0.36742167">
        <ele>179.947</ele>
        <time>2020-02-08T10:18:53.359Z</time>
      </trkpt>
      <trkpt lat="39.014325" lon="-0.3673">
        <ele>179.947</ele>
        <time>2020-02-08T10:18:54.359Z</time>
      </trkpt>
      <trkpt lat="39.014325" lon="-0.3673">
        <ele>179.947</ele>
        <time>2020-02-08T10:18:55.359Z</time>
      </trkpt>
      <trkpt lat="39.014365" lon="-0.36718833">
        <ele>179.947</ele>
        <time>2020-02-08T10:18:56.359Z</time>
      </trkpt>
      <trkpt lat="39.014365" lon="-0.36718833">
        <ele>179.947</ele>
        <time>2020-02-08T10:18:57.359Z</time>
      </trkpt>
      <trkpt lat="39.01440667" lon="-0.367075">
        <ele>179.947</ele>
        <time>2020-02-08T10:18:58.359Z</time>
      </trkpt>
      <trkpt lat="39.01440667" lon="-0.367075">
        <ele>179.947</ele>
        <time>2020-02-08T10:18:59.359Z</time>
      </trkpt>
      <trkpt lat="39.01444167" lon="-0.36696167">
        <ele>179.947</ele>
        <time>2020-02-08T10:19:00.359Z</time>
      </trkpt>
      <trkpt lat="39.01444167" lon="-0.36696167">
        <ele>179.947</ele>
        <time>2020-02-08T10:19:01.359Z</time>
      </trkpt>
      <trkpt lat="39.01447833" lon="-0.36686333">
        <ele>179.947</ele>
        <time>2020-02-08T10:19:02.359Z</time>
      </trkpt>
      <trkpt lat="39.01447833" lon="-0.36686333">
        <ele>179.947</ele>
        <time>2020-02-08T10:19:03.359Z</time>
      </trkpt>
      <trkpt lat="39.01451167" lon="-0.36676333">
        <ele>179.947</ele>
        <time>2020-02-08T10:19:04.359Z</time>
      </trkpt>
      <trkpt lat="39.01451167" lon="-0.36676333">
        <ele>179.947</ele>
        <time>2020-02-08T10:19:05.359Z</time>
      </trkpt>
      <trkpt lat="39.01453667" lon="-0.36666333">
        <ele>179.947</ele>
        <time>2020-02-08T10:19:06.359Z</time>
      </trkpt>
      <trkpt lat="39.01453667" lon="-0.36666333">
        <ele>179.947</ele>
        <time>2020-02-08T10:19:07.359Z</time>
      </trkpt>
      <trkpt lat="39.01457667" lon="-0.36656833">
        <ele>179.947</ele>
        <time>2020-02-08T10:19:08.359Z</time>
      </trkpt>
      <trkpt lat="39.01457667" lon="-0.36656833">
        <ele>179.947</ele>
        <time>2020-02-08T10:19:09.359Z</time>
      </trkpt>
      <trkpt lat="39.01461833" lon="-0.36647667">
        <ele>179.947</ele>
        <time>2020-02-08T10:19:10.359Z</time>
      </trkpt>
      <trkpt lat="39.01461833" lon="-0.36647667">
        <ele>179.947</ele>
        <time>2020-02-08T10:19:11.359Z</time>
      </trkpt>
      <trkpt lat="39.01466667" lon="-0.36638333">
        <ele>179.947</ele>
        <time>2020-02-08T10:19:12.359Z</time>
      </trkpt>
      <trkpt lat="39.01466667" lon="-0.36638333">
        <ele>180.947</ele>
        <time>2020-02-08T10:19:13.359Z</time>
      </trkpt>
      <trkpt lat="39.01471333" lon="-0.36629333">
        <ele>180.947</ele>
        <time>2020-02-08T10:19:14.359Z</time>
      </trkpt>
      <trkpt lat="39.01471333" lon="-0.36629333">
        <ele>180.947</ele>
        <time>2020-02-08T10:19:15.359Z</time>
      </trkpt>
      <trkpt lat="39.01475667" lon="-0.3662">
        <ele>180.947</ele>
        <time>2020-02-08T10:19:16.359Z</time>
      </trkpt>
      <trkpt lat="39.01475667" lon="-0.3662">
        <ele>180.947</ele>
        <time>2020-02-08T10:19:17.359Z</time>
      </trkpt>
      <trkpt lat="39.01480167" lon="-0.3661">
        <ele>180.947</ele>
        <time>2020-02-08T10:19:18.359Z</time>
      </trkpt>
      <trkpt lat="39.01480167" lon="-0.3661">
        <ele>180.947</ele>
        <time>2020-02-08T10:19:19.359Z</time>
      </trkpt>
      <trkpt lat="39.01484333" lon="-0.36600167">
        <ele>180.947</ele>
        <time>2020-02-08T10:19:20.359Z</time>
      </trkpt>
      <trkpt lat="39.01486167" lon="-0.36595">
        <ele>180.947</ele>
        <time>2020-02-08T10:19:21.359Z</time>
      </trkpt>
      <trkpt lat="39.01486167" lon="-0.36595">
        <ele>180.947</ele>
        <time>2020-02-08T10:19:22.359Z</time>
      </trkpt>
      <trkpt lat="39.01489" lon="-0.36584167">
        <ele>181.947</ele>
        <time>2020-02-08T10:19:23.359Z</time>
      </trkpt>
      <trkpt lat="39.01490333" lon="-0.36578667">
        <ele>181.947</ele>
        <time>2020-02-08T10:19:24.359Z</time>
      </trkpt>
      <trkpt lat="39.01490333" lon="-0.36578667">
        <ele>181.947</ele>
        <time>2020-02-08T10:19:25.359Z</time>
      </trkpt>
      <trkpt lat="39.01491833" lon="-0.365675">
        <ele>181.947</ele>
        <time>2020-02-08T10:19:26.359Z</time>
      </trkpt>
      <trkpt lat="39.01491833" lon="-0.365675">
        <ele>181.947</ele>
        <time>2020-02-08T10:19:27.359Z</time>
      </trkpt>
      <trkpt lat="39.01492833" lon="-0.36556333">
        <ele>181.947</ele>
        <time>2020-02-08T10:19:28.359Z</time>
      </trkpt>
      <trkpt lat="39.01493" lon="-0.36550667">
        <ele>181.947</ele>
        <time>2020-02-08T10:19:29.359Z</time>
      </trkpt>
      <trkpt lat="39.01493" lon="-0.36550667">
        <ele>181.947</ele>
        <time>2020-02-08T10:19:30.359Z</time>
      </trkpt>
      <trkpt lat="39.01493333" lon="-0.36539667">
        <ele>181.947</ele>
        <time>2020-02-08T10:19:31.359Z</time>
      </trkpt>
      <trkpt lat="39.01493833" lon="-0.36534167">
        <ele>181.947</ele>
        <time>2020-02-08T10:19:32.359Z</time>
      </trkpt>
      <trkpt lat="39.01493833" lon="-0.36534167">
        <ele>182.947</ele>
        <time>2020-02-08T10:19:33.359Z</time>
      </trkpt>
      <trkpt lat="39.01494833" lon="-0.36522667">
        <ele>182.947</ele>
        <time>2020-02-08T10:19:34.359Z</time>
      </trkpt>
      <trkpt lat="39.014955" lon="-0.36517">
        <ele>182.947</ele>
        <time>2020-02-08T10:19:35.359Z</time>
      </trkpt>
      <trkpt lat="39.014955" lon="-0.36517">
        <ele>182.947</ele>
        <time>2020-02-08T10:19:36.359Z</time>
      </trkpt>
      <trkpt lat="39.01496167" lon="-0.36506333">
        <ele>182.947</ele>
        <time>2020-02-08T10:19:37.359Z</time>
      </trkpt>
      <trkpt lat="39.01497" lon="-0.36501333">
        <ele>182.947</ele>
        <time>2020-02-08T10:19:38.359Z</time>
      </trkpt>
      <trkpt lat="39.01497" lon="-0.36501333">
        <ele>182.947</ele>
        <time>2020-02-08T10:19:39.359Z</time>
      </trkpt>
      <trkpt lat="39.01500333" lon="-0.36492333">
        <ele>183.947</ele>
        <time>2020-02-08T10:19:40.359Z</time>
      </trkpt>
      <trkpt lat="39.015035" lon="-0.36489667">
        <ele>183.947</ele>
        <time>2020-02-08T10:19:41.359Z</time>
      </trkpt>
      <trkpt lat="39.015075" lon="-0.36487667">
        <ele>183.947</ele>
        <time>2020-02-08T10:19:42.359Z</time>
      </trkpt>
      <trkpt lat="39.015075" lon="-0.36487667">
        <ele>183.947</ele>
        <time>2020-02-08T10:19:43.359Z</time>
      </trkpt>
      <trkpt lat="39.01516167" lon="-0.36487167">
        <ele>183.947</ele>
        <time>2020-02-08T10:19:44.359Z</time>
      </trkpt>
      <trkpt lat="39.01516167" lon="-0.36487167">
        <ele>183.947</ele>
        <time>2020-02-08T10:19:45.359Z</time>
      </trkpt>
      <trkpt lat="39.015255" lon="-0.36487833">
        <ele>183.947</ele>
        <time>2020-02-08T10:19:46.359Z</time>
      </trkpt>
      <trkpt lat="39.015255" lon="-0.36487833">
        <ele>183.947</ele>
        <time>2020-02-08T10:19:47.359Z</time>
      </trkpt>
      <trkpt lat="39.01535167" lon="-0.36489">
        <ele>184.947</ele>
        <time>2020-02-08T10:19:48.359Z</time>
      </trkpt>
      <trkpt lat="39.01535167" lon="-0.36489">
        <ele>184.947</ele>
        <time>2020-02-08T10:19:49.359Z</time>
      </trkpt>
      <trkpt lat="39.01545167" lon="-0.36489833">
        <ele>184.947</ele>
        <time>2020-02-08T10:19:50.359Z</time>
      </trkpt>
      <trkpt lat="39.01545167" lon="-0.36489833">
        <ele>184.947</ele>
        <time>2020-02-08T10:19:51.359Z</time>
      </trkpt>
      <trkpt lat="39.015555" lon="-0.36489667">
        <ele>184.947</ele>
        <time>2020-02-08T10:19:52.359Z</time>
      </trkpt>
      <trkpt lat="39.015555" lon="-0.36489667">
        <ele>184.947</ele>
        <time>2020-02-08T10:19:53.359Z</time>
      </trkpt>
      <trkpt lat="39.015665" lon="-0.36487667">
        <ele>184.947</ele>
        <time>2020-02-08T10:19:54.359Z</time>
      </trkpt>
      <trkpt lat="39.015665" lon="-0.36487667">
        <ele>184.947</ele>
        <time>2020-02-08T10:19:55.359Z</time>
      </trkpt>
      <trkpt lat="39.01577833" lon="-0.36484667">
        <ele>184.947</ele>
        <time>2020-02-08T10:19:56.359Z</time>
      </trkpt>
      <trkpt lat="39.01577833" lon="-0.36484667">
        <ele>184.947</ele>
        <time>2020-02-08T10:19:57.359Z</time>
      </trkpt>
      <trkpt lat="39.01589333" lon="-0.364825">
        <ele>184.947</ele>
        <time>2020-02-08T10:19:58.359Z</time>
      </trkpt>
      <trkpt lat="39.01589333" lon="-0.364825">
        <ele>184.947</ele>
        <time>2020-02-08T10:19:59.359Z</time>
      </trkpt>
      <trkpt lat="39.01601" lon="-0.36483">
        <ele>184.947</ele>
        <time>2020-02-08T10:20:00.359Z</time>
      </trkpt>
      <trkpt lat="39.01601" lon="-0.36483">
        <ele>184.947</ele>
        <time>2020-02-08T10:20:01.359Z</time>
      </trkpt>
      <trkpt lat="39.016115" lon="-0.36486167">
        <ele>184.947</ele>
        <time>2020-02-08T10:20:02.359Z</time>
      </trkpt>
      <trkpt lat="39.016115" lon="-0.36486167">
        <ele>184.947</ele>
        <time>2020-02-08T10:20:03.359Z</time>
      </trkpt>
      <trkpt lat="39.01622" lon="-0.364895">
        <ele>184.947</ele>
        <time>2020-02-08T10:20:04.359Z</time>
      </trkpt>
      <trkpt lat="39.01622" lon="-0.364895">
        <ele>184.947</ele>
        <time>2020-02-08T10:20:05.359Z</time>
      </trkpt>
      <trkpt lat="39.01632167" lon="-0.36493">
        <ele>184.947</ele>
        <time>2020-02-08T10:20:06.359Z</time>
      </trkpt>
      <trkpt lat="39.01632167" lon="-0.36493">
        <ele>184.947</ele>
        <time>2020-02-08T10:20:07.359Z</time>
      </trkpt>
      <trkpt lat="39.01642167" lon="-0.36496">
        <ele>184.947</ele>
        <time>2020-02-08T10:20:08.359Z</time>
      </trkpt>
      <trkpt lat="39.01642167" lon="-0.36496">
        <ele>184.947</ele>
        <time>2020-02-08T10:20:09.359Z</time>
      </trkpt>
      <trkpt lat="39.01652167" lon="-0.364995">
        <ele>184.947</ele>
        <time>2020-02-08T10:20:10.359Z</time>
      </trkpt>
      <trkpt lat="39.01657" lon="-0.36501833">
        <ele>184.947</ele>
        <time>2020-02-08T10:20:11.359Z</time>
      </trkpt>
      <trkpt lat="39.01657" lon="-0.36501833">
        <ele>184.947</ele>
        <time>2020-02-08T10:20:12.359Z</time>
      </trkpt>
      <trkpt lat="39.01666333" lon="-0.36506667">
        <ele>184.947</ele>
        <time>2020-02-08T10:20:13.359Z</time>
      </trkpt>
      <trkpt lat="39.01670167" lon="-0.36510167">
        <ele>184.947</ele>
        <time>2020-02-08T10:20:14.359Z</time>
      </trkpt>
      <trkpt lat="39.01670167" lon="-0.36510167">
        <ele>184.947</ele>
        <time>2020-02-08T10:20:15.359Z</time>
      </trkpt>
      <trkpt lat="39.01677833" lon="-0.36518">
        <ele>184.947</ele>
        <time>2020-02-08T10:20:16.359Z</time>
      </trkpt>
      <trkpt lat="39.01677833" lon="-0.36518">
        <ele>184.947</ele>
        <time>2020-02-08T10:20:17.359Z</time>
      </trkpt>
      <trkpt lat="39.01685333" lon="-0.36525167">
        <ele>184.947</ele>
        <time>2020-02-08T10:20:18.359Z</time>
      </trkpt>
      <trkpt lat="39.01685333" lon="-0.36525167">
        <ele>184.947</ele>
        <time>2020-02-08T10:20:19.359Z</time>
      </trkpt>
      <trkpt lat="39.01692667" lon="-0.36532167">
        <ele>184.947</ele>
        <time>2020-02-08T10:20:20.359Z</time>
      </trkpt>
      <trkpt lat="39.01692667" lon="-0.36532167">
        <ele>184.947</ele>
        <time>2020-02-08T10:20:21.359Z</time>
      </trkpt>
      <trkpt lat="39.01700333" lon="-0.36539">
        <ele>184.947</ele>
        <time>2020-02-08T10:20:22.359Z</time>
      </trkpt>
      <trkpt lat="39.01700333" lon="-0.36539">
        <ele>184.947</ele>
        <time>2020-02-08T10:20:23.359Z</time>
      </trkpt>
      <trkpt lat="39.01707333" lon="-0.36547167">
        <ele>184.947</ele>
        <time>2020-02-08T10:20:24.359Z</time>
      </trkpt>
      <trkpt lat="39.01707333" lon="-0.36547167">
        <ele>184.947</ele>
        <time>2020-02-08T10:20:25.359Z</time>
      </trkpt>
      <trkpt lat="39.01715333" lon="-0.36555167">
        <ele>184.947</ele>
        <time>2020-02-08T10:20:26.359Z</time>
      </trkpt>
      <trkpt lat="39.01715333" lon="-0.36555167">
        <ele>184.947</ele>
        <time>2020-02-08T10:20:27.359Z</time>
      </trkpt>
      <trkpt lat="39.01723667" lon="-0.365635">
        <ele>184.947</ele>
        <time>2020-02-08T10:20:28.359Z</time>
      </trkpt>
      <trkpt lat="39.01727667" lon="-0.36567667">
        <ele>184.947</ele>
        <time>2020-02-08T10:20:29.359Z</time>
      </trkpt>
      <trkpt lat="39.01727667" lon="-0.36567667">
        <ele>184.947</ele>
        <time>2020-02-08T10:20:30.359Z</time>
      </trkpt>
      <trkpt lat="39.017365" lon="-0.365765">
        <ele>184.947</ele>
        <time>2020-02-08T10:20:31.359Z</time>
      </trkpt>
      <trkpt lat="39.017365" lon="-0.365765">
        <ele>184.947</ele>
        <time>2020-02-08T10:20:32.359Z</time>
      </trkpt>
      <trkpt lat="39.017455" lon="-0.36585833">
        <ele>184.947</ele>
        <time>2020-02-08T10:20:33.359Z</time>
      </trkpt>
      <trkpt lat="39.017455" lon="-0.36585833">
        <ele>184.947</ele>
        <time>2020-02-08T10:20:34.359Z</time>
      </trkpt>
      <trkpt lat="39.01754833" lon="-0.36595167">
        <ele>184.947</ele>
        <time>2020-02-08T10:20:35.359Z</time>
      </trkpt>
      <trkpt lat="39.01759667" lon="-0.36599833">
        <ele>184.947</ele>
        <time>2020-02-08T10:20:36.359Z</time>
      </trkpt>
      <trkpt lat="39.01759667" lon="-0.36599833">
        <ele>184.947</ele>
        <time>2020-02-08T10:20:37.359Z</time>
      </trkpt>
      <trkpt lat="39.017695" lon="-0.36609167">
        <ele>184.947</ele>
        <time>2020-02-08T10:20:38.359Z</time>
      </trkpt>
      <trkpt lat="39.01774167" lon="-0.36613833">
        <ele>184.947</ele>
        <time>2020-02-08T10:20:39.359Z</time>
      </trkpt>
      <trkpt lat="39.01774167" lon="-0.36613833">
        <ele>184.947</ele>
        <time>2020-02-08T10:20:40.359Z</time>
      </trkpt>
      <trkpt lat="39.01783333" lon="-0.36622833">
        <ele>184.947</ele>
        <time>2020-02-08T10:20:41.359Z</time>
      </trkpt>
      <trkpt lat="39.01787667" lon="-0.36627333">
        <ele>184.947</ele>
        <time>2020-02-08T10:20:42.359Z</time>
      </trkpt>
      <trkpt lat="39.01787667" lon="-0.36627333">
        <ele>184.947</ele>
        <time>2020-02-08T10:20:43.359Z</time>
      </trkpt>
      <trkpt lat="39.01797167" lon="-0.36635333">
        <ele>184.947</ele>
        <time>2020-02-08T10:20:44.359Z</time>
      </trkpt>
      <trkpt lat="39.01797167" lon="-0.36635333">
        <ele>184.947</ele>
        <time>2020-02-08T10:20:45.359Z</time>
      </trkpt>
      <trkpt lat="39.01807667" lon="-0.36642">
        <ele>184.947</ele>
        <time>2020-02-08T10:20:46.359Z</time>
      </trkpt>
      <trkpt lat="39.01807667" lon="-0.36642">
        <ele>184.947</ele>
        <time>2020-02-08T10:20:47.359Z</time>
      </trkpt>
      <trkpt lat="39.01818667" lon="-0.36646833">
        <ele>184.947</ele>
        <time>2020-02-08T10:20:48.359Z</time>
      </trkpt>
      <trkpt lat="39.01824333" lon="-0.366485">
        <ele>184.947</ele>
        <time>2020-02-08T10:20:49.359Z</time>
      </trkpt>
      <trkpt lat="39.01829833" lon="-0.36650167">
        <ele>184.947</ele>
        <time>2020-02-08T10:20:50.359Z</time>
      </trkpt>
      <trkpt lat="39.01829833" lon="-0.36650167">
        <ele>184.947</ele>
        <time>2020-02-08T10:20:51.359Z</time>
      </trkpt>
      <trkpt lat="39.01840667" lon="-0.36653">
        <ele>183.947</ele>
        <time>2020-02-08T10:20:52.359Z</time>
      </trkpt>
      <trkpt lat="39.01846167" lon="-0.36654333">
        <ele>183.947</ele>
        <time>2020-02-08T10:20:53.359Z</time>
      </trkpt>
      <trkpt lat="39.01851833" lon="-0.36655667">
        <ele>183.947</ele>
        <time>2020-02-08T10:20:54.359Z</time>
      </trkpt>
      <trkpt lat="39.01851833" lon="-0.36655667">
        <ele>183.947</ele>
        <time>2020-02-08T10:20:55.359Z</time>
      </trkpt>
      <trkpt lat="39.018635" lon="-0.36657667">
        <ele>183.947</ele>
        <time>2020-02-08T10:20:56.359Z</time>
      </trkpt>
      <trkpt lat="39.018635" lon="-0.36657667">
        <ele>183.947</ele>
        <time>2020-02-08T10:20:57.359Z</time>
      </trkpt>
      <trkpt lat="39.01874833" lon="-0.36659833">
        <ele>183.947</ele>
        <time>2020-02-08T10:20:58.359Z</time>
      </trkpt>
      <trkpt lat="39.01874833" lon="-0.36659833">
        <ele>183.947</ele>
        <time>2020-02-08T10:20:59.359Z</time>
      </trkpt>
      <trkpt lat="39.01885833" lon="-0.36661667">
        <ele>183.947</ele>
        <time>2020-02-08T10:21:00.359Z</time>
      </trkpt>
      <trkpt lat="39.01885833" lon="-0.36661667">
        <ele>183.947</ele>
        <time>2020-02-08T10:21:01.359Z</time>
      </trkpt>
      <trkpt lat="39.01896833" lon="-0.36662667">
        <ele>183.947</ele>
        <time>2020-02-08T10:21:02.359Z</time>
      </trkpt>
      <trkpt lat="39.01896833" lon="-0.36662667">
        <ele>183.947</ele>
        <time>2020-02-08T10:21:03.359Z</time>
      </trkpt>
      <trkpt lat="39.01907833" lon="-0.366625">
        <ele>183.947</ele>
        <time>2020-02-08T10:21:04.359Z</time>
      </trkpt>
      <trkpt lat="39.01907833" lon="-0.366625">
        <ele>183.947</ele>
        <time>2020-02-08T10:21:05.359Z</time>
      </trkpt>
      <trkpt lat="39.01919" lon="-0.36661333">
        <ele>183.947</ele>
        <time>2020-02-08T10:21:06.359Z</time>
      </trkpt>
      <trkpt lat="39.01919" lon="-0.36661333">
        <ele>183.947</ele>
        <time>2020-02-08T10:21:07.359Z</time>
      </trkpt>
      <trkpt lat="39.01929833" lon="-0.36658833">
        <ele>183.947</ele>
        <time>2020-02-08T10:21:08.359Z</time>
      </trkpt>
      <trkpt lat="39.01929833" lon="-0.36658833">
        <ele>183.947</ele>
        <time>2020-02-08T10:21:09.359Z</time>
      </trkpt>
      <trkpt lat="39.01940167" lon="-0.366565">
        <ele>184.947</ele>
        <time>2020-02-08T10:21:10.359Z</time>
      </trkpt>
      <trkpt lat="39.019455" lon="-0.36655167">
        <ele>184.947</ele>
        <time>2020-02-08T10:21:11.359Z</time>
      </trkpt>
      <trkpt lat="39.01951" lon="-0.36653">
        <ele>184.947</ele>
        <time>2020-02-08T10:21:12.359Z</time>
      </trkpt>
      <trkpt lat="39.01951" lon="-0.36653">
        <ele>184.947</ele>
        <time>2020-02-08T10:21:13.359Z</time>
      </trkpt>
      <trkpt lat="39.01961333" lon="-0.36648167">
        <ele>184.947</ele>
        <time>2020-02-08T10:21:14.359Z</time>
      </trkpt>
      <trkpt lat="39.01961333" lon="-0.36648167">
        <ele>184.947</ele>
        <time>2020-02-08T10:21:15.359Z</time>
      </trkpt>
      <trkpt lat="39.01972833" lon="-0.36644167">
        <ele>184.947</ele>
        <time>2020-02-08T10:21:16.359Z</time>
      </trkpt>
      <trkpt lat="39.01972833" lon="-0.36644167">
        <ele>184.947</ele>
        <time>2020-02-08T10:21:17.359Z</time>
      </trkpt>
      <trkpt lat="39.01984" lon="-0.36640333">
        <ele>184.947</ele>
        <time>2020-02-08T10:21:18.359Z</time>
      </trkpt>
      <trkpt lat="39.01984" lon="-0.36640333">
        <ele>184.947</ele>
        <time>2020-02-08T10:21:19.359Z</time>
      </trkpt>
      <trkpt lat="39.01994667" lon="-0.36639333">
        <ele>185.947</ele>
        <time>2020-02-08T10:21:20.359Z</time>
      </trkpt>
      <trkpt lat="39.01994667" lon="-0.36639333">
        <ele>185.947</ele>
        <time>2020-02-08T10:21:21.359Z</time>
      </trkpt>
      <trkpt lat="39.02005833" lon="-0.36639167">
        <ele>185.947</ele>
        <time>2020-02-08T10:21:22.359Z</time>
      </trkpt>
      <trkpt lat="39.020115" lon="-0.36639333">
        <ele>185.947</ele>
        <time>2020-02-08T10:21:23.359Z</time>
      </trkpt>
      <trkpt lat="39.02017" lon="-0.36639833">
        <ele>185.947</ele>
        <time>2020-02-08T10:21:24.359Z</time>
      </trkpt>
      <trkpt lat="39.02017" lon="-0.36639833">
        <ele>185.947</ele>
        <time>2020-02-08T10:21:25.359Z</time>
      </trkpt>
      <trkpt lat="39.02028167" lon="-0.36639833">
        <ele>185.947</ele>
        <time>2020-02-08T10:21:26.359Z</time>
      </trkpt>
      <trkpt lat="39.02028167" lon="-0.36639833">
        <ele>185.947</ele>
        <time>2020-02-08T10:21:27.359Z</time>
      </trkpt>
      <trkpt lat="39.02039" lon="-0.366405">
        <ele>185.947</ele>
        <time>2020-02-08T10:21:28.359Z</time>
      </trkpt>
      <trkpt lat="39.02039" lon="-0.366405">
        <ele>185.947</ele>
        <time>2020-02-08T10:21:29.359Z</time>
      </trkpt>
      <trkpt lat="39.02050333" lon="-0.36640667">
        <ele>185.947</ele>
        <time>2020-02-08T10:21:30.359Z</time>
      </trkpt>
      <trkpt lat="39.02055833" lon="-0.36640833">
        <ele>185.947</ele>
        <time>2020-02-08T10:21:31.359Z</time>
      </trkpt>
      <trkpt lat="39.02055833" lon="-0.36640833">
        <ele>185.947</ele>
        <time>2020-02-08T10:21:32.359Z</time>
      </trkpt>
      <trkpt lat="39.02067167" lon="-0.36640833">
        <ele>185.947</ele>
        <time>2020-02-08T10:21:33.359Z</time>
      </trkpt>
      <trkpt lat="39.02072833" lon="-0.36640667">
        <ele>185.947</ele>
        <time>2020-02-08T10:21:34.359Z</time>
      </trkpt>
      <trkpt lat="39.02072833" lon="-0.36640667">
        <ele>185.947</ele>
        <time>2020-02-08T10:21:35.359Z</time>
      </trkpt>
      <trkpt lat="39.02084" lon="-0.36640833">
        <ele>185.947</ele>
        <time>2020-02-08T10:21:36.359Z</time>
      </trkpt>
      <trkpt lat="39.02084" lon="-0.36640833">
        <ele>185.947</ele>
        <time>2020-02-08T10:21:37.359Z</time>
      </trkpt>
      <trkpt lat="39.020955" lon="-0.3664">
        <ele>185.947</ele>
        <time>2020-02-08T10:21:38.359Z</time>
      </trkpt>
      <trkpt lat="39.020955" lon="-0.3664">
        <ele>185.947</ele>
        <time>2020-02-08T10:21:39.359Z</time>
      </trkpt>
      <trkpt lat="39.02107167" lon="-0.36640333">
        <ele>185.947</ele>
        <time>2020-02-08T10:21:40.359Z</time>
      </trkpt>
      <trkpt lat="39.02113" lon="-0.36640333">
        <ele>185.947</ele>
        <time>2020-02-08T10:21:41.359Z</time>
      </trkpt>
      <trkpt lat="39.02113" lon="-0.36640333">
        <ele>185.947</ele>
        <time>2020-02-08T10:21:42.359Z</time>
      </trkpt>
      <trkpt lat="39.02124833" lon="-0.36640167">
        <ele>185.947</ele>
        <time>2020-02-08T10:21:43.359Z</time>
      </trkpt>
      <trkpt lat="39.02130667" lon="-0.36640333">
        <ele>185.947</ele>
        <time>2020-02-08T10:21:44.359Z</time>
      </trkpt>
      <trkpt lat="39.02130667" lon="-0.36640333">
        <ele>185.947</ele>
        <time>2020-02-08T10:21:45.359Z</time>
      </trkpt>
      <trkpt lat="39.02142167" lon="-0.3664">
        <ele>186.947</ele>
        <time>2020-02-08T10:21:46.359Z</time>
      </trkpt>
      <trkpt lat="39.02142167" lon="-0.3664">
        <ele>186.947</ele>
        <time>2020-02-08T10:21:47.359Z</time>
      </trkpt>
      <trkpt lat="39.02153" lon="-0.3664">
        <ele>186.947</ele>
        <time>2020-02-08T10:21:48.359Z</time>
      </trkpt>
      <trkpt lat="39.02153" lon="-0.3664">
        <ele>186.947</ele>
        <time>2020-02-08T10:21:49.359Z</time>
      </trkpt>
      <trkpt lat="39.02163833" lon="-0.36639667">
        <ele>186.947</ele>
        <time>2020-02-08T10:21:50.359Z</time>
      </trkpt>
      <trkpt lat="39.02163833" lon="-0.36639667">
        <ele>186.947</ele>
        <time>2020-02-08T10:21:51.359Z</time>
      </trkpt>
      <trkpt lat="39.02174333" lon="-0.36638833">
        <ele>186.947</ele>
        <time>2020-02-08T10:21:52.359Z</time>
      </trkpt>
      <trkpt lat="39.02174333" lon="-0.36638833">
        <ele>186.947</ele>
        <time>2020-02-08T10:21:53.359Z</time>
      </trkpt>
      <trkpt lat="39.02184833" lon="-0.36637167">
        <ele>187.947</ele>
        <time>2020-02-08T10:21:54.359Z</time>
      </trkpt>
      <trkpt lat="39.02184833" lon="-0.36637167">
        <ele>187.947</ele>
        <time>2020-02-08T10:21:55.359Z</time>
      </trkpt>
      <trkpt lat="39.02195167" lon="-0.36632667">
        <ele>187.947</ele>
        <time>2020-02-08T10:21:56.359Z</time>
      </trkpt>
      <trkpt lat="39.02195167" lon="-0.36632667">
        <ele>187.947</ele>
        <time>2020-02-08T10:21:57.359Z</time>
      </trkpt>
      <trkpt lat="39.02205667" lon="-0.36625833">
        <ele>187.947</ele>
        <time>2020-02-08T10:21:58.359Z</time>
      </trkpt>
      <trkpt lat="39.02205667" lon="-0.36625833">
        <ele>187.947</ele>
        <time>2020-02-08T10:21:59.359Z</time>
      </trkpt>
      <trkpt lat="39.02215" lon="-0.36618">
        <ele>187.947</ele>
        <time>2020-02-08T10:22:00.359Z</time>
      </trkpt>
      <trkpt lat="39.02215" lon="-0.36618">
        <ele>187.947</ele>
        <time>2020-02-08T10:22:01.359Z</time>
      </trkpt>
      <trkpt lat="39.02225" lon="-0.36610167">
        <ele>187.947</ele>
        <time>2020-02-08T10:22:02.359Z</time>
      </trkpt>
      <trkpt lat="39.02225" lon="-0.36610167">
        <ele>188.947</ele>
        <time>2020-02-08T10:22:03.359Z</time>
      </trkpt>
      <trkpt lat="39.022345" lon="-0.36601833">
        <ele>188.947</ele>
        <time>2020-02-08T10:22:04.359Z</time>
      </trkpt>
      <trkpt lat="39.022345" lon="-0.36601833">
        <ele>188.947</ele>
        <time>2020-02-08T10:22:05.359Z</time>
      </trkpt>
      <trkpt lat="39.02244833" lon="-0.36592667">
        <ele>188.947</ele>
        <time>2020-02-08T10:22:06.359Z</time>
      </trkpt>
      <trkpt lat="39.02244833" lon="-0.36592667">
        <ele>188.947</ele>
        <time>2020-02-08T10:22:07.359Z</time>
      </trkpt>
      <trkpt lat="39.02255167" lon="-0.36583833">
        <ele>188.947</ele>
        <time>2020-02-08T10:22:08.359Z</time>
      </trkpt>
      <trkpt lat="39.02255167" lon="-0.36583833">
        <ele>188.947</ele>
        <time>2020-02-08T10:22:09.359Z</time>
      </trkpt>
      <trkpt lat="39.02265833" lon="-0.36575167">
        <ele>188.947</ele>
        <time>2020-02-08T10:22:10.359Z</time>
      </trkpt>
      <trkpt lat="39.02265833" lon="-0.36575167">
        <ele>188.947</ele>
        <time>2020-02-08T10:22:11.359Z</time>
      </trkpt>
      <trkpt lat="39.022765" lon="-0.36566333">
        <ele>188.947</ele>
        <time>2020-02-08T10:22:12.359Z</time>
      </trkpt>
      <trkpt lat="39.022765" lon="-0.36566333">
        <ele>187.947</ele>
        <time>2020-02-08T10:22:13.359Z</time>
      </trkpt>
      <trkpt lat="39.02288167" lon="-0.36560333">
        <ele>187.947</ele>
        <time>2020-02-08T10:22:14.359Z</time>
      </trkpt>
      <trkpt lat="39.02288167" lon="-0.36560333">
        <ele>187.947</ele>
        <time>2020-02-08T10:22:15.359Z</time>
      </trkpt>
      <trkpt lat="39.02300667" lon="-0.36559333">
        <ele>187.947</ele>
        <time>2020-02-08T10:22:16.359Z</time>
      </trkpt>
      <trkpt lat="39.02300667" lon="-0.36559333">
        <ele>187.947</ele>
        <time>2020-02-08T10:22:17.359Z</time>
      </trkpt>
      <trkpt lat="39.02312333" lon="-0.36564333">
        <ele>187.947</ele>
        <time>2020-02-08T10:22:18.359Z</time>
      </trkpt>
      <trkpt lat="39.02312333" lon="-0.36564333">
        <ele>187.947</ele>
        <time>2020-02-08T10:22:19.359Z</time>
      </trkpt>
      <trkpt lat="39.02323167" lon="-0.36571333">
        <ele>187.947</ele>
        <time>2020-02-08T10:22:20.359Z</time>
      </trkpt>
      <trkpt lat="39.02323167" lon="-0.36571333">
        <ele>187.947</ele>
        <time>2020-02-08T10:22:21.359Z</time>
      </trkpt>
      <trkpt lat="39.02334" lon="-0.365795">
        <ele>187.947</ele>
        <time>2020-02-08T10:22:22.359Z</time>
      </trkpt>
      <trkpt lat="39.02334" lon="-0.365795">
        <ele>187.947</ele>
        <time>2020-02-08T10:22:23.359Z</time>
      </trkpt>
      <trkpt lat="39.02344833" lon="-0.36586833">
        <ele>187.947</ele>
        <time>2020-02-08T10:22:24.359Z</time>
      </trkpt>
      <trkpt lat="39.02344833" lon="-0.36586833">
        <ele>187.947</ele>
        <time>2020-02-08T10:22:25.359Z</time>
      </trkpt>
      <trkpt lat="39.02355" lon="-0.36594333">
        <ele>187.947</ele>
        <time>2020-02-08T10:22:26.359Z</time>
      </trkpt>
      <trkpt lat="39.02355" lon="-0.36594333">
        <ele>187.947</ele>
        <time>2020-02-08T10:22:27.359Z</time>
      </trkpt>
      <trkpt lat="39.02364833" lon="-0.36601167">
        <ele>187.947</ele>
        <time>2020-02-08T10:22:28.359Z</time>
      </trkpt>
      <trkpt lat="39.02364833" lon="-0.36601167">
        <ele>187.947</ele>
        <time>2020-02-08T10:22:29.359Z</time>
      </trkpt>
      <trkpt lat="39.02374167" lon="-0.36608833">
        <ele>187.947</ele>
        <time>2020-02-08T10:22:30.359Z</time>
      </trkpt>
      <trkpt lat="39.02378833" lon="-0.36612333">
        <ele>187.947</ele>
        <time>2020-02-08T10:22:31.359Z</time>
      </trkpt>
      <trkpt lat="39.02378833" lon="-0.36612333">
        <ele>187.947</ele>
        <time>2020-02-08T10:22:32.359Z</time>
      </trkpt>
      <trkpt lat="39.02387833" lon="-0.366195">
        <ele>187.947</ele>
        <time>2020-02-08T10:22:33.359Z</time>
      </trkpt>
      <trkpt lat="39.02387833" lon="-0.366195">
        <ele>188.947</ele>
        <time>2020-02-08T10:22:34.359Z</time>
      </trkpt>
      <trkpt lat="39.02396667" lon="-0.36626667">
        <ele>188.947</ele>
        <time>2020-02-08T10:22:35.359Z</time>
      </trkpt>
      <trkpt lat="39.02401167" lon="-0.36630167">
        <ele>188.947</ele>
        <time>2020-02-08T10:22:36.359Z</time>
      </trkpt>
      <trkpt lat="39.02401167" lon="-0.36630167">
        <ele>188.947</ele>
        <time>2020-02-08T10:22:37.359Z</time>
      </trkpt>
      <trkpt lat="39.02410167" lon="-0.36637833">
        <ele>188.947</ele>
        <time>2020-02-08T10:22:38.359Z</time>
      </trkpt>
      <trkpt lat="39.02410167" lon="-0.36637833">
        <ele>188.947</ele>
        <time>2020-02-08T10:22:39.359Z</time>
      </trkpt>
      <trkpt lat="39.02419" lon="-0.36645667">
        <ele>189.947</ele>
        <time>2020-02-08T10:22:40.359Z</time>
      </trkpt>
      <trkpt lat="39.02419" lon="-0.36645667">
        <ele>189.947</ele>
        <time>2020-02-08T10:22:41.359Z</time>
      </trkpt>
      <trkpt lat="39.02427833" lon="-0.36654333">
        <ele>189.947</ele>
        <time>2020-02-08T10:22:42.359Z</time>
      </trkpt>
      <trkpt lat="39.02427833" lon="-0.36654333">
        <ele>189.947</ele>
        <time>2020-02-08T10:22:43.359Z</time>
      </trkpt>
      <trkpt lat="39.02437" lon="-0.36663167">
        <ele>189.947</ele>
        <time>2020-02-08T10:22:44.359Z</time>
      </trkpt>
      <trkpt lat="39.02437" lon="-0.36663167">
        <ele>189.947</ele>
        <time>2020-02-08T10:22:45.359Z</time>
      </trkpt>
      <trkpt lat="39.02446167" lon="-0.36671333">
        <ele>189.947</ele>
        <time>2020-02-08T10:22:46.359Z</time>
      </trkpt>
      <trkpt lat="39.02446167" lon="-0.36671333">
        <ele>189.947</ele>
        <time>2020-02-08T10:22:47.359Z</time>
      </trkpt>
      <trkpt lat="39.02454833" lon="-0.3668">
        <ele>190.947</ele>
        <time>2020-02-08T10:22:48.359Z</time>
      </trkpt>
      <trkpt lat="39.02454833" lon="-0.3668">
        <ele>190.947</ele>
        <time>2020-02-08T10:22:49.359Z</time>
      </trkpt>
      <trkpt lat="39.024635" lon="-0.36687833">
        <ele>190.947</ele>
        <time>2020-02-08T10:22:50.359Z</time>
      </trkpt>
      <trkpt lat="39.02467667" lon="-0.36691167">
        <ele>190.947</ele>
        <time>2020-02-08T10:22:51.359Z</time>
      </trkpt>
      <trkpt lat="39.02467667" lon="-0.36691167">
        <ele>190.947</ele>
        <time>2020-02-08T10:22:52.359Z</time>
      </trkpt>
      <trkpt lat="39.02476" lon="-0.36697167">
        <ele>190.947</ele>
        <time>2020-02-08T10:22:53.359Z</time>
      </trkpt>
      <trkpt lat="39.02479833" lon="-0.36699833">
        <ele>190.947</ele>
        <time>2020-02-08T10:22:54.359Z</time>
      </trkpt>
      <trkpt lat="39.02479833" lon="-0.36699833">
        <ele>191.947</ele>
        <time>2020-02-08T10:22:55.359Z</time>
      </trkpt>
      <trkpt lat="39.02487833" lon="-0.367045">
        <ele>191.947</ele>
        <time>2020-02-08T10:22:56.359Z</time>
      </trkpt>
      <trkpt lat="39.02487833" lon="-0.367045">
        <ele>192.947</ele>
        <time>2020-02-08T10:22:57.359Z</time>
      </trkpt>
      <trkpt lat="39.024965" lon="-0.36708167">
        <ele>192.947</ele>
        <time>2020-02-08T10:22:58.359Z</time>
      </trkpt>
      <trkpt lat="39.024965" lon="-0.36708167">
        <ele>192.947</ele>
        <time>2020-02-08T10:22:59.359Z</time>
      </trkpt>
      <trkpt lat="39.02504167" lon="-0.367145">
        <ele>192.947</ele>
        <time>2020-02-08T10:23:00.359Z</time>
      </trkpt>
      <trkpt lat="39.02504167" lon="-0.367145">
        <ele>193.947</ele>
        <time>2020-02-08T10:23:01.359Z</time>
      </trkpt>
      <trkpt lat="39.02512667" lon="-0.36718833">
        <ele>193.947</ele>
        <time>2020-02-08T10:23:02.359Z</time>
      </trkpt>
      <trkpt lat="39.02512667" lon="-0.36718833">
        <ele>194.947</ele>
        <time>2020-02-08T10:23:03.359Z</time>
      </trkpt>
      <trkpt lat="39.025205" lon="-0.36723667">
        <ele>194.947</ele>
        <time>2020-02-08T10:23:04.359Z</time>
      </trkpt>
      <trkpt lat="39.025205" lon="-0.36723667">
        <ele>194.947</ele>
        <time>2020-02-08T10:23:05.359Z</time>
      </trkpt>
      <trkpt lat="39.02528667" lon="-0.367285">
        <ele>194.947</ele>
        <time>2020-02-08T10:23:06.359Z</time>
      </trkpt>
      <trkpt lat="39.02528667" lon="-0.367285">
        <ele>195.947</ele>
        <time>2020-02-08T10:23:07.359Z</time>
      </trkpt>
      <trkpt lat="39.025365" lon="-0.36733333">
        <ele>195.947</ele>
        <time>2020-02-08T10:23:08.359Z</time>
      </trkpt>
      <trkpt lat="39.025365" lon="-0.36733333">
        <ele>195.947</ele>
        <time>2020-02-08T10:23:09.359Z</time>
      </trkpt>
      <trkpt lat="39.02543667" lon="-0.36737667">
        <ele>195.947</ele>
        <time>2020-02-08T10:23:10.359Z</time>
      </trkpt>
      <trkpt lat="39.02543667" lon="-0.36737667">
        <ele>196.947</ele>
        <time>2020-02-08T10:23:11.359Z</time>
      </trkpt>
      <trkpt lat="39.025515" lon="-0.36743">
        <ele>196.947</ele>
        <time>2020-02-08T10:23:12.359Z</time>
      </trkpt>
      <trkpt lat="39.025515" lon="-0.36743">
        <ele>196.947</ele>
        <time>2020-02-08T10:23:13.359Z</time>
      </trkpt>
      <trkpt lat="39.02559667" lon="-0.36748167">
        <ele>196.947</ele>
        <time>2020-02-08T10:23:14.359Z</time>
      </trkpt>
      <trkpt lat="39.02563833" lon="-0.36751">
        <ele>197.947</ele>
        <time>2020-02-08T10:23:15.359Z</time>
      </trkpt>
      <trkpt lat="39.02563833" lon="-0.36751">
        <ele>197.947</ele>
        <time>2020-02-08T10:23:16.359Z</time>
      </trkpt>
      <trkpt lat="39.02571667" lon="-0.36756667">
        <ele>197.947</ele>
        <time>2020-02-08T10:23:17.359Z</time>
      </trkpt>
      <trkpt lat="39.02571667" lon="-0.36756667">
        <ele>197.947</ele>
        <time>2020-02-08T10:23:18.359Z</time>
      </trkpt>
      <trkpt lat="39.02580333" lon="-0.36762833">
        <ele>197.947</ele>
        <time>2020-02-08T10:23:19.359Z</time>
      </trkpt>
      <trkpt lat="39.02584667" lon="-0.36766333">
        <ele>197.947</ele>
        <time>2020-02-08T10:23:20.359Z</time>
      </trkpt>
      <trkpt lat="39.02589167" lon="-0.36770167">
        <ele>197.947</ele>
        <time>2020-02-08T10:23:21.359Z</time>
      </trkpt>
      <trkpt lat="39.02589167" lon="-0.36770167">
        <ele>197.947</ele>
        <time>2020-02-08T10:23:22.359Z</time>
      </trkpt>
      <trkpt lat="39.02598667" lon="-0.36778">
        <ele>197.947</ele>
        <time>2020-02-08T10:23:23.359Z</time>
      </trkpt>
      <trkpt lat="39.026035" lon="-0.36782">
        <ele>197.947</ele>
        <time>2020-02-08T10:23:24.359Z</time>
      </trkpt>
      <trkpt lat="39.026035" lon="-0.36782">
        <ele>197.947</ele>
        <time>2020-02-08T10:23:25.359Z</time>
      </trkpt>
      <trkpt lat="39.02612833" lon="-0.3679">
        <ele>197.947</ele>
        <time>2020-02-08T10:23:26.359Z</time>
      </trkpt>
      <trkpt lat="39.02612833" lon="-0.3679">
        <ele>197.947</ele>
        <time>2020-02-08T10:23:27.359Z</time>
      </trkpt>
      <trkpt lat="39.02623333" lon="-0.36797833">
        <ele>197.947</ele>
        <time>2020-02-08T10:23:28.359Z</time>
      </trkpt>
      <trkpt lat="39.02629" lon="-0.36802">
        <ele>197.947</ele>
        <time>2020-02-08T10:23:29.359Z</time>
      </trkpt>
      <trkpt lat="39.02635" lon="-0.368065">
        <ele>196.947</ele>
        <time>2020-02-08T10:23:30.359Z</time>
      </trkpt>
      <trkpt lat="39.02635" lon="-0.368065">
        <ele>196.947</ele>
        <time>2020-02-08T10:23:31.359Z</time>
      </trkpt>
      <trkpt lat="39.026485" lon="-0.36817667">
        <ele>195.947</ele>
        <time>2020-02-08T10:23:32.359Z</time>
      </trkpt>
      <trkpt lat="39.026485" lon="-0.36817667">
        <ele>195.947</ele>
        <time>2020-02-08T10:23:33.359Z</time>
      </trkpt>
      <trkpt lat="39.02664" lon="-0.368285">
        <ele>194.947</ele>
        <time>2020-02-08T10:23:34.359Z</time>
      </trkpt>
      <trkpt lat="39.02664" lon="-0.368285">
        <ele>194.947</ele>
        <time>2020-02-08T10:23:35.359Z</time>
      </trkpt>
      <trkpt lat="39.02680667" lon="-0.36831">
        <ele>193.947</ele>
        <time>2020-02-08T10:23:36.359Z</time>
      </trkpt>
      <trkpt lat="39.02680667" lon="-0.36831">
        <ele>193.947</ele>
        <time>2020-02-08T10:23:37.359Z</time>
      </trkpt>
      <trkpt lat="39.02696667" lon="-0.36820167">
        <ele>192.947</ele>
        <time>2020-02-08T10:23:38.359Z</time>
      </trkpt>
      <trkpt lat="39.02696667" lon="-0.36820167">
        <ele>192.947</ele>
        <time>2020-02-08T10:23:39.359Z</time>
      </trkpt>
      <trkpt lat="39.0271" lon="-0.36801167">
        <ele>190.947</ele>
        <time>2020-02-08T10:23:40.359Z</time>
      </trkpt>
      <trkpt lat="39.02715" lon="-0.36790833">
        <ele>190.947</ele>
        <time>2020-02-08T10:23:41.359Z</time>
      </trkpt>
      <trkpt lat="39.02720167" lon="-0.36779833">
        <ele>189.947</ele>
        <time>2020-02-08T10:23:42.359Z</time>
      </trkpt>
      <trkpt lat="39.02720167" lon="-0.36779833">
        <ele>189.947</ele>
        <time>2020-02-08T10:23:43.359Z</time>
      </trkpt>
      <trkpt lat="39.02729667" lon="-0.367575">
        <ele>188.947</ele>
        <time>2020-02-08T10:23:44.359Z</time>
      </trkpt>
      <trkpt lat="39.02729667" lon="-0.367575">
        <ele>188.947</ele>
        <time>2020-02-08T10:23:45.359Z</time>
      </trkpt>
      <trkpt lat="39.02737167" lon="-0.367345">
        <ele>188.947</ele>
        <time>2020-02-08T10:23:46.359Z</time>
      </trkpt>
      <trkpt lat="39.02737167" lon="-0.367345">
        <ele>188.947</ele>
        <time>2020-02-08T10:23:47.359Z</time>
      </trkpt>
      <trkpt lat="39.02745333" lon="-0.36714667">
        <ele>188.947</ele>
        <time>2020-02-08T10:23:48.359Z</time>
      </trkpt>
      <trkpt lat="39.02745333" lon="-0.36714667">
        <ele>188.947</ele>
        <time>2020-02-08T10:23:49.359Z</time>
      </trkpt>
      <trkpt lat="39.02758667" lon="-0.36704333">
        <ele>188.947</ele>
        <time>2020-02-08T10:23:50.359Z</time>
      </trkpt>
      <trkpt lat="39.02767667" lon="-0.36703">
        <ele>188.947</ele>
        <time>2020-02-08T10:23:51.359Z</time>
      </trkpt>
      <trkpt lat="39.02767667" lon="-0.36703">
        <ele>186.947</ele>
        <time>2020-02-08T10:23:52.359Z</time>
      </trkpt>
      <trkpt lat="39.02783667" lon="-0.367125">
        <ele>186.947</ele>
        <time>2020-02-08T10:23:53.359Z</time>
      </trkpt>
      <trkpt lat="39.02783667" lon="-0.367125">
        <ele>186.947</ele>
        <time>2020-02-08T10:23:54.359Z</time>
      </trkpt>
      <trkpt lat="39.02795667" lon="-0.36729833">
        <ele>185.947</ele>
        <time>2020-02-08T10:23:55.359Z</time>
      </trkpt>
      <trkpt lat="39.02795667" lon="-0.36729833">
        <ele>185.947</ele>
        <time>2020-02-08T10:23:56.359Z</time>
      </trkpt>
      <trkpt lat="39.02806" lon="-0.36748">
        <ele>185.947</ele>
        <time>2020-02-08T10:23:57.359Z</time>
      </trkpt>
      <trkpt lat="39.02811" lon="-0.36756833">
        <ele>185.947</ele>
        <time>2020-02-08T10:23:58.359Z</time>
      </trkpt>
      <trkpt lat="39.02815667" lon="-0.367655">
        <ele>185.947</ele>
        <time>2020-02-08T10:23:59.359Z</time>
      </trkpt>
      <trkpt lat="39.02815667" lon="-0.367655">
        <ele>185.947</ele>
        <time>2020-02-08T10:24:00.359Z</time>
      </trkpt>
      <trkpt lat="39.028245" lon="-0.367815">
        <ele>185.947</ele>
        <time>2020-02-08T10:24:01.359Z</time>
      </trkpt>
      <trkpt lat="39.02829" lon="-0.36789333">
        <ele>185.947</ele>
        <time>2020-02-08T10:24:02.359Z</time>
      </trkpt>
      <trkpt lat="39.02829" lon="-0.36789333">
        <ele>185.947</ele>
        <time>2020-02-08T10:24:03.359Z</time>
      </trkpt>
      <trkpt lat="39.02837" lon="-0.368045">
        <ele>185.947</ele>
        <time>2020-02-08T10:24:04.359Z</time>
      </trkpt>
      <trkpt lat="39.02837" lon="-0.368045">
        <ele>185.947</ele>
        <time>2020-02-08T10:24:05.359Z</time>
      </trkpt>
      <trkpt lat="39.02845" lon="-0.36819">
        <ele>185.947</ele>
        <time>2020-02-08T10:24:06.359Z</time>
      </trkpt>
      <trkpt lat="39.02845" lon="-0.36819">
        <ele>185.947</ele>
        <time>2020-02-08T10:24:07.359Z</time>
      </trkpt>
      <trkpt lat="39.02852333" lon="-0.36833">
        <ele>185.947</ele>
        <time>2020-02-08T10:24:08.359Z</time>
      </trkpt>
      <trkpt lat="39.02852333" lon="-0.36833">
        <ele>185.947</ele>
        <time>2020-02-08T10:24:09.359Z</time>
      </trkpt>
      <trkpt lat="39.02859667" lon="-0.36846833">
        <ele>185.947</ele>
        <time>2020-02-08T10:24:10.359Z</time>
      </trkpt>
      <trkpt lat="39.02859667" lon="-0.36846833">
        <ele>185.947</ele>
        <time>2020-02-08T10:24:11.359Z</time>
      </trkpt>
      <trkpt lat="39.02867667" lon="-0.36860667">
        <ele>185.947</ele>
        <time>2020-02-08T10:24:12.359Z</time>
      </trkpt>
      <trkpt lat="39.02867667" lon="-0.36860667">
        <ele>184.947</ele>
        <time>2020-02-08T10:24:13.359Z</time>
      </trkpt>
      <trkpt lat="39.02875667" lon="-0.368755">
        <ele>184.947</ele>
        <time>2020-02-08T10:24:14.359Z</time>
      </trkpt>
      <trkpt lat="39.02875667" lon="-0.368755">
        <ele>184.947</ele>
        <time>2020-02-08T10:24:15.359Z</time>
      </trkpt>
      <trkpt lat="39.02884333" lon="-0.36890333">
        <ele>184.947</ele>
        <time>2020-02-08T10:24:16.359Z</time>
      </trkpt>
      <trkpt lat="39.02888167" lon="-0.36897167">
        <ele>184.947</ele>
        <time>2020-02-08T10:24:17.359Z</time>
      </trkpt>
      <trkpt lat="39.02888167" lon="-0.36897167">
        <ele>184.947</ele>
        <time>2020-02-08T10:24:18.359Z</time>
      </trkpt>
      <trkpt lat="39.02894333" lon="-0.36912167">
        <ele>184.947</ele>
        <time>2020-02-08T10:24:19.359Z</time>
      </trkpt>
      <trkpt lat="39.02894333" lon="-0.36912167">
        <ele>184.947</ele>
        <time>2020-02-08T10:24:20.359Z</time>
      </trkpt>
      <trkpt lat="39.02901333" lon="-0.36925667">
        <ele>184.947</ele>
        <time>2020-02-08T10:24:21.359Z</time>
      </trkpt>
      <trkpt lat="39.02901333" lon="-0.36925667">
        <ele>183.947</ele>
        <time>2020-02-08T10:24:22.359Z</time>
      </trkpt>
      <trkpt lat="39.02912667" lon="-0.36929">
        <ele>183.947</ele>
        <time>2020-02-08T10:24:23.359Z</time>
      </trkpt>
      <trkpt lat="39.02918167" lon="-0.36928833">
        <ele>183.947</ele>
        <time>2020-02-08T10:24:24.359Z</time>
      </trkpt>
      <trkpt lat="39.02922167" lon="-0.36925333">
        <ele>183.947</ele>
        <time>2020-02-08T10:24:25.359Z</time>
      </trkpt>
      <trkpt lat="39.029265" lon="-0.369215">
        <ele>183.947</ele>
        <time>2020-02-08T10:24:26.359Z</time>
      </trkpt>
      <trkpt lat="39.029265" lon="-0.369215">
        <ele>183.947</ele>
        <time>2020-02-08T10:24:27.359Z</time>
      </trkpt>
      <trkpt lat="39.02935333" lon="-0.36912">
        <ele>183.947</ele>
        <time>2020-02-08T10:24:28.359Z</time>
      </trkpt>
      <trkpt lat="39.02935333" lon="-0.36912">
        <ele>183.947</ele>
        <time>2020-02-08T10:24:29.359Z</time>
      </trkpt>
      <trkpt lat="39.029445" lon="-0.36901833">
        <ele>183.947</ele>
        <time>2020-02-08T10:24:30.359Z</time>
      </trkpt>
      <trkpt lat="39.029445" lon="-0.36901833">
        <ele>183.947</ele>
        <time>2020-02-08T10:24:31.359Z</time>
      </trkpt>
      <trkpt lat="39.02955167" lon="-0.36893167">
        <ele>183.947</ele>
        <time>2020-02-08T10:24:32.359Z</time>
      </trkpt>
      <trkpt lat="39.02955167" lon="-0.36893167">
        <ele>183.947</ele>
        <time>2020-02-08T10:24:33.359Z</time>
      </trkpt>
      <trkpt lat="39.02965833" lon="-0.36889667">
        <ele>183.947</ele>
        <time>2020-02-08T10:24:34.359Z</time>
      </trkpt>
      <trkpt lat="39.02965833" lon="-0.36889667">
        <ele>183.947</ele>
        <time>2020-02-08T10:24:35.359Z</time>
      </trkpt>
      <trkpt lat="39.02977333" lon="-0.36888167">
        <ele>183.947</ele>
        <time>2020-02-08T10:24:36.359Z</time>
      </trkpt>
      <trkpt lat="39.02977333" lon="-0.36888167">
        <ele>184.947</ele>
        <time>2020-02-08T10:24:37.359Z</time>
      </trkpt>
      <trkpt lat="39.02988167" lon="-0.36887833">
        <ele>184.947</ele>
        <time>2020-02-08T10:24:38.359Z</time>
      </trkpt>
      <trkpt lat="39.02988167" lon="-0.36887833">
        <ele>184.947</ele>
        <time>2020-02-08T10:24:39.359Z</time>
      </trkpt>
      <trkpt lat="39.02998333" lon="-0.36891333">
        <ele>184.947</ele>
        <time>2020-02-08T10:24:40.359Z</time>
      </trkpt>
      <trkpt lat="39.02998333" lon="-0.36891333">
        <ele>184.947</ele>
        <time>2020-02-08T10:24:41.359Z</time>
      </trkpt>
      <trkpt lat="39.03008833" lon="-0.36896">
        <ele>184.947</ele>
        <time>2020-02-08T10:24:42.359Z</time>
      </trkpt>
      <trkpt lat="39.03008833" lon="-0.36896">
        <ele>184.947</ele>
        <time>2020-02-08T10:24:43.359Z</time>
      </trkpt>
      <trkpt lat="39.03019167" lon="-0.36900667">
        <ele>184.947</ele>
        <time>2020-02-08T10:24:44.359Z</time>
      </trkpt>
      <trkpt lat="39.03019167" lon="-0.36900667">
        <ele>184.947</ele>
        <time>2020-02-08T10:24:45.359Z</time>
      </trkpt>
      <trkpt lat="39.03029667" lon="-0.36907167">
        <ele>185.947</ele>
        <time>2020-02-08T10:24:46.359Z</time>
      </trkpt>
      <trkpt lat="39.03029667" lon="-0.36907167">
        <ele>185.947</ele>
        <time>2020-02-08T10:24:47.359Z</time>
      </trkpt>
      <trkpt lat="39.03040833" lon="-0.36909333">
        <ele>185.947</ele>
        <time>2020-02-08T10:24:48.359Z</time>
      </trkpt>
      <trkpt lat="39.03040833" lon="-0.36909333">
        <ele>185.947</ele>
        <time>2020-02-08T10:24:49.359Z</time>
      </trkpt>
      <trkpt lat="39.03052333" lon="-0.36909667">
        <ele>185.947</ele>
        <time>2020-02-08T10:24:50.359Z</time>
      </trkpt>
      <trkpt lat="39.03052333" lon="-0.36909667">
        <ele>185.947</ele>
        <time>2020-02-08T10:24:51.359Z</time>
      </trkpt>
      <trkpt lat="39.03064" lon="-0.36908667">
        <ele>185.947</ele>
        <time>2020-02-08T10:24:52.359Z</time>
      </trkpt>
      <trkpt lat="39.03064" lon="-0.36908667">
        <ele>185.947</ele>
        <time>2020-02-08T10:24:53.359Z</time>
      </trkpt>
      <trkpt lat="39.03076667" lon="-0.36908833">
        <ele>185.947</ele>
        <time>2020-02-08T10:24:54.359Z</time>
      </trkpt>
      <trkpt lat="39.03076667" lon="-0.36908833">
        <ele>186.947</ele>
        <time>2020-02-08T10:24:55.359Z</time>
      </trkpt>
      <trkpt lat="39.030875" lon="-0.36909333">
        <ele>186.947</ele>
        <time>2020-02-08T10:24:56.359Z</time>
      </trkpt>
      <trkpt lat="39.030875" lon="-0.36909333">
        <ele>186.947</ele>
        <time>2020-02-08T10:24:57.359Z</time>
      </trkpt>
      <trkpt lat="39.03097667" lon="-0.369095">
        <ele>186.947</ele>
        <time>2020-02-08T10:24:58.359Z</time>
      </trkpt>
      <trkpt lat="39.03097667" lon="-0.369095">
        <ele>186.947</ele>
        <time>2020-02-08T10:24:59.359Z</time>
      </trkpt>
      <trkpt lat="39.03107667" lon="-0.36908333">
        <ele>186.947</ele>
        <time>2020-02-08T10:25:00.359Z</time>
      </trkpt>
      <trkpt lat="39.03112" lon="-0.36907667">
        <ele>186.947</ele>
        <time>2020-02-08T10:25:01.359Z</time>
      </trkpt>
      <trkpt lat="39.03112" lon="-0.36907667">
        <ele>186.947</ele>
        <time>2020-02-08T10:25:02.359Z</time>
      </trkpt>
      <trkpt lat="39.0312" lon="-0.36906167">
        <ele>187.947</ele>
        <time>2020-02-08T10:25:03.359Z</time>
      </trkpt>
      <trkpt lat="39.0312" lon="-0.36906167">
        <ele>187.947</ele>
        <time>2020-02-08T10:25:04.359Z</time>
      </trkpt>
      <trkpt lat="39.031275" lon="-0.36901167">
        <ele>187.947</ele>
        <time>2020-02-08T10:25:05.359Z</time>
      </trkpt>
      <trkpt lat="39.03130833" lon="-0.36897667">
        <ele>187.947</ele>
        <time>2020-02-08T10:25:06.359Z</time>
      </trkpt>
      <trkpt lat="39.031335" lon="-0.368935">
        <ele>188.947</ele>
        <time>2020-02-08T10:25:07.359Z</time>
      </trkpt>
      <trkpt lat="39.031335" lon="-0.368935">
        <ele>188.947</ele>
        <time>2020-02-08T10:25:08.359Z</time>
      </trkpt>
      <trkpt lat="39.03136833" lon="-0.36883667">
        <ele>188.947</ele>
        <time>2020-02-08T10:25:09.359Z</time>
      </trkpt>
      <trkpt lat="39.03136833" lon="-0.36883667">
        <ele>188.947</ele>
        <time>2020-02-08T10:25:10.359Z</time>
      </trkpt>
      <trkpt lat="39.03137833" lon="-0.36872167">
        <ele>189.947</ele>
        <time>2020-02-08T10:25:11.359Z</time>
      </trkpt>
      <trkpt lat="39.03138167" lon="-0.368665">
        <ele>189.947</ele>
        <time>2020-02-08T10:25:12.359Z</time>
      </trkpt>
      <trkpt lat="39.03139167" lon="-0.36860667">
        <ele>189.947</ele>
        <time>2020-02-08T10:25:13.359Z</time>
      </trkpt>
      <trkpt lat="39.03140833" lon="-0.36854667">
        <ele>189.947</ele>
        <time>2020-02-08T10:25:14.359Z</time>
      </trkpt>
      <trkpt lat="39.03140833" lon="-0.36854667">
        <ele>190.947</ele>
        <time>2020-02-08T10:25:15.359Z</time>
      </trkpt>
      <trkpt lat="39.03145833" lon="-0.36844667">
        <ele>190.947</ele>
        <time>2020-02-08T10:25:16.359Z</time>
      </trkpt>
      <trkpt lat="39.03145833" lon="-0.36844667">
        <ele>190.947</ele>
        <time>2020-02-08T10:25:17.359Z</time>
      </trkpt>
      <trkpt lat="39.03153" lon="-0.36835833">
        <ele>190.947</ele>
        <time>2020-02-08T10:25:18.359Z</time>
      </trkpt>
      <trkpt lat="39.03156167" lon="-0.36831167">
        <ele>190.947</ele>
        <time>2020-02-08T10:25:19.359Z</time>
      </trkpt>
      <trkpt lat="39.03156167" lon="-0.36831167">
        <ele>190.947</ele>
        <time>2020-02-08T10:25:20.359Z</time>
      </trkpt>
      <trkpt lat="39.03163167" lon="-0.36821333">
        <ele>191.947</ele>
        <time>2020-02-08T10:25:21.359Z</time>
      </trkpt>
      <trkpt lat="39.03166833" lon="-0.36816667">
        <ele>191.947</ele>
        <time>2020-02-08T10:25:22.359Z</time>
      </trkpt>
      <trkpt lat="39.03166833" lon="-0.36816667">
        <ele>191.947</ele>
        <time>2020-02-08T10:25:23.359Z</time>
      </trkpt>
      <trkpt lat="39.03174833" lon="-0.36807833">
        <ele>191.947</ele>
        <time>2020-02-08T10:25:24.359Z</time>
      </trkpt>
      <trkpt lat="39.03174833" lon="-0.36807833">
        <ele>191.947</ele>
        <time>2020-02-08T10:25:25.359Z</time>
      </trkpt>
      <trkpt lat="39.031835" lon="-0.367995">
        <ele>191.947</ele>
        <time>2020-02-08T10:25:26.359Z</time>
      </trkpt>
      <trkpt lat="39.031835" lon="-0.367995">
        <ele>191.947</ele>
        <time>2020-02-08T10:25:27.359Z</time>
      </trkpt>
      <trkpt lat="39.03192833" lon="-0.36794333">
        <ele>191.947</ele>
        <time>2020-02-08T10:25:28.359Z</time>
      </trkpt>
      <trkpt lat="39.03192833" lon="-0.36794333">
        <ele>191.947</ele>
        <time>2020-02-08T10:25:29.359Z</time>
      </trkpt>
      <trkpt lat="39.032025" lon="-0.36789667">
        <ele>192.947</ele>
        <time>2020-02-08T10:25:30.359Z</time>
      </trkpt>
      <trkpt lat="39.032025" lon="-0.36789667">
        <ele>192.947</ele>
        <time>2020-02-08T10:25:31.359Z</time>
      </trkpt>
      <trkpt lat="39.03212" lon="-0.367845">
        <ele>192.947</ele>
        <time>2020-02-08T10:25:32.359Z</time>
      </trkpt>
      <trkpt lat="39.03216667" lon="-0.36781833">
        <ele>192.947</ele>
        <time>2020-02-08T10:25:33.359Z</time>
      </trkpt>
      <trkpt lat="39.03216667" lon="-0.36781833">
        <ele>192.947</ele>
        <time>2020-02-08T10:25:34.359Z</time>
      </trkpt>
      <trkpt lat="39.03225667" lon="-0.36775667">
        <ele>192.947</ele>
        <time>2020-02-08T10:25:35.359Z</time>
      </trkpt>
      <trkpt lat="39.03225667" lon="-0.36775667">
        <ele>192.947</ele>
        <time>2020-02-08T10:25:36.359Z</time>
      </trkpt>
      <trkpt lat="39.03234" lon="-0.36769833">
        <ele>192.947</ele>
        <time>2020-02-08T10:25:37.359Z</time>
      </trkpt>
      <trkpt lat="39.03234" lon="-0.36769833">
        <ele>193.947</ele>
        <time>2020-02-08T10:25:38.359Z</time>
      </trkpt>
      <trkpt lat="39.03242167" lon="-0.367635">
        <ele>193.947</ele>
        <time>2020-02-08T10:25:39.359Z</time>
      </trkpt>
      <trkpt lat="39.03242167" lon="-0.367635">
        <ele>193.947</ele>
        <time>2020-02-08T10:25:40.359Z</time>
      </trkpt>
      <trkpt lat="39.032505" lon="-0.367565">
        <ele>193.947</ele>
        <time>2020-02-08T10:25:41.359Z</time>
      </trkpt>
      <trkpt lat="39.03255" lon="-0.36752833">
        <ele>193.947</ele>
        <time>2020-02-08T10:25:42.359Z</time>
      </trkpt>
      <trkpt lat="39.03259167" lon="-0.367495">
        <ele>193.947</ele>
        <time>2020-02-08T10:25:43.359Z</time>
      </trkpt>
      <trkpt lat="39.03259167" lon="-0.367495">
        <ele>193.947</ele>
        <time>2020-02-08T10:25:44.359Z</time>
      </trkpt>
      <trkpt lat="39.032675" lon="-0.367425">
        <ele>193.947</ele>
        <time>2020-02-08T10:25:45.359Z</time>
      </trkpt>
      <trkpt lat="39.032715" lon="-0.36739">
        <ele>194.947</ele>
        <time>2020-02-08T10:25:46.359Z</time>
      </trkpt>
      <trkpt lat="39.032715" lon="-0.36739">
        <ele>194.947</ele>
        <time>2020-02-08T10:25:47.359Z</time>
      </trkpt>
      <trkpt lat="39.03279" lon="-0.36731667">
        <ele>194.947</ele>
        <time>2020-02-08T10:25:48.359Z</time>
      </trkpt>
      <trkpt lat="39.032825" lon="-0.367275">
        <ele>194.947</ele>
        <time>2020-02-08T10:25:49.359Z</time>
      </trkpt>
      <trkpt lat="39.032825" lon="-0.367275">
        <ele>194.947</ele>
        <time>2020-02-08T10:25:50.359Z</time>
      </trkpt>
      <trkpt lat="39.03289" lon="-0.36718333">
        <ele>194.947</ele>
        <time>2020-02-08T10:25:51.359Z</time>
      </trkpt>
      <trkpt lat="39.03289" lon="-0.36718333">
        <ele>194.947</ele>
        <time>2020-02-08T10:25:52.359Z</time>
      </trkpt>
      <trkpt lat="39.032945" lon="-0.3671">
        <ele>195.947</ele>
        <time>2020-02-08T10:25:53.359Z</time>
      </trkpt>
      <trkpt lat="39.03297" lon="-0.36705833">
        <ele>195.947</ele>
        <time>2020-02-08T10:25:54.359Z</time>
      </trkpt>
      <trkpt lat="39.03297" lon="-0.36705833">
        <ele>195.947</ele>
        <time>2020-02-08T10:25:55.359Z</time>
      </trkpt>
      <trkpt lat="39.03301833" lon="-0.366965">
        <ele>195.947</ele>
        <time>2020-02-08T10:25:56.359Z</time>
      </trkpt>
      <trkpt lat="39.03301833" lon="-0.366965">
        <ele>196.947</ele>
        <time>2020-02-08T10:25:57.359Z</time>
      </trkpt>
      <trkpt lat="39.03304833" lon="-0.36687333">
        <ele>196.947</ele>
        <time>2020-02-08T10:25:58.359Z</time>
      </trkpt>
      <trkpt lat="39.03304833" lon="-0.36687333">
        <ele>196.947</ele>
        <time>2020-02-08T10:25:59.359Z</time>
      </trkpt>
      <trkpt lat="39.033065" lon="-0.36678833">
        <ele>196.947</ele>
        <time>2020-02-08T10:26:00.359Z</time>
      </trkpt>
      <trkpt lat="39.03307333" lon="-0.366745">
        <ele>197.947</ele>
        <time>2020-02-08T10:26:01.359Z</time>
      </trkpt>
      <trkpt lat="39.03307333" lon="-0.366745">
        <ele>197.947</ele>
        <time>2020-02-08T10:26:02.359Z</time>
      </trkpt>
      <trkpt lat="39.03309167" lon="-0.366655">
        <ele>197.947</ele>
        <time>2020-02-08T10:26:03.359Z</time>
      </trkpt>
      <trkpt lat="39.03309167" lon="-0.366655">
        <ele>197.947</ele>
        <time>2020-02-08T10:26:04.359Z</time>
      </trkpt>
      <trkpt lat="39.03311167" lon="-0.36656">
        <ele>197.947</ele>
        <time>2020-02-08T10:26:05.359Z</time>
      </trkpt>
      <trkpt lat="39.03312167" lon="-0.366515">
        <ele>197.947</ele>
        <time>2020-02-08T10:26:06.359Z</time>
      </trkpt>
      <trkpt lat="39.03312167" lon="-0.366515">
        <ele>198.947</ele>
        <time>2020-02-08T10:26:07.359Z</time>
      </trkpt>
      <trkpt lat="39.033145" lon="-0.36643167">
        <ele>198.947</ele>
        <time>2020-02-08T10:26:08.359Z</time>
      </trkpt>
      <trkpt lat="39.033145" lon="-0.36643167">
        <ele>198.947</ele>
        <time>2020-02-08T10:26:09.359Z</time>
      </trkpt>
      <trkpt lat="39.03316667" lon="-0.36634833">
        <ele>198.947</ele>
        <time>2020-02-08T10:26:10.359Z</time>
      </trkpt>
      <trkpt lat="39.03316667" lon="-0.36634833">
        <ele>199.947</ele>
        <time>2020-02-08T10:26:11.359Z</time>
      </trkpt>
      <trkpt lat="39.03319" lon="-0.36625167">
        <ele>199.947</ele>
        <time>2020-02-08T10:26:12.359Z</time>
      </trkpt>
      <trkpt lat="39.0332" lon="-0.366205">
        <ele>199.947</ele>
        <time>2020-02-08T10:26:13.359Z</time>
      </trkpt>
      <trkpt lat="39.0332" lon="-0.366205">
        <ele>199.947</ele>
        <time>2020-02-08T10:26:14.359Z</time>
      </trkpt>
      <trkpt lat="39.03321167" lon="-0.36612333">
        <ele>200.947</ele>
        <time>2020-02-08T10:26:15.359Z</time>
      </trkpt>
      <trkpt lat="39.03321833" lon="-0.36608167">
        <ele>200.947</ele>
        <time>2020-02-08T10:26:16.359Z</time>
      </trkpt>
      <trkpt lat="39.03321833" lon="-0.36608167">
        <ele>200.947</ele>
        <time>2020-02-08T10:26:17.359Z</time>
      </trkpt>
      <trkpt lat="39.033235" lon="-0.365995">
        <ele>201.947</ele>
        <time>2020-02-08T10:26:18.359Z</time>
      </trkpt>
      <trkpt lat="39.033235" lon="-0.365995">
        <ele>201.947</ele>
        <time>2020-02-08T10:26:19.359Z</time>
      </trkpt>
      <trkpt lat="39.03324667" lon="-0.36591167">
        <ele>201.947</ele>
        <time>2020-02-08T10:26:20.359Z</time>
      </trkpt>
      <trkpt lat="39.03324667" lon="-0.36591167">
        <ele>201.947</ele>
        <time>2020-02-08T10:26:21.359Z</time>
      </trkpt>
      <trkpt lat="39.03326833" lon="-0.36580833">
        <ele>201.947</ele>
        <time>2020-02-08T10:26:22.359Z</time>
      </trkpt>
      <trkpt lat="39.03326833" lon="-0.36580833">
        <ele>201.947</ele>
        <time>2020-02-08T10:26:23.359Z</time>
      </trkpt>
      <trkpt lat="39.03328833" lon="-0.36570667">
        <ele>201.947</ele>
        <time>2020-02-08T10:26:24.359Z</time>
      </trkpt>
      <trkpt lat="39.03328833" lon="-0.36570667">
        <ele>202.947</ele>
        <time>2020-02-08T10:26:25.359Z</time>
      </trkpt>
      <trkpt lat="39.03330167" lon="-0.36560167">
        <ele>202.947</ele>
        <time>2020-02-08T10:26:26.359Z</time>
      </trkpt>
      <trkpt lat="39.03330167" lon="-0.36560167">
        <ele>202.947</ele>
        <time>2020-02-08T10:26:27.359Z</time>
      </trkpt>
      <trkpt lat="39.03332167" lon="-0.36550167">
        <ele>202.947</ele>
        <time>2020-02-08T10:26:28.359Z</time>
      </trkpt>
      <trkpt lat="39.03332833" lon="-0.36545167">
        <ele>203.947</ele>
        <time>2020-02-08T10:26:29.359Z</time>
      </trkpt>
      <trkpt lat="39.03332833" lon="-0.36545167">
        <ele>203.947</ele>
        <time>2020-02-08T10:26:30.359Z</time>
      </trkpt>
      <trkpt lat="39.03333" lon="-0.365365">
        <ele>203.947</ele>
        <time>2020-02-08T10:26:31.359Z</time>
      </trkpt>
      <trkpt lat="39.03333167" lon="-0.36531333">
        <ele>203.947</ele>
        <time>2020-02-08T10:26:32.359Z</time>
      </trkpt>
      <trkpt lat="39.03333167" lon="-0.36531333">
        <ele>204.947</ele>
        <time>2020-02-08T10:26:33.359Z</time>
      </trkpt>
      <trkpt lat="39.033335" lon="-0.36521667">
        <ele>204.947</ele>
        <time>2020-02-08T10:26:34.359Z</time>
      </trkpt>
      <trkpt lat="39.03333667" lon="-0.365165">
        <ele>204.947</ele>
        <time>2020-02-08T10:26:35.359Z</time>
      </trkpt>
      <trkpt lat="39.03333667" lon="-0.365165">
        <ele>204.947</ele>
        <time>2020-02-08T10:26:36.359Z</time>
      </trkpt>
      <trkpt lat="39.03334833" lon="-0.36507667">
        <ele>205.947</ele>
        <time>2020-02-08T10:26:37.359Z</time>
      </trkpt>
      <trkpt lat="39.033355" lon="-0.36503167">
        <ele>205.947</ele>
        <time>2020-02-08T10:26:38.359Z</time>
      </trkpt>
      <trkpt lat="39.033355" lon="-0.36503167">
        <ele>205.947</ele>
        <time>2020-02-08T10:26:39.359Z</time>
      </trkpt>
      <trkpt lat="39.03337167" lon="-0.364945">
        <ele>205.947</ele>
        <time>2020-02-08T10:26:40.359Z</time>
      </trkpt>
      <trkpt lat="39.03337167" lon="-0.364945">
        <ele>206.947</ele>
        <time>2020-02-08T10:26:41.359Z</time>
      </trkpt>
      <trkpt lat="39.03341" lon="-0.36486333">
        <ele>206.947</ele>
        <time>2020-02-08T10:26:42.359Z</time>
      </trkpt>
      <trkpt lat="39.03341" lon="-0.36486333">
        <ele>206.947</ele>
        <time>2020-02-08T10:26:43.359Z</time>
      </trkpt>
      <trkpt lat="39.03346" lon="-0.3648">
        <ele>206.947</ele>
        <time>2020-02-08T10:26:44.359Z</time>
      </trkpt>
      <trkpt lat="39.03346" lon="-0.3648">
        <ele>207.947</ele>
        <time>2020-02-08T10:26:45.359Z</time>
      </trkpt>
      <trkpt lat="39.03351833" lon="-0.36475333">
        <ele>207.947</ele>
        <time>2020-02-08T10:26:46.359Z</time>
      </trkpt>
      <trkpt lat="39.03351833" lon="-0.36475333">
        <ele>207.947</ele>
        <time>2020-02-08T10:26:47.359Z</time>
      </trkpt>
      <trkpt lat="39.03358333" lon="-0.36472">
        <ele>208.947</ele>
        <time>2020-02-08T10:26:48.359Z</time>
      </trkpt>
      <trkpt lat="39.03358333" lon="-0.36472">
        <ele>208.947</ele>
        <time>2020-02-08T10:26:49.359Z</time>
      </trkpt>
      <trkpt lat="39.033655" lon="-0.36469667">
        <ele>208.947</ele>
        <time>2020-02-08T10:26:50.359Z</time>
      </trkpt>
      <trkpt lat="39.033655" lon="-0.36469667">
        <ele>208.947</ele>
        <time>2020-02-08T10:26:51.359Z</time>
      </trkpt>
      <trkpt lat="39.03372833" lon="-0.364675">
        <ele>209.947</ele>
        <time>2020-02-08T10:26:52.359Z</time>
      </trkpt>
      <trkpt lat="39.033765" lon="-0.36466667">
        <ele>209.947</ele>
        <time>2020-02-08T10:26:53.359Z</time>
      </trkpt>
      <trkpt lat="39.033765" lon="-0.36466667">
        <ele>209.947</ele>
        <time>2020-02-08T10:26:54.359Z</time>
      </trkpt>
      <trkpt lat="39.03382833" lon="-0.36464167">
        <ele>209.947</ele>
        <time>2020-02-08T10:26:55.359Z</time>
      </trkpt>
      <trkpt lat="39.03386333" lon="-0.36463">
        <ele>210.947</ele>
        <time>2020-02-08T10:26:56.359Z</time>
      </trkpt>
      <trkpt lat="39.03386333" lon="-0.36463">
        <ele>210.947</ele>
        <time>2020-02-08T10:26:57.359Z</time>
      </trkpt>
      <trkpt lat="39.03392333" lon="-0.36456833">
        <ele>210.947</ele>
        <time>2020-02-08T10:26:58.359Z</time>
      </trkpt>
      <trkpt lat="39.03392333" lon="-0.36456833">
        <ele>210.947</ele>
        <time>2020-02-08T10:26:59.359Z</time>
      </trkpt>
      <trkpt lat="39.03397667" lon="-0.36453833">
        <ele>211.947</ele>
        <time>2020-02-08T10:27:00.359Z</time>
      </trkpt>
      <trkpt lat="39.03400167" lon="-0.36451833">
        <ele>211.947</ele>
        <time>2020-02-08T10:27:01.359Z</time>
      </trkpt>
      <trkpt lat="39.03400167" lon="-0.36451833">
        <ele>211.947</ele>
        <time>2020-02-08T10:27:02.359Z</time>
      </trkpt>
      <trkpt lat="39.03405833" lon="-0.36446833">
        <ele>211.947</ele>
        <time>2020-02-08T10:27:03.359Z</time>
      </trkpt>
      <trkpt lat="39.03405833" lon="-0.36446833">
        <ele>211.947</ele>
        <time>2020-02-08T10:27:04.359Z</time>
      </trkpt>
      <trkpt lat="39.03412" lon="-0.36441833">
        <ele>212.947</ele>
        <time>2020-02-08T10:27:05.359Z</time>
      </trkpt>
      <trkpt lat="39.03415167" lon="-0.364395">
        <ele>212.947</ele>
        <time>2020-02-08T10:27:06.359Z</time>
      </trkpt>
      <trkpt lat="39.03415167" lon="-0.364395">
        <ele>212.947</ele>
        <time>2020-02-08T10:27:07.359Z</time>
      </trkpt>
      <trkpt lat="39.034215" lon="-0.364355">
        <ele>212.947</ele>
        <time>2020-02-08T10:27:08.359Z</time>
      </trkpt>
      <trkpt lat="39.034215" lon="-0.364355">
        <ele>213.947</ele>
        <time>2020-02-08T10:27:09.359Z</time>
      </trkpt>
      <trkpt lat="39.03428167" lon="-0.36430833">
        <ele>213.947</ele>
        <time>2020-02-08T10:27:10.359Z</time>
      </trkpt>
      <trkpt lat="39.034315" lon="-0.36428667">
        <ele>213.947</ele>
        <time>2020-02-08T10:27:11.359Z</time>
      </trkpt>
      <trkpt lat="39.034315" lon="-0.36428667">
        <ele>213.947</ele>
        <time>2020-02-08T10:27:12.359Z</time>
      </trkpt>
      <trkpt lat="39.03438167" lon="-0.36424">
        <ele>214.947</ele>
        <time>2020-02-08T10:27:13.359Z</time>
      </trkpt>
      <trkpt lat="39.03441333" lon="-0.36421">
        <ele>214.947</ele>
        <time>2020-02-08T10:27:14.359Z</time>
      </trkpt>
      <trkpt lat="39.03441333" lon="-0.36421">
        <ele>214.947</ele>
        <time>2020-02-08T10:27:15.359Z</time>
      </trkpt>
      <trkpt lat="39.03446833" lon="-0.36415">
        <ele>215.947</ele>
        <time>2020-02-08T10:27:16.359Z</time>
      </trkpt>
      <trkpt lat="39.034495" lon="-0.36412">
        <ele>215.947</ele>
        <time>2020-02-08T10:27:17.359Z</time>
      </trkpt>
      <trkpt lat="39.03452167" lon="-0.36408833">
        <ele>215.947</ele>
        <time>2020-02-08T10:27:18.359Z</time>
      </trkpt>
      <trkpt lat="39.03452167" lon="-0.36408833">
        <ele>215.947</ele>
        <time>2020-02-08T10:27:19.359Z</time>
      </trkpt>
      <trkpt lat="39.03457333" lon="-0.36402333">
        <ele>216.947</ele>
        <time>2020-02-08T10:27:20.359Z</time>
      </trkpt>
      <trkpt lat="39.03457333" lon="-0.36402333">
        <ele>216.947</ele>
        <time>2020-02-08T10:27:21.359Z</time>
      </trkpt>
      <trkpt lat="39.03462667" lon="-0.36395667">
        <ele>216.947</ele>
        <time>2020-02-08T10:27:22.359Z</time>
      </trkpt>
      <trkpt lat="39.03462667" lon="-0.36395667">
        <ele>216.947</ele>
        <time>2020-02-08T10:27:23.359Z</time>
      </trkpt>
      <trkpt lat="39.03467833" lon="-0.36389">
        <ele>217.947</ele>
        <time>2020-02-08T10:27:24.359Z</time>
      </trkpt>
      <trkpt lat="39.03467833" lon="-0.36389">
        <ele>217.947</ele>
        <time>2020-02-08T10:27:25.359Z</time>
      </trkpt>
      <trkpt lat="39.034735" lon="-0.36383">
        <ele>217.947</ele>
        <time>2020-02-08T10:27:26.359Z</time>
      </trkpt>
      <trkpt lat="39.034735" lon="-0.36383">
        <ele>217.947</ele>
        <time>2020-02-08T10:27:27.359Z</time>
      </trkpt>
      <trkpt lat="39.03478333" lon="-0.36375833">
        <ele>218.947</ele>
        <time>2020-02-08T10:27:28.359Z</time>
      </trkpt>
      <trkpt lat="39.03478333" lon="-0.36375833">
        <ele>218.947</ele>
        <time>2020-02-08T10:27:29.359Z</time>
      </trkpt>
      <trkpt lat="39.034835" lon="-0.363705">
        <ele>218.947</ele>
        <time>2020-02-08T10:27:30.359Z</time>
      </trkpt>
      <trkpt lat="39.034835" lon="-0.363705">
        <ele>218.947</ele>
        <time>2020-02-08T10:27:31.359Z</time>
      </trkpt>
      <trkpt lat="39.034885" lon="-0.36364833">
        <ele>219.947</ele>
        <time>2020-02-08T10:27:32.359Z</time>
      </trkpt>
      <trkpt lat="39.034885" lon="-0.36364833">
        <ele>219.947</ele>
        <time>2020-02-08T10:27:33.359Z</time>
      </trkpt>
      <trkpt lat="39.03494667" lon="-0.36359167">
        <ele>219.947</ele>
        <time>2020-02-08T10:27:34.359Z</time>
      </trkpt>
      <trkpt lat="39.03494667" lon="-0.36359167">
        <ele>219.947</ele>
        <time>2020-02-08T10:27:35.359Z</time>
      </trkpt>
      <trkpt lat="39.03500167" lon="-0.36354333">
        <ele>219.947</ele>
        <time>2020-02-08T10:27:36.359Z</time>
      </trkpt>
      <trkpt lat="39.03500167" lon="-0.36354333">
        <ele>220.947</ele>
        <time>2020-02-08T10:27:37.359Z</time>
      </trkpt>
      <trkpt lat="39.03505333" lon="-0.36348">
        <ele>220.947</ele>
        <time>2020-02-08T10:27:38.359Z</time>
      </trkpt>
      <trkpt lat="39.03508333" lon="-0.36345">
        <ele>221.947</ele>
        <time>2020-02-08T10:27:39.359Z</time>
      </trkpt>
      <trkpt lat="39.03508333" lon="-0.36345">
        <ele>221.947</ele>
        <time>2020-02-08T10:27:40.359Z</time>
      </trkpt>
      <trkpt lat="39.035135" lon="-0.36338667">
        <ele>221.947</ele>
        <time>2020-02-08T10:27:41.359Z</time>
      </trkpt>
      <trkpt lat="39.03516" lon="-0.36335">
        <ele>221.947</ele>
        <time>2020-02-08T10:27:42.359Z</time>
      </trkpt>
      <trkpt lat="39.03516" lon="-0.36335">
        <ele>222.947</ele>
        <time>2020-02-08T10:27:43.359Z</time>
      </trkpt>
      <trkpt lat="39.03520833" lon="-0.36328">
        <ele>222.947</ele>
        <time>2020-02-08T10:27:44.359Z</time>
      </trkpt>
      <trkpt lat="39.03520833" lon="-0.36328">
        <ele>222.947</ele>
        <time>2020-02-08T10:27:45.359Z</time>
      </trkpt>
      <trkpt lat="39.03525333" lon="-0.36320167">
        <ele>222.947</ele>
        <time>2020-02-08T10:27:46.359Z</time>
      </trkpt>
      <trkpt lat="39.03525333" lon="-0.36320167">
        <ele>223.947</ele>
        <time>2020-02-08T10:27:47.359Z</time>
      </trkpt>
      <trkpt lat="39.03529" lon="-0.36312">
        <ele>223.947</ele>
        <time>2020-02-08T10:27:48.359Z</time>
      </trkpt>
      <trkpt lat="39.03529" lon="-0.36312">
        <ele>223.947</ele>
        <time>2020-02-08T10:27:49.359Z</time>
      </trkpt>
      <trkpt lat="39.03533" lon="-0.36304167">
        <ele>223.947</ele>
        <time>2020-02-08T10:27:50.359Z</time>
      </trkpt>
      <trkpt lat="39.03533" lon="-0.36304167">
        <ele>224.947</ele>
        <time>2020-02-08T10:27:51.359Z</time>
      </trkpt>
      <trkpt lat="39.03537" lon="-0.36295833">
        <ele>224.947</ele>
        <time>2020-02-08T10:27:52.359Z</time>
      </trkpt>
      <trkpt lat="39.03539167" lon="-0.36291667">
        <ele>224.947</ele>
        <time>2020-02-08T10:27:53.359Z</time>
      </trkpt>
      <trkpt lat="39.03541333" lon="-0.362875">
        <ele>224.947</ele>
        <time>2020-02-08T10:27:54.359Z</time>
      </trkpt>
      <trkpt lat="39.03541333" lon="-0.362875">
        <ele>225.947</ele>
        <time>2020-02-08T10:27:55.359Z</time>
      </trkpt>
      <trkpt lat="39.03545" lon="-0.36278833">
        <ele>225.947</ele>
        <time>2020-02-08T10:27:56.359Z</time>
      </trkpt>
      <trkpt lat="39.03545" lon="-0.36278833">
        <ele>225.947</ele>
        <time>2020-02-08T10:27:57.359Z</time>
      </trkpt>
      <trkpt lat="39.03548" lon="-0.36270167">
        <ele>225.947</ele>
        <time>2020-02-08T10:27:58.359Z</time>
      </trkpt>
      <trkpt lat="39.03549833" lon="-0.36265">
        <ele>226.947</ele>
        <time>2020-02-08T10:27:59.359Z</time>
      </trkpt>
      <trkpt lat="39.03551833" lon="-0.36259833">
        <ele>226.947</ele>
        <time>2020-02-08T10:28:00.359Z</time>
      </trkpt>
      <trkpt lat="39.03551833" lon="-0.36259833">
        <ele>226.947</ele>
        <time>2020-02-08T10:28:01.359Z</time>
      </trkpt>
      <trkpt lat="39.03555167" lon="-0.362515">
        <ele>226.947</ele>
        <time>2020-02-08T10:28:02.359Z</time>
      </trkpt>
      <trkpt lat="39.03555167" lon="-0.362515">
        <ele>226.947</ele>
        <time>2020-02-08T10:28:03.359Z</time>
      </trkpt>
      <trkpt lat="39.03558833" lon="-0.36244167">
        <ele>226.947</ele>
        <time>2020-02-08T10:28:04.359Z</time>
      </trkpt>
      <trkpt lat="39.03558833" lon="-0.36244167">
        <ele>226.947</ele>
        <time>2020-02-08T10:28:05.359Z</time>
      </trkpt>
      <trkpt lat="39.03562333" lon="-0.36236333">
        <ele>226.947</ele>
        <time>2020-02-08T10:28:06.359Z</time>
      </trkpt>
      <trkpt lat="39.03562333" lon="-0.36236333">
        <ele>227.947</ele>
        <time>2020-02-08T10:28:07.359Z</time>
      </trkpt>
      <trkpt lat="39.03565833" lon="-0.36227667">
        <ele>227.947</ele>
        <time>2020-02-08T10:28:08.359Z</time>
      </trkpt>
      <trkpt lat="39.03565833" lon="-0.36227667">
        <ele>227.947</ele>
        <time>2020-02-08T10:28:09.359Z</time>
      </trkpt>
      <trkpt lat="39.03569" lon="-0.36218667">
        <ele>227.947</ele>
        <time>2020-02-08T10:28:10.359Z</time>
      </trkpt>
      <trkpt lat="39.035705" lon="-0.36214333">
        <ele>227.947</ele>
        <time>2020-02-08T10:28:11.359Z</time>
      </trkpt>
      <trkpt lat="39.035705" lon="-0.36214333">
        <ele>228.947</ele>
        <time>2020-02-08T10:28:12.359Z</time>
      </trkpt>
      <trkpt lat="39.03573167" lon="-0.36205167">
        <ele>228.947</ele>
        <time>2020-02-08T10:28:13.359Z</time>
      </trkpt>
      <trkpt lat="39.03574333" lon="-0.362005">
        <ele>228.947</ele>
        <time>2020-02-08T10:28:14.359Z</time>
      </trkpt>
      <trkpt lat="39.035755" lon="-0.361955">
        <ele>228.947</ele>
        <time>2020-02-08T10:28:15.359Z</time>
      </trkpt>
      <trkpt lat="39.035755" lon="-0.361955">
        <ele>229.947</ele>
        <time>2020-02-08T10:28:16.359Z</time>
      </trkpt>
      <trkpt lat="39.03577667" lon="-0.36185167">
        <ele>229.947</ele>
        <time>2020-02-08T10:28:17.359Z</time>
      </trkpt>
      <trkpt lat="39.03577667" lon="-0.36185167">
        <ele>229.947</ele>
        <time>2020-02-08T10:28:18.359Z</time>
      </trkpt>
      <trkpt lat="39.035795" lon="-0.361755">
        <ele>229.947</ele>
        <time>2020-02-08T10:28:19.359Z</time>
      </trkpt>
      <trkpt lat="39.035805" lon="-0.36170333">
        <ele>230.947</ele>
        <time>2020-02-08T10:28:20.359Z</time>
      </trkpt>
      <trkpt lat="39.03581" lon="-0.36165">
        <ele>230.947</ele>
        <time>2020-02-08T10:28:21.359Z</time>
      </trkpt>
      <trkpt lat="39.03581" lon="-0.36165">
        <ele>230.947</ele>
        <time>2020-02-08T10:28:22.359Z</time>
      </trkpt>
      <trkpt lat="39.03581667" lon="-0.36154667">
        <ele>230.947</ele>
        <time>2020-02-08T10:28:23.359Z</time>
      </trkpt>
      <trkpt lat="39.03581333" lon="-0.361495">
        <ele>231.947</ele>
        <time>2020-02-08T10:28:24.359Z</time>
      </trkpt>
      <trkpt lat="39.03581333" lon="-0.361495">
        <ele>231.947</ele>
        <time>2020-02-08T10:28:25.359Z</time>
      </trkpt>
      <trkpt lat="39.03580667" lon="-0.36139167">
        <ele>231.947</ele>
        <time>2020-02-08T10:28:26.359Z</time>
      </trkpt>
      <trkpt lat="39.03580667" lon="-0.36139167">
        <ele>232.947</ele>
        <time>2020-02-08T10:28:27.359Z</time>
      </trkpt>
      <trkpt lat="39.03580167" lon="-0.36129667">
        <ele>232.947</ele>
        <time>2020-02-08T10:28:28.359Z</time>
      </trkpt>
      <trkpt lat="39.03580333" lon="-0.36124833">
        <ele>232.947</ele>
        <time>2020-02-08T10:28:29.359Z</time>
      </trkpt>
      <trkpt lat="39.03580667" lon="-0.36119667">
        <ele>232.947</ele>
        <time>2020-02-08T10:28:30.359Z</time>
      </trkpt>
      <trkpt lat="39.03580667" lon="-0.36119667">
        <ele>233.947</ele>
        <time>2020-02-08T10:28:31.359Z</time>
      </trkpt>
      <trkpt lat="39.03583" lon="-0.3611">
        <ele>233.947</ele>
        <time>2020-02-08T10:28:32.359Z</time>
      </trkpt>
      <trkpt lat="39.03583" lon="-0.3611">
        <ele>233.947</ele>
        <time>2020-02-08T10:28:33.359Z</time>
      </trkpt>
      <trkpt lat="39.035855" lon="-0.36101167">
        <ele>233.947</ele>
        <time>2020-02-08T10:28:34.359Z</time>
      </trkpt>
      <trkpt lat="39.035855" lon="-0.36101167">
        <ele>233.947</ele>
        <time>2020-02-08T10:28:35.359Z</time>
      </trkpt>
      <trkpt lat="39.03588333" lon="-0.36093">
        <ele>233.947</ele>
        <time>2020-02-08T10:28:36.359Z</time>
      </trkpt>
      <trkpt lat="39.03588333" lon="-0.36093">
        <ele>233.947</ele>
        <time>2020-02-08T10:28:37.359Z</time>
      </trkpt>
      <trkpt lat="39.03591667" lon="-0.36084667">
        <ele>233.947</ele>
        <time>2020-02-08T10:28:38.359Z</time>
      </trkpt>
      <trkpt lat="39.03591667" lon="-0.36084667">
        <ele>234.947</ele>
        <time>2020-02-08T10:28:39.359Z</time>
      </trkpt>
      <trkpt lat="39.03595167" lon="-0.36076167">
        <ele>234.947</ele>
        <time>2020-02-08T10:28:40.359Z</time>
      </trkpt>
      <trkpt lat="39.03597" lon="-0.36072167">
        <ele>234.947</ele>
        <time>2020-02-08T10:28:41.359Z</time>
      </trkpt>
      <trkpt lat="39.03599" lon="-0.36068167">
        <ele>235.947</ele>
        <time>2020-02-08T10:28:42.359Z</time>
      </trkpt>
      <trkpt lat="39.03599" lon="-0.36068167">
        <ele>235.947</ele>
        <time>2020-02-08T10:28:43.359Z</time>
      </trkpt>
      <trkpt lat="39.03604333" lon="-0.360615">
        <ele>235.947</ele>
        <time>2020-02-08T10:28:44.359Z</time>
      </trkpt>
      <trkpt lat="39.03604333" lon="-0.360615">
        <ele>235.947</ele>
        <time>2020-02-08T10:28:45.359Z</time>
      </trkpt>
      <trkpt lat="39.03611333" lon="-0.360565">
        <ele>236.947</ele>
        <time>2020-02-08T10:28:46.359Z</time>
      </trkpt>
      <trkpt lat="39.03614667" lon="-0.36053833">
        <ele>236.947</ele>
        <time>2020-02-08T10:28:47.359Z</time>
      </trkpt>
      <trkpt lat="39.03614667" lon="-0.36053833">
        <ele>236.947</ele>
        <time>2020-02-08T10:28:48.359Z</time>
      </trkpt>
      <trkpt lat="39.03620833" lon="-0.36047333">
        <ele>236.947</ele>
        <time>2020-02-08T10:28:49.359Z</time>
      </trkpt>
      <trkpt lat="39.03623333" lon="-0.36043667">
        <ele>237.947</ele>
        <time>2020-02-08T10:28:50.359Z</time>
      </trkpt>
      <trkpt lat="39.03623333" lon="-0.36043667">
        <ele>237.947</ele>
        <time>2020-02-08T10:28:51.359Z</time>
      </trkpt>
      <trkpt lat="39.03626833" lon="-0.36035">
        <ele>237.947</ele>
        <time>2020-02-08T10:28:52.359Z</time>
      </trkpt>
      <trkpt lat="39.03626833" lon="-0.36035">
        <ele>237.947</ele>
        <time>2020-02-08T10:28:53.359Z</time>
      </trkpt>
      <trkpt lat="39.03629667" lon="-0.36025833">
        <ele>237.947</ele>
        <time>2020-02-08T10:28:54.359Z</time>
      </trkpt>
      <trkpt lat="39.03629667" lon="-0.36025833">
        <ele>239.947</ele>
        <time>2020-02-08T10:28:55.359Z</time>
      </trkpt>
      <trkpt lat="39.03632667" lon="-0.360165">
        <ele>239.947</ele>
        <time>2020-02-08T10:28:56.359Z</time>
      </trkpt>
      <trkpt lat="39.03632667" lon="-0.360165">
        <ele>239.947</ele>
        <time>2020-02-08T10:28:57.359Z</time>
      </trkpt>
      <trkpt lat="39.03635667" lon="-0.360065">
        <ele>239.947</ele>
        <time>2020-02-08T10:28:58.359Z</time>
      </trkpt>
      <trkpt lat="39.03637167" lon="-0.36001667">
        <ele>240.947</ele>
        <time>2020-02-08T10:28:59.359Z</time>
      </trkpt>
      <trkpt lat="39.03637167" lon="-0.36001667">
        <ele>240.947</ele>
        <time>2020-02-08T10:29:00.359Z</time>
      </trkpt>
      <trkpt lat="39.03639667" lon="-0.35991833">
        <ele>240.947</ele>
        <time>2020-02-08T10:29:01.359Z</time>
      </trkpt>
      <trkpt lat="39.03640667" lon="-0.35986833">
        <ele>240.947</ele>
        <time>2020-02-08T10:29:02.359Z</time>
      </trkpt>
      <trkpt lat="39.03640667" lon="-0.35986833">
        <ele>242.947</ele>
        <time>2020-02-08T10:29:03.359Z</time>
      </trkpt>
      <trkpt lat="39.03642167" lon="-0.35977">
        <ele>242.947</ele>
        <time>2020-02-08T10:29:04.359Z</time>
      </trkpt>
      <trkpt lat="39.03642167" lon="-0.35977">
        <ele>242.947</ele>
        <time>2020-02-08T10:29:05.359Z</time>
      </trkpt>
      <trkpt lat="39.03643" lon="-0.35966833">
        <ele>242.947</ele>
        <time>2020-02-08T10:29:06.359Z</time>
      </trkpt>
      <trkpt lat="39.03643" lon="-0.35966833">
        <ele>243.947</ele>
        <time>2020-02-08T10:29:07.359Z</time>
      </trkpt>
      <trkpt lat="39.03644333" lon="-0.35957167">
        <ele>243.947</ele>
        <time>2020-02-08T10:29:08.359Z</time>
      </trkpt>
      <trkpt lat="39.03644333" lon="-0.35957167">
        <ele>243.947</ele>
        <time>2020-02-08T10:29:09.359Z</time>
      </trkpt>
      <trkpt lat="39.03647167" lon="-0.35947833">
        <ele>243.947</ele>
        <time>2020-02-08T10:29:10.359Z</time>
      </trkpt>
      <trkpt lat="39.03647167" lon="-0.35947833">
        <ele>244.947</ele>
        <time>2020-02-08T10:29:11.359Z</time>
      </trkpt>
      <trkpt lat="39.036505" lon="-0.35938667">
        <ele>244.947</ele>
        <time>2020-02-08T10:29:12.359Z</time>
      </trkpt>
      <trkpt lat="39.036505" lon="-0.35938667">
        <ele>244.947</ele>
        <time>2020-02-08T10:29:13.359Z</time>
      </trkpt>
      <trkpt lat="39.03653667" lon="-0.35929833">
        <ele>244.947</ele>
        <time>2020-02-08T10:29:14.359Z</time>
      </trkpt>
      <trkpt lat="39.03653667" lon="-0.35929833">
        <ele>245.947</ele>
        <time>2020-02-08T10:29:15.359Z</time>
      </trkpt>
      <trkpt lat="39.03655667" lon="-0.359205">
        <ele>245.947</ele>
        <time>2020-02-08T10:29:16.359Z</time>
      </trkpt>
      <trkpt lat="39.03655667" lon="-0.359205">
        <ele>245.947</ele>
        <time>2020-02-08T10:29:17.359Z</time>
      </trkpt>
      <trkpt lat="39.03658" lon="-0.35910833">
        <ele>245.947</ele>
        <time>2020-02-08T10:29:18.359Z</time>
      </trkpt>
      <trkpt lat="39.03658" lon="-0.35910833">
        <ele>246.947</ele>
        <time>2020-02-08T10:29:19.359Z</time>
      </trkpt>
      <trkpt lat="39.03661" lon="-0.359015">
        <ele>246.947</ele>
        <time>2020-02-08T10:29:20.359Z</time>
      </trkpt>
      <trkpt lat="39.03661" lon="-0.359015">
        <ele>246.947</ele>
        <time>2020-02-08T10:29:21.359Z</time>
      </trkpt>
      <trkpt lat="39.036645" lon="-0.35893">
        <ele>246.947</ele>
        <time>2020-02-08T10:29:22.359Z</time>
      </trkpt>
      <trkpt lat="39.03665833" lon="-0.358885">
        <ele>247.947</ele>
        <time>2020-02-08T10:29:23.359Z</time>
      </trkpt>
      <trkpt lat="39.03665833" lon="-0.358885">
        <ele>247.947</ele>
        <time>2020-02-08T10:29:24.359Z</time>
      </trkpt>
      <trkpt lat="39.036695" lon="-0.3588">
        <ele>247.947</ele>
        <time>2020-02-08T10:29:25.359Z</time>
      </trkpt>
      <trkpt lat="39.03671833" lon="-0.35876333">
        <ele>247.947</ele>
        <time>2020-02-08T10:29:26.359Z</time>
      </trkpt>
      <trkpt lat="39.03671833" lon="-0.35876333">
        <ele>248.947</ele>
        <time>2020-02-08T10:29:27.359Z</time>
      </trkpt>
      <trkpt lat="39.036775" lon="-0.35869167">
        <ele>248.947</ele>
        <time>2020-02-08T10:29:28.359Z</time>
      </trkpt>
      <trkpt lat="39.036775" lon="-0.35869167">
        <ele>248.947</ele>
        <time>2020-02-08T10:29:29.359Z</time>
      </trkpt>
      <trkpt lat="39.03684167" lon="-0.35862167">
        <ele>248.947</ele>
        <time>2020-02-08T10:29:30.359Z</time>
      </trkpt>
      <trkpt lat="39.03684167" lon="-0.35862167">
        <ele>248.947</ele>
        <time>2020-02-08T10:29:31.359Z</time>
      </trkpt>
      <trkpt lat="39.036895" lon="-0.35855667">
        <ele>248.947</ele>
        <time>2020-02-08T10:29:32.359Z</time>
      </trkpt>
      <trkpt lat="39.036895" lon="-0.35855667">
        <ele>249.947</ele>
        <time>2020-02-08T10:29:33.359Z</time>
      </trkpt>
      <trkpt lat="39.036955" lon="-0.35849167">
        <ele>249.947</ele>
        <time>2020-02-08T10:29:34.359Z</time>
      </trkpt>
      <trkpt lat="39.03698333" lon="-0.35846">
        <ele>249.947</ele>
        <time>2020-02-08T10:29:35.359Z</time>
      </trkpt>
      <trkpt lat="39.03698333" lon="-0.35846">
        <ele>249.947</ele>
        <time>2020-02-08T10:29:36.359Z</time>
      </trkpt>
      <trkpt lat="39.03704333" lon="-0.3584">
        <ele>250.947</ele>
        <time>2020-02-08T10:29:37.359Z</time>
      </trkpt>
      <trkpt lat="39.03707333" lon="-0.35836667">
        <ele>250.947</ele>
        <time>2020-02-08T10:29:38.359Z</time>
      </trkpt>
      <trkpt lat="39.03707333" lon="-0.35836667">
        <ele>250.947</ele>
        <time>2020-02-08T10:29:39.359Z</time>
      </trkpt>
      <trkpt lat="39.03712833" lon="-0.35829667">
        <ele>251.947</ele>
        <time>2020-02-08T10:29:40.359Z</time>
      </trkpt>
      <trkpt lat="39.03712833" lon="-0.35829667">
        <ele>251.947</ele>
        <time>2020-02-08T10:29:41.359Z</time>
      </trkpt>
      <trkpt lat="39.03718333" lon="-0.358225">
        <ele>251.947</ele>
        <time>2020-02-08T10:29:42.359Z</time>
      </trkpt>
      <trkpt lat="39.03718333" lon="-0.358225">
        <ele>251.947</ele>
        <time>2020-02-08T10:29:43.359Z</time>
      </trkpt>
      <trkpt lat="39.03723833" lon="-0.35815833">
        <ele>252.947</ele>
        <time>2020-02-08T10:29:44.359Z</time>
      </trkpt>
      <trkpt lat="39.03723833" lon="-0.35815833">
        <ele>252.947</ele>
        <time>2020-02-08T10:29:45.359Z</time>
      </trkpt>
      <trkpt lat="39.037295" lon="-0.35809">
        <ele>252.947</ele>
        <time>2020-02-08T10:29:46.359Z</time>
      </trkpt>
      <trkpt lat="39.037295" lon="-0.35809">
        <ele>252.947</ele>
        <time>2020-02-08T10:29:47.359Z</time>
      </trkpt>
      <trkpt lat="39.03734833" lon="-0.35802333">
        <ele>253.947</ele>
        <time>2020-02-08T10:29:48.359Z</time>
      </trkpt>
      <trkpt lat="39.03734833" lon="-0.35802333">
        <ele>253.947</ele>
        <time>2020-02-08T10:29:49.359Z</time>
      </trkpt>
      <trkpt lat="39.03739667" lon="-0.35795667">
        <ele>253.947</ele>
        <time>2020-02-08T10:29:50.359Z</time>
      </trkpt>
      <trkpt lat="39.03739667" lon="-0.35795667">
        <ele>253.947</ele>
        <time>2020-02-08T10:29:51.359Z</time>
      </trkpt>
      <trkpt lat="39.03745" lon="-0.35789167">
        <ele>254.947</ele>
        <time>2020-02-08T10:29:52.359Z</time>
      </trkpt>
      <trkpt lat="39.03745" lon="-0.35789167">
        <ele>254.947</ele>
        <time>2020-02-08T10:29:53.359Z</time>
      </trkpt>
      <trkpt lat="39.03750333" lon="-0.35782167">
        <ele>254.947</ele>
        <time>2020-02-08T10:29:54.359Z</time>
      </trkpt>
      <trkpt lat="39.03753" lon="-0.35778667">
        <ele>254.947</ele>
        <time>2020-02-08T10:29:55.359Z</time>
      </trkpt>
      <trkpt lat="39.03753" lon="-0.35778667">
        <ele>255.947</ele>
        <time>2020-02-08T10:29:56.359Z</time>
      </trkpt>
      <trkpt lat="39.03758833" lon="-0.35771667">
        <ele>255.947</ele>
        <time>2020-02-08T10:29:57.359Z</time>
      </trkpt>
      <trkpt lat="39.03758833" lon="-0.35771667">
        <ele>255.947</ele>
        <time>2020-02-08T10:29:58.359Z</time>
      </trkpt>
      <trkpt lat="39.03764333" lon="-0.35765333">
        <ele>255.947</ele>
        <time>2020-02-08T10:29:59.359Z</time>
      </trkpt>
      <trkpt lat="39.03766833" lon="-0.35761833">
        <ele>256.947</ele>
        <time>2020-02-08T10:30:00.359Z</time>
      </trkpt>
      <trkpt lat="39.03766833" lon="-0.35761833">
        <ele>256.947</ele>
        <time>2020-02-08T10:30:01.359Z</time>
      </trkpt>
      <trkpt lat="39.03771667" lon="-0.357555">
        <ele>256.947</ele>
        <time>2020-02-08T10:30:02.359Z</time>
      </trkpt>
      <trkpt lat="39.03771667" lon="-0.357555">
        <ele>256.947</ele>
        <time>2020-02-08T10:30:03.359Z</time>
      </trkpt>
      <trkpt lat="39.03776333" lon="-0.35748833">
        <ele>258.947</ele>
        <time>2020-02-08T10:30:04.359Z</time>
      </trkpt>
      <trkpt lat="39.03776333" lon="-0.35748833">
        <ele>258.947</ele>
        <time>2020-02-08T10:30:05.359Z</time>
      </trkpt>
      <trkpt lat="39.03780833" lon="-0.35741833">
        <ele>258.947</ele>
        <time>2020-02-08T10:30:06.359Z</time>
      </trkpt>
      <trkpt lat="39.03780833" lon="-0.35741833">
        <ele>258.947</ele>
        <time>2020-02-08T10:30:07.359Z</time>
      </trkpt>
      <trkpt lat="39.03785333" lon="-0.357355">
        <ele>258.947</ele>
        <time>2020-02-08T10:30:08.359Z</time>
      </trkpt>
      <trkpt lat="39.03785333" lon="-0.357355">
        <ele>258.947</ele>
        <time>2020-02-08T10:30:09.359Z</time>
      </trkpt>
      <trkpt lat="39.03790333" lon="-0.35729333">
        <ele>258.947</ele>
        <time>2020-02-08T10:30:10.359Z</time>
      </trkpt>
      <trkpt lat="39.03793" lon="-0.35726167">
        <ele>258.947</ele>
        <time>2020-02-08T10:30:11.359Z</time>
      </trkpt>
      <trkpt lat="39.03793" lon="-0.35726167">
        <ele>260.947</ele>
        <time>2020-02-08T10:30:12.359Z</time>
      </trkpt>
      <trkpt lat="39.03798667" lon="-0.3572">
        <ele>260.947</ele>
        <time>2020-02-08T10:30:13.359Z</time>
      </trkpt>
      <trkpt lat="39.03798667" lon="-0.3572">
        <ele>260.947</ele>
        <time>2020-02-08T10:30:14.359Z</time>
      </trkpt>
      <trkpt lat="39.03804167" lon="-0.357145">
        <ele>260.947</ele>
        <time>2020-02-08T10:30:15.359Z</time>
      </trkpt>
      <trkpt lat="39.03804167" lon="-0.357145">
        <ele>261.947</ele>
        <time>2020-02-08T10:30:16.359Z</time>
      </trkpt>
      <trkpt lat="39.0381" lon="-0.357095">
        <ele>261.947</ele>
        <time>2020-02-08T10:30:17.359Z</time>
      </trkpt>
      <trkpt lat="39.03812667" lon="-0.35706833">
        <ele>261.947</ele>
        <time>2020-02-08T10:30:18.359Z</time>
      </trkpt>
      <trkpt lat="39.03812667" lon="-0.35706833">
        <ele>261.947</ele>
        <time>2020-02-08T10:30:19.359Z</time>
      </trkpt>
      <trkpt lat="39.03818333" lon="-0.35701">
        <ele>262.947</ele>
        <time>2020-02-08T10:30:20.359Z</time>
      </trkpt>
      <trkpt lat="39.03818333" lon="-0.35701">
        <ele>262.947</ele>
        <time>2020-02-08T10:30:21.359Z</time>
      </trkpt>
      <trkpt lat="39.03824" lon="-0.35695">
        <ele>262.947</ele>
        <time>2020-02-08T10:30:22.359Z</time>
      </trkpt>
      <trkpt lat="39.03824" lon="-0.35695">
        <ele>262.947</ele>
        <time>2020-02-08T10:30:23.359Z</time>
      </trkpt>
      <trkpt lat="39.03829" lon="-0.35688833">
        <ele>263.947</ele>
        <time>2020-02-08T10:30:24.359Z</time>
      </trkpt>
      <trkpt lat="39.03829" lon="-0.35688833">
        <ele>263.947</ele>
        <time>2020-02-08T10:30:25.359Z</time>
      </trkpt>
      <trkpt lat="39.03834167" lon="-0.35682833">
        <ele>263.947</ele>
        <time>2020-02-08T10:30:26.359Z</time>
      </trkpt>
      <trkpt lat="39.03834167" lon="-0.35682833">
        <ele>263.947</ele>
        <time>2020-02-08T10:30:27.359Z</time>
      </trkpt>
      <trkpt lat="39.03838667" lon="-0.35676">
        <ele>264.947</ele>
        <time>2020-02-08T10:30:28.359Z</time>
      </trkpt>
      <trkpt lat="39.03838667" lon="-0.35676">
        <ele>264.947</ele>
        <time>2020-02-08T10:30:29.359Z</time>
      </trkpt>
      <trkpt lat="39.03842333" lon="-0.35668667">
        <ele>264.947</ele>
        <time>2020-02-08T10:30:30.359Z</time>
      </trkpt>
      <trkpt lat="39.03842333" lon="-0.35668667">
        <ele>264.947</ele>
        <time>2020-02-08T10:30:31.359Z</time>
      </trkpt>
      <trkpt lat="39.03845" lon="-0.356605">
        <ele>265.947</ele>
        <time>2020-02-08T10:30:32.359Z</time>
      </trkpt>
      <trkpt lat="39.03845" lon="-0.356605">
        <ele>265.947</ele>
        <time>2020-02-08T10:30:33.359Z</time>
      </trkpt>
      <trkpt lat="39.03848667" lon="-0.35652667">
        <ele>265.947</ele>
        <time>2020-02-08T10:30:34.359Z</time>
      </trkpt>
      <trkpt lat="39.03850333" lon="-0.35649167">
        <ele>265.947</ele>
        <time>2020-02-08T10:30:35.359Z</time>
      </trkpt>
      <trkpt lat="39.03852333" lon="-0.35645667">
        <ele>266.947</ele>
        <time>2020-02-08T10:30:36.359Z</time>
      </trkpt>
      <trkpt lat="39.03852333" lon="-0.35645667">
        <ele>266.947</ele>
        <time>2020-02-08T10:30:37.359Z</time>
      </trkpt>
      <trkpt lat="39.03856" lon="-0.356385">
        <ele>266.947</ele>
        <time>2020-02-08T10:30:38.359Z</time>
      </trkpt>
      <trkpt lat="39.03856" lon="-0.356385">
        <ele>267.947</ele>
        <time>2020-02-08T10:30:39.359Z</time>
      </trkpt>
      <trkpt lat="39.03859667" lon="-0.35631667">
        <ele>267.947</ele>
        <time>2020-02-08T10:30:40.359Z</time>
      </trkpt>
      <trkpt lat="39.03861333" lon="-0.35628">
        <ele>267.947</ele>
        <time>2020-02-08T10:30:41.359Z</time>
      </trkpt>
      <trkpt lat="39.03863" lon="-0.35624667">
        <ele>267.947</ele>
        <time>2020-02-08T10:30:42.359Z</time>
      </trkpt>
      <trkpt lat="39.03863" lon="-0.35624667">
        <ele>268.947</ele>
        <time>2020-02-08T10:30:43.359Z</time>
      </trkpt>
      <trkpt lat="39.03866" lon="-0.35617167">
        <ele>268.947</ele>
        <time>2020-02-08T10:30:44.359Z</time>
      </trkpt>
      <trkpt lat="39.03866" lon="-0.35617167">
        <ele>268.947</ele>
        <time>2020-02-08T10:30:45.359Z</time>
      </trkpt>
      <trkpt lat="39.03869" lon="-0.356095">
        <ele>268.947</ele>
        <time>2020-02-08T10:30:46.359Z</time>
      </trkpt>
      <trkpt lat="39.03869" lon="-0.356095">
        <ele>268.947</ele>
        <time>2020-02-08T10:30:47.359Z</time>
      </trkpt>
      <trkpt lat="39.03871833" lon="-0.35602">
        <ele>268.947</ele>
        <time>2020-02-08T10:30:48.359Z</time>
      </trkpt>
      <trkpt lat="39.03871833" lon="-0.35602">
        <ele>269.947</ele>
        <time>2020-02-08T10:30:49.359Z</time>
      </trkpt>
      <trkpt lat="39.03875167" lon="-0.35595">
        <ele>269.947</ele>
        <time>2020-02-08T10:30:50.359Z</time>
      </trkpt>
      <trkpt lat="39.03875167" lon="-0.35595">
        <ele>269.947</ele>
        <time>2020-02-08T10:30:51.359Z</time>
      </trkpt>
      <trkpt lat="39.038785" lon="-0.35588167">
        <ele>269.947</ele>
        <time>2020-02-08T10:30:52.359Z</time>
      </trkpt>
      <trkpt lat="39.03880333" lon="-0.35585167">
        <ele>270.947</ele>
        <time>2020-02-08T10:30:53.359Z</time>
      </trkpt>
      <trkpt lat="39.03880333" lon="-0.35585167">
        <ele>270.947</ele>
        <time>2020-02-08T10:30:54.359Z</time>
      </trkpt>
      <trkpt lat="39.03884" lon="-0.35578167">
        <ele>270.947</ele>
        <time>2020-02-08T10:30:55.359Z</time>
      </trkpt>
      <trkpt lat="39.038855" lon="-0.35574333">
        <ele>270.947</ele>
        <time>2020-02-08T10:30:56.359Z</time>
      </trkpt>
      <trkpt lat="39.038855" lon="-0.35574333">
        <ele>270.947</ele>
        <time>2020-02-08T10:30:57.359Z</time>
      </trkpt>
      <trkpt lat="39.03888667" lon="-0.355665">
        <ele>270.947</ele>
        <time>2020-02-08T10:30:58.359Z</time>
      </trkpt>
      <trkpt lat="39.03890167" lon="-0.355625">
        <ele>270.947</ele>
        <time>2020-02-08T10:30:59.359Z</time>
      </trkpt>
      <trkpt lat="39.03890167" lon="-0.355625">
        <ele>270.947</ele>
        <time>2020-02-08T10:31:00.359Z</time>
      </trkpt>
      <trkpt lat="39.03892833" lon="-0.35554667">
        <ele>272.947</ele>
        <time>2020-02-08T10:31:01.359Z</time>
      </trkpt>
      <trkpt lat="39.03894" lon="-0.35550833">
        <ele>272.947</ele>
        <time>2020-02-08T10:31:02.359Z</time>
      </trkpt>
      <trkpt lat="39.03894" lon="-0.35550833">
        <ele>272.947</ele>
        <time>2020-02-08T10:31:03.359Z</time>
      </trkpt>
      <trkpt lat="39.03896" lon="-0.35542333">
        <ele>272.947</ele>
        <time>2020-02-08T10:31:04.359Z</time>
      </trkpt>
      <trkpt lat="39.03896" lon="-0.35542333">
        <ele>273.947</ele>
        <time>2020-02-08T10:31:05.359Z</time>
      </trkpt>
      <trkpt lat="39.03897667" lon="-0.35533833">
        <ele>273.947</ele>
        <time>2020-02-08T10:31:06.359Z</time>
      </trkpt>
      <trkpt lat="39.03897667" lon="-0.35533833">
        <ele>273.947</ele>
        <time>2020-02-08T10:31:07.359Z</time>
      </trkpt>
      <trkpt lat="39.038995" lon="-0.35525167">
        <ele>274.947</ele>
        <time>2020-02-08T10:31:08.359Z</time>
      </trkpt>
      <trkpt lat="39.038995" lon="-0.35525167">
        <ele>274.947</ele>
        <time>2020-02-08T10:31:09.359Z</time>
      </trkpt>
      <trkpt lat="39.03901833" lon="-0.35517">
        <ele>274.947</ele>
        <time>2020-02-08T10:31:10.359Z</time>
      </trkpt>
      <trkpt lat="39.03901833" lon="-0.35517">
        <ele>274.947</ele>
        <time>2020-02-08T10:31:11.359Z</time>
      </trkpt>
      <trkpt lat="39.03905" lon="-0.35509667">
        <ele>275.947</ele>
        <time>2020-02-08T10:31:12.359Z</time>
      </trkpt>
      <trkpt lat="39.03905" lon="-0.35509667">
        <ele>275.947</ele>
        <time>2020-02-08T10:31:13.359Z</time>
      </trkpt>
      <trkpt lat="39.03909" lon="-0.35502833">
        <ele>275.947</ele>
        <time>2020-02-08T10:31:14.359Z</time>
      </trkpt>
      <trkpt lat="39.03909" lon="-0.35502833">
        <ele>275.947</ele>
        <time>2020-02-08T10:31:15.359Z</time>
      </trkpt>
      <trkpt lat="39.03913333" lon="-0.35496">
        <ele>275.947</ele>
        <time>2020-02-08T10:31:16.359Z</time>
      </trkpt>
      <trkpt lat="39.03913333" lon="-0.35496">
        <ele>275.947</ele>
        <time>2020-02-08T10:31:17.359Z</time>
      </trkpt>
      <trkpt lat="39.03917667" lon="-0.35489167">
        <ele>276.947</ele>
        <time>2020-02-08T10:31:18.359Z</time>
      </trkpt>
      <trkpt lat="39.03917667" lon="-0.35489167">
        <ele>276.947</ele>
        <time>2020-02-08T10:31:19.359Z</time>
      </trkpt>
      <trkpt lat="39.03921833" lon="-0.35482">
        <ele>276.947</ele>
        <time>2020-02-08T10:31:20.359Z</time>
      </trkpt>
      <trkpt lat="39.03921833" lon="-0.35482">
        <ele>276.947</ele>
        <time>2020-02-08T10:31:21.359Z</time>
      </trkpt>
      <trkpt lat="39.03925" lon="-0.35474167">
        <ele>276.947</ele>
        <time>2020-02-08T10:31:22.359Z</time>
      </trkpt>
      <trkpt lat="39.03925" lon="-0.35474167">
        <ele>276.947</ele>
        <time>2020-02-08T10:31:23.359Z</time>
      </trkpt>
      <trkpt lat="39.03928167" lon="-0.35466167">
        <ele>277.947</ele>
        <time>2020-02-08T10:31:24.359Z</time>
      </trkpt>
      <trkpt lat="39.03928167" lon="-0.35466167">
        <ele>277.947</ele>
        <time>2020-02-08T10:31:25.359Z</time>
      </trkpt>
      <trkpt lat="39.03931333" lon="-0.35458">
        <ele>277.947</ele>
        <time>2020-02-08T10:31:26.359Z</time>
      </trkpt>
      <trkpt lat="39.03931333" lon="-0.35458">
        <ele>277.947</ele>
        <time>2020-02-08T10:31:27.359Z</time>
      </trkpt>
      <trkpt lat="39.039345" lon="-0.35450333">
        <ele>278.947</ele>
        <time>2020-02-08T10:31:28.359Z</time>
      </trkpt>
      <trkpt lat="39.039345" lon="-0.35450333">
        <ele>278.947</ele>
        <time>2020-02-08T10:31:29.359Z</time>
      </trkpt>
      <trkpt lat="39.03939167" lon="-0.35443833">
        <ele>278.947</ele>
        <time>2020-02-08T10:31:30.359Z</time>
      </trkpt>
      <trkpt lat="39.03939167" lon="-0.35443833">
        <ele>278.947</ele>
        <time>2020-02-08T10:31:31.359Z</time>
      </trkpt>
      <trkpt lat="39.03945333" lon="-0.35439667">
        <ele>279.947</ele>
        <time>2020-02-08T10:31:32.359Z</time>
      </trkpt>
      <trkpt lat="39.03945333" lon="-0.35439667">
        <ele>279.947</ele>
        <time>2020-02-08T10:31:33.359Z</time>
      </trkpt>
      <trkpt lat="39.03952" lon="-0.35437167">
        <ele>279.947</ele>
        <time>2020-02-08T10:31:34.359Z</time>
      </trkpt>
      <trkpt lat="39.03952" lon="-0.35437167">
        <ele>280.947</ele>
        <time>2020-02-08T10:31:35.359Z</time>
      </trkpt>
      <trkpt lat="39.03958667" lon="-0.35436333">
        <ele>280.947</ele>
        <time>2020-02-08T10:31:36.359Z</time>
      </trkpt>
      <trkpt lat="39.03962" lon="-0.35435833">
        <ele>280.947</ele>
        <time>2020-02-08T10:31:37.359Z</time>
      </trkpt>
      <trkpt lat="39.039655" lon="-0.35435">
        <ele>280.947</ele>
        <time>2020-02-08T10:31:38.359Z</time>
      </trkpt>
      <trkpt lat="39.039655" lon="-0.35435">
        <ele>281.947</ele>
        <time>2020-02-08T10:31:39.359Z</time>
      </trkpt>
      <trkpt lat="39.03972667" lon="-0.35431333">
        <ele>281.947</ele>
        <time>2020-02-08T10:31:40.359Z</time>
      </trkpt>
      <trkpt lat="39.03972667" lon="-0.35431333">
        <ele>281.947</ele>
        <time>2020-02-08T10:31:41.359Z</time>
      </trkpt>
      <trkpt lat="39.03979167" lon="-0.35426667">
        <ele>281.947</ele>
        <time>2020-02-08T10:31:42.359Z</time>
      </trkpt>
      <trkpt lat="39.03979167" lon="-0.35426667">
        <ele>282.947</ele>
        <time>2020-02-08T10:31:43.359Z</time>
      </trkpt>
      <trkpt lat="39.03985333" lon="-0.35420667">
        <ele>282.947</ele>
        <time>2020-02-08T10:31:44.359Z</time>
      </trkpt>
      <trkpt lat="39.03985333" lon="-0.35420667">
        <ele>283.947</ele>
        <time>2020-02-08T10:31:45.359Z</time>
      </trkpt>
      <trkpt lat="39.03991333" lon="-0.35414">
        <ele>283.947</ele>
        <time>2020-02-08T10:31:46.359Z</time>
      </trkpt>
      <trkpt lat="39.03991333" lon="-0.35414">
        <ele>283.947</ele>
        <time>2020-02-08T10:31:47.359Z</time>
      </trkpt>
      <trkpt lat="39.03997333" lon="-0.35406667">
        <ele>283.947</ele>
        <time>2020-02-08T10:31:48.359Z</time>
      </trkpt>
      <trkpt lat="39.03997333" lon="-0.35406667">
        <ele>283.947</ele>
        <time>2020-02-08T10:31:49.359Z</time>
      </trkpt>
      <trkpt lat="39.04003667" lon="-0.354">
        <ele>283.947</ele>
        <time>2020-02-08T10:31:50.359Z</time>
      </trkpt>
      <trkpt lat="39.04003667" lon="-0.354">
        <ele>283.947</ele>
        <time>2020-02-08T10:31:51.359Z</time>
      </trkpt>
      <trkpt lat="39.04010167" lon="-0.353935">
        <ele>283.947</ele>
        <time>2020-02-08T10:31:52.359Z</time>
      </trkpt>
      <trkpt lat="39.04010167" lon="-0.353935">
        <ele>283.947</ele>
        <time>2020-02-08T10:31:53.359Z</time>
      </trkpt>
      <trkpt lat="39.04016667" lon="-0.35385167">
        <ele>283.947</ele>
        <time>2020-02-08T10:31:54.359Z</time>
      </trkpt>
      <trkpt lat="39.04016667" lon="-0.35385167">
        <ele>283.947</ele>
        <time>2020-02-08T10:31:55.359Z</time>
      </trkpt>
      <trkpt lat="39.04021833" lon="-0.35373167">
        <ele>283.947</ele>
        <time>2020-02-08T10:31:56.359Z</time>
      </trkpt>
      <trkpt lat="39.04021833" lon="-0.35373167">
        <ele>283.947</ele>
        <time>2020-02-08T10:31:57.359Z</time>
      </trkpt>
      <trkpt lat="39.04025333" lon="-0.35358167">
        <ele>283.947</ele>
        <time>2020-02-08T10:31:58.359Z</time>
      </trkpt>
      <trkpt lat="39.04025333" lon="-0.35358167">
        <ele>283.947</ele>
        <time>2020-02-08T10:31:59.359Z</time>
      </trkpt>
      <trkpt lat="39.040275" lon="-0.35340667">
        <ele>283.947</ele>
        <time>2020-02-08T10:32:00.359Z</time>
      </trkpt>
      <trkpt lat="39.040275" lon="-0.35340667">
        <ele>282.947</ele>
        <time>2020-02-08T10:32:01.359Z</time>
      </trkpt>
      <trkpt lat="39.04028667" lon="-0.353215">
        <ele>282.947</ele>
        <time>2020-02-08T10:32:02.359Z</time>
      </trkpt>
      <trkpt lat="39.04028667" lon="-0.353215">
        <ele>281.947</ele>
        <time>2020-02-08T10:32:03.359Z</time>
      </trkpt>
      <trkpt lat="39.040295" lon="-0.35301">
        <ele>281.947</ele>
        <time>2020-02-08T10:32:04.359Z</time>
      </trkpt>
      <trkpt lat="39.040295" lon="-0.35301">
        <ele>281.947</ele>
        <time>2020-02-08T10:32:05.359Z</time>
      </trkpt>
      <trkpt lat="39.04032" lon="-0.35279167">
        <ele>280.947</ele>
        <time>2020-02-08T10:32:06.359Z</time>
      </trkpt>
      <trkpt lat="39.04032" lon="-0.35279167">
        <ele>280.947</ele>
        <time>2020-02-08T10:32:07.359Z</time>
      </trkpt>
      <trkpt lat="39.04038167" lon="-0.35257">
        <ele>279.947</ele>
        <time>2020-02-08T10:32:08.359Z</time>
      </trkpt>
      <trkpt lat="39.04038167" lon="-0.35257">
        <ele>279.947</ele>
        <time>2020-02-08T10:32:09.359Z</time>
      </trkpt>
      <trkpt lat="39.04046" lon="-0.35234333">
        <ele>278.947</ele>
        <time>2020-02-08T10:32:10.359Z</time>
      </trkpt>
      <trkpt lat="39.04046" lon="-0.35234333">
        <ele>278.947</ele>
        <time>2020-02-08T10:32:11.359Z</time>
      </trkpt>
      <trkpt lat="39.0405" lon="-0.35209667">
        <ele>277.947</ele>
        <time>2020-02-08T10:32:12.359Z</time>
      </trkpt>
      <trkpt lat="39.04049667" lon="-0.35196833">
        <ele>277.947</ele>
        <time>2020-02-08T10:32:13.359Z</time>
      </trkpt>
      <trkpt lat="39.04047833" lon="-0.35184">
        <ele>275.947</ele>
        <time>2020-02-08T10:32:14.359Z</time>
      </trkpt>
      <trkpt lat="39.04047833" lon="-0.35184">
        <ele>275.947</ele>
        <time>2020-02-08T10:32:15.359Z</time>
      </trkpt>
      <trkpt lat="39.04045167" lon="-0.35156833">
        <ele>274.947</ele>
        <time>2020-02-08T10:32:16.359Z</time>
      </trkpt>
      <trkpt lat="39.04045167" lon="-0.35156833">
        <ele>274.947</ele>
        <time>2020-02-08T10:32:17.359Z</time>
      </trkpt>
      <trkpt lat="39.04045667" lon="-0.35129667">
        <ele>273.947</ele>
        <time>2020-02-08T10:32:18.359Z</time>
      </trkpt>
      <trkpt lat="39.04045667" lon="-0.35129667">
        <ele>273.947</ele>
        <time>2020-02-08T10:32:19.359Z</time>
      </trkpt>
      <trkpt lat="39.04047167" lon="-0.351015">
        <ele>271.947</ele>
        <time>2020-02-08T10:32:20.359Z</time>
      </trkpt>
      <trkpt lat="39.04047167" lon="-0.351015">
        <ele>271.947</ele>
        <time>2020-02-08T10:32:21.359Z</time>
      </trkpt>
      <trkpt lat="39.04048833" lon="-0.35072833">
        <ele>270.947</ele>
        <time>2020-02-08T10:32:22.359Z</time>
      </trkpt>
      <trkpt lat="39.040495" lon="-0.350585">
        <ele>270.947</ele>
        <time>2020-02-08T10:32:23.359Z</time>
      </trkpt>
      <trkpt lat="39.040495" lon="-0.350585">
        <ele>269.947</ele>
        <time>2020-02-08T10:32:24.359Z</time>
      </trkpt>
      <trkpt lat="39.04051167" lon="-0.350295">
        <ele>269.947</ele>
        <time>2020-02-08T10:32:25.359Z</time>
      </trkpt>
      <trkpt lat="39.04052833" lon="-0.35014667">
        <ele>267.947</ele>
        <time>2020-02-08T10:32:26.359Z</time>
      </trkpt>
      <trkpt lat="39.04052833" lon="-0.35014667">
        <ele>267.947</ele>
        <time>2020-02-08T10:32:27.359Z</time>
      </trkpt>
      <trkpt lat="39.04054833" lon="-0.34984833">
        <ele>265.947</ele>
        <time>2020-02-08T10:32:28.359Z</time>
      </trkpt>
      <trkpt lat="39.04054667" lon="-0.349695">
        <ele>265.947</ele>
        <time>2020-02-08T10:32:29.359Z</time>
      </trkpt>
      <trkpt lat="39.04052833" lon="-0.34954167">
        <ele>264.947</ele>
        <time>2020-02-08T10:32:30.359Z</time>
      </trkpt>
      <trkpt lat="39.04052833" lon="-0.34954167">
        <ele>264.947</ele>
        <time>2020-02-08T10:32:31.359Z</time>
      </trkpt>
      <trkpt lat="39.04048167" lon="-0.34924333">
        <ele>262.947</ele>
        <time>2020-02-08T10:32:32.359Z</time>
      </trkpt>
      <trkpt lat="39.04048833" lon="-0.34908833">
        <ele>260.947</ele>
        <time>2020-02-08T10:32:33.359Z</time>
      </trkpt>
      <trkpt lat="39.04051" lon="-0.34893667">
        <ele>260.947</ele>
        <time>2020-02-08T10:32:34.359Z</time>
      </trkpt>
      <trkpt lat="39.04051" lon="-0.34893667">
        <ele>258.947</ele>
        <time>2020-02-08T10:32:35.359Z</time>
      </trkpt>
      <trkpt lat="39.04059167" lon="-0.34864333">
        <ele>258.947</ele>
        <time>2020-02-08T10:32:36.359Z</time>
      </trkpt>
      <trkpt lat="39.04065" lon="-0.348505">
        <ele>256.947</ele>
        <time>2020-02-08T10:32:37.359Z</time>
      </trkpt>
      <trkpt lat="39.04071167" lon="-0.348365">
        <ele>256.947</ele>
        <time>2020-02-08T10:32:38.359Z</time>
      </trkpt>
      <trkpt lat="39.04071167" lon="-0.348365">
        <ele>255.947</ele>
        <time>2020-02-08T10:32:39.359Z</time>
      </trkpt>
      <trkpt lat="39.04080833" lon="-0.348065">
        <ele>255.947</ele>
        <time>2020-02-08T10:32:40.359Z</time>
      </trkpt>
      <trkpt lat="39.040825" lon="-0.34790667">
        <ele>253.947</ele>
        <time>2020-02-08T10:32:41.359Z</time>
      </trkpt>
      <trkpt lat="39.04082833" lon="-0.34774667">
        <ele>253.947</ele>
        <time>2020-02-08T10:32:42.359Z</time>
      </trkpt>
      <trkpt lat="39.04082833" lon="-0.34774667">
        <ele>251.947</ele>
        <time>2020-02-08T10:32:43.359Z</time>
      </trkpt>
      <trkpt lat="39.04082167" lon="-0.34742833">
        <ele>251.947</ele>
        <time>2020-02-08T10:32:44.359Z</time>
      </trkpt>
      <trkpt lat="39.04082167" lon="-0.34742833">
        <ele>250.947</ele>
        <time>2020-02-08T10:32:45.359Z</time>
      </trkpt>
      <trkpt lat="39.04081" lon="-0.347105">
        <ele>250.947</ele>
        <time>2020-02-08T10:32:46.359Z</time>
      </trkpt>
      <trkpt lat="39.04081" lon="-0.347105">
        <ele>249.947</ele>
        <time>2020-02-08T10:32:47.359Z</time>
      </trkpt>
      <trkpt lat="39.04075833" lon="-0.34678">
        <ele>249.947</ele>
        <time>2020-02-08T10:32:48.359Z</time>
      </trkpt>
      <trkpt lat="39.04075833" lon="-0.34678">
        <ele>247.947</ele>
        <time>2020-02-08T10:32:49.359Z</time>
      </trkpt>
      <trkpt lat="39.040655" lon="-0.34649667">
        <ele>247.947</ele>
        <time>2020-02-08T10:32:50.359Z</time>
      </trkpt>
      <trkpt lat="39.040655" lon="-0.34649667">
        <ele>245.947</ele>
        <time>2020-02-08T10:32:51.359Z</time>
      </trkpt>
      <trkpt lat="39.040555" lon="-0.34627667">
        <ele>245.947</ele>
        <time>2020-02-08T10:32:52.359Z</time>
      </trkpt>
      <trkpt lat="39.040555" lon="-0.34627667">
        <ele>243.947</ele>
        <time>2020-02-08T10:32:53.359Z</time>
      </trkpt>
      <trkpt lat="39.04054667" lon="-0.34608333">
        <ele>243.947</ele>
        <time>2020-02-08T10:32:54.359Z</time>
      </trkpt>
      <trkpt lat="39.04054667" lon="-0.34608333">
        <ele>242.947</ele>
        <time>2020-02-08T10:32:55.359Z</time>
      </trkpt>
      <trkpt lat="39.04063333" lon="-0.345985">
        <ele>242.947</ele>
        <time>2020-02-08T10:32:56.359Z</time>
      </trkpt>
      <trkpt lat="39.04063333" lon="-0.345985">
        <ele>242.947</ele>
        <time>2020-02-08T10:32:57.359Z</time>
      </trkpt>
      <trkpt lat="39.04075" lon="-0.346005">
        <ele>242.947</ele>
        <time>2020-02-08T10:32:58.359Z</time>
      </trkpt>
      <trkpt lat="39.04075" lon="-0.346005">
        <ele>241.947</ele>
        <time>2020-02-08T10:32:59.359Z</time>
      </trkpt>
      <trkpt lat="39.04082833" lon="-0.346145">
        <ele>241.947</ele>
        <time>2020-02-08T10:33:00.359Z</time>
      </trkpt>
      <trkpt lat="39.04086167" lon="-0.34622333">
        <ele>241.947</ele>
        <time>2020-02-08T10:33:01.359Z</time>
      </trkpt>
      <trkpt lat="39.04086167" lon="-0.34622333">
        <ele>241.947</ele>
        <time>2020-02-08T10:33:02.359Z</time>
      </trkpt>
      <trkpt lat="39.04096" lon="-0.34635">
        <ele>241.947</ele>
        <time>2020-02-08T10:33:03.359Z</time>
      </trkpt>
      <trkpt lat="39.04096" lon="-0.34635">
        <ele>241.947</ele>
        <time>2020-02-08T10:33:04.359Z</time>
      </trkpt>
      <trkpt lat="39.04108" lon="-0.34643167">
        <ele>241.947</ele>
        <time>2020-02-08T10:33:05.359Z</time>
      </trkpt>
      <trkpt lat="39.04114" lon="-0.34647167">
        <ele>241.947</ele>
        <time>2020-02-08T10:33:06.359Z</time>
      </trkpt>
      <trkpt lat="39.04114" lon="-0.34647167">
        <ele>241.947</ele>
        <time>2020-02-08T10:33:07.359Z</time>
      </trkpt>
      <trkpt lat="39.04126" lon="-0.34655333">
        <ele>242.947</ele>
        <time>2020-02-08T10:33:08.359Z</time>
      </trkpt>
      <trkpt lat="39.04126" lon="-0.34655333">
        <ele>242.947</ele>
        <time>2020-02-08T10:33:09.359Z</time>
      </trkpt>
      <trkpt lat="39.04138333" lon="-0.34663167">
        <ele>242.947</ele>
        <time>2020-02-08T10:33:10.359Z</time>
      </trkpt>
      <trkpt lat="39.04144667" lon="-0.34667333">
        <ele>242.947</ele>
        <time>2020-02-08T10:33:11.359Z</time>
      </trkpt>
      <trkpt lat="39.04144667" lon="-0.34667333">
        <ele>242.947</ele>
        <time>2020-02-08T10:33:12.359Z</time>
      </trkpt>
      <trkpt lat="39.04159833" lon="-0.34673333">
        <ele>242.947</ele>
        <time>2020-02-08T10:33:13.359Z</time>
      </trkpt>
      <trkpt lat="39.04167833" lon="-0.34674333">
        <ele>243.947</ele>
        <time>2020-02-08T10:33:14.359Z</time>
      </trkpt>
      <trkpt lat="39.04167833" lon="-0.34674333">
        <ele>243.947</ele>
        <time>2020-02-08T10:33:15.359Z</time>
      </trkpt>
      <trkpt lat="39.04182333" lon="-0.34670333">
        <ele>244.947</ele>
        <time>2020-02-08T10:33:16.359Z</time>
      </trkpt>
      <trkpt lat="39.04182333" lon="-0.34670333">
        <ele>244.947</ele>
        <time>2020-02-08T10:33:17.359Z</time>
      </trkpt>
      <trkpt lat="39.041965" lon="-0.34672167">
        <ele>245.947</ele>
        <time>2020-02-08T10:33:18.359Z</time>
      </trkpt>
      <trkpt lat="39.041965" lon="-0.34672167">
        <ele>245.947</ele>
        <time>2020-02-08T10:33:19.359Z</time>
      </trkpt>
      <trkpt lat="39.04207" lon="-0.34683333">
        <ele>246.947</ele>
        <time>2020-02-08T10:33:20.359Z</time>
      </trkpt>
      <trkpt lat="39.04212667" lon="-0.34688333">
        <ele>246.947</ele>
        <time>2020-02-08T10:33:21.359Z</time>
      </trkpt>
      <trkpt lat="39.04212667" lon="-0.34688333">
        <ele>246.947</ele>
        <time>2020-02-08T10:33:22.359Z</time>
      </trkpt>
      <trkpt lat="39.04225333" lon="-0.34690667">
        <ele>246.947</ele>
        <time>2020-02-08T10:33:23.359Z</time>
      </trkpt>
      <trkpt lat="39.04231167" lon="-0.34690833">
        <ele>247.947</ele>
        <time>2020-02-08T10:33:24.359Z</time>
      </trkpt>
      <trkpt lat="39.04231167" lon="-0.34690833">
        <ele>247.947</ele>
        <time>2020-02-08T10:33:25.359Z</time>
      </trkpt>
      <trkpt lat="39.04242" lon="-0.346885">
        <ele>247.947</ele>
        <time>2020-02-08T10:33:26.359Z</time>
      </trkpt>
      <trkpt lat="39.04242" lon="-0.346885">
        <ele>247.947</ele>
        <time>2020-02-08T10:33:27.359Z</time>
      </trkpt>
      <trkpt lat="39.04252667" lon="-0.34685">
        <ele>249.947</ele>
        <time>2020-02-08T10:33:28.359Z</time>
      </trkpt>
      <trkpt lat="39.04252667" lon="-0.34685">
        <ele>249.947</ele>
        <time>2020-02-08T10:33:29.359Z</time>
      </trkpt>
      <trkpt lat="39.04262667" lon="-0.34680833">
        <ele>249.947</ele>
        <time>2020-02-08T10:33:30.359Z</time>
      </trkpt>
      <trkpt lat="39.04262667" lon="-0.34680833">
        <ele>249.947</ele>
        <time>2020-02-08T10:33:31.359Z</time>
      </trkpt>
      <trkpt lat="39.042715" lon="-0.34677167">
        <ele>249.947</ele>
        <time>2020-02-08T10:33:32.359Z</time>
      </trkpt>
      <trkpt lat="39.042715" lon="-0.34677167">
        <ele>249.947</ele>
        <time>2020-02-08T10:33:33.359Z</time>
      </trkpt>
      <trkpt lat="39.04279833" lon="-0.34673333">
        <ele>249.947</ele>
        <time>2020-02-08T10:33:34.359Z</time>
      </trkpt>
      <trkpt lat="39.04279833" lon="-0.34673333">
        <ele>249.947</ele>
        <time>2020-02-08T10:33:35.359Z</time>
      </trkpt>
      <trkpt lat="39.04288333" lon="-0.346695">
        <ele>249.947</ele>
        <time>2020-02-08T10:33:36.359Z</time>
      </trkpt>
      <trkpt lat="39.04292833" lon="-0.34666333">
        <ele>249.947</ele>
        <time>2020-02-08T10:33:37.359Z</time>
      </trkpt>
      <trkpt lat="39.04297" lon="-0.34662">
        <ele>249.947</ele>
        <time>2020-02-08T10:33:38.359Z</time>
      </trkpt>
      <trkpt lat="39.04297" lon="-0.34662">
        <ele>249.947</ele>
        <time>2020-02-08T10:33:39.359Z</time>
      </trkpt>
      <trkpt lat="39.04304333" lon="-0.34651">
        <ele>249.947</ele>
        <time>2020-02-08T10:33:40.359Z</time>
      </trkpt>
      <trkpt lat="39.04307333" lon="-0.34644">
        <ele>249.947</ele>
        <time>2020-02-08T10:33:41.359Z</time>
      </trkpt>
      <trkpt lat="39.04307333" lon="-0.34644">
        <ele>249.947</ele>
        <time>2020-02-08T10:33:42.359Z</time>
      </trkpt>
      <trkpt lat="39.04313167" lon="-0.34629167">
        <ele>249.947</ele>
        <time>2020-02-08T10:33:43.359Z</time>
      </trkpt>
      <trkpt lat="39.04316167" lon="-0.346215">
        <ele>249.947</ele>
        <time>2020-02-08T10:33:44.359Z</time>
      </trkpt>
      <trkpt lat="39.04319" lon="-0.34613667">
        <ele>248.947</ele>
        <time>2020-02-08T10:33:45.359Z</time>
      </trkpt>
      <trkpt lat="39.04319" lon="-0.34613667">
        <ele>248.947</ele>
        <time>2020-02-08T10:33:46.359Z</time>
      </trkpt>
      <trkpt lat="39.04324" lon="-0.34596833">
        <ele>248.947</ele>
        <time>2020-02-08T10:33:47.359Z</time>
      </trkpt>
      <trkpt lat="39.04324" lon="-0.34596833">
        <ele>248.947</ele>
        <time>2020-02-08T10:33:48.359Z</time>
      </trkpt>
      <trkpt lat="39.04327167" lon="-0.345785">
        <ele>247.947</ele>
        <time>2020-02-08T10:33:49.359Z</time>
      </trkpt>
      <trkpt lat="39.043275" lon="-0.34569">
        <ele>247.947</ele>
        <time>2020-02-08T10:33:50.359Z</time>
      </trkpt>
      <trkpt lat="39.043275" lon="-0.34569">
        <ele>247.947</ele>
        <time>2020-02-08T10:33:51.359Z</time>
      </trkpt>
      <trkpt lat="39.04329" lon="-0.34550333">
        <ele>247.947</ele>
        <time>2020-02-08T10:33:52.359Z</time>
      </trkpt>
      <trkpt lat="39.04329" lon="-0.34550333">
        <ele>247.947</ele>
        <time>2020-02-08T10:33:53.359Z</time>
      </trkpt>
      <trkpt lat="39.04339667" lon="-0.34541">
        <ele>247.947</ele>
        <time>2020-02-08T10:33:54.359Z</time>
      </trkpt>
      <trkpt lat="39.04339667" lon="-0.34541">
        <ele>247.947</ele>
        <time>2020-02-08T10:33:55.359Z</time>
      </trkpt>
      <trkpt lat="39.04351833" lon="-0.34546167">
        <ele>247.947</ele>
        <time>2020-02-08T10:33:56.359Z</time>
      </trkpt>
      <trkpt lat="39.04356833" lon="-0.345515">
        <ele>247.947</ele>
        <time>2020-02-08T10:33:57.359Z</time>
      </trkpt>
      <trkpt lat="39.04362" lon="-0.34556667">
        <ele>247.947</ele>
        <time>2020-02-08T10:33:58.359Z</time>
      </trkpt>
      <trkpt lat="39.04362" lon="-0.34556667">
        <ele>247.947</ele>
        <time>2020-02-08T10:33:59.359Z</time>
      </trkpt>
      <trkpt lat="39.04373167" lon="-0.34563167">
        <ele>247.947</ele>
        <time>2020-02-08T10:34:00.359Z</time>
      </trkpt>
      <trkpt lat="39.04373167" lon="-0.34563167">
        <ele>247.947</ele>
        <time>2020-02-08T10:34:01.359Z</time>
      </trkpt>
      <trkpt lat="39.04383667" lon="-0.34565167">
        <ele>248.947</ele>
        <time>2020-02-08T10:34:02.359Z</time>
      </trkpt>
      <trkpt lat="39.04383667" lon="-0.34565167">
        <ele>248.947</ele>
        <time>2020-02-08T10:34:03.359Z</time>
      </trkpt>
      <trkpt lat="39.04393833" lon="-0.34562833">
        <ele>248.947</ele>
        <time>2020-02-08T10:34:04.359Z</time>
      </trkpt>
      <trkpt lat="39.04393833" lon="-0.34562833">
        <ele>248.947</ele>
        <time>2020-02-08T10:34:05.359Z</time>
      </trkpt>
      <trkpt lat="39.04402" lon="-0.34555167">
        <ele>249.947</ele>
        <time>2020-02-08T10:34:06.359Z</time>
      </trkpt>
      <trkpt lat="39.04402" lon="-0.34555167">
        <ele>249.947</ele>
        <time>2020-02-08T10:34:07.359Z</time>
      </trkpt>
      <trkpt lat="39.044075" lon="-0.34543167">
        <ele>249.947</ele>
        <time>2020-02-08T10:34:08.359Z</time>
      </trkpt>
      <trkpt lat="39.044075" lon="-0.34543167">
        <ele>249.947</ele>
        <time>2020-02-08T10:34:09.359Z</time>
      </trkpt>
      <trkpt lat="39.044105" lon="-0.345285">
        <ele>249.947</ele>
        <time>2020-02-08T10:34:10.359Z</time>
      </trkpt>
      <trkpt lat="39.044105" lon="-0.345285">
        <ele>249.947</ele>
        <time>2020-02-08T10:34:11.359Z</time>
      </trkpt>
      <trkpt lat="39.04412833" lon="-0.34513333">
        <ele>250.947</ele>
        <time>2020-02-08T10:34:12.359Z</time>
      </trkpt>
      <trkpt lat="39.04412833" lon="-0.34513333">
        <ele>250.947</ele>
        <time>2020-02-08T10:34:13.359Z</time>
      </trkpt>
      <trkpt lat="39.04415167" lon="-0.34498167">
        <ele>251.947</ele>
        <time>2020-02-08T10:34:14.359Z</time>
      </trkpt>
      <trkpt lat="39.04415167" lon="-0.34498167">
        <ele>251.947</ele>
        <time>2020-02-08T10:34:15.359Z</time>
      </trkpt>
      <trkpt lat="39.04417" lon="-0.34483667">
        <ele>251.947</ele>
        <time>2020-02-08T10:34:16.359Z</time>
      </trkpt>
      <trkpt lat="39.04417" lon="-0.34483667">
        <ele>252.947</ele>
        <time>2020-02-08T10:34:17.359Z</time>
      </trkpt>
      <trkpt lat="39.04419" lon="-0.34470167">
        <ele>252.947</ele>
        <time>2020-02-08T10:34:18.359Z</time>
      </trkpt>
      <trkpt lat="39.04419" lon="-0.34470167">
        <ele>253.947</ele>
        <time>2020-02-08T10:34:19.359Z</time>
      </trkpt>
      <trkpt lat="39.04421667" lon="-0.34456333">
        <ele>253.947</ele>
        <time>2020-02-08T10:34:20.359Z</time>
      </trkpt>
      <trkpt lat="39.04421667" lon="-0.34456333">
        <ele>253.947</ele>
        <time>2020-02-08T10:34:21.359Z</time>
      </trkpt>
      <trkpt lat="39.04424" lon="-0.34441833">
        <ele>253.947</ele>
        <time>2020-02-08T10:34:22.359Z</time>
      </trkpt>
      <trkpt lat="39.04424" lon="-0.34441833">
        <ele>254.947</ele>
        <time>2020-02-08T10:34:23.359Z</time>
      </trkpt>
      <trkpt lat="39.04426333" lon="-0.34426167">
        <ele>254.947</ele>
        <time>2020-02-08T10:34:24.359Z</time>
      </trkpt>
      <trkpt lat="39.04426333" lon="-0.34426167">
        <ele>254.947</ele>
        <time>2020-02-08T10:34:25.359Z</time>
      </trkpt>
      <trkpt lat="39.04428833" lon="-0.34410167">
        <ele>254.947</ele>
        <time>2020-02-08T10:34:26.359Z</time>
      </trkpt>
      <trkpt lat="39.04428833" lon="-0.34410167">
        <ele>254.947</ele>
        <time>2020-02-08T10:34:27.359Z</time>
      </trkpt>
      <trkpt lat="39.04431333" lon="-0.34393667">
        <ele>254.947</ele>
        <time>2020-02-08T10:34:28.359Z</time>
      </trkpt>
      <trkpt lat="39.04432667" lon="-0.34385">
        <ele>254.947</ele>
        <time>2020-02-08T10:34:29.359Z</time>
      </trkpt>
      <trkpt lat="39.04434" lon="-0.34376167">
        <ele>253.947</ele>
        <time>2020-02-08T10:34:30.359Z</time>
      </trkpt>
      <trkpt lat="39.04434" lon="-0.34376167">
        <ele>253.947</ele>
        <time>2020-02-08T10:34:31.359Z</time>
      </trkpt>
      <trkpt lat="39.04436167" lon="-0.34357833">
        <ele>253.947</ele>
        <time>2020-02-08T10:34:32.359Z</time>
      </trkpt>
      <trkpt lat="39.04436167" lon="-0.34357833">
        <ele>253.947</ele>
        <time>2020-02-08T10:34:33.359Z</time>
      </trkpt>
      <trkpt lat="39.04438667" lon="-0.34338">
        <ele>253.947</ele>
        <time>2020-02-08T10:34:34.359Z</time>
      </trkpt>
      <trkpt lat="39.04438667" lon="-0.34338">
        <ele>253.947</ele>
        <time>2020-02-08T10:34:35.359Z</time>
      </trkpt>
      <trkpt lat="39.044405" lon="-0.34316833">
        <ele>252.947</ele>
        <time>2020-02-08T10:34:36.359Z</time>
      </trkpt>
      <trkpt lat="39.044405" lon="-0.34316833">
        <ele>252.947</ele>
        <time>2020-02-08T10:34:37.359Z</time>
      </trkpt>
      <trkpt lat="39.04442" lon="-0.34295167">
        <ele>252.947</ele>
        <time>2020-02-08T10:34:38.359Z</time>
      </trkpt>
      <trkpt lat="39.04442" lon="-0.34295167">
        <ele>252.947</ele>
        <time>2020-02-08T10:34:39.359Z</time>
      </trkpt>
      <trkpt lat="39.04442833" lon="-0.342745">
        <ele>251.947</ele>
        <time>2020-02-08T10:34:40.359Z</time>
      </trkpt>
      <trkpt lat="39.04442167" lon="-0.34264333">
        <ele>251.947</ele>
        <time>2020-02-08T10:34:41.359Z</time>
      </trkpt>
      <trkpt lat="39.04442167" lon="-0.34264333">
        <ele>251.947</ele>
        <time>2020-02-08T10:34:42.359Z</time>
      </trkpt>
      <trkpt lat="39.04436" lon="-0.34244833">
        <ele>251.947</ele>
        <time>2020-02-08T10:34:43.359Z</time>
      </trkpt>
      <trkpt lat="39.044315" lon="-0.34236">
        <ele>250.947</ele>
        <time>2020-02-08T10:34:44.359Z</time>
      </trkpt>
      <trkpt lat="39.044315" lon="-0.34236">
        <ele>250.947</ele>
        <time>2020-02-08T10:34:45.359Z</time>
      </trkpt>
      <trkpt lat="39.04430167" lon="-0.34215333">
        <ele>250.947</ele>
        <time>2020-02-08T10:34:46.359Z</time>
      </trkpt>
      <trkpt lat="39.04432833" lon="-0.34204833">
        <ele>250.947</ele>
        <time>2020-02-08T10:34:47.359Z</time>
      </trkpt>
      <trkpt lat="39.04432833" lon="-0.34204833">
        <ele>249.947</ele>
        <time>2020-02-08T10:34:48.359Z</time>
      </trkpt>
      <trkpt lat="39.04439" lon="-0.341835">
        <ele>249.947</ele>
        <time>2020-02-08T10:34:49.359Z</time>
      </trkpt>
      <trkpt lat="39.04438667" lon="-0.34172333">
        <ele>249.947</ele>
        <time>2020-02-08T10:34:50.359Z</time>
      </trkpt>
      <trkpt lat="39.04438667" lon="-0.34172333">
        <ele>249.947</ele>
        <time>2020-02-08T10:34:51.359Z</time>
      </trkpt>
      <trkpt lat="39.04434167" lon="-0.34150667">
        <ele>248.947</ele>
        <time>2020-02-08T10:34:52.359Z</time>
      </trkpt>
      <trkpt lat="39.04434167" lon="-0.34150667">
        <ele>248.947</ele>
        <time>2020-02-08T10:34:53.359Z</time>
      </trkpt>
      <trkpt lat="39.044315" lon="-0.34128833">
        <ele>248.947</ele>
        <time>2020-02-08T10:34:54.359Z</time>
      </trkpt>
      <trkpt lat="39.044315" lon="-0.34128833">
        <ele>248.947</ele>
        <time>2020-02-08T10:34:55.359Z</time>
      </trkpt>
      <trkpt lat="39.044415" lon="-0.34114333">
        <ele>248.947</ele>
        <time>2020-02-08T10:34:56.359Z</time>
      </trkpt>
      <trkpt lat="39.044415" lon="-0.34114333">
        <ele>247.947</ele>
        <time>2020-02-08T10:34:57.359Z</time>
      </trkpt>
      <trkpt lat="39.04457167" lon="-0.34111333">
        <ele>247.947</ele>
        <time>2020-02-08T10:34:58.359Z</time>
      </trkpt>
      <trkpt lat="39.04457167" lon="-0.34111333">
        <ele>247.947</ele>
        <time>2020-02-08T10:34:59.359Z</time>
      </trkpt>
      <trkpt lat="39.04472667" lon="-0.34113167">
        <ele>247.947</ele>
        <time>2020-02-08T10:35:00.359Z</time>
      </trkpt>
      <trkpt lat="39.04472667" lon="-0.34113167">
        <ele>247.947</ele>
        <time>2020-02-08T10:35:01.359Z</time>
      </trkpt>
      <trkpt lat="39.04487167" lon="-0.34107833">
        <ele>247.947</ele>
        <time>2020-02-08T10:35:02.359Z</time>
      </trkpt>
      <trkpt lat="39.04487167" lon="-0.34107833">
        <ele>247.947</ele>
        <time>2020-02-08T10:35:03.359Z</time>
      </trkpt>
      <trkpt lat="39.044965" lon="-0.34093">
        <ele>247.947</ele>
        <time>2020-02-08T10:35:04.359Z</time>
      </trkpt>
      <trkpt lat="39.04499" lon="-0.34083167">
        <ele>247.947</ele>
        <time>2020-02-08T10:35:05.359Z</time>
      </trkpt>
      <trkpt lat="39.04499" lon="-0.34083167">
        <ele>247.947</ele>
        <time>2020-02-08T10:35:06.359Z</time>
      </trkpt>
      <trkpt lat="39.04503833" lon="-0.340635">
        <ele>247.947</ele>
        <time>2020-02-08T10:35:07.359Z</time>
      </trkpt>
      <trkpt lat="39.04506833" lon="-0.34054">
        <ele>246.947</ele>
        <time>2020-02-08T10:35:08.359Z</time>
      </trkpt>
      <trkpt lat="39.04506833" lon="-0.34054">
        <ele>246.947</ele>
        <time>2020-02-08T10:35:09.359Z</time>
      </trkpt>
      <trkpt lat="39.04515333" lon="-0.34036667">
        <ele>246.947</ele>
        <time>2020-02-08T10:35:10.359Z</time>
      </trkpt>
      <trkpt lat="39.04520667" lon="-0.34029">
        <ele>246.947</ele>
        <time>2020-02-08T10:35:11.359Z</time>
      </trkpt>
      <trkpt lat="39.04526" lon="-0.34021167">
        <ele>246.947</ele>
        <time>2020-02-08T10:35:12.359Z</time>
      </trkpt>
      <trkpt lat="39.04526" lon="-0.34021167">
        <ele>246.947</ele>
        <time>2020-02-08T10:35:13.359Z</time>
      </trkpt>
      <trkpt lat="39.04536167" lon="-0.34003833">
        <ele>246.947</ele>
        <time>2020-02-08T10:35:14.359Z</time>
      </trkpt>
      <trkpt lat="39.04536167" lon="-0.34003833">
        <ele>246.947</ele>
        <time>2020-02-08T10:35:15.359Z</time>
      </trkpt>
      <trkpt lat="39.045445" lon="-0.33983667">
        <ele>246.947</ele>
        <time>2020-02-08T10:35:16.359Z</time>
      </trkpt>
      <trkpt lat="39.045445" lon="-0.33983667">
        <ele>246.947</ele>
        <time>2020-02-08T10:35:17.359Z</time>
      </trkpt>
      <trkpt lat="39.04544667" lon="-0.3396">
        <ele>245.947</ele>
        <time>2020-02-08T10:35:18.359Z</time>
      </trkpt>
      <trkpt lat="39.04544667" lon="-0.3396">
        <ele>245.947</ele>
        <time>2020-02-08T10:35:19.359Z</time>
      </trkpt>
      <trkpt lat="39.045385" lon="-0.339355">
        <ele>244.947</ele>
        <time>2020-02-08T10:35:20.359Z</time>
      </trkpt>
      <trkpt lat="39.04537333" lon="-0.33923">
        <ele>244.947</ele>
        <time>2020-02-08T10:35:21.359Z</time>
      </trkpt>
      <trkpt lat="39.04537333" lon="-0.33923">
        <ele>243.947</ele>
        <time>2020-02-08T10:35:22.359Z</time>
      </trkpt>
      <trkpt lat="39.04544333" lon="-0.33900667">
        <ele>243.947</ele>
        <time>2020-02-08T10:35:23.359Z</time>
      </trkpt>
      <trkpt lat="39.04551333" lon="-0.338915">
        <ele>241.947</ele>
        <time>2020-02-08T10:35:24.359Z</time>
      </trkpt>
      <trkpt lat="39.04551333" lon="-0.338915">
        <ele>240.947</ele>
        <time>2020-02-08T10:35:25.359Z</time>
      </trkpt>
      <trkpt lat="39.04561" lon="-0.338725">
        <ele>240.947</ele>
        <time>2020-02-08T10:35:26.359Z</time>
      </trkpt>
      <trkpt lat="39.04561" lon="-0.338725">
        <ele>238.947</ele>
        <time>2020-02-08T10:35:27.359Z</time>
      </trkpt>
      <trkpt lat="39.045565" lon="-0.33852833">
        <ele>238.947</ele>
        <time>2020-02-08T10:35:28.359Z</time>
      </trkpt>
      <trkpt lat="39.045565" lon="-0.33852833">
        <ele>236.947</ele>
        <time>2020-02-08T10:35:29.359Z</time>
      </trkpt>
      <trkpt lat="39.04543333" lon="-0.338355">
        <ele>236.947</ele>
        <time>2020-02-08T10:35:30.359Z</time>
      </trkpt>
      <trkpt lat="39.04543333" lon="-0.338355">
        <ele>235.947</ele>
        <time>2020-02-08T10:35:31.359Z</time>
      </trkpt>
      <trkpt lat="39.04527833" lon="-0.33818167">
        <ele>235.947</ele>
        <time>2020-02-08T10:35:32.359Z</time>
      </trkpt>
      <trkpt lat="39.04527833" lon="-0.33818167">
        <ele>234.947</ele>
        <time>2020-02-08T10:35:33.359Z</time>
      </trkpt>
      <trkpt lat="39.04511333" lon="-0.33807333">
        <ele>234.947</ele>
        <time>2020-02-08T10:35:34.359Z</time>
      </trkpt>
      <trkpt lat="39.04511333" lon="-0.33807333">
        <ele>233.947</ele>
        <time>2020-02-08T10:35:35.359Z</time>
      </trkpt>
      <trkpt lat="39.04494" lon="-0.33812333">
        <ele>233.947</ele>
        <time>2020-02-08T10:35:36.359Z</time>
      </trkpt>
      <trkpt lat="39.04486167" lon="-0.33819833">
        <ele>231.947</ele>
        <time>2020-02-08T10:35:37.359Z</time>
      </trkpt>
      <trkpt lat="39.04478" lon="-0.33827667">
        <ele>231.947</ele>
        <time>2020-02-08T10:35:38.359Z</time>
      </trkpt>
      <trkpt lat="39.04478" lon="-0.33827667">
        <ele>230.947</ele>
        <time>2020-02-08T10:35:39.359Z</time>
      </trkpt>
      <trkpt lat="39.04460333" lon="-0.33842667">
        <ele>230.947</ele>
        <time>2020-02-08T10:35:40.359Z</time>
      </trkpt>
      <trkpt lat="39.04460333" lon="-0.33842667">
        <ele>229.947</ele>
        <time>2020-02-08T10:35:41.359Z</time>
      </trkpt>
      <trkpt lat="39.04442333" lon="-0.33859167">
        <ele>229.947</ele>
        <time>2020-02-08T10:35:42.359Z</time>
      </trkpt>
      <trkpt lat="39.04442333" lon="-0.33859167">
        <ele>228.947</ele>
        <time>2020-02-08T10:35:43.359Z</time>
      </trkpt>
      <trkpt lat="39.044225" lon="-0.33874333">
        <ele>228.947</ele>
        <time>2020-02-08T10:35:44.359Z</time>
      </trkpt>
      <trkpt lat="39.044225" lon="-0.33874333">
        <ele>226.947</ele>
        <time>2020-02-08T10:35:45.359Z</time>
      </trkpt>
      <trkpt lat="39.04401167" lon="-0.33884667">
        <ele>226.947</ele>
        <time>2020-02-08T10:35:46.359Z</time>
      </trkpt>
      <trkpt lat="39.04401167" lon="-0.33884667">
        <ele>225.947</ele>
        <time>2020-02-08T10:35:47.359Z</time>
      </trkpt>
      <trkpt lat="39.04379833" lon="-0.338805">
        <ele>225.947</ele>
        <time>2020-02-08T10:35:48.359Z</time>
      </trkpt>
      <trkpt lat="39.04379833" lon="-0.338805">
        <ele>224.947</ele>
        <time>2020-02-08T10:35:49.359Z</time>
      </trkpt>
      <trkpt lat="39.04363" lon="-0.33860833">
        <ele>224.947</ele>
        <time>2020-02-08T10:35:50.359Z</time>
      </trkpt>
      <trkpt lat="39.04363" lon="-0.33860833">
        <ele>222.947</ele>
        <time>2020-02-08T10:35:51.359Z</time>
      </trkpt>
      <trkpt lat="39.04350833" lon="-0.33835333">
        <ele>222.947</ele>
        <time>2020-02-08T10:35:52.359Z</time>
      </trkpt>
      <trkpt lat="39.04350833" lon="-0.33835333">
        <ele>221.947</ele>
        <time>2020-02-08T10:35:53.359Z</time>
      </trkpt>
      <trkpt lat="39.04336333" lon="-0.33811">
        <ele>219.947</ele>
        <time>2020-02-08T10:35:54.359Z</time>
      </trkpt>
      <trkpt lat="39.04336333" lon="-0.33811">
        <ele>219.947</ele>
        <time>2020-02-08T10:35:55.359Z</time>
      </trkpt>
      <trkpt lat="39.04321667" lon="-0.337885">
        <ele>218.947</ele>
        <time>2020-02-08T10:35:56.359Z</time>
      </trkpt>
      <trkpt lat="39.04321667" lon="-0.337885">
        <ele>218.947</ele>
        <time>2020-02-08T10:35:57.359Z</time>
      </trkpt>
      <trkpt lat="39.043145" lon="-0.337675">
        <ele>216.947</ele>
        <time>2020-02-08T10:35:58.359Z</time>
      </trkpt>
      <trkpt lat="39.043145" lon="-0.337675">
        <ele>216.947</ele>
        <time>2020-02-08T10:35:59.359Z</time>
      </trkpt>
      <trkpt lat="39.04319333" lon="-0.33746167">
        <ele>214.947</ele>
        <time>2020-02-08T10:36:00.359Z</time>
      </trkpt>
      <trkpt lat="39.04319333" lon="-0.33746167">
        <ele>214.947</ele>
        <time>2020-02-08T10:36:01.359Z</time>
      </trkpt>
      <trkpt lat="39.04331333" lon="-0.33725667">
        <ele>213.947</ele>
        <time>2020-02-08T10:36:02.359Z</time>
      </trkpt>
      <trkpt lat="39.04331333" lon="-0.33725667">
        <ele>213.947</ele>
        <time>2020-02-08T10:36:03.359Z</time>
      </trkpt>
      <trkpt lat="39.04344667" lon="-0.33703167">
        <ele>211.947</ele>
        <time>2020-02-08T10:36:04.359Z</time>
      </trkpt>
      <trkpt lat="39.04344667" lon="-0.33703167">
        <ele>211.947</ele>
        <time>2020-02-08T10:36:05.359Z</time>
      </trkpt>
      <trkpt lat="39.04356667" lon="-0.33677667">
        <ele>210.947</ele>
        <time>2020-02-08T10:36:06.359Z</time>
      </trkpt>
      <trkpt lat="39.04356667" lon="-0.33677667">
        <ele>210.947</ele>
        <time>2020-02-08T10:36:07.359Z</time>
      </trkpt>
      <trkpt lat="39.04366" lon="-0.336495">
        <ele>208.947</ele>
        <time>2020-02-08T10:36:08.359Z</time>
      </trkpt>
      <trkpt lat="39.04366" lon="-0.336495">
        <ele>208.947</ele>
        <time>2020-02-08T10:36:09.359Z</time>
      </trkpt>
      <trkpt lat="39.04374" lon="-0.33620167">
        <ele>207.947</ele>
        <time>2020-02-08T10:36:10.359Z</time>
      </trkpt>
      <trkpt lat="39.04377167" lon="-0.33605">
        <ele>207.947</ele>
        <time>2020-02-08T10:36:11.359Z</time>
      </trkpt>
      <trkpt lat="39.043795" lon="-0.33589667">
        <ele>205.947</ele>
        <time>2020-02-08T10:36:12.359Z</time>
      </trkpt>
      <trkpt lat="39.043795" lon="-0.33589667">
        <ele>205.947</ele>
        <time>2020-02-08T10:36:13.359Z</time>
      </trkpt>
      <trkpt lat="39.04382" lon="-0.33558">
        <ele>204.947</ele>
        <time>2020-02-08T10:36:14.359Z</time>
      </trkpt>
      <trkpt lat="39.04382" lon="-0.33558">
        <ele>204.947</ele>
        <time>2020-02-08T10:36:15.359Z</time>
      </trkpt>
      <trkpt lat="39.04385167" lon="-0.33526833">
        <ele>202.947</ele>
        <time>2020-02-08T10:36:16.359Z</time>
      </trkpt>
      <trkpt lat="39.04385167" lon="-0.33526833">
        <ele>202.947</ele>
        <time>2020-02-08T10:36:17.359Z</time>
      </trkpt>
      <trkpt lat="39.04384833" lon="-0.33495667">
        <ele>200.947</ele>
        <time>2020-02-08T10:36:18.359Z</time>
      </trkpt>
      <trkpt lat="39.04384833" lon="-0.33495667">
        <ele>200.947</ele>
        <time>2020-02-08T10:36:19.359Z</time>
      </trkpt>
      <trkpt lat="39.043795" lon="-0.334675">
        <ele>198.947</ele>
        <time>2020-02-08T10:36:20.359Z</time>
      </trkpt>
      <trkpt lat="39.043795" lon="-0.334675">
        <ele>198.947</ele>
        <time>2020-02-08T10:36:21.359Z</time>
      </trkpt>
      <trkpt lat="39.04379167" lon="-0.334405">
        <ele>197.947</ele>
        <time>2020-02-08T10:36:22.359Z</time>
      </trkpt>
      <trkpt lat="39.04382" lon="-0.334285">
        <ele>195.947</ele>
        <time>2020-02-08T10:36:23.359Z</time>
      </trkpt>
      <trkpt lat="39.04386833" lon="-0.33419167">
        <ele>195.947</ele>
        <time>2020-02-08T10:36:24.359Z</time>
      </trkpt>
      <trkpt lat="39.04386833" lon="-0.33419167">
        <ele>194.947</ele>
        <time>2020-02-08T10:36:25.359Z</time>
      </trkpt>
      <trkpt lat="39.04404167" lon="-0.33404333">
        <ele>194.947</ele>
        <time>2020-02-08T10:36:26.359Z</time>
      </trkpt>
      <trkpt lat="39.04404167" lon="-0.33404333">
        <ele>192.947</ele>
        <time>2020-02-08T10:36:27.359Z</time>
      </trkpt>
      <trkpt lat="39.04418833" lon="-0.33383833">
        <ele>192.947</ele>
        <time>2020-02-08T10:36:28.359Z</time>
      </trkpt>
      <trkpt lat="39.04425333" lon="-0.333715">
        <ele>190.947</ele>
        <time>2020-02-08T10:36:29.359Z</time>
      </trkpt>
      <trkpt lat="39.04425333" lon="-0.333715">
        <ele>190.947</ele>
        <time>2020-02-08T10:36:30.359Z</time>
      </trkpt>
      <trkpt lat="39.04435667" lon="-0.33343833">
        <ele>189.947</ele>
        <time>2020-02-08T10:36:31.359Z</time>
      </trkpt>
      <trkpt lat="39.04439" lon="-0.33328833">
        <ele>189.947</ele>
        <time>2020-02-08T10:36:32.359Z</time>
      </trkpt>
      <trkpt lat="39.04439" lon="-0.33328833">
        <ele>187.947</ele>
        <time>2020-02-08T10:36:33.359Z</time>
      </trkpt>
      <trkpt lat="39.04442" lon="-0.33298833">
        <ele>187.947</ele>
        <time>2020-02-08T10:36:34.359Z</time>
      </trkpt>
      <trkpt lat="39.04442" lon="-0.33298833">
        <ele>185.947</ele>
        <time>2020-02-08T10:36:35.359Z</time>
      </trkpt>
      <trkpt lat="39.04438167" lon="-0.33270833">
        <ele>185.947</ele>
        <time>2020-02-08T10:36:36.359Z</time>
      </trkpt>
      <trkpt lat="39.04438167" lon="-0.33270833">
        <ele>185.947</ele>
        <time>2020-02-08T10:36:37.359Z</time>
      </trkpt>
      <trkpt lat="39.04426" lon="-0.332465">
        <ele>183.947</ele>
        <time>2020-02-08T10:36:38.359Z</time>
      </trkpt>
      <trkpt lat="39.04426" lon="-0.332465">
        <ele>183.947</ele>
        <time>2020-02-08T10:36:39.359Z</time>
      </trkpt>
      <trkpt lat="39.04410333" lon="-0.33223833">
        <ele>181.947</ele>
        <time>2020-02-08T10:36:40.359Z</time>
      </trkpt>
      <trkpt lat="39.04410333" lon="-0.33223833">
        <ele>181.947</ele>
        <time>2020-02-08T10:36:41.359Z</time>
      </trkpt>
      <trkpt lat="39.04394" lon="-0.33200333">
        <ele>179.947</ele>
        <time>2020-02-08T10:36:42.359Z</time>
      </trkpt>
      <trkpt lat="39.04394" lon="-0.33200333">
        <ele>179.947</ele>
        <time>2020-02-08T10:36:43.359Z</time>
      </trkpt>
      <trkpt lat="39.04378833" lon="-0.33175833">
        <ele>178.947</ele>
        <time>2020-02-08T10:36:44.359Z</time>
      </trkpt>
      <trkpt lat="39.04378833" lon="-0.33175833">
        <ele>178.947</ele>
        <time>2020-02-08T10:36:45.359Z</time>
      </trkpt>
      <trkpt lat="39.04368" lon="-0.33147667">
        <ele>176.947</ele>
        <time>2020-02-08T10:36:46.359Z</time>
      </trkpt>
      <trkpt lat="39.04368" lon="-0.33147667">
        <ele>176.947</ele>
        <time>2020-02-08T10:36:47.359Z</time>
      </trkpt>
      <trkpt lat="39.04356833" lon="-0.33124167">
        <ele>174.947</ele>
        <time>2020-02-08T10:36:48.359Z</time>
      </trkpt>
      <trkpt lat="39.04356833" lon="-0.33124167">
        <ele>174.947</ele>
        <time>2020-02-08T10:36:49.359Z</time>
      </trkpt>
      <trkpt lat="39.04348667" lon="-0.33108833">
        <ele>172.947</ele>
        <time>2020-02-08T10:36:50.359Z</time>
      </trkpt>
      <trkpt lat="39.04348667" lon="-0.33108833">
        <ele>172.947</ele>
        <time>2020-02-08T10:36:51.359Z</time>
      </trkpt>
      <trkpt lat="39.04353167" lon="-0.33095167">
        <ele>171.947</ele>
        <time>2020-02-08T10:36:52.359Z</time>
      </trkpt>
      <trkpt lat="39.04353167" lon="-0.33095167">
        <ele>170.947</ele>
        <time>2020-02-08T10:36:53.359Z</time>
      </trkpt>
      <trkpt lat="39.04370167" lon="-0.33090167">
        <ele>170.947</ele>
        <time>2020-02-08T10:36:54.359Z</time>
      </trkpt>
      <trkpt lat="39.04370167" lon="-0.33090167">
        <ele>169.947</ele>
        <time>2020-02-08T10:36:55.359Z</time>
      </trkpt>
      <trkpt lat="39.04389833" lon="-0.33085333">
        <ele>169.947</ele>
        <time>2020-02-08T10:36:56.359Z</time>
      </trkpt>
      <trkpt lat="39.04389833" lon="-0.33085333">
        <ele>168.947</ele>
        <time>2020-02-08T10:36:57.359Z</time>
      </trkpt>
      <trkpt lat="39.04409" lon="-0.33075667">
        <ele>168.947</ele>
        <time>2020-02-08T10:36:58.359Z</time>
      </trkpt>
      <trkpt lat="39.044185" lon="-0.33068167">
        <ele>167.947</ele>
        <time>2020-02-08T10:36:59.359Z</time>
      </trkpt>
      <trkpt lat="39.044185" lon="-0.33068167">
        <ele>167.947</ele>
        <time>2020-02-08T10:37:00.359Z</time>
      </trkpt>
      <trkpt lat="39.04434667" lon="-0.33046833">
        <ele>165.947</ele>
        <time>2020-02-08T10:37:01.359Z</time>
      </trkpt>
      <trkpt lat="39.04434667" lon="-0.33046833">
        <ele>165.947</ele>
        <time>2020-02-08T10:37:02.359Z</time>
      </trkpt>
      <trkpt lat="39.04448" lon="-0.330215">
        <ele>164.947</ele>
        <time>2020-02-08T10:37:03.359Z</time>
      </trkpt>
      <trkpt lat="39.04448" lon="-0.330215">
        <ele>164.947</ele>
        <time>2020-02-08T10:37:04.359Z</time>
      </trkpt>
      <trkpt lat="39.04457833" lon="-0.32993167">
        <ele>162.947</ele>
        <time>2020-02-08T10:37:05.359Z</time>
      </trkpt>
      <trkpt lat="39.04461667" lon="-0.32978167">
        <ele>162.947</ele>
        <time>2020-02-08T10:37:06.359Z</time>
      </trkpt>
      <trkpt lat="39.04461667" lon="-0.32978167">
        <ele>161.947</ele>
        <time>2020-02-08T10:37:07.359Z</time>
      </trkpt>
      <trkpt lat="39.04466833" lon="-0.32947">
        <ele>161.947</ele>
        <time>2020-02-08T10:37:08.359Z</time>
      </trkpt>
      <trkpt lat="39.04469167" lon="-0.32931333">
        <ele>159.947</ele>
        <time>2020-02-08T10:37:09.359Z</time>
      </trkpt>
      <trkpt lat="39.04469167" lon="-0.32931333">
        <ele>159.947</ele>
        <time>2020-02-08T10:37:10.359Z</time>
      </trkpt>
      <trkpt lat="39.04475333" lon="-0.32899667">
        <ele>157.947</ele>
        <time>2020-02-08T10:37:11.359Z</time>
      </trkpt>
      <trkpt lat="39.04480167" lon="-0.32883167">
        <ele>157.947</ele>
        <time>2020-02-08T10:37:12.359Z</time>
      </trkpt>
      <trkpt lat="39.04480167" lon="-0.32883167">
        <ele>155.947</ele>
        <time>2020-02-08T10:37:13.359Z</time>
      </trkpt>
      <trkpt lat="39.04491" lon="-0.32851333">
        <ele>155.947</ele>
        <time>2020-02-08T10:37:14.359Z</time>
      </trkpt>
      <trkpt lat="39.04491" lon="-0.32851333">
        <ele>154.947</ele>
        <time>2020-02-08T10:37:15.359Z</time>
      </trkpt>
      <trkpt lat="39.04502833" lon="-0.32819833">
        <ele>154.947</ele>
        <time>2020-02-08T10:37:16.359Z</time>
      </trkpt>
      <trkpt lat="39.04509" lon="-0.32804167">
        <ele>152.947</ele>
        <time>2020-02-08T10:37:17.359Z</time>
      </trkpt>
      <trkpt lat="39.04509" lon="-0.32804167">
        <ele>152.947</ele>
        <time>2020-02-08T10:37:18.359Z</time>
      </trkpt>
      <trkpt lat="39.04519333" lon="-0.32771167">
        <ele>150.947</ele>
        <time>2020-02-08T10:37:19.359Z</time>
      </trkpt>
      <trkpt lat="39.045225" lon="-0.32754">
        <ele>150.947</ele>
        <time>2020-02-08T10:37:20.359Z</time>
      </trkpt>
      <trkpt lat="39.045225" lon="-0.32754">
        <ele>149.947</ele>
        <time>2020-02-08T10:37:21.359Z</time>
      </trkpt>
      <trkpt lat="39.04524833" lon="-0.327195">
        <ele>147.947</ele>
        <time>2020-02-08T10:37:22.359Z</time>
      </trkpt>
      <trkpt lat="39.04524833" lon="-0.327195">
        <ele>147.947</ele>
        <time>2020-02-08T10:37:23.359Z</time>
      </trkpt>
      <trkpt lat="39.04524" lon="-0.32685167">
        <ele>145.947</ele>
        <time>2020-02-08T10:37:24.359Z</time>
      </trkpt>
      <trkpt lat="39.04524" lon="-0.32685167">
        <ele>145.947</ele>
        <time>2020-02-08T10:37:25.359Z</time>
      </trkpt>
      <trkpt lat="39.04528167" lon="-0.32652667">
        <ele>143.947</ele>
        <time>2020-02-08T10:37:26.359Z</time>
      </trkpt>
      <trkpt lat="39.04528167" lon="-0.32652667">
        <ele>143.947</ele>
        <time>2020-02-08T10:37:27.359Z</time>
      </trkpt>
      <trkpt lat="39.045385" lon="-0.32622833">
        <ele>142.947</ele>
        <time>2020-02-08T10:37:28.359Z</time>
      </trkpt>
      <trkpt lat="39.045385" lon="-0.32622833">
        <ele>142.947</ele>
        <time>2020-02-08T10:37:29.359Z</time>
      </trkpt>
      <trkpt lat="39.045515" lon="-0.32594167">
        <ele>139.947</ele>
        <time>2020-02-08T10:37:30.359Z</time>
      </trkpt>
      <trkpt lat="39.045515" lon="-0.32594167">
        <ele>139.947</ele>
        <time>2020-02-08T10:37:31.359Z</time>
      </trkpt>
      <trkpt lat="39.04559167" lon="-0.325625">
        <ele>137.947</ele>
        <time>2020-02-08T10:37:32.359Z</time>
      </trkpt>
      <trkpt lat="39.04559167" lon="-0.325625">
        <ele>137.947</ele>
        <time>2020-02-08T10:37:33.359Z</time>
      </trkpt>
      <trkpt lat="39.04565833" lon="-0.3253">
        <ele>136.947</ele>
        <time>2020-02-08T10:37:34.359Z</time>
      </trkpt>
      <trkpt lat="39.04565833" lon="-0.3253">
        <ele>136.947</ele>
        <time>2020-02-08T10:37:35.359Z</time>
      </trkpt>
      <trkpt lat="39.04574" lon="-0.324985">
        <ele>134.947</ele>
        <time>2020-02-08T10:37:36.359Z</time>
      </trkpt>
      <trkpt lat="39.04574" lon="-0.324985">
        <ele>134.947</ele>
        <time>2020-02-08T10:37:37.359Z</time>
      </trkpt>
      <trkpt lat="39.04579" lon="-0.32470167">
        <ele>132.947</ele>
        <time>2020-02-08T10:37:38.359Z</time>
      </trkpt>
      <trkpt lat="39.04579" lon="-0.32470167">
        <ele>132.947</ele>
        <time>2020-02-08T10:37:39.359Z</time>
      </trkpt>
      <trkpt lat="39.04580167" lon="-0.32448167">
        <ele>130.947</ele>
        <time>2020-02-08T10:37:40.359Z</time>
      </trkpt>
      <trkpt lat="39.04580167" lon="-0.32448167">
        <ele>130.947</ele>
        <time>2020-02-08T10:37:41.359Z</time>
      </trkpt>
      <trkpt lat="39.04584333" lon="-0.32433667">
        <ele>128.947</ele>
        <time>2020-02-08T10:37:42.359Z</time>
      </trkpt>
      <trkpt lat="39.04584333" lon="-0.32433667">
        <ele>128.947</ele>
        <time>2020-02-08T10:37:43.359Z</time>
      </trkpt>
      <trkpt lat="39.04596667" lon="-0.32430333">
        <ele>127.947</ele>
        <time>2020-02-08T10:37:44.359Z</time>
      </trkpt>
      <trkpt lat="39.04596667" lon="-0.32430333">
        <ele>127.947</ele>
        <time>2020-02-08T10:37:45.359Z</time>
      </trkpt>
      <trkpt lat="39.04604" lon="-0.32442">
        <ele>126.947</ele>
        <time>2020-02-08T10:37:46.359Z</time>
      </trkpt>
      <trkpt lat="39.04604" lon="-0.32442">
        <ele>126.947</ele>
        <time>2020-02-08T10:37:47.359Z</time>
      </trkpt>
      <trkpt lat="39.04605833" lon="-0.32462667">
        <ele>125.947</ele>
        <time>2020-02-08T10:37:48.359Z</time>
      </trkpt>
      <trkpt lat="39.04605833" lon="-0.32462667">
        <ele>125.947</ele>
        <time>2020-02-08T10:37:49.359Z</time>
      </trkpt>
      <trkpt lat="39.04607333" lon="-0.32486333">
        <ele>124.947</ele>
        <time>2020-02-08T10:37:50.359Z</time>
      </trkpt>
      <trkpt lat="39.04607333" lon="-0.32486333">
        <ele>123.947</ele>
        <time>2020-02-08T10:37:51.359Z</time>
      </trkpt>
      <trkpt lat="39.04614167" lon="-0.32509333">
        <ele>123.947</ele>
        <time>2020-02-08T10:37:52.359Z</time>
      </trkpt>
      <trkpt lat="39.04614167" lon="-0.32509333">
        <ele>122.947</ele>
        <time>2020-02-08T10:37:53.359Z</time>
      </trkpt>
      <trkpt lat="39.04624833" lon="-0.32532333">
        <ele>122.947</ele>
        <time>2020-02-08T10:37:54.359Z</time>
      </trkpt>
      <trkpt lat="39.04624833" lon="-0.32532333">
        <ele>121.947</ele>
        <time>2020-02-08T10:37:55.359Z</time>
      </trkpt>
      <trkpt lat="39.04631167" lon="-0.32555167">
        <ele>121.947</ele>
        <time>2020-02-08T10:37:56.359Z</time>
      </trkpt>
      <trkpt lat="39.04633167" lon="-0.325645">
        <ele>120.947</ele>
        <time>2020-02-08T10:37:57.359Z</time>
      </trkpt>
      <trkpt lat="39.04633167" lon="-0.325645">
        <ele>120.947</ele>
        <time>2020-02-08T10:37:58.359Z</time>
      </trkpt>
      <trkpt lat="39.046415" lon="-0.32574167">
        <ele>118.947</ele>
        <time>2020-02-08T10:37:59.359Z</time>
      </trkpt>
      <trkpt lat="39.046415" lon="-0.32574167">
        <ele>118.947</ele>
        <time>2020-02-08T10:38:00.359Z</time>
      </trkpt>
      <trkpt lat="39.04653167" lon="-0.32566333">
        <ele>117.947</ele>
        <time>2020-02-08T10:38:01.359Z</time>
      </trkpt>
      <trkpt lat="39.04659" lon="-0.32557833">
        <ele>117.947</ele>
        <time>2020-02-08T10:38:02.359Z</time>
      </trkpt>
      <trkpt lat="39.04659" lon="-0.32557833">
        <ele>116.947</ele>
        <time>2020-02-08T10:38:03.359Z</time>
      </trkpt>
      <trkpt lat="39.0467" lon="-0.32537">
        <ele>116.947</ele>
        <time>2020-02-08T10:38:04.359Z</time>
      </trkpt>
      <trkpt lat="39.0467" lon="-0.32537">
        <ele>115.947</ele>
        <time>2020-02-08T10:38:05.359Z</time>
      </trkpt>
      <trkpt lat="39.04681" lon="-0.32513667">
        <ele>115.947</ele>
        <time>2020-02-08T10:38:06.359Z</time>
      </trkpt>
      <trkpt lat="39.04681" lon="-0.32513667">
        <ele>114.947</ele>
        <time>2020-02-08T10:38:07.359Z</time>
      </trkpt>
      <trkpt lat="39.04691" lon="-0.32487833">
        <ele>114.947</ele>
        <time>2020-02-08T10:38:08.359Z</time>
      </trkpt>
      <trkpt lat="39.04691" lon="-0.32487833">
        <ele>112.947</ele>
        <time>2020-02-08T10:38:09.359Z</time>
      </trkpt>
      <trkpt lat="39.046985" lon="-0.32459833">
        <ele>112.947</ele>
        <time>2020-02-08T10:38:10.359Z</time>
      </trkpt>
      <trkpt lat="39.046985" lon="-0.32459833">
        <ele>111.947</ele>
        <time>2020-02-08T10:38:11.359Z</time>
      </trkpt>
      <trkpt lat="39.04698667" lon="-0.3243">
        <ele>111.947</ele>
        <time>2020-02-08T10:38:12.359Z</time>
      </trkpt>
      <trkpt lat="39.04698667" lon="-0.3243">
        <ele>109.947</ele>
        <time>2020-02-08T10:38:13.359Z</time>
      </trkpt>
      <trkpt lat="39.04694333" lon="-0.324">
        <ele>109.947</ele>
        <time>2020-02-08T10:38:14.359Z</time>
      </trkpt>
      <trkpt lat="39.04694333" lon="-0.324">
        <ele>108.947</ele>
        <time>2020-02-08T10:38:15.359Z</time>
      </trkpt>
      <trkpt lat="39.04688833" lon="-0.32370667">
        <ele>108.947</ele>
        <time>2020-02-08T10:38:16.359Z</time>
      </trkpt>
      <trkpt lat="39.046845" lon="-0.32356667">
        <ele>107.947</ele>
        <time>2020-02-08T10:38:17.359Z</time>
      </trkpt>
      <trkpt lat="39.046845" lon="-0.32356667">
        <ele>107.947</ele>
        <time>2020-02-08T10:38:18.359Z</time>
      </trkpt>
      <trkpt lat="39.04673" lon="-0.32331833">
        <ele>105.947</ele>
        <time>2020-02-08T10:38:19.359Z</time>
      </trkpt>
      <trkpt lat="39.046655" lon="-0.32322333">
        <ele>104.947</ele>
        <time>2020-02-08T10:38:20.359Z</time>
      </trkpt>
      <trkpt lat="39.046655" lon="-0.32322333">
        <ele>104.947</ele>
        <time>2020-02-08T10:38:21.359Z</time>
      </trkpt>
      <trkpt lat="39.046505" lon="-0.32301">
        <ele>102.947</ele>
        <time>2020-02-08T10:38:22.359Z</time>
      </trkpt>
      <trkpt lat="39.04645333" lon="-0.32288333">
        <ele>102.947</ele>
        <time>2020-02-08T10:38:23.359Z</time>
      </trkpt>
      <trkpt lat="39.04645333" lon="-0.32288333">
        <ele>100.947</ele>
        <time>2020-02-08T10:38:24.359Z</time>
      </trkpt>
      <trkpt lat="39.046375" lon="-0.32261">
        <ele>100.947</ele>
        <time>2020-02-08T10:38:25.359Z</time>
      </trkpt>
      <trkpt lat="39.04634" lon="-0.32247167">
        <ele>99.947</ele>
        <time>2020-02-08T10:38:26.359Z</time>
      </trkpt>
      <trkpt lat="39.04634" lon="-0.32247167">
        <ele>99.947</ele>
        <time>2020-02-08T10:38:27.359Z</time>
      </trkpt>
      <trkpt lat="39.046285" lon="-0.32218667">
        <ele>97.947</ele>
        <time>2020-02-08T10:38:28.359Z</time>
      </trkpt>
      <trkpt lat="39.046285" lon="-0.32218667">
        <ele>97.947</ele>
        <time>2020-02-08T10:38:29.359Z</time>
      </trkpt>
      <trkpt lat="39.04629333" lon="-0.32188667">
        <ele>96.947</ele>
        <time>2020-02-08T10:38:30.359Z</time>
      </trkpt>
      <trkpt lat="39.04629333" lon="-0.32188667">
        <ele>96.947</ele>
        <time>2020-02-08T10:38:31.359Z</time>
      </trkpt>
      <trkpt lat="39.04633833" lon="-0.32159">
        <ele>94.947</ele>
        <time>2020-02-08T10:38:32.359Z</time>
      </trkpt>
      <trkpt lat="39.04633833" lon="-0.32159">
        <ele>94.947</ele>
        <time>2020-02-08T10:38:33.359Z</time>
      </trkpt>
      <trkpt lat="39.04642" lon="-0.32129667">
        <ele>92.947</ele>
        <time>2020-02-08T10:38:34.359Z</time>
      </trkpt>
      <trkpt lat="39.04647" lon="-0.32115667">
        <ele>92.947</ele>
        <time>2020-02-08T10:38:35.359Z</time>
      </trkpt>
      <trkpt lat="39.04647" lon="-0.32115667">
        <ele>91.947</ele>
        <time>2020-02-08T10:38:36.359Z</time>
      </trkpt>
      <trkpt lat="39.046585" lon="-0.32088833">
        <ele>91.947</ele>
        <time>2020-02-08T10:38:37.359Z</time>
      </trkpt>
      <trkpt lat="39.04665167" lon="-0.32076167">
        <ele>89.947</ele>
        <time>2020-02-08T10:38:38.359Z</time>
      </trkpt>
      <trkpt lat="39.04665167" lon="-0.32076167">
        <ele>89.947</ele>
        <time>2020-02-08T10:38:39.359Z</time>
      </trkpt>
      <trkpt lat="39.04679667" lon="-0.32051833">
        <ele>88.947</ele>
        <time>2020-02-08T10:38:40.359Z</time>
      </trkpt>
      <trkpt lat="39.04679667" lon="-0.32051833">
        <ele>88.947</ele>
        <time>2020-02-08T10:38:41.359Z</time>
      </trkpt>
      <trkpt lat="39.04693667" lon="-0.32027167">
        <ele>86.947</ele>
        <time>2020-02-08T10:38:42.359Z</time>
      </trkpt>
      <trkpt lat="39.047" lon="-0.32014667">
        <ele>86.947</ele>
        <time>2020-02-08T10:38:43.359Z</time>
      </trkpt>
      <trkpt lat="39.047" lon="-0.32014667">
        <ele>85.947</ele>
        <time>2020-02-08T10:38:44.359Z</time>
      </trkpt>
      <trkpt lat="39.047115" lon="-0.31988833">
        <ele>85.947</ele>
        <time>2020-02-08T10:38:45.359Z</time>
      </trkpt>
      <trkpt lat="39.047115" lon="-0.31988833">
        <ele>83.947</ele>
        <time>2020-02-08T10:38:46.359Z</time>
      </trkpt>
      <trkpt lat="39.047215" lon="-0.31963">
        <ele>83.947</ele>
        <time>2020-02-08T10:38:47.359Z</time>
      </trkpt>
      <trkpt lat="39.04725833" lon="-0.3195">
        <ele>82.947</ele>
        <time>2020-02-08T10:38:48.359Z</time>
      </trkpt>
      <trkpt lat="39.04725833" lon="-0.3195">
        <ele>81.947</ele>
        <time>2020-02-08T10:38:49.359Z</time>
      </trkpt>
      <trkpt lat="39.04732667" lon="-0.31923333">
        <ele>81.947</ele>
        <time>2020-02-08T10:38:50.359Z</time>
      </trkpt>
      <trkpt lat="39.04732667" lon="-0.31923333">
        <ele>79.947</ele>
        <time>2020-02-08T10:38:51.359Z</time>
      </trkpt>
      <trkpt lat="39.04737167" lon="-0.31896167">
        <ele>79.947</ele>
        <time>2020-02-08T10:38:52.359Z</time>
      </trkpt>
      <trkpt lat="39.04737167" lon="-0.31896167">
        <ele>78.947</ele>
        <time>2020-02-08T10:38:53.359Z</time>
      </trkpt>
      <trkpt lat="39.04740167" lon="-0.318685">
        <ele>78.947</ele>
        <time>2020-02-08T10:38:54.359Z</time>
      </trkpt>
      <trkpt lat="39.04740167" lon="-0.318685">
        <ele>76.947</ele>
        <time>2020-02-08T10:38:55.359Z</time>
      </trkpt>
      <trkpt lat="39.047385" lon="-0.31841">
        <ele>76.947</ele>
        <time>2020-02-08T10:38:56.359Z</time>
      </trkpt>
      <trkpt lat="39.047385" lon="-0.31841">
        <ele>75.947</ele>
        <time>2020-02-08T10:38:57.359Z</time>
      </trkpt>
      <trkpt lat="39.047325" lon="-0.31813667">
        <ele>75.947</ele>
        <time>2020-02-08T10:38:58.359Z</time>
      </trkpt>
      <trkpt lat="39.047325" lon="-0.31813667">
        <ele>74.947</ele>
        <time>2020-02-08T10:38:59.359Z</time>
      </trkpt>
      <trkpt lat="39.04725167" lon="-0.31786667">
        <ele>74.947</ele>
        <time>2020-02-08T10:39:00.359Z</time>
      </trkpt>
      <trkpt lat="39.04721333" lon="-0.31773333">
        <ele>73.947</ele>
        <time>2020-02-08T10:39:01.359Z</time>
      </trkpt>
      <trkpt lat="39.04717667" lon="-0.31759833">
        <ele>73.947</ele>
        <time>2020-02-08T10:39:02.359Z</time>
      </trkpt>
      <trkpt lat="39.04717667" lon="-0.31759833">
        <ele>72.947</ele>
        <time>2020-02-08T10:39:03.359Z</time>
      </trkpt>
      <trkpt lat="39.04710333" lon="-0.31733">
        <ele>72.947</ele>
        <time>2020-02-08T10:39:04.359Z</time>
      </trkpt>
      <trkpt lat="39.04706667" lon="-0.31719667">
        <ele>70.947</ele>
        <time>2020-02-08T10:39:05.359Z</time>
      </trkpt>
      <trkpt lat="39.04706667" lon="-0.31719667">
        <ele>70.947</ele>
        <time>2020-02-08T10:39:06.359Z</time>
      </trkpt>
      <trkpt lat="39.04699333" lon="-0.31692833">
        <ele>69.947</ele>
        <time>2020-02-08T10:39:07.359Z</time>
      </trkpt>
      <trkpt lat="39.04695667" lon="-0.316795">
        <ele>69.947</ele>
        <time>2020-02-08T10:39:08.359Z</time>
      </trkpt>
      <trkpt lat="39.04695667" lon="-0.316795">
        <ele>68.947</ele>
        <time>2020-02-08T10:39:09.359Z</time>
      </trkpt>
      <trkpt lat="39.04688167" lon="-0.31654833">
        <ele>68.947</ele>
        <time>2020-02-08T10:39:10.359Z</time>
      </trkpt>
      <trkpt lat="39.04688167" lon="-0.31654833">
        <ele>66.947</ele>
        <time>2020-02-08T10:39:11.359Z</time>
      </trkpt>
      <trkpt lat="39.04681333" lon="-0.316315">
        <ele>66.947</ele>
        <time>2020-02-08T10:39:12.359Z</time>
      </trkpt>
      <trkpt lat="39.04681333" lon="-0.316315">
        <ele>65.947</ele>
        <time>2020-02-08T10:39:13.359Z</time>
      </trkpt>
      <trkpt lat="39.046745" lon="-0.31610333">
        <ele>65.947</ele>
        <time>2020-02-08T10:39:14.359Z</time>
      </trkpt>
      <trkpt lat="39.046745" lon="-0.31610333">
        <ele>63.947</ele>
        <time>2020-02-08T10:39:15.359Z</time>
      </trkpt>
      <trkpt lat="39.04666333" lon="-0.315935">
        <ele>63.947</ele>
        <time>2020-02-08T10:39:16.359Z</time>
      </trkpt>
      <trkpt lat="39.046615" lon="-0.31586">
        <ele>62.947</ele>
        <time>2020-02-08T10:39:17.359Z</time>
      </trkpt>
      <trkpt lat="39.046615" lon="-0.31586">
        <ele>62.947</ele>
        <time>2020-02-08T10:39:18.359Z</time>
      </trkpt>
      <trkpt lat="39.046495" lon="-0.315745">
        <ele>61.947</ele>
        <time>2020-02-08T10:39:19.359Z</time>
      </trkpt>
      <trkpt lat="39.046495" lon="-0.315745">
        <ele>61.947</ele>
        <time>2020-02-08T10:39:20.359Z</time>
      </trkpt>
      <trkpt lat="39.046345" lon="-0.31566">
        <ele>61.947</ele>
        <time>2020-02-08T10:39:21.359Z</time>
      </trkpt>
      <trkpt lat="39.046275" lon="-0.31561167">
        <ele>61.947</ele>
        <time>2020-02-08T10:39:22.359Z</time>
      </trkpt>
      <trkpt lat="39.046215" lon="-0.31555333">
        <ele>61.947</ele>
        <time>2020-02-08T10:39:23.359Z</time>
      </trkpt>
      <trkpt lat="39.046215" lon="-0.31555333">
        <ele>61.947</ele>
        <time>2020-02-08T10:39:24.359Z</time>
      </trkpt>
      <trkpt lat="39.046115" lon="-0.31541333">
        <ele>61.947</ele>
        <time>2020-02-08T10:39:25.359Z</time>
      </trkpt>
      <trkpt lat="39.04606333" lon="-0.31534">
        <ele>61.947</ele>
        <time>2020-02-08T10:39:26.359Z</time>
      </trkpt>
      <trkpt lat="39.04606333" lon="-0.31534">
        <ele>61.947</ele>
        <time>2020-02-08T10:39:27.359Z</time>
      </trkpt>
      <trkpt lat="39.04596667" lon="-0.31518333">
        <ele>61.947</ele>
        <time>2020-02-08T10:39:28.359Z</time>
      </trkpt>
      <trkpt lat="39.04596667" lon="-0.31518333">
        <ele>61.947</ele>
        <time>2020-02-08T10:39:29.359Z</time>
      </trkpt>
      <trkpt lat="39.04587" lon="-0.31502333">
        <ele>61.947</ele>
        <time>2020-02-08T10:39:30.359Z</time>
      </trkpt>
      <trkpt lat="39.04582833" lon="-0.314945">
        <ele>61.947</ele>
        <time>2020-02-08T10:39:31.359Z</time>
      </trkpt>
      <trkpt lat="39.04582833" lon="-0.314945">
        <ele>61.947</ele>
        <time>2020-02-08T10:39:32.359Z</time>
      </trkpt>
      <trkpt lat="39.04574167" lon="-0.31478667">
        <ele>61.947</ele>
        <time>2020-02-08T10:39:33.359Z</time>
      </trkpt>
      <trkpt lat="39.04574167" lon="-0.31478667">
        <ele>61.947</ele>
        <time>2020-02-08T10:39:34.359Z</time>
      </trkpt>
      <trkpt lat="39.04562333" lon="-0.31465667">
        <ele>61.947</ele>
        <time>2020-02-08T10:39:35.359Z</time>
      </trkpt>
      <trkpt lat="39.04558667" lon="-0.31458333">
        <ele>61.947</ele>
        <time>2020-02-08T10:39:36.359Z</time>
      </trkpt>
      <trkpt lat="39.04558667" lon="-0.31458333">
        <ele>61.947</ele>
        <time>2020-02-08T10:39:37.359Z</time>
      </trkpt>
      <trkpt lat="39.04551" lon="-0.314445">
        <ele>62.947</ele>
        <time>2020-02-08T10:39:38.359Z</time>
      </trkpt>
      <trkpt lat="39.04547333" lon="-0.31437333">
        <ele>62.947</ele>
        <time>2020-02-08T10:39:39.359Z</time>
      </trkpt>
      <trkpt lat="39.04547333" lon="-0.31437333">
        <ele>62.947</ele>
        <time>2020-02-08T10:39:40.359Z</time>
      </trkpt>
      <trkpt lat="39.04539833" lon="-0.31423833">
        <ele>62.947</ele>
        <time>2020-02-08T10:39:41.359Z</time>
      </trkpt>
      <trkpt lat="39.04539833" lon="-0.31423833">
        <ele>62.947</ele>
        <time>2020-02-08T10:39:42.359Z</time>
      </trkpt>
      <trkpt lat="39.04530333" lon="-0.31411333">
        <ele>62.947</ele>
        <time>2020-02-08T10:39:43.359Z</time>
      </trkpt>
      <trkpt lat="39.04525833" lon="-0.31404833">
        <ele>62.947</ele>
        <time>2020-02-08T10:39:44.359Z</time>
      </trkpt>
      <trkpt lat="39.04525833" lon="-0.31404833">
        <ele>62.947</ele>
        <time>2020-02-08T10:39:45.359Z</time>
      </trkpt>
      <trkpt lat="39.04517667" lon="-0.31391167">
        <ele>62.947</ele>
        <time>2020-02-08T10:39:46.359Z</time>
      </trkpt>
      <trkpt lat="39.04517667" lon="-0.31391167">
        <ele>62.947</ele>
        <time>2020-02-08T10:39:47.359Z</time>
      </trkpt>
      <trkpt lat="39.045115" lon="-0.31376833">
        <ele>62.947</ele>
        <time>2020-02-08T10:39:48.359Z</time>
      </trkpt>
      <trkpt lat="39.045115" lon="-0.31376833">
        <ele>62.947</ele>
        <time>2020-02-08T10:39:49.359Z</time>
      </trkpt>
      <trkpt lat="39.04505333" lon="-0.31363">
        <ele>62.947</ele>
        <time>2020-02-08T10:39:50.359Z</time>
      </trkpt>
      <trkpt lat="39.04505333" lon="-0.31363">
        <ele>62.947</ele>
        <time>2020-02-08T10:39:51.359Z</time>
      </trkpt>
      <trkpt lat="39.04496167" lon="-0.31351333">
        <ele>62.947</ele>
        <time>2020-02-08T10:39:52.359Z</time>
      </trkpt>
      <trkpt lat="39.04496167" lon="-0.31351333">
        <ele>62.947</ele>
        <time>2020-02-08T10:39:53.359Z</time>
      </trkpt>
      <trkpt lat="39.04489" lon="-0.31338">
        <ele>62.947</ele>
        <time>2020-02-08T10:39:54.359Z</time>
      </trkpt>
      <trkpt lat="39.04485833" lon="-0.31331167">
        <ele>62.947</ele>
        <time>2020-02-08T10:39:55.359Z</time>
      </trkpt>
      <trkpt lat="39.04485833" lon="-0.31331167">
        <ele>62.947</ele>
        <time>2020-02-08T10:39:56.359Z</time>
      </trkpt>
      <trkpt lat="39.044775" lon="-0.31318167">
        <ele>62.947</ele>
        <time>2020-02-08T10:39:57.359Z</time>
      </trkpt>
      <trkpt lat="39.044775" lon="-0.31318167">
        <ele>62.947</ele>
        <time>2020-02-08T10:39:58.359Z</time>
      </trkpt>
      <trkpt lat="39.0447" lon="-0.31306167">
        <ele>61.947</ele>
        <time>2020-02-08T10:39:59.359Z</time>
      </trkpt>
      <trkpt lat="39.04467667" lon="-0.31300333">
        <ele>61.947</ele>
        <time>2020-02-08T10:40:00.359Z</time>
      </trkpt>
      <trkpt lat="39.04467667" lon="-0.31300333">
        <ele>61.947</ele>
        <time>2020-02-08T10:40:01.359Z</time>
      </trkpt>
      <trkpt lat="39.04462667" lon="-0.31289333">
        <ele>61.947</ele>
        <time>2020-02-08T10:40:02.359Z</time>
      </trkpt>
      <trkpt lat="39.04462667" lon="-0.31289333">
        <ele>61.947</ele>
        <time>2020-02-08T10:40:03.359Z</time>
      </trkpt>
      <trkpt lat="39.04458667" lon="-0.31278333">
        <ele>61.947</ele>
        <time>2020-02-08T10:40:04.359Z</time>
      </trkpt>
      <trkpt lat="39.04458667" lon="-0.31278333">
        <ele>61.947</ele>
        <time>2020-02-08T10:40:05.359Z</time>
      </trkpt>
      <trkpt lat="39.04454833" lon="-0.31267167">
        <ele>61.947</ele>
        <time>2020-02-08T10:40:06.359Z</time>
      </trkpt>
      <trkpt lat="39.04454833" lon="-0.31267167">
        <ele>61.947</ele>
        <time>2020-02-08T10:40:07.359Z</time>
      </trkpt>
      <trkpt lat="39.04451167" lon="-0.31256167">
        <ele>61.947</ele>
        <time>2020-02-08T10:40:08.359Z</time>
      </trkpt>
      <trkpt lat="39.04451167" lon="-0.31256167">
        <ele>61.947</ele>
        <time>2020-02-08T10:40:09.359Z</time>
      </trkpt>
      <trkpt lat="39.04446167" lon="-0.31244667">
        <ele>61.947</ele>
        <time>2020-02-08T10:40:10.359Z</time>
      </trkpt>
      <trkpt lat="39.04444333" lon="-0.31239167">
        <ele>61.947</ele>
        <time>2020-02-08T10:40:11.359Z</time>
      </trkpt>
      <trkpt lat="39.04443" lon="-0.31233">
        <ele>61.947</ele>
        <time>2020-02-08T10:40:12.359Z</time>
      </trkpt>
      <trkpt lat="39.04443" lon="-0.31233">
        <ele>61.947</ele>
        <time>2020-02-08T10:40:13.359Z</time>
      </trkpt>
      <trkpt lat="39.04437167" lon="-0.31221167">
        <ele>61.947</ele>
        <time>2020-02-08T10:40:14.359Z</time>
      </trkpt>
      <trkpt lat="39.04437167" lon="-0.31221167">
        <ele>61.947</ele>
        <time>2020-02-08T10:40:15.359Z</time>
      </trkpt>
      <trkpt lat="39.04429167" lon="-0.312125">
        <ele>61.947</ele>
        <time>2020-02-08T10:40:16.359Z</time>
      </trkpt>
      <trkpt lat="39.04429167" lon="-0.312125">
        <ele>61.947</ele>
        <time>2020-02-08T10:40:17.359Z</time>
      </trkpt>
      <trkpt lat="39.04424667" lon="-0.31203333">
        <ele>61.947</ele>
        <time>2020-02-08T10:40:18.359Z</time>
      </trkpt>
      <trkpt lat="39.04424667" lon="-0.31203333">
        <ele>61.947</ele>
        <time>2020-02-08T10:40:19.359Z</time>
      </trkpt>
      <trkpt lat="39.04418333" lon="-0.311955">
        <ele>61.947</ele>
        <time>2020-02-08T10:40:20.359Z</time>
      </trkpt>
      <trkpt lat="39.04418333" lon="-0.311955">
        <ele>61.947</ele>
        <time>2020-02-08T10:40:21.359Z</time>
      </trkpt>
      <trkpt lat="39.044145" lon="-0.31186833">
        <ele>61.947</ele>
        <time>2020-02-08T10:40:22.359Z</time>
      </trkpt>
      <trkpt lat="39.044145" lon="-0.31186833">
        <ele>61.947</ele>
        <time>2020-02-08T10:40:23.359Z</time>
      </trkpt>
      <trkpt lat="39.04405667" lon="-0.311805">
        <ele>62.947</ele>
        <time>2020-02-08T10:40:24.359Z</time>
      </trkpt>
      <trkpt lat="39.04405667" lon="-0.311805">
        <ele>62.947</ele>
        <time>2020-02-08T10:40:25.359Z</time>
      </trkpt>
      <trkpt lat="39.04396333" lon="-0.31174167">
        <ele>62.947</ele>
        <time>2020-02-08T10:40:26.359Z</time>
      </trkpt>
      <trkpt lat="39.04396333" lon="-0.31174167">
        <ele>62.947</ele>
        <time>2020-02-08T10:40:27.359Z</time>
      </trkpt>
      <trkpt lat="39.04387833" lon="-0.31167667">
        <ele>62.947</ele>
        <time>2020-02-08T10:40:28.359Z</time>
      </trkpt>
      <trkpt lat="39.04387833" lon="-0.31167667">
        <ele>62.947</ele>
        <time>2020-02-08T10:40:29.359Z</time>
      </trkpt>
      <trkpt lat="39.04380667" lon="-0.31159333">
        <ele>62.947</ele>
        <time>2020-02-08T10:40:30.359Z</time>
      </trkpt>
      <trkpt lat="39.04380667" lon="-0.31159333">
        <ele>62.947</ele>
        <time>2020-02-08T10:40:31.359Z</time>
      </trkpt>
      <trkpt lat="39.04374" lon="-0.31151167">
        <ele>62.947</ele>
        <time>2020-02-08T10:40:32.359Z</time>
      </trkpt>
      <trkpt lat="39.04374" lon="-0.31151167">
        <ele>62.947</ele>
        <time>2020-02-08T10:40:33.359Z</time>
      </trkpt>
      <trkpt lat="39.04368167" lon="-0.31144">
        <ele>62.947</ele>
        <time>2020-02-08T10:40:34.359Z</time>
      </trkpt>
      <trkpt lat="39.04368167" lon="-0.31144">
        <ele>62.947</ele>
        <time>2020-02-08T10:40:35.359Z</time>
      </trkpt>
      <trkpt lat="39.04362" lon="-0.31135833">
        <ele>62.947</ele>
        <time>2020-02-08T10:40:36.359Z</time>
      </trkpt>
      <trkpt lat="39.04362" lon="-0.31135833">
        <ele>62.947</ele>
        <time>2020-02-08T10:40:37.359Z</time>
      </trkpt>
      <trkpt lat="39.04356667" lon="-0.31128667">
        <ele>62.947</ele>
        <time>2020-02-08T10:40:38.359Z</time>
      </trkpt>
      <trkpt lat="39.04356667" lon="-0.31128667">
        <ele>62.947</ele>
        <time>2020-02-08T10:40:39.359Z</time>
      </trkpt>
      <trkpt lat="39.04353167" lon="-0.31123667">
        <ele>62.947</ele>
        <time>2020-02-08T10:40:40.359Z</time>
      </trkpt>
      <trkpt lat="39.04351667" lon="-0.31121833">
        <ele>62.947</ele>
        <time>2020-02-08T10:40:41.359Z</time>
      </trkpt>
      <trkpt lat="39.04349833" lon="-0.3112">
        <ele>62.947</ele>
        <time>2020-02-08T10:40:42.359Z</time>
      </trkpt>
      <trkpt lat="39.04349833" lon="-0.3112">
        <ele>62.947</ele>
        <time>2020-02-08T10:40:43.359Z</time>
      </trkpt>
      <trkpt lat="39.04344833" lon="-0.31118">
        <ele>62.947</ele>
        <time>2020-02-08T10:40:44.359Z</time>
      </trkpt>
      <trkpt lat="39.04344833" lon="-0.31118">
        <ele>62.947</ele>
        <time>2020-02-08T10:40:45.359Z</time>
      </trkpt>
      <trkpt lat="39.04343333" lon="-0.31111333">
        <ele>62.947</ele>
        <time>2020-02-08T10:40:46.359Z</time>
      </trkpt>
      <trkpt lat="39.04344" lon="-0.31107333">
        <ele>62.947</ele>
        <time>2020-02-08T10:40:47.359Z</time>
      </trkpt>
      <trkpt lat="39.04344" lon="-0.31107333">
        <ele>62.947</ele>
        <time>2020-02-08T10:40:48.359Z</time>
      </trkpt>
      <trkpt lat="39.04347" lon="-0.31098">
        <ele>62.947</ele>
        <time>2020-02-08T10:40:49.359Z</time>
      </trkpt>
      <trkpt lat="39.04347" lon="-0.31098">
        <ele>62.947</ele>
        <time>2020-02-08T10:40:50.359Z</time>
      </trkpt>
      <trkpt lat="39.04351" lon="-0.31088333">
        <ele>62.947</ele>
        <time>2020-02-08T10:40:51.359Z</time>
      </trkpt>
      <trkpt lat="39.04353" lon="-0.31083333">
        <ele>62.947</ele>
        <time>2020-02-08T10:40:52.359Z</time>
      </trkpt>
      <trkpt lat="39.04353" lon="-0.31083333">
        <ele>61.947</ele>
        <time>2020-02-08T10:40:53.359Z</time>
      </trkpt>
      <trkpt lat="39.04355667" lon="-0.310755">
        <ele>61.947</ele>
        <time>2020-02-08T10:40:54.359Z</time>
      </trkpt>
      <trkpt lat="39.04355667" lon="-0.310755">
        <ele>61.947</ele>
        <time>2020-02-08T10:40:55.359Z</time>
      </trkpt>
      <trkpt lat="39.04354833" lon="-0.31064167">
        <ele>61.947</ele>
        <time>2020-02-08T10:40:56.359Z</time>
      </trkpt>
      <trkpt lat="39.04354833" lon="-0.31064167">
        <ele>61.947</ele>
        <time>2020-02-08T10:40:57.359Z</time>
      </trkpt>
      <trkpt lat="39.04349833" lon="-0.31054167">
        <ele>61.947</ele>
        <time>2020-02-08T10:40:58.359Z</time>
      </trkpt>
      <trkpt lat="39.04349833" lon="-0.31054167">
        <ele>60.947</ele>
        <time>2020-02-08T10:40:59.359Z</time>
      </trkpt>
      <trkpt lat="39.04342833" lon="-0.31044167">
        <ele>60.947</ele>
        <time>2020-02-08T10:41:00.359Z</time>
      </trkpt>
      <trkpt lat="39.04342833" lon="-0.31044167">
        <ele>60.947</ele>
        <time>2020-02-08T10:41:01.359Z</time>
      </trkpt>
      <trkpt lat="39.043365" lon="-0.31035167">
        <ele>60.947</ele>
        <time>2020-02-08T10:41:02.359Z</time>
      </trkpt>
      <trkpt lat="39.04333833" lon="-0.31031667">
        <ele>59.947</ele>
        <time>2020-02-08T10:41:03.359Z</time>
      </trkpt>
      <trkpt lat="39.04333833" lon="-0.31031667">
        <ele>59.947</ele>
        <time>2020-02-08T10:41:04.359Z</time>
      </trkpt>
      <trkpt lat="39.04330667" lon="-0.310255">
        <ele>59.947</ele>
        <time>2020-02-08T10:41:05.359Z</time>
      </trkpt>
      <trkpt lat="39.04328833" lon="-0.31023">
        <ele>59.947</ele>
        <time>2020-02-08T10:41:06.359Z</time>
      </trkpt>
      <trkpt lat="39.04328833" lon="-0.31023">
        <ele>59.947</ele>
        <time>2020-02-08T10:41:07.359Z</time>
      </trkpt>
      <trkpt lat="39.04326" lon="-0.31019667">
        <ele>59.947</ele>
        <time>2020-02-08T10:41:08.359Z</time>
      </trkpt>
      <trkpt lat="39.04326" lon="-0.31019667">
        <ele>59.947</ele>
        <time>2020-02-08T10:41:09.359Z</time>
      </trkpt>
      <trkpt lat="39.043245" lon="-0.31019333">
        <ele>59.947</ele>
        <time>2020-02-08T10:41:10.359Z</time>
      </trkpt>
      <trkpt lat="39.043245" lon="-0.31019333">
        <ele>58.947</ele>
        <time>2020-02-08T10:41:11.359Z</time>
      </trkpt>
      <trkpt lat="39.04321333" lon="-0.31016667">
        <ele>58.947</ele>
        <time>2020-02-08T10:41:12.359Z</time>
      </trkpt>
      <trkpt lat="39.04321333" lon="-0.31016667">
        <ele>58.947</ele>
        <time>2020-02-08T10:41:13.359Z</time>
      </trkpt>
      <trkpt lat="39.04316" lon="-0.31009833">
        <ele>58.947</ele>
        <time>2020-02-08T10:41:14.359Z</time>
      </trkpt>
      <trkpt lat="39.04316" lon="-0.31009833">
        <ele>58.947</ele>
        <time>2020-02-08T10:41:15.359Z</time>
      </trkpt>
      <trkpt lat="39.04309167" lon="-0.31003">
        <ele>58.947</ele>
        <time>2020-02-08T10:41:16.359Z</time>
      </trkpt>
      <trkpt lat="39.04309167" lon="-0.31003">
        <ele>58.947</ele>
        <time>2020-02-08T10:41:17.359Z</time>
      </trkpt>
      <trkpt lat="39.04304333" lon="-0.309965">
        <ele>58.947</ele>
        <time>2020-02-08T10:41:18.359Z</time>
      </trkpt>
      <trkpt lat="39.04304333" lon="-0.309965">
        <ele>58.947</ele>
        <time>2020-02-08T10:41:19.359Z</time>
      </trkpt>
      <trkpt lat="39.04300833" lon="-0.30991">
        <ele>58.947</ele>
        <time>2020-02-08T10:41:20.359Z</time>
      </trkpt>
      <trkpt lat="39.04300833" lon="-0.30991">
        <ele>58.947</ele>
        <time>2020-02-08T10:41:21.359Z</time>
      </trkpt>
      <trkpt lat="39.04296167" lon="-0.30984667">
        <ele>57.947</ele>
        <time>2020-02-08T10:41:22.359Z</time>
      </trkpt>
      <trkpt lat="39.04293" lon="-0.30981667">
        <ele>57.947</ele>
        <time>2020-02-08T10:41:23.359Z</time>
      </trkpt>
      <trkpt lat="39.04293" lon="-0.30981667">
        <ele>57.947</ele>
        <time>2020-02-08T10:41:24.359Z</time>
      </trkpt>
      <trkpt lat="39.04287333" lon="-0.30976333">
        <ele>57.947</ele>
        <time>2020-02-08T10:41:25.359Z</time>
      </trkpt>
      <trkpt lat="39.042845" lon="-0.30973167">
        <ele>57.947</ele>
        <time>2020-02-08T10:41:26.359Z</time>
      </trkpt>
      <trkpt lat="39.042845" lon="-0.30973167">
        <ele>57.947</ele>
        <time>2020-02-08T10:41:27.359Z</time>
      </trkpt>
      <trkpt lat="39.04277667" lon="-0.30968833">
        <ele>57.947</ele>
        <time>2020-02-08T10:41:28.359Z</time>
      </trkpt>
      <trkpt lat="39.04277667" lon="-0.30968833">
        <ele>57.947</ele>
        <time>2020-02-08T10:41:29.359Z</time>
      </trkpt>
      <trkpt lat="39.04271" lon="-0.30962333">
        <ele>57.947</ele>
        <time>2020-02-08T10:41:30.359Z</time>
      </trkpt>
      <trkpt lat="39.04271" lon="-0.30962333">
        <ele>57.947</ele>
        <time>2020-02-08T10:41:31.359Z</time>
      </trkpt>
      <trkpt lat="39.04262" lon="-0.30957167">
        <ele>57.947</ele>
        <time>2020-02-08T10:41:32.359Z</time>
      </trkpt>
      <trkpt lat="39.04262" lon="-0.30957167">
        <ele>57.947</ele>
        <time>2020-02-08T10:41:33.359Z</time>
      </trkpt>
      <trkpt lat="39.04254667" lon="-0.309525">
        <ele>57.947</ele>
        <time>2020-02-08T10:41:34.359Z</time>
      </trkpt>
      <trkpt lat="39.04254667" lon="-0.309525">
        <ele>57.947</ele>
        <time>2020-02-08T10:41:35.359Z</time>
      </trkpt>
      <trkpt lat="39.04248833" lon="-0.30947667">
        <ele>57.947</ele>
        <time>2020-02-08T10:41:36.359Z</time>
      </trkpt>
      <trkpt lat="39.04248833" lon="-0.30947667">
        <ele>57.947</ele>
        <time>2020-02-08T10:41:37.359Z</time>
      </trkpt>
      <trkpt lat="39.04243333" lon="-0.30943">
        <ele>57.947</ele>
        <time>2020-02-08T10:41:38.359Z</time>
      </trkpt>
      <trkpt lat="39.04243333" lon="-0.30943">
        <ele>57.947</ele>
        <time>2020-02-08T10:41:39.359Z</time>
      </trkpt>
      <trkpt lat="39.04238833" lon="-0.30934667">
        <ele>57.947</ele>
        <time>2020-02-08T10:41:40.359Z</time>
      </trkpt>
      <trkpt lat="39.04238833" lon="-0.30934667">
        <ele>57.947</ele>
        <time>2020-02-08T10:41:41.359Z</time>
      </trkpt>
      <trkpt lat="39.04231" lon="-0.30928167">
        <ele>57.947</ele>
        <time>2020-02-08T10:41:42.359Z</time>
      </trkpt>
      <trkpt lat="39.04231" lon="-0.30928167">
        <ele>57.947</ele>
        <time>2020-02-08T10:41:43.359Z</time>
      </trkpt>
      <trkpt lat="39.04222333" lon="-0.30920833">
        <ele>56.947</ele>
        <time>2020-02-08T10:41:44.359Z</time>
      </trkpt>
      <trkpt lat="39.04222333" lon="-0.30920833">
        <ele>56.947</ele>
        <time>2020-02-08T10:41:45.359Z</time>
      </trkpt>
      <trkpt lat="39.04214667" lon="-0.3091">
        <ele>56.947</ele>
        <time>2020-02-08T10:41:46.359Z</time>
      </trkpt>
      <trkpt lat="39.04212333" lon="-0.30904167">
        <ele>56.947</ele>
        <time>2020-02-08T10:41:47.359Z</time>
      </trkpt>
      <trkpt lat="39.04212333" lon="-0.30904167">
        <ele>56.947</ele>
        <time>2020-02-08T10:41:48.359Z</time>
      </trkpt>
      <trkpt lat="39.04209667" lon="-0.30890333">
        <ele>56.947</ele>
        <time>2020-02-08T10:41:49.359Z</time>
      </trkpt>
      <trkpt lat="39.04209" lon="-0.30883">
        <ele>56.947</ele>
        <time>2020-02-08T10:41:50.359Z</time>
      </trkpt>
      <trkpt lat="39.04209" lon="-0.30883">
        <ele>56.947</ele>
        <time>2020-02-08T10:41:51.359Z</time>
      </trkpt>
      <trkpt lat="39.04207167" lon="-0.30868833">
        <ele>56.947</ele>
        <time>2020-02-08T10:41:52.359Z</time>
      </trkpt>
      <trkpt lat="39.04207167" lon="-0.30868833">
        <ele>56.947</ele>
        <time>2020-02-08T10:41:53.359Z</time>
      </trkpt>
      <trkpt lat="39.04206333" lon="-0.30854167">
        <ele>56.947</ele>
        <time>2020-02-08T10:41:54.359Z</time>
      </trkpt>
      <trkpt lat="39.04206333" lon="-0.30854167">
        <ele>56.947</ele>
        <time>2020-02-08T10:41:55.359Z</time>
      </trkpt>
      <trkpt lat="39.04206333" lon="-0.30840167">
        <ele>56.947</ele>
        <time>2020-02-08T10:41:56.359Z</time>
      </trkpt>
      <trkpt lat="39.04206333" lon="-0.30840167">
        <ele>56.947</ele>
        <time>2020-02-08T10:41:57.359Z</time>
      </trkpt>
      <trkpt lat="39.04207" lon="-0.30826833">
        <ele>55.947</ele>
        <time>2020-02-08T10:41:58.359Z</time>
      </trkpt>
      <trkpt lat="39.04207667" lon="-0.30821167">
        <ele>55.947</ele>
        <time>2020-02-08T10:41:59.359Z</time>
      </trkpt>
      <trkpt lat="39.04207667" lon="-0.30821167">
        <ele>55.947</ele>
        <time>2020-02-08T10:42:00.359Z</time>
      </trkpt>
      <trkpt lat="39.04209333" lon="-0.30813667">
        <ele>55.947</ele>
        <time>2020-02-08T10:42:01.359Z</time>
      </trkpt>
      <trkpt lat="39.0421" lon="-0.30811833">
        <ele>55.947</ele>
        <time>2020-02-08T10:42:02.359Z</time>
      </trkpt>
      <trkpt lat="39.0421" lon="-0.30811833">
        <ele>55.947</ele>
        <time>2020-02-08T10:42:03.359Z</time>
      </trkpt>
      <trkpt lat="39.04211667" lon="-0.30807667">
        <ele>55.947</ele>
        <time>2020-02-08T10:42:04.359Z</time>
      </trkpt>
      <trkpt lat="39.04211667" lon="-0.30807667">
        <ele>55.947</ele>
        <time>2020-02-08T10:42:05.359Z</time>
      </trkpt>
      <trkpt lat="39.04213167" lon="-0.30802667">
        <ele>55.947</ele>
        <time>2020-02-08T10:42:06.359Z</time>
      </trkpt>
      <trkpt lat="39.04213167" lon="-0.30802667">
        <ele>55.947</ele>
        <time>2020-02-08T10:42:07.359Z</time>
      </trkpt>
      <trkpt lat="39.04214" lon="-0.30794333">
        <ele>55.947</ele>
        <time>2020-02-08T10:42:08.359Z</time>
      </trkpt>
      <trkpt lat="39.04214" lon="-0.30794333">
        <ele>55.947</ele>
        <time>2020-02-08T10:42:09.359Z</time>
      </trkpt>
      <trkpt lat="39.04213167" lon="-0.30786333">
        <ele>55.947</ele>
        <time>2020-02-08T10:42:10.359Z</time>
      </trkpt>
      <trkpt lat="39.04213167" lon="-0.30786333">
        <ele>55.947</ele>
        <time>2020-02-08T10:42:11.359Z</time>
      </trkpt>
      <trkpt lat="39.04210833" lon="-0.307795">
        <ele>55.947</ele>
        <time>2020-02-08T10:42:12.359Z</time>
      </trkpt>
      <trkpt lat="39.04210833" lon="-0.307795">
        <ele>55.947</ele>
        <time>2020-02-08T10:42:13.359Z</time>
      </trkpt>
      <trkpt lat="39.04206667" lon="-0.30772833">
        <ele>55.947</ele>
        <time>2020-02-08T10:42:14.359Z</time>
      </trkpt>
      <trkpt lat="39.04206667" lon="-0.30772833">
        <ele>55.947</ele>
        <time>2020-02-08T10:42:15.359Z</time>
      </trkpt>
      <trkpt lat="39.04201333" lon="-0.30766">
        <ele>55.947</ele>
        <time>2020-02-08T10:42:16.359Z</time>
      </trkpt>
      <trkpt lat="39.04199167" lon="-0.30762333">
        <ele>55.947</ele>
        <time>2020-02-08T10:42:17.359Z</time>
      </trkpt>
      <trkpt lat="39.04199167" lon="-0.30762333">
        <ele>55.947</ele>
        <time>2020-02-08T10:42:18.359Z</time>
      </trkpt>
      <trkpt lat="39.04193667" lon="-0.30754">
        <ele>55.947</ele>
        <time>2020-02-08T10:42:19.359Z</time>
      </trkpt>
      <trkpt lat="39.04191667" lon="-0.30749167">
        <ele>55.947</ele>
        <time>2020-02-08T10:42:20.359Z</time>
      </trkpt>
      <trkpt lat="39.04191667" lon="-0.30749167">
        <ele>55.947</ele>
        <time>2020-02-08T10:42:21.359Z</time>
      </trkpt>
      <trkpt lat="39.04185833" lon="-0.30739833">
        <ele>55.947</ele>
        <time>2020-02-08T10:42:22.359Z</time>
      </trkpt>
      <trkpt lat="39.04185833" lon="-0.30739833">
        <ele>55.947</ele>
        <time>2020-02-08T10:42:23.359Z</time>
      </trkpt>
      <trkpt lat="39.0418" lon="-0.30730333">
        <ele>55.947</ele>
        <time>2020-02-08T10:42:24.359Z</time>
      </trkpt>
      <trkpt lat="39.0418" lon="-0.30730333">
        <ele>55.947</ele>
        <time>2020-02-08T10:42:25.359Z</time>
      </trkpt>
      <trkpt lat="39.04174333" lon="-0.30721333">
        <ele>55.947</ele>
        <time>2020-02-08T10:42:26.359Z</time>
      </trkpt>
      <trkpt lat="39.04174333" lon="-0.30721333">
        <ele>55.947</ele>
        <time>2020-02-08T10:42:27.359Z</time>
      </trkpt>
      <trkpt lat="39.04168667" lon="-0.30712333">
        <ele>55.947</ele>
        <time>2020-02-08T10:42:28.359Z</time>
      </trkpt>
      <trkpt lat="39.04166" lon="-0.30708">
        <ele>55.947</ele>
        <time>2020-02-08T10:42:29.359Z</time>
      </trkpt>
      <trkpt lat="39.04163167" lon="-0.307035">
        <ele>55.947</ele>
        <time>2020-02-08T10:42:30.359Z</time>
      </trkpt>
      <trkpt lat="39.04163167" lon="-0.307035">
        <ele>55.947</ele>
        <time>2020-02-08T10:42:31.359Z</time>
      </trkpt>
      <trkpt lat="39.04158" lon="-0.306945">
        <ele>55.947</ele>
        <time>2020-02-08T10:42:32.359Z</time>
      </trkpt>
      <trkpt lat="39.04158" lon="-0.306945">
        <ele>56.947</ele>
        <time>2020-02-08T10:42:33.359Z</time>
      </trkpt>
      <trkpt lat="39.04153333" lon="-0.30686667">
        <ele>56.947</ele>
        <time>2020-02-08T10:42:34.359Z</time>
      </trkpt>
      <trkpt lat="39.04153333" lon="-0.30686667">
        <ele>56.947</ele>
        <time>2020-02-08T10:42:35.359Z</time>
      </trkpt>
      <trkpt lat="39.04153333" lon="-0.30677333">
        <ele>56.947</ele>
        <time>2020-02-08T10:42:36.359Z</time>
      </trkpt>
      <trkpt lat="39.04153333" lon="-0.30677333">
        <ele>56.947</ele>
        <time>2020-02-08T10:42:37.359Z</time>
      </trkpt>
      <trkpt lat="39.04156333" lon="-0.306685">
        <ele>56.947</ele>
        <time>2020-02-08T10:42:38.359Z</time>
      </trkpt>
      <trkpt lat="39.04156333" lon="-0.306685">
        <ele>56.947</ele>
        <time>2020-02-08T10:42:39.359Z</time>
      </trkpt>
      <trkpt lat="39.04159" lon="-0.306595">
        <ele>56.947</ele>
        <time>2020-02-08T10:42:40.359Z</time>
      </trkpt>
      <trkpt lat="39.04159" lon="-0.306595">
        <ele>56.947</ele>
        <time>2020-02-08T10:42:41.359Z</time>
      </trkpt>
      <trkpt lat="39.04161" lon="-0.30651667">
        <ele>57.947</ele>
        <time>2020-02-08T10:42:42.359Z</time>
      </trkpt>
      <trkpt lat="39.04161" lon="-0.30651667">
        <ele>57.947</ele>
        <time>2020-02-08T10:42:43.359Z</time>
      </trkpt>
      <trkpt lat="39.041615" lon="-0.30647333">
        <ele>57.947</ele>
        <time>2020-02-08T10:42:44.359Z</time>
      </trkpt>
      <trkpt lat="39.041615" lon="-0.30647333">
        <ele>57.947</ele>
        <time>2020-02-08T10:42:45.359Z</time>
      </trkpt>
      <trkpt lat="39.04161833" lon="-0.30646167">
        <ele>57.947</ele>
        <time>2020-02-08T10:42:46.359Z</time>
      </trkpt>
      <trkpt lat="39.04161833" lon="-0.30645833">
        <ele>57.947</ele>
        <time>2020-02-08T10:42:47.359Z</time>
      </trkpt>
      <trkpt lat="39.04161833" lon="-0.30645833">
        <ele>57.947</ele>
        <time>2020-02-08T10:42:48.359Z</time>
      </trkpt>
      <trkpt lat="39.04161833" lon="-0.30645833">
        <ele>57.947</ele>
        <time>2020-02-08T10:42:49.359Z</time>
      </trkpt>
      <trkpt lat="39.04161833" lon="-0.30645833">
        <ele>57.947</ele>
        <time>2020-02-08T10:42:50.359Z</time>
      </trkpt>
      <trkpt lat="39.04161833" lon="-0.30645833">
        <ele>57.947</ele>
        <time>2020-02-08T10:42:51.359Z</time>
      </trkpt>
      <trkpt lat="39.04161833" lon="-0.30645833">
        <ele>57.947</ele>
        <time>2020-02-08T10:42:52.359Z</time>
      </trkpt>
      <trkpt lat="39.04161833" lon="-0.30645833">
        <ele>57.947</ele>
        <time>2020-02-08T10:42:53.359Z</time>
      </trkpt>
      <trkpt lat="39.04161833" lon="-0.30645833">
        <ele>57.947</ele>
        <time>2020-02-08T10:42:54.359Z</time>
      </trkpt>
      <trkpt lat="39.04161833" lon="-0.30645833">
        <ele>57.947</ele>
        <time>2020-02-08T10:42:55.359Z</time>
      </trkpt>
      <trkpt lat="39.04161833" lon="-0.30645833">
        <ele>57.947</ele>
        <time>2020-02-08T10:42:56.359Z</time>
      </trkpt>
      <trkpt lat="39.04161833" lon="-0.30645833">
        <ele>57.947</ele>
        <time>2020-02-08T10:42:57.359Z</time>
      </trkpt>
      <trkpt lat="39.04161833" lon="-0.30645833">
        <ele>57.947</ele>
        <time>2020-02-08T10:42:58.359Z</time>
      </trkpt>
      <trkpt lat="39.04161833" lon="-0.30645833">
        <ele>57.947</ele>
        <time>2020-02-08T10:42:59.359Z</time>
      </trkpt>
      <trkpt lat="39.04165" lon="-0.30641667">
        <ele>57.947</ele>
        <time>2020-02-08T10:43:00.359Z</time>
      </trkpt>
      <trkpt lat="39.04165" lon="-0.30641667">
        <ele>57.947</ele>
        <time>2020-02-08T10:43:01.359Z</time>
      </trkpt>
      <trkpt lat="39.041665" lon="-0.30636">
        <ele>57.947</ele>
        <time>2020-02-08T10:43:02.359Z</time>
      </trkpt>
      <trkpt lat="39.041665" lon="-0.30636">
        <ele>57.947</ele>
        <time>2020-02-08T10:43:03.359Z</time>
      </trkpt>
      <trkpt lat="39.04167667" lon="-0.30626833">
        <ele>57.947</ele>
        <time>2020-02-08T10:43:04.359Z</time>
      </trkpt>
      <trkpt lat="39.04167667" lon="-0.30626833">
        <ele>57.947</ele>
        <time>2020-02-08T10:43:05.359Z</time>
      </trkpt>
      <trkpt lat="39.041685" lon="-0.30617">
        <ele>57.947</ele>
        <time>2020-02-08T10:43:06.359Z</time>
      </trkpt>
      <trkpt lat="39.041685" lon="-0.30617">
        <ele>57.947</ele>
        <time>2020-02-08T10:43:07.359Z</time>
      </trkpt>
      <trkpt lat="39.04170333" lon="-0.30606667">
        <ele>57.947</ele>
        <time>2020-02-08T10:43:08.359Z</time>
      </trkpt>
      <trkpt lat="39.04170333" lon="-0.30606667">
        <ele>57.947</ele>
        <time>2020-02-08T10:43:09.359Z</time>
      </trkpt>
      <trkpt lat="39.04172167" lon="-0.30595667">
        <ele>57.947</ele>
        <time>2020-02-08T10:43:10.359Z</time>
      </trkpt>
      <trkpt lat="39.04172167" lon="-0.30595667">
        <ele>57.947</ele>
        <time>2020-02-08T10:43:11.359Z</time>
      </trkpt>
      <trkpt lat="39.04173" lon="-0.30584">
        <ele>57.947</ele>
        <time>2020-02-08T10:43:12.359Z</time>
      </trkpt>
      <trkpt lat="39.04174167" lon="-0.30577833">
        <ele>57.947</ele>
        <time>2020-02-08T10:43:13.359Z</time>
      </trkpt>
      <trkpt lat="39.041755" lon="-0.30572">
        <ele>57.947</ele>
        <time>2020-02-08T10:43:14.359Z</time>
      </trkpt>
      <trkpt lat="39.041755" lon="-0.30572">
        <ele>57.947</ele>
        <time>2020-02-08T10:43:15.359Z</time>
      </trkpt>
      <trkpt lat="39.04177833" lon="-0.30559167">
        <ele>57.947</ele>
        <time>2020-02-08T10:43:16.359Z</time>
      </trkpt>
      <trkpt lat="39.04177833" lon="-0.30559167">
        <ele>57.947</ele>
        <time>2020-02-08T10:43:17.359Z</time>
      </trkpt>
      <trkpt lat="39.04180333" lon="-0.30545">
        <ele>57.947</ele>
        <time>2020-02-08T10:43:18.359Z</time>
      </trkpt>
      <trkpt lat="39.04180333" lon="-0.30545">
        <ele>57.947</ele>
        <time>2020-02-08T10:43:19.359Z</time>
      </trkpt>
      <trkpt lat="39.04183667" lon="-0.30531">
        <ele>57.947</ele>
        <time>2020-02-08T10:43:20.359Z</time>
      </trkpt>
      <trkpt lat="39.04183667" lon="-0.30531">
        <ele>57.947</ele>
        <time>2020-02-08T10:43:21.359Z</time>
      </trkpt>
      <trkpt lat="39.04188" lon="-0.30517167">
        <ele>57.947</ele>
        <time>2020-02-08T10:43:22.359Z</time>
      </trkpt>
      <trkpt lat="39.04188" lon="-0.30517167">
        <ele>57.947</ele>
        <time>2020-02-08T10:43:23.359Z</time>
      </trkpt>
      <trkpt lat="39.04192167" lon="-0.30502333">
        <ele>57.947</ele>
        <time>2020-02-08T10:43:24.359Z</time>
      </trkpt>
      <trkpt lat="39.04192167" lon="-0.30502333">
        <ele>57.947</ele>
        <time>2020-02-08T10:43:25.359Z</time>
      </trkpt>
      <trkpt lat="39.04196833" lon="-0.30486667">
        <ele>57.947</ele>
        <time>2020-02-08T10:43:26.359Z</time>
      </trkpt>
      <trkpt lat="39.04196833" lon="-0.30486667">
        <ele>57.947</ele>
        <time>2020-02-08T10:43:27.359Z</time>
      </trkpt>
      <trkpt lat="39.04201333" lon="-0.30470667">
        <ele>57.947</ele>
        <time>2020-02-08T10:43:28.359Z</time>
      </trkpt>
      <trkpt lat="39.04201333" lon="-0.30470667">
        <ele>56.947</ele>
        <time>2020-02-08T10:43:29.359Z</time>
      </trkpt>
      <trkpt lat="39.04205333" lon="-0.304545">
        <ele>56.947</ele>
        <time>2020-02-08T10:43:30.359Z</time>
      </trkpt>
      <trkpt lat="39.04205333" lon="-0.304545">
        <ele>56.947</ele>
        <time>2020-02-08T10:43:31.359Z</time>
      </trkpt>
      <trkpt lat="39.04209167" lon="-0.304375">
        <ele>56.947</ele>
        <time>2020-02-08T10:43:32.359Z</time>
      </trkpt>
      <trkpt lat="39.04209167" lon="-0.304375">
        <ele>55.947</ele>
        <time>2020-02-08T10:43:33.359Z</time>
      </trkpt>
      <trkpt lat="39.042135" lon="-0.30419833">
        <ele>55.947</ele>
        <time>2020-02-08T10:43:34.359Z</time>
      </trkpt>
      <trkpt lat="39.042135" lon="-0.30419833">
        <ele>55.947</ele>
        <time>2020-02-08T10:43:35.359Z</time>
      </trkpt>
      <trkpt lat="39.04218167" lon="-0.304015">
        <ele>55.947</ele>
        <time>2020-02-08T10:43:36.359Z</time>
      </trkpt>
      <trkpt lat="39.04218167" lon="-0.304015">
        <ele>54.947</ele>
        <time>2020-02-08T10:43:37.359Z</time>
      </trkpt>
      <trkpt lat="39.04223167" lon="-0.30382833">
        <ele>54.947</ele>
        <time>2020-02-08T10:43:38.359Z</time>
      </trkpt>
      <trkpt lat="39.04223167" lon="-0.30382833">
        <ele>54.947</ele>
        <time>2020-02-08T10:43:39.359Z</time>
      </trkpt>
      <trkpt lat="39.04229333" lon="-0.303645">
        <ele>54.947</ele>
        <time>2020-02-08T10:43:40.359Z</time>
      </trkpt>
      <trkpt lat="39.042325" lon="-0.303555">
        <ele>54.947</ele>
        <time>2020-02-08T10:43:41.359Z</time>
      </trkpt>
      <trkpt lat="39.042325" lon="-0.303555">
        <ele>53.947</ele>
        <time>2020-02-08T10:43:42.359Z</time>
      </trkpt>
      <trkpt lat="39.04239667" lon="-0.30336667">
        <ele>53.947</ele>
        <time>2020-02-08T10:43:43.359Z</time>
      </trkpt>
      <trkpt lat="39.04243167" lon="-0.303275">
        <ele>53.947</ele>
        <time>2020-02-08T10:43:44.359Z</time>
      </trkpt>
      <trkpt lat="39.04243167" lon="-0.303275">
        <ele>53.947</ele>
        <time>2020-02-08T10:43:45.359Z</time>
      </trkpt>
      <trkpt lat="39.04249667" lon="-0.30309167">
        <ele>53.947</ele>
        <time>2020-02-08T10:43:46.359Z</time>
      </trkpt>
      <trkpt lat="39.04252333" lon="-0.302995">
        <ele>53.947</ele>
        <time>2020-02-08T10:43:47.359Z</time>
      </trkpt>
      <trkpt lat="39.04254833" lon="-0.30289667">
        <ele>53.947</ele>
        <time>2020-02-08T10:43:48.359Z</time>
      </trkpt>
      <trkpt lat="39.04254833" lon="-0.30289667">
        <ele>53.947</ele>
        <time>2020-02-08T10:43:49.359Z</time>
      </trkpt>
      <trkpt lat="39.04260333" lon="-0.30270167">
        <ele>53.947</ele>
        <time>2020-02-08T10:43:50.359Z</time>
      </trkpt>
      <trkpt lat="39.04260333" lon="-0.30270167">
        <ele>53.947</ele>
        <time>2020-02-08T10:43:51.359Z</time>
      </trkpt>
      <trkpt lat="39.04265833" lon="-0.302505">
        <ele>53.947</ele>
        <time>2020-02-08T10:43:52.359Z</time>
      </trkpt>
      <trkpt lat="39.04265833" lon="-0.302505">
        <ele>53.947</ele>
        <time>2020-02-08T10:43:53.359Z</time>
      </trkpt>
      <trkpt lat="39.04270333" lon="-0.30230167">
        <ele>53.947</ele>
        <time>2020-02-08T10:43:54.359Z</time>
      </trkpt>
      <trkpt lat="39.04270333" lon="-0.30230167">
        <ele>53.947</ele>
        <time>2020-02-08T10:43:55.359Z</time>
      </trkpt>
      <trkpt lat="39.04275333" lon="-0.30210167">
        <ele>53.947</ele>
        <time>2020-02-08T10:43:56.359Z</time>
      </trkpt>
      <trkpt lat="39.04275333" lon="-0.30210167">
        <ele>52.947</ele>
        <time>2020-02-08T10:43:57.359Z</time>
      </trkpt>
      <trkpt lat="39.04281167" lon="-0.30189833">
        <ele>52.947</ele>
        <time>2020-02-08T10:43:58.359Z</time>
      </trkpt>
      <trkpt lat="39.04281167" lon="-0.30189833">
        <ele>52.947</ele>
        <time>2020-02-08T10:43:59.359Z</time>
      </trkpt>
      <trkpt lat="39.04286333" lon="-0.30169">
        <ele>52.947</ele>
        <time>2020-02-08T10:44:00.359Z</time>
      </trkpt>
      <trkpt lat="39.04286333" lon="-0.30169">
        <ele>52.947</ele>
        <time>2020-02-08T10:44:01.359Z</time>
      </trkpt>
      <trkpt lat="39.04291167" lon="-0.30148167">
        <ele>52.947</ele>
        <time>2020-02-08T10:44:02.359Z</time>
      </trkpt>
      <trkpt lat="39.04293333" lon="-0.30137667">
        <ele>52.947</ele>
        <time>2020-02-08T10:44:03.359Z</time>
      </trkpt>
      <trkpt lat="39.04295333" lon="-0.30127167">
        <ele>52.947</ele>
        <time>2020-02-08T10:44:04.359Z</time>
      </trkpt>
      <trkpt lat="39.04295333" lon="-0.30127167">
        <ele>52.947</ele>
        <time>2020-02-08T10:44:05.359Z</time>
      </trkpt>
      <trkpt lat="39.04299667" lon="-0.30106833">
        <ele>52.947</ele>
        <time>2020-02-08T10:44:06.359Z</time>
      </trkpt>
      <trkpt lat="39.04299667" lon="-0.30106833">
        <ele>52.947</ele>
        <time>2020-02-08T10:44:07.359Z</time>
      </trkpt>
      <trkpt lat="39.04304333" lon="-0.300865">
        <ele>52.947</ele>
        <time>2020-02-08T10:44:08.359Z</time>
      </trkpt>
      <trkpt lat="39.04304333" lon="-0.300865">
        <ele>52.947</ele>
        <time>2020-02-08T10:44:09.359Z</time>
      </trkpt>
      <trkpt lat="39.04308" lon="-0.30066">
        <ele>52.947</ele>
        <time>2020-02-08T10:44:10.359Z</time>
      </trkpt>
      <trkpt lat="39.04308" lon="-0.30066">
        <ele>52.947</ele>
        <time>2020-02-08T10:44:11.359Z</time>
      </trkpt>
      <trkpt lat="39.04310833" lon="-0.30045333">
        <ele>52.947</ele>
        <time>2020-02-08T10:44:12.359Z</time>
      </trkpt>
      <trkpt lat="39.04311833" lon="-0.30035">
        <ele>52.947</ele>
        <time>2020-02-08T10:44:13.359Z</time>
      </trkpt>
      <trkpt lat="39.04312667" lon="-0.300245">
        <ele>52.947</ele>
        <time>2020-02-08T10:44:14.359Z</time>
      </trkpt>
      <trkpt lat="39.04312667" lon="-0.300245">
        <ele>51.947</ele>
        <time>2020-02-08T10:44:15.359Z</time>
      </trkpt>
      <trkpt lat="39.04314167" lon="-0.300035">
        <ele>51.947</ele>
        <time>2020-02-08T10:44:16.359Z</time>
      </trkpt>
      <trkpt lat="39.04315333" lon="-0.29993167">
        <ele>51.947</ele>
        <time>2020-02-08T10:44:17.359Z</time>
      </trkpt>
      <trkpt lat="39.043165" lon="-0.29982833">
        <ele>51.947</ele>
        <time>2020-02-08T10:44:18.359Z</time>
      </trkpt>
      <trkpt lat="39.043165" lon="-0.29982833">
        <ele>51.947</ele>
        <time>2020-02-08T10:44:19.359Z</time>
      </trkpt>
      <trkpt lat="39.04319333" lon="-0.29962167">
        <ele>51.947</ele>
        <time>2020-02-08T10:44:20.359Z</time>
      </trkpt>
      <trkpt lat="39.043205" lon="-0.29951667">
        <ele>51.947</ele>
        <time>2020-02-08T10:44:21.359Z</time>
      </trkpt>
      <trkpt lat="39.043205" lon="-0.29951667">
        <ele>51.947</ele>
        <time>2020-02-08T10:44:22.359Z</time>
      </trkpt>
      <trkpt lat="39.04319333" lon="-0.29930167">
        <ele>51.947</ele>
        <time>2020-02-08T10:44:23.359Z</time>
      </trkpt>
      <trkpt lat="39.043175" lon="-0.29919333">
        <ele>51.947</ele>
        <time>2020-02-08T10:44:24.359Z</time>
      </trkpt>
      <trkpt lat="39.043175" lon="-0.29919333">
        <ele>50.947</ele>
        <time>2020-02-08T10:44:25.359Z</time>
      </trkpt>
      <trkpt lat="39.04314667" lon="-0.29898">
        <ele>50.947</ele>
        <time>2020-02-08T10:44:26.359Z</time>
      </trkpt>
      <trkpt lat="39.04314667" lon="-0.29898">
        <ele>50.947</ele>
        <time>2020-02-08T10:44:27.359Z</time>
      </trkpt>
      <trkpt lat="39.04313667" lon="-0.29877333">
        <ele>50.947</ele>
        <time>2020-02-08T10:44:28.359Z</time>
      </trkpt>
      <trkpt lat="39.04313667" lon="-0.29877333">
        <ele>50.947</ele>
        <time>2020-02-08T10:44:29.359Z</time>
      </trkpt>
      <trkpt lat="39.04313167" lon="-0.29857">
        <ele>50.947</ele>
        <time>2020-02-08T10:44:30.359Z</time>
      </trkpt>
      <trkpt lat="39.04313333" lon="-0.29846833">
        <ele>50.947</ele>
        <time>2020-02-08T10:44:31.359Z</time>
      </trkpt>
      <trkpt lat="39.04313333" lon="-0.29846833">
        <ele>50.947</ele>
        <time>2020-02-08T10:44:32.359Z</time>
      </trkpt>
      <trkpt lat="39.04314167" lon="-0.29826667">
        <ele>50.947</ele>
        <time>2020-02-08T10:44:33.359Z</time>
      </trkpt>
      <trkpt lat="39.04314167" lon="-0.29826667">
        <ele>50.947</ele>
        <time>2020-02-08T10:44:34.359Z</time>
      </trkpt>
      <trkpt lat="39.043165" lon="-0.298065">
        <ele>50.947</ele>
        <time>2020-02-08T10:44:35.359Z</time>
      </trkpt>
      <trkpt lat="39.04318167" lon="-0.29796667">
        <ele>50.947</ele>
        <time>2020-02-08T10:44:36.359Z</time>
      </trkpt>
      <trkpt lat="39.04318167" lon="-0.29796667">
        <ele>50.947</ele>
        <time>2020-02-08T10:44:37.359Z</time>
      </trkpt>
      <trkpt lat="39.04321667" lon="-0.29776667">
        <ele>50.947</ele>
        <time>2020-02-08T10:44:38.359Z</time>
      </trkpt>
      <trkpt lat="39.04321667" lon="-0.29776667">
        <ele>50.947</ele>
        <time>2020-02-08T10:44:39.359Z</time>
      </trkpt>
      <trkpt lat="39.04325" lon="-0.29756167">
        <ele>50.947</ele>
        <time>2020-02-08T10:44:40.359Z</time>
      </trkpt>
      <trkpt lat="39.04326333" lon="-0.29745833">
        <ele>50.947</ele>
        <time>2020-02-08T10:44:41.359Z</time>
      </trkpt>
      <trkpt lat="39.04326667" lon="-0.297355">
        <ele>50.947</ele>
        <time>2020-02-08T10:44:42.359Z</time>
      </trkpt>
      <trkpt lat="39.04326667" lon="-0.297355">
        <ele>50.947</ele>
        <time>2020-02-08T10:44:43.359Z</time>
      </trkpt>
      <trkpt lat="39.04323667" lon="-0.29716">
        <ele>50.947</ele>
        <time>2020-02-08T10:44:44.359Z</time>
      </trkpt>
      <trkpt lat="39.04323667" lon="-0.29716">
        <ele>50.947</ele>
        <time>2020-02-08T10:44:45.359Z</time>
      </trkpt>
      <trkpt lat="39.04314333" lon="-0.29701333">
        <ele>50.947</ele>
        <time>2020-02-08T10:44:46.359Z</time>
      </trkpt>
      <trkpt lat="39.04308667" lon="-0.29695333">
        <ele>50.947</ele>
        <time>2020-02-08T10:44:47.359Z</time>
      </trkpt>
      <trkpt lat="39.04308667" lon="-0.29695333">
        <ele>50.947</ele>
        <time>2020-02-08T10:44:48.359Z</time>
      </trkpt>
      <trkpt lat="39.04296" lon="-0.29688333">
        <ele>50.947</ele>
        <time>2020-02-08T10:44:49.359Z</time>
      </trkpt>
      <trkpt lat="39.042895" lon="-0.296895">
        <ele>50.947</ele>
        <time>2020-02-08T10:44:50.359Z</time>
      </trkpt>
      <trkpt lat="39.042895" lon="-0.296895">
        <ele>50.947</ele>
        <time>2020-02-08T10:44:51.359Z</time>
      </trkpt>
      <trkpt lat="39.04282333" lon="-0.297015">
        <ele>50.947</ele>
        <time>2020-02-08T10:44:52.359Z</time>
      </trkpt>
      <trkpt lat="39.0428" lon="-0.29709833">
        <ele>50.947</ele>
        <time>2020-02-08T10:44:53.359Z</time>
      </trkpt>
      <trkpt lat="39.0428" lon="-0.29709833">
        <ele>50.947</ele>
        <time>2020-02-08T10:44:54.359Z</time>
      </trkpt>
      <trkpt lat="39.04276333" lon="-0.29726167">
        <ele>50.947</ele>
        <time>2020-02-08T10:44:55.359Z</time>
      </trkpt>
      <trkpt lat="39.04274" lon="-0.29734">
        <ele>50.947</ele>
        <time>2020-02-08T10:44:56.359Z</time>
      </trkpt>
      <trkpt lat="39.04274" lon="-0.29734">
        <ele>51.947</ele>
        <time>2020-02-08T10:44:57.359Z</time>
      </trkpt>
      <trkpt lat="39.04265833" lon="-0.29746333">
        <ele>51.947</ele>
        <time>2020-02-08T10:44:58.359Z</time>
      </trkpt>
      <trkpt lat="39.04265833" lon="-0.29746333">
        <ele>51.947</ele>
        <time>2020-02-08T10:44:59.359Z</time>
      </trkpt>
      <trkpt lat="39.042525" lon="-0.29748167">
        <ele>51.947</ele>
        <time>2020-02-08T10:45:00.359Z</time>
      </trkpt>
      <trkpt lat="39.04247" lon="-0.29745167">
        <ele>52.947</ele>
        <time>2020-02-08T10:45:01.359Z</time>
      </trkpt>
      <trkpt lat="39.04247" lon="-0.29745167">
        <ele>52.947</ele>
        <time>2020-02-08T10:45:02.359Z</time>
      </trkpt>
      <trkpt lat="39.04236333" lon="-0.297365">
        <ele>52.947</ele>
        <time>2020-02-08T10:45:03.359Z</time>
      </trkpt>
      <trkpt lat="39.04232833" lon="-0.297305">
        <ele>53.947</ele>
        <time>2020-02-08T10:45:04.359Z</time>
      </trkpt>
      <trkpt lat="39.04232833" lon="-0.297305">
        <ele>53.947</ele>
        <time>2020-02-08T10:45:05.359Z</time>
      </trkpt>
      <trkpt lat="39.04227667" lon="-0.29715333">
        <ele>53.947</ele>
        <time>2020-02-08T10:45:06.359Z</time>
      </trkpt>
      <trkpt lat="39.04225667" lon="-0.29707167">
        <ele>53.947</ele>
        <time>2020-02-08T10:45:07.359Z</time>
      </trkpt>
      <trkpt lat="39.04225667" lon="-0.29707167">
        <ele>54.947</ele>
        <time>2020-02-08T10:45:08.359Z</time>
      </trkpt>
      <trkpt lat="39.04223667" lon="-0.296915">
        <ele>54.947</ele>
        <time>2020-02-08T10:45:09.359Z</time>
      </trkpt>
      <trkpt lat="39.04224" lon="-0.29684">
        <ele>54.947</ele>
        <time>2020-02-08T10:45:10.359Z</time>
      </trkpt>
      <trkpt lat="39.04224" lon="-0.29684">
        <ele>54.947</ele>
        <time>2020-02-08T10:45:11.359Z</time>
      </trkpt>
      <trkpt lat="39.04226333" lon="-0.29669167">
        <ele>54.947</ele>
        <time>2020-02-08T10:45:12.359Z</time>
      </trkpt>
      <trkpt lat="39.04226333" lon="-0.29669167">
        <ele>54.947</ele>
        <time>2020-02-08T10:45:13.359Z</time>
      </trkpt>
      <trkpt lat="39.04228333" lon="-0.296545">
        <ele>55.947</ele>
        <time>2020-02-08T10:45:14.359Z</time>
      </trkpt>
      <trkpt lat="39.042295" lon="-0.29647333">
        <ele>55.947</ele>
        <time>2020-02-08T10:45:15.359Z</time>
      </trkpt>
      <trkpt lat="39.042295" lon="-0.29647333">
        <ele>55.947</ele>
        <time>2020-02-08T10:45:16.359Z</time>
      </trkpt>
      <trkpt lat="39.042315" lon="-0.29632667">
        <ele>55.947</ele>
        <time>2020-02-08T10:45:17.359Z</time>
      </trkpt>
      <trkpt lat="39.042315" lon="-0.29632667">
        <ele>55.947</ele>
        <time>2020-02-08T10:45:18.359Z</time>
      </trkpt>
      <trkpt lat="39.04233833" lon="-0.29618">
        <ele>55.947</ele>
        <time>2020-02-08T10:45:19.359Z</time>
      </trkpt>
      <trkpt lat="39.04234667" lon="-0.296105">
        <ele>55.947</ele>
        <time>2020-02-08T10:45:20.359Z</time>
      </trkpt>
      <trkpt lat="39.04234667" lon="-0.296105">
        <ele>55.947</ele>
        <time>2020-02-08T10:45:21.359Z</time>
      </trkpt>
      <trkpt lat="39.04233667" lon="-0.295945">
        <ele>55.947</ele>
        <time>2020-02-08T10:45:22.359Z</time>
      </trkpt>
      <trkpt lat="39.04232333" lon="-0.29586333">
        <ele>55.947</ele>
        <time>2020-02-08T10:45:23.359Z</time>
      </trkpt>
      <trkpt lat="39.04232333" lon="-0.29586333">
        <ele>55.947</ele>
        <time>2020-02-08T10:45:24.359Z</time>
      </trkpt>
      <trkpt lat="39.04229333" lon="-0.29572">
        <ele>55.947</ele>
        <time>2020-02-08T10:45:25.359Z</time>
      </trkpt>
      <trkpt lat="39.04228" lon="-0.295655">
        <ele>55.947</ele>
        <time>2020-02-08T10:45:26.359Z</time>
      </trkpt>
      <trkpt lat="39.04228" lon="-0.295655">
        <ele>55.947</ele>
        <time>2020-02-08T10:45:27.359Z</time>
      </trkpt>
      <trkpt lat="39.04229167" lon="-0.29551667">
        <ele>55.947</ele>
        <time>2020-02-08T10:45:28.359Z</time>
      </trkpt>
      <trkpt lat="39.04229167" lon="-0.29551667">
        <ele>55.947</ele>
        <time>2020-02-08T10:45:29.359Z</time>
      </trkpt>
      <trkpt lat="39.04234333" lon="-0.29536333">
        <ele>55.947</ele>
        <time>2020-02-08T10:45:30.359Z</time>
      </trkpt>
      <trkpt lat="39.04234333" lon="-0.29536333">
        <ele>55.947</ele>
        <time>2020-02-08T10:45:31.359Z</time>
      </trkpt>
      <trkpt lat="39.04240833" lon="-0.295205">
        <ele>54.947</ele>
        <time>2020-02-08T10:45:32.359Z</time>
      </trkpt>
      <trkpt lat="39.04240833" lon="-0.295205">
        <ele>54.947</ele>
        <time>2020-02-08T10:45:33.359Z</time>
      </trkpt>
      <trkpt lat="39.04248167" lon="-0.29503667">
        <ele>54.947</ele>
        <time>2020-02-08T10:45:34.359Z</time>
      </trkpt>
      <trkpt lat="39.04248167" lon="-0.29503667">
        <ele>53.947</ele>
        <time>2020-02-08T10:45:35.359Z</time>
      </trkpt>
      <trkpt lat="39.04255667" lon="-0.29485833">
        <ele>53.947</ele>
        <time>2020-02-08T10:45:36.359Z</time>
      </trkpt>
      <trkpt lat="39.04255667" lon="-0.29485833">
        <ele>53.947</ele>
        <time>2020-02-08T10:45:37.359Z</time>
      </trkpt>
      <trkpt lat="39.04263333" lon="-0.294675">
        <ele>53.947</ele>
        <time>2020-02-08T10:45:38.359Z</time>
      </trkpt>
      <trkpt lat="39.04263333" lon="-0.294675">
        <ele>52.947</ele>
        <time>2020-02-08T10:45:39.359Z</time>
      </trkpt>
      <trkpt lat="39.04271167" lon="-0.29449">
        <ele>52.947</ele>
        <time>2020-02-08T10:45:40.359Z</time>
      </trkpt>
      <trkpt lat="39.04271167" lon="-0.29449">
        <ele>52.947</ele>
        <time>2020-02-08T10:45:41.359Z</time>
      </trkpt>
      <trkpt lat="39.04278333" lon="-0.29430167">
        <ele>52.947</ele>
        <time>2020-02-08T10:45:42.359Z</time>
      </trkpt>
      <trkpt lat="39.04278333" lon="-0.29430167">
        <ele>50.947</ele>
        <time>2020-02-08T10:45:43.359Z</time>
      </trkpt>
      <trkpt lat="39.04286167" lon="-0.29411">
        <ele>50.947</ele>
        <time>2020-02-08T10:45:44.359Z</time>
      </trkpt>
      <trkpt lat="39.04286167" lon="-0.29411">
        <ele>50.947</ele>
        <time>2020-02-08T10:45:45.359Z</time>
      </trkpt>
      <trkpt lat="39.04294167" lon="-0.29391333">
        <ele>50.947</ele>
        <time>2020-02-08T10:45:46.359Z</time>
      </trkpt>
      <trkpt lat="39.042985" lon="-0.293815">
        <ele>49.947</ele>
        <time>2020-02-08T10:45:47.359Z</time>
      </trkpt>
      <trkpt lat="39.042985" lon="-0.293815">
        <ele>49.947</ele>
        <time>2020-02-08T10:45:48.359Z</time>
      </trkpt>
      <trkpt lat="39.043055" lon="-0.293615">
        <ele>49.947</ele>
        <time>2020-02-08T10:45:49.359Z</time>
      </trkpt>
      <trkpt lat="39.043055" lon="-0.293615">
        <ele>49.947</ele>
        <time>2020-02-08T10:45:50.359Z</time>
      </trkpt>
      <trkpt lat="39.04307333" lon="-0.29340167">
        <ele>48.947</ele>
        <time>2020-02-08T10:45:51.359Z</time>
      </trkpt>
      <trkpt lat="39.04307833" lon="-0.29330167">
        <ele>48.947</ele>
        <time>2020-02-08T10:45:52.359Z</time>
      </trkpt>
      <trkpt lat="39.04307833" lon="-0.29330167">
        <ele>48.947</ele>
        <time>2020-02-08T10:45:53.359Z</time>
      </trkpt>
      <trkpt lat="39.04311333" lon="-0.29311333">
        <ele>48.947</ele>
        <time>2020-02-08T10:45:54.359Z</time>
      </trkpt>
      <trkpt lat="39.04311333" lon="-0.29311333">
        <ele>48.947</ele>
        <time>2020-02-08T10:45:55.359Z</time>
      </trkpt>
      <trkpt lat="39.04311" lon="-0.29291833">
        <ele>48.947</ele>
        <time>2020-02-08T10:45:56.359Z</time>
      </trkpt>
      <trkpt lat="39.04311" lon="-0.29291833">
        <ele>48.947</ele>
        <time>2020-02-08T10:45:57.359Z</time>
      </trkpt>
      <trkpt lat="39.043095" lon="-0.29272667">
        <ele>48.947</ele>
        <time>2020-02-08T10:45:58.359Z</time>
      </trkpt>
      <trkpt lat="39.043095" lon="-0.29272667">
        <ele>48.947</ele>
        <time>2020-02-08T10:45:59.359Z</time>
      </trkpt>
      <trkpt lat="39.043105" lon="-0.29256333">
        <ele>48.947</ele>
        <time>2020-02-08T10:46:00.359Z</time>
      </trkpt>
      <trkpt lat="39.04313833" lon="-0.29251333">
        <ele>48.947</ele>
        <time>2020-02-08T10:46:01.359Z</time>
      </trkpt>
      <trkpt lat="39.04316833" lon="-0.29248167">
        <ele>48.947</ele>
        <time>2020-02-08T10:46:02.359Z</time>
      </trkpt>
      <trkpt lat="39.04316833" lon="-0.29248167">
        <ele>48.947</ele>
        <time>2020-02-08T10:46:03.359Z</time>
      </trkpt>
      <trkpt lat="39.04325333" lon="-0.292435">
        <ele>48.947</ele>
        <time>2020-02-08T10:46:04.359Z</time>
      </trkpt>
      <trkpt lat="39.04325333" lon="-0.292435">
        <ele>48.947</ele>
        <time>2020-02-08T10:46:05.359Z</time>
      </trkpt>
      <trkpt lat="39.04339" lon="-0.292465">
        <ele>48.947</ele>
        <time>2020-02-08T10:46:06.359Z</time>
      </trkpt>
      <trkpt lat="39.04339" lon="-0.292465">
        <ele>48.947</ele>
        <time>2020-02-08T10:46:07.359Z</time>
      </trkpt>
      <trkpt lat="39.04352833" lon="-0.29256">
        <ele>48.947</ele>
        <time>2020-02-08T10:46:08.359Z</time>
      </trkpt>
      <trkpt lat="39.04352833" lon="-0.29256">
        <ele>48.947</ele>
        <time>2020-02-08T10:46:09.359Z</time>
      </trkpt>
      <trkpt lat="39.043685" lon="-0.292585">
        <ele>48.947</ele>
        <time>2020-02-08T10:46:10.359Z</time>
      </trkpt>
      <trkpt lat="39.04377" lon="-0.29258333">
        <ele>48.947</ele>
        <time>2020-02-08T10:46:11.359Z</time>
      </trkpt>
      <trkpt lat="39.04385333" lon="-0.29258833">
        <ele>47.947</ele>
        <time>2020-02-08T10:46:12.359Z</time>
      </trkpt>
      <trkpt lat="39.04385333" lon="-0.29258833">
        <ele>47.947</ele>
        <time>2020-02-08T10:46:13.359Z</time>
      </trkpt>
      <trkpt lat="39.04401833" lon="-0.2926">
        <ele>47.947</ele>
        <time>2020-02-08T10:46:14.359Z</time>
      </trkpt>
      <trkpt lat="39.04401833" lon="-0.2926">
        <ele>47.947</ele>
        <time>2020-02-08T10:46:15.359Z</time>
      </trkpt>
      <trkpt lat="39.04418" lon="-0.292625">
        <ele>47.947</ele>
        <time>2020-02-08T10:46:16.359Z</time>
      </trkpt>
      <trkpt lat="39.04418" lon="-0.292625">
        <ele>47.947</ele>
        <time>2020-02-08T10:46:17.359Z</time>
      </trkpt>
      <trkpt lat="39.04434167" lon="-0.29269167">
        <ele>47.947</ele>
        <time>2020-02-08T10:46:18.359Z</time>
      </trkpt>
      <trkpt lat="39.044425" lon="-0.29273333">
        <ele>47.947</ele>
        <time>2020-02-08T10:46:19.359Z</time>
      </trkpt>
      <trkpt lat="39.044425" lon="-0.29273333">
        <ele>46.947</ele>
        <time>2020-02-08T10:46:20.359Z</time>
      </trkpt>
      <trkpt lat="39.04458833" lon="-0.29282167">
        <ele>46.947</ele>
        <time>2020-02-08T10:46:21.359Z</time>
      </trkpt>
      <trkpt lat="39.04458833" lon="-0.29282167">
        <ele>46.947</ele>
        <time>2020-02-08T10:46:22.359Z</time>
      </trkpt>
      <trkpt lat="39.04474167" lon="-0.29291833">
        <ele>46.947</ele>
        <time>2020-02-08T10:46:23.359Z</time>
      </trkpt>
      <trkpt lat="39.04481167" lon="-0.29297167">
        <ele>45.947</ele>
        <time>2020-02-08T10:46:24.359Z</time>
      </trkpt>
      <trkpt lat="39.04481167" lon="-0.29297167">
        <ele>45.947</ele>
        <time>2020-02-08T10:46:25.359Z</time>
      </trkpt>
      <trkpt lat="39.044955" lon="-0.29301333">
        <ele>45.947</ele>
        <time>2020-02-08T10:46:26.359Z</time>
      </trkpt>
      <trkpt lat="39.044955" lon="-0.29301333">
        <ele>45.947</ele>
        <time>2020-02-08T10:46:27.359Z</time>
      </trkpt>
      <trkpt lat="39.04509667" lon="-0.29295833">
        <ele>45.947</ele>
        <time>2020-02-08T10:46:28.359Z</time>
      </trkpt>
      <trkpt lat="39.04509667" lon="-0.29295833">
        <ele>45.947</ele>
        <time>2020-02-08T10:46:29.359Z</time>
      </trkpt>
      <trkpt lat="39.045245" lon="-0.292835">
        <ele>44.947</ele>
        <time>2020-02-08T10:46:30.359Z</time>
      </trkpt>
      <trkpt lat="39.04531667" lon="-0.29277">
        <ele>44.947</ele>
        <time>2020-02-08T10:46:31.359Z</time>
      </trkpt>
      <trkpt lat="39.04531667" lon="-0.29277">
        <ele>44.947</ele>
        <time>2020-02-08T10:46:32.359Z</time>
      </trkpt>
      <trkpt lat="39.04543" lon="-0.292605">
        <ele>44.947</ele>
        <time>2020-02-08T10:46:33.359Z</time>
      </trkpt>
      <trkpt lat="39.04543" lon="-0.292605">
        <ele>44.947</ele>
        <time>2020-02-08T10:46:34.359Z</time>
      </trkpt>
      <trkpt lat="39.04552333" lon="-0.29241833">
        <ele>44.947</ele>
        <time>2020-02-08T10:46:35.359Z</time>
      </trkpt>
      <trkpt lat="39.04556667" lon="-0.292335">
        <ele>44.947</ele>
        <time>2020-02-08T10:46:36.359Z</time>
      </trkpt>
      <trkpt lat="39.04556667" lon="-0.292335">
        <ele>44.947</ele>
        <time>2020-02-08T10:46:37.359Z</time>
      </trkpt>
      <trkpt lat="39.04564333" lon="-0.29218">
        <ele>44.947</ele>
        <time>2020-02-08T10:46:38.359Z</time>
      </trkpt>
      <trkpt lat="39.04564333" lon="-0.29218">
        <ele>44.947</ele>
        <time>2020-02-08T10:46:39.359Z</time>
      </trkpt>
      <trkpt lat="39.04572333" lon="-0.29202667">
        <ele>44.947</ele>
        <time>2020-02-08T10:46:40.359Z</time>
      </trkpt>
      <trkpt lat="39.04572333" lon="-0.29202667">
        <ele>44.947</ele>
        <time>2020-02-08T10:46:41.359Z</time>
      </trkpt>
      <trkpt lat="39.0458" lon="-0.29188">
        <ele>44.947</ele>
        <time>2020-02-08T10:46:42.359Z</time>
      </trkpt>
      <trkpt lat="39.0458" lon="-0.29188">
        <ele>44.947</ele>
        <time>2020-02-08T10:46:43.359Z</time>
      </trkpt>
      <trkpt lat="39.04587333" lon="-0.29173">
        <ele>44.947</ele>
        <time>2020-02-08T10:46:44.359Z</time>
      </trkpt>
      <trkpt lat="39.04587333" lon="-0.29173">
        <ele>44.947</ele>
        <time>2020-02-08T10:46:45.359Z</time>
      </trkpt>
      <trkpt lat="39.04595" lon="-0.291575">
        <ele>44.947</ele>
        <time>2020-02-08T10:46:46.359Z</time>
      </trkpt>
      <trkpt lat="39.04595" lon="-0.291575">
        <ele>44.947</ele>
        <time>2020-02-08T10:46:47.359Z</time>
      </trkpt>
      <trkpt lat="39.04603167" lon="-0.29141833">
        <ele>44.947</ele>
        <time>2020-02-08T10:46:48.359Z</time>
      </trkpt>
      <trkpt lat="39.04603167" lon="-0.29141833">
        <ele>44.947</ele>
        <time>2020-02-08T10:46:49.359Z</time>
      </trkpt>
      <trkpt lat="39.04611167" lon="-0.291255">
        <ele>44.947</ele>
        <time>2020-02-08T10:46:50.359Z</time>
      </trkpt>
      <trkpt lat="39.04611167" lon="-0.291255">
        <ele>44.947</ele>
        <time>2020-02-08T10:46:51.359Z</time>
      </trkpt>
      <trkpt lat="39.04619667" lon="-0.29109833">
        <ele>44.947</ele>
        <time>2020-02-08T10:46:52.359Z</time>
      </trkpt>
      <trkpt lat="39.04619667" lon="-0.29109833">
        <ele>44.947</ele>
        <time>2020-02-08T10:46:53.359Z</time>
      </trkpt>
      <trkpt lat="39.04630333" lon="-0.290985">
        <ele>44.947</ele>
        <time>2020-02-08T10:46:54.359Z</time>
      </trkpt>
      <trkpt lat="39.046365" lon="-0.29094167">
        <ele>44.947</ele>
        <time>2020-02-08T10:46:55.359Z</time>
      </trkpt>
      <trkpt lat="39.04643" lon="-0.29090167">
        <ele>44.947</ele>
        <time>2020-02-08T10:46:56.359Z</time>
      </trkpt>
      <trkpt lat="39.04643" lon="-0.29090167">
        <ele>44.947</ele>
        <time>2020-02-08T10:46:57.359Z</time>
      </trkpt>
      <trkpt lat="39.04656" lon="-0.290825">
        <ele>44.947</ele>
        <time>2020-02-08T10:46:58.359Z</time>
      </trkpt>
      <trkpt lat="39.04662333" lon="-0.290785">
        <ele>44.947</ele>
        <time>2020-02-08T10:46:59.359Z</time>
      </trkpt>
      <trkpt lat="39.04662333" lon="-0.290785">
        <ele>44.947</ele>
        <time>2020-02-08T10:47:00.359Z</time>
      </trkpt>
      <trkpt lat="39.04674667" lon="-0.29069333">
        <ele>44.947</ele>
        <time>2020-02-08T10:47:01.359Z</time>
      </trkpt>
      <trkpt lat="39.046805" lon="-0.29063833">
        <ele>44.947</ele>
        <time>2020-02-08T10:47:02.359Z</time>
      </trkpt>
      <trkpt lat="39.046805" lon="-0.29063833">
        <ele>44.947</ele>
        <time>2020-02-08T10:47:03.359Z</time>
      </trkpt>
      <trkpt lat="39.046925" lon="-0.29052833">
        <ele>44.947</ele>
        <time>2020-02-08T10:47:04.359Z</time>
      </trkpt>
      <trkpt lat="39.04698667" lon="-0.290475">
        <ele>44.947</ele>
        <time>2020-02-08T10:47:05.359Z</time>
      </trkpt>
      <trkpt lat="39.04698667" lon="-0.290475">
        <ele>44.947</ele>
        <time>2020-02-08T10:47:06.359Z</time>
      </trkpt>
      <trkpt lat="39.047115" lon="-0.29037">
        <ele>44.947</ele>
        <time>2020-02-08T10:47:07.359Z</time>
      </trkpt>
      <trkpt lat="39.04717833" lon="-0.29031333">
        <ele>44.947</ele>
        <time>2020-02-08T10:47:08.359Z</time>
      </trkpt>
      <trkpt lat="39.04717833" lon="-0.29031333">
        <ele>44.947</ele>
        <time>2020-02-08T10:47:09.359Z</time>
      </trkpt>
      <trkpt lat="39.047305" lon="-0.29020333">
        <ele>44.947</ele>
        <time>2020-02-08T10:47:10.359Z</time>
      </trkpt>
      <trkpt lat="39.047305" lon="-0.29020333">
        <ele>44.947</ele>
        <time>2020-02-08T10:47:11.359Z</time>
      </trkpt>
      <trkpt lat="39.04743167" lon="-0.29009667">
        <ele>44.947</ele>
        <time>2020-02-08T10:47:12.359Z</time>
      </trkpt>
      <trkpt lat="39.047495" lon="-0.29004667">
        <ele>44.947</ele>
        <time>2020-02-08T10:47:13.359Z</time>
      </trkpt>
      <trkpt lat="39.047495" lon="-0.29004667">
        <ele>44.947</ele>
        <time>2020-02-08T10:47:14.359Z</time>
      </trkpt>
      <trkpt lat="39.04762667" lon="-0.28995333">
        <ele>44.947</ele>
        <time>2020-02-08T10:47:15.359Z</time>
      </trkpt>
      <trkpt lat="39.04762667" lon="-0.28995333">
        <ele>44.947</ele>
        <time>2020-02-08T10:47:16.359Z</time>
      </trkpt>
      <trkpt lat="39.04776167" lon="-0.28987333">
        <ele>44.947</ele>
        <time>2020-02-08T10:47:17.359Z</time>
      </trkpt>
      <trkpt lat="39.04776167" lon="-0.28987333">
        <ele>44.947</ele>
        <time>2020-02-08T10:47:18.359Z</time>
      </trkpt>
      <trkpt lat="39.04790167" lon="-0.28979">
        <ele>44.947</ele>
        <time>2020-02-08T10:47:19.359Z</time>
      </trkpt>
      <trkpt lat="39.04797333" lon="-0.28974333">
        <ele>44.947</ele>
        <time>2020-02-08T10:47:20.359Z</time>
      </trkpt>
      <trkpt lat="39.04797333" lon="-0.28974333">
        <ele>44.947</ele>
        <time>2020-02-08T10:47:21.359Z</time>
      </trkpt>
      <trkpt lat="39.04811833" lon="-0.28965167">
        <ele>44.947</ele>
        <time>2020-02-08T10:47:22.359Z</time>
      </trkpt>
      <trkpt lat="39.04811833" lon="-0.28965167">
        <ele>44.947</ele>
        <time>2020-02-08T10:47:23.359Z</time>
      </trkpt>
      <trkpt lat="39.04826167" lon="-0.28954833">
        <ele>44.947</ele>
        <time>2020-02-08T10:47:24.359Z</time>
      </trkpt>
      <trkpt lat="39.04826167" lon="-0.28954833">
        <ele>44.947</ele>
        <time>2020-02-08T10:47:25.359Z</time>
      </trkpt>
      <trkpt lat="39.04840167" lon="-0.28943">
        <ele>44.947</ele>
        <time>2020-02-08T10:47:26.359Z</time>
      </trkpt>
      <trkpt lat="39.04840167" lon="-0.28943">
        <ele>44.947</ele>
        <time>2020-02-08T10:47:27.359Z</time>
      </trkpt>
      <trkpt lat="39.04855167" lon="-0.28933">
        <ele>44.947</ele>
        <time>2020-02-08T10:47:28.359Z</time>
      </trkpt>
      <trkpt lat="39.04855167" lon="-0.28933">
        <ele>44.947</ele>
        <time>2020-02-08T10:47:29.359Z</time>
      </trkpt>
      <trkpt lat="39.048705" lon="-0.28923833">
        <ele>44.947</ele>
        <time>2020-02-08T10:47:30.359Z</time>
      </trkpt>
      <trkpt lat="39.048705" lon="-0.28923833">
        <ele>44.947</ele>
        <time>2020-02-08T10:47:31.359Z</time>
      </trkpt>
      <trkpt lat="39.04885333" lon="-0.28914167">
        <ele>44.947</ele>
        <time>2020-02-08T10:47:32.359Z</time>
      </trkpt>
      <trkpt lat="39.04885333" lon="-0.28914167">
        <ele>44.947</ele>
        <time>2020-02-08T10:47:33.359Z</time>
      </trkpt>
      <trkpt lat="39.04899833" lon="-0.28904667">
        <ele>44.947</ele>
        <time>2020-02-08T10:47:34.359Z</time>
      </trkpt>
      <trkpt lat="39.04907167" lon="-0.28899833">
        <ele>44.947</ele>
        <time>2020-02-08T10:47:35.359Z</time>
      </trkpt>
      <trkpt lat="39.04914333" lon="-0.28894667">
        <ele>44.947</ele>
        <time>2020-02-08T10:47:36.359Z</time>
      </trkpt>
      <trkpt lat="39.04921667" lon="-0.28889667">
        <ele>44.947</ele>
        <time>2020-02-08T10:47:37.359Z</time>
      </trkpt>
      <trkpt lat="39.04921667" lon="-0.28889667">
        <ele>44.947</ele>
        <time>2020-02-08T10:47:38.359Z</time>
      </trkpt>
      <trkpt lat="39.04936333" lon="-0.28880333">
        <ele>44.947</ele>
        <time>2020-02-08T10:47:39.359Z</time>
      </trkpt>
      <trkpt lat="39.04936333" lon="-0.28880333">
        <ele>44.947</ele>
        <time>2020-02-08T10:47:40.359Z</time>
      </trkpt>
      <trkpt lat="39.04950667" lon="-0.288705">
        <ele>44.947</ele>
        <time>2020-02-08T10:47:41.359Z</time>
      </trkpt>
      <trkpt lat="39.04957667" lon="-0.288655">
        <ele>44.947</ele>
        <time>2020-02-08T10:47:42.359Z</time>
      </trkpt>
      <trkpt lat="39.04957667" lon="-0.288655">
        <ele>44.947</ele>
        <time>2020-02-08T10:47:43.359Z</time>
      </trkpt>
      <trkpt lat="39.04972" lon="-0.28855333">
        <ele>44.947</ele>
        <time>2020-02-08T10:47:44.359Z</time>
      </trkpt>
      <trkpt lat="39.04979167" lon="-0.28850667">
        <ele>44.947</ele>
        <time>2020-02-08T10:47:45.359Z</time>
      </trkpt>
      <trkpt lat="39.04979167" lon="-0.28850667">
        <ele>44.947</ele>
        <time>2020-02-08T10:47:46.359Z</time>
      </trkpt>
      <trkpt lat="39.04992667" lon="-0.28841">
        <ele>44.947</ele>
        <time>2020-02-08T10:47:47.359Z</time>
      </trkpt>
      <trkpt lat="39.04999333" lon="-0.288365">
        <ele>44.947</ele>
        <time>2020-02-08T10:47:48.359Z</time>
      </trkpt>
      <trkpt lat="39.04999333" lon="-0.288365">
        <ele>44.947</ele>
        <time>2020-02-08T10:47:49.359Z</time>
      </trkpt>
      <trkpt lat="39.05013" lon="-0.28827833">
        <ele>44.947</ele>
        <time>2020-02-08T10:47:50.359Z</time>
      </trkpt>
      <trkpt lat="39.05013" lon="-0.28827833">
        <ele>44.947</ele>
        <time>2020-02-08T10:47:51.359Z</time>
      </trkpt>
      <trkpt lat="39.05027667" lon="-0.28819833">
        <ele>44.947</ele>
        <time>2020-02-08T10:47:52.359Z</time>
      </trkpt>
      <trkpt lat="39.05027667" lon="-0.28819833">
        <ele>44.947</ele>
        <time>2020-02-08T10:47:53.359Z</time>
      </trkpt>
      <trkpt lat="39.05043167" lon="-0.28813667">
        <ele>44.947</ele>
        <time>2020-02-08T10:47:54.359Z</time>
      </trkpt>
      <trkpt lat="39.05051" lon="-0.288115">
        <ele>44.947</ele>
        <time>2020-02-08T10:47:55.359Z</time>
      </trkpt>
      <trkpt lat="39.05058833" lon="-0.28810333">
        <ele>44.947</ele>
        <time>2020-02-08T10:47:56.359Z</time>
      </trkpt>
      <trkpt lat="39.05058833" lon="-0.28810333">
        <ele>44.947</ele>
        <time>2020-02-08T10:47:57.359Z</time>
      </trkpt>
      <trkpt lat="39.05075333" lon="-0.28812167">
        <ele>44.947</ele>
        <time>2020-02-08T10:47:58.359Z</time>
      </trkpt>
      <trkpt lat="39.05075333" lon="-0.28812167">
        <ele>44.947</ele>
        <time>2020-02-08T10:47:59.359Z</time>
      </trkpt>
      <trkpt lat="39.050915" lon="-0.28816333">
        <ele>44.947</ele>
        <time>2020-02-08T10:48:00.359Z</time>
      </trkpt>
      <trkpt lat="39.050915" lon="-0.28816333">
        <ele>44.947</ele>
        <time>2020-02-08T10:48:01.359Z</time>
      </trkpt>
      <trkpt lat="39.05107667" lon="-0.288205">
        <ele>44.947</ele>
        <time>2020-02-08T10:48:02.359Z</time>
      </trkpt>
      <trkpt lat="39.05107667" lon="-0.288205">
        <ele>44.947</ele>
        <time>2020-02-08T10:48:03.359Z</time>
      </trkpt>
      <trkpt lat="39.05124" lon="-0.288245">
        <ele>44.947</ele>
        <time>2020-02-08T10:48:04.359Z</time>
      </trkpt>
      <trkpt lat="39.05124" lon="-0.288245">
        <ele>44.947</ele>
        <time>2020-02-08T10:48:05.359Z</time>
      </trkpt>
      <trkpt lat="39.05141167" lon="-0.288285">
        <ele>44.947</ele>
        <time>2020-02-08T10:48:06.359Z</time>
      </trkpt>
      <trkpt lat="39.05141167" lon="-0.288285">
        <ele>44.947</ele>
        <time>2020-02-08T10:48:07.359Z</time>
      </trkpt>
      <trkpt lat="39.05157333" lon="-0.28837">
        <ele>43.947</ele>
        <time>2020-02-08T10:48:08.359Z</time>
      </trkpt>
      <trkpt lat="39.05157333" lon="-0.28837">
        <ele>43.947</ele>
        <time>2020-02-08T10:48:09.359Z</time>
      </trkpt>
      <trkpt lat="39.05173" lon="-0.28842167">
        <ele>43.947</ele>
        <time>2020-02-08T10:48:10.359Z</time>
      </trkpt>
      <trkpt lat="39.05179167" lon="-0.288425">
        <ele>43.947</ele>
        <time>2020-02-08T10:48:11.359Z</time>
      </trkpt>
      <trkpt lat="39.05179167" lon="-0.288425">
        <ele>42.947</ele>
        <time>2020-02-08T10:48:12.359Z</time>
      </trkpt>
      <trkpt lat="39.05188833" lon="-0.2884">
        <ele>42.947</ele>
        <time>2020-02-08T10:48:13.359Z</time>
      </trkpt>
      <trkpt lat="39.05194167" lon="-0.28839167">
        <ele>42.947</ele>
        <time>2020-02-08T10:48:14.359Z</time>
      </trkpt>
      <trkpt lat="39.05194167" lon="-0.28839167">
        <ele>42.947</ele>
        <time>2020-02-08T10:48:15.359Z</time>
      </trkpt>
      <trkpt lat="39.05202" lon="-0.28837">
        <ele>41.947</ele>
        <time>2020-02-08T10:48:16.359Z</time>
      </trkpt>
      <trkpt lat="39.05205667" lon="-0.28836">
        <ele>41.947</ele>
        <time>2020-02-08T10:48:17.359Z</time>
      </trkpt>
      <trkpt lat="39.05205667" lon="-0.28836">
        <ele>41.947</ele>
        <time>2020-02-08T10:48:18.359Z</time>
      </trkpt>
      <trkpt lat="39.05213167" lon="-0.288335">
        <ele>41.947</ele>
        <time>2020-02-08T10:48:19.359Z</time>
      </trkpt>
      <trkpt lat="39.05213167" lon="-0.288335">
        <ele>41.947</ele>
        <time>2020-02-08T10:48:20.359Z</time>
      </trkpt>
      <trkpt lat="39.05223333" lon="-0.28831333">
        <ele>41.947</ele>
        <time>2020-02-08T10:48:21.359Z</time>
      </trkpt>
      <trkpt lat="39.05223333" lon="-0.28831333">
        <ele>40.947</ele>
        <time>2020-02-08T10:48:22.359Z</time>
      </trkpt>
      <trkpt lat="39.05234667" lon="-0.288265">
        <ele>40.947</ele>
        <time>2020-02-08T10:48:23.359Z</time>
      </trkpt>
      <trkpt lat="39.05240167" lon="-0.28824167">
        <ele>40.947</ele>
        <time>2020-02-08T10:48:24.359Z</time>
      </trkpt>
      <trkpt lat="39.05245333" lon="-0.28822">
        <ele>40.947</ele>
        <time>2020-02-08T10:48:25.359Z</time>
      </trkpt>
      <trkpt lat="39.05245333" lon="-0.28822">
        <ele>40.947</ele>
        <time>2020-02-08T10:48:26.359Z</time>
      </trkpt>
      <trkpt lat="39.05256667" lon="-0.288205">
        <ele>39.947</ele>
        <time>2020-02-08T10:48:27.359Z</time>
      </trkpt>
      <trkpt lat="39.05256667" lon="-0.288205">
        <ele>39.947</ele>
        <time>2020-02-08T10:48:28.359Z</time>
      </trkpt>
      <trkpt lat="39.05268333" lon="-0.28820833">
        <ele>39.947</ele>
        <time>2020-02-08T10:48:29.359Z</time>
      </trkpt>
      <trkpt lat="39.05268333" lon="-0.28820833">
        <ele>39.947</ele>
        <time>2020-02-08T10:48:30.359Z</time>
      </trkpt>
      <trkpt lat="39.0528" lon="-0.28821167">
        <ele>39.947</ele>
        <time>2020-02-08T10:48:31.359Z</time>
      </trkpt>
      <trkpt lat="39.05285667" lon="-0.28822">
        <ele>39.947</ele>
        <time>2020-02-08T10:48:32.359Z</time>
      </trkpt>
      <trkpt lat="39.05285667" lon="-0.28822">
        <ele>39.947</ele>
        <time>2020-02-08T10:48:33.359Z</time>
      </trkpt>
      <trkpt lat="39.052945" lon="-0.28831">
        <ele>39.947</ele>
        <time>2020-02-08T10:48:34.359Z</time>
      </trkpt>
      <trkpt lat="39.05297167" lon="-0.28837667">
        <ele>39.947</ele>
        <time>2020-02-08T10:48:35.359Z</time>
      </trkpt>
      <trkpt lat="39.05297167" lon="-0.28837667">
        <ele>39.947</ele>
        <time>2020-02-08T10:48:36.359Z</time>
      </trkpt>
      <trkpt lat="39.05302167" lon="-0.28853333">
        <ele>39.947</ele>
        <time>2020-02-08T10:48:37.359Z</time>
      </trkpt>
      <trkpt lat="39.05305" lon="-0.288615">
        <ele>39.947</ele>
        <time>2020-02-08T10:48:38.359Z</time>
      </trkpt>
      <trkpt lat="39.05305" lon="-0.288615">
        <ele>39.947</ele>
        <time>2020-02-08T10:48:39.359Z</time>
      </trkpt>
      <trkpt lat="39.05312" lon="-0.28877167">
        <ele>39.947</ele>
        <time>2020-02-08T10:48:40.359Z</time>
      </trkpt>
      <trkpt lat="39.05312" lon="-0.28877167">
        <ele>39.947</ele>
        <time>2020-02-08T10:48:41.359Z</time>
      </trkpt>
      <trkpt lat="39.05321" lon="-0.28890333">
        <ele>39.947</ele>
        <time>2020-02-08T10:48:42.359Z</time>
      </trkpt>
      <trkpt lat="39.05325833" lon="-0.288955">
        <ele>38.947</ele>
        <time>2020-02-08T10:48:43.359Z</time>
      </trkpt>
      <trkpt lat="39.05325833" lon="-0.288955">
        <ele>38.947</ele>
        <time>2020-02-08T10:48:44.359Z</time>
      </trkpt>
      <trkpt lat="39.053345" lon="-0.289015">
        <ele>38.947</ele>
        <time>2020-02-08T10:48:45.359Z</time>
      </trkpt>
      <trkpt lat="39.053345" lon="-0.289015">
        <ele>38.947</ele>
        <time>2020-02-08T10:48:46.359Z</time>
      </trkpt>
      <trkpt lat="39.053445" lon="-0.288975">
        <ele>37.947</ele>
        <time>2020-02-08T10:48:47.359Z</time>
      </trkpt>
      <trkpt lat="39.053445" lon="-0.288975">
        <ele>37.947</ele>
        <time>2020-02-08T10:48:48.359Z</time>
      </trkpt>
      <trkpt lat="39.05354167" lon="-0.28886833">
        <ele>37.947</ele>
        <time>2020-02-08T10:48:49.359Z</time>
      </trkpt>
      <trkpt lat="39.05354167" lon="-0.28886833">
        <ele>37.947</ele>
        <time>2020-02-08T10:48:50.359Z</time>
      </trkpt>
      <trkpt lat="39.05365167" lon="-0.28878333">
        <ele>37.947</ele>
        <time>2020-02-08T10:48:51.359Z</time>
      </trkpt>
      <trkpt lat="39.05370833" lon="-0.28874">
        <ele>37.947</ele>
        <time>2020-02-08T10:48:52.359Z</time>
      </trkpt>
      <trkpt lat="39.05370833" lon="-0.28874">
        <ele>37.947</ele>
        <time>2020-02-08T10:48:53.359Z</time>
      </trkpt>
      <trkpt lat="39.05382167" lon="-0.28865333">
        <ele>37.947</ele>
        <time>2020-02-08T10:48:54.359Z</time>
      </trkpt>
      <trkpt lat="39.05382167" lon="-0.28865333">
        <ele>37.947</ele>
        <time>2020-02-08T10:48:55.359Z</time>
      </trkpt>
      <trkpt lat="39.05393833" lon="-0.28856667">
        <ele>37.947</ele>
        <time>2020-02-08T10:48:56.359Z</time>
      </trkpt>
      <trkpt lat="39.05399333" lon="-0.28852167">
        <ele>37.947</ele>
        <time>2020-02-08T10:48:57.359Z</time>
      </trkpt>
      <trkpt lat="39.05399333" lon="-0.28852167">
        <ele>37.947</ele>
        <time>2020-02-08T10:48:58.359Z</time>
      </trkpt>
      <trkpt lat="39.05410667" lon="-0.28843">
        <ele>37.947</ele>
        <time>2020-02-08T10:48:59.359Z</time>
      </trkpt>
      <trkpt lat="39.05410667" lon="-0.28843">
        <ele>37.947</ele>
        <time>2020-02-08T10:49:00.359Z</time>
      </trkpt>
      <trkpt lat="39.05422" lon="-0.28833833">
        <ele>37.947</ele>
        <time>2020-02-08T10:49:01.359Z</time>
      </trkpt>
      <trkpt lat="39.054275" lon="-0.28829">
        <ele>37.947</ele>
        <time>2020-02-08T10:49:02.359Z</time>
      </trkpt>
      <trkpt lat="39.054275" lon="-0.28829">
        <ele>37.947</ele>
        <time>2020-02-08T10:49:03.359Z</time>
      </trkpt>
      <trkpt lat="39.05438667" lon="-0.28819">
        <ele>37.947</ele>
        <time>2020-02-08T10:49:04.359Z</time>
      </trkpt>
      <trkpt lat="39.05438667" lon="-0.28819">
        <ele>37.947</ele>
        <time>2020-02-08T10:49:05.359Z</time>
      </trkpt>
      <trkpt lat="39.05450667" lon="-0.28809167">
        <ele>37.947</ele>
        <time>2020-02-08T10:49:06.359Z</time>
      </trkpt>
      <trkpt lat="39.05450667" lon="-0.28809167">
        <ele>37.947</ele>
        <time>2020-02-08T10:49:07.359Z</time>
      </trkpt>
      <trkpt lat="39.054625" lon="-0.28799167">
        <ele>37.947</ele>
        <time>2020-02-08T10:49:08.359Z</time>
      </trkpt>
      <trkpt lat="39.054625" lon="-0.28799167">
        <ele>37.947</ele>
        <time>2020-02-08T10:49:09.359Z</time>
      </trkpt>
      <trkpt lat="39.05474333" lon="-0.28788167">
        <ele>36.947</ele>
        <time>2020-02-08T10:49:10.359Z</time>
      </trkpt>
      <trkpt lat="39.05474333" lon="-0.28788167">
        <ele>36.947</ele>
        <time>2020-02-08T10:49:11.359Z</time>
      </trkpt>
      <trkpt lat="39.05486167" lon="-0.287755">
        <ele>36.947</ele>
        <time>2020-02-08T10:49:12.359Z</time>
      </trkpt>
      <trkpt lat="39.05486167" lon="-0.287755">
        <ele>36.947</ele>
        <time>2020-02-08T10:49:13.359Z</time>
      </trkpt>
      <trkpt lat="39.05498333" lon="-0.28761833">
        <ele>36.947</ele>
        <time>2020-02-08T10:49:14.359Z</time>
      </trkpt>
      <trkpt lat="39.05498333" lon="-0.28761833">
        <ele>36.947</ele>
        <time>2020-02-08T10:49:15.359Z</time>
      </trkpt>
      <trkpt lat="39.05510333" lon="-0.28748667">
        <ele>36.947</ele>
        <time>2020-02-08T10:49:16.359Z</time>
      </trkpt>
      <trkpt lat="39.05510333" lon="-0.28748667">
        <ele>36.947</ele>
        <time>2020-02-08T10:49:17.359Z</time>
      </trkpt>
      <trkpt lat="39.05522167" lon="-0.28735333">
        <ele>36.947</ele>
        <time>2020-02-08T10:49:18.359Z</time>
      </trkpt>
      <trkpt lat="39.05522167" lon="-0.28735333">
        <ele>36.947</ele>
        <time>2020-02-08T10:49:19.359Z</time>
      </trkpt>
      <trkpt lat="39.05534167" lon="-0.28722">
        <ele>36.947</ele>
        <time>2020-02-08T10:49:20.359Z</time>
      </trkpt>
      <trkpt lat="39.05534167" lon="-0.28722">
        <ele>35.947</ele>
        <time>2020-02-08T10:49:21.359Z</time>
      </trkpt>
      <trkpt lat="39.05545333" lon="-0.28708">
        <ele>35.947</ele>
        <time>2020-02-08T10:49:22.359Z</time>
      </trkpt>
      <trkpt lat="39.05545333" lon="-0.28708">
        <ele>35.947</ele>
        <time>2020-02-08T10:49:23.359Z</time>
      </trkpt>
      <trkpt lat="39.05555833" lon="-0.28692">
        <ele>35.947</ele>
        <time>2020-02-08T10:49:24.359Z</time>
      </trkpt>
      <trkpt lat="39.05555833" lon="-0.28692">
        <ele>35.947</ele>
        <time>2020-02-08T10:49:25.359Z</time>
      </trkpt>
      <trkpt lat="39.05565" lon="-0.28674333">
        <ele>35.947</ele>
        <time>2020-02-08T10:49:26.359Z</time>
      </trkpt>
      <trkpt lat="39.05565" lon="-0.28674333">
        <ele>35.947</ele>
        <time>2020-02-08T10:49:27.359Z</time>
      </trkpt>
      <trkpt lat="39.05573333" lon="-0.28654667">
        <ele>35.947</ele>
        <time>2020-02-08T10:49:28.359Z</time>
      </trkpt>
      <trkpt lat="39.05573333" lon="-0.28654667">
        <ele>35.947</ele>
        <time>2020-02-08T10:49:29.359Z</time>
      </trkpt>
      <trkpt lat="39.05582333" lon="-0.28634833">
        <ele>33.947</ele>
        <time>2020-02-08T10:49:30.359Z</time>
      </trkpt>
      <trkpt lat="39.05582333" lon="-0.28634833">
        <ele>33.947</ele>
        <time>2020-02-08T10:49:31.359Z</time>
      </trkpt>
      <trkpt lat="39.05591667" lon="-0.28615333">
        <ele>33.947</ele>
        <time>2020-02-08T10:49:32.359Z</time>
      </trkpt>
      <trkpt lat="39.05591667" lon="-0.28615333">
        <ele>33.947</ele>
        <time>2020-02-08T10:49:33.359Z</time>
      </trkpt>
      <trkpt lat="39.056005" lon="-0.28597667">
        <ele>33.947</ele>
        <time>2020-02-08T10:49:34.359Z</time>
      </trkpt>
      <trkpt lat="39.056005" lon="-0.28597667">
        <ele>33.947</ele>
        <time>2020-02-08T10:49:35.359Z</time>
      </trkpt>
      <trkpt lat="39.05608667" lon="-0.28581667">
        <ele>33.947</ele>
        <time>2020-02-08T10:49:36.359Z</time>
      </trkpt>
      <trkpt lat="39.05608667" lon="-0.28581667">
        <ele>33.947</ele>
        <time>2020-02-08T10:49:37.359Z</time>
      </trkpt>
      <trkpt lat="39.056185" lon="-0.28566">
        <ele>33.947</ele>
        <time>2020-02-08T10:49:38.359Z</time>
      </trkpt>
      <trkpt lat="39.056185" lon="-0.28566">
        <ele>33.947</ele>
        <time>2020-02-08T10:49:39.359Z</time>
      </trkpt>
      <trkpt lat="39.05630833" lon="-0.285505">
        <ele>33.947</ele>
        <time>2020-02-08T10:49:40.359Z</time>
      </trkpt>
      <trkpt lat="39.05630833" lon="-0.285505">
        <ele>33.947</ele>
        <time>2020-02-08T10:49:41.359Z</time>
      </trkpt>
      <trkpt lat="39.05643167" lon="-0.28533167">
        <ele>33.947</ele>
        <time>2020-02-08T10:49:42.359Z</time>
      </trkpt>
      <trkpt lat="39.05643167" lon="-0.28533167">
        <ele>33.947</ele>
        <time>2020-02-08T10:49:43.359Z</time>
      </trkpt>
      <trkpt lat="39.05653667" lon="-0.28514167">
        <ele>33.947</ele>
        <time>2020-02-08T10:49:44.359Z</time>
      </trkpt>
      <trkpt lat="39.05653667" lon="-0.28514167">
        <ele>33.947</ele>
        <time>2020-02-08T10:49:45.359Z</time>
      </trkpt>
      <trkpt lat="39.05663833" lon="-0.28495667">
        <ele>33.947</ele>
        <time>2020-02-08T10:49:46.359Z</time>
      </trkpt>
      <trkpt lat="39.05668833" lon="-0.284865">
        <ele>33.947</ele>
        <time>2020-02-08T10:49:47.359Z</time>
      </trkpt>
      <trkpt lat="39.05668833" lon="-0.284865">
        <ele>33.947</ele>
        <time>2020-02-08T10:49:48.359Z</time>
      </trkpt>
      <trkpt lat="39.05679" lon="-0.28467667">
        <ele>33.947</ele>
        <time>2020-02-08T10:49:49.359Z</time>
      </trkpt>
      <trkpt lat="39.056845" lon="-0.28458333">
        <ele>33.947</ele>
        <time>2020-02-08T10:49:50.359Z</time>
      </trkpt>
      <trkpt lat="39.056845" lon="-0.28458333">
        <ele>33.947</ele>
        <time>2020-02-08T10:49:51.359Z</time>
      </trkpt>
      <trkpt lat="39.05695167" lon="-0.28440167">
        <ele>33.947</ele>
        <time>2020-02-08T10:49:52.359Z</time>
      </trkpt>
      <trkpt lat="39.05700333" lon="-0.28431">
        <ele>33.947</ele>
        <time>2020-02-08T10:49:53.359Z</time>
      </trkpt>
      <trkpt lat="39.05700333" lon="-0.28431">
        <ele>33.947</ele>
        <time>2020-02-08T10:49:54.359Z</time>
      </trkpt>
      <trkpt lat="39.057105" lon="-0.28412667">
        <ele>33.947</ele>
        <time>2020-02-08T10:49:55.359Z</time>
      </trkpt>
      <trkpt lat="39.057105" lon="-0.28412667">
        <ele>33.947</ele>
        <time>2020-02-08T10:49:56.359Z</time>
      </trkpt>
      <trkpt lat="39.0572" lon="-0.28393667">
        <ele>32.947</ele>
        <time>2020-02-08T10:49:57.359Z</time>
      </trkpt>
      <trkpt lat="39.0572" lon="-0.28393667">
        <ele>32.947</ele>
        <time>2020-02-08T10:49:58.359Z</time>
      </trkpt>
      <trkpt lat="39.05729667" lon="-0.28374833">
        <ele>32.947</ele>
        <time>2020-02-08T10:49:59.359Z</time>
      </trkpt>
      <trkpt lat="39.05729667" lon="-0.28374833">
        <ele>32.947</ele>
        <time>2020-02-08T10:50:00.359Z</time>
      </trkpt>
      <trkpt lat="39.05739833" lon="-0.28355667">
        <ele>32.947</ele>
        <time>2020-02-08T10:50:01.359Z</time>
      </trkpt>
      <trkpt lat="39.05744833" lon="-0.28346">
        <ele>32.947</ele>
        <time>2020-02-08T10:50:02.359Z</time>
      </trkpt>
      <trkpt lat="39.05744833" lon="-0.28346">
        <ele>32.947</ele>
        <time>2020-02-08T10:50:03.359Z</time>
      </trkpt>
      <trkpt lat="39.057545" lon="-0.28326167">
        <ele>32.947</ele>
        <time>2020-02-08T10:50:04.359Z</time>
      </trkpt>
      <trkpt lat="39.057545" lon="-0.28326167">
        <ele>31.947</ele>
        <time>2020-02-08T10:50:05.359Z</time>
      </trkpt>
      <trkpt lat="39.05762667" lon="-0.28304333">
        <ele>31.947</ele>
        <time>2020-02-08T10:50:06.359Z</time>
      </trkpt>
      <trkpt lat="39.05762667" lon="-0.28304333">
        <ele>31.947</ele>
        <time>2020-02-08T10:50:07.359Z</time>
      </trkpt>
      <trkpt lat="39.05770833" lon="-0.28282667">
        <ele>31.947</ele>
        <time>2020-02-08T10:50:08.359Z</time>
      </trkpt>
      <trkpt lat="39.05770833" lon="-0.28282667">
        <ele>31.947</ele>
        <time>2020-02-08T10:50:09.359Z</time>
      </trkpt>
      <trkpt lat="39.05780833" lon="-0.28261833">
        <ele>31.947</ele>
        <time>2020-02-08T10:50:10.359Z</time>
      </trkpt>
      <trkpt lat="39.05780833" lon="-0.28261833">
        <ele>31.947</ele>
        <time>2020-02-08T10:50:11.359Z</time>
      </trkpt>
      <trkpt lat="39.05791" lon="-0.282415">
        <ele>31.947</ele>
        <time>2020-02-08T10:50:12.359Z</time>
      </trkpt>
      <trkpt lat="39.05796167" lon="-0.28231333">
        <ele>31.947</ele>
        <time>2020-02-08T10:50:13.359Z</time>
      </trkpt>
      <trkpt lat="39.05796167" lon="-0.28231333">
        <ele>31.947</ele>
        <time>2020-02-08T10:50:14.359Z</time>
      </trkpt>
      <trkpt lat="39.05807167" lon="-0.28211833">
        <ele>30.947</ele>
        <time>2020-02-08T10:50:15.359Z</time>
      </trkpt>
      <trkpt lat="39.05807167" lon="-0.28211833">
        <ele>30.947</ele>
        <time>2020-02-08T10:50:16.359Z</time>
      </trkpt>
      <trkpt lat="39.05818833" lon="-0.28193">
        <ele>30.947</ele>
        <time>2020-02-08T10:50:17.359Z</time>
      </trkpt>
      <trkpt lat="39.05825333" lon="-0.28184333">
        <ele>30.947</ele>
        <time>2020-02-08T10:50:18.359Z</time>
      </trkpt>
      <trkpt lat="39.05825333" lon="-0.28184333">
        <ele>30.947</ele>
        <time>2020-02-08T10:50:19.359Z</time>
      </trkpt>
      <trkpt lat="39.058395" lon="-0.28168333">
        <ele>30.947</ele>
        <time>2020-02-08T10:50:20.359Z</time>
      </trkpt>
      <trkpt lat="39.058395" lon="-0.28168333">
        <ele>30.947</ele>
        <time>2020-02-08T10:50:21.359Z</time>
      </trkpt>
      <trkpt lat="39.05853667" lon="-0.28151167">
        <ele>30.947</ele>
        <time>2020-02-08T10:50:22.359Z</time>
      </trkpt>
      <trkpt lat="39.05860333" lon="-0.28142667">
        <ele>30.947</ele>
        <time>2020-02-08T10:50:23.359Z</time>
      </trkpt>
      <trkpt lat="39.05867" lon="-0.28134">
        <ele>30.947</ele>
        <time>2020-02-08T10:50:24.359Z</time>
      </trkpt>
      <trkpt lat="39.05867" lon="-0.28134">
        <ele>30.947</ele>
        <time>2020-02-08T10:50:25.359Z</time>
      </trkpt>
      <trkpt lat="39.05881" lon="-0.281175">
        <ele>30.947</ele>
        <time>2020-02-08T10:50:26.359Z</time>
      </trkpt>
      <trkpt lat="39.05881" lon="-0.281175">
        <ele>30.947</ele>
        <time>2020-02-08T10:50:27.359Z</time>
      </trkpt>
      <trkpt lat="39.05895167" lon="-0.28101667">
        <ele>30.947</ele>
        <time>2020-02-08T10:50:28.359Z</time>
      </trkpt>
      <trkpt lat="39.05895167" lon="-0.28101667">
        <ele>30.947</ele>
        <time>2020-02-08T10:50:29.359Z</time>
      </trkpt>
      <trkpt lat="39.05909333" lon="-0.28084167">
        <ele>30.947</ele>
        <time>2020-02-08T10:50:30.359Z</time>
      </trkpt>
      <trkpt lat="39.05909333" lon="-0.28084167">
        <ele>29.947</ele>
        <time>2020-02-08T10:50:31.359Z</time>
      </trkpt>
      <trkpt lat="39.05923" lon="-0.28065333">
        <ele>29.947</ele>
        <time>2020-02-08T10:50:32.359Z</time>
      </trkpt>
      <trkpt lat="39.05923" lon="-0.28065333">
        <ele>29.947</ele>
        <time>2020-02-08T10:50:33.359Z</time>
      </trkpt>
      <trkpt lat="39.059355" lon="-0.28045667">
        <ele>29.947</ele>
        <time>2020-02-08T10:50:34.359Z</time>
      </trkpt>
      <trkpt lat="39.059355" lon="-0.28045667">
        <ele>28.947</ele>
        <time>2020-02-08T10:50:35.359Z</time>
      </trkpt>
      <trkpt lat="39.05947833" lon="-0.28027167">
        <ele>28.947</ele>
        <time>2020-02-08T10:50:36.359Z</time>
      </trkpt>
      <trkpt lat="39.05947833" lon="-0.28027167">
        <ele>28.947</ele>
        <time>2020-02-08T10:50:37.359Z</time>
      </trkpt>
      <trkpt lat="39.05960167" lon="-0.28009333">
        <ele>28.947</ele>
        <time>2020-02-08T10:50:38.359Z</time>
      </trkpt>
      <trkpt lat="39.05960167" lon="-0.28009333">
        <ele>28.947</ele>
        <time>2020-02-08T10:50:39.359Z</time>
      </trkpt>
      <trkpt lat="39.05971833" lon="-0.27991833">
        <ele>28.947</ele>
        <time>2020-02-08T10:50:40.359Z</time>
      </trkpt>
      <trkpt lat="39.05977833" lon="-0.27983333">
        <ele>28.947</ele>
        <time>2020-02-08T10:50:41.359Z</time>
      </trkpt>
      <trkpt lat="39.05977833" lon="-0.27983333">
        <ele>28.947</ele>
        <time>2020-02-08T10:50:42.359Z</time>
      </trkpt>
      <trkpt lat="39.059895" lon="-0.27966167">
        <ele>28.947</ele>
        <time>2020-02-08T10:50:43.359Z</time>
      </trkpt>
      <trkpt lat="39.059895" lon="-0.27966167">
        <ele>28.947</ele>
        <time>2020-02-08T10:50:44.359Z</time>
      </trkpt>
      <trkpt lat="39.06000833" lon="-0.27949">
        <ele>28.947</ele>
        <time>2020-02-08T10:50:45.359Z</time>
      </trkpt>
      <trkpt lat="39.06000833" lon="-0.27949">
        <ele>28.947</ele>
        <time>2020-02-08T10:50:46.359Z</time>
      </trkpt>
      <trkpt lat="39.06012333" lon="-0.27932167">
        <ele>28.947</ele>
        <time>2020-02-08T10:50:47.359Z</time>
      </trkpt>
      <trkpt lat="39.06012333" lon="-0.27932167">
        <ele>28.947</ele>
        <time>2020-02-08T10:50:48.359Z</time>
      </trkpt>
      <trkpt lat="39.06024167" lon="-0.27915333">
        <ele>28.947</ele>
        <time>2020-02-08T10:50:49.359Z</time>
      </trkpt>
      <trkpt lat="39.06030333" lon="-0.27907167">
        <ele>28.947</ele>
        <time>2020-02-08T10:50:50.359Z</time>
      </trkpt>
      <trkpt lat="39.06030333" lon="-0.27907167">
        <ele>28.947</ele>
        <time>2020-02-08T10:50:51.359Z</time>
      </trkpt>
      <trkpt lat="39.06041667" lon="-0.27890333">
        <ele>28.947</ele>
        <time>2020-02-08T10:50:52.359Z</time>
      </trkpt>
      <trkpt lat="39.06047167" lon="-0.27881833">
        <ele>28.947</ele>
        <time>2020-02-08T10:50:53.359Z</time>
      </trkpt>
      <trkpt lat="39.06047167" lon="-0.27881833">
        <ele>28.947</ele>
        <time>2020-02-08T10:50:54.359Z</time>
      </trkpt>
      <trkpt lat="39.06058667" lon="-0.278655">
        <ele>28.947</ele>
        <time>2020-02-08T10:50:55.359Z</time>
      </trkpt>
      <trkpt lat="39.06058667" lon="-0.278655">
        <ele>28.947</ele>
        <time>2020-02-08T10:50:56.359Z</time>
      </trkpt>
      <trkpt lat="39.06070833" lon="-0.27849667">
        <ele>28.947</ele>
        <time>2020-02-08T10:50:57.359Z</time>
      </trkpt>
      <trkpt lat="39.06070833" lon="-0.27849667">
        <ele>28.947</ele>
        <time>2020-02-08T10:50:58.359Z</time>
      </trkpt>
      <trkpt lat="39.060835" lon="-0.27833333">
        <ele>28.947</ele>
        <time>2020-02-08T10:50:59.359Z</time>
      </trkpt>
      <trkpt lat="39.060835" lon="-0.27833333">
        <ele>28.947</ele>
        <time>2020-02-08T10:51:00.359Z</time>
      </trkpt>
      <trkpt lat="39.06095333" lon="-0.27815667">
        <ele>27.947</ele>
        <time>2020-02-08T10:51:01.359Z</time>
      </trkpt>
      <trkpt lat="39.061015" lon="-0.27807">
        <ele>27.947</ele>
        <time>2020-02-08T10:51:02.359Z</time>
      </trkpt>
      <trkpt lat="39.061015" lon="-0.27807">
        <ele>27.947</ele>
        <time>2020-02-08T10:51:03.359Z</time>
      </trkpt>
      <trkpt lat="39.06113667" lon="-0.27789667">
        <ele>27.947</ele>
        <time>2020-02-08T10:51:04.359Z</time>
      </trkpt>
      <trkpt lat="39.06113667" lon="-0.27789667">
        <ele>27.947</ele>
        <time>2020-02-08T10:51:05.359Z</time>
      </trkpt>
      <trkpt lat="39.06126" lon="-0.27772833">
        <ele>27.947</ele>
        <time>2020-02-08T10:51:06.359Z</time>
      </trkpt>
      <trkpt lat="39.06126" lon="-0.27772833">
        <ele>27.947</ele>
        <time>2020-02-08T10:51:07.359Z</time>
      </trkpt>
      <trkpt lat="39.06138667" lon="-0.27755833">
        <ele>27.947</ele>
        <time>2020-02-08T10:51:08.359Z</time>
      </trkpt>
      <trkpt lat="39.06138667" lon="-0.27755833">
        <ele>27.947</ele>
        <time>2020-02-08T10:51:09.359Z</time>
      </trkpt>
      <trkpt lat="39.06151167" lon="-0.27738333">
        <ele>27.947</ele>
        <time>2020-02-08T10:51:10.359Z</time>
      </trkpt>
      <trkpt lat="39.06151167" lon="-0.27738333">
        <ele>27.947</ele>
        <time>2020-02-08T10:51:11.359Z</time>
      </trkpt>
      <trkpt lat="39.06164167" lon="-0.27721167">
        <ele>27.947</ele>
        <time>2020-02-08T10:51:12.359Z</time>
      </trkpt>
      <trkpt lat="39.06164167" lon="-0.27721167">
        <ele>27.947</ele>
        <time>2020-02-08T10:51:13.359Z</time>
      </trkpt>
      <trkpt lat="39.06177333" lon="-0.27704667">
        <ele>27.947</ele>
        <time>2020-02-08T10:51:14.359Z</time>
      </trkpt>
      <trkpt lat="39.06177333" lon="-0.27704667">
        <ele>27.947</ele>
        <time>2020-02-08T10:51:15.359Z</time>
      </trkpt>
      <trkpt lat="39.06190667" lon="-0.27689">
        <ele>27.947</ele>
        <time>2020-02-08T10:51:16.359Z</time>
      </trkpt>
      <trkpt lat="39.06197333" lon="-0.27681167">
        <ele>27.947</ele>
        <time>2020-02-08T10:51:17.359Z</time>
      </trkpt>
      <trkpt lat="39.062045" lon="-0.27673333">
        <ele>27.947</ele>
        <time>2020-02-08T10:51:18.359Z</time>
      </trkpt>
      <trkpt lat="39.062045" lon="-0.27673333">
        <ele>27.947</ele>
        <time>2020-02-08T10:51:19.359Z</time>
      </trkpt>
      <trkpt lat="39.06219" lon="-0.276585">
        <ele>27.947</ele>
        <time>2020-02-08T10:51:20.359Z</time>
      </trkpt>
      <trkpt lat="39.06219" lon="-0.276585">
        <ele>27.947</ele>
        <time>2020-02-08T10:51:21.359Z</time>
      </trkpt>
      <trkpt lat="39.06233667" lon="-0.27644">
        <ele>27.947</ele>
        <time>2020-02-08T10:51:22.359Z</time>
      </trkpt>
      <trkpt lat="39.06240667" lon="-0.27636667">
        <ele>27.947</ele>
        <time>2020-02-08T10:51:23.359Z</time>
      </trkpt>
      <trkpt lat="39.06240667" lon="-0.27636667">
        <ele>27.947</ele>
        <time>2020-02-08T10:51:24.359Z</time>
      </trkpt>
      <trkpt lat="39.06254833" lon="-0.27622167">
        <ele>27.947</ele>
        <time>2020-02-08T10:51:25.359Z</time>
      </trkpt>
      <trkpt lat="39.06262" lon="-0.27615167">
        <ele>27.947</ele>
        <time>2020-02-08T10:51:26.359Z</time>
      </trkpt>
      <trkpt lat="39.06262" lon="-0.27615167">
        <ele>27.947</ele>
        <time>2020-02-08T10:51:27.359Z</time>
      </trkpt>
      <trkpt lat="39.06275667" lon="-0.276">
        <ele>27.947</ele>
        <time>2020-02-08T10:51:28.359Z</time>
      </trkpt>
      <trkpt lat="39.06275667" lon="-0.276">
        <ele>27.947</ele>
        <time>2020-02-08T10:51:29.359Z</time>
      </trkpt>
      <trkpt lat="39.06289333" lon="-0.27585">
        <ele>27.947</ele>
        <time>2020-02-08T10:51:30.359Z</time>
      </trkpt>
      <trkpt lat="39.06296167" lon="-0.27577167">
        <ele>27.947</ele>
        <time>2020-02-08T10:51:31.359Z</time>
      </trkpt>
      <trkpt lat="39.06302833" lon="-0.27569167">
        <ele>27.947</ele>
        <time>2020-02-08T10:51:32.359Z</time>
      </trkpt>
      <trkpt lat="39.06302833" lon="-0.27569167">
        <ele>27.947</ele>
        <time>2020-02-08T10:51:33.359Z</time>
      </trkpt>
      <trkpt lat="39.06316" lon="-0.27553833">
        <ele>27.947</ele>
        <time>2020-02-08T10:51:34.359Z</time>
      </trkpt>
      <trkpt lat="39.06316" lon="-0.27553833">
        <ele>27.947</ele>
        <time>2020-02-08T10:51:35.359Z</time>
      </trkpt>
      <trkpt lat="39.06328667" lon="-0.27538333">
        <ele>27.947</ele>
        <time>2020-02-08T10:51:36.359Z</time>
      </trkpt>
      <trkpt lat="39.06328667" lon="-0.27538333">
        <ele>27.947</ele>
        <time>2020-02-08T10:51:37.359Z</time>
      </trkpt>
      <trkpt lat="39.06340833" lon="-0.27522333">
        <ele>27.947</ele>
        <time>2020-02-08T10:51:38.359Z</time>
      </trkpt>
      <trkpt lat="39.06347167" lon="-0.27514333">
        <ele>27.947</ele>
        <time>2020-02-08T10:51:39.359Z</time>
      </trkpt>
      <trkpt lat="39.06353667" lon="-0.27507">
        <ele>27.947</ele>
        <time>2020-02-08T10:51:40.359Z</time>
      </trkpt>
      <trkpt lat="39.06353667" lon="-0.27507">
        <ele>27.947</ele>
        <time>2020-02-08T10:51:41.359Z</time>
      </trkpt>
      <trkpt lat="39.06366333" lon="-0.274905">
        <ele>27.947</ele>
        <time>2020-02-08T10:51:42.359Z</time>
      </trkpt>
      <trkpt lat="39.06366333" lon="-0.274905">
        <ele>27.947</ele>
        <time>2020-02-08T10:51:43.359Z</time>
      </trkpt>
      <trkpt lat="39.06378333" lon="-0.27473667">
        <ele>27.947</ele>
        <time>2020-02-08T10:51:44.359Z</time>
      </trkpt>
      <trkpt lat="39.06378333" lon="-0.27473667">
        <ele>27.947</ele>
        <time>2020-02-08T10:51:45.359Z</time>
      </trkpt>
      <trkpt lat="39.06391333" lon="-0.27458667">
        <ele>27.947</ele>
        <time>2020-02-08T10:51:46.359Z</time>
      </trkpt>
      <trkpt lat="39.06391333" lon="-0.27458667">
        <ele>26.947</ele>
        <time>2020-02-08T10:51:47.359Z</time>
      </trkpt>
      <trkpt lat="39.06405167" lon="-0.27445333">
        <ele>26.947</ele>
        <time>2020-02-08T10:51:48.359Z</time>
      </trkpt>
      <trkpt lat="39.06405167" lon="-0.27445333">
        <ele>26.947</ele>
        <time>2020-02-08T10:51:49.359Z</time>
      </trkpt>
      <trkpt lat="39.06419667" lon="-0.27433">
        <ele>26.947</ele>
        <time>2020-02-08T10:51:50.359Z</time>
      </trkpt>
      <trkpt lat="39.06419667" lon="-0.27433">
        <ele>26.947</ele>
        <time>2020-02-08T10:51:51.359Z</time>
      </trkpt>
      <trkpt lat="39.06433167" lon="-0.27418833">
        <ele>26.947</ele>
        <time>2020-02-08T10:51:52.359Z</time>
      </trkpt>
      <trkpt lat="39.06433167" lon="-0.27418833">
        <ele>26.947</ele>
        <time>2020-02-08T10:51:53.359Z</time>
      </trkpt>
      <trkpt lat="39.06446667" lon="-0.27404667">
        <ele>26.947</ele>
        <time>2020-02-08T10:51:54.359Z</time>
      </trkpt>
      <trkpt lat="39.06446667" lon="-0.27404667">
        <ele>25.947</ele>
        <time>2020-02-08T10:51:55.359Z</time>
      </trkpt>
      <trkpt lat="39.0646" lon="-0.27389833">
        <ele>25.947</ele>
        <time>2020-02-08T10:51:56.359Z</time>
      </trkpt>
      <trkpt lat="39.0646" lon="-0.27389833">
        <ele>25.947</ele>
        <time>2020-02-08T10:51:57.359Z</time>
      </trkpt>
      <trkpt lat="39.06472333" lon="-0.273745">
        <ele>25.947</ele>
        <time>2020-02-08T10:51:58.359Z</time>
      </trkpt>
      <trkpt lat="39.06472333" lon="-0.273745">
        <ele>25.947</ele>
        <time>2020-02-08T10:51:59.359Z</time>
      </trkpt>
      <trkpt lat="39.06484167" lon="-0.273595">
        <ele>25.947</ele>
        <time>2020-02-08T10:52:00.359Z</time>
      </trkpt>
      <trkpt lat="39.06484167" lon="-0.273595">
        <ele>25.947</ele>
        <time>2020-02-08T10:52:01.359Z</time>
      </trkpt>
      <trkpt lat="39.06496167" lon="-0.27345333">
        <ele>25.947</ele>
        <time>2020-02-08T10:52:02.359Z</time>
      </trkpt>
      <trkpt lat="39.06496167" lon="-0.27345333">
        <ele>25.947</ele>
        <time>2020-02-08T10:52:03.359Z</time>
      </trkpt>
      <trkpt lat="39.06508167" lon="-0.273315">
        <ele>25.947</ele>
        <time>2020-02-08T10:52:04.359Z</time>
      </trkpt>
      <trkpt lat="39.06508167" lon="-0.273315">
        <ele>25.947</ele>
        <time>2020-02-08T10:52:05.359Z</time>
      </trkpt>
      <trkpt lat="39.065195" lon="-0.27318833">
        <ele>25.947</ele>
        <time>2020-02-08T10:52:06.359Z</time>
      </trkpt>
      <trkpt lat="39.065195" lon="-0.27318833">
        <ele>25.947</ele>
        <time>2020-02-08T10:52:07.359Z</time>
      </trkpt>
      <trkpt lat="39.06531167" lon="-0.27306">
        <ele>25.947</ele>
        <time>2020-02-08T10:52:08.359Z</time>
      </trkpt>
      <trkpt lat="39.06531167" lon="-0.27306">
        <ele>25.947</ele>
        <time>2020-02-08T10:52:09.359Z</time>
      </trkpt>
      <trkpt lat="39.06542167" lon="-0.27292667">
        <ele>25.947</ele>
        <time>2020-02-08T10:52:10.359Z</time>
      </trkpt>
      <trkpt lat="39.065475" lon="-0.27286167">
        <ele>24.947</ele>
        <time>2020-02-08T10:52:11.359Z</time>
      </trkpt>
      <trkpt lat="39.06552667" lon="-0.27279667">
        <ele>24.947</ele>
        <time>2020-02-08T10:52:12.359Z</time>
      </trkpt>
      <trkpt lat="39.06552667" lon="-0.27279667">
        <ele>24.947</ele>
        <time>2020-02-08T10:52:13.359Z</time>
      </trkpt>
      <trkpt lat="39.06562" lon="-0.27265833">
        <ele>24.947</ele>
        <time>2020-02-08T10:52:14.359Z</time>
      </trkpt>
      <trkpt lat="39.06562" lon="-0.27265833">
        <ele>24.947</ele>
        <time>2020-02-08T10:52:15.359Z</time>
      </trkpt>
      <trkpt lat="39.06570167" lon="-0.27251">
        <ele>24.947</ele>
        <time>2020-02-08T10:52:16.359Z</time>
      </trkpt>
      <trkpt lat="39.06573667" lon="-0.27243333">
        <ele>24.947</ele>
        <time>2020-02-08T10:52:17.359Z</time>
      </trkpt>
      <trkpt lat="39.06573667" lon="-0.27243333">
        <ele>24.947</ele>
        <time>2020-02-08T10:52:18.359Z</time>
      </trkpt>
      <trkpt lat="39.06580333" lon="-0.27227667">
        <ele>24.947</ele>
        <time>2020-02-08T10:52:19.359Z</time>
      </trkpt>
      <trkpt lat="39.06580333" lon="-0.27227667">
        <ele>24.947</ele>
        <time>2020-02-08T10:52:20.359Z</time>
      </trkpt>
      <trkpt lat="39.06587333" lon="-0.27211667">
        <ele>24.947</ele>
        <time>2020-02-08T10:52:21.359Z</time>
      </trkpt>
      <trkpt lat="39.06587333" lon="-0.27211667">
        <ele>24.947</ele>
        <time>2020-02-08T10:52:22.359Z</time>
      </trkpt>
      <trkpt lat="39.06593833" lon="-0.271955">
        <ele>24.947</ele>
        <time>2020-02-08T10:52:23.359Z</time>
      </trkpt>
      <trkpt lat="39.06596833" lon="-0.27187167">
        <ele>24.947</ele>
        <time>2020-02-08T10:52:24.359Z</time>
      </trkpt>
      <trkpt lat="39.06596833" lon="-0.27187167">
        <ele>24.947</ele>
        <time>2020-02-08T10:52:25.359Z</time>
      </trkpt>
      <trkpt lat="39.06603667" lon="-0.27171333">
        <ele>24.947</ele>
        <time>2020-02-08T10:52:26.359Z</time>
      </trkpt>
      <trkpt lat="39.06603667" lon="-0.27171333">
        <ele>24.947</ele>
        <time>2020-02-08T10:52:27.359Z</time>
      </trkpt>
      <trkpt lat="39.06603667" lon="-0.27171333">
        <ele>24.947</ele>
        <time>2020-02-08T10:52:28.359Z</time>
      </trkpt>
      <trkpt lat="39.06613333" lon="-0.27148833">
        <ele>24.947</ele>
        <time>2020-02-08T10:52:29.359Z</time>
      </trkpt>
      <trkpt lat="39.06613333" lon="-0.27148833">
        <ele>24.947</ele>
        <time>2020-02-08T10:52:30.359Z</time>
      </trkpt>
      <trkpt lat="39.0662" lon="-0.27135167">
        <ele>24.947</ele>
        <time>2020-02-08T10:52:31.359Z</time>
      </trkpt>
      <trkpt lat="39.06622833" lon="-0.27129333">
        <ele>24.947</ele>
        <time>2020-02-08T10:52:32.359Z</time>
      </trkpt>
      <trkpt lat="39.06622833" lon="-0.27129333">
        <ele>24.947</ele>
        <time>2020-02-08T10:52:33.359Z</time>
      </trkpt>
      <trkpt lat="39.06623167" lon="-0.271185">
        <ele>24.947</ele>
        <time>2020-02-08T10:52:34.359Z</time>
      </trkpt>
      <trkpt lat="39.06620667" lon="-0.27114333">
        <ele>24.947</ele>
        <time>2020-02-08T10:52:35.359Z</time>
      </trkpt>
      <trkpt lat="39.06620667" lon="-0.27114333">
        <ele>24.947</ele>
        <time>2020-02-08T10:52:36.359Z</time>
      </trkpt>
      <trkpt lat="39.06611667" lon="-0.27107667">
        <ele>24.947</ele>
        <time>2020-02-08T10:52:37.359Z</time>
      </trkpt>
      <trkpt lat="39.06605333" lon="-0.27105333">
        <ele>24.947</ele>
        <time>2020-02-08T10:52:38.359Z</time>
      </trkpt>
      <trkpt lat="39.06605333" lon="-0.27105333">
        <ele>24.947</ele>
        <time>2020-02-08T10:52:39.359Z</time>
      </trkpt>
      <trkpt lat="39.06592667" lon="-0.27100667">
        <ele>24.947</ele>
        <time>2020-02-08T10:52:40.359Z</time>
      </trkpt>
      <trkpt lat="39.06592667" lon="-0.27100667">
        <ele>24.947</ele>
        <time>2020-02-08T10:52:41.359Z</time>
      </trkpt>
      <trkpt lat="39.06580333" lon="-0.270955">
        <ele>24.947</ele>
        <time>2020-02-08T10:52:42.359Z</time>
      </trkpt>
      <trkpt lat="39.06580333" lon="-0.270955">
        <ele>24.947</ele>
        <time>2020-02-08T10:52:43.359Z</time>
      </trkpt>
      <trkpt lat="39.06567167" lon="-0.27090167">
        <ele>24.947</ele>
        <time>2020-02-08T10:52:44.359Z</time>
      </trkpt>
      <trkpt lat="39.065605" lon="-0.270875">
        <ele>24.947</ele>
        <time>2020-02-08T10:52:45.359Z</time>
      </trkpt>
      <trkpt lat="39.065605" lon="-0.270875">
        <ele>24.947</ele>
        <time>2020-02-08T10:52:46.359Z</time>
      </trkpt>
      <trkpt lat="39.06547333" lon="-0.27081">
        <ele>24.947</ele>
        <time>2020-02-08T10:52:47.359Z</time>
      </trkpt>
      <trkpt lat="39.06540833" lon="-0.27078167">
        <ele>24.947</ele>
        <time>2020-02-08T10:52:48.359Z</time>
      </trkpt>
      <trkpt lat="39.06540833" lon="-0.27078167">
        <ele>24.947</ele>
        <time>2020-02-08T10:52:49.359Z</time>
      </trkpt>
      <trkpt lat="39.06528167" lon="-0.27072667">
        <ele>24.947</ele>
        <time>2020-02-08T10:52:50.359Z</time>
      </trkpt>
      <trkpt lat="39.06528167" lon="-0.27072667">
        <ele>24.947</ele>
        <time>2020-02-08T10:52:51.359Z</time>
      </trkpt>
      <trkpt lat="39.06515" lon="-0.27066667">
        <ele>24.947</ele>
        <time>2020-02-08T10:52:52.359Z</time>
      </trkpt>
      <trkpt lat="39.06515" lon="-0.27066667">
        <ele>24.947</ele>
        <time>2020-02-08T10:52:53.359Z</time>
      </trkpt>
      <trkpt lat="39.065015" lon="-0.27060667">
        <ele>24.947</ele>
        <time>2020-02-08T10:52:54.359Z</time>
      </trkpt>
      <trkpt lat="39.065015" lon="-0.27060667">
        <ele>24.947</ele>
        <time>2020-02-08T10:52:55.359Z</time>
      </trkpt>
      <trkpt lat="39.06487833" lon="-0.27054167">
        <ele>24.947</ele>
        <time>2020-02-08T10:52:56.359Z</time>
      </trkpt>
      <trkpt lat="39.06481167" lon="-0.27051167">
        <ele>24.947</ele>
        <time>2020-02-08T10:52:57.359Z</time>
      </trkpt>
      <trkpt lat="39.06474667" lon="-0.27048167">
        <ele>24.947</ele>
        <time>2020-02-08T10:52:58.359Z</time>
      </trkpt>
      <trkpt lat="39.06474667" lon="-0.27048167">
        <ele>24.947</ele>
        <time>2020-02-08T10:52:59.359Z</time>
      </trkpt>
      <trkpt lat="39.06461667" lon="-0.27041833">
        <ele>24.947</ele>
        <time>2020-02-08T10:53:00.359Z</time>
      </trkpt>
      <trkpt lat="39.06461667" lon="-0.27041833">
        <ele>24.947</ele>
        <time>2020-02-08T10:53:01.359Z</time>
      </trkpt>
      <trkpt lat="39.06448667" lon="-0.27035667">
        <ele>24.947</ele>
        <time>2020-02-08T10:53:02.359Z</time>
      </trkpt>
      <trkpt lat="39.06448667" lon="-0.27035667">
        <ele>24.947</ele>
        <time>2020-02-08T10:53:03.359Z</time>
      </trkpt>
      <trkpt lat="39.06435833" lon="-0.27029167">
        <ele>24.947</ele>
        <time>2020-02-08T10:53:04.359Z</time>
      </trkpt>
      <trkpt lat="39.06435833" lon="-0.27029167">
        <ele>24.947</ele>
        <time>2020-02-08T10:53:05.359Z</time>
      </trkpt>
      <trkpt lat="39.06423167" lon="-0.27023333">
        <ele>24.947</ele>
        <time>2020-02-08T10:53:06.359Z</time>
      </trkpt>
      <trkpt lat="39.06423167" lon="-0.27023333">
        <ele>24.947</ele>
        <time>2020-02-08T10:53:07.359Z</time>
      </trkpt>
      <trkpt lat="39.0641" lon="-0.27016667">
        <ele>24.947</ele>
        <time>2020-02-08T10:53:08.359Z</time>
      </trkpt>
      <trkpt lat="39.0641" lon="-0.27016667">
        <ele>24.947</ele>
        <time>2020-02-08T10:53:09.359Z</time>
      </trkpt>
      <trkpt lat="39.06397167" lon="-0.27009333">
        <ele>24.947</ele>
        <time>2020-02-08T10:53:10.359Z</time>
      </trkpt>
      <trkpt lat="39.06397167" lon="-0.27009333">
        <ele>24.947</ele>
        <time>2020-02-08T10:53:11.359Z</time>
      </trkpt>
      <trkpt lat="39.06385" lon="-0.27002333">
        <ele>24.947</ele>
        <time>2020-02-08T10:53:12.359Z</time>
      </trkpt>
      <trkpt lat="39.06385" lon="-0.27002333">
        <ele>24.947</ele>
        <time>2020-02-08T10:53:13.359Z</time>
      </trkpt>
      <trkpt lat="39.06371667" lon="-0.26994833">
        <ele>24.947</ele>
        <time>2020-02-08T10:53:14.359Z</time>
      </trkpt>
      <trkpt lat="39.06371667" lon="-0.26994833">
        <ele>24.947</ele>
        <time>2020-02-08T10:53:15.359Z</time>
      </trkpt>
      <trkpt lat="39.06358833" lon="-0.26986667">
        <ele>24.947</ele>
        <time>2020-02-08T10:53:16.359Z</time>
      </trkpt>
      <trkpt lat="39.06358833" lon="-0.26986667">
        <ele>24.947</ele>
        <time>2020-02-08T10:53:17.359Z</time>
      </trkpt>
      <trkpt lat="39.063465" lon="-0.269765">
        <ele>24.947</ele>
        <time>2020-02-08T10:53:18.359Z</time>
      </trkpt>
      <trkpt lat="39.063465" lon="-0.269765">
        <ele>24.947</ele>
        <time>2020-02-08T10:53:19.359Z</time>
      </trkpt>
      <trkpt lat="39.06335333" lon="-0.26965">
        <ele>24.947</ele>
        <time>2020-02-08T10:53:20.359Z</time>
      </trkpt>
      <trkpt lat="39.06335333" lon="-0.26965">
        <ele>24.947</ele>
        <time>2020-02-08T10:53:21.359Z</time>
      </trkpt>
      <trkpt lat="39.06324667" lon="-0.26953">
        <ele>24.947</ele>
        <time>2020-02-08T10:53:22.359Z</time>
      </trkpt>
      <trkpt lat="39.06324667" lon="-0.26953">
        <ele>24.947</ele>
        <time>2020-02-08T10:53:23.359Z</time>
      </trkpt>
      <trkpt lat="39.06316167" lon="-0.26938333">
        <ele>24.947</ele>
        <time>2020-02-08T10:53:24.359Z</time>
      </trkpt>
      <trkpt lat="39.06316167" lon="-0.26938333">
        <ele>24.947</ele>
        <time>2020-02-08T10:53:25.359Z</time>
      </trkpt>
      <trkpt lat="39.06310333" lon="-0.26921667">
        <ele>24.947</ele>
        <time>2020-02-08T10:53:26.359Z</time>
      </trkpt>
      <trkpt lat="39.06310333" lon="-0.26921667">
        <ele>24.947</ele>
        <time>2020-02-08T10:53:27.359Z</time>
      </trkpt>
      <trkpt lat="39.06303833" lon="-0.26905333">
        <ele>24.947</ele>
        <time>2020-02-08T10:53:28.359Z</time>
      </trkpt>
      <trkpt lat="39.06303833" lon="-0.26905333">
        <ele>24.947</ele>
        <time>2020-02-08T10:53:29.359Z</time>
      </trkpt>
      <trkpt lat="39.062975" lon="-0.268895">
        <ele>24.947</ele>
        <time>2020-02-08T10:53:30.359Z</time>
      </trkpt>
      <trkpt lat="39.062975" lon="-0.268895">
        <ele>24.947</ele>
        <time>2020-02-08T10:53:31.359Z</time>
      </trkpt>
      <trkpt lat="39.06290333" lon="-0.26875333">
        <ele>24.947</ele>
        <time>2020-02-08T10:53:32.359Z</time>
      </trkpt>
      <trkpt lat="39.06290333" lon="-0.26875333">
        <ele>24.947</ele>
        <time>2020-02-08T10:53:33.359Z</time>
      </trkpt>
      <trkpt lat="39.06283167" lon="-0.26861167">
        <ele>24.947</ele>
        <time>2020-02-08T10:53:34.359Z</time>
      </trkpt>
      <trkpt lat="39.06283167" lon="-0.26861167">
        <ele>24.947</ele>
        <time>2020-02-08T10:53:35.359Z</time>
      </trkpt>
      <trkpt lat="39.06275167" lon="-0.268465">
        <ele>24.947</ele>
        <time>2020-02-08T10:53:36.359Z</time>
      </trkpt>
      <trkpt lat="39.06275167" lon="-0.268465">
        <ele>24.947</ele>
        <time>2020-02-08T10:53:37.359Z</time>
      </trkpt>
      <trkpt lat="39.06268" lon="-0.26832833">
        <ele>24.947</ele>
        <time>2020-02-08T10:53:38.359Z</time>
      </trkpt>
      <trkpt lat="39.06268" lon="-0.26832833">
        <ele>24.947</ele>
        <time>2020-02-08T10:53:39.359Z</time>
      </trkpt>
      <trkpt lat="39.062615" lon="-0.26819333">
        <ele>24.947</ele>
        <time>2020-02-08T10:53:40.359Z</time>
      </trkpt>
      <trkpt lat="39.06258667" lon="-0.26812833">
        <ele>24.947</ele>
        <time>2020-02-08T10:53:41.359Z</time>
      </trkpt>
      <trkpt lat="39.062555" lon="-0.268065">
        <ele>24.947</ele>
        <time>2020-02-08T10:53:42.359Z</time>
      </trkpt>
      <trkpt lat="39.062555" lon="-0.268065">
        <ele>24.947</ele>
        <time>2020-02-08T10:53:43.359Z</time>
      </trkpt>
      <trkpt lat="39.06250667" lon="-0.26796333">
        <ele>24.947</ele>
        <time>2020-02-08T10:53:44.359Z</time>
      </trkpt>
      <trkpt lat="39.06250667" lon="-0.26796333">
        <ele>24.947</ele>
        <time>2020-02-08T10:53:45.359Z</time>
      </trkpt>
      <trkpt lat="39.06249333" lon="-0.26787833">
        <ele>25.947</ele>
        <time>2020-02-08T10:53:46.359Z</time>
      </trkpt>
      <trkpt lat="39.06249333" lon="-0.26787833">
        <ele>25.947</ele>
        <time>2020-02-08T10:53:47.359Z</time>
      </trkpt>
      <trkpt lat="39.06254" lon="-0.26779667">
        <ele>25.947</ele>
        <time>2020-02-08T10:53:48.359Z</time>
      </trkpt>
      <trkpt lat="39.06254" lon="-0.26779667">
        <ele>25.947</ele>
        <time>2020-02-08T10:53:49.359Z</time>
      </trkpt>
      <trkpt lat="39.062605" lon="-0.26772667">
        <ele>25.947</ele>
        <time>2020-02-08T10:53:50.359Z</time>
      </trkpt>
      <trkpt lat="39.062605" lon="-0.26772667">
        <ele>25.947</ele>
        <time>2020-02-08T10:53:51.359Z</time>
      </trkpt>
      <trkpt lat="39.062675" lon="-0.26764167">
        <ele>26.947</ele>
        <time>2020-02-08T10:53:52.359Z</time>
      </trkpt>
      <trkpt lat="39.062675" lon="-0.26764167">
        <ele>26.947</ele>
        <time>2020-02-08T10:53:53.359Z</time>
      </trkpt>
      <trkpt lat="39.06274667" lon="-0.26755167">
        <ele>26.947</ele>
        <time>2020-02-08T10:53:54.359Z</time>
      </trkpt>
      <trkpt lat="39.06274667" lon="-0.26755167">
        <ele>26.947</ele>
        <time>2020-02-08T10:53:55.359Z</time>
      </trkpt>
      <trkpt lat="39.06282833" lon="-0.26747833">
        <ele>26.947</ele>
        <time>2020-02-08T10:53:56.359Z</time>
      </trkpt>
      <trkpt lat="39.06282833" lon="-0.26747833">
        <ele>26.947</ele>
        <time>2020-02-08T10:53:57.359Z</time>
      </trkpt>
      <trkpt lat="39.06292333" lon="-0.26742">
        <ele>26.947</ele>
        <time>2020-02-08T10:53:58.359Z</time>
      </trkpt>
      <trkpt lat="39.06292333" lon="-0.26742">
        <ele>26.947</ele>
        <time>2020-02-08T10:53:59.359Z</time>
      </trkpt>
      <trkpt lat="39.06302167" lon="-0.267355">
        <ele>26.947</ele>
        <time>2020-02-08T10:54:00.359Z</time>
      </trkpt>
      <trkpt lat="39.06306667" lon="-0.26731333">
        <ele>26.947</ele>
        <time>2020-02-08T10:54:01.359Z</time>
      </trkpt>
      <trkpt lat="39.06306667" lon="-0.26731333">
        <ele>26.947</ele>
        <time>2020-02-08T10:54:02.359Z</time>
      </trkpt>
      <trkpt lat="39.06314" lon="-0.2672">
        <ele>26.947</ele>
        <time>2020-02-08T10:54:03.359Z</time>
      </trkpt>
      <trkpt lat="39.06314" lon="-0.2672">
        <ele>26.947</ele>
        <time>2020-02-08T10:54:04.359Z</time>
      </trkpt>
      <trkpt lat="39.06319333" lon="-0.26706667">
        <ele>26.947</ele>
        <time>2020-02-08T10:54:05.359Z</time>
      </trkpt>
      <trkpt lat="39.06321667" lon="-0.26699833">
        <ele>26.947</ele>
        <time>2020-02-08T10:54:06.359Z</time>
      </trkpt>
      <trkpt lat="39.06321667" lon="-0.26699833">
        <ele>26.947</ele>
        <time>2020-02-08T10:54:07.359Z</time>
      </trkpt>
      <trkpt lat="39.06325833" lon="-0.266855">
        <ele>26.947</ele>
        <time>2020-02-08T10:54:08.359Z</time>
      </trkpt>
      <trkpt lat="39.06325833" lon="-0.266855">
        <ele>26.947</ele>
        <time>2020-02-08T10:54:09.359Z</time>
      </trkpt>
      <trkpt lat="39.06330333" lon="-0.26672">
        <ele>26.947</ele>
        <time>2020-02-08T10:54:10.359Z</time>
      </trkpt>
      <trkpt lat="39.06330333" lon="-0.26672">
        <ele>26.947</ele>
        <time>2020-02-08T10:54:11.359Z</time>
      </trkpt>
      <trkpt lat="39.06335333" lon="-0.26657833">
        <ele>26.947</ele>
        <time>2020-02-08T10:54:12.359Z</time>
      </trkpt>
      <trkpt lat="39.06335333" lon="-0.26657833">
        <ele>26.947</ele>
        <time>2020-02-08T10:54:13.359Z</time>
      </trkpt>
      <trkpt lat="39.06340833" lon="-0.26643167">
        <ele>26.947</ele>
        <time>2020-02-08T10:54:14.359Z</time>
      </trkpt>
      <trkpt lat="39.06343333" lon="-0.26635833">
        <ele>26.947</ele>
        <time>2020-02-08T10:54:15.359Z</time>
      </trkpt>
      <trkpt lat="39.06343333" lon="-0.26635833">
        <ele>26.947</ele>
        <time>2020-02-08T10:54:16.359Z</time>
      </trkpt>
      <trkpt lat="39.063475" lon="-0.266205">
        <ele>26.947</ele>
        <time>2020-02-08T10:54:17.359Z</time>
      </trkpt>
      <trkpt lat="39.06348667" lon="-0.26612333">
        <ele>26.947</ele>
        <time>2020-02-08T10:54:18.359Z</time>
      </trkpt>
      <trkpt lat="39.06348667" lon="-0.26612333">
        <ele>26.947</ele>
        <time>2020-02-08T10:54:19.359Z</time>
      </trkpt>
      <trkpt lat="39.06349833" lon="-0.26595833">
        <ele>26.947</ele>
        <time>2020-02-08T10:54:20.359Z</time>
      </trkpt>
      <trkpt lat="39.06349833" lon="-0.26595833">
        <ele>26.947</ele>
        <time>2020-02-08T10:54:21.359Z</time>
      </trkpt>
      <trkpt lat="39.06349833" lon="-0.26579167">
        <ele>26.947</ele>
        <time>2020-02-08T10:54:22.359Z</time>
      </trkpt>
      <trkpt lat="39.06349833" lon="-0.26579167">
        <ele>26.947</ele>
        <time>2020-02-08T10:54:23.359Z</time>
      </trkpt>
      <trkpt lat="39.063525" lon="-0.26562667">
        <ele>26.947</ele>
        <time>2020-02-08T10:54:24.359Z</time>
      </trkpt>
      <trkpt lat="39.063525" lon="-0.26562667">
        <ele>26.947</ele>
        <time>2020-02-08T10:54:25.359Z</time>
      </trkpt>
      <trkpt lat="39.06351833" lon="-0.26547667">
        <ele>26.947</ele>
        <time>2020-02-08T10:54:26.359Z</time>
      </trkpt>
      <trkpt lat="39.06351833" lon="-0.26547667">
        <ele>26.947</ele>
        <time>2020-02-08T10:54:27.359Z</time>
      </trkpt>
      <trkpt lat="39.063485" lon="-0.26532333">
        <ele>26.947</ele>
        <time>2020-02-08T10:54:28.359Z</time>
      </trkpt>
      <trkpt lat="39.06347" lon="-0.26524333">
        <ele>26.947</ele>
        <time>2020-02-08T10:54:29.359Z</time>
      </trkpt>
      <trkpt lat="39.06345333" lon="-0.26516333">
        <ele>26.947</ele>
        <time>2020-02-08T10:54:30.359Z</time>
      </trkpt>
      <trkpt lat="39.06345333" lon="-0.26516333">
        <ele>26.947</ele>
        <time>2020-02-08T10:54:31.359Z</time>
      </trkpt>
      <trkpt lat="39.063415" lon="-0.265005">
        <ele>26.947</ele>
        <time>2020-02-08T10:54:32.359Z</time>
      </trkpt>
      <trkpt lat="39.063415" lon="-0.265005">
        <ele>26.947</ele>
        <time>2020-02-08T10:54:33.359Z</time>
      </trkpt>
      <trkpt lat="39.06336833" lon="-0.26484667">
        <ele>26.947</ele>
        <time>2020-02-08T10:54:34.359Z</time>
      </trkpt>
      <trkpt lat="39.06336833" lon="-0.26484667">
        <ele>26.947</ele>
        <time>2020-02-08T10:54:35.359Z</time>
      </trkpt>
      <trkpt lat="39.06333833" lon="-0.26468">
        <ele>26.947</ele>
        <time>2020-02-08T10:54:36.359Z</time>
      </trkpt>
      <trkpt lat="39.06333833" lon="-0.26468">
        <ele>26.947</ele>
        <time>2020-02-08T10:54:37.359Z</time>
      </trkpt>
      <trkpt lat="39.06333667" lon="-0.264515">
        <ele>26.947</ele>
        <time>2020-02-08T10:54:38.359Z</time>
      </trkpt>
      <trkpt lat="39.06334" lon="-0.26443">
        <ele>26.947</ele>
        <time>2020-02-08T10:54:39.359Z</time>
      </trkpt>
      <trkpt lat="39.06334" lon="-0.26443">
        <ele>26.947</ele>
        <time>2020-02-08T10:54:40.359Z</time>
      </trkpt>
      <trkpt lat="39.06333167" lon="-0.264265">
        <ele>26.947</ele>
        <time>2020-02-08T10:54:41.359Z</time>
      </trkpt>
      <trkpt lat="39.06333167" lon="-0.264265">
        <ele>26.947</ele>
        <time>2020-02-08T10:54:42.359Z</time>
      </trkpt>
      <trkpt lat="39.0633" lon="-0.26410667">
        <ele>26.947</ele>
        <time>2020-02-08T10:54:43.359Z</time>
      </trkpt>
      <trkpt lat="39.06328" lon="-0.26402667">
        <ele>26.947</ele>
        <time>2020-02-08T10:54:44.359Z</time>
      </trkpt>
      <trkpt lat="39.06328" lon="-0.26402667">
        <ele>26.947</ele>
        <time>2020-02-08T10:54:45.359Z</time>
      </trkpt>
      <trkpt lat="39.06323667" lon="-0.26387">
        <ele>26.947</ele>
        <time>2020-02-08T10:54:46.359Z</time>
      </trkpt>
      <trkpt lat="39.06321667" lon="-0.26379">
        <ele>26.947</ele>
        <time>2020-02-08T10:54:47.359Z</time>
      </trkpt>
      <trkpt lat="39.06321667" lon="-0.26379">
        <ele>26.947</ele>
        <time>2020-02-08T10:54:48.359Z</time>
      </trkpt>
      <trkpt lat="39.06317167" lon="-0.26362833">
        <ele>26.947</ele>
        <time>2020-02-08T10:54:49.359Z</time>
      </trkpt>
      <trkpt lat="39.06315" lon="-0.26354833">
        <ele>26.947</ele>
        <time>2020-02-08T10:54:50.359Z</time>
      </trkpt>
      <trkpt lat="39.06315" lon="-0.26354833">
        <ele>26.947</ele>
        <time>2020-02-08T10:54:51.359Z</time>
      </trkpt>
      <trkpt lat="39.06311167" lon="-0.26339">
        <ele>26.947</ele>
        <time>2020-02-08T10:54:52.359Z</time>
      </trkpt>
      <trkpt lat="39.06311167" lon="-0.26339">
        <ele>26.947</ele>
        <time>2020-02-08T10:54:53.359Z</time>
      </trkpt>
      <trkpt lat="39.063065" lon="-0.263225">
        <ele>26.947</ele>
        <time>2020-02-08T10:54:54.359Z</time>
      </trkpt>
      <trkpt lat="39.063065" lon="-0.263225">
        <ele>26.947</ele>
        <time>2020-02-08T10:54:55.359Z</time>
      </trkpt>
      <trkpt lat="39.063015" lon="-0.26306167">
        <ele>26.947</ele>
        <time>2020-02-08T10:54:56.359Z</time>
      </trkpt>
      <trkpt lat="39.063015" lon="-0.26306167">
        <ele>26.947</ele>
        <time>2020-02-08T10:54:57.359Z</time>
      </trkpt>
      <trkpt lat="39.06296833" lon="-0.26289833">
        <ele>26.947</ele>
        <time>2020-02-08T10:54:58.359Z</time>
      </trkpt>
      <trkpt lat="39.06296833" lon="-0.26289833">
        <ele>26.947</ele>
        <time>2020-02-08T10:54:59.359Z</time>
      </trkpt>
      <trkpt lat="39.06292" lon="-0.26274167">
        <ele>26.947</ele>
        <time>2020-02-08T10:55:00.359Z</time>
      </trkpt>
      <trkpt lat="39.06289333" lon="-0.262665">
        <ele>26.947</ele>
        <time>2020-02-08T10:55:01.359Z</time>
      </trkpt>
      <trkpt lat="39.06289333" lon="-0.262665">
        <ele>26.947</ele>
        <time>2020-02-08T10:55:02.359Z</time>
      </trkpt>
      <trkpt lat="39.06283167" lon="-0.26251667">
        <ele>26.947</ele>
        <time>2020-02-08T10:55:03.359Z</time>
      </trkpt>
      <trkpt lat="39.06280333" lon="-0.26243667">
        <ele>26.947</ele>
        <time>2020-02-08T10:55:04.359Z</time>
      </trkpt>
      <trkpt lat="39.06280333" lon="-0.26243667">
        <ele>26.947</ele>
        <time>2020-02-08T10:55:05.359Z</time>
      </trkpt>
      <trkpt lat="39.06275333" lon="-0.26227667">
        <ele>26.947</ele>
        <time>2020-02-08T10:55:06.359Z</time>
      </trkpt>
      <trkpt lat="39.06275333" lon="-0.26227667">
        <ele>26.947</ele>
        <time>2020-02-08T10:55:07.359Z</time>
      </trkpt>
      <trkpt lat="39.06273" lon="-0.262105">
        <ele>26.947</ele>
        <time>2020-02-08T10:55:08.359Z</time>
      </trkpt>
      <trkpt lat="39.06273" lon="-0.262105">
        <ele>26.947</ele>
        <time>2020-02-08T10:55:09.359Z</time>
      </trkpt>
      <trkpt lat="39.06272" lon="-0.26193333">
        <ele>26.947</ele>
        <time>2020-02-08T10:55:10.359Z</time>
      </trkpt>
      <trkpt lat="39.06272167" lon="-0.26185">
        <ele>26.947</ele>
        <time>2020-02-08T10:55:11.359Z</time>
      </trkpt>
      <trkpt lat="39.06272167" lon="-0.26185">
        <ele>26.947</ele>
        <time>2020-02-08T10:55:12.359Z</time>
      </trkpt>
      <trkpt lat="39.06272" lon="-0.261685">
        <ele>26.947</ele>
        <time>2020-02-08T10:55:13.359Z</time>
      </trkpt>
      <trkpt lat="39.062715" lon="-0.26160167">
        <ele>26.947</ele>
        <time>2020-02-08T10:55:14.359Z</time>
      </trkpt>
      <trkpt lat="39.062715" lon="-0.26160167">
        <ele>26.947</ele>
        <time>2020-02-08T10:55:15.359Z</time>
      </trkpt>
      <trkpt lat="39.062695" lon="-0.26143167">
        <ele>26.947</ele>
        <time>2020-02-08T10:55:16.359Z</time>
      </trkpt>
      <trkpt lat="39.062695" lon="-0.26143167">
        <ele>26.947</ele>
        <time>2020-02-08T10:55:17.359Z</time>
      </trkpt>
      <trkpt lat="39.06267333" lon="-0.26126">
        <ele>26.947</ele>
        <time>2020-02-08T10:55:18.359Z</time>
      </trkpt>
      <trkpt lat="39.06267333" lon="-0.26126">
        <ele>26.947</ele>
        <time>2020-02-08T10:55:19.359Z</time>
      </trkpt>
      <trkpt lat="39.06265" lon="-0.26108833">
        <ele>26.947</ele>
        <time>2020-02-08T10:55:20.359Z</time>
      </trkpt>
      <trkpt lat="39.06263667" lon="-0.26100167">
        <ele>26.947</ele>
        <time>2020-02-08T10:55:21.359Z</time>
      </trkpt>
      <trkpt lat="39.06262333" lon="-0.26091333">
        <ele>26.947</ele>
        <time>2020-02-08T10:55:22.359Z</time>
      </trkpt>
      <trkpt lat="39.06262333" lon="-0.26091333">
        <ele>26.947</ele>
        <time>2020-02-08T10:55:23.359Z</time>
      </trkpt>
      <trkpt lat="39.06258833" lon="-0.26074833">
        <ele>26.947</ele>
        <time>2020-02-08T10:55:24.359Z</time>
      </trkpt>
      <trkpt lat="39.06258833" lon="-0.26074833">
        <ele>26.947</ele>
        <time>2020-02-08T10:55:25.359Z</time>
      </trkpt>
      <trkpt lat="39.06252667" lon="-0.26059167">
        <ele>26.947</ele>
        <time>2020-02-08T10:55:26.359Z</time>
      </trkpt>
      <trkpt lat="39.06252667" lon="-0.26059167">
        <ele>26.947</ele>
        <time>2020-02-08T10:55:27.359Z</time>
      </trkpt>
      <trkpt lat="39.06246667" lon="-0.26042">
        <ele>26.947</ele>
        <time>2020-02-08T10:55:28.359Z</time>
      </trkpt>
      <trkpt lat="39.06246667" lon="-0.26042">
        <ele>26.947</ele>
        <time>2020-02-08T10:55:29.359Z</time>
      </trkpt>
      <trkpt lat="39.06242" lon="-0.26022833">
        <ele>26.947</ele>
        <time>2020-02-08T10:55:30.359Z</time>
      </trkpt>
      <trkpt lat="39.06242" lon="-0.26022833">
        <ele>26.947</ele>
        <time>2020-02-08T10:55:31.359Z</time>
      </trkpt>
      <trkpt lat="39.06240667" lon="-0.26002167">
        <ele>25.947</ele>
        <time>2020-02-08T10:55:32.359Z</time>
      </trkpt>
      <trkpt lat="39.06240667" lon="-0.26002167">
        <ele>25.947</ele>
        <time>2020-02-08T10:55:33.359Z</time>
      </trkpt>
      <trkpt lat="39.06241667" lon="-0.25982">
        <ele>24.947</ele>
        <time>2020-02-08T10:55:34.359Z</time>
      </trkpt>
      <trkpt lat="39.06241667" lon="-0.25982">
        <ele>24.947</ele>
        <time>2020-02-08T10:55:35.359Z</time>
      </trkpt>
      <trkpt lat="39.06243833" lon="-0.259625">
        <ele>24.947</ele>
        <time>2020-02-08T10:55:36.359Z</time>
      </trkpt>
      <trkpt lat="39.06243833" lon="-0.259625">
        <ele>24.947</ele>
        <time>2020-02-08T10:55:37.359Z</time>
      </trkpt>
      <trkpt lat="39.062465" lon="-0.25943833">
        <ele>24.947</ele>
        <time>2020-02-08T10:55:38.359Z</time>
      </trkpt>
      <trkpt lat="39.062465" lon="-0.25943833">
        <ele>24.947</ele>
        <time>2020-02-08T10:55:39.359Z</time>
      </trkpt>
      <trkpt lat="39.06250167" lon="-0.25925833">
        <ele>24.947</ele>
        <time>2020-02-08T10:55:40.359Z</time>
      </trkpt>
      <trkpt lat="39.06250167" lon="-0.25925833">
        <ele>24.947</ele>
        <time>2020-02-08T10:55:41.359Z</time>
      </trkpt>
      <trkpt lat="39.06254833" lon="-0.25908167">
        <ele>24.947</ele>
        <time>2020-02-08T10:55:42.359Z</time>
      </trkpt>
      <trkpt lat="39.06254833" lon="-0.25908167">
        <ele>24.947</ele>
        <time>2020-02-08T10:55:43.359Z</time>
      </trkpt>
      <trkpt lat="39.06259667" lon="-0.25890667">
        <ele>24.947</ele>
        <time>2020-02-08T10:55:44.359Z</time>
      </trkpt>
      <trkpt lat="39.06259667" lon="-0.25890667">
        <ele>24.947</ele>
        <time>2020-02-08T10:55:45.359Z</time>
      </trkpt>
      <trkpt lat="39.06263333" lon="-0.25873167">
        <ele>24.947</ele>
        <time>2020-02-08T10:55:46.359Z</time>
      </trkpt>
      <trkpt lat="39.06263333" lon="-0.25873167">
        <ele>24.947</ele>
        <time>2020-02-08T10:55:47.359Z</time>
      </trkpt>
      <trkpt lat="39.06265167" lon="-0.25856">
        <ele>24.947</ele>
        <time>2020-02-08T10:55:48.359Z</time>
      </trkpt>
      <trkpt lat="39.06265167" lon="-0.25856">
        <ele>24.947</ele>
        <time>2020-02-08T10:55:49.359Z</time>
      </trkpt>
      <trkpt lat="39.06266167" lon="-0.25839333">
        <ele>24.947</ele>
        <time>2020-02-08T10:55:50.359Z</time>
      </trkpt>
      <trkpt lat="39.06266167" lon="-0.25839333">
        <ele>25.947</ele>
        <time>2020-02-08T10:55:51.359Z</time>
      </trkpt>
      <trkpt lat="39.06267667" lon="-0.25822">
        <ele>25.947</ele>
        <time>2020-02-08T10:55:52.359Z</time>
      </trkpt>
      <trkpt lat="39.06267167" lon="-0.25813">
        <ele>25.947</ele>
        <time>2020-02-08T10:55:53.359Z</time>
      </trkpt>
      <trkpt lat="39.06267167" lon="-0.25804">
        <ele>25.947</ele>
        <time>2020-02-08T10:55:54.359Z</time>
      </trkpt>
      <trkpt lat="39.06267167" lon="-0.25804">
        <ele>25.947</ele>
        <time>2020-02-08T10:55:55.359Z</time>
      </trkpt>
      <trkpt lat="39.06268167" lon="-0.25785167">
        <ele>25.947</ele>
        <time>2020-02-08T10:55:56.359Z</time>
      </trkpt>
      <trkpt lat="39.06268167" lon="-0.25785167">
        <ele>25.947</ele>
        <time>2020-02-08T10:55:57.359Z</time>
      </trkpt>
      <trkpt lat="39.06269333" lon="-0.25767">
        <ele>25.947</ele>
        <time>2020-02-08T10:55:58.359Z</time>
      </trkpt>
      <trkpt lat="39.06269333" lon="-0.25767">
        <ele>25.947</ele>
        <time>2020-02-08T10:55:59.359Z</time>
      </trkpt>
      <trkpt lat="39.06271333" lon="-0.257495">
        <ele>25.947</ele>
        <time>2020-02-08T10:56:00.359Z</time>
      </trkpt>
      <trkpt lat="39.06271333" lon="-0.257495">
        <ele>25.947</ele>
        <time>2020-02-08T10:56:01.359Z</time>
      </trkpt>
      <trkpt lat="39.06274667" lon="-0.257325">
        <ele>25.947</ele>
        <time>2020-02-08T10:56:02.359Z</time>
      </trkpt>
      <trkpt lat="39.06274667" lon="-0.257325">
        <ele>25.947</ele>
        <time>2020-02-08T10:56:03.359Z</time>
      </trkpt>
      <trkpt lat="39.06282167" lon="-0.25717">
        <ele>25.947</ele>
        <time>2020-02-08T10:56:04.359Z</time>
      </trkpt>
      <trkpt lat="39.06282167" lon="-0.25717">
        <ele>25.947</ele>
        <time>2020-02-08T10:56:05.359Z</time>
      </trkpt>
      <trkpt lat="39.062905" lon="-0.257025">
        <ele>25.947</ele>
        <time>2020-02-08T10:56:06.359Z</time>
      </trkpt>
      <trkpt lat="39.062905" lon="-0.257025">
        <ele>25.947</ele>
        <time>2020-02-08T10:56:07.359Z</time>
      </trkpt>
      <trkpt lat="39.06298333" lon="-0.25687333">
        <ele>25.947</ele>
        <time>2020-02-08T10:56:08.359Z</time>
      </trkpt>
      <trkpt lat="39.06298333" lon="-0.25687333">
        <ele>25.947</ele>
        <time>2020-02-08T10:56:09.359Z</time>
      </trkpt>
      <trkpt lat="39.063055" lon="-0.256725">
        <ele>25.947</ele>
        <time>2020-02-08T10:56:10.359Z</time>
      </trkpt>
      <trkpt lat="39.063055" lon="-0.256725">
        <ele>25.947</ele>
        <time>2020-02-08T10:56:11.359Z</time>
      </trkpt>
      <trkpt lat="39.06312667" lon="-0.25657167">
        <ele>25.947</ele>
        <time>2020-02-08T10:56:12.359Z</time>
      </trkpt>
      <trkpt lat="39.06312667" lon="-0.25657167">
        <ele>25.947</ele>
        <time>2020-02-08T10:56:13.359Z</time>
      </trkpt>
      <trkpt lat="39.063185" lon="-0.25642">
        <ele>25.947</ele>
        <time>2020-02-08T10:56:14.359Z</time>
      </trkpt>
      <trkpt lat="39.063185" lon="-0.25642">
        <ele>25.947</ele>
        <time>2020-02-08T10:56:15.359Z</time>
      </trkpt>
      <trkpt lat="39.063225" lon="-0.25626333">
        <ele>25.947</ele>
        <time>2020-02-08T10:56:16.359Z</time>
      </trkpt>
      <trkpt lat="39.063225" lon="-0.25626333">
        <ele>26.947</ele>
        <time>2020-02-08T10:56:17.359Z</time>
      </trkpt>
      <trkpt lat="39.06325333" lon="-0.2561">
        <ele>26.947</ele>
        <time>2020-02-08T10:56:18.359Z</time>
      </trkpt>
      <trkpt lat="39.06325333" lon="-0.2561">
        <ele>26.947</ele>
        <time>2020-02-08T10:56:19.359Z</time>
      </trkpt>
      <trkpt lat="39.06329" lon="-0.25594333">
        <ele>26.947</ele>
        <time>2020-02-08T10:56:20.359Z</time>
      </trkpt>
      <trkpt lat="39.06329" lon="-0.25594333">
        <ele>26.947</ele>
        <time>2020-02-08T10:56:21.359Z</time>
      </trkpt>
      <trkpt lat="39.063325" lon="-0.25577667">
        <ele>26.947</ele>
        <time>2020-02-08T10:56:22.359Z</time>
      </trkpt>
      <trkpt lat="39.06334167" lon="-0.25569167">
        <ele>26.947</ele>
        <time>2020-02-08T10:56:23.359Z</time>
      </trkpt>
      <trkpt lat="39.06335833" lon="-0.25560667">
        <ele>26.947</ele>
        <time>2020-02-08T10:56:24.359Z</time>
      </trkpt>
      <trkpt lat="39.06335833" lon="-0.25560667">
        <ele>26.947</ele>
        <time>2020-02-08T10:56:25.359Z</time>
      </trkpt>
      <trkpt lat="39.06339333" lon="-0.25543833">
        <ele>26.947</ele>
        <time>2020-02-08T10:56:26.359Z</time>
      </trkpt>
      <trkpt lat="39.06339333" lon="-0.25543833">
        <ele>26.947</ele>
        <time>2020-02-08T10:56:27.359Z</time>
      </trkpt>
      <trkpt lat="39.06341667" lon="-0.25526833">
        <ele>26.947</ele>
        <time>2020-02-08T10:56:28.359Z</time>
      </trkpt>
      <trkpt lat="39.06341667" lon="-0.25526833">
        <ele>26.947</ele>
        <time>2020-02-08T10:56:29.359Z</time>
      </trkpt>
      <trkpt lat="39.06342833" lon="-0.25510167">
        <ele>26.947</ele>
        <time>2020-02-08T10:56:30.359Z</time>
      </trkpt>
      <trkpt lat="39.06342833" lon="-0.25510167">
        <ele>26.947</ele>
        <time>2020-02-08T10:56:31.359Z</time>
      </trkpt>
      <trkpt lat="39.06343167" lon="-0.25493333">
        <ele>26.947</ele>
        <time>2020-02-08T10:56:32.359Z</time>
      </trkpt>
      <trkpt lat="39.06343167" lon="-0.25493333">
        <ele>26.947</ele>
        <time>2020-02-08T10:56:33.359Z</time>
      </trkpt>
      <trkpt lat="39.06344167" lon="-0.25476167">
        <ele>26.947</ele>
        <time>2020-02-08T10:56:34.359Z</time>
      </trkpt>
      <trkpt lat="39.06344667" lon="-0.254675">
        <ele>26.947</ele>
        <time>2020-02-08T10:56:35.359Z</time>
      </trkpt>
      <trkpt lat="39.06344667" lon="-0.254675">
        <ele>26.947</ele>
        <time>2020-02-08T10:56:36.359Z</time>
      </trkpt>
      <trkpt lat="39.06344667" lon="-0.25449667">
        <ele>26.947</ele>
        <time>2020-02-08T10:56:37.359Z</time>
      </trkpt>
      <trkpt lat="39.06343833" lon="-0.25440333">
        <ele>26.947</ele>
        <time>2020-02-08T10:56:38.359Z</time>
      </trkpt>
      <trkpt lat="39.06343833" lon="-0.25440333">
        <ele>26.947</ele>
        <time>2020-02-08T10:56:39.359Z</time>
      </trkpt>
      <trkpt lat="39.063435" lon="-0.254215">
        <ele>26.947</ele>
        <time>2020-02-08T10:56:40.359Z</time>
      </trkpt>
      <trkpt lat="39.063435" lon="-0.254215">
        <ele>26.947</ele>
        <time>2020-02-08T10:56:41.359Z</time>
      </trkpt>
      <trkpt lat="39.06344333" lon="-0.25401">
        <ele>25.947</ele>
        <time>2020-02-08T10:56:42.359Z</time>
      </trkpt>
      <trkpt lat="39.06344333" lon="-0.25401">
        <ele>25.947</ele>
        <time>2020-02-08T10:56:43.359Z</time>
      </trkpt>
      <trkpt lat="39.063455" lon="-0.25379833">
        <ele>24.947</ele>
        <time>2020-02-08T10:56:44.359Z</time>
      </trkpt>
      <trkpt lat="39.063455" lon="-0.25379833">
        <ele>24.947</ele>
        <time>2020-02-08T10:56:45.359Z</time>
      </trkpt>
      <trkpt lat="39.06346333" lon="-0.25357667">
        <ele>23.947</ele>
        <time>2020-02-08T10:56:46.359Z</time>
      </trkpt>
      <trkpt lat="39.06346333" lon="-0.25357667">
        <ele>23.947</ele>
        <time>2020-02-08T10:56:47.359Z</time>
      </trkpt>
      <trkpt lat="39.06347" lon="-0.25335">
        <ele>23.947</ele>
        <time>2020-02-08T10:56:48.359Z</time>
      </trkpt>
      <trkpt lat="39.06347" lon="-0.25335">
        <ele>23.947</ele>
        <time>2020-02-08T10:56:49.359Z</time>
      </trkpt>
      <trkpt lat="39.06348" lon="-0.25313167">
        <ele>21.947</ele>
        <time>2020-02-08T10:56:50.359Z</time>
      </trkpt>
      <trkpt lat="39.06348" lon="-0.25313167">
        <ele>21.947</ele>
        <time>2020-02-08T10:56:51.359Z</time>
      </trkpt>
      <trkpt lat="39.063495" lon="-0.25292333">
        <ele>21.947</ele>
        <time>2020-02-08T10:56:52.359Z</time>
      </trkpt>
      <trkpt lat="39.063495" lon="-0.25292333">
        <ele>21.947</ele>
        <time>2020-02-08T10:56:53.359Z</time>
      </trkpt>
      <trkpt lat="39.06351167" lon="-0.25272167">
        <ele>21.947</ele>
        <time>2020-02-08T10:56:54.359Z</time>
      </trkpt>
      <trkpt lat="39.06351167" lon="-0.25272167">
        <ele>21.947</ele>
        <time>2020-02-08T10:56:55.359Z</time>
      </trkpt>
      <trkpt lat="39.06352833" lon="-0.25253">
        <ele>21.947</ele>
        <time>2020-02-08T10:56:56.359Z</time>
      </trkpt>
      <trkpt lat="39.06352833" lon="-0.25253">
        <ele>21.947</ele>
        <time>2020-02-08T10:56:57.359Z</time>
      </trkpt>
      <trkpt lat="39.06354333" lon="-0.25234333">
        <ele>21.947</ele>
        <time>2020-02-08T10:56:58.359Z</time>
      </trkpt>
      <trkpt lat="39.06355333" lon="-0.25225">
        <ele>21.947</ele>
        <time>2020-02-08T10:56:59.359Z</time>
      </trkpt>
      <trkpt lat="39.06355333" lon="-0.25225">
        <ele>21.947</ele>
        <time>2020-02-08T10:57:00.359Z</time>
      </trkpt>
      <trkpt lat="39.063575" lon="-0.25206333">
        <ele>21.947</ele>
        <time>2020-02-08T10:57:01.359Z</time>
      </trkpt>
      <trkpt lat="39.063585" lon="-0.25197">
        <ele>21.947</ele>
        <time>2020-02-08T10:57:02.359Z</time>
      </trkpt>
      <trkpt lat="39.063585" lon="-0.25197">
        <ele>21.947</ele>
        <time>2020-02-08T10:57:03.359Z</time>
      </trkpt>
      <trkpt lat="39.06360333" lon="-0.25178167">
        <ele>21.947</ele>
        <time>2020-02-08T10:57:04.359Z</time>
      </trkpt>
      <trkpt lat="39.06360333" lon="-0.25178167">
        <ele>21.947</ele>
        <time>2020-02-08T10:57:05.359Z</time>
      </trkpt>
      <trkpt lat="39.06363167" lon="-0.25159333">
        <ele>21.947</ele>
        <time>2020-02-08T10:57:06.359Z</time>
      </trkpt>
      <trkpt lat="39.06363167" lon="-0.25159333">
        <ele>21.947</ele>
        <time>2020-02-08T10:57:07.359Z</time>
      </trkpt>
      <trkpt lat="39.063665" lon="-0.25140667">
        <ele>21.947</ele>
        <time>2020-02-08T10:57:08.359Z</time>
      </trkpt>
      <trkpt lat="39.063665" lon="-0.25140667">
        <ele>21.947</ele>
        <time>2020-02-08T10:57:09.359Z</time>
      </trkpt>
      <trkpt lat="39.06370167" lon="-0.25121333">
        <ele>21.947</ele>
        <time>2020-02-08T10:57:10.359Z</time>
      </trkpt>
      <trkpt lat="39.06371667" lon="-0.25111667">
        <ele>21.947</ele>
        <time>2020-02-08T10:57:11.359Z</time>
      </trkpt>
      <trkpt lat="39.06373333" lon="-0.25101667">
        <ele>21.947</ele>
        <time>2020-02-08T10:57:12.359Z</time>
      </trkpt>
      <trkpt lat="39.06373333" lon="-0.25101667">
        <ele>21.947</ele>
        <time>2020-02-08T10:57:13.359Z</time>
      </trkpt>
      <trkpt lat="39.06376667" lon="-0.25082167">
        <ele>21.947</ele>
        <time>2020-02-08T10:57:14.359Z</time>
      </trkpt>
      <trkpt lat="39.06376667" lon="-0.25082167">
        <ele>21.947</ele>
        <time>2020-02-08T10:57:15.359Z</time>
      </trkpt>
      <trkpt lat="39.063795" lon="-0.250625">
        <ele>21.947</ele>
        <time>2020-02-08T10:57:16.359Z</time>
      </trkpt>
      <trkpt lat="39.063795" lon="-0.250625">
        <ele>21.947</ele>
        <time>2020-02-08T10:57:17.359Z</time>
      </trkpt>
      <trkpt lat="39.063815" lon="-0.25042833">
        <ele>21.947</ele>
        <time>2020-02-08T10:57:18.359Z</time>
      </trkpt>
      <trkpt lat="39.063815" lon="-0.25042833">
        <ele>21.947</ele>
        <time>2020-02-08T10:57:19.359Z</time>
      </trkpt>
      <trkpt lat="39.06383333" lon="-0.25023667">
        <ele>20.947</ele>
        <time>2020-02-08T10:57:20.359Z</time>
      </trkpt>
      <trkpt lat="39.06383333" lon="-0.25023667">
        <ele>20.947</ele>
        <time>2020-02-08T10:57:21.359Z</time>
      </trkpt>
      <trkpt lat="39.063855" lon="-0.25004667">
        <ele>20.947</ele>
        <time>2020-02-08T10:57:22.359Z</time>
      </trkpt>
      <trkpt lat="39.063855" lon="-0.25004667">
        <ele>20.947</ele>
        <time>2020-02-08T10:57:23.359Z</time>
      </trkpt>
      <trkpt lat="39.06387833" lon="-0.24984667">
        <ele>20.947</ele>
        <time>2020-02-08T10:57:24.359Z</time>
      </trkpt>
      <trkpt lat="39.06387833" lon="-0.24984667">
        <ele>20.947</ele>
        <time>2020-02-08T10:57:25.359Z</time>
      </trkpt>
      <trkpt lat="39.06390667" lon="-0.24964167">
        <ele>19.947</ele>
        <time>2020-02-08T10:57:26.359Z</time>
      </trkpt>
      <trkpt lat="39.06390667" lon="-0.24964167">
        <ele>19.947</ele>
        <time>2020-02-08T10:57:27.359Z</time>
      </trkpt>
      <trkpt lat="39.06392333" lon="-0.24943">
        <ele>19.947</ele>
        <time>2020-02-08T10:57:28.359Z</time>
      </trkpt>
      <trkpt lat="39.06392333" lon="-0.24943">
        <ele>19.947</ele>
        <time>2020-02-08T10:57:29.359Z</time>
      </trkpt>
      <trkpt lat="39.06393667" lon="-0.24922">
        <ele>18.947</ele>
        <time>2020-02-08T10:57:30.359Z</time>
      </trkpt>
      <trkpt lat="39.063945" lon="-0.24911833">
        <ele>18.947</ele>
        <time>2020-02-08T10:57:31.359Z</time>
      </trkpt>
      <trkpt lat="39.063955" lon="-0.24901833">
        <ele>18.947</ele>
        <time>2020-02-08T10:57:32.359Z</time>
      </trkpt>
      <trkpt lat="39.063955" lon="-0.24901833">
        <ele>18.947</ele>
        <time>2020-02-08T10:57:33.359Z</time>
      </trkpt>
      <trkpt lat="39.06398833" lon="-0.24882167">
        <ele>18.947</ele>
        <time>2020-02-08T10:57:34.359Z</time>
      </trkpt>
      <trkpt lat="39.06398833" lon="-0.24882167">
        <ele>18.947</ele>
        <time>2020-02-08T10:57:35.359Z</time>
      </trkpt>
      <trkpt lat="39.06403333" lon="-0.248635">
        <ele>18.947</ele>
        <time>2020-02-08T10:57:36.359Z</time>
      </trkpt>
      <trkpt lat="39.06403333" lon="-0.248635">
        <ele>18.947</ele>
        <time>2020-02-08T10:57:37.359Z</time>
      </trkpt>
      <trkpt lat="39.064075" lon="-0.248455">
        <ele>18.947</ele>
        <time>2020-02-08T10:57:38.359Z</time>
      </trkpt>
      <trkpt lat="39.064075" lon="-0.248455">
        <ele>18.947</ele>
        <time>2020-02-08T10:57:39.359Z</time>
      </trkpt>
      <trkpt lat="39.06411667" lon="-0.24827333">
        <ele>18.947</ele>
        <time>2020-02-08T10:57:40.359Z</time>
      </trkpt>
      <trkpt lat="39.06411667" lon="-0.24827333">
        <ele>18.947</ele>
        <time>2020-02-08T10:57:41.359Z</time>
      </trkpt>
      <trkpt lat="39.064155" lon="-0.24809167">
        <ele>18.947</ele>
        <time>2020-02-08T10:57:42.359Z</time>
      </trkpt>
      <trkpt lat="39.064155" lon="-0.24809167">
        <ele>18.947</ele>
        <time>2020-02-08T10:57:43.359Z</time>
      </trkpt>
      <trkpt lat="39.06419333" lon="-0.24790833">
        <ele>18.947</ele>
        <time>2020-02-08T10:57:44.359Z</time>
      </trkpt>
      <trkpt lat="39.06419333" lon="-0.24790833">
        <ele>18.947</ele>
        <time>2020-02-08T10:57:45.359Z</time>
      </trkpt>
      <trkpt lat="39.06423333" lon="-0.24772333">
        <ele>18.947</ele>
        <time>2020-02-08T10:57:46.359Z</time>
      </trkpt>
      <trkpt lat="39.06425167" lon="-0.24763167">
        <ele>18.947</ele>
        <time>2020-02-08T10:57:47.359Z</time>
      </trkpt>
      <trkpt lat="39.06427" lon="-0.24753833">
        <ele>18.947</ele>
        <time>2020-02-08T10:57:48.359Z</time>
      </trkpt>
      <trkpt lat="39.06427" lon="-0.24753833">
        <ele>18.947</ele>
        <time>2020-02-08T10:57:49.359Z</time>
      </trkpt>
      <trkpt lat="39.06430667" lon="-0.24735167">
        <ele>18.947</ele>
        <time>2020-02-08T10:57:50.359Z</time>
      </trkpt>
      <trkpt lat="39.06430667" lon="-0.24735167">
        <ele>18.947</ele>
        <time>2020-02-08T10:57:51.359Z</time>
      </trkpt>
      <trkpt lat="39.06435" lon="-0.247165">
        <ele>17.947</ele>
        <time>2020-02-08T10:57:52.359Z</time>
      </trkpt>
      <trkpt lat="39.06437667" lon="-0.247075">
        <ele>17.947</ele>
        <time>2020-02-08T10:57:53.359Z</time>
      </trkpt>
      <trkpt lat="39.064405" lon="-0.246985">
        <ele>17.947</ele>
        <time>2020-02-08T10:57:54.359Z</time>
      </trkpt>
      <trkpt lat="39.064405" lon="-0.246985">
        <ele>17.947</ele>
        <time>2020-02-08T10:57:55.359Z</time>
      </trkpt>
      <trkpt lat="39.06445167" lon="-0.24679833">
        <ele>17.947</ele>
        <time>2020-02-08T10:57:56.359Z</time>
      </trkpt>
      <trkpt lat="39.06445167" lon="-0.24679833">
        <ele>17.947</ele>
        <time>2020-02-08T10:57:57.359Z</time>
      </trkpt>
      <trkpt lat="39.06453167" lon="-0.24663333">
        <ele>17.947</ele>
        <time>2020-02-08T10:57:58.359Z</time>
      </trkpt>
      <trkpt lat="39.06453167" lon="-0.24663333">
        <ele>17.947</ele>
        <time>2020-02-08T10:57:59.359Z</time>
      </trkpt>
      <trkpt lat="39.06468333" lon="-0.24656167">
        <ele>17.947</ele>
        <time>2020-02-08T10:58:00.359Z</time>
      </trkpt>
      <trkpt lat="39.06468333" lon="-0.24656167">
        <ele>16.947</ele>
        <time>2020-02-08T10:58:01.359Z</time>
      </trkpt>
      <trkpt lat="39.064845" lon="-0.24653">
        <ele>16.947</ele>
        <time>2020-02-08T10:58:02.359Z</time>
      </trkpt>
      <trkpt lat="39.06492333" lon="-0.246515">
        <ele>16.947</ele>
        <time>2020-02-08T10:58:03.359Z</time>
      </trkpt>
      <trkpt lat="39.06492333" lon="-0.246515">
        <ele>16.947</ele>
        <time>2020-02-08T10:58:04.359Z</time>
      </trkpt>
      <trkpt lat="39.06508" lon="-0.24648167">
        <ele>16.947</ele>
        <time>2020-02-08T10:58:05.359Z</time>
      </trkpt>
      <trkpt lat="39.06508" lon="-0.24648167">
        <ele>16.947</ele>
        <time>2020-02-08T10:58:06.359Z</time>
      </trkpt>
      <trkpt lat="39.06522833" lon="-0.246445">
        <ele>16.947</ele>
        <time>2020-02-08T10:58:07.359Z</time>
      </trkpt>
      <trkpt lat="39.06529833" lon="-0.24642667">
        <ele>16.947</ele>
        <time>2020-02-08T10:58:08.359Z</time>
      </trkpt>
      <trkpt lat="39.06529833" lon="-0.24642667">
        <ele>16.947</ele>
        <time>2020-02-08T10:58:09.359Z</time>
      </trkpt>
      <trkpt lat="39.06544" lon="-0.246405">
        <ele>16.947</ele>
        <time>2020-02-08T10:58:10.359Z</time>
      </trkpt>
      <trkpt lat="39.06551167" lon="-0.24640333">
        <ele>16.947</ele>
        <time>2020-02-08T10:58:11.359Z</time>
      </trkpt>
      <trkpt lat="39.06557833" lon="-0.246395">
        <ele>16.947</ele>
        <time>2020-02-08T10:58:12.359Z</time>
      </trkpt>
      <trkpt lat="39.06557833" lon="-0.246395">
        <ele>16.947</ele>
        <time>2020-02-08T10:58:13.359Z</time>
      </trkpt>
      <trkpt lat="39.06566833" lon="-0.24630167">
        <ele>15.947</ele>
        <time>2020-02-08T10:58:14.359Z</time>
      </trkpt>
      <trkpt lat="39.06566833" lon="-0.24630167">
        <ele>15.947</ele>
        <time>2020-02-08T10:58:15.359Z</time>
      </trkpt>
      <trkpt lat="39.06573" lon="-0.246155">
        <ele>15.947</ele>
        <time>2020-02-08T10:58:16.359Z</time>
      </trkpt>
      <trkpt lat="39.06573" lon="-0.246155">
        <ele>15.947</ele>
        <time>2020-02-08T10:58:17.359Z</time>
      </trkpt>
      <trkpt lat="39.06579833" lon="-0.24602333">
        <ele>15.947</ele>
        <time>2020-02-08T10:58:18.359Z</time>
      </trkpt>
      <trkpt lat="39.06579833" lon="-0.24602333">
        <ele>15.947</ele>
        <time>2020-02-08T10:58:19.359Z</time>
      </trkpt>
      <trkpt lat="39.065865" lon="-0.24592167">
        <ele>15.947</ele>
        <time>2020-02-08T10:58:20.359Z</time>
      </trkpt>
      <trkpt lat="39.065865" lon="-0.24592167">
        <ele>15.947</ele>
        <time>2020-02-08T10:58:21.359Z</time>
      </trkpt>
      <trkpt lat="39.06588" lon="-0.24582333">
        <ele>15.947</ele>
        <time>2020-02-08T10:58:22.359Z</time>
      </trkpt>
      <trkpt lat="39.06588" lon="-0.24582333">
        <ele>15.947</ele>
        <time>2020-02-08T10:58:23.359Z</time>
      </trkpt>
      <trkpt lat="39.06583667" lon="-0.24570167">
        <ele>15.947</ele>
        <time>2020-02-08T10:58:24.359Z</time>
      </trkpt>
      <trkpt lat="39.06583667" lon="-0.24570167">
        <ele>15.947</ele>
        <time>2020-02-08T10:58:25.359Z</time>
      </trkpt>
      <trkpt lat="39.06577667" lon="-0.24556667">
        <ele>15.947</ele>
        <time>2020-02-08T10:58:26.359Z</time>
      </trkpt>
      <trkpt lat="39.06577667" lon="-0.24556667">
        <ele>15.947</ele>
        <time>2020-02-08T10:58:27.359Z</time>
      </trkpt>
      <trkpt lat="39.06573333" lon="-0.245425">
        <ele>15.947</ele>
        <time>2020-02-08T10:58:28.359Z</time>
      </trkpt>
      <trkpt lat="39.06573333" lon="-0.245425">
        <ele>15.947</ele>
        <time>2020-02-08T10:58:29.359Z</time>
      </trkpt>
      <trkpt lat="39.065695" lon="-0.2453">
        <ele>15.947</ele>
        <time>2020-02-08T10:58:30.359Z</time>
      </trkpt>
      <trkpt lat="39.065695" lon="-0.2453">
        <ele>15.947</ele>
        <time>2020-02-08T10:58:31.359Z</time>
      </trkpt>
      <trkpt lat="39.06565333" lon="-0.24517333">
        <ele>15.947</ele>
        <time>2020-02-08T10:58:32.359Z</time>
      </trkpt>
      <trkpt lat="39.06565333" lon="-0.24517333">
        <ele>16.947</ele>
        <time>2020-02-08T10:58:33.359Z</time>
      </trkpt>
      <trkpt lat="39.06562" lon="-0.24504333">
        <ele>16.947</ele>
        <time>2020-02-08T10:58:34.359Z</time>
      </trkpt>
      <trkpt lat="39.06562" lon="-0.24504333">
        <ele>16.947</ele>
        <time>2020-02-08T10:58:35.359Z</time>
      </trkpt>
      <trkpt lat="39.06558167" lon="-0.24491833">
        <ele>16.947</ele>
        <time>2020-02-08T10:58:36.359Z</time>
      </trkpt>
      <trkpt lat="39.06558167" lon="-0.24491833">
        <ele>16.947</ele>
        <time>2020-02-08T10:58:37.359Z</time>
      </trkpt>
      <trkpt lat="39.06555" lon="-0.244795">
        <ele>16.947</ele>
        <time>2020-02-08T10:58:38.359Z</time>
      </trkpt>
      <trkpt lat="39.06555" lon="-0.244795">
        <ele>16.947</ele>
        <time>2020-02-08T10:58:39.359Z</time>
      </trkpt>
      <trkpt lat="39.06551167" lon="-0.24465833">
        <ele>16.947</ele>
        <time>2020-02-08T10:58:40.359Z</time>
      </trkpt>
      <trkpt lat="39.06551167" lon="-0.24465833">
        <ele>16.947</ele>
        <time>2020-02-08T10:58:41.359Z</time>
      </trkpt>
      <trkpt lat="39.06547667" lon="-0.24452167">
        <ele>16.947</ele>
        <time>2020-02-08T10:58:42.359Z</time>
      </trkpt>
      <trkpt lat="39.06547667" lon="-0.24452167">
        <ele>17.947</ele>
        <time>2020-02-08T10:58:43.359Z</time>
      </trkpt>
      <trkpt lat="39.06543167" lon="-0.24438333">
        <ele>17.947</ele>
        <time>2020-02-08T10:58:44.359Z</time>
      </trkpt>
      <trkpt lat="39.06543167" lon="-0.24438333">
        <ele>17.947</ele>
        <time>2020-02-08T10:58:45.359Z</time>
      </trkpt>
      <trkpt lat="39.065385" lon="-0.24424833">
        <ele>17.947</ele>
        <time>2020-02-08T10:58:46.359Z</time>
      </trkpt>
      <trkpt lat="39.065385" lon="-0.24424833">
        <ele>18.947</ele>
        <time>2020-02-08T10:58:47.359Z</time>
      </trkpt>
      <trkpt lat="39.06534" lon="-0.244115">
        <ele>18.947</ele>
        <time>2020-02-08T10:58:48.359Z</time>
      </trkpt>
      <trkpt lat="39.06534" lon="-0.244115">
        <ele>18.947</ele>
        <time>2020-02-08T10:58:49.359Z</time>
      </trkpt>
      <trkpt lat="39.0653" lon="-0.243985">
        <ele>18.947</ele>
        <time>2020-02-08T10:58:50.359Z</time>
      </trkpt>
      <trkpt lat="39.0653" lon="-0.243985">
        <ele>18.947</ele>
        <time>2020-02-08T10:58:51.359Z</time>
      </trkpt>
      <trkpt lat="39.06526" lon="-0.24385333">
        <ele>18.947</ele>
        <time>2020-02-08T10:58:52.359Z</time>
      </trkpt>
      <trkpt lat="39.06526" lon="-0.24385333">
        <ele>18.947</ele>
        <time>2020-02-08T10:58:53.359Z</time>
      </trkpt>
      <trkpt lat="39.06522" lon="-0.24371333">
        <ele>19.947</ele>
        <time>2020-02-08T10:58:54.359Z</time>
      </trkpt>
      <trkpt lat="39.06522" lon="-0.24371333">
        <ele>19.947</ele>
        <time>2020-02-08T10:58:55.359Z</time>
      </trkpt>
      <trkpt lat="39.06518" lon="-0.24357">
        <ele>19.947</ele>
        <time>2020-02-08T10:58:56.359Z</time>
      </trkpt>
      <trkpt lat="39.06516833" lon="-0.24349333">
        <ele>19.947</ele>
        <time>2020-02-08T10:58:57.359Z</time>
      </trkpt>
      <trkpt lat="39.06516833" lon="-0.24349333">
        <ele>19.947</ele>
        <time>2020-02-08T10:58:58.359Z</time>
      </trkpt>
      <trkpt lat="39.06514667" lon="-0.24334333">
        <ele>19.947</ele>
        <time>2020-02-08T10:58:59.359Z</time>
      </trkpt>
      <trkpt lat="39.06514667" lon="-0.24334333">
        <ele>19.947</ele>
        <time>2020-02-08T10:59:00.359Z</time>
      </trkpt>
      <trkpt lat="39.06512833" lon="-0.24318333">
        <ele>19.947</ele>
        <time>2020-02-08T10:59:01.359Z</time>
      </trkpt>
      <trkpt lat="39.06511" lon="-0.24311">
        <ele>19.947</ele>
        <time>2020-02-08T10:59:02.359Z</time>
      </trkpt>
      <trkpt lat="39.06511" lon="-0.24311">
        <ele>19.947</ele>
        <time>2020-02-08T10:59:03.359Z</time>
      </trkpt>
      <trkpt lat="39.065075" lon="-0.24296667">
        <ele>19.947</ele>
        <time>2020-02-08T10:59:04.359Z</time>
      </trkpt>
      <trkpt lat="39.065075" lon="-0.24296667">
        <ele>19.947</ele>
        <time>2020-02-08T10:59:05.359Z</time>
      </trkpt>
      <trkpt lat="39.06504" lon="-0.242825">
        <ele>19.947</ele>
        <time>2020-02-08T10:59:06.359Z</time>
      </trkpt>
      <trkpt lat="39.06504" lon="-0.242825">
        <ele>20.947</ele>
        <time>2020-02-08T10:59:07.359Z</time>
      </trkpt>
      <trkpt lat="39.065" lon="-0.242685">
        <ele>20.947</ele>
        <time>2020-02-08T10:59:08.359Z</time>
      </trkpt>
      <trkpt lat="39.065" lon="-0.242685">
        <ele>20.947</ele>
        <time>2020-02-08T10:59:09.359Z</time>
      </trkpt>
      <trkpt lat="39.06496" lon="-0.24253667">
        <ele>20.947</ele>
        <time>2020-02-08T10:59:10.359Z</time>
      </trkpt>
      <trkpt lat="39.06496" lon="-0.24253667">
        <ele>20.947</ele>
        <time>2020-02-08T10:59:11.359Z</time>
      </trkpt>
      <trkpt lat="39.06492" lon="-0.24237667">
        <ele>20.947</ele>
        <time>2020-02-08T10:59:12.359Z</time>
      </trkpt>
      <trkpt lat="39.06492" lon="-0.24237667">
        <ele>20.947</ele>
        <time>2020-02-08T10:59:13.359Z</time>
      </trkpt>
      <trkpt lat="39.06487833" lon="-0.24222167">
        <ele>20.947</ele>
        <time>2020-02-08T10:59:14.359Z</time>
      </trkpt>
      <trkpt lat="39.06487833" lon="-0.24222167">
        <ele>20.947</ele>
        <time>2020-02-08T10:59:15.359Z</time>
      </trkpt>
      <trkpt lat="39.064835" lon="-0.24206833">
        <ele>20.947</ele>
        <time>2020-02-08T10:59:16.359Z</time>
      </trkpt>
      <trkpt lat="39.064835" lon="-0.24206833">
        <ele>20.947</ele>
        <time>2020-02-08T10:59:17.359Z</time>
      </trkpt>
      <trkpt lat="39.06479" lon="-0.24191833">
        <ele>20.947</ele>
        <time>2020-02-08T10:59:18.359Z</time>
      </trkpt>
      <trkpt lat="39.06479" lon="-0.24191833">
        <ele>20.947</ele>
        <time>2020-02-08T10:59:19.359Z</time>
      </trkpt>
      <trkpt lat="39.06474333" lon="-0.24176333">
        <ele>20.947</ele>
        <time>2020-02-08T10:59:20.359Z</time>
      </trkpt>
      <trkpt lat="39.06474333" lon="-0.24176333">
        <ele>20.947</ele>
        <time>2020-02-08T10:59:21.359Z</time>
      </trkpt>
      <trkpt lat="39.06470333" lon="-0.24160833">
        <ele>20.947</ele>
        <time>2020-02-08T10:59:22.359Z</time>
      </trkpt>
      <trkpt lat="39.06470333" lon="-0.24160833">
        <ele>20.947</ele>
        <time>2020-02-08T10:59:23.359Z</time>
      </trkpt>
      <trkpt lat="39.06466667" lon="-0.241455">
        <ele>20.947</ele>
        <time>2020-02-08T10:59:24.359Z</time>
      </trkpt>
      <trkpt lat="39.06466667" lon="-0.241455">
        <ele>20.947</ele>
        <time>2020-02-08T10:59:25.359Z</time>
      </trkpt>
      <trkpt lat="39.06462167" lon="-0.24128833">
        <ele>20.947</ele>
        <time>2020-02-08T10:59:26.359Z</time>
      </trkpt>
      <trkpt lat="39.06462167" lon="-0.24128833">
        <ele>20.947</ele>
        <time>2020-02-08T10:59:27.359Z</time>
      </trkpt>
      <trkpt lat="39.06457" lon="-0.24113833">
        <ele>20.947</ele>
        <time>2020-02-08T10:59:28.359Z</time>
      </trkpt>
      <trkpt lat="39.06457" lon="-0.24113833">
        <ele>20.947</ele>
        <time>2020-02-08T10:59:29.359Z</time>
      </trkpt>
      <trkpt lat="39.06452" lon="-0.24099">
        <ele>20.947</ele>
        <time>2020-02-08T10:59:30.359Z</time>
      </trkpt>
      <trkpt lat="39.06452" lon="-0.24099">
        <ele>20.947</ele>
        <time>2020-02-08T10:59:31.359Z</time>
      </trkpt>
      <trkpt lat="39.06447667" lon="-0.24084167">
        <ele>20.947</ele>
        <time>2020-02-08T10:59:32.359Z</time>
      </trkpt>
      <trkpt lat="39.06447667" lon="-0.24084167">
        <ele>20.947</ele>
        <time>2020-02-08T10:59:33.359Z</time>
      </trkpt>
      <trkpt lat="39.06445" lon="-0.240695">
        <ele>20.947</ele>
        <time>2020-02-08T10:59:34.359Z</time>
      </trkpt>
      <trkpt lat="39.06445" lon="-0.240695">
        <ele>20.947</ele>
        <time>2020-02-08T10:59:35.359Z</time>
      </trkpt>
      <trkpt lat="39.06442667" lon="-0.24054833">
        <ele>20.947</ele>
        <time>2020-02-08T10:59:36.359Z</time>
      </trkpt>
      <trkpt lat="39.06442667" lon="-0.24054833">
        <ele>20.947</ele>
        <time>2020-02-08T10:59:37.359Z</time>
      </trkpt>
      <trkpt lat="39.06441333" lon="-0.24039333">
        <ele>20.947</ele>
        <time>2020-02-08T10:59:38.359Z</time>
      </trkpt>
      <trkpt lat="39.06441333" lon="-0.24039333">
        <ele>20.947</ele>
        <time>2020-02-08T10:59:39.359Z</time>
      </trkpt>
      <trkpt lat="39.064405" lon="-0.24023">
        <ele>20.947</ele>
        <time>2020-02-08T10:59:40.359Z</time>
      </trkpt>
      <trkpt lat="39.064405" lon="-0.24023">
        <ele>20.947</ele>
        <time>2020-02-08T10:59:41.359Z</time>
      </trkpt>
      <trkpt lat="39.064375" lon="-0.24007">
        <ele>20.947</ele>
        <time>2020-02-08T10:59:42.359Z</time>
      </trkpt>
      <trkpt lat="39.064355" lon="-0.23998667">
        <ele>20.947</ele>
        <time>2020-02-08T10:59:43.359Z</time>
      </trkpt>
      <trkpt lat="39.064335" lon="-0.23990333">
        <ele>20.947</ele>
        <time>2020-02-08T10:59:44.359Z</time>
      </trkpt>
      <trkpt lat="39.064335" lon="-0.23990333">
        <ele>20.947</ele>
        <time>2020-02-08T10:59:45.359Z</time>
      </trkpt>
      <trkpt lat="39.064295" lon="-0.23972333">
        <ele>19.947</ele>
        <time>2020-02-08T10:59:46.359Z</time>
      </trkpt>
      <trkpt lat="39.06427333" lon="-0.23963">
        <ele>19.947</ele>
        <time>2020-02-08T10:59:47.359Z</time>
      </trkpt>
      <trkpt lat="39.06425167" lon="-0.23953833">
        <ele>19.947</ele>
        <time>2020-02-08T10:59:48.359Z</time>
      </trkpt>
      <trkpt lat="39.06425167" lon="-0.23953833">
        <ele>19.947</ele>
        <time>2020-02-08T10:59:49.359Z</time>
      </trkpt>
      <trkpt lat="39.06421" lon="-0.23936333">
        <ele>18.947</ele>
        <time>2020-02-08T10:59:50.359Z</time>
      </trkpt>
      <trkpt lat="39.06421" lon="-0.23936333">
        <ele>18.947</ele>
        <time>2020-02-08T10:59:51.359Z</time>
      </trkpt>
      <trkpt lat="39.064145" lon="-0.23919667">
        <ele>18.947</ele>
        <time>2020-02-08T10:59:52.359Z</time>
      </trkpt>
      <trkpt lat="39.064145" lon="-0.23919667">
        <ele>18.947</ele>
        <time>2020-02-08T10:59:53.359Z</time>
      </trkpt>
      <trkpt lat="39.06403833" lon="-0.23907667">
        <ele>17.947</ele>
        <time>2020-02-08T10:59:54.359Z</time>
      </trkpt>
      <trkpt lat="39.06403833" lon="-0.23907667">
        <ele>17.947</ele>
        <time>2020-02-08T10:59:55.359Z</time>
      </trkpt>
      <trkpt lat="39.06391833" lon="-0.238955">
        <ele>17.947</ele>
        <time>2020-02-08T10:59:56.359Z</time>
      </trkpt>
      <trkpt lat="39.06391833" lon="-0.238955">
        <ele>16.947</ele>
        <time>2020-02-08T10:59:57.359Z</time>
      </trkpt>
      <trkpt lat="39.06380833" lon="-0.238825">
        <ele>16.947</ele>
        <time>2020-02-08T10:59:58.359Z</time>
      </trkpt>
      <trkpt lat="39.06376" lon="-0.23875667">
        <ele>16.947</ele>
        <time>2020-02-08T10:59:59.359Z</time>
      </trkpt>
      <trkpt lat="39.06371167" lon="-0.23869167">
        <ele>16.947</ele>
        <time>2020-02-08T11:00:00.359Z</time>
      </trkpt>
      <trkpt lat="39.06371167" lon="-0.23869167">
        <ele>16.947</ele>
        <time>2020-02-08T11:00:01.359Z</time>
      </trkpt>
      <trkpt lat="39.063615" lon="-0.23856833">
        <ele>16.947</ele>
        <time>2020-02-08T11:00:02.359Z</time>
      </trkpt>
      <trkpt lat="39.063615" lon="-0.23856833">
        <ele>16.947</ele>
        <time>2020-02-08T11:00:03.359Z</time>
      </trkpt>
      <trkpt lat="39.063525" lon="-0.23845">
        <ele>16.947</ele>
        <time>2020-02-08T11:00:04.359Z</time>
      </trkpt>
      <trkpt lat="39.063525" lon="-0.23845">
        <ele>16.947</ele>
        <time>2020-02-08T11:00:05.359Z</time>
      </trkpt>
      <trkpt lat="39.06345" lon="-0.238325">
        <ele>16.947</ele>
        <time>2020-02-08T11:00:06.359Z</time>
      </trkpt>
      <trkpt lat="39.06345" lon="-0.238325">
        <ele>16.947</ele>
        <time>2020-02-08T11:00:07.359Z</time>
      </trkpt>
      <trkpt lat="39.06341667" lon="-0.23817667">
        <ele>16.947</ele>
        <time>2020-02-08T11:00:08.359Z</time>
      </trkpt>
      <trkpt lat="39.06341667" lon="-0.23817667">
        <ele>16.947</ele>
        <time>2020-02-08T11:00:09.359Z</time>
      </trkpt>
      <trkpt lat="39.06343333" lon="-0.23801333">
        <ele>16.947</ele>
        <time>2020-02-08T11:00:10.359Z</time>
      </trkpt>
      <trkpt lat="39.06345167" lon="-0.23792833">
        <ele>16.947</ele>
        <time>2020-02-08T11:00:11.359Z</time>
      </trkpt>
      <trkpt lat="39.06345167" lon="-0.23792833">
        <ele>16.947</ele>
        <time>2020-02-08T11:00:12.359Z</time>
      </trkpt>
      <trkpt lat="39.06349" lon="-0.23775667">
        <ele>16.947</ele>
        <time>2020-02-08T11:00:13.359Z</time>
      </trkpt>
      <trkpt lat="39.06349" lon="-0.23775667">
        <ele>16.947</ele>
        <time>2020-02-08T11:00:14.359Z</time>
      </trkpt>
      <trkpt lat="39.06354" lon="-0.23757">
        <ele>16.947</ele>
        <time>2020-02-08T11:00:15.359Z</time>
      </trkpt>
      <trkpt lat="39.06354" lon="-0.23757">
        <ele>15.947</ele>
        <time>2020-02-08T11:00:16.359Z</time>
      </trkpt>
      <trkpt lat="39.06363" lon="-0.23739333">
        <ele>15.947</ele>
        <time>2020-02-08T11:00:17.359Z</time>
      </trkpt>
      <trkpt lat="39.06362" lon="-0.23728333">
        <ele>15.947</ele>
        <time>2020-02-08T11:00:18.359Z</time>
      </trkpt>
      <trkpt lat="39.06362" lon="-0.23728333">
        <ele>15.947</ele>
        <time>2020-02-08T11:00:19.359Z</time>
      </trkpt>
      <trkpt lat="39.06366667" lon="-0.23706">
        <ele>14.947</ele>
        <time>2020-02-08T11:00:20.359Z</time>
      </trkpt>
      <trkpt lat="39.06366667" lon="-0.23706">
        <ele>14.947</ele>
        <time>2020-02-08T11:00:21.359Z</time>
      </trkpt>
      <trkpt lat="39.06374167" lon="-0.23686667">
        <ele>14.947</ele>
        <time>2020-02-08T11:00:22.359Z</time>
      </trkpt>
      <trkpt lat="39.06374167" lon="-0.23686667">
        <ele>14.947</ele>
        <time>2020-02-08T11:00:23.359Z</time>
      </trkpt>
      <trkpt lat="39.063845" lon="-0.23669333">
        <ele>14.947</ele>
        <time>2020-02-08T11:00:24.359Z</time>
      </trkpt>
      <trkpt lat="39.063845" lon="-0.23669333">
        <ele>13.947</ele>
        <time>2020-02-08T11:00:25.359Z</time>
      </trkpt>
      <trkpt lat="39.06396" lon="-0.23653333">
        <ele>13.947</ele>
        <time>2020-02-08T11:00:26.359Z</time>
      </trkpt>
      <trkpt lat="39.06396" lon="-0.23653333">
        <ele>13.947</ele>
        <time>2020-02-08T11:00:27.359Z</time>
      </trkpt>
      <trkpt lat="39.06406667" lon="-0.23638833">
        <ele>13.947</ele>
        <time>2020-02-08T11:00:28.359Z</time>
      </trkpt>
      <trkpt lat="39.06406667" lon="-0.23638833">
        <ele>13.947</ele>
        <time>2020-02-08T11:00:29.359Z</time>
      </trkpt>
      <trkpt lat="39.06412333" lon="-0.23620833">
        <ele>13.947</ele>
        <time>2020-02-08T11:00:30.359Z</time>
      </trkpt>
      <trkpt lat="39.06412333" lon="-0.23620833">
        <ele>13.947</ele>
        <time>2020-02-08T11:00:31.359Z</time>
      </trkpt>
      <trkpt lat="39.064125" lon="-0.23600667">
        <ele>13.947</ele>
        <time>2020-02-08T11:00:32.359Z</time>
      </trkpt>
      <trkpt lat="39.064125" lon="-0.23600667">
        <ele>13.947</ele>
        <time>2020-02-08T11:00:33.359Z</time>
      </trkpt>
      <trkpt lat="39.06408833" lon="-0.23580833">
        <ele>13.947</ele>
        <time>2020-02-08T11:00:34.359Z</time>
      </trkpt>
      <trkpt lat="39.06408833" lon="-0.23580833">
        <ele>13.947</ele>
        <time>2020-02-08T11:00:35.359Z</time>
      </trkpt>
      <trkpt lat="39.06405667" lon="-0.23562167">
        <ele>13.947</ele>
        <time>2020-02-08T11:00:36.359Z</time>
      </trkpt>
      <trkpt lat="39.06405667" lon="-0.23562167">
        <ele>13.947</ele>
        <time>2020-02-08T11:00:37.359Z</time>
      </trkpt>
      <trkpt lat="39.06403167" lon="-0.235445">
        <ele>13.947</ele>
        <time>2020-02-08T11:00:38.359Z</time>
      </trkpt>
      <trkpt lat="39.06403167" lon="-0.235445">
        <ele>13.947</ele>
        <time>2020-02-08T11:00:39.359Z</time>
      </trkpt>
      <trkpt lat="39.06401" lon="-0.23526833">
        <ele>13.947</ele>
        <time>2020-02-08T11:00:40.359Z</time>
      </trkpt>
      <trkpt lat="39.06399333" lon="-0.23517667">
        <ele>13.947</ele>
        <time>2020-02-08T11:00:41.359Z</time>
      </trkpt>
      <trkpt lat="39.06399333" lon="-0.23517667">
        <ele>13.947</ele>
        <time>2020-02-08T11:00:42.359Z</time>
      </trkpt>
      <trkpt lat="39.06395" lon="-0.23499167">
        <ele>12.947</ele>
        <time>2020-02-08T11:00:43.359Z</time>
      </trkpt>
      <trkpt lat="39.06391833" lon="-0.23492333">
        <ele>12.947</ele>
        <time>2020-02-08T11:00:44.359Z</time>
      </trkpt>
      <trkpt lat="39.06391833" lon="-0.23492333">
        <ele>12.947</ele>
        <time>2020-02-08T11:00:45.359Z</time>
      </trkpt>
      <trkpt lat="39.06386167" lon="-0.234765">
        <ele>12.947</ele>
        <time>2020-02-08T11:00:46.359Z</time>
      </trkpt>
      <trkpt lat="39.06386167" lon="-0.234765">
        <ele>12.947</ele>
        <time>2020-02-08T11:00:47.359Z</time>
      </trkpt>
      <trkpt lat="39.06375667" lon="-0.23461667">
        <ele>12.947</ele>
        <time>2020-02-08T11:00:48.359Z</time>
      </trkpt>
      <trkpt lat="39.06375667" lon="-0.23461667">
        <ele>12.947</ele>
        <time>2020-02-08T11:00:49.359Z</time>
      </trkpt>
      <trkpt lat="39.06366833" lon="-0.23449167">
        <ele>12.947</ele>
        <time>2020-02-08T11:00:50.359Z</time>
      </trkpt>
      <trkpt lat="39.06366833" lon="-0.23449167">
        <ele>12.947</ele>
        <time>2020-02-08T11:00:51.359Z</time>
      </trkpt>
      <trkpt lat="39.063575" lon="-0.23437667">
        <ele>12.947</ele>
        <time>2020-02-08T11:00:52.359Z</time>
      </trkpt>
      <trkpt lat="39.06352667" lon="-0.23431833">
        <ele>12.947</ele>
        <time>2020-02-08T11:00:53.359Z</time>
      </trkpt>
      <trkpt lat="39.06347833" lon="-0.23426">
        <ele>12.947</ele>
        <time>2020-02-08T11:00:54.359Z</time>
      </trkpt>
      <trkpt lat="39.06347833" lon="-0.23426">
        <ele>12.947</ele>
        <time>2020-02-08T11:00:55.359Z</time>
      </trkpt>
      <trkpt lat="39.063385" lon="-0.23413667">
        <ele>12.947</ele>
        <time>2020-02-08T11:00:56.359Z</time>
      </trkpt>
      <trkpt lat="39.063385" lon="-0.23413667">
        <ele>12.947</ele>
        <time>2020-02-08T11:00:57.359Z</time>
      </trkpt>
      <trkpt lat="39.06329833" lon="-0.23400667">
        <ele>12.947</ele>
        <time>2020-02-08T11:00:58.359Z</time>
      </trkpt>
      <trkpt lat="39.06325833" lon="-0.23394167">
        <ele>12.947</ele>
        <time>2020-02-08T11:00:59.359Z</time>
      </trkpt>
      <trkpt lat="39.06325833" lon="-0.23394167">
        <ele>12.947</ele>
        <time>2020-02-08T11:01:00.359Z</time>
      </trkpt>
      <trkpt lat="39.06318" lon="-0.23380833">
        <ele>12.947</ele>
        <time>2020-02-08T11:01:01.359Z</time>
      </trkpt>
      <trkpt lat="39.06314167" lon="-0.23373667">
        <ele>11.947</ele>
        <time>2020-02-08T11:01:02.359Z</time>
      </trkpt>
      <trkpt lat="39.06314167" lon="-0.23373667">
        <ele>11.947</ele>
        <time>2020-02-08T11:01:03.359Z</time>
      </trkpt>
      <trkpt lat="39.06306333" lon="-0.23359667">
        <ele>11.947</ele>
        <time>2020-02-08T11:01:04.359Z</time>
      </trkpt>
      <trkpt lat="39.06306333" lon="-0.23359667">
        <ele>11.947</ele>
        <time>2020-02-08T11:01:05.359Z</time>
      </trkpt>
      <trkpt lat="39.06299333" lon="-0.23345333">
        <ele>11.947</ele>
        <time>2020-02-08T11:01:06.359Z</time>
      </trkpt>
      <trkpt lat="39.06299333" lon="-0.23345333">
        <ele>11.947</ele>
        <time>2020-02-08T11:01:07.359Z</time>
      </trkpt>
      <trkpt lat="39.062935" lon="-0.2333">
        <ele>11.947</ele>
        <time>2020-02-08T11:01:08.359Z</time>
      </trkpt>
      <trkpt lat="39.062935" lon="-0.2333">
        <ele>11.947</ele>
        <time>2020-02-08T11:01:09.359Z</time>
      </trkpt>
      <trkpt lat="39.06287167" lon="-0.23314667">
        <ele>11.947</ele>
        <time>2020-02-08T11:01:10.359Z</time>
      </trkpt>
      <trkpt lat="39.06285" lon="-0.23306833">
        <ele>11.947</ele>
        <time>2020-02-08T11:01:11.359Z</time>
      </trkpt>
      <trkpt lat="39.06285" lon="-0.23306833">
        <ele>11.947</ele>
        <time>2020-02-08T11:01:12.359Z</time>
      </trkpt>
      <trkpt lat="39.06284833" lon="-0.23291167">
        <ele>11.947</ele>
        <time>2020-02-08T11:01:13.359Z</time>
      </trkpt>
      <trkpt lat="39.06288167" lon="-0.23284167">
        <ele>11.947</ele>
        <time>2020-02-08T11:01:14.359Z</time>
      </trkpt>
      <trkpt lat="39.06288167" lon="-0.23284167">
        <ele>11.947</ele>
        <time>2020-02-08T11:01:15.359Z</time>
      </trkpt>
      <trkpt lat="39.06296667" lon="-0.23275">
        <ele>11.947</ele>
        <time>2020-02-08T11:01:16.359Z</time>
      </trkpt>
      <trkpt lat="39.06301333" lon="-0.23273">
        <ele>11.947</ele>
        <time>2020-02-08T11:01:17.359Z</time>
      </trkpt>
      <trkpt lat="39.06306167" lon="-0.23271333">
        <ele>12.947</ele>
        <time>2020-02-08T11:01:18.359Z</time>
      </trkpt>
      <trkpt lat="39.06306167" lon="-0.23271333">
        <ele>12.947</ele>
        <time>2020-02-08T11:01:19.359Z</time>
      </trkpt>
      <trkpt lat="39.063125" lon="-0.23263333">
        <ele>12.947</ele>
        <time>2020-02-08T11:01:20.359Z</time>
      </trkpt>
      <trkpt lat="39.063125" lon="-0.23263333">
        <ele>12.947</ele>
        <time>2020-02-08T11:01:21.359Z</time>
      </trkpt>
      <trkpt lat="39.06312833" lon="-0.232495">
        <ele>12.947</ele>
        <time>2020-02-08T11:01:22.359Z</time>
      </trkpt>
      <trkpt lat="39.06312667" lon="-0.232425">
        <ele>12.947</ele>
        <time>2020-02-08T11:01:23.359Z</time>
      </trkpt>
      <trkpt lat="39.06313" lon="-0.23236167">
        <ele>12.947</ele>
        <time>2020-02-08T11:01:24.359Z</time>
      </trkpt>
      <trkpt lat="39.06313" lon="-0.23236167">
        <ele>12.947</ele>
        <time>2020-02-08T11:01:25.359Z</time>
      </trkpt>
      <trkpt lat="39.06312" lon="-0.23225833">
        <ele>12.947</ele>
        <time>2020-02-08T11:01:26.359Z</time>
      </trkpt>
      <trkpt lat="39.06312" lon="-0.23225833">
        <ele>12.947</ele>
        <time>2020-02-08T11:01:27.359Z</time>
      </trkpt>
      <trkpt lat="39.06307167" lon="-0.232155">
        <ele>12.947</ele>
        <time>2020-02-08T11:01:28.359Z</time>
      </trkpt>
      <trkpt lat="39.06307167" lon="-0.232155">
        <ele>12.947</ele>
        <time>2020-02-08T11:01:29.359Z</time>
      </trkpt>
      <trkpt lat="39.062985" lon="-0.23203">
        <ele>12.947</ele>
        <time>2020-02-08T11:01:30.359Z</time>
      </trkpt>
      <trkpt lat="39.062985" lon="-0.23203">
        <ele>12.947</ele>
        <time>2020-02-08T11:01:31.359Z</time>
      </trkpt>
      <trkpt lat="39.06290167" lon="-0.23189833">
        <ele>12.947</ele>
        <time>2020-02-08T11:01:32.359Z</time>
      </trkpt>
      <trkpt lat="39.06286" lon="-0.23183167">
        <ele>11.947</ele>
        <time>2020-02-08T11:01:33.359Z</time>
      </trkpt>
      <trkpt lat="39.06286" lon="-0.23183167">
        <ele>11.947</ele>
        <time>2020-02-08T11:01:34.359Z</time>
      </trkpt>
      <trkpt lat="39.06278167" lon="-0.2317">
        <ele>11.947</ele>
        <time>2020-02-08T11:01:35.359Z</time>
      </trkpt>
      <trkpt lat="39.06278167" lon="-0.2317">
        <ele>11.947</ele>
        <time>2020-02-08T11:01:36.359Z</time>
      </trkpt>
      <trkpt lat="39.06270167" lon="-0.231565">
        <ele>10.947</ele>
        <time>2020-02-08T11:01:37.359Z</time>
      </trkpt>
      <trkpt lat="39.06266" lon="-0.23149833">
        <ele>10.947</ele>
        <time>2020-02-08T11:01:38.359Z</time>
      </trkpt>
      <trkpt lat="39.06266" lon="-0.23149833">
        <ele>10.947</ele>
        <time>2020-02-08T11:01:39.359Z</time>
      </trkpt>
      <trkpt lat="39.06257833" lon="-0.231365">
        <ele>10.947</ele>
        <time>2020-02-08T11:01:40.359Z</time>
      </trkpt>
      <trkpt lat="39.06257833" lon="-0.231365">
        <ele>10.947</ele>
        <time>2020-02-08T11:01:41.359Z</time>
      </trkpt>
      <trkpt lat="39.06249833" lon="-0.23123167">
        <ele>10.947</ele>
        <time>2020-02-08T11:01:42.359Z</time>
      </trkpt>
      <trkpt lat="39.06245667" lon="-0.23116667">
        <ele>10.947</ele>
        <time>2020-02-08T11:01:43.359Z</time>
      </trkpt>
      <trkpt lat="39.062415" lon="-0.231105">
        <ele>10.947</ele>
        <time>2020-02-08T11:01:44.359Z</time>
      </trkpt>
      <trkpt lat="39.062415" lon="-0.231105">
        <ele>10.947</ele>
        <time>2020-02-08T11:01:45.359Z</time>
      </trkpt>
      <trkpt lat="39.06233" lon="-0.230985">
        <ele>10.947</ele>
        <time>2020-02-08T11:01:46.359Z</time>
      </trkpt>
      <trkpt lat="39.06233" lon="-0.230985">
        <ele>10.947</ele>
        <time>2020-02-08T11:01:47.359Z</time>
      </trkpt>
      <trkpt lat="39.06226167" lon="-0.23085167">
        <ele>10.947</ele>
        <time>2020-02-08T11:01:48.359Z</time>
      </trkpt>
      <trkpt lat="39.06226167" lon="-0.23085167">
        <ele>10.947</ele>
        <time>2020-02-08T11:01:49.359Z</time>
      </trkpt>
      <trkpt lat="39.0622" lon="-0.23070833">
        <ele>10.947</ele>
        <time>2020-02-08T11:01:50.359Z</time>
      </trkpt>
      <trkpt lat="39.0622" lon="-0.23070833">
        <ele>10.947</ele>
        <time>2020-02-08T11:01:51.359Z</time>
      </trkpt>
      <trkpt lat="39.06213667" lon="-0.23056333">
        <ele>10.947</ele>
        <time>2020-02-08T11:01:52.359Z</time>
      </trkpt>
      <trkpt lat="39.06213667" lon="-0.23056333">
        <ele>10.947</ele>
        <time>2020-02-08T11:01:53.359Z</time>
      </trkpt>
      <trkpt lat="39.062075" lon="-0.230415">
        <ele>10.947</ele>
        <time>2020-02-08T11:01:54.359Z</time>
      </trkpt>
      <trkpt lat="39.062075" lon="-0.230415">
        <ele>10.947</ele>
        <time>2020-02-08T11:01:55.359Z</time>
      </trkpt>
      <trkpt lat="39.06201167" lon="-0.23026333">
        <ele>10.947</ele>
        <time>2020-02-08T11:01:56.359Z</time>
      </trkpt>
      <trkpt lat="39.06197833" lon="-0.230185">
        <ele>10.947</ele>
        <time>2020-02-08T11:01:57.359Z</time>
      </trkpt>
      <trkpt lat="39.06197833" lon="-0.230185">
        <ele>10.947</ele>
        <time>2020-02-08T11:01:58.359Z</time>
      </trkpt>
      <trkpt lat="39.06191833" lon="-0.230025">
        <ele>10.947</ele>
        <time>2020-02-08T11:01:59.359Z</time>
      </trkpt>
      <trkpt lat="39.06189333" lon="-0.229945">
        <ele>10.947</ele>
        <time>2020-02-08T11:02:00.359Z</time>
      </trkpt>
      <trkpt lat="39.06189333" lon="-0.229945">
        <ele>10.947</ele>
        <time>2020-02-08T11:02:01.359Z</time>
      </trkpt>
      <trkpt lat="39.06185833" lon="-0.22978167">
        <ele>10.947</ele>
        <time>2020-02-08T11:02:02.359Z</time>
      </trkpt>
      <trkpt lat="39.06185833" lon="-0.22978167">
        <ele>10.947</ele>
        <time>2020-02-08T11:02:03.359Z</time>
      </trkpt>
      <trkpt lat="39.06183333" lon="-0.22960833">
        <ele>10.947</ele>
        <time>2020-02-08T11:02:04.359Z</time>
      </trkpt>
      <trkpt lat="39.06183333" lon="-0.22960833">
        <ele>10.947</ele>
        <time>2020-02-08T11:02:05.359Z</time>
      </trkpt>
      <trkpt lat="39.061815" lon="-0.22943167">
        <ele>10.947</ele>
        <time>2020-02-08T11:02:06.359Z</time>
      </trkpt>
      <trkpt lat="39.061815" lon="-0.22943167">
        <ele>10.947</ele>
        <time>2020-02-08T11:02:07.359Z</time>
      </trkpt>
      <trkpt lat="39.0618" lon="-0.22925333">
        <ele>10.947</ele>
        <time>2020-02-08T11:02:08.359Z</time>
      </trkpt>
      <trkpt lat="39.0618" lon="-0.22925333">
        <ele>10.947</ele>
        <time>2020-02-08T11:02:09.359Z</time>
      </trkpt>
      <trkpt lat="39.06178833" lon="-0.22908167">
        <ele>10.947</ele>
        <time>2020-02-08T11:02:10.359Z</time>
      </trkpt>
      <trkpt lat="39.06178333" lon="-0.228995">
        <ele>10.947</ele>
        <time>2020-02-08T11:02:11.359Z</time>
      </trkpt>
      <trkpt lat="39.06178333" lon="-0.228995">
        <ele>10.947</ele>
        <time>2020-02-08T11:02:12.359Z</time>
      </trkpt>
      <trkpt lat="39.06177833" lon="-0.228825">
        <ele>10.947</ele>
        <time>2020-02-08T11:02:13.359Z</time>
      </trkpt>
      <trkpt lat="39.06177333" lon="-0.22874167">
        <ele>10.947</ele>
        <time>2020-02-08T11:02:14.359Z</time>
      </trkpt>
      <trkpt lat="39.06177333" lon="-0.22874167">
        <ele>10.947</ele>
        <time>2020-02-08T11:02:15.359Z</time>
      </trkpt>
      <trkpt lat="39.061765" lon="-0.228575">
        <ele>10.947</ele>
        <time>2020-02-08T11:02:16.359Z</time>
      </trkpt>
      <trkpt lat="39.06175667" lon="-0.22849333">
        <ele>10.947</ele>
        <time>2020-02-08T11:02:17.359Z</time>
      </trkpt>
      <trkpt lat="39.06175667" lon="-0.22849333">
        <ele>10.947</ele>
        <time>2020-02-08T11:02:18.359Z</time>
      </trkpt>
      <trkpt lat="39.06173167" lon="-0.22833167">
        <ele>10.947</ele>
        <time>2020-02-08T11:02:19.359Z</time>
      </trkpt>
      <trkpt lat="39.06171833" lon="-0.22825167">
        <ele>9.947</ele>
        <time>2020-02-08T11:02:20.359Z</time>
      </trkpt>
      <trkpt lat="39.06171833" lon="-0.22825167">
        <ele>9.947</ele>
        <time>2020-02-08T11:02:21.359Z</time>
      </trkpt>
      <trkpt lat="39.06169333" lon="-0.22809">
        <ele>9.947</ele>
        <time>2020-02-08T11:02:22.359Z</time>
      </trkpt>
      <trkpt lat="39.06168167" lon="-0.22800833">
        <ele>9.947</ele>
        <time>2020-02-08T11:02:23.359Z</time>
      </trkpt>
      <trkpt lat="39.06167" lon="-0.227925">
        <ele>9.947</ele>
        <time>2020-02-08T11:02:24.359Z</time>
      </trkpt>
      <trkpt lat="39.06167" lon="-0.227925">
        <ele>9.947</ele>
        <time>2020-02-08T11:02:25.359Z</time>
      </trkpt>
      <trkpt lat="39.06164667" lon="-0.22775333">
        <ele>9.947</ele>
        <time>2020-02-08T11:02:26.359Z</time>
      </trkpt>
      <trkpt lat="39.06163667" lon="-0.22766667">
        <ele>9.947</ele>
        <time>2020-02-08T11:02:27.359Z</time>
      </trkpt>
      <trkpt lat="39.06163667" lon="-0.22766667">
        <ele>9.947</ele>
        <time>2020-02-08T11:02:28.359Z</time>
      </trkpt>
      <trkpt lat="39.06162" lon="-0.22749333">
        <ele>9.947</ele>
        <time>2020-02-08T11:02:29.359Z</time>
      </trkpt>
      <trkpt lat="39.06162" lon="-0.22749333">
        <ele>9.947</ele>
        <time>2020-02-08T11:02:30.359Z</time>
      </trkpt>
      <trkpt lat="39.06160667" lon="-0.22731333">
        <ele>9.947</ele>
        <time>2020-02-08T11:02:31.359Z</time>
      </trkpt>
      <trkpt lat="39.06160333" lon="-0.22722">
        <ele>9.947</ele>
        <time>2020-02-08T11:02:32.359Z</time>
      </trkpt>
      <trkpt lat="39.06160333" lon="-0.22722">
        <ele>9.947</ele>
        <time>2020-02-08T11:02:33.359Z</time>
      </trkpt>
      <trkpt lat="39.06159" lon="-0.22703833">
        <ele>9.947</ele>
        <time>2020-02-08T11:02:34.359Z</time>
      </trkpt>
      <trkpt lat="39.06158333" lon="-0.22695">
        <ele>9.947</ele>
        <time>2020-02-08T11:02:35.359Z</time>
      </trkpt>
      <trkpt lat="39.06157667" lon="-0.22686167">
        <ele>9.947</ele>
        <time>2020-02-08T11:02:36.359Z</time>
      </trkpt>
      <trkpt lat="39.06157667" lon="-0.22686167">
        <ele>9.947</ele>
        <time>2020-02-08T11:02:37.359Z</time>
      </trkpt>
      <trkpt lat="39.06156333" lon="-0.22668667">
        <ele>9.947</ele>
        <time>2020-02-08T11:02:38.359Z</time>
      </trkpt>
      <trkpt lat="39.06156333" lon="-0.22668667">
        <ele>9.947</ele>
        <time>2020-02-08T11:02:39.359Z</time>
      </trkpt>
      <trkpt lat="39.06154667" lon="-0.22651">
        <ele>9.947</ele>
        <time>2020-02-08T11:02:40.359Z</time>
      </trkpt>
      <trkpt lat="39.061535" lon="-0.22642">
        <ele>9.947</ele>
        <time>2020-02-08T11:02:41.359Z</time>
      </trkpt>
      <trkpt lat="39.06152333" lon="-0.22633167">
        <ele>9.947</ele>
        <time>2020-02-08T11:02:42.359Z</time>
      </trkpt>
      <trkpt lat="39.06152333" lon="-0.22633167">
        <ele>9.947</ele>
        <time>2020-02-08T11:02:43.359Z</time>
      </trkpt>
      <trkpt lat="39.061495" lon="-0.22615833">
        <ele>9.947</ele>
        <time>2020-02-08T11:02:44.359Z</time>
      </trkpt>
      <trkpt lat="39.061495" lon="-0.22615833">
        <ele>9.947</ele>
        <time>2020-02-08T11:02:45.359Z</time>
      </trkpt>
      <trkpt lat="39.06148" lon="-0.22598333">
        <ele>9.947</ele>
        <time>2020-02-08T11:02:46.359Z</time>
      </trkpt>
      <trkpt lat="39.06148" lon="-0.22598333">
        <ele>9.947</ele>
        <time>2020-02-08T11:02:47.359Z</time>
      </trkpt>
      <trkpt lat="39.06146833" lon="-0.225805">
        <ele>9.947</ele>
        <time>2020-02-08T11:02:48.359Z</time>
      </trkpt>
      <trkpt lat="39.06145833" lon="-0.225715">
        <ele>9.947</ele>
        <time>2020-02-08T11:02:49.359Z</time>
      </trkpt>
      <trkpt lat="39.06145833" lon="-0.225715">
        <ele>9.947</ele>
        <time>2020-02-08T11:02:50.359Z</time>
      </trkpt>
      <trkpt lat="39.06144" lon="-0.22554333">
        <ele>9.947</ele>
        <time>2020-02-08T11:02:51.359Z</time>
      </trkpt>
      <trkpt lat="39.06142833" lon="-0.22545833">
        <ele>9.947</ele>
        <time>2020-02-08T11:02:52.359Z</time>
      </trkpt>
      <trkpt lat="39.06142833" lon="-0.22545833">
        <ele>9.947</ele>
        <time>2020-02-08T11:02:53.359Z</time>
      </trkpt>
      <trkpt lat="39.06141" lon="-0.22529333">
        <ele>9.947</ele>
        <time>2020-02-08T11:02:54.359Z</time>
      </trkpt>
      <trkpt lat="39.06141" lon="-0.22529333">
        <ele>9.947</ele>
        <time>2020-02-08T11:02:55.359Z</time>
      </trkpt>
      <trkpt lat="39.06138833" lon="-0.22512167">
        <ele>9.947</ele>
        <time>2020-02-08T11:02:56.359Z</time>
      </trkpt>
      <trkpt lat="39.06138833" lon="-0.22512167">
        <ele>9.947</ele>
        <time>2020-02-08T11:02:57.359Z</time>
      </trkpt>
      <trkpt lat="39.06136833" lon="-0.22494833">
        <ele>9.947</ele>
        <time>2020-02-08T11:02:58.359Z</time>
      </trkpt>
      <trkpt lat="39.06136833" lon="-0.22494833">
        <ele>9.947</ele>
        <time>2020-02-08T11:02:59.359Z</time>
      </trkpt>
      <trkpt lat="39.061355" lon="-0.22477">
        <ele>9.947</ele>
        <time>2020-02-08T11:03:00.359Z</time>
      </trkpt>
      <trkpt lat="39.061355" lon="-0.22477">
        <ele>9.947</ele>
        <time>2020-02-08T11:03:01.359Z</time>
      </trkpt>
      <trkpt lat="39.061335" lon="-0.22459">
        <ele>9.947</ele>
        <time>2020-02-08T11:03:02.359Z</time>
      </trkpt>
      <trkpt lat="39.061335" lon="-0.22459">
        <ele>9.947</ele>
        <time>2020-02-08T11:03:03.359Z</time>
      </trkpt>
      <trkpt lat="39.061315" lon="-0.22440667">
        <ele>9.947</ele>
        <time>2020-02-08T11:03:04.359Z</time>
      </trkpt>
      <trkpt lat="39.06130667" lon="-0.224315">
        <ele>9.947</ele>
        <time>2020-02-08T11:03:05.359Z</time>
      </trkpt>
      <trkpt lat="39.06129667" lon="-0.22422333">
        <ele>9.947</ele>
        <time>2020-02-08T11:03:06.359Z</time>
      </trkpt>
      <trkpt lat="39.06129667" lon="-0.22422333">
        <ele>9.947</ele>
        <time>2020-02-08T11:03:07.359Z</time>
      </trkpt>
      <trkpt lat="39.06127667" lon="-0.22404167">
        <ele>9.947</ele>
        <time>2020-02-08T11:03:08.359Z</time>
      </trkpt>
      <trkpt lat="39.06127667" lon="-0.22404167">
        <ele>9.947</ele>
        <time>2020-02-08T11:03:09.359Z</time>
      </trkpt>
      <trkpt lat="39.06126" lon="-0.22386167">
        <ele>9.947</ele>
        <time>2020-02-08T11:03:10.359Z</time>
      </trkpt>
      <trkpt lat="39.06126" lon="-0.22386167">
        <ele>9.947</ele>
        <time>2020-02-08T11:03:11.359Z</time>
      </trkpt>
      <trkpt lat="39.061245" lon="-0.22368167">
        <ele>9.947</ele>
        <time>2020-02-08T11:03:12.359Z</time>
      </trkpt>
      <trkpt lat="39.061245" lon="-0.22368167">
        <ele>9.947</ele>
        <time>2020-02-08T11:03:13.359Z</time>
      </trkpt>
      <trkpt lat="39.06122667" lon="-0.22350167">
        <ele>9.947</ele>
        <time>2020-02-08T11:03:14.359Z</time>
      </trkpt>
      <trkpt lat="39.06122667" lon="-0.22350167">
        <ele>9.947</ele>
        <time>2020-02-08T11:03:15.359Z</time>
      </trkpt>
      <trkpt lat="39.06120667" lon="-0.22332167">
        <ele>9.947</ele>
        <time>2020-02-08T11:03:16.359Z</time>
      </trkpt>
      <trkpt lat="39.06120667" lon="-0.22332167">
        <ele>9.947</ele>
        <time>2020-02-08T11:03:17.359Z</time>
      </trkpt>
      <trkpt lat="39.06118167" lon="-0.22314">
        <ele>9.947</ele>
        <time>2020-02-08T11:03:18.359Z</time>
      </trkpt>
      <trkpt lat="39.06117" lon="-0.22304833">
        <ele>9.947</ele>
        <time>2020-02-08T11:03:19.359Z</time>
      </trkpt>
      <trkpt lat="39.06115833" lon="-0.22295833">
        <ele>9.947</ele>
        <time>2020-02-08T11:03:20.359Z</time>
      </trkpt>
      <trkpt lat="39.06115833" lon="-0.22295833">
        <ele>9.947</ele>
        <time>2020-02-08T11:03:21.359Z</time>
      </trkpt>
      <trkpt lat="39.06113833" lon="-0.222775">
        <ele>9.947</ele>
        <time>2020-02-08T11:03:22.359Z</time>
      </trkpt>
      <trkpt lat="39.06113833" lon="-0.222775">
        <ele>9.947</ele>
        <time>2020-02-08T11:03:23.359Z</time>
      </trkpt>
      <trkpt lat="39.06111667" lon="-0.22259167">
        <ele>9.947</ele>
        <time>2020-02-08T11:03:24.359Z</time>
      </trkpt>
      <trkpt lat="39.06111667" lon="-0.22259167">
        <ele>9.947</ele>
        <time>2020-02-08T11:03:25.359Z</time>
      </trkpt>
      <trkpt lat="39.06109167" lon="-0.22241167">
        <ele>9.947</ele>
        <time>2020-02-08T11:03:26.359Z</time>
      </trkpt>
      <trkpt lat="39.06108167" lon="-0.22232167">
        <ele>9.947</ele>
        <time>2020-02-08T11:03:27.359Z</time>
      </trkpt>
      <trkpt lat="39.06108167" lon="-0.22232167">
        <ele>9.947</ele>
        <time>2020-02-08T11:03:28.359Z</time>
      </trkpt>
      <trkpt lat="39.06106667" lon="-0.22214333">
        <ele>9.947</ele>
        <time>2020-02-08T11:03:29.359Z</time>
      </trkpt>
      <trkpt lat="39.06105667" lon="-0.22205333">
        <ele>9.947</ele>
        <time>2020-02-08T11:03:30.359Z</time>
      </trkpt>
      <trkpt lat="39.06105667" lon="-0.22205333">
        <ele>9.947</ele>
        <time>2020-02-08T11:03:31.359Z</time>
      </trkpt>
      <trkpt lat="39.06103" lon="-0.221875">
        <ele>9.947</ele>
        <time>2020-02-08T11:03:32.359Z</time>
      </trkpt>
      <trkpt lat="39.06103" lon="-0.221875">
        <ele>9.947</ele>
        <time>2020-02-08T11:03:33.359Z</time>
      </trkpt>
      <trkpt lat="39.06101" lon="-0.221695">
        <ele>9.947</ele>
        <time>2020-02-08T11:03:34.359Z</time>
      </trkpt>
      <trkpt lat="39.06101" lon="-0.221695">
        <ele>9.947</ele>
        <time>2020-02-08T11:03:35.359Z</time>
      </trkpt>
      <trkpt lat="39.06099167" lon="-0.22151667">
        <ele>9.947</ele>
        <time>2020-02-08T11:03:36.359Z</time>
      </trkpt>
      <trkpt lat="39.06099167" lon="-0.22151667">
        <ele>9.947</ele>
        <time>2020-02-08T11:03:37.359Z</time>
      </trkpt>
      <trkpt lat="39.06097667" lon="-0.22133667">
        <ele>9.947</ele>
        <time>2020-02-08T11:03:38.359Z</time>
      </trkpt>
      <trkpt lat="39.06097667" lon="-0.22133667">
        <ele>9.947</ele>
        <time>2020-02-08T11:03:39.359Z</time>
      </trkpt>
      <trkpt lat="39.06095833" lon="-0.22116">
        <ele>9.947</ele>
        <time>2020-02-08T11:03:40.359Z</time>
      </trkpt>
      <trkpt lat="39.06095833" lon="-0.22116">
        <ele>9.947</ele>
        <time>2020-02-08T11:03:41.359Z</time>
      </trkpt>
      <trkpt lat="39.06094167" lon="-0.22098333">
        <ele>9.947</ele>
        <time>2020-02-08T11:03:42.359Z</time>
      </trkpt>
      <trkpt lat="39.060935" lon="-0.220895">
        <ele>9.947</ele>
        <time>2020-02-08T11:03:43.359Z</time>
      </trkpt>
      <trkpt lat="39.060935" lon="-0.220895">
        <ele>9.947</ele>
        <time>2020-02-08T11:03:44.359Z</time>
      </trkpt>
      <trkpt lat="39.06092" lon="-0.22071333">
        <ele>9.947</ele>
        <time>2020-02-08T11:03:45.359Z</time>
      </trkpt>
      <trkpt lat="39.06092" lon="-0.22071333">
        <ele>9.947</ele>
        <time>2020-02-08T11:03:46.359Z</time>
      </trkpt>
      <trkpt lat="39.060905" lon="-0.22053">
        <ele>9.947</ele>
        <time>2020-02-08T11:03:47.359Z</time>
      </trkpt>
      <trkpt lat="39.0609" lon="-0.22043833">
        <ele>9.947</ele>
        <time>2020-02-08T11:03:48.359Z</time>
      </trkpt>
      <trkpt lat="39.0609" lon="-0.22043833">
        <ele>9.947</ele>
        <time>2020-02-08T11:03:49.359Z</time>
      </trkpt>
      <trkpt lat="39.06088333" lon="-0.22025667">
        <ele>9.947</ele>
        <time>2020-02-08T11:03:50.359Z</time>
      </trkpt>
      <trkpt lat="39.060875" lon="-0.220165">
        <ele>9.947</ele>
        <time>2020-02-08T11:03:51.359Z</time>
      </trkpt>
      <trkpt lat="39.060875" lon="-0.220165">
        <ele>9.947</ele>
        <time>2020-02-08T11:03:52.359Z</time>
      </trkpt>
      <trkpt lat="39.06085833" lon="-0.219985">
        <ele>9.947</ele>
        <time>2020-02-08T11:03:53.359Z</time>
      </trkpt>
      <trkpt lat="39.06085" lon="-0.219895">
        <ele>9.947</ele>
        <time>2020-02-08T11:03:54.359Z</time>
      </trkpt>
      <trkpt lat="39.06085" lon="-0.219895">
        <ele>9.947</ele>
        <time>2020-02-08T11:03:55.359Z</time>
      </trkpt>
      <trkpt lat="39.060835" lon="-0.21971833">
        <ele>9.947</ele>
        <time>2020-02-08T11:03:56.359Z</time>
      </trkpt>
      <trkpt lat="39.060835" lon="-0.21971833">
        <ele>9.947</ele>
        <time>2020-02-08T11:03:57.359Z</time>
      </trkpt>
      <trkpt lat="39.06082" lon="-0.21954333">
        <ele>9.947</ele>
        <time>2020-02-08T11:03:58.359Z</time>
      </trkpt>
      <trkpt lat="39.06081333" lon="-0.21945667">
        <ele>9.947</ele>
        <time>2020-02-08T11:03:59.359Z</time>
      </trkpt>
      <trkpt lat="39.06081333" lon="-0.21945667">
        <ele>9.947</ele>
        <time>2020-02-08T11:04:00.359Z</time>
      </trkpt>
      <trkpt lat="39.06080167" lon="-0.219285">
        <ele>9.947</ele>
        <time>2020-02-08T11:04:01.359Z</time>
      </trkpt>
      <trkpt lat="39.06079833" lon="-0.21919833">
        <ele>9.947</ele>
        <time>2020-02-08T11:04:02.359Z</time>
      </trkpt>
      <trkpt lat="39.06079833" lon="-0.21919833">
        <ele>9.947</ele>
        <time>2020-02-08T11:04:03.359Z</time>
      </trkpt>
      <trkpt lat="39.06078667" lon="-0.219025">
        <ele>9.947</ele>
        <time>2020-02-08T11:04:04.359Z</time>
      </trkpt>
      <trkpt lat="39.06078667" lon="-0.219025">
        <ele>9.947</ele>
        <time>2020-02-08T11:04:05.359Z</time>
      </trkpt>
      <trkpt lat="39.06077" lon="-0.21885833">
        <ele>10.947</ele>
        <time>2020-02-08T11:04:06.359Z</time>
      </trkpt>
      <trkpt lat="39.06077" lon="-0.21885833">
        <ele>10.947</ele>
        <time>2020-02-08T11:04:07.359Z</time>
      </trkpt>
      <trkpt lat="39.06075667" lon="-0.21870833">
        <ele>10.947</ele>
        <time>2020-02-08T11:04:08.359Z</time>
      </trkpt>
      <trkpt lat="39.06075667" lon="-0.21870833">
        <ele>10.947</ele>
        <time>2020-02-08T11:04:09.359Z</time>
      </trkpt>
      <trkpt lat="39.060745" lon="-0.21857667">
        <ele>10.947</ele>
        <time>2020-02-08T11:04:10.359Z</time>
      </trkpt>
      <trkpt lat="39.060745" lon="-0.21857667">
        <ele>10.947</ele>
        <time>2020-02-08T11:04:11.359Z</time>
      </trkpt>
      <trkpt lat="39.06073833" lon="-0.21846">
        <ele>10.947</ele>
        <time>2020-02-08T11:04:12.359Z</time>
      </trkpt>
      <trkpt lat="39.06073833" lon="-0.21846">
        <ele>10.947</ele>
        <time>2020-02-08T11:04:13.359Z</time>
      </trkpt>
      <trkpt lat="39.060735" lon="-0.21835833">
        <ele>10.947</ele>
        <time>2020-02-08T11:04:14.359Z</time>
      </trkpt>
      <trkpt lat="39.06070833" lon="-0.21833">
        <ele>10.947</ele>
        <time>2020-02-08T11:04:15.359Z</time>
      </trkpt>
      <trkpt lat="39.06070833" lon="-0.21833">
        <ele>10.947</ele>
        <time>2020-02-08T11:04:16.359Z</time>
      </trkpt>
      <trkpt lat="39.06063167" lon="-0.21831333">
        <ele>10.947</ele>
        <time>2020-02-08T11:04:17.359Z</time>
      </trkpt>
      <trkpt lat="39.06063167" lon="-0.21831333">
        <ele>10.947</ele>
        <time>2020-02-08T11:04:18.359Z</time>
      </trkpt>
      <trkpt lat="39.06057167" lon="-0.21824167">
        <ele>10.947</ele>
        <time>2020-02-08T11:04:19.359Z</time>
      </trkpt>
      <trkpt lat="39.06055" lon="-0.21818167">
        <ele>10.947</ele>
        <time>2020-02-08T11:04:20.359Z</time>
      </trkpt>
      <trkpt lat="39.06053167" lon="-0.21811667">
        <ele>10.947</ele>
        <time>2020-02-08T11:04:21.359Z</time>
      </trkpt>
      <trkpt lat="39.06052" lon="-0.21804833">
        <ele>10.947</ele>
        <time>2020-02-08T11:04:22.359Z</time>
      </trkpt>
      <trkpt lat="39.06052" lon="-0.21804833">
        <ele>10.947</ele>
        <time>2020-02-08T11:04:23.359Z</time>
      </trkpt>
      <trkpt lat="39.06047333" lon="-0.21791">
        <ele>10.947</ele>
        <time>2020-02-08T11:04:24.359Z</time>
      </trkpt>
      <trkpt lat="39.06047333" lon="-0.21791">
        <ele>10.947</ele>
        <time>2020-02-08T11:04:25.359Z</time>
      </trkpt>
      <trkpt lat="39.06040833" lon="-0.21779">
        <ele>10.947</ele>
        <time>2020-02-08T11:04:26.359Z</time>
      </trkpt>
      <trkpt lat="39.06040833" lon="-0.21779">
        <ele>10.947</ele>
        <time>2020-02-08T11:04:27.359Z</time>
      </trkpt>
      <trkpt lat="39.06033667" lon="-0.21768333">
        <ele>10.947</ele>
        <time>2020-02-08T11:04:28.359Z</time>
      </trkpt>
      <trkpt lat="39.06033667" lon="-0.21768333">
        <ele>10.947</ele>
        <time>2020-02-08T11:04:29.359Z</time>
      </trkpt>
      <trkpt lat="39.06025667" lon="-0.21758">
        <ele>10.947</ele>
        <time>2020-02-08T11:04:30.359Z</time>
      </trkpt>
      <trkpt lat="39.06025667" lon="-0.21758">
        <ele>10.947</ele>
        <time>2020-02-08T11:04:31.359Z</time>
      </trkpt>
      <trkpt lat="39.06018" lon="-0.21748">
        <ele>10.947</ele>
        <time>2020-02-08T11:04:32.359Z</time>
      </trkpt>
      <trkpt lat="39.06018" lon="-0.21748">
        <ele>10.947</ele>
        <time>2020-02-08T11:04:33.359Z</time>
      </trkpt>
      <trkpt lat="39.06010167" lon="-0.21739">
        <ele>10.947</ele>
        <time>2020-02-08T11:04:34.359Z</time>
      </trkpt>
      <trkpt lat="39.06010167" lon="-0.21739">
        <ele>10.947</ele>
        <time>2020-02-08T11:04:35.359Z</time>
      </trkpt>
      <trkpt lat="39.06002333" lon="-0.21729667">
        <ele>10.947</ele>
        <time>2020-02-08T11:04:36.359Z</time>
      </trkpt>
      <trkpt lat="39.06002333" lon="-0.21729667">
        <ele>10.947</ele>
        <time>2020-02-08T11:04:37.359Z</time>
      </trkpt>
      <trkpt lat="39.05994333" lon="-0.217205">
        <ele>10.947</ele>
        <time>2020-02-08T11:04:38.359Z</time>
      </trkpt>
      <trkpt lat="39.05990833" lon="-0.21715833">
        <ele>10.947</ele>
        <time>2020-02-08T11:04:39.359Z</time>
      </trkpt>
      <trkpt lat="39.05990833" lon="-0.21715833">
        <ele>10.947</ele>
        <time>2020-02-08T11:04:40.359Z</time>
      </trkpt>
      <trkpt lat="39.05983333" lon="-0.21706667">
        <ele>10.947</ele>
        <time>2020-02-08T11:04:41.359Z</time>
      </trkpt>
      <trkpt lat="39.05983333" lon="-0.21706667">
        <ele>10.947</ele>
        <time>2020-02-08T11:04:42.359Z</time>
      </trkpt>
      <trkpt lat="39.05974333" lon="-0.21698">
        <ele>10.947</ele>
        <time>2020-02-08T11:04:43.359Z</time>
      </trkpt>
      <trkpt lat="39.05974333" lon="-0.21698">
        <ele>10.947</ele>
        <time>2020-02-08T11:04:44.359Z</time>
      </trkpt>
      <trkpt lat="39.05965" lon="-0.21690667">
        <ele>10.947</ele>
        <time>2020-02-08T11:04:45.359Z</time>
      </trkpt>
      <trkpt lat="39.05965" lon="-0.21690667">
        <ele>10.947</ele>
        <time>2020-02-08T11:04:46.359Z</time>
      </trkpt>
      <trkpt lat="39.05955667" lon="-0.21683167">
        <ele>10.947</ele>
        <time>2020-02-08T11:04:47.359Z</time>
      </trkpt>
      <trkpt lat="39.05950833" lon="-0.21679333">
        <ele>10.947</ele>
        <time>2020-02-08T11:04:48.359Z</time>
      </trkpt>
      <trkpt lat="39.05950833" lon="-0.21679333">
        <ele>10.947</ele>
        <time>2020-02-08T11:04:49.359Z</time>
      </trkpt>
      <trkpt lat="39.05941833" lon="-0.21671667">
        <ele>10.947</ele>
        <time>2020-02-08T11:04:50.359Z</time>
      </trkpt>
      <trkpt lat="39.05941833" lon="-0.21671667">
        <ele>10.947</ele>
        <time>2020-02-08T11:04:51.359Z</time>
      </trkpt>
      <trkpt lat="39.05931667" lon="-0.21664833">
        <ele>10.947</ele>
        <time>2020-02-08T11:04:52.359Z</time>
      </trkpt>
      <trkpt lat="39.05926667" lon="-0.216615">
        <ele>10.947</ele>
        <time>2020-02-08T11:04:53.359Z</time>
      </trkpt>
      <trkpt lat="39.05921833" lon="-0.21658167">
        <ele>10.947</ele>
        <time>2020-02-08T11:04:54.359Z</time>
      </trkpt>
      <trkpt lat="39.05921833" lon="-0.21658167">
        <ele>10.947</ele>
        <time>2020-02-08T11:04:55.359Z</time>
      </trkpt>
      <trkpt lat="39.05911833" lon="-0.21651167">
        <ele>10.947</ele>
        <time>2020-02-08T11:04:56.359Z</time>
      </trkpt>
      <trkpt lat="39.05906667" lon="-0.21647667">
        <ele>10.947</ele>
        <time>2020-02-08T11:04:57.359Z</time>
      </trkpt>
      <trkpt lat="39.05906667" lon="-0.21647667">
        <ele>10.947</ele>
        <time>2020-02-08T11:04:58.359Z</time>
      </trkpt>
      <trkpt lat="39.05895667" lon="-0.21641167">
        <ele>10.947</ele>
        <time>2020-02-08T11:04:59.359Z</time>
      </trkpt>
      <trkpt lat="39.05895667" lon="-0.21641167">
        <ele>10.947</ele>
        <time>2020-02-08T11:05:00.359Z</time>
      </trkpt>
      <trkpt lat="39.05885167" lon="-0.21634333">
        <ele>10.947</ele>
        <time>2020-02-08T11:05:01.359Z</time>
      </trkpt>
      <trkpt lat="39.05885167" lon="-0.21634333">
        <ele>10.947</ele>
        <time>2020-02-08T11:05:02.359Z</time>
      </trkpt>
      <trkpt lat="39.05874833" lon="-0.21627">
        <ele>10.947</ele>
        <time>2020-02-08T11:05:03.359Z</time>
      </trkpt>
      <trkpt lat="39.05874833" lon="-0.21627">
        <ele>10.947</ele>
        <time>2020-02-08T11:05:04.359Z</time>
      </trkpt>
      <trkpt lat="39.05864" lon="-0.21619667">
        <ele>10.947</ele>
        <time>2020-02-08T11:05:05.359Z</time>
      </trkpt>
      <trkpt lat="39.05864" lon="-0.21619667">
        <ele>10.947</ele>
        <time>2020-02-08T11:05:06.359Z</time>
      </trkpt>
      <trkpt lat="39.058535" lon="-0.21612333">
        <ele>10.947</ele>
        <time>2020-02-08T11:05:07.359Z</time>
      </trkpt>
      <trkpt lat="39.058535" lon="-0.21612333">
        <ele>10.947</ele>
        <time>2020-02-08T11:05:08.359Z</time>
      </trkpt>
      <trkpt lat="39.05843667" lon="-0.21605167">
        <ele>10.947</ele>
        <time>2020-02-08T11:05:09.359Z</time>
      </trkpt>
      <trkpt lat="39.05843667" lon="-0.21605167">
        <ele>10.947</ele>
        <time>2020-02-08T11:05:10.359Z</time>
      </trkpt>
      <trkpt lat="39.05833667" lon="-0.215975">
        <ele>10.947</ele>
        <time>2020-02-08T11:05:11.359Z</time>
      </trkpt>
      <trkpt lat="39.058285" lon="-0.21594">
        <ele>10.947</ele>
        <time>2020-02-08T11:05:12.359Z</time>
      </trkpt>
      <trkpt lat="39.058285" lon="-0.21594">
        <ele>10.947</ele>
        <time>2020-02-08T11:05:13.359Z</time>
      </trkpt>
      <trkpt lat="39.05817333" lon="-0.21587167">
        <ele>10.947</ele>
        <time>2020-02-08T11:05:14.359Z</time>
      </trkpt>
      <trkpt lat="39.05817333" lon="-0.21587167">
        <ele>10.947</ele>
        <time>2020-02-08T11:05:15.359Z</time>
      </trkpt>
      <trkpt lat="39.05806667" lon="-0.21580167">
        <ele>10.947</ele>
        <time>2020-02-08T11:05:16.359Z</time>
      </trkpt>
      <trkpt lat="39.05806667" lon="-0.21580167">
        <ele>10.947</ele>
        <time>2020-02-08T11:05:17.359Z</time>
      </trkpt>
      <trkpt lat="39.05796667" lon="-0.21573667">
        <ele>10.947</ele>
        <time>2020-02-08T11:05:18.359Z</time>
      </trkpt>
      <trkpt lat="39.05796667" lon="-0.21573667">
        <ele>10.947</ele>
        <time>2020-02-08T11:05:19.359Z</time>
      </trkpt>
      <trkpt lat="39.05786167" lon="-0.21566667">
        <ele>10.947</ele>
        <time>2020-02-08T11:05:20.359Z</time>
      </trkpt>
      <trkpt lat="39.05780833" lon="-0.21563167">
        <ele>10.947</ele>
        <time>2020-02-08T11:05:21.359Z</time>
      </trkpt>
      <trkpt lat="39.05780833" lon="-0.21563167">
        <ele>11.947</ele>
        <time>2020-02-08T11:05:22.359Z</time>
      </trkpt>
      <trkpt lat="39.0577" lon="-0.21556">
        <ele>11.947</ele>
        <time>2020-02-08T11:05:23.359Z</time>
      </trkpt>
      <trkpt lat="39.0577" lon="-0.21556">
        <ele>11.947</ele>
        <time>2020-02-08T11:05:24.359Z</time>
      </trkpt>
      <trkpt lat="39.05759" lon="-0.21548833">
        <ele>11.947</ele>
        <time>2020-02-08T11:05:25.359Z</time>
      </trkpt>
      <trkpt lat="39.057535" lon="-0.21545333">
        <ele>11.947</ele>
        <time>2020-02-08T11:05:26.359Z</time>
      </trkpt>
      <trkpt lat="39.057535" lon="-0.21545333">
        <ele>11.947</ele>
        <time>2020-02-08T11:05:27.359Z</time>
      </trkpt>
      <trkpt lat="39.057425" lon="-0.21538667">
        <ele>11.947</ele>
        <time>2020-02-08T11:05:28.359Z</time>
      </trkpt>
      <trkpt lat="39.057425" lon="-0.21538667">
        <ele>11.947</ele>
        <time>2020-02-08T11:05:29.359Z</time>
      </trkpt>
      <trkpt lat="39.05731" lon="-0.21531667">
        <ele>11.947</ele>
        <time>2020-02-08T11:05:30.359Z</time>
      </trkpt>
      <trkpt lat="39.05731" lon="-0.21531667">
        <ele>11.947</ele>
        <time>2020-02-08T11:05:31.359Z</time>
      </trkpt>
      <trkpt lat="39.057195" lon="-0.21525167">
        <ele>11.947</ele>
        <time>2020-02-08T11:05:32.359Z</time>
      </trkpt>
      <trkpt lat="39.057195" lon="-0.21525167">
        <ele>11.947</ele>
        <time>2020-02-08T11:05:33.359Z</time>
      </trkpt>
      <trkpt lat="39.05708833" lon="-0.21518167">
        <ele>11.947</ele>
        <time>2020-02-08T11:05:34.359Z</time>
      </trkpt>
      <trkpt lat="39.057035" lon="-0.215145">
        <ele>11.947</ele>
        <time>2020-02-08T11:05:35.359Z</time>
      </trkpt>
      <trkpt lat="39.05698167" lon="-0.21511">
        <ele>11.947</ele>
        <time>2020-02-08T11:05:36.359Z</time>
      </trkpt>
      <trkpt lat="39.05698167" lon="-0.21511">
        <ele>11.947</ele>
        <time>2020-02-08T11:05:37.359Z</time>
      </trkpt>
      <trkpt lat="39.05687167" lon="-0.21504">
        <ele>11.947</ele>
        <time>2020-02-08T11:05:38.359Z</time>
      </trkpt>
      <trkpt lat="39.05687167" lon="-0.21504">
        <ele>11.947</ele>
        <time>2020-02-08T11:05:39.359Z</time>
      </trkpt>
      <trkpt lat="39.05676333" lon="-0.21494833">
        <ele>11.947</ele>
        <time>2020-02-08T11:05:40.359Z</time>
      </trkpt>
      <trkpt lat="39.05676333" lon="-0.21494833">
        <ele>11.947</ele>
        <time>2020-02-08T11:05:41.359Z</time>
      </trkpt>
      <trkpt lat="39.05666833" lon="-0.21483833">
        <ele>11.947</ele>
        <time>2020-02-08T11:05:42.359Z</time>
      </trkpt>
      <trkpt lat="39.05666833" lon="-0.21483833">
        <ele>10.947</ele>
        <time>2020-02-08T11:05:43.359Z</time>
      </trkpt>
      <trkpt lat="39.05657667" lon="-0.214725">
        <ele>10.947</ele>
        <time>2020-02-08T11:05:44.359Z</time>
      </trkpt>
      <trkpt lat="39.05657667" lon="-0.214725">
        <ele>10.947</ele>
        <time>2020-02-08T11:05:45.359Z</time>
      </trkpt>
      <trkpt lat="39.05649333" lon="-0.21461">
        <ele>10.947</ele>
        <time>2020-02-08T11:05:46.359Z</time>
      </trkpt>
      <trkpt lat="39.05649333" lon="-0.21461">
        <ele>10.947</ele>
        <time>2020-02-08T11:05:47.359Z</time>
      </trkpt>
      <trkpt lat="39.056415" lon="-0.21450333">
        <ele>10.947</ele>
        <time>2020-02-08T11:05:48.359Z</time>
      </trkpt>
      <trkpt lat="39.056415" lon="-0.21450333">
        <ele>10.947</ele>
        <time>2020-02-08T11:05:49.359Z</time>
      </trkpt>
      <trkpt lat="39.056335" lon="-0.21439667">
        <ele>10.947</ele>
        <time>2020-02-08T11:05:50.359Z</time>
      </trkpt>
      <trkpt lat="39.056335" lon="-0.21439667">
        <ele>10.947</ele>
        <time>2020-02-08T11:05:51.359Z</time>
      </trkpt>
      <trkpt lat="39.05625833" lon="-0.21428667">
        <ele>10.947</ele>
        <time>2020-02-08T11:05:52.359Z</time>
      </trkpt>
      <trkpt lat="39.05621667" lon="-0.214235">
        <ele>10.947</ele>
        <time>2020-02-08T11:05:53.359Z</time>
      </trkpt>
      <trkpt lat="39.05618" lon="-0.21418833">
        <ele>10.947</ele>
        <time>2020-02-08T11:05:54.359Z</time>
      </trkpt>
      <trkpt lat="39.05618" lon="-0.21418833">
        <ele>10.947</ele>
        <time>2020-02-08T11:05:55.359Z</time>
      </trkpt>
      <trkpt lat="39.05611333" lon="-0.21410667">
        <ele>10.947</ele>
        <time>2020-02-08T11:05:56.359Z</time>
      </trkpt>
      <trkpt lat="39.05607333" lon="-0.21408">
        <ele>10.947</ele>
        <time>2020-02-08T11:05:57.359Z</time>
      </trkpt>
      <trkpt lat="39.05604" lon="-0.21406167">
        <ele>10.947</ele>
        <time>2020-02-08T11:05:58.359Z</time>
      </trkpt>
      <trkpt lat="39.05604" lon="-0.21406167">
        <ele>10.947</ele>
        <time>2020-02-08T11:05:59.359Z</time>
      </trkpt>
      <trkpt lat="39.055965" lon="-0.21405667">
        <ele>10.947</ele>
        <time>2020-02-08T11:06:00.359Z</time>
      </trkpt>
      <trkpt lat="39.055965" lon="-0.21405667">
        <ele>10.947</ele>
        <time>2020-02-08T11:06:01.359Z</time>
      </trkpt>
      <trkpt lat="39.05590167" lon="-0.214015">
        <ele>10.947</ele>
        <time>2020-02-08T11:06:02.359Z</time>
      </trkpt>
      <trkpt lat="39.05590167" lon="-0.214015">
        <ele>10.947</ele>
        <time>2020-02-08T11:06:03.359Z</time>
      </trkpt>
      <trkpt lat="39.05586167" lon="-0.2139">
        <ele>10.947</ele>
        <time>2020-02-08T11:06:04.359Z</time>
      </trkpt>
      <trkpt lat="39.05586167" lon="-0.2139">
        <ele>10.947</ele>
        <time>2020-02-08T11:06:05.359Z</time>
      </trkpt>
      <trkpt lat="39.05580833" lon="-0.213785">
        <ele>10.947</ele>
        <time>2020-02-08T11:06:06.359Z</time>
      </trkpt>
      <trkpt lat="39.05580833" lon="-0.213785">
        <ele>10.947</ele>
        <time>2020-02-08T11:06:07.359Z</time>
      </trkpt>
      <trkpt lat="39.05570167" lon="-0.21369833">
        <ele>10.947</ele>
        <time>2020-02-08T11:06:08.359Z</time>
      </trkpt>
      <trkpt lat="39.05570167" lon="-0.21369833">
        <ele>10.947</ele>
        <time>2020-02-08T11:06:09.359Z</time>
      </trkpt>
      <trkpt lat="39.05558667" lon="-0.21361333">
        <ele>10.947</ele>
        <time>2020-02-08T11:06:10.359Z</time>
      </trkpt>
      <trkpt lat="39.05558667" lon="-0.21361333">
        <ele>10.947</ele>
        <time>2020-02-08T11:06:11.359Z</time>
      </trkpt>
      <trkpt lat="39.05548333" lon="-0.21354">
        <ele>10.947</ele>
        <time>2020-02-08T11:06:12.359Z</time>
      </trkpt>
      <trkpt lat="39.05548333" lon="-0.21354">
        <ele>10.947</ele>
        <time>2020-02-08T11:06:13.359Z</time>
      </trkpt>
      <trkpt lat="39.05536667" lon="-0.21346833">
        <ele>10.947</ele>
        <time>2020-02-08T11:06:14.359Z</time>
      </trkpt>
      <trkpt lat="39.05536667" lon="-0.21346833">
        <ele>10.947</ele>
        <time>2020-02-08T11:06:15.359Z</time>
      </trkpt>
      <trkpt lat="39.05526" lon="-0.213385">
        <ele>10.947</ele>
        <time>2020-02-08T11:06:16.359Z</time>
      </trkpt>
      <trkpt lat="39.05521167" lon="-0.21334833">
        <ele>10.947</ele>
        <time>2020-02-08T11:06:17.359Z</time>
      </trkpt>
      <trkpt lat="39.05515833" lon="-0.21331333">
        <ele>10.947</ele>
        <time>2020-02-08T11:06:18.359Z</time>
      </trkpt>
      <trkpt lat="39.05515833" lon="-0.21331333">
        <ele>10.947</ele>
        <time>2020-02-08T11:06:19.359Z</time>
      </trkpt>
      <trkpt lat="39.05506" lon="-0.21323333">
        <ele>10.947</ele>
        <time>2020-02-08T11:06:20.359Z</time>
      </trkpt>
      <trkpt lat="39.05506" lon="-0.21323333">
        <ele>10.947</ele>
        <time>2020-02-08T11:06:21.359Z</time>
      </trkpt>
      <trkpt lat="39.05496" lon="-0.21314833">
        <ele>10.947</ele>
        <time>2020-02-08T11:06:22.359Z</time>
      </trkpt>
      <trkpt lat="39.05491167" lon="-0.21310833">
        <ele>10.947</ele>
        <time>2020-02-08T11:06:23.359Z</time>
      </trkpt>
      <trkpt lat="39.05491167" lon="-0.21310833">
        <ele>10.947</ele>
        <time>2020-02-08T11:06:24.359Z</time>
      </trkpt>
      <trkpt lat="39.0548" lon="-0.21303667">
        <ele>10.947</ele>
        <time>2020-02-08T11:06:25.359Z</time>
      </trkpt>
      <trkpt lat="39.05474833" lon="-0.21299833">
        <ele>10.947</ele>
        <time>2020-02-08T11:06:26.359Z</time>
      </trkpt>
      <trkpt lat="39.05474833" lon="-0.21299833">
        <ele>10.947</ele>
        <time>2020-02-08T11:06:27.359Z</time>
      </trkpt>
      <trkpt lat="39.054635" lon="-0.21293667">
        <ele>10.947</ele>
        <time>2020-02-08T11:06:28.359Z</time>
      </trkpt>
      <trkpt lat="39.054635" lon="-0.21293667">
        <ele>10.947</ele>
        <time>2020-02-08T11:06:29.359Z</time>
      </trkpt>
      <trkpt lat="39.054515" lon="-0.212855">
        <ele>10.947</ele>
        <time>2020-02-08T11:06:30.359Z</time>
      </trkpt>
      <trkpt lat="39.054515" lon="-0.212855">
        <ele>10.947</ele>
        <time>2020-02-08T11:06:31.359Z</time>
      </trkpt>
      <trkpt lat="39.05438833" lon="-0.21276833">
        <ele>10.947</ele>
        <time>2020-02-08T11:06:32.359Z</time>
      </trkpt>
      <trkpt lat="39.05438833" lon="-0.21276833">
        <ele>10.947</ele>
        <time>2020-02-08T11:06:33.359Z</time>
      </trkpt>
      <trkpt lat="39.054265" lon="-0.21268667">
        <ele>10.947</ele>
        <time>2020-02-08T11:06:34.359Z</time>
      </trkpt>
      <trkpt lat="39.054265" lon="-0.21268667">
        <ele>10.947</ele>
        <time>2020-02-08T11:06:35.359Z</time>
      </trkpt>
      <trkpt lat="39.05414667" lon="-0.21261667">
        <ele>10.947</ele>
        <time>2020-02-08T11:06:36.359Z</time>
      </trkpt>
      <trkpt lat="39.05414667" lon="-0.21261667">
        <ele>10.947</ele>
        <time>2020-02-08T11:06:37.359Z</time>
      </trkpt>
      <trkpt lat="39.05402667" lon="-0.21255">
        <ele>10.947</ele>
        <time>2020-02-08T11:06:38.359Z</time>
      </trkpt>
      <trkpt lat="39.05402667" lon="-0.21255">
        <ele>10.947</ele>
        <time>2020-02-08T11:06:39.359Z</time>
      </trkpt>
      <trkpt lat="39.053915" lon="-0.21248167">
        <ele>10.947</ele>
        <time>2020-02-08T11:06:40.359Z</time>
      </trkpt>
      <trkpt lat="39.05385667" lon="-0.21245333">
        <ele>10.947</ele>
        <time>2020-02-08T11:06:41.359Z</time>
      </trkpt>
      <trkpt lat="39.05380333" lon="-0.21242167">
        <ele>10.947</ele>
        <time>2020-02-08T11:06:42.359Z</time>
      </trkpt>
      <trkpt lat="39.05380333" lon="-0.21242167">
        <ele>10.947</ele>
        <time>2020-02-08T11:06:43.359Z</time>
      </trkpt>
      <trkpt lat="39.05369667" lon="-0.21234667">
        <ele>10.947</ele>
        <time>2020-02-08T11:06:44.359Z</time>
      </trkpt>
      <trkpt lat="39.05369667" lon="-0.21234667">
        <ele>10.947</ele>
        <time>2020-02-08T11:06:45.359Z</time>
      </trkpt>
      <trkpt lat="39.053585" lon="-0.21226833">
        <ele>10.947</ele>
        <time>2020-02-08T11:06:46.359Z</time>
      </trkpt>
      <trkpt lat="39.053585" lon="-0.21226833">
        <ele>10.947</ele>
        <time>2020-02-08T11:06:47.359Z</time>
      </trkpt>
      <trkpt lat="39.05347833" lon="-0.21219333">
        <ele>10.947</ele>
        <time>2020-02-08T11:06:48.359Z</time>
      </trkpt>
      <trkpt lat="39.05347833" lon="-0.21219333">
        <ele>10.947</ele>
        <time>2020-02-08T11:06:49.359Z</time>
      </trkpt>
      <trkpt lat="39.05337167" lon="-0.21212">
        <ele>10.947</ele>
        <time>2020-02-08T11:06:50.359Z</time>
      </trkpt>
      <trkpt lat="39.05337167" lon="-0.21212">
        <ele>10.947</ele>
        <time>2020-02-08T11:06:51.359Z</time>
      </trkpt>
      <trkpt lat="39.05326167" lon="-0.21204833">
        <ele>10.947</ele>
        <time>2020-02-08T11:06:52.359Z</time>
      </trkpt>
      <trkpt lat="39.05326167" lon="-0.21204833">
        <ele>10.947</ele>
        <time>2020-02-08T11:06:53.359Z</time>
      </trkpt>
      <trkpt lat="39.05315667" lon="-0.21197833">
        <ele>10.947</ele>
        <time>2020-02-08T11:06:54.359Z</time>
      </trkpt>
      <trkpt lat="39.05315667" lon="-0.21197833">
        <ele>10.947</ele>
        <time>2020-02-08T11:06:55.359Z</time>
      </trkpt>
      <trkpt lat="39.05305333" lon="-0.21190833">
        <ele>10.947</ele>
        <time>2020-02-08T11:06:56.359Z</time>
      </trkpt>
      <trkpt lat="39.05305333" lon="-0.21190833">
        <ele>10.947</ele>
        <time>2020-02-08T11:06:57.359Z</time>
      </trkpt>
      <trkpt lat="39.052945" lon="-0.21183833">
        <ele>10.947</ele>
        <time>2020-02-08T11:06:58.359Z</time>
      </trkpt>
      <trkpt lat="39.05289167" lon="-0.21180333">
        <ele>10.947</ele>
        <time>2020-02-08T11:06:59.359Z</time>
      </trkpt>
      <trkpt lat="39.05289167" lon="-0.21180333">
        <ele>10.947</ele>
        <time>2020-02-08T11:07:00.359Z</time>
      </trkpt>
      <trkpt lat="39.05278" lon="-0.21172667">
        <ele>10.947</ele>
        <time>2020-02-08T11:07:01.359Z</time>
      </trkpt>
      <trkpt lat="39.05272333" lon="-0.21168833">
        <ele>10.947</ele>
        <time>2020-02-08T11:07:02.359Z</time>
      </trkpt>
      <trkpt lat="39.05272333" lon="-0.21168833">
        <ele>10.947</ele>
        <time>2020-02-08T11:07:03.359Z</time>
      </trkpt>
      <trkpt lat="39.0526" lon="-0.21162">
        <ele>10.947</ele>
        <time>2020-02-08T11:07:04.359Z</time>
      </trkpt>
      <trkpt lat="39.0526" lon="-0.21162">
        <ele>10.947</ele>
        <time>2020-02-08T11:07:05.359Z</time>
      </trkpt>
      <trkpt lat="39.05249333" lon="-0.21154833">
        <ele>10.947</ele>
        <time>2020-02-08T11:07:06.359Z</time>
      </trkpt>
      <trkpt lat="39.05249333" lon="-0.21154833">
        <ele>10.947</ele>
        <time>2020-02-08T11:07:07.359Z</time>
      </trkpt>
      <trkpt lat="39.05238667" lon="-0.21147667">
        <ele>10.947</ele>
        <time>2020-02-08T11:07:08.359Z</time>
      </trkpt>
      <trkpt lat="39.05238667" lon="-0.21147667">
        <ele>10.947</ele>
        <time>2020-02-08T11:07:09.359Z</time>
      </trkpt>
      <trkpt lat="39.05227167" lon="-0.21139667">
        <ele>10.947</ele>
        <time>2020-02-08T11:07:10.359Z</time>
      </trkpt>
      <trkpt lat="39.05227167" lon="-0.21139667">
        <ele>10.947</ele>
        <time>2020-02-08T11:07:11.359Z</time>
      </trkpt>
      <trkpt lat="39.05215333" lon="-0.21132167">
        <ele>10.947</ele>
        <time>2020-02-08T11:07:12.359Z</time>
      </trkpt>
      <trkpt lat="39.05215333" lon="-0.21132167">
        <ele>10.947</ele>
        <time>2020-02-08T11:07:13.359Z</time>
      </trkpt>
      <trkpt lat="39.05203667" lon="-0.21124167">
        <ele>10.947</ele>
        <time>2020-02-08T11:07:14.359Z</time>
      </trkpt>
      <trkpt lat="39.05203667" lon="-0.21124167">
        <ele>10.947</ele>
        <time>2020-02-08T11:07:15.359Z</time>
      </trkpt>
      <trkpt lat="39.051925" lon="-0.211165">
        <ele>10.947</ele>
        <time>2020-02-08T11:07:16.359Z</time>
      </trkpt>
      <trkpt lat="39.05186667" lon="-0.21112333">
        <ele>10.947</ele>
        <time>2020-02-08T11:07:17.359Z</time>
      </trkpt>
      <trkpt lat="39.05181167" lon="-0.211085">
        <ele>10.947</ele>
        <time>2020-02-08T11:07:18.359Z</time>
      </trkpt>
      <trkpt lat="39.05181167" lon="-0.211085">
        <ele>10.947</ele>
        <time>2020-02-08T11:07:19.359Z</time>
      </trkpt>
      <trkpt lat="39.05169833" lon="-0.21101">
        <ele>10.947</ele>
        <time>2020-02-08T11:07:20.359Z</time>
      </trkpt>
      <trkpt lat="39.051645" lon="-0.21097333">
        <ele>10.947</ele>
        <time>2020-02-08T11:07:21.359Z</time>
      </trkpt>
      <trkpt lat="39.051645" lon="-0.21097333">
        <ele>10.947</ele>
        <time>2020-02-08T11:07:22.359Z</time>
      </trkpt>
      <trkpt lat="39.05154167" lon="-0.2109">
        <ele>10.947</ele>
        <time>2020-02-08T11:07:23.359Z</time>
      </trkpt>
      <trkpt lat="39.05154167" lon="-0.2109">
        <ele>10.947</ele>
        <time>2020-02-08T11:07:24.359Z</time>
      </trkpt>
      <trkpt lat="39.05143667" lon="-0.21082667">
        <ele>10.947</ele>
        <time>2020-02-08T11:07:25.359Z</time>
      </trkpt>
      <trkpt lat="39.05143667" lon="-0.21082667">
        <ele>10.947</ele>
        <time>2020-02-08T11:07:26.359Z</time>
      </trkpt>
      <trkpt lat="39.05133167" lon="-0.21075333">
        <ele>10.947</ele>
        <time>2020-02-08T11:07:27.359Z</time>
      </trkpt>
      <trkpt lat="39.05133167" lon="-0.21075333">
        <ele>10.947</ele>
        <time>2020-02-08T11:07:28.359Z</time>
      </trkpt>
      <trkpt lat="39.051225" lon="-0.21068167">
        <ele>10.947</ele>
        <time>2020-02-08T11:07:29.359Z</time>
      </trkpt>
      <trkpt lat="39.05117167" lon="-0.210645">
        <ele>10.947</ele>
        <time>2020-02-08T11:07:30.359Z</time>
      </trkpt>
      <trkpt lat="39.05117167" lon="-0.210645">
        <ele>10.947</ele>
        <time>2020-02-08T11:07:31.359Z</time>
      </trkpt>
      <trkpt lat="39.05106167" lon="-0.210575">
        <ele>10.947</ele>
        <time>2020-02-08T11:07:32.359Z</time>
      </trkpt>
      <trkpt lat="39.05106167" lon="-0.210575">
        <ele>10.947</ele>
        <time>2020-02-08T11:07:33.359Z</time>
      </trkpt>
      <trkpt lat="39.05093833" lon="-0.21051167">
        <ele>10.947</ele>
        <time>2020-02-08T11:07:34.359Z</time>
      </trkpt>
      <trkpt lat="39.05093833" lon="-0.21051167">
        <ele>10.947</ele>
        <time>2020-02-08T11:07:35.359Z</time>
      </trkpt>
      <trkpt lat="39.05082167" lon="-0.21043833">
        <ele>10.947</ele>
        <time>2020-02-08T11:07:36.359Z</time>
      </trkpt>
      <trkpt lat="39.05082167" lon="-0.21043833">
        <ele>10.947</ele>
        <time>2020-02-08T11:07:37.359Z</time>
      </trkpt>
      <trkpt lat="39.05070167" lon="-0.21036167">
        <ele>10.947</ele>
        <time>2020-02-08T11:07:38.359Z</time>
      </trkpt>
      <trkpt lat="39.05070167" lon="-0.21036167">
        <ele>10.947</ele>
        <time>2020-02-08T11:07:39.359Z</time>
      </trkpt>
      <trkpt lat="39.05058833" lon="-0.21029">
        <ele>10.947</ele>
        <time>2020-02-08T11:07:40.359Z</time>
      </trkpt>
      <trkpt lat="39.05058833" lon="-0.21029">
        <ele>10.947</ele>
        <time>2020-02-08T11:07:41.359Z</time>
      </trkpt>
      <trkpt lat="39.05048" lon="-0.21021333">
        <ele>10.947</ele>
        <time>2020-02-08T11:07:42.359Z</time>
      </trkpt>
      <trkpt lat="39.05048" lon="-0.21021333">
        <ele>10.947</ele>
        <time>2020-02-08T11:07:43.359Z</time>
      </trkpt>
      <trkpt lat="39.05037333" lon="-0.21014333">
        <ele>10.947</ele>
        <time>2020-02-08T11:07:44.359Z</time>
      </trkpt>
      <trkpt lat="39.05037333" lon="-0.21014333">
        <ele>10.947</ele>
        <time>2020-02-08T11:07:45.359Z</time>
      </trkpt>
      <trkpt lat="39.050265" lon="-0.210075">
        <ele>10.947</ele>
        <time>2020-02-08T11:07:46.359Z</time>
      </trkpt>
      <trkpt lat="39.050215" lon="-0.21004">
        <ele>10.947</ele>
        <time>2020-02-08T11:07:47.359Z</time>
      </trkpt>
      <trkpt lat="39.05016333" lon="-0.210005">
        <ele>10.947</ele>
        <time>2020-02-08T11:07:48.359Z</time>
      </trkpt>
      <trkpt lat="39.05016333" lon="-0.210005">
        <ele>10.947</ele>
        <time>2020-02-08T11:07:49.359Z</time>
      </trkpt>
      <trkpt lat="39.05006167" lon="-0.20992833">
        <ele>10.947</ele>
        <time>2020-02-08T11:07:50.359Z</time>
      </trkpt>
      <trkpt lat="39.05006167" lon="-0.20992833">
        <ele>10.947</ele>
        <time>2020-02-08T11:07:51.359Z</time>
      </trkpt>
      <trkpt lat="39.04995" lon="-0.20986">
        <ele>10.947</ele>
        <time>2020-02-08T11:07:52.359Z</time>
      </trkpt>
      <trkpt lat="39.04995" lon="-0.20986">
        <ele>10.947</ele>
        <time>2020-02-08T11:07:53.359Z</time>
      </trkpt>
      <trkpt lat="39.04984333" lon="-0.209785">
        <ele>10.947</ele>
        <time>2020-02-08T11:07:54.359Z</time>
      </trkpt>
      <trkpt lat="39.04984333" lon="-0.209785">
        <ele>10.947</ele>
        <time>2020-02-08T11:07:55.359Z</time>
      </trkpt>
      <trkpt lat="39.04973833" lon="-0.20970833">
        <ele>10.947</ele>
        <time>2020-02-08T11:07:56.359Z</time>
      </trkpt>
      <trkpt lat="39.04973833" lon="-0.20970833">
        <ele>10.947</ele>
        <time>2020-02-08T11:07:57.359Z</time>
      </trkpt>
      <trkpt lat="39.04963833" lon="-0.20962167">
        <ele>10.947</ele>
        <time>2020-02-08T11:07:58.359Z</time>
      </trkpt>
      <trkpt lat="39.04963833" lon="-0.20962167">
        <ele>10.947</ele>
        <time>2020-02-08T11:07:59.359Z</time>
      </trkpt>
      <trkpt lat="39.04953667" lon="-0.20952833">
        <ele>10.947</ele>
        <time>2020-02-08T11:08:00.359Z</time>
      </trkpt>
      <trkpt lat="39.04953667" lon="-0.20952833">
        <ele>10.947</ele>
        <time>2020-02-08T11:08:01.359Z</time>
      </trkpt>
      <trkpt lat="39.04944" lon="-0.20942833">
        <ele>10.947</ele>
        <time>2020-02-08T11:08:02.359Z</time>
      </trkpt>
      <trkpt lat="39.04944" lon="-0.20942833">
        <ele>10.947</ele>
        <time>2020-02-08T11:08:03.359Z</time>
      </trkpt>
      <trkpt lat="39.04934" lon="-0.20933833">
        <ele>10.947</ele>
        <time>2020-02-08T11:08:04.359Z</time>
      </trkpt>
      <trkpt lat="39.04934" lon="-0.20933833">
        <ele>10.947</ele>
        <time>2020-02-08T11:08:05.359Z</time>
      </trkpt>
      <trkpt lat="39.04922333" lon="-0.20924167">
        <ele>10.947</ele>
        <time>2020-02-08T11:08:06.359Z</time>
      </trkpt>
      <trkpt lat="39.04917" lon="-0.20918833">
        <ele>10.947</ele>
        <time>2020-02-08T11:08:07.359Z</time>
      </trkpt>
      <trkpt lat="39.04911667" lon="-0.20914">
        <ele>10.947</ele>
        <time>2020-02-08T11:08:08.359Z</time>
      </trkpt>
      <trkpt lat="39.04911667" lon="-0.20914">
        <ele>10.947</ele>
        <time>2020-02-08T11:08:09.359Z</time>
      </trkpt>
      <trkpt lat="39.04901" lon="-0.20904">
        <ele>10.947</ele>
        <time>2020-02-08T11:08:10.359Z</time>
      </trkpt>
      <trkpt lat="39.04896167" lon="-0.20899167">
        <ele>10.947</ele>
        <time>2020-02-08T11:08:11.359Z</time>
      </trkpt>
      <trkpt lat="39.04891167" lon="-0.208945">
        <ele>10.947</ele>
        <time>2020-02-08T11:08:12.359Z</time>
      </trkpt>
      <trkpt lat="39.04891167" lon="-0.208945">
        <ele>10.947</ele>
        <time>2020-02-08T11:08:13.359Z</time>
      </trkpt>
      <trkpt lat="39.04881" lon="-0.20885167">
        <ele>10.947</ele>
        <time>2020-02-08T11:08:14.359Z</time>
      </trkpt>
      <trkpt lat="39.04881" lon="-0.20885167">
        <ele>10.947</ele>
        <time>2020-02-08T11:08:15.359Z</time>
      </trkpt>
      <trkpt lat="39.04871167" lon="-0.20875667">
        <ele>10.947</ele>
        <time>2020-02-08T11:08:16.359Z</time>
      </trkpt>
      <trkpt lat="39.04871167" lon="-0.20875667">
        <ele>10.947</ele>
        <time>2020-02-08T11:08:17.359Z</time>
      </trkpt>
      <trkpt lat="39.04861" lon="-0.208665">
        <ele>10.947</ele>
        <time>2020-02-08T11:08:18.359Z</time>
      </trkpt>
      <trkpt lat="39.04861" lon="-0.208665">
        <ele>10.947</ele>
        <time>2020-02-08T11:08:19.359Z</time>
      </trkpt>
      <trkpt lat="39.04850833" lon="-0.20857333">
        <ele>10.947</ele>
        <time>2020-02-08T11:08:20.359Z</time>
      </trkpt>
      <trkpt lat="39.04850833" lon="-0.20857333">
        <ele>10.947</ele>
        <time>2020-02-08T11:08:21.359Z</time>
      </trkpt>
      <trkpt lat="39.04841" lon="-0.20847667">
        <ele>10.947</ele>
        <time>2020-02-08T11:08:22.359Z</time>
      </trkpt>
      <trkpt lat="39.04841" lon="-0.20847667">
        <ele>10.947</ele>
        <time>2020-02-08T11:08:23.359Z</time>
      </trkpt>
      <trkpt lat="39.04831" lon="-0.20838167">
        <ele>10.947</ele>
        <time>2020-02-08T11:08:24.359Z</time>
      </trkpt>
      <trkpt lat="39.04831" lon="-0.20838167">
        <ele>10.947</ele>
        <time>2020-02-08T11:08:25.359Z</time>
      </trkpt>
      <trkpt lat="39.04821167" lon="-0.20828667">
        <ele>10.947</ele>
        <time>2020-02-08T11:08:26.359Z</time>
      </trkpt>
      <trkpt lat="39.04821167" lon="-0.20828667">
        <ele>10.947</ele>
        <time>2020-02-08T11:08:27.359Z</time>
      </trkpt>
      <trkpt lat="39.048115" lon="-0.20819">
        <ele>10.947</ele>
        <time>2020-02-08T11:08:28.359Z</time>
      </trkpt>
      <trkpt lat="39.048115" lon="-0.20819">
        <ele>10.947</ele>
        <time>2020-02-08T11:08:29.359Z</time>
      </trkpt>
      <trkpt lat="39.048015" lon="-0.20809167">
        <ele>10.947</ele>
        <time>2020-02-08T11:08:30.359Z</time>
      </trkpt>
      <trkpt lat="39.048015" lon="-0.20809167">
        <ele>10.947</ele>
        <time>2020-02-08T11:08:31.359Z</time>
      </trkpt>
      <trkpt lat="39.04791333" lon="-0.20799833">
        <ele>10.947</ele>
        <time>2020-02-08T11:08:32.359Z</time>
      </trkpt>
      <trkpt lat="39.04786333" lon="-0.20795167">
        <ele>10.947</ele>
        <time>2020-02-08T11:08:33.359Z</time>
      </trkpt>
      <trkpt lat="39.04781" lon="-0.20790667">
        <ele>10.947</ele>
        <time>2020-02-08T11:08:34.359Z</time>
      </trkpt>
      <trkpt lat="39.04781" lon="-0.20790667">
        <ele>10.947</ele>
        <time>2020-02-08T11:08:35.359Z</time>
      </trkpt>
      <trkpt lat="39.0477" lon="-0.20782">
        <ele>10.947</ele>
        <time>2020-02-08T11:08:36.359Z</time>
      </trkpt>
      <trkpt lat="39.0477" lon="-0.20782">
        <ele>10.947</ele>
        <time>2020-02-08T11:08:37.359Z</time>
      </trkpt>
      <trkpt lat="39.047595" lon="-0.20773333">
        <ele>10.947</ele>
        <time>2020-02-08T11:08:38.359Z</time>
      </trkpt>
      <trkpt lat="39.047545" lon="-0.20768833">
        <ele>10.947</ele>
        <time>2020-02-08T11:08:39.359Z</time>
      </trkpt>
      <trkpt lat="39.047545" lon="-0.20768833">
        <ele>10.947</ele>
        <time>2020-02-08T11:08:40.359Z</time>
      </trkpt>
      <trkpt lat="39.04744833" lon="-0.20759833">
        <ele>10.947</ele>
        <time>2020-02-08T11:08:41.359Z</time>
      </trkpt>
      <trkpt lat="39.04740667" lon="-0.20755667">
        <ele>10.947</ele>
        <time>2020-02-08T11:08:42.359Z</time>
      </trkpt>
      <trkpt lat="39.04740667" lon="-0.20755667">
        <ele>10.947</ele>
        <time>2020-02-08T11:08:43.359Z</time>
      </trkpt>
      <trkpt lat="39.047325" lon="-0.207475">
        <ele>10.947</ele>
        <time>2020-02-08T11:08:44.359Z</time>
      </trkpt>
      <trkpt lat="39.047285" lon="-0.20743667">
        <ele>10.947</ele>
        <time>2020-02-08T11:08:45.359Z</time>
      </trkpt>
      <trkpt lat="39.047285" lon="-0.20743667">
        <ele>10.947</ele>
        <time>2020-02-08T11:08:46.359Z</time>
      </trkpt>
      <trkpt lat="39.04721167" lon="-0.20736667">
        <ele>10.947</ele>
        <time>2020-02-08T11:08:47.359Z</time>
      </trkpt>
      <trkpt lat="39.04717833" lon="-0.20733667">
        <ele>10.947</ele>
        <time>2020-02-08T11:08:48.359Z</time>
      </trkpt>
      <trkpt lat="39.04717833" lon="-0.20733667">
        <ele>10.947</ele>
        <time>2020-02-08T11:08:49.359Z</time>
      </trkpt>
      <trkpt lat="39.047135" lon="-0.20729833">
        <ele>10.947</ele>
        <time>2020-02-08T11:08:50.359Z</time>
      </trkpt>
      <trkpt lat="39.047135" lon="-0.20729833">
        <ele>10.947</ele>
        <time>2020-02-08T11:08:51.359Z</time>
      </trkpt>
      <trkpt lat="39.047115" lon="-0.20727167">
        <ele>10.947</ele>
        <time>2020-02-08T11:08:52.359Z</time>
      </trkpt>
      <trkpt lat="39.047115" lon="-0.20727167">
        <ele>10.947</ele>
        <time>2020-02-08T11:08:53.359Z</time>
      </trkpt>
      <trkpt lat="39.04708833" lon="-0.20723833">
        <ele>10.947</ele>
        <time>2020-02-08T11:08:54.359Z</time>
      </trkpt>
      <trkpt lat="39.04708833" lon="-0.20723833">
        <ele>10.947</ele>
        <time>2020-02-08T11:08:55.359Z</time>
      </trkpt>
      <trkpt lat="39.047045" lon="-0.2072">
        <ele>10.947</ele>
        <time>2020-02-08T11:08:56.359Z</time>
      </trkpt>
      <trkpt lat="39.04702" lon="-0.20718">
        <ele>10.947</ele>
        <time>2020-02-08T11:08:57.359Z</time>
      </trkpt>
      <trkpt lat="39.04702" lon="-0.20718">
        <ele>10.947</ele>
        <time>2020-02-08T11:08:58.359Z</time>
      </trkpt>
      <trkpt lat="39.04696667" lon="-0.20713333">
        <ele>10.947</ele>
        <time>2020-02-08T11:08:59.359Z</time>
      </trkpt>
      <trkpt lat="39.04693833" lon="-0.207105">
        <ele>10.947</ele>
        <time>2020-02-08T11:09:00.359Z</time>
      </trkpt>
      <trkpt lat="39.04693833" lon="-0.207105">
        <ele>10.947</ele>
        <time>2020-02-08T11:09:01.359Z</time>
      </trkpt>
      <trkpt lat="39.04688667" lon="-0.20704167">
        <ele>10.947</ele>
        <time>2020-02-08T11:09:02.359Z</time>
      </trkpt>
      <trkpt lat="39.04688667" lon="-0.20704167">
        <ele>10.947</ele>
        <time>2020-02-08T11:09:03.359Z</time>
      </trkpt>
      <trkpt lat="39.04682833" lon="-0.20702333">
        <ele>10.947</ele>
        <time>2020-02-08T11:09:04.359Z</time>
      </trkpt>
      <trkpt lat="39.04682833" lon="-0.20702333">
        <ele>10.947</ele>
        <time>2020-02-08T11:09:05.359Z</time>
      </trkpt>
      <trkpt lat="39.04677667" lon="-0.20707833">
        <ele>10.947</ele>
        <time>2020-02-08T11:09:06.359Z</time>
      </trkpt>
      <trkpt lat="39.046755" lon="-0.20712667">
        <ele>10.947</ele>
        <time>2020-02-08T11:09:07.359Z</time>
      </trkpt>
      <trkpt lat="39.046755" lon="-0.20712667">
        <ele>10.947</ele>
        <time>2020-02-08T11:09:08.359Z</time>
      </trkpt>
      <trkpt lat="39.04673833" lon="-0.20724333">
        <ele>9.947</ele>
        <time>2020-02-08T11:09:09.359Z</time>
      </trkpt>
      <trkpt lat="39.04673833" lon="-0.2073">
        <ele>9.947</ele>
        <time>2020-02-08T11:09:10.359Z</time>
      </trkpt>
      <trkpt lat="39.04673833" lon="-0.2073">
        <ele>9.947</ele>
        <time>2020-02-08T11:09:11.359Z</time>
      </trkpt>
      <trkpt lat="39.04674667" lon="-0.20741333">
        <ele>9.947</ele>
        <time>2020-02-08T11:09:12.359Z</time>
      </trkpt>
      <trkpt lat="39.04674667" lon="-0.20741333">
        <ele>9.947</ele>
        <time>2020-02-08T11:09:13.359Z</time>
      </trkpt>
      <trkpt lat="39.04674667" lon="-0.20753">
        <ele>9.947</ele>
        <time>2020-02-08T11:09:14.359Z</time>
      </trkpt>
      <trkpt lat="39.04674667" lon="-0.20753">
        <ele>8.947</ele>
        <time>2020-02-08T11:09:15.359Z</time>
      </trkpt>
      <trkpt lat="39.04672667" lon="-0.20763667">
        <ele>8.947</ele>
        <time>2020-02-08T11:09:16.359Z</time>
      </trkpt>
      <trkpt lat="39.04670667" lon="-0.20768">
        <ele>8.947</ele>
        <time>2020-02-08T11:09:17.359Z</time>
      </trkpt>
      <trkpt lat="39.046685" lon="-0.20772">
        <ele>8.947</ele>
        <time>2020-02-08T11:09:18.359Z</time>
      </trkpt>
      <trkpt lat="39.046685" lon="-0.20772">
        <ele>8.947</ele>
        <time>2020-02-08T11:09:19.359Z</time>
      </trkpt>
      <trkpt lat="39.04661167" lon="-0.20780667">
        <ele>8.947</ele>
        <time>2020-02-08T11:09:20.359Z</time>
      </trkpt>
      <trkpt lat="39.04661167" lon="-0.20780667">
        <ele>8.947</ele>
        <time>2020-02-08T11:09:21.359Z</time>
      </trkpt>
      <trkpt lat="39.04653333" lon="-0.20788667">
        <ele>8.947</ele>
        <time>2020-02-08T11:09:22.359Z</time>
      </trkpt>
      <trkpt lat="39.046495" lon="-0.20792833">
        <ele>8.947</ele>
        <time>2020-02-08T11:09:23.359Z</time>
      </trkpt>
      <trkpt lat="39.04645833" lon="-0.20797">
        <ele>8.947</ele>
        <time>2020-02-08T11:09:24.359Z</time>
      </trkpt>
      <trkpt lat="39.04645833" lon="-0.20797">
        <ele>8.947</ele>
        <time>2020-02-08T11:09:25.359Z</time>
      </trkpt>
      <trkpt lat="39.04639667" lon="-0.20805667">
        <ele>8.947</ele>
        <time>2020-02-08T11:09:26.359Z</time>
      </trkpt>
      <trkpt lat="39.04637" lon="-0.20810833">
        <ele>8.947</ele>
        <time>2020-02-08T11:09:27.359Z</time>
      </trkpt>
      <trkpt lat="39.04634667" lon="-0.20816167">
        <ele>8.947</ele>
        <time>2020-02-08T11:09:28.359Z</time>
      </trkpt>
      <trkpt lat="39.04634667" lon="-0.20816167">
        <ele>8.947</ele>
        <time>2020-02-08T11:09:29.359Z</time>
      </trkpt>
      <trkpt lat="39.04628333" lon="-0.20824833">
        <ele>8.947</ele>
        <time>2020-02-08T11:09:30.359Z</time>
      </trkpt>
      <trkpt lat="39.04624167" lon="-0.20828833">
        <ele>8.947</ele>
        <time>2020-02-08T11:09:31.359Z</time>
      </trkpt>
      <trkpt lat="39.0462" lon="-0.20833167">
        <ele>8.947</ele>
        <time>2020-02-08T11:09:32.359Z</time>
      </trkpt>
      <trkpt lat="39.0462" lon="-0.20833167">
        <ele>8.947</ele>
        <time>2020-02-08T11:09:33.359Z</time>
      </trkpt>
      <trkpt lat="39.04613667" lon="-0.20842">
        <ele>8.947</ele>
        <time>2020-02-08T11:09:34.359Z</time>
      </trkpt>
      <trkpt lat="39.04611" lon="-0.20846667">
        <ele>8.947</ele>
        <time>2020-02-08T11:09:35.359Z</time>
      </trkpt>
      <trkpt lat="39.04608167" lon="-0.20851">
        <ele>8.947</ele>
        <time>2020-02-08T11:09:36.359Z</time>
      </trkpt>
      <trkpt lat="39.04608167" lon="-0.20851">
        <ele>8.947</ele>
        <time>2020-02-08T11:09:37.359Z</time>
      </trkpt>
      <trkpt lat="39.04603667" lon="-0.20859667">
        <ele>8.947</ele>
        <time>2020-02-08T11:09:38.359Z</time>
      </trkpt>
      <trkpt lat="39.04603667" lon="-0.20859667">
        <ele>8.947</ele>
        <time>2020-02-08T11:09:39.359Z</time>
      </trkpt>
      <trkpt lat="39.04597833" lon="-0.20867667">
        <ele>8.947</ele>
        <time>2020-02-08T11:09:40.359Z</time>
      </trkpt>
      <trkpt lat="39.04597833" lon="-0.20867667">
        <ele>8.947</ele>
        <time>2020-02-08T11:09:41.359Z</time>
      </trkpt>
      <trkpt lat="39.04592333" lon="-0.20874333">
        <ele>8.947</ele>
        <time>2020-02-08T11:09:42.359Z</time>
      </trkpt>
      <trkpt lat="39.04592333" lon="-0.20874333">
        <ele>9.947</ele>
        <time>2020-02-08T11:09:43.359Z</time>
      </trkpt>
      <trkpt lat="39.04585833" lon="-0.20876">
        <ele>9.947</ele>
        <time>2020-02-08T11:09:44.359Z</time>
      </trkpt>
      <trkpt lat="39.04585833" lon="-0.20876">
        <ele>9.947</ele>
        <time>2020-02-08T11:09:45.359Z</time>
      </trkpt>
      <trkpt lat="39.04579167" lon="-0.20872">
        <ele>9.947</ele>
        <time>2020-02-08T11:09:46.359Z</time>
      </trkpt>
      <trkpt lat="39.04579167" lon="-0.20872">
        <ele>9.947</ele>
        <time>2020-02-08T11:09:47.359Z</time>
      </trkpt>
      <trkpt lat="39.04571667" lon="-0.20867167">
        <ele>9.947</ele>
        <time>2020-02-08T11:09:48.359Z</time>
      </trkpt>
      <trkpt lat="39.04571667" lon="-0.20867167">
        <ele>9.947</ele>
        <time>2020-02-08T11:09:49.359Z</time>
      </trkpt>
      <trkpt lat="39.04564" lon="-0.20862167">
        <ele>9.947</ele>
        <time>2020-02-08T11:09:50.359Z</time>
      </trkpt>
      <trkpt lat="39.04564" lon="-0.20862167">
        <ele>9.947</ele>
        <time>2020-02-08T11:09:51.359Z</time>
      </trkpt>
      <trkpt lat="39.04555833" lon="-0.20857">
        <ele>9.947</ele>
        <time>2020-02-08T11:09:52.359Z</time>
      </trkpt>
      <trkpt lat="39.04555833" lon="-0.20857">
        <ele>9.947</ele>
        <time>2020-02-08T11:09:53.359Z</time>
      </trkpt>
      <trkpt lat="39.04547333" lon="-0.20852167">
        <ele>9.947</ele>
        <time>2020-02-08T11:09:54.359Z</time>
      </trkpt>
      <trkpt lat="39.04547333" lon="-0.20852167">
        <ele>9.947</ele>
        <time>2020-02-08T11:09:55.359Z</time>
      </trkpt>
      <trkpt lat="39.04538167" lon="-0.20847833">
        <ele>9.947</ele>
        <time>2020-02-08T11:09:56.359Z</time>
      </trkpt>
      <trkpt lat="39.04538167" lon="-0.20847833">
        <ele>9.947</ele>
        <time>2020-02-08T11:09:57.359Z</time>
      </trkpt>
      <trkpt lat="39.045295" lon="-0.20843">
        <ele>9.947</ele>
        <time>2020-02-08T11:09:58.359Z</time>
      </trkpt>
      <trkpt lat="39.04525333" lon="-0.2084">
        <ele>9.947</ele>
        <time>2020-02-08T11:09:59.359Z</time>
      </trkpt>
      <trkpt lat="39.04521" lon="-0.20836833">
        <ele>9.947</ele>
        <time>2020-02-08T11:10:00.359Z</time>
      </trkpt>
      <trkpt lat="39.04521" lon="-0.20836833">
        <ele>9.947</ele>
        <time>2020-02-08T11:10:01.359Z</time>
      </trkpt>
      <trkpt lat="39.045115" lon="-0.20829833">
        <ele>9.947</ele>
        <time>2020-02-08T11:10:02.359Z</time>
      </trkpt>
      <trkpt lat="39.045115" lon="-0.20829833">
        <ele>9.947</ele>
        <time>2020-02-08T11:10:03.359Z</time>
      </trkpt>
      <trkpt lat="39.04502167" lon="-0.20824167">
        <ele>9.947</ele>
        <time>2020-02-08T11:10:04.359Z</time>
      </trkpt>
      <trkpt lat="39.04502167" lon="-0.20824167">
        <ele>9.947</ele>
        <time>2020-02-08T11:10:05.359Z</time>
      </trkpt>
      <trkpt lat="39.04493" lon="-0.20819167">
        <ele>9.947</ele>
        <time>2020-02-08T11:10:06.359Z</time>
      </trkpt>
      <trkpt lat="39.04493" lon="-0.20819167">
        <ele>9.947</ele>
        <time>2020-02-08T11:10:07.359Z</time>
      </trkpt>
      <trkpt lat="39.04485167" lon="-0.20815">
        <ele>9.947</ele>
        <time>2020-02-08T11:10:08.359Z</time>
      </trkpt>
      <trkpt lat="39.04485167" lon="-0.20815">
        <ele>9.947</ele>
        <time>2020-02-08T11:10:09.359Z</time>
      </trkpt>
      <trkpt lat="39.04480167" lon="-0.20812667">
        <ele>9.947</ele>
        <time>2020-02-08T11:10:10.359Z</time>
      </trkpt>
      <trkpt lat="39.04480167" lon="-0.20812667">
        <ele>9.947</ele>
        <time>2020-02-08T11:10:11.359Z</time>
      </trkpt>
      <trkpt lat="39.04475167" lon="-0.208135">
        <ele>9.947</ele>
        <time>2020-02-08T11:10:12.359Z</time>
      </trkpt>
      <trkpt lat="39.04475167" lon="-0.208135">
        <ele>9.947</ele>
        <time>2020-02-08T11:10:13.359Z</time>
      </trkpt>
      <trkpt lat="39.044715" lon="-0.20820667">
        <ele>9.947</ele>
        <time>2020-02-08T11:10:14.359Z</time>
      </trkpt>
      <trkpt lat="39.044715" lon="-0.20820667">
        <ele>9.947</ele>
        <time>2020-02-08T11:10:15.359Z</time>
      </trkpt>
      <trkpt lat="39.04467667" lon="-0.20831833">
        <ele>9.947</ele>
        <time>2020-02-08T11:10:16.359Z</time>
      </trkpt>
      <trkpt lat="39.04467667" lon="-0.20831833">
        <ele>9.947</ele>
        <time>2020-02-08T11:10:17.359Z</time>
      </trkpt>
      <trkpt lat="39.04463" lon="-0.20845167">
        <ele>9.947</ele>
        <time>2020-02-08T11:10:18.359Z</time>
      </trkpt>
      <trkpt lat="39.04463" lon="-0.20845167">
        <ele>9.947</ele>
        <time>2020-02-08T11:10:19.359Z</time>
      </trkpt>
      <trkpt lat="39.04458167" lon="-0.20858833">
        <ele>9.947</ele>
        <time>2020-02-08T11:10:20.359Z</time>
      </trkpt>
      <trkpt lat="39.04458167" lon="-0.20858833">
        <ele>9.947</ele>
        <time>2020-02-08T11:10:21.359Z</time>
      </trkpt>
      <trkpt lat="39.04452667" lon="-0.20872167">
        <ele>9.947</ele>
        <time>2020-02-08T11:10:22.359Z</time>
      </trkpt>
      <trkpt lat="39.04452667" lon="-0.20872167">
        <ele>9.947</ele>
        <time>2020-02-08T11:10:23.359Z</time>
      </trkpt>
      <trkpt lat="39.04447833" lon="-0.20886">
        <ele>9.947</ele>
        <time>2020-02-08T11:10:24.359Z</time>
      </trkpt>
      <trkpt lat="39.04447833" lon="-0.20886">
        <ele>9.947</ele>
        <time>2020-02-08T11:10:25.359Z</time>
      </trkpt>
      <trkpt lat="39.04443" lon="-0.20899833">
        <ele>9.947</ele>
        <time>2020-02-08T11:10:26.359Z</time>
      </trkpt>
      <trkpt lat="39.04443" lon="-0.20899833">
        <ele>9.947</ele>
        <time>2020-02-08T11:10:27.359Z</time>
      </trkpt>
      <trkpt lat="39.04438" lon="-0.20914">
        <ele>9.947</ele>
        <time>2020-02-08T11:10:28.359Z</time>
      </trkpt>
      <trkpt lat="39.04435333" lon="-0.20921333">
        <ele>9.947</ele>
        <time>2020-02-08T11:10:29.359Z</time>
      </trkpt>
      <trkpt lat="39.04432667" lon="-0.20928667">
        <ele>9.947</ele>
        <time>2020-02-08T11:10:30.359Z</time>
      </trkpt>
      <trkpt lat="39.04432667" lon="-0.20928667">
        <ele>9.947</ele>
        <time>2020-02-08T11:10:31.359Z</time>
      </trkpt>
      <trkpt lat="39.04427667" lon="-0.209435">
        <ele>9.947</ele>
        <time>2020-02-08T11:10:32.359Z</time>
      </trkpt>
      <trkpt lat="39.04427667" lon="-0.209435">
        <ele>9.947</ele>
        <time>2020-02-08T11:10:33.359Z</time>
      </trkpt>
      <trkpt lat="39.04422333" lon="-0.20958333">
        <ele>9.947</ele>
        <time>2020-02-08T11:10:34.359Z</time>
      </trkpt>
      <trkpt lat="39.04422333" lon="-0.20958333">
        <ele>9.947</ele>
        <time>2020-02-08T11:10:35.359Z</time>
      </trkpt>
      <trkpt lat="39.04417333" lon="-0.20973167">
        <ele>9.947</ele>
        <time>2020-02-08T11:10:36.359Z</time>
      </trkpt>
      <trkpt lat="39.04417333" lon="-0.20973167">
        <ele>9.947</ele>
        <time>2020-02-08T11:10:37.359Z</time>
      </trkpt>
      <trkpt lat="39.04411833" lon="-0.20988">
        <ele>9.947</ele>
        <time>2020-02-08T11:10:38.359Z</time>
      </trkpt>
      <trkpt lat="39.04411833" lon="-0.20988">
        <ele>9.947</ele>
        <time>2020-02-08T11:10:39.359Z</time>
      </trkpt>
      <trkpt lat="39.04406667" lon="-0.21003167">
        <ele>9.947</ele>
        <time>2020-02-08T11:10:40.359Z</time>
      </trkpt>
      <trkpt lat="39.04406667" lon="-0.21003167">
        <ele>9.947</ele>
        <time>2020-02-08T11:10:41.359Z</time>
      </trkpt>
      <trkpt lat="39.044015" lon="-0.21017833">
        <ele>9.947</ele>
        <time>2020-02-08T11:10:42.359Z</time>
      </trkpt>
      <trkpt lat="39.044015" lon="-0.21017833">
        <ele>9.947</ele>
        <time>2020-02-08T11:10:43.359Z</time>
      </trkpt>
      <trkpt lat="39.04396167" lon="-0.210325">
        <ele>9.947</ele>
        <time>2020-02-08T11:10:44.359Z</time>
      </trkpt>
      <trkpt lat="39.04396167" lon="-0.210325">
        <ele>9.947</ele>
        <time>2020-02-08T11:10:45.359Z</time>
      </trkpt>
      <trkpt lat="39.043905" lon="-0.21047333">
        <ele>9.947</ele>
        <time>2020-02-08T11:10:46.359Z</time>
      </trkpt>
      <trkpt lat="39.043905" lon="-0.21047333">
        <ele>9.947</ele>
        <time>2020-02-08T11:10:47.359Z</time>
      </trkpt>
      <trkpt lat="39.04384667" lon="-0.21062167">
        <ele>9.947</ele>
        <time>2020-02-08T11:10:48.359Z</time>
      </trkpt>
      <trkpt lat="39.04384667" lon="-0.21062167">
        <ele>9.947</ele>
        <time>2020-02-08T11:10:49.359Z</time>
      </trkpt>
      <trkpt lat="39.04377667" lon="-0.21076833">
        <ele>9.947</ele>
        <time>2020-02-08T11:10:50.359Z</time>
      </trkpt>
      <trkpt lat="39.04377667" lon="-0.21076833">
        <ele>9.947</ele>
        <time>2020-02-08T11:10:51.359Z</time>
      </trkpt>
      <trkpt lat="39.04369333" lon="-0.210905">
        <ele>9.947</ele>
        <time>2020-02-08T11:10:52.359Z</time>
      </trkpt>
      <trkpt lat="39.04369333" lon="-0.210905">
        <ele>9.947</ele>
        <time>2020-02-08T11:10:53.359Z</time>
      </trkpt>
      <trkpt lat="39.04360167" lon="-0.21102667">
        <ele>9.947</ele>
        <time>2020-02-08T11:10:54.359Z</time>
      </trkpt>
      <trkpt lat="39.04360167" lon="-0.21102667">
        <ele>9.947</ele>
        <time>2020-02-08T11:10:55.359Z</time>
      </trkpt>
      <trkpt lat="39.04350333" lon="-0.21114833">
        <ele>9.947</ele>
        <time>2020-02-08T11:10:56.359Z</time>
      </trkpt>
      <trkpt lat="39.04350333" lon="-0.21114833">
        <ele>9.947</ele>
        <time>2020-02-08T11:10:57.359Z</time>
      </trkpt>
      <trkpt lat="39.0434" lon="-0.21126833">
        <ele>9.947</ele>
        <time>2020-02-08T11:10:58.359Z</time>
      </trkpt>
      <trkpt lat="39.0434" lon="-0.21126833">
        <ele>9.947</ele>
        <time>2020-02-08T11:10:59.359Z</time>
      </trkpt>
      <trkpt lat="39.04329667" lon="-0.21138167">
        <ele>9.947</ele>
        <time>2020-02-08T11:11:00.359Z</time>
      </trkpt>
      <trkpt lat="39.04329667" lon="-0.21138167">
        <ele>9.947</ele>
        <time>2020-02-08T11:11:01.359Z</time>
      </trkpt>
      <trkpt lat="39.04319" lon="-0.21149667">
        <ele>9.947</ele>
        <time>2020-02-08T11:11:02.359Z</time>
      </trkpt>
      <trkpt lat="39.04313667" lon="-0.211555">
        <ele>9.947</ele>
        <time>2020-02-08T11:11:03.359Z</time>
      </trkpt>
      <trkpt lat="39.04313667" lon="-0.211555">
        <ele>9.947</ele>
        <time>2020-02-08T11:11:04.359Z</time>
      </trkpt>
      <trkpt lat="39.04302667" lon="-0.21167333">
        <ele>9.947</ele>
        <time>2020-02-08T11:11:05.359Z</time>
      </trkpt>
      <trkpt lat="39.04296833" lon="-0.21173667">
        <ele>9.947</ele>
        <time>2020-02-08T11:11:06.359Z</time>
      </trkpt>
      <trkpt lat="39.04296833" lon="-0.21173667">
        <ele>9.947</ele>
        <time>2020-02-08T11:11:07.359Z</time>
      </trkpt>
      <trkpt lat="39.04286" lon="-0.211855">
        <ele>9.947</ele>
        <time>2020-02-08T11:11:08.359Z</time>
      </trkpt>
      <trkpt lat="39.04286" lon="-0.211855">
        <ele>9.947</ele>
        <time>2020-02-08T11:11:09.359Z</time>
      </trkpt>
      <trkpt lat="39.04275833" lon="-0.21198667">
        <ele>9.947</ele>
        <time>2020-02-08T11:11:10.359Z</time>
      </trkpt>
      <trkpt lat="39.04275833" lon="-0.21198667">
        <ele>9.947</ele>
        <time>2020-02-08T11:11:11.359Z</time>
      </trkpt>
      <trkpt lat="39.04265" lon="-0.21211167">
        <ele>9.947</ele>
        <time>2020-02-08T11:11:12.359Z</time>
      </trkpt>
      <trkpt lat="39.04265" lon="-0.21211167">
        <ele>9.947</ele>
        <time>2020-02-08T11:11:13.359Z</time>
      </trkpt>
      <trkpt lat="39.04253833" lon="-0.212235">
        <ele>9.947</ele>
        <time>2020-02-08T11:11:14.359Z</time>
      </trkpt>
      <trkpt lat="39.04253833" lon="-0.212235">
        <ele>9.947</ele>
        <time>2020-02-08T11:11:15.359Z</time>
      </trkpt>
      <trkpt lat="39.04242833" lon="-0.21236">
        <ele>9.947</ele>
        <time>2020-02-08T11:11:16.359Z</time>
      </trkpt>
      <trkpt lat="39.04242833" lon="-0.21236">
        <ele>9.947</ele>
        <time>2020-02-08T11:11:17.359Z</time>
      </trkpt>
      <trkpt lat="39.04231833" lon="-0.21248167">
        <ele>9.947</ele>
        <time>2020-02-08T11:11:18.359Z</time>
      </trkpt>
      <trkpt lat="39.04231833" lon="-0.21248167">
        <ele>9.947</ele>
        <time>2020-02-08T11:11:19.359Z</time>
      </trkpt>
      <trkpt lat="39.04220667" lon="-0.212605">
        <ele>9.947</ele>
        <time>2020-02-08T11:11:20.359Z</time>
      </trkpt>
      <trkpt lat="39.04220667" lon="-0.212605">
        <ele>9.947</ele>
        <time>2020-02-08T11:11:21.359Z</time>
      </trkpt>
      <trkpt lat="39.0421" lon="-0.21273167">
        <ele>9.947</ele>
        <time>2020-02-08T11:11:22.359Z</time>
      </trkpt>
      <trkpt lat="39.0421" lon="-0.21273167">
        <ele>9.947</ele>
        <time>2020-02-08T11:11:23.359Z</time>
      </trkpt>
      <trkpt lat="39.04199333" lon="-0.21286167">
        <ele>9.947</ele>
        <time>2020-02-08T11:11:24.359Z</time>
      </trkpt>
      <trkpt lat="39.04199333" lon="-0.21286167">
        <ele>9.947</ele>
        <time>2020-02-08T11:11:25.359Z</time>
      </trkpt>
      <trkpt lat="39.04189333" lon="-0.213">
        <ele>9.947</ele>
        <time>2020-02-08T11:11:26.359Z</time>
      </trkpt>
      <trkpt lat="39.04189333" lon="-0.213">
        <ele>9.947</ele>
        <time>2020-02-08T11:11:27.359Z</time>
      </trkpt>
      <trkpt lat="39.04180833" lon="-0.21315167">
        <ele>9.947</ele>
        <time>2020-02-08T11:11:28.359Z</time>
      </trkpt>
      <trkpt lat="39.04180833" lon="-0.21315167">
        <ele>9.947</ele>
        <time>2020-02-08T11:11:29.359Z</time>
      </trkpt>
      <trkpt lat="39.04173333" lon="-0.21331167">
        <ele>9.947</ele>
        <time>2020-02-08T11:11:30.359Z</time>
      </trkpt>
      <trkpt lat="39.04173333" lon="-0.21331167">
        <ele>9.947</ele>
        <time>2020-02-08T11:11:31.359Z</time>
      </trkpt>
      <trkpt lat="39.04166667" lon="-0.21348">
        <ele>9.947</ele>
        <time>2020-02-08T11:11:32.359Z</time>
      </trkpt>
      <trkpt lat="39.04163667" lon="-0.21356333">
        <ele>9.947</ele>
        <time>2020-02-08T11:11:33.359Z</time>
      </trkpt>
      <trkpt lat="39.04163667" lon="-0.21356333">
        <ele>9.947</ele>
        <time>2020-02-08T11:11:34.359Z</time>
      </trkpt>
      <trkpt lat="39.04157833" lon="-0.21373667">
        <ele>9.947</ele>
        <time>2020-02-08T11:11:35.359Z</time>
      </trkpt>
      <trkpt lat="39.04155333" lon="-0.21382333">
        <ele>9.947</ele>
        <time>2020-02-08T11:11:36.359Z</time>
      </trkpt>
      <trkpt lat="39.04155333" lon="-0.21382333">
        <ele>9.947</ele>
        <time>2020-02-08T11:11:37.359Z</time>
      </trkpt>
      <trkpt lat="39.04150167" lon="-0.21399667">
        <ele>9.947</ele>
        <time>2020-02-08T11:11:38.359Z</time>
      </trkpt>
      <trkpt lat="39.04147833" lon="-0.21408333">
        <ele>9.947</ele>
        <time>2020-02-08T11:11:39.359Z</time>
      </trkpt>
      <trkpt lat="39.04147833" lon="-0.21408333">
        <ele>9.947</ele>
        <time>2020-02-08T11:11:40.359Z</time>
      </trkpt>
      <trkpt lat="39.04142833" lon="-0.214255">
        <ele>9.947</ele>
        <time>2020-02-08T11:11:41.359Z</time>
      </trkpt>
      <trkpt lat="39.041405" lon="-0.21434167">
        <ele>10.947</ele>
        <time>2020-02-08T11:11:42.359Z</time>
      </trkpt>
      <trkpt lat="39.041405" lon="-0.21434167">
        <ele>10.947</ele>
        <time>2020-02-08T11:11:43.359Z</time>
      </trkpt>
      <trkpt lat="39.041355" lon="-0.21451">
        <ele>10.947</ele>
        <time>2020-02-08T11:11:44.359Z</time>
      </trkpt>
      <trkpt lat="39.04133" lon="-0.21459167">
        <ele>10.947</ele>
        <time>2020-02-08T11:11:45.359Z</time>
      </trkpt>
      <trkpt lat="39.04133" lon="-0.21459167">
        <ele>10.947</ele>
        <time>2020-02-08T11:11:46.359Z</time>
      </trkpt>
      <trkpt lat="39.04128167" lon="-0.21475833">
        <ele>10.947</ele>
        <time>2020-02-08T11:11:47.359Z</time>
      </trkpt>
      <trkpt lat="39.04125667" lon="-0.21484333">
        <ele>10.947</ele>
        <time>2020-02-08T11:11:48.359Z</time>
      </trkpt>
      <trkpt lat="39.04125667" lon="-0.21484333">
        <ele>10.947</ele>
        <time>2020-02-08T11:11:49.359Z</time>
      </trkpt>
      <trkpt lat="39.041205" lon="-0.21500667">
        <ele>10.947</ele>
        <time>2020-02-08T11:11:50.359Z</time>
      </trkpt>
      <trkpt lat="39.041205" lon="-0.21500667">
        <ele>10.947</ele>
        <time>2020-02-08T11:11:51.359Z</time>
      </trkpt>
      <trkpt lat="39.04115167" lon="-0.21517">
        <ele>10.947</ele>
        <time>2020-02-08T11:11:52.359Z</time>
      </trkpt>
      <trkpt lat="39.04115167" lon="-0.21517">
        <ele>10.947</ele>
        <time>2020-02-08T11:11:53.359Z</time>
      </trkpt>
      <trkpt lat="39.04108333" lon="-0.21532833">
        <ele>10.947</ele>
        <time>2020-02-08T11:11:54.359Z</time>
      </trkpt>
      <trkpt lat="39.04108333" lon="-0.21532833">
        <ele>10.947</ele>
        <time>2020-02-08T11:11:55.359Z</time>
      </trkpt>
      <trkpt lat="39.041005" lon="-0.215475">
        <ele>10.947</ele>
        <time>2020-02-08T11:11:56.359Z</time>
      </trkpt>
      <trkpt lat="39.041005" lon="-0.215475">
        <ele>10.947</ele>
        <time>2020-02-08T11:11:57.359Z</time>
      </trkpt>
      <trkpt lat="39.040915" lon="-0.21560333">
        <ele>10.947</ele>
        <time>2020-02-08T11:11:58.359Z</time>
      </trkpt>
      <trkpt lat="39.040915" lon="-0.21560333">
        <ele>10.947</ele>
        <time>2020-02-08T11:11:59.359Z</time>
      </trkpt>
      <trkpt lat="39.04081833" lon="-0.21571833">
        <ele>10.947</ele>
        <time>2020-02-08T11:12:00.359Z</time>
      </trkpt>
      <trkpt lat="39.04076833" lon="-0.21577833">
        <ele>10.947</ele>
        <time>2020-02-08T11:12:01.359Z</time>
      </trkpt>
      <trkpt lat="39.04076833" lon="-0.21577833">
        <ele>10.947</ele>
        <time>2020-02-08T11:12:02.359Z</time>
      </trkpt>
      <trkpt lat="39.04068" lon="-0.215905">
        <ele>10.947</ele>
        <time>2020-02-08T11:12:03.359Z</time>
      </trkpt>
      <trkpt lat="39.04068" lon="-0.215905">
        <ele>10.947</ele>
        <time>2020-02-08T11:12:04.359Z</time>
      </trkpt>
      <trkpt lat="39.04064167" lon="-0.21607">
        <ele>10.947</ele>
        <time>2020-02-08T11:12:05.359Z</time>
      </trkpt>
      <trkpt lat="39.04064167" lon="-0.21615333">
        <ele>11.947</ele>
        <time>2020-02-08T11:12:06.359Z</time>
      </trkpt>
      <trkpt lat="39.04064167" lon="-0.21615333">
        <ele>11.947</ele>
        <time>2020-02-08T11:12:07.359Z</time>
      </trkpt>
      <trkpt lat="39.04059167" lon="-0.21630333">
        <ele>11.947</ele>
        <time>2020-02-08T11:12:08.359Z</time>
      </trkpt>
      <trkpt lat="39.04059167" lon="-0.21630333">
        <ele>11.947</ele>
        <time>2020-02-08T11:12:09.359Z</time>
      </trkpt>
      <trkpt lat="39.040475" lon="-0.21637333">
        <ele>11.947</ele>
        <time>2020-02-08T11:12:10.359Z</time>
      </trkpt>
      <trkpt lat="39.04040833" lon="-0.21636667">
        <ele>11.947</ele>
        <time>2020-02-08T11:12:11.359Z</time>
      </trkpt>
      <trkpt lat="39.040345" lon="-0.21633667">
        <ele>11.947</ele>
        <time>2020-02-08T11:12:12.359Z</time>
      </trkpt>
      <trkpt lat="39.040345" lon="-0.21633667">
        <ele>11.947</ele>
        <time>2020-02-08T11:12:13.359Z</time>
      </trkpt>
      <trkpt lat="39.04021667" lon="-0.216265">
        <ele>11.947</ele>
        <time>2020-02-08T11:12:14.359Z</time>
      </trkpt>
      <trkpt lat="39.04015667" lon="-0.21623333">
        <ele>11.947</ele>
        <time>2020-02-08T11:12:15.359Z</time>
      </trkpt>
      <trkpt lat="39.04015667" lon="-0.21623333">
        <ele>11.947</ele>
        <time>2020-02-08T11:12:16.359Z</time>
      </trkpt>
      <trkpt lat="39.040035" lon="-0.216165">
        <ele>11.947</ele>
        <time>2020-02-08T11:12:17.359Z</time>
      </trkpt>
      <trkpt lat="39.03997333" lon="-0.21613167">
        <ele>11.947</ele>
        <time>2020-02-08T11:12:18.359Z</time>
      </trkpt>
      <trkpt lat="39.03997333" lon="-0.21613167">
        <ele>11.947</ele>
        <time>2020-02-08T11:12:19.359Z</time>
      </trkpt>
      <trkpt lat="39.03984833" lon="-0.21606833">
        <ele>11.947</ele>
        <time>2020-02-08T11:12:20.359Z</time>
      </trkpt>
      <trkpt lat="39.03978333" lon="-0.21603833">
        <ele>11.947</ele>
        <time>2020-02-08T11:12:21.359Z</time>
      </trkpt>
      <trkpt lat="39.03978333" lon="-0.21603833">
        <ele>11.947</ele>
        <time>2020-02-08T11:12:22.359Z</time>
      </trkpt>
      <trkpt lat="39.03965667" lon="-0.21598">
        <ele>11.947</ele>
        <time>2020-02-08T11:12:23.359Z</time>
      </trkpt>
      <trkpt lat="39.03965667" lon="-0.21598">
        <ele>11.947</ele>
        <time>2020-02-08T11:12:24.359Z</time>
      </trkpt>
      <trkpt lat="39.03953" lon="-0.21591833">
        <ele>11.947</ele>
        <time>2020-02-08T11:12:25.359Z</time>
      </trkpt>
      <trkpt lat="39.03953" lon="-0.21591833">
        <ele>11.947</ele>
        <time>2020-02-08T11:12:26.359Z</time>
      </trkpt>
      <trkpt lat="39.03940333" lon="-0.21585833">
        <ele>11.947</ele>
        <time>2020-02-08T11:12:27.359Z</time>
      </trkpt>
      <trkpt lat="39.03940333" lon="-0.21585833">
        <ele>11.947</ele>
        <time>2020-02-08T11:12:28.359Z</time>
      </trkpt>
      <trkpt lat="39.03927833" lon="-0.21580333">
        <ele>11.947</ele>
        <time>2020-02-08T11:12:29.359Z</time>
      </trkpt>
      <trkpt lat="39.03921167" lon="-0.215775">
        <ele>11.947</ele>
        <time>2020-02-08T11:12:30.359Z</time>
      </trkpt>
      <trkpt lat="39.03921167" lon="-0.215775">
        <ele>11.947</ele>
        <time>2020-02-08T11:12:31.359Z</time>
      </trkpt>
      <trkpt lat="39.03908333" lon="-0.21571667">
        <ele>11.947</ele>
        <time>2020-02-08T11:12:32.359Z</time>
      </trkpt>
      <trkpt lat="39.039025" lon="-0.21568833">
        <ele>11.947</ele>
        <time>2020-02-08T11:12:33.359Z</time>
      </trkpt>
      <trkpt lat="39.039025" lon="-0.21568833">
        <ele>11.947</ele>
        <time>2020-02-08T11:12:34.359Z</time>
      </trkpt>
      <trkpt lat="39.03890167" lon="-0.21563167">
        <ele>11.947</ele>
        <time>2020-02-08T11:12:35.359Z</time>
      </trkpt>
      <trkpt lat="39.03883833" lon="-0.21560167">
        <ele>11.947</ele>
        <time>2020-02-08T11:12:36.359Z</time>
      </trkpt>
      <trkpt lat="39.03883833" lon="-0.21560167">
        <ele>11.947</ele>
        <time>2020-02-08T11:12:37.359Z</time>
      </trkpt>
      <trkpt lat="39.03871" lon="-0.215545">
        <ele>11.947</ele>
        <time>2020-02-08T11:12:38.359Z</time>
      </trkpt>
      <trkpt lat="39.03871" lon="-0.215545">
        <ele>11.947</ele>
        <time>2020-02-08T11:12:39.359Z</time>
      </trkpt>
      <trkpt lat="39.03858333" lon="-0.21549167">
        <ele>11.947</ele>
        <time>2020-02-08T11:12:40.359Z</time>
      </trkpt>
      <trkpt lat="39.03858333" lon="-0.21549167">
        <ele>11.947</ele>
        <time>2020-02-08T11:12:41.359Z</time>
      </trkpt>
      <trkpt lat="39.03845667" lon="-0.21543167">
        <ele>11.947</ele>
        <time>2020-02-08T11:12:42.359Z</time>
      </trkpt>
      <trkpt lat="39.03845667" lon="-0.21543167">
        <ele>11.947</ele>
        <time>2020-02-08T11:12:43.359Z</time>
      </trkpt>
      <trkpt lat="39.03832833" lon="-0.21538667">
        <ele>11.947</ele>
        <time>2020-02-08T11:12:44.359Z</time>
      </trkpt>
      <trkpt lat="39.03832833" lon="-0.21538667">
        <ele>11.947</ele>
        <time>2020-02-08T11:12:45.359Z</time>
      </trkpt>
      <trkpt lat="39.03819333" lon="-0.215325">
        <ele>11.947</ele>
        <time>2020-02-08T11:12:46.359Z</time>
      </trkpt>
      <trkpt lat="39.03819333" lon="-0.215325">
        <ele>11.947</ele>
        <time>2020-02-08T11:12:47.359Z</time>
      </trkpt>
      <trkpt lat="39.03805833" lon="-0.21526667">
        <ele>11.947</ele>
        <time>2020-02-08T11:12:48.359Z</time>
      </trkpt>
      <trkpt lat="39.03805833" lon="-0.21526667">
        <ele>11.947</ele>
        <time>2020-02-08T11:12:49.359Z</time>
      </trkpt>
      <trkpt lat="39.03792667" lon="-0.21521">
        <ele>11.947</ele>
        <time>2020-02-08T11:12:50.359Z</time>
      </trkpt>
      <trkpt lat="39.03792667" lon="-0.21521">
        <ele>11.947</ele>
        <time>2020-02-08T11:12:51.359Z</time>
      </trkpt>
      <trkpt lat="39.03779833" lon="-0.21515">
        <ele>11.947</ele>
        <time>2020-02-08T11:12:52.359Z</time>
      </trkpt>
      <trkpt lat="39.03779833" lon="-0.21515">
        <ele>11.947</ele>
        <time>2020-02-08T11:12:53.359Z</time>
      </trkpt>
      <trkpt lat="39.03767167" lon="-0.21509167">
        <ele>11.947</ele>
        <time>2020-02-08T11:12:54.359Z</time>
      </trkpt>
      <trkpt lat="39.03767167" lon="-0.21509167">
        <ele>11.947</ele>
        <time>2020-02-08T11:12:55.359Z</time>
      </trkpt>
      <trkpt lat="39.03754333" lon="-0.215045">
        <ele>11.947</ele>
        <time>2020-02-08T11:12:56.359Z</time>
      </trkpt>
      <trkpt lat="39.03747833" lon="-0.21502333">
        <ele>11.947</ele>
        <time>2020-02-08T11:12:57.359Z</time>
      </trkpt>
      <trkpt lat="39.03747833" lon="-0.21502333">
        <ele>11.947</ele>
        <time>2020-02-08T11:12:58.359Z</time>
      </trkpt>
      <trkpt lat="39.03735333" lon="-0.21498167">
        <ele>11.947</ele>
        <time>2020-02-08T11:12:59.359Z</time>
      </trkpt>
      <trkpt lat="39.03735333" lon="-0.21498167">
        <ele>11.947</ele>
        <time>2020-02-08T11:13:00.359Z</time>
      </trkpt>
      <trkpt lat="39.03723833" lon="-0.21495333">
        <ele>11.947</ele>
        <time>2020-02-08T11:13:01.359Z</time>
      </trkpt>
      <trkpt lat="39.03723833" lon="-0.21495333">
        <ele>11.947</ele>
        <time>2020-02-08T11:13:02.359Z</time>
      </trkpt>
      <trkpt lat="39.03712667" lon="-0.21495">
        <ele>11.947</ele>
        <time>2020-02-08T11:13:03.359Z</time>
      </trkpt>
      <trkpt lat="39.03712667" lon="-0.21495">
        <ele>11.947</ele>
        <time>2020-02-08T11:13:04.359Z</time>
      </trkpt>
      <trkpt lat="39.037015" lon="-0.21491333">
        <ele>11.947</ele>
        <time>2020-02-08T11:13:05.359Z</time>
      </trkpt>
      <trkpt lat="39.03695833" lon="-0.21488667">
        <ele>11.947</ele>
        <time>2020-02-08T11:13:06.359Z</time>
      </trkpt>
      <trkpt lat="39.03695833" lon="-0.21488667">
        <ele>11.947</ele>
        <time>2020-02-08T11:13:07.359Z</time>
      </trkpt>
      <trkpt lat="39.036845" lon="-0.21484667">
        <ele>11.947</ele>
        <time>2020-02-08T11:13:08.359Z</time>
      </trkpt>
      <trkpt lat="39.03678833" lon="-0.21483333">
        <ele>11.947</ele>
        <time>2020-02-08T11:13:09.359Z</time>
      </trkpt>
      <trkpt lat="39.03678833" lon="-0.21483333">
        <ele>11.947</ele>
        <time>2020-02-08T11:13:10.359Z</time>
      </trkpt>
      <trkpt lat="39.03668" lon="-0.21480667">
        <ele>11.947</ele>
        <time>2020-02-08T11:13:11.359Z</time>
      </trkpt>
      <trkpt lat="39.03662667" lon="-0.21479333">
        <ele>11.947</ele>
        <time>2020-02-08T11:13:12.359Z</time>
      </trkpt>
      <trkpt lat="39.03662667" lon="-0.21479333">
        <ele>11.947</ele>
        <time>2020-02-08T11:13:13.359Z</time>
      </trkpt>
      <trkpt lat="39.03652667" lon="-0.214765">
        <ele>11.947</ele>
        <time>2020-02-08T11:13:14.359Z</time>
      </trkpt>
      <trkpt lat="39.03652667" lon="-0.214765">
        <ele>11.947</ele>
        <time>2020-02-08T11:13:15.359Z</time>
      </trkpt>
      <trkpt lat="39.03643" lon="-0.214745">
        <ele>11.947</ele>
        <time>2020-02-08T11:13:16.359Z</time>
      </trkpt>
      <trkpt lat="39.036385" lon="-0.21474167">
        <ele>11.947</ele>
        <time>2020-02-08T11:13:17.359Z</time>
      </trkpt>
      <trkpt lat="39.036385" lon="-0.21474167">
        <ele>11.947</ele>
        <time>2020-02-08T11:13:18.359Z</time>
      </trkpt>
      <trkpt lat="39.03631833" lon="-0.21481333">
        <ele>11.947</ele>
        <time>2020-02-08T11:13:19.359Z</time>
      </trkpt>
      <trkpt lat="39.03631833" lon="-0.21481333">
        <ele>11.947</ele>
        <time>2020-02-08T11:13:20.359Z</time>
      </trkpt>
      <trkpt lat="39.03629833" lon="-0.21501667">
        <ele>11.947</ele>
        <time>2020-02-08T11:13:21.359Z</time>
      </trkpt>
      <trkpt lat="39.03628167" lon="-0.21511333">
        <ele>11.947</ele>
        <time>2020-02-08T11:13:22.359Z</time>
      </trkpt>
      <trkpt lat="39.03628167" lon="-0.21511333">
        <ele>11.947</ele>
        <time>2020-02-08T11:13:23.359Z</time>
      </trkpt>
      <trkpt lat="39.03624" lon="-0.21529333">
        <ele>11.947</ele>
        <time>2020-02-08T11:13:24.359Z</time>
      </trkpt>
      <trkpt lat="39.03624" lon="-0.21529333">
        <ele>11.947</ele>
        <time>2020-02-08T11:13:25.359Z</time>
      </trkpt>
      <trkpt lat="39.03621667" lon="-0.21548">
        <ele>11.947</ele>
        <time>2020-02-08T11:13:26.359Z</time>
      </trkpt>
      <trkpt lat="39.03620333" lon="-0.215575">
        <ele>11.947</ele>
        <time>2020-02-08T11:13:27.359Z</time>
      </trkpt>
      <trkpt lat="39.03620333" lon="-0.215575">
        <ele>11.947</ele>
        <time>2020-02-08T11:13:28.359Z</time>
      </trkpt>
      <trkpt lat="39.03617167" lon="-0.21575667">
        <ele>11.947</ele>
        <time>2020-02-08T11:13:29.359Z</time>
      </trkpt>
      <trkpt lat="39.036155" lon="-0.215845">
        <ele>11.947</ele>
        <time>2020-02-08T11:13:30.359Z</time>
      </trkpt>
      <trkpt lat="39.036155" lon="-0.215845">
        <ele>11.947</ele>
        <time>2020-02-08T11:13:31.359Z</time>
      </trkpt>
      <trkpt lat="39.03612167" lon="-0.21601667">
        <ele>11.947</ele>
        <time>2020-02-08T11:13:32.359Z</time>
      </trkpt>
      <trkpt lat="39.036095" lon="-0.2161">
        <ele>11.947</ele>
        <time>2020-02-08T11:13:33.359Z</time>
      </trkpt>
      <trkpt lat="39.03608167" lon="-0.21618333">
        <ele>11.947</ele>
        <time>2020-02-08T11:13:34.359Z</time>
      </trkpt>
      <trkpt lat="39.03608167" lon="-0.21618333">
        <ele>12.947</ele>
        <time>2020-02-08T11:13:35.359Z</time>
      </trkpt>
      <trkpt lat="39.03607667" lon="-0.21635">
        <ele>12.947</ele>
        <time>2020-02-08T11:13:36.359Z</time>
      </trkpt>
      <trkpt lat="39.03607667" lon="-0.21635">
        <ele>12.947</ele>
        <time>2020-02-08T11:13:37.359Z</time>
      </trkpt>
      <trkpt lat="39.03604" lon="-0.21650333">
        <ele>12.947</ele>
        <time>2020-02-08T11:13:38.359Z</time>
      </trkpt>
      <trkpt lat="39.03604" lon="-0.21650333">
        <ele>12.947</ele>
        <time>2020-02-08T11:13:39.359Z</time>
      </trkpt>
      <trkpt lat="39.03601" lon="-0.21666667">
        <ele>12.947</ele>
        <time>2020-02-08T11:13:40.359Z</time>
      </trkpt>
      <trkpt lat="39.03601" lon="-0.21666667">
        <ele>12.947</ele>
        <time>2020-02-08T11:13:41.359Z</time>
      </trkpt>
      <trkpt lat="39.03599" lon="-0.21682833">
        <ele>12.947</ele>
        <time>2020-02-08T11:13:42.359Z</time>
      </trkpt>
      <trkpt lat="39.03599" lon="-0.21682833">
        <ele>13.947</ele>
        <time>2020-02-08T11:13:43.359Z</time>
      </trkpt>
      <trkpt lat="39.03596833" lon="-0.21699">
        <ele>13.947</ele>
        <time>2020-02-08T11:13:44.359Z</time>
      </trkpt>
      <trkpt lat="39.03596833" lon="-0.21699">
        <ele>13.947</ele>
        <time>2020-02-08T11:13:45.359Z</time>
      </trkpt>
      <trkpt lat="39.03594167" lon="-0.21716">
        <ele>13.947</ele>
        <time>2020-02-08T11:13:46.359Z</time>
      </trkpt>
      <trkpt lat="39.03594167" lon="-0.21716">
        <ele>13.947</ele>
        <time>2020-02-08T11:13:47.359Z</time>
      </trkpt>
      <trkpt lat="39.03591667" lon="-0.21731833">
        <ele>14.947</ele>
        <time>2020-02-08T11:13:48.359Z</time>
      </trkpt>
      <trkpt lat="39.03591667" lon="-0.21731833">
        <ele>14.947</ele>
        <time>2020-02-08T11:13:49.359Z</time>
      </trkpt>
      <trkpt lat="39.03589" lon="-0.21748333">
        <ele>14.947</ele>
        <time>2020-02-08T11:13:50.359Z</time>
      </trkpt>
      <trkpt lat="39.03589" lon="-0.21748333">
        <ele>14.947</ele>
        <time>2020-02-08T11:13:51.359Z</time>
      </trkpt>
      <trkpt lat="39.03587667" lon="-0.21762833">
        <ele>14.947</ele>
        <time>2020-02-08T11:13:52.359Z</time>
      </trkpt>
      <trkpt lat="39.03587667" lon="-0.21762833">
        <ele>14.947</ele>
        <time>2020-02-08T11:13:53.359Z</time>
      </trkpt>
      <trkpt lat="39.03585167" lon="-0.21776333">
        <ele>14.947</ele>
        <time>2020-02-08T11:13:54.359Z</time>
      </trkpt>
      <trkpt lat="39.03585167" lon="-0.21776333">
        <ele>14.947</ele>
        <time>2020-02-08T11:13:55.359Z</time>
      </trkpt>
      <trkpt lat="39.03583" lon="-0.21791">
        <ele>14.947</ele>
        <time>2020-02-08T11:13:56.359Z</time>
      </trkpt>
      <trkpt lat="39.03581667" lon="-0.21797833">
        <ele>14.947</ele>
        <time>2020-02-08T11:13:57.359Z</time>
      </trkpt>
      <trkpt lat="39.03581667" lon="-0.21797833">
        <ele>14.947</ele>
        <time>2020-02-08T11:13:58.359Z</time>
      </trkpt>
      <trkpt lat="39.03578" lon="-0.21811">
        <ele>14.947</ele>
        <time>2020-02-08T11:13:59.359Z</time>
      </trkpt>
      <trkpt lat="39.03578" lon="-0.21811">
        <ele>15.947</ele>
        <time>2020-02-08T11:14:00.359Z</time>
      </trkpt>
      <trkpt lat="39.03576" lon="-0.21824833">
        <ele>15.947</ele>
        <time>2020-02-08T11:14:01.359Z</time>
      </trkpt>
      <trkpt lat="39.03575167" lon="-0.218305">
        <ele>15.947</ele>
        <time>2020-02-08T11:14:02.359Z</time>
      </trkpt>
      <trkpt lat="39.03575167" lon="-0.218305">
        <ele>15.947</ele>
        <time>2020-02-08T11:14:03.359Z</time>
      </trkpt>
      <trkpt lat="39.03572167" lon="-0.21839833">
        <ele>15.947</ele>
        <time>2020-02-08T11:14:04.359Z</time>
      </trkpt>
      <trkpt lat="39.03572167" lon="-0.21839833">
        <ele>15.947</ele>
        <time>2020-02-08T11:14:05.359Z</time>
      </trkpt>
      <trkpt lat="39.03571333" lon="-0.2185">
        <ele>15.947</ele>
        <time>2020-02-08T11:14:06.359Z</time>
      </trkpt>
      <trkpt lat="39.03570667" lon="-0.21854">
        <ele>15.947</ele>
        <time>2020-02-08T11:14:07.359Z</time>
      </trkpt>
      <trkpt lat="39.03570667" lon="-0.21854">
        <ele>16.947</ele>
        <time>2020-02-08T11:14:08.359Z</time>
      </trkpt>
      <trkpt lat="39.03569667" lon="-0.21857333">
        <ele>16.947</ele>
        <time>2020-02-08T11:14:09.359Z</time>
      </trkpt>
      <trkpt lat="39.03569667" lon="-0.21857333">
        <ele>16.947</ele>
        <time>2020-02-08T11:14:10.359Z</time>
      </trkpt>
      <trkpt lat="39.035695" lon="-0.218575">
        <ele>16.947</ele>
        <time>2020-02-08T11:14:11.359Z</time>
      </trkpt>
      <trkpt lat="39.035695" lon="-0.218575">
        <ele>16.947</ele>
        <time>2020-02-08T11:14:12.359Z</time>
      </trkpt>
      <trkpt lat="39.03569333" lon="-0.21857167">
        <ele>16.947</ele>
        <time>2020-02-08T11:14:13.359Z</time>
      </trkpt>
      <trkpt lat="39.03569333" lon="-0.21857167">
        <ele>16.947</ele>
        <time>2020-02-08T11:14:14.359Z</time>
      </trkpt>
      <trkpt lat="39.03569333" lon="-0.21857167">
        <ele>16.947</ele>
        <time>2020-02-08T11:14:15.359Z</time>
      </trkpt>
      <trkpt lat="39.03569333" lon="-0.21857167">
        <ele>16.947</ele>
        <time>2020-02-08T11:14:16.359Z</time>
      </trkpt>
      <trkpt lat="39.03569333" lon="-0.21857167">
        <ele>16.947</ele>
        <time>2020-02-08T11:14:17.359Z</time>
      </trkpt>
      <trkpt lat="39.03569333" lon="-0.21857167">
        <ele>16.947</ele>
        <time>2020-02-08T11:14:18.359Z</time>
      </trkpt>
      <trkpt lat="39.03569333" lon="-0.21857167">
        <ele>16.947</ele>
        <time>2020-02-08T11:14:19.359Z</time>
      </trkpt>
      <trkpt lat="39.03569333" lon="-0.21857167">
        <ele>16.947</ele>
        <time>2020-02-08T11:14:20.359Z</time>
      </trkpt>
      <trkpt lat="39.03569333" lon="-0.21857167">
        <ele>16.947</ele>
        <time>2020-02-08T11:14:21.359Z</time>
      </trkpt>
      <trkpt lat="39.03569333" lon="-0.21857167">
        <ele>18.947</ele>
        <time>2020-02-08T11:14:22.359Z</time>
      </trkpt>
      <trkpt lat="39.03569333" lon="-0.21857167">
        <ele>18.947</ele>
        <time>2020-02-08T11:14:23.359Z</time>
      </trkpt>
      <trkpt lat="39.03569333" lon="-0.21857167">
        <ele>16.947</ele>
        <time>2020-02-08T11:14:24.359Z</time>
      </trkpt>
      <trkpt lat="39.03569333" lon="-0.21857167">
        <ele>16.947</ele>
        <time>2020-02-08T11:14:25.359Z</time>
      </trkpt>
      <trkpt lat="39.03569333" lon="-0.21857167">
        <ele>16.947</ele>
        <time>2020-02-08T11:14:26.359Z</time>
      </trkpt>
      <trkpt lat="39.03569333" lon="-0.21857167">
        <ele>16.947</ele>
        <time>2020-02-08T11:14:27.359Z</time>
      </trkpt>
      <trkpt lat="39.03569333" lon="-0.21857167">
        <ele>16.947</ele>
        <time>2020-02-08T11:14:28.359Z</time>
      </trkpt>
    </trkseg>
  </trk>
</gpx>
